<?xml version="1.0" encoding="UTF-8" standalone="no" ?>
<gpx xmlns="http://www.topografix.com/GPX/1/1" xmlns:xsi="http://www.w3.org/2001/XMLSchema-instance" xsi:schemaLocation="http://www.topografix.com/GPX/1/1 http://www.topografix.com/GPX/1/1/gpx.xsd" version="1.1" creator="VisuGPX - https://www.visugpx.com">
  <metadata>
    <name>05/04/23</name>
  </metadata>
  <trk>
    <name><![CDATA[05/04/23_1]]></name>
    <trkseg>
      <trkpt lat="47.89104" lon="-3.88198">
        <ele>75.2</ele>
        <time>2022-12-08T15:08:54Z</time>
        <extensions>
          <visugpx:TrkExtension xmlns:visugpx="https://www.visugpx.com/editgpx/">
            <visugpx:node>5</visugpx:node>
            </visugpx:TrkExtension>
        </extensions>
      </trkpt>
      <trkpt lat="47.89104" lon="-3.88198">
        <ele>75.2</ele>
        <time>2022-12-08T15:08:56Z</time>
      </trkpt>
      <trkpt lat="47.891" lon="-3.88205">
        <ele>75.2</ele>
        <time>2022-12-08T08:06:55Z</time>
        <extensions>
          <visugpx:TrkExtension xmlns:visugpx="https://www.visugpx.com/editgpx/">
            <visugpx:node>1</visugpx:node>
            </visugpx:TrkExtension>
        </extensions>
      </trkpt>
      <trkpt lat="47.891" lon="-3.88206">
        <ele>75.2</ele>
        <time>2022-12-08T08:06:56Z</time>
      </trkpt>
      <trkpt lat="47.89099" lon="-3.88208">
        <ele>75.2</ele>
        <time>2022-12-08T08:06:57Z</time>
      </trkpt>
      <trkpt lat="47.89099" lon="-3.88209">
        <ele>75.2</ele>
        <time>2022-12-08T08:06:58Z</time>
      </trkpt>
      <trkpt lat="47.89098" lon="-3.8821">
        <ele>75.2</ele>
        <time>2022-12-08T08:06:59Z</time>
      </trkpt>
      <trkpt lat="47.89097" lon="-3.88214">
        <ele>75.2</ele>
        <time>2022-12-08T08:07:00Z</time>
      </trkpt>
      <trkpt lat="47.89096" lon="-3.88218">
        <ele>75.1</ele>
        <time>2022-12-08T08:07:01Z</time>
      </trkpt>
      <trkpt lat="47.89096" lon="-3.88223">
        <ele>75.1</ele>
        <time>2022-12-08T08:07:02Z</time>
      </trkpt>
      <trkpt lat="47.89095" lon="-3.88226">
        <ele>75.1</ele>
        <time>2022-12-08T08:07:03Z</time>
      </trkpt>
      <trkpt lat="47.89094" lon="-3.88232">
        <ele>75.1</ele>
        <time>2022-12-08T08:07:04Z</time>
      </trkpt>
      <trkpt lat="47.89094" lon="-3.88237">
        <ele>75.1</ele>
        <time>2022-12-08T08:07:05Z</time>
      </trkpt>
      <trkpt lat="47.89094" lon="-3.88242">
        <ele>75</ele>
        <time>2022-12-08T08:07:06Z</time>
      </trkpt>
      <trkpt lat="47.89093" lon="-3.88248">
        <ele>75</ele>
        <time>2022-12-08T08:07:07Z</time>
      </trkpt>
      <trkpt lat="47.89093" lon="-3.88253">
        <ele>75</ele>
        <time>2022-12-08T08:07:08Z</time>
      </trkpt>
      <trkpt lat="47.89091" lon="-3.88259">
        <ele>74.9</ele>
        <time>2022-12-08T08:07:09Z</time>
      </trkpt>
      <trkpt lat="47.89091" lon="-3.88264">
        <ele>74.9</ele>
        <time>2022-12-08T08:07:10Z</time>
      </trkpt>
      <trkpt lat="47.8909" lon="-3.88268">
        <ele>74.8</ele>
        <time>2022-12-08T08:07:11Z</time>
      </trkpt>
      <trkpt lat="47.89089" lon="-3.88274">
        <ele>74.8</ele>
        <time>2022-12-08T08:07:12Z</time>
      </trkpt>
      <trkpt lat="47.89087" lon="-3.88281">
        <ele>74.7</ele>
        <time>2022-12-08T08:07:13Z</time>
      </trkpt>
      <trkpt lat="47.89085" lon="-3.88287">
        <ele>74.6</ele>
        <time>2022-12-08T08:07:14Z</time>
      </trkpt>
      <trkpt lat="47.89083" lon="-3.88292">
        <ele>74.5</ele>
        <time>2022-12-08T08:07:15Z</time>
      </trkpt>
      <trkpt lat="47.89082" lon="-3.88296">
        <ele>74.4</ele>
        <time>2022-12-08T08:07:16Z</time>
      </trkpt>
      <trkpt lat="47.89081" lon="-3.88305">
        <ele>74.3</ele>
        <time>2022-12-08T08:07:18Z</time>
      </trkpt>
      <trkpt lat="47.89079" lon="-3.88314">
        <ele>74</ele>
        <time>2022-12-08T08:07:19Z</time>
      </trkpt>
      <trkpt lat="47.89077" lon="-3.88323">
        <ele>73.7</ele>
        <time>2022-12-08T08:07:20Z</time>
      </trkpt>
      <trkpt lat="47.89075" lon="-3.8833">
        <ele>73.5</ele>
        <time>2022-12-08T08:07:21Z</time>
      </trkpt>
      <trkpt lat="47.89072" lon="-3.88337">
        <ele>73.3</ele>
        <time>2022-12-08T08:07:22Z</time>
      </trkpt>
      <trkpt lat="47.89071" lon="-3.88344">
        <ele>73.1</ele>
        <time>2022-12-08T08:07:23Z</time>
      </trkpt>
      <trkpt lat="47.89072" lon="-3.88354">
        <ele>72.5</ele>
        <time>2022-12-08T08:07:24Z</time>
      </trkpt>
      <trkpt lat="47.89076" lon="-3.88361">
        <ele>72.7</ele>
        <time>2022-12-08T08:07:25Z</time>
      </trkpt>
      <trkpt lat="47.89082" lon="-3.88365">
        <ele>72.9</ele>
        <time>2022-12-08T08:07:26Z</time>
      </trkpt>
      <trkpt lat="47.89087" lon="-3.88366">
        <ele>73</ele>
        <time>2022-12-08T08:07:27Z</time>
      </trkpt>
      <trkpt lat="47.89092" lon="-3.88367">
        <ele>73.1</ele>
        <time>2022-12-08T08:07:28Z</time>
      </trkpt>
      <trkpt lat="47.89092" lon="-3.88367">
        <ele>73.1</ele>
        <time>2022-12-08T08:07:28Z</time>
      </trkpt>
      <trkpt lat="47.89097" lon="-3.88369">
        <ele>73.3</ele>
        <time>2022-12-08T08:07:29Z</time>
      </trkpt>
      <trkpt lat="47.89101" lon="-3.8837">
        <ele>73.4</ele>
        <time>2022-12-08T08:07:30Z</time>
      </trkpt>
      <trkpt lat="47.89107" lon="-3.8837">
        <ele>73.5</ele>
        <time>2022-12-08T08:07:32Z</time>
      </trkpt>
      <trkpt lat="47.8911" lon="-3.88371">
        <ele>73.6</ele>
        <time>2022-12-08T08:07:33Z</time>
      </trkpt>
      <trkpt lat="47.89116" lon="-3.88373">
        <ele>73.8</ele>
        <time>2022-12-08T08:07:34Z</time>
      </trkpt>
      <trkpt lat="47.8912" lon="-3.88374">
        <ele>73.9</ele>
        <time>2022-12-08T08:07:35Z</time>
      </trkpt>
      <trkpt lat="47.89125" lon="-3.88375">
        <ele>74</ele>
        <time>2022-12-08T08:07:37Z</time>
      </trkpt>
      <trkpt lat="47.89128" lon="-3.88376">
        <ele>74.1</ele>
        <time>2022-12-08T08:07:38Z</time>
      </trkpt>
      <trkpt lat="47.89132" lon="-3.88377">
        <ele>74.1</ele>
        <time>2022-12-08T08:07:39Z</time>
      </trkpt>
      <trkpt lat="47.89136" lon="-3.88378">
        <ele>74.2</ele>
        <time>2022-12-08T08:07:40Z</time>
      </trkpt>
      <trkpt lat="47.89141" lon="-3.8838">
        <ele>74.2</ele>
        <time>2022-12-08T08:07:41Z</time>
      </trkpt>
      <trkpt lat="47.89145" lon="-3.8838">
        <ele>74.2</ele>
        <time>2022-12-08T08:07:43Z</time>
      </trkpt>
      <trkpt lat="47.89151" lon="-3.88382">
        <ele>74.2</ele>
        <time>2022-12-08T08:07:44Z</time>
      </trkpt>
      <trkpt lat="47.89155" lon="-3.88385">
        <ele>74.3</ele>
        <time>2022-12-08T08:07:46Z</time>
      </trkpt>
      <trkpt lat="47.8916" lon="-3.88387">
        <ele>74.3</ele>
        <time>2022-12-08T08:07:47Z</time>
      </trkpt>
      <trkpt lat="47.89163" lon="-3.88389">
        <ele>74.3</ele>
        <time>2022-12-08T08:07:48Z</time>
      </trkpt>
      <trkpt lat="47.89167" lon="-3.8839">
        <ele>74.4</ele>
        <time>2022-12-08T08:07:49Z</time>
      </trkpt>
      <trkpt lat="47.8917" lon="-3.88392">
        <ele>74.4</ele>
        <time>2022-12-08T08:07:50Z</time>
      </trkpt>
      <trkpt lat="47.89175" lon="-3.88393">
        <ele>74.4</ele>
        <time>2022-12-08T08:07:52Z</time>
      </trkpt>
      <trkpt lat="47.89179" lon="-3.88394">
        <ele>74.5</ele>
        <time>2022-12-08T08:07:53Z</time>
      </trkpt>
      <trkpt lat="47.89184" lon="-3.88396">
        <ele>74.5</ele>
        <time>2022-12-08T08:07:54Z</time>
      </trkpt>
      <trkpt lat="47.89188" lon="-3.88398">
        <ele>74.6</ele>
        <time>2022-12-08T08:07:55Z</time>
      </trkpt>
      <trkpt lat="47.89194" lon="-3.88401">
        <ele>74.6</ele>
        <time>2022-12-08T08:07:57Z</time>
      </trkpt>
      <trkpt lat="47.89199" lon="-3.88403">
        <ele>74.7</ele>
        <time>2022-12-08T08:07:58Z</time>
      </trkpt>
      <trkpt lat="47.89203" lon="-3.88405">
        <ele>74.7</ele>
        <time>2022-12-08T08:07:59Z</time>
      </trkpt>
      <trkpt lat="47.89207" lon="-3.88406">
        <ele>74.8</ele>
        <time>2022-12-08T08:08:00Z</time>
      </trkpt>
      <trkpt lat="47.89211" lon="-3.88407">
        <ele>74.8</ele>
        <time>2022-12-08T08:08:01Z</time>
      </trkpt>
      <trkpt lat="47.89215" lon="-3.88409">
        <ele>74.8</ele>
        <time>2022-12-08T08:08:02Z</time>
      </trkpt>
      <trkpt lat="47.8922" lon="-3.88412">
        <ele>74.7</ele>
        <time>2022-12-08T08:08:03Z</time>
      </trkpt>
      <trkpt lat="47.89224" lon="-3.88413">
        <ele>74.7</ele>
        <time>2022-12-08T08:08:04Z</time>
      </trkpt>
      <trkpt lat="47.89232" lon="-3.88417">
        <ele>74.6</ele>
        <time>2022-12-08T08:08:06Z</time>
      </trkpt>
      <trkpt lat="47.89236" lon="-3.8842">
        <ele>74.6</ele>
        <time>2022-12-08T08:08:07Z</time>
      </trkpt>
      <trkpt lat="47.8924" lon="-3.88421">
        <ele>74.5</ele>
        <time>2022-12-08T08:08:08Z</time>
      </trkpt>
      <trkpt lat="47.89246" lon="-3.88426">
        <ele>74.4</ele>
        <time>2022-12-08T08:08:09Z</time>
      </trkpt>
      <trkpt lat="47.8925" lon="-3.88429">
        <ele>74.3</ele>
        <time>2022-12-08T08:08:10Z</time>
      </trkpt>
      <trkpt lat="47.89254" lon="-3.88432">
        <ele>74.3</ele>
        <time>2022-12-08T08:08:11Z</time>
      </trkpt>
      <trkpt lat="47.89258" lon="-3.88436">
        <ele>74.2</ele>
        <time>2022-12-08T08:08:12Z</time>
      </trkpt>
      <trkpt lat="47.89263" lon="-3.8844">
        <ele>74.1</ele>
        <time>2022-12-08T08:08:13Z</time>
      </trkpt>
      <trkpt lat="47.89267" lon="-3.88444">
        <ele>74.1</ele>
        <time>2022-12-08T08:08:14Z</time>
      </trkpt>
      <trkpt lat="47.89271" lon="-3.88448">
        <ele>74</ele>
        <time>2022-12-08T08:08:15Z</time>
      </trkpt>
      <trkpt lat="47.89275" lon="-3.88452">
        <ele>73.9</ele>
        <time>2022-12-08T08:08:16Z</time>
      </trkpt>
      <trkpt lat="47.8928" lon="-3.88456">
        <ele>73.9</ele>
        <time>2022-12-08T08:08:17Z</time>
      </trkpt>
      <trkpt lat="47.89284" lon="-3.88459">
        <ele>73.8</ele>
        <time>2022-12-08T08:08:18Z</time>
      </trkpt>
      <trkpt lat="47.89288" lon="-3.88464">
        <ele>73.8</ele>
        <time>2022-12-08T08:08:19Z</time>
      </trkpt>
      <trkpt lat="47.89292" lon="-3.88468">
        <ele>73.8</ele>
        <time>2022-12-08T08:08:20Z</time>
      </trkpt>
      <trkpt lat="47.89296" lon="-3.88472">
        <ele>73.7</ele>
        <time>2022-12-08T08:08:21Z</time>
      </trkpt>
      <trkpt lat="47.893" lon="-3.88477">
        <ele>73.7</ele>
        <time>2022-12-08T08:08:22Z</time>
      </trkpt>
      <trkpt lat="47.89304" lon="-3.88481">
        <ele>73.7</ele>
        <time>2022-12-08T08:08:23Z</time>
      </trkpt>
      <trkpt lat="47.89308" lon="-3.88485">
        <ele>73.7</ele>
        <time>2022-12-08T08:08:24Z</time>
      </trkpt>
      <trkpt lat="47.89312" lon="-3.88489">
        <ele>73.7</ele>
        <time>2022-12-08T08:08:25Z</time>
      </trkpt>
      <trkpt lat="47.89316" lon="-3.88493">
        <ele>73.8</ele>
        <time>2022-12-08T08:08:26Z</time>
      </trkpt>
      <trkpt lat="47.8932" lon="-3.88497">
        <ele>73.8</ele>
        <time>2022-12-08T08:08:27Z</time>
      </trkpt>
      <trkpt lat="47.89325" lon="-3.88501">
        <ele>73.9</ele>
        <time>2022-12-08T08:08:28Z</time>
      </trkpt>
      <trkpt lat="47.89329" lon="-3.88505">
        <ele>73.9</ele>
        <time>2022-12-08T08:08:29Z</time>
      </trkpt>
      <trkpt lat="47.89333" lon="-3.88509">
        <ele>73.9</ele>
        <time>2022-12-08T08:08:30Z</time>
      </trkpt>
      <trkpt lat="47.89337" lon="-3.88513">
        <ele>74</ele>
        <time>2022-12-08T08:08:31Z</time>
      </trkpt>
      <trkpt lat="47.89341" lon="-3.88517">
        <ele>74</ele>
        <time>2022-12-08T08:08:32Z</time>
      </trkpt>
      <trkpt lat="47.89344" lon="-3.88523">
        <ele>74.1</ele>
        <time>2022-12-08T08:08:33Z</time>
      </trkpt>
      <trkpt lat="47.89348" lon="-3.88528">
        <ele>74.1</ele>
        <time>2022-12-08T08:08:34Z</time>
      </trkpt>
      <trkpt lat="47.89351" lon="-3.88534">
        <ele>74.2</ele>
        <time>2022-12-08T08:08:35Z</time>
      </trkpt>
      <trkpt lat="47.89353" lon="-3.88539">
        <ele>74.2</ele>
        <time>2022-12-08T08:08:36Z</time>
      </trkpt>
      <trkpt lat="47.89355" lon="-3.88545">
        <ele>74.2</ele>
        <time>2022-12-08T08:08:37Z</time>
      </trkpt>
      <trkpt lat="47.89358" lon="-3.8855">
        <ele>74.2</ele>
        <time>2022-12-08T08:08:38Z</time>
      </trkpt>
      <trkpt lat="47.8936" lon="-3.88556">
        <ele>74.3</ele>
        <time>2022-12-08T08:08:39Z</time>
      </trkpt>
      <trkpt lat="47.89362" lon="-3.88562">
        <ele>74.3</ele>
        <time>2022-12-08T08:08:40Z</time>
      </trkpt>
      <trkpt lat="47.89365" lon="-3.88568">
        <ele>74.3</ele>
        <time>2022-12-08T08:08:41Z</time>
      </trkpt>
      <trkpt lat="47.89368" lon="-3.88573">
        <ele>74.4</ele>
        <time>2022-12-08T08:08:42Z</time>
      </trkpt>
      <trkpt lat="47.89371" lon="-3.88578">
        <ele>74.4</ele>
        <time>2022-12-08T08:08:43Z</time>
      </trkpt>
      <trkpt lat="47.89375" lon="-3.88582">
        <ele>74.4</ele>
        <time>2022-12-08T08:08:44Z</time>
      </trkpt>
      <trkpt lat="47.89379" lon="-3.88586">
        <ele>74.5</ele>
        <time>2022-12-08T08:08:45Z</time>
      </trkpt>
      <trkpt lat="47.89383" lon="-3.88589">
        <ele>74.5</ele>
        <time>2022-12-08T08:08:46Z</time>
      </trkpt>
      <trkpt lat="47.89387" lon="-3.88591">
        <ele>74.6</ele>
        <time>2022-12-08T08:08:47Z</time>
      </trkpt>
      <trkpt lat="47.89392" lon="-3.88595">
        <ele>74.6</ele>
        <time>2022-12-08T08:08:48Z</time>
      </trkpt>
      <trkpt lat="47.89396" lon="-3.88598">
        <ele>74.7</ele>
        <time>2022-12-08T08:08:49Z</time>
      </trkpt>
      <trkpt lat="47.89401" lon="-3.88601">
        <ele>74.7</ele>
        <time>2022-12-08T08:08:50Z</time>
      </trkpt>
      <trkpt lat="47.89404" lon="-3.88605">
        <ele>74.8</ele>
        <time>2022-12-08T08:08:51Z</time>
      </trkpt>
      <trkpt lat="47.89407" lon="-3.88607">
        <ele>74.8</ele>
        <time>2022-12-08T08:08:52Z</time>
      </trkpt>
      <trkpt lat="47.8941" lon="-3.8861">
        <ele>74.8</ele>
        <time>2022-12-08T08:08:53Z</time>
      </trkpt>
      <trkpt lat="47.89414" lon="-3.88612">
        <ele>74.9</ele>
        <time>2022-12-08T08:08:54Z</time>
      </trkpt>
      <trkpt lat="47.89418" lon="-3.88616">
        <ele>74.9</ele>
        <time>2022-12-08T08:08:55Z</time>
      </trkpt>
      <trkpt lat="47.89424" lon="-3.8862">
        <ele>75</ele>
        <time>2022-12-08T08:08:56Z</time>
      </trkpt>
      <trkpt lat="47.89428" lon="-3.88623">
        <ele>75</ele>
        <time>2022-12-08T08:08:57Z</time>
      </trkpt>
      <trkpt lat="47.89433" lon="-3.88626">
        <ele>75</ele>
        <time>2022-12-08T08:08:58Z</time>
      </trkpt>
      <trkpt lat="47.89436" lon="-3.88626">
        <ele>75.1</ele>
        <time>2022-12-08T08:08:59Z</time>
      </trkpt>
      <trkpt lat="47.89438" lon="-3.88628">
        <ele>75.1</ele>
        <time>2022-12-08T08:09:00Z</time>
      </trkpt>
      <trkpt lat="47.89446" lon="-3.88633">
        <ele>75.2</ele>
        <time>2022-12-08T08:09:01Z</time>
      </trkpt>
      <trkpt lat="47.89452" lon="-3.88636">
        <ele>75.2</ele>
        <time>2022-12-08T08:09:02Z</time>
      </trkpt>
      <trkpt lat="47.89456" lon="-3.88638">
        <ele>75.2</ele>
        <time>2022-12-08T08:09:03Z</time>
      </trkpt>
      <trkpt lat="47.89461" lon="-3.88639">
        <ele>75.2</ele>
        <time>2022-12-08T08:09:04Z</time>
      </trkpt>
      <trkpt lat="47.89465" lon="-3.88641">
        <ele>75.1</ele>
        <time>2022-12-08T08:09:05Z</time>
      </trkpt>
      <trkpt lat="47.89471" lon="-3.88644">
        <ele>75</ele>
        <time>2022-12-08T08:09:06Z</time>
      </trkpt>
      <trkpt lat="47.89474" lon="-3.88646">
        <ele>74.9</ele>
        <time>2022-12-08T08:09:07Z</time>
      </trkpt>
      <trkpt lat="47.8948" lon="-3.88651">
        <ele>74.7</ele>
        <time>2022-12-08T08:09:08Z</time>
      </trkpt>
      <trkpt lat="47.89485" lon="-3.88653">
        <ele>74.6</ele>
        <time>2022-12-08T08:09:09Z</time>
      </trkpt>
      <trkpt lat="47.89491" lon="-3.88655">
        <ele>74.4</ele>
        <time>2022-12-08T08:09:10Z</time>
      </trkpt>
      <trkpt lat="47.89496" lon="-3.88657">
        <ele>74.3</ele>
        <time>2022-12-08T08:09:11Z</time>
      </trkpt>
      <trkpt lat="47.89501" lon="-3.88658">
        <ele>74.1</ele>
        <time>2022-12-08T08:09:12Z</time>
      </trkpt>
      <trkpt lat="47.89507" lon="-3.88659">
        <ele>73.9</ele>
        <time>2022-12-08T08:09:13Z</time>
      </trkpt>
      <trkpt lat="47.89513" lon="-3.8866">
        <ele>73.7</ele>
        <time>2022-12-08T08:09:14Z</time>
      </trkpt>
      <trkpt lat="47.89519" lon="-3.88661">
        <ele>73.4</ele>
        <time>2022-12-08T08:09:15Z</time>
      </trkpt>
      <trkpt lat="47.89526" lon="-3.8866">
        <ele>73.2</ele>
        <time>2022-12-08T08:09:16Z</time>
      </trkpt>
      <trkpt lat="47.89532" lon="-3.88661">
        <ele>72.9</ele>
        <time>2022-12-08T08:09:17Z</time>
      </trkpt>
      <trkpt lat="47.89538" lon="-3.88661">
        <ele>72.6</ele>
        <time>2022-12-08T08:09:18Z</time>
      </trkpt>
      <trkpt lat="47.89545" lon="-3.88659">
        <ele>72.3</ele>
        <time>2022-12-08T08:09:19Z</time>
      </trkpt>
      <trkpt lat="47.89552" lon="-3.88657">
        <ele>72</ele>
        <time>2022-12-08T08:09:20Z</time>
      </trkpt>
      <trkpt lat="47.89559" lon="-3.88654">
        <ele>71.6</ele>
        <time>2022-12-08T08:09:21Z</time>
      </trkpt>
      <trkpt lat="47.89567" lon="-3.88652">
        <ele>71.2</ele>
        <time>2022-12-08T08:09:22Z</time>
      </trkpt>
      <trkpt lat="47.89574" lon="-3.88649">
        <ele>70.8</ele>
        <time>2022-12-08T08:09:23Z</time>
      </trkpt>
      <trkpt lat="47.89581" lon="-3.88646">
        <ele>70.3</ele>
        <time>2022-12-08T08:09:24Z</time>
      </trkpt>
      <trkpt lat="47.89588" lon="-3.88645">
        <ele>69.9</ele>
        <time>2022-12-08T08:09:25Z</time>
      </trkpt>
      <trkpt lat="47.89596" lon="-3.88646">
        <ele>69.4</ele>
        <time>2022-12-08T08:09:26Z</time>
      </trkpt>
      <trkpt lat="47.89602" lon="-3.88648">
        <ele>69.1</ele>
        <time>2022-12-08T08:09:27Z</time>
      </trkpt>
      <trkpt lat="47.89608" lon="-3.88651">
        <ele>68.8</ele>
        <time>2022-12-08T08:09:28Z</time>
      </trkpt>
      <trkpt lat="47.89612" lon="-3.88654">
        <ele>68.5</ele>
        <time>2022-12-08T08:09:29Z</time>
      </trkpt>
      <trkpt lat="47.89617" lon="-3.88656">
        <ele>68.2</ele>
        <time>2022-12-08T08:09:30Z</time>
      </trkpt>
      <trkpt lat="47.8962" lon="-3.88656">
        <ele>68</ele>
        <time>2022-12-08T08:09:31Z</time>
      </trkpt>
      <trkpt lat="47.89626" lon="-3.88654">
        <ele>67.2</ele>
        <time>2022-12-08T08:09:32Z</time>
      </trkpt>
      <trkpt lat="47.89633" lon="-3.88651">
        <ele>66.4</ele>
        <time>2022-12-08T08:09:33Z</time>
      </trkpt>
      <trkpt lat="47.8964" lon="-3.88648">
        <ele>65.6</ele>
        <time>2022-12-08T08:09:34Z</time>
      </trkpt>
      <trkpt lat="47.89648" lon="-3.88645">
        <ele>64.7</ele>
        <time>2022-12-08T08:09:35Z</time>
      </trkpt>
      <trkpt lat="47.89657" lon="-3.88643">
        <ele>63.7</ele>
        <time>2022-12-08T08:09:36Z</time>
      </trkpt>
      <trkpt lat="47.89666" lon="-3.88642">
        <ele>62.5</ele>
        <time>2022-12-08T08:09:37Z</time>
      </trkpt>
      <trkpt lat="47.89676" lon="-3.88641">
        <ele>61.3</ele>
        <time>2022-12-08T08:09:38Z</time>
      </trkpt>
      <trkpt lat="47.89686" lon="-3.88639">
        <ele>60</ele>
        <time>2022-12-08T08:09:39Z</time>
      </trkpt>
      <trkpt lat="47.89697" lon="-3.88635">
        <ele>58.6</ele>
        <time>2022-12-08T08:09:40Z</time>
      </trkpt>
      <trkpt lat="47.89708" lon="-3.8863">
        <ele>57.2</ele>
        <time>2022-12-08T08:09:41Z</time>
      </trkpt>
      <trkpt lat="47.89719" lon="-3.88624">
        <ele>55.9</ele>
        <time>2022-12-08T08:09:42Z</time>
      </trkpt>
      <trkpt lat="47.8973" lon="-3.88618">
        <ele>54.6</ele>
        <time>2022-12-08T08:09:43Z</time>
      </trkpt>
      <trkpt lat="47.89741" lon="-3.8861">
        <ele>53.5</ele>
        <time>2022-12-08T08:09:44Z</time>
      </trkpt>
      <trkpt lat="47.89753" lon="-3.88602">
        <ele>52.4</ele>
        <time>2022-12-08T08:09:45Z</time>
      </trkpt>
      <trkpt lat="47.89764" lon="-3.88593">
        <ele>51.4</ele>
        <time>2022-12-08T08:09:46Z</time>
      </trkpt>
      <trkpt lat="47.89775" lon="-3.88585">
        <ele>50.3</ele>
        <time>2022-12-08T08:09:47Z</time>
      </trkpt>
      <trkpt lat="47.89786" lon="-3.88578">
        <ele>49.2</ele>
        <time>2022-12-08T08:09:48Z</time>
      </trkpt>
      <trkpt lat="47.89797" lon="-3.88572">
        <ele>47.9</ele>
        <time>2022-12-08T08:09:49Z</time>
      </trkpt>
      <trkpt lat="47.8981" lon="-3.88567">
        <ele>46.3</ele>
        <time>2022-12-08T08:09:50Z</time>
      </trkpt>
      <trkpt lat="47.89823" lon="-3.88562">
        <ele>44.6</ele>
        <time>2022-12-08T08:09:51Z</time>
      </trkpt>
      <trkpt lat="47.89836" lon="-3.88557">
        <ele>42.9</ele>
        <time>2022-12-08T08:09:52Z</time>
      </trkpt>
      <trkpt lat="47.89849" lon="-3.88551">
        <ele>40.9</ele>
        <time>2022-12-08T08:09:53Z</time>
      </trkpt>
      <trkpt lat="47.89862" lon="-3.88545">
        <ele>38.8</ele>
        <time>2022-12-08T08:09:54Z</time>
      </trkpt>
      <trkpt lat="47.89875" lon="-3.88538">
        <ele>37</ele>
        <time>2022-12-08T08:09:55Z</time>
      </trkpt>
      <trkpt lat="47.89889" lon="-3.88531">
        <ele>35.1</ele>
        <time>2022-12-08T08:09:56Z</time>
      </trkpt>
      <trkpt lat="47.89904" lon="-3.88525">
        <ele>33.3</ele>
        <time>2022-12-08T08:09:57Z</time>
      </trkpt>
      <trkpt lat="47.89917" lon="-3.88519">
        <ele>32</ele>
        <time>2022-12-08T08:09:58Z</time>
      </trkpt>
      <trkpt lat="47.89928" lon="-3.88513">
        <ele>30.7</ele>
        <time>2022-12-08T08:09:59Z</time>
      </trkpt>
      <trkpt lat="47.89939" lon="-3.88504">
        <ele>29.5</ele>
        <time>2022-12-08T08:10:00Z</time>
      </trkpt>
      <trkpt lat="47.89948" lon="-3.88491">
        <ele>28.9</ele>
        <time>2022-12-08T08:10:01Z</time>
      </trkpt>
      <trkpt lat="47.89955" lon="-3.88476">
        <ele>28.7</ele>
        <time>2022-12-08T08:10:02Z</time>
      </trkpt>
      <trkpt lat="47.89961" lon="-3.88462">
        <ele>28.8</ele>
        <time>2022-12-08T08:10:03Z</time>
      </trkpt>
      <trkpt lat="47.89967" lon="-3.88448">
        <ele>29</ele>
        <time>2022-12-08T08:10:04Z</time>
      </trkpt>
      <trkpt lat="47.89974" lon="-3.88435">
        <ele>29.2</ele>
        <time>2022-12-08T08:10:05Z</time>
      </trkpt>
      <trkpt lat="47.8998" lon="-3.88423">
        <ele>28.9</ele>
        <time>2022-12-08T08:10:06Z</time>
      </trkpt>
      <trkpt lat="47.89987" lon="-3.88412">
        <ele>28.4</ele>
        <time>2022-12-08T08:10:07Z</time>
      </trkpt>
      <trkpt lat="47.89992" lon="-3.88402">
        <ele>28.2</ele>
        <time>2022-12-08T08:10:08Z</time>
      </trkpt>
      <trkpt lat="47.89998" lon="-3.88391">
        <ele>28.1</ele>
        <time>2022-12-08T08:10:09Z</time>
      </trkpt>
      <trkpt lat="47.90003" lon="-3.8838">
        <ele>28.1</ele>
        <time>2022-12-08T08:10:10Z</time>
      </trkpt>
      <trkpt lat="47.90008" lon="-3.88368">
        <ele>28.3</ele>
        <time>2022-12-08T08:10:11Z</time>
      </trkpt>
      <trkpt lat="47.90012" lon="-3.88358">
        <ele>28.7</ele>
        <time>2022-12-08T08:10:12Z</time>
      </trkpt>
      <trkpt lat="47.90015" lon="-3.88347">
        <ele>29.1</ele>
        <time>2022-12-08T08:10:13Z</time>
      </trkpt>
      <trkpt lat="47.90018" lon="-3.88338">
        <ele>29.5</ele>
        <time>2022-12-08T08:10:14Z</time>
      </trkpt>
      <trkpt lat="47.90019" lon="-3.8833">
        <ele>29.9</ele>
        <time>2022-12-08T08:10:15Z</time>
      </trkpt>
      <trkpt lat="47.90019" lon="-3.88322">
        <ele>30.3</ele>
        <time>2022-12-08T08:10:16Z</time>
      </trkpt>
      <trkpt lat="47.90019" lon="-3.88316">
        <ele>30.7</ele>
        <time>2022-12-08T08:10:17Z</time>
      </trkpt>
      <trkpt lat="47.90019" lon="-3.8831">
        <ele>31.1</ele>
        <time>2022-12-08T08:10:18Z</time>
      </trkpt>
      <trkpt lat="47.90019" lon="-3.88304">
        <ele>31.4</ele>
        <time>2022-12-08T08:10:19Z</time>
      </trkpt>
      <trkpt lat="47.90019" lon="-3.883">
        <ele>31.8</ele>
        <time>2022-12-08T08:10:20Z</time>
      </trkpt>
      <trkpt lat="47.90018" lon="-3.88294">
        <ele>32.3</ele>
        <time>2022-12-08T08:10:21Z</time>
      </trkpt>
      <trkpt lat="47.90017" lon="-3.88291">
        <ele>32.6</ele>
        <time>2022-12-08T08:10:22Z</time>
      </trkpt>
      <trkpt lat="47.90016" lon="-3.88287">
        <ele>33</ele>
        <time>2022-12-08T08:10:23Z</time>
      </trkpt>
      <trkpt lat="47.90015" lon="-3.88282">
        <ele>33.4</ele>
        <time>2022-12-08T08:10:24Z</time>
      </trkpt>
      <trkpt lat="47.90014" lon="-3.88277">
        <ele>34</ele>
        <time>2022-12-08T08:10:25Z</time>
      </trkpt>
      <trkpt lat="47.90014" lon="-3.88275">
        <ele>34.2</ele>
        <time>2022-12-08T08:10:26Z</time>
      </trkpt>
      <trkpt lat="47.90012" lon="-3.88269">
        <ele>34.9</ele>
        <time>2022-12-08T08:10:27Z</time>
      </trkpt>
      <trkpt lat="47.9001" lon="-3.88265">
        <ele>35.4</ele>
        <time>2022-12-08T08:10:28Z</time>
      </trkpt>
      <trkpt lat="47.90008" lon="-3.88261">
        <ele>35.9</ele>
        <time>2022-12-08T08:10:29Z</time>
      </trkpt>
      <trkpt lat="47.90007" lon="-3.88259">
        <ele>36.1</ele>
        <time>2022-12-08T08:10:30Z</time>
      </trkpt>
      <trkpt lat="47.90006" lon="-3.88255">
        <ele>36.6</ele>
        <time>2022-12-08T08:10:31Z</time>
      </trkpt>
      <trkpt lat="47.90004" lon="-3.88252">
        <ele>36.9</ele>
        <time>2022-12-08T08:10:32Z</time>
      </trkpt>
      <trkpt lat="47.90003" lon="-3.88247">
        <ele>37.4</ele>
        <time>2022-12-08T08:10:34Z</time>
      </trkpt>
      <trkpt lat="47.90001" lon="-3.88241">
        <ele>38</ele>
        <time>2022-12-08T08:10:35Z</time>
      </trkpt>
      <trkpt lat="47.89999" lon="-3.88238">
        <ele>38.4</ele>
        <time>2022-12-08T08:10:36Z</time>
      </trkpt>
      <trkpt lat="47.89996" lon="-3.88233">
        <ele>39</ele>
        <time>2022-12-08T08:10:38Z</time>
      </trkpt>
      <trkpt lat="47.89995" lon="-3.88229">
        <ele>39.4</ele>
        <time>2022-12-08T08:10:39Z</time>
      </trkpt>
      <trkpt lat="47.89992" lon="-3.88223">
        <ele>39.9</ele>
        <time>2022-12-08T08:10:40Z</time>
      </trkpt>
      <trkpt lat="47.89992" lon="-3.88221">
        <ele>40.1</ele>
        <time>2022-12-08T08:10:41Z</time>
      </trkpt>
      <trkpt lat="47.89989" lon="-3.88218">
        <ele>40.5</ele>
        <time>2022-12-08T08:10:42Z</time>
      </trkpt>
      <trkpt lat="47.89989" lon="-3.88216">
        <ele>40.7</ele>
        <time>2022-12-08T08:10:43Z</time>
      </trkpt>
      <trkpt lat="47.89986" lon="-3.88212">
        <ele>41.1</ele>
        <time>2022-12-08T08:10:44Z</time>
      </trkpt>
      <trkpt lat="47.89986" lon="-3.88211">
        <ele>41.2</ele>
        <time>2022-12-08T08:10:45Z</time>
      </trkpt>
      <trkpt lat="47.89984" lon="-3.88207">
        <ele>41.6</ele>
        <time>2022-12-08T08:10:46Z</time>
      </trkpt>
      <trkpt lat="47.89983" lon="-3.88205">
        <ele>41.7</ele>
        <time>2022-12-08T08:10:47Z</time>
      </trkpt>
      <trkpt lat="47.89981" lon="-3.88201">
        <ele>42</ele>
        <time>2022-12-08T08:10:48Z</time>
      </trkpt>
      <trkpt lat="47.89981" lon="-3.882">
        <ele>42.1</ele>
        <time>2022-12-08T08:10:49Z</time>
      </trkpt>
      <trkpt lat="47.8998" lon="-3.88195">
        <ele>42.4</ele>
        <time>2022-12-08T08:10:50Z</time>
      </trkpt>
      <trkpt lat="47.89979" lon="-3.88194">
        <ele>42.5</ele>
        <time>2022-12-08T08:10:51Z</time>
      </trkpt>
      <trkpt lat="47.89977" lon="-3.88189">
        <ele>42.9</ele>
        <time>2022-12-08T08:10:52Z</time>
      </trkpt>
      <trkpt lat="47.89976" lon="-3.88188">
        <ele>43</ele>
        <time>2022-12-08T08:10:53Z</time>
      </trkpt>
      <trkpt lat="47.89974" lon="-3.88184">
        <ele>43.3</ele>
        <time>2022-12-08T08:10:54Z</time>
      </trkpt>
      <trkpt lat="47.89974" lon="-3.88182">
        <ele>43.4</ele>
        <time>2022-12-08T08:10:55Z</time>
      </trkpt>
      <trkpt lat="47.89972" lon="-3.88177">
        <ele>43.7</ele>
        <time>2022-12-08T08:10:56Z</time>
      </trkpt>
      <trkpt lat="47.89972" lon="-3.88176">
        <ele>43.8</ele>
        <time>2022-12-08T08:10:57Z</time>
      </trkpt>
      <trkpt lat="47.8997" lon="-3.88169">
        <ele>44.3</ele>
        <time>2022-12-08T08:10:59Z</time>
      </trkpt>
      <trkpt lat="47.89969" lon="-3.88167">
        <ele>44.4</ele>
        <time>2022-12-08T08:11:00Z</time>
      </trkpt>
      <trkpt lat="47.89968" lon="-3.88165">
        <ele>44.6</ele>
        <time>2022-12-08T08:11:01Z</time>
      </trkpt>
      <trkpt lat="47.89967" lon="-3.88161">
        <ele>44.8</ele>
        <time>2022-12-08T08:11:02Z</time>
      </trkpt>
      <trkpt lat="47.89965" lon="-3.88155">
        <ele>45.2</ele>
        <time>2022-12-08T08:11:03Z</time>
      </trkpt>
      <trkpt lat="47.89965" lon="-3.88154">
        <ele>45.3</ele>
        <time>2022-12-08T08:11:04Z</time>
      </trkpt>
      <trkpt lat="47.89963" lon="-3.8815">
        <ele>45.6</ele>
        <time>2022-12-08T08:11:05Z</time>
      </trkpt>
      <trkpt lat="47.89962" lon="-3.88145">
        <ele>45.9</ele>
        <time>2022-12-08T08:11:06Z</time>
      </trkpt>
      <trkpt lat="47.89961" lon="-3.88143">
        <ele>46</ele>
        <time>2022-12-08T08:11:07Z</time>
      </trkpt>
      <trkpt lat="47.8996" lon="-3.88138">
        <ele>46.3</ele>
        <time>2022-12-08T08:11:08Z</time>
      </trkpt>
      <trkpt lat="47.8996" lon="-3.88136">
        <ele>46.4</ele>
        <time>2022-12-08T08:11:09Z</time>
      </trkpt>
      <trkpt lat="47.89959" lon="-3.88131">
        <ele>46.8</ele>
        <time>2022-12-08T08:11:10Z</time>
      </trkpt>
      <trkpt lat="47.89959" lon="-3.88129">
        <ele>46.9</ele>
        <time>2022-12-08T08:11:11Z</time>
      </trkpt>
      <trkpt lat="47.89958" lon="-3.88123">
        <ele>47.2</ele>
        <time>2022-12-08T08:11:12Z</time>
      </trkpt>
      <trkpt lat="47.89958" lon="-3.88121">
        <ele>47.4</ele>
        <time>2022-12-08T08:11:13Z</time>
      </trkpt>
      <trkpt lat="47.89957" lon="-3.88116">
        <ele>47.7</ele>
        <time>2022-12-08T08:11:14Z</time>
      </trkpt>
      <trkpt lat="47.89957" lon="-3.88114">
        <ele>47.8</ele>
        <time>2022-12-08T08:11:15Z</time>
      </trkpt>
      <trkpt lat="47.89956" lon="-3.88108">
        <ele>48.2</ele>
        <time>2022-12-08T08:11:16Z</time>
      </trkpt>
      <trkpt lat="47.89955" lon="-3.88107">
        <ele>48.3</ele>
        <time>2022-12-08T08:11:17Z</time>
      </trkpt>
      <trkpt lat="47.89955" lon="-3.88102">
        <ele>48.6</ele>
        <time>2022-12-08T08:11:18Z</time>
      </trkpt>
      <trkpt lat="47.89954" lon="-3.881">
        <ele>48.7</ele>
        <time>2022-12-08T08:11:19Z</time>
      </trkpt>
      <trkpt lat="47.89954" lon="-3.88095">
        <ele>49.1</ele>
        <time>2022-12-08T08:11:20Z</time>
      </trkpt>
      <trkpt lat="47.89954" lon="-3.88094">
        <ele>49.2</ele>
        <time>2022-12-08T08:11:21Z</time>
      </trkpt>
      <trkpt lat="47.89954" lon="-3.88088">
        <ele>49.6</ele>
        <time>2022-12-08T08:11:22Z</time>
      </trkpt>
      <trkpt lat="47.89954" lon="-3.88086">
        <ele>49.7</ele>
        <time>2022-12-08T08:11:23Z</time>
      </trkpt>
      <trkpt lat="47.89953" lon="-3.88083">
        <ele>49.9</ele>
        <time>2022-12-08T08:11:24Z</time>
      </trkpt>
      <trkpt lat="47.89952" lon="-3.88079">
        <ele>50.2</ele>
        <time>2022-12-08T08:11:26Z</time>
      </trkpt>
      <trkpt lat="47.89952" lon="-3.88074">
        <ele>50.5</ele>
        <time>2022-12-08T08:11:27Z</time>
      </trkpt>
      <trkpt lat="47.89952" lon="-3.88072">
        <ele>50.7</ele>
        <time>2022-12-08T08:11:28Z</time>
      </trkpt>
      <trkpt lat="47.89952" lon="-3.88068">
        <ele>51</ele>
        <time>2022-12-08T08:11:29Z</time>
      </trkpt>
      <trkpt lat="47.89953" lon="-3.88066">
        <ele>51.1</ele>
        <time>2022-12-08T08:11:30Z</time>
      </trkpt>
      <trkpt lat="47.89952" lon="-3.88061">
        <ele>51.5</ele>
        <time>2022-12-08T08:11:31Z</time>
      </trkpt>
      <trkpt lat="47.89952" lon="-3.88055">
        <ele>51.9</ele>
        <time>2022-12-08T08:11:32Z</time>
      </trkpt>
      <trkpt lat="47.89952" lon="-3.88054">
        <ele>52</ele>
        <time>2022-12-08T08:11:33Z</time>
      </trkpt>
      <trkpt lat="47.89952" lon="-3.88048">
        <ele>52.4</ele>
        <time>2022-12-08T08:11:34Z</time>
      </trkpt>
      <trkpt lat="47.89952" lon="-3.88047">
        <ele>52.5</ele>
        <time>2022-12-08T08:11:35Z</time>
      </trkpt>
      <trkpt lat="47.89951" lon="-3.88042">
        <ele>52.9</ele>
        <time>2022-12-08T08:11:36Z</time>
      </trkpt>
      <trkpt lat="47.89951" lon="-3.8804">
        <ele>53</ele>
        <time>2022-12-08T08:11:37Z</time>
      </trkpt>
      <trkpt lat="47.89952" lon="-3.88036">
        <ele>53.4</ele>
        <time>2022-12-08T08:11:39Z</time>
      </trkpt>
      <trkpt lat="47.89952" lon="-3.88032">
        <ele>53.7</ele>
        <time>2022-12-08T08:11:40Z</time>
      </trkpt>
      <trkpt lat="47.89951" lon="-3.88027">
        <ele>54</ele>
        <time>2022-12-08T08:11:41Z</time>
      </trkpt>
      <trkpt lat="47.89952" lon="-3.88022">
        <ele>54.4</ele>
        <time>2022-12-08T08:11:43Z</time>
      </trkpt>
      <trkpt lat="47.89952" lon="-3.8802">
        <ele>54.6</ele>
        <time>2022-12-08T08:11:44Z</time>
      </trkpt>
      <trkpt lat="47.89953" lon="-3.88014">
        <ele>55</ele>
        <time>2022-12-08T08:11:45Z</time>
      </trkpt>
      <trkpt lat="47.89953" lon="-3.88013">
        <ele>55.1</ele>
        <time>2022-12-08T08:11:46Z</time>
      </trkpt>
      <trkpt lat="47.89954" lon="-3.88009">
        <ele>55.4</ele>
        <time>2022-12-08T08:11:47Z</time>
      </trkpt>
      <trkpt lat="47.89954" lon="-3.88002">
        <ele>55.9</ele>
        <time>2022-12-08T08:11:49Z</time>
      </trkpt>
      <trkpt lat="47.89954" lon="-3.88">
        <ele>56.1</ele>
        <time>2022-12-08T08:11:50Z</time>
      </trkpt>
      <trkpt lat="47.89955" lon="-3.87998">
        <ele>56.2</ele>
        <time>2022-12-08T08:11:51Z</time>
      </trkpt>
      <trkpt lat="47.89955" lon="-3.87994">
        <ele>56.5</ele>
        <time>2022-12-08T08:11:52Z</time>
      </trkpt>
      <trkpt lat="47.89955" lon="-3.87992">
        <ele>56.6</ele>
        <time>2022-12-08T08:11:53Z</time>
      </trkpt>
      <trkpt lat="47.89957" lon="-3.87986">
        <ele>57.1</ele>
        <time>2022-12-08T08:11:55Z</time>
      </trkpt>
      <trkpt lat="47.89958" lon="-3.87981">
        <ele>57.5</ele>
        <time>2022-12-08T08:11:57Z</time>
      </trkpt>
      <trkpt lat="47.89958" lon="-3.87976">
        <ele>57.8</ele>
        <time>2022-12-08T08:11:58Z</time>
      </trkpt>
      <trkpt lat="47.89959" lon="-3.87971">
        <ele>58.1</ele>
        <time>2022-12-08T08:11:59Z</time>
      </trkpt>
      <trkpt lat="47.89959" lon="-3.8797">
        <ele>58.2</ele>
        <time>2022-12-08T08:12:00Z</time>
      </trkpt>
      <trkpt lat="47.8996" lon="-3.87965">
        <ele>58.5</ele>
        <time>2022-12-08T08:12:01Z</time>
      </trkpt>
      <trkpt lat="47.8996" lon="-3.87963">
        <ele>58.6</ele>
        <time>2022-12-08T08:12:02Z</time>
      </trkpt>
      <trkpt lat="47.89961" lon="-3.87958">
        <ele>58.9</ele>
        <time>2022-12-08T08:12:03Z</time>
      </trkpt>
      <trkpt lat="47.89962" lon="-3.87957">
        <ele>59</ele>
        <time>2022-12-08T08:12:04Z</time>
      </trkpt>
      <trkpt lat="47.89963" lon="-3.87952">
        <ele>59.4</ele>
        <time>2022-12-08T08:12:05Z</time>
      </trkpt>
      <trkpt lat="47.89963" lon="-3.87951">
        <ele>59.5</ele>
        <time>2022-12-08T08:12:06Z</time>
      </trkpt>
      <trkpt lat="47.89964" lon="-3.87946">
        <ele>59.9</ele>
        <time>2022-12-08T08:12:07Z</time>
      </trkpt>
      <trkpt lat="47.89964" lon="-3.87944">
        <ele>60</ele>
        <time>2022-12-08T08:12:08Z</time>
      </trkpt>
      <trkpt lat="47.89965" lon="-3.87939">
        <ele>60.3</ele>
        <time>2022-12-08T08:12:09Z</time>
      </trkpt>
      <trkpt lat="47.89966" lon="-3.87938">
        <ele>60.4</ele>
        <time>2022-12-08T08:12:10Z</time>
      </trkpt>
      <trkpt lat="47.89966" lon="-3.87936">
        <ele>60.6</ele>
        <time>2022-12-08T08:12:11Z</time>
      </trkpt>
      <trkpt lat="47.89968" lon="-3.87929">
        <ele>61</ele>
        <time>2022-12-08T08:12:13Z</time>
      </trkpt>
      <trkpt lat="47.89968" lon="-3.87925">
        <ele>61.2</ele>
        <time>2022-12-08T08:12:14Z</time>
      </trkpt>
      <trkpt lat="47.8997" lon="-3.87918">
        <ele>61.6</ele>
        <time>2022-12-08T08:12:16Z</time>
      </trkpt>
      <trkpt lat="47.8997" lon="-3.87916">
        <ele>61.7</ele>
        <time>2022-12-08T08:12:17Z</time>
      </trkpt>
      <trkpt lat="47.89971" lon="-3.87912">
        <ele>62</ele>
        <time>2022-12-08T08:12:18Z</time>
      </trkpt>
      <trkpt lat="47.89972" lon="-3.87906">
        <ele>62.3</ele>
        <time>2022-12-08T08:12:19Z</time>
      </trkpt>
      <trkpt lat="47.89973" lon="-3.87904">
        <ele>62.4</ele>
        <time>2022-12-08T08:12:20Z</time>
      </trkpt>
      <trkpt lat="47.89974" lon="-3.87899">
        <ele>62.6</ele>
        <time>2022-12-08T08:12:21Z</time>
      </trkpt>
      <trkpt lat="47.89974" lon="-3.87896">
        <ele>62.8</ele>
        <time>2022-12-08T08:12:22Z</time>
      </trkpt>
      <trkpt lat="47.89975" lon="-3.87891">
        <ele>63.1</ele>
        <time>2022-12-08T08:12:24Z</time>
      </trkpt>
      <trkpt lat="47.89976" lon="-3.87885">
        <ele>63.3</ele>
        <time>2022-12-08T08:12:25Z</time>
      </trkpt>
      <trkpt lat="47.89976" lon="-3.87883">
        <ele>63.4</ele>
        <time>2022-12-08T08:12:26Z</time>
      </trkpt>
      <trkpt lat="47.89977" lon="-3.87879">
        <ele>63.6</ele>
        <time>2022-12-08T08:12:27Z</time>
      </trkpt>
      <trkpt lat="47.89978" lon="-3.87875">
        <ele>63.8</ele>
        <time>2022-12-08T08:12:28Z</time>
      </trkpt>
      <trkpt lat="47.89978" lon="-3.8787">
        <ele>64</ele>
        <time>2022-12-08T08:12:29Z</time>
      </trkpt>
      <trkpt lat="47.89979" lon="-3.87866">
        <ele>64.1</ele>
        <time>2022-12-08T08:12:30Z</time>
      </trkpt>
      <trkpt lat="47.89979" lon="-3.87859">
        <ele>64.4</ele>
        <time>2022-12-08T08:12:32Z</time>
      </trkpt>
      <trkpt lat="47.8998" lon="-3.87855">
        <ele>64.6</ele>
        <time>2022-12-08T08:12:33Z</time>
      </trkpt>
      <trkpt lat="47.89981" lon="-3.8785">
        <ele>64.7</ele>
        <time>2022-12-08T08:12:34Z</time>
      </trkpt>
      <trkpt lat="47.89981" lon="-3.87845">
        <ele>64.9</ele>
        <time>2022-12-08T08:12:35Z</time>
      </trkpt>
      <trkpt lat="47.89982" lon="-3.87838">
        <ele>65.1</ele>
        <time>2022-12-08T08:12:36Z</time>
      </trkpt>
      <trkpt lat="47.89982" lon="-3.87834">
        <ele>65.2</ele>
        <time>2022-12-08T08:12:37Z</time>
      </trkpt>
      <trkpt lat="47.89983" lon="-3.8783">
        <ele>65.4</ele>
        <time>2022-12-08T08:12:38Z</time>
      </trkpt>
      <trkpt lat="47.89983" lon="-3.87824">
        <ele>65.5</ele>
        <time>2022-12-08T08:12:39Z</time>
      </trkpt>
      <trkpt lat="47.89984" lon="-3.87819">
        <ele>65.7</ele>
        <time>2022-12-08T08:12:40Z</time>
      </trkpt>
      <trkpt lat="47.89984" lon="-3.87814">
        <ele>65.8</ele>
        <time>2022-12-08T08:12:41Z</time>
      </trkpt>
      <trkpt lat="47.89984" lon="-3.87809">
        <ele>66</ele>
        <time>2022-12-08T08:12:42Z</time>
      </trkpt>
      <trkpt lat="47.89985" lon="-3.87804">
        <ele>66.1</ele>
        <time>2022-12-08T08:12:43Z</time>
      </trkpt>
      <trkpt lat="47.89985" lon="-3.87799">
        <ele>66.2</ele>
        <time>2022-12-08T08:12:44Z</time>
      </trkpt>
      <trkpt lat="47.89985" lon="-3.87794">
        <ele>66.4</ele>
        <time>2022-12-08T08:12:45Z</time>
      </trkpt>
      <trkpt lat="47.89986" lon="-3.87789">
        <ele>66.5</ele>
        <time>2022-12-08T08:12:46Z</time>
      </trkpt>
      <trkpt lat="47.89986" lon="-3.87783">
        <ele>66.7</ele>
        <time>2022-12-08T08:12:48Z</time>
      </trkpt>
      <trkpt lat="47.89987" lon="-3.87778">
        <ele>66.8</ele>
        <time>2022-12-08T08:12:49Z</time>
      </trkpt>
      <trkpt lat="47.89987" lon="-3.87772">
        <ele>67</ele>
        <time>2022-12-08T08:12:50Z</time>
      </trkpt>
      <trkpt lat="47.89987" lon="-3.87768">
        <ele>67.1</ele>
        <time>2022-12-08T08:12:51Z</time>
      </trkpt>
      <trkpt lat="47.89987" lon="-3.87761">
        <ele>67.3</ele>
        <time>2022-12-08T08:12:52Z</time>
      </trkpt>
      <trkpt lat="47.89988" lon="-3.87756">
        <ele>67.4</ele>
        <time>2022-12-08T08:12:53Z</time>
      </trkpt>
      <trkpt lat="47.89988" lon="-3.8775">
        <ele>67.5</ele>
        <time>2022-12-08T08:12:54Z</time>
      </trkpt>
      <trkpt lat="47.89988" lon="-3.87745">
        <ele>67.7</ele>
        <time>2022-12-08T08:12:55Z</time>
      </trkpt>
      <trkpt lat="47.89989" lon="-3.87739">
        <ele>67.8</ele>
        <time>2022-12-08T08:12:56Z</time>
      </trkpt>
      <trkpt lat="47.89989" lon="-3.87733">
        <ele>68</ele>
        <time>2022-12-08T08:12:57Z</time>
      </trkpt>
      <trkpt lat="47.89989" lon="-3.87727">
        <ele>68.1</ele>
        <time>2022-12-08T08:12:58Z</time>
      </trkpt>
      <trkpt lat="47.8999" lon="-3.87721">
        <ele>68.2</ele>
        <time>2022-12-08T08:12:59Z</time>
      </trkpt>
      <trkpt lat="47.8999" lon="-3.87716">
        <ele>68.4</ele>
        <time>2022-12-08T08:13:00Z</time>
      </trkpt>
      <trkpt lat="47.8999" lon="-3.87709">
        <ele>68.5</ele>
        <time>2022-12-08T08:13:01Z</time>
      </trkpt>
      <trkpt lat="47.8999" lon="-3.87704">
        <ele>68.6</ele>
        <time>2022-12-08T08:13:02Z</time>
      </trkpt>
      <trkpt lat="47.8999" lon="-3.87699">
        <ele>68.7</ele>
        <time>2022-12-08T08:13:03Z</time>
      </trkpt>
      <trkpt lat="47.8999" lon="-3.87692">
        <ele>68.9</ele>
        <time>2022-12-08T08:13:05Z</time>
      </trkpt>
      <trkpt lat="47.8999" lon="-3.87685">
        <ele>69.1</ele>
        <time>2022-12-08T08:13:06Z</time>
      </trkpt>
      <trkpt lat="47.8999" lon="-3.87678">
        <ele>69.2</ele>
        <time>2022-12-08T08:13:07Z</time>
      </trkpt>
      <trkpt lat="47.8999" lon="-3.87672">
        <ele>69.3</ele>
        <time>2022-12-08T08:13:08Z</time>
      </trkpt>
      <trkpt lat="47.89991" lon="-3.87663">
        <ele>69.5</ele>
        <time>2022-12-08T08:13:10Z</time>
      </trkpt>
      <trkpt lat="47.89991" lon="-3.87654">
        <ele>69.7</ele>
        <time>2022-12-08T08:13:11Z</time>
      </trkpt>
      <trkpt lat="47.89991" lon="-3.87648">
        <ele>69.8</ele>
        <time>2022-12-08T08:13:12Z</time>
      </trkpt>
      <trkpt lat="47.89991" lon="-3.87642">
        <ele>69.9</ele>
        <time>2022-12-08T08:13:13Z</time>
      </trkpt>
      <trkpt lat="47.89991" lon="-3.87636">
        <ele>70</ele>
        <time>2022-12-08T08:13:14Z</time>
      </trkpt>
      <trkpt lat="47.89991" lon="-3.87629">
        <ele>70.2</ele>
        <time>2022-12-08T08:13:15Z</time>
      </trkpt>
      <trkpt lat="47.89991" lon="-3.87621">
        <ele>70.3</ele>
        <time>2022-12-08T08:13:17Z</time>
      </trkpt>
      <trkpt lat="47.89991" lon="-3.87614">
        <ele>70.4</ele>
        <time>2022-12-08T08:13:18Z</time>
      </trkpt>
      <trkpt lat="47.89991" lon="-3.87609">
        <ele>70.5</ele>
        <time>2022-12-08T08:13:19Z</time>
      </trkpt>
      <trkpt lat="47.89991" lon="-3.87599">
        <ele>70.7</ele>
        <time>2022-12-08T08:13:20Z</time>
      </trkpt>
      <trkpt lat="47.89992" lon="-3.87592">
        <ele>70.8</ele>
        <time>2022-12-08T08:13:21Z</time>
      </trkpt>
      <trkpt lat="47.89992" lon="-3.87586">
        <ele>70.9</ele>
        <time>2022-12-08T08:13:22Z</time>
      </trkpt>
      <trkpt lat="47.89992" lon="-3.87579">
        <ele>71</ele>
        <time>2022-12-08T08:13:23Z</time>
      </trkpt>
      <trkpt lat="47.89992" lon="-3.87573">
        <ele>71.1</ele>
        <time>2022-12-08T08:13:24Z</time>
      </trkpt>
      <trkpt lat="47.89992" lon="-3.87567">
        <ele>71.2</ele>
        <time>2022-12-08T08:13:25Z</time>
      </trkpt>
      <trkpt lat="47.89992" lon="-3.87561">
        <ele>71.2</ele>
        <time>2022-12-08T08:13:26Z</time>
      </trkpt>
      <trkpt lat="47.89992" lon="-3.87554">
        <ele>71.2</ele>
        <time>2022-12-08T08:13:27Z</time>
      </trkpt>
      <trkpt lat="47.89992" lon="-3.87547">
        <ele>71.3</ele>
        <time>2022-12-08T08:13:28Z</time>
      </trkpt>
      <trkpt lat="47.89993" lon="-3.87541">
        <ele>71.3</ele>
        <time>2022-12-08T08:13:29Z</time>
      </trkpt>
      <trkpt lat="47.89993" lon="-3.87535">
        <ele>71.3</ele>
        <time>2022-12-08T08:13:30Z</time>
      </trkpt>
      <trkpt lat="47.89993" lon="-3.87528">
        <ele>71.4</ele>
        <time>2022-12-08T08:13:31Z</time>
      </trkpt>
      <trkpt lat="47.89992" lon="-3.8752">
        <ele>71.4</ele>
        <time>2022-12-08T08:13:33Z</time>
      </trkpt>
      <trkpt lat="47.89992" lon="-3.87513">
        <ele>71.4</ele>
        <time>2022-12-08T08:13:34Z</time>
      </trkpt>
      <trkpt lat="47.89992" lon="-3.87504">
        <ele>71.4</ele>
        <time>2022-12-08T08:13:35Z</time>
      </trkpt>
      <trkpt lat="47.89992" lon="-3.87496">
        <ele>71.4</ele>
        <time>2022-12-08T08:13:36Z</time>
      </trkpt>
      <trkpt lat="47.89992" lon="-3.87489">
        <ele>71.4</ele>
        <time>2022-12-08T08:13:37Z</time>
      </trkpt>
      <trkpt lat="47.89992" lon="-3.87483">
        <ele>71.5</ele>
        <time>2022-12-08T08:13:38Z</time>
      </trkpt>
      <trkpt lat="47.89992" lon="-3.87477">
        <ele>71.5</ele>
        <time>2022-12-08T08:13:39Z</time>
      </trkpt>
      <trkpt lat="47.89992" lon="-3.87469">
        <ele>71.5</ele>
        <time>2022-12-08T08:13:40Z</time>
      </trkpt>
      <trkpt lat="47.89992" lon="-3.87463">
        <ele>71.5</ele>
        <time>2022-12-08T08:13:41Z</time>
      </trkpt>
      <trkpt lat="47.89992" lon="-3.87456">
        <ele>71.5</ele>
        <time>2022-12-08T08:13:42Z</time>
      </trkpt>
      <trkpt lat="47.89992" lon="-3.87449">
        <ele>71.5</ele>
        <time>2022-12-08T08:13:43Z</time>
      </trkpt>
      <trkpt lat="47.89993" lon="-3.87442">
        <ele>71.4</ele>
        <time>2022-12-08T08:13:44Z</time>
      </trkpt>
      <trkpt lat="47.89993" lon="-3.87436">
        <ele>71.4</ele>
        <time>2022-12-08T08:13:45Z</time>
      </trkpt>
      <trkpt lat="47.89993" lon="-3.87429">
        <ele>71.4</ele>
        <time>2022-12-08T08:13:46Z</time>
      </trkpt>
      <trkpt lat="47.89993" lon="-3.87422">
        <ele>71.3</ele>
        <time>2022-12-08T08:13:47Z</time>
      </trkpt>
      <trkpt lat="47.89994" lon="-3.87415">
        <ele>71.3</ele>
        <time>2022-12-08T08:13:48Z</time>
      </trkpt>
      <trkpt lat="47.89995" lon="-3.87408">
        <ele>71.2</ele>
        <time>2022-12-08T08:13:49Z</time>
      </trkpt>
      <trkpt lat="47.89995" lon="-3.87401">
        <ele>71.2</ele>
        <time>2022-12-08T08:13:50Z</time>
      </trkpt>
      <trkpt lat="47.89996" lon="-3.87394">
        <ele>71.1</ele>
        <time>2022-12-08T08:13:51Z</time>
      </trkpt>
      <trkpt lat="47.89997" lon="-3.87387">
        <ele>71.1</ele>
        <time>2022-12-08T08:13:52Z</time>
      </trkpt>
      <trkpt lat="47.89998" lon="-3.8738">
        <ele>71</ele>
        <time>2022-12-08T08:13:53Z</time>
      </trkpt>
      <trkpt lat="47.89999" lon="-3.87373">
        <ele>70.9</ele>
        <time>2022-12-08T08:13:54Z</time>
      </trkpt>
      <trkpt lat="47.90001" lon="-3.87366">
        <ele>70.9</ele>
        <time>2022-12-08T08:13:55Z</time>
      </trkpt>
      <trkpt lat="47.90002" lon="-3.87359">
        <ele>70.8</ele>
        <time>2022-12-08T08:13:56Z</time>
      </trkpt>
      <trkpt lat="47.90004" lon="-3.87352">
        <ele>70.8</ele>
        <time>2022-12-08T08:13:57Z</time>
      </trkpt>
      <trkpt lat="47.90006" lon="-3.87345">
        <ele>70.7</ele>
        <time>2022-12-08T08:13:58Z</time>
      </trkpt>
      <trkpt lat="47.90008" lon="-3.87338">
        <ele>70.7</ele>
        <time>2022-12-08T08:13:59Z</time>
      </trkpt>
      <trkpt lat="47.9001" lon="-3.87332">
        <ele>70.6</ele>
        <time>2022-12-08T08:14:00Z</time>
      </trkpt>
      <trkpt lat="47.90012" lon="-3.87325">
        <ele>70.6</ele>
        <time>2022-12-08T08:14:01Z</time>
      </trkpt>
      <trkpt lat="47.90015" lon="-3.87318">
        <ele>70.6</ele>
        <time>2022-12-08T08:14:02Z</time>
      </trkpt>
      <trkpt lat="47.90018" lon="-3.87312">
        <ele>70.6</ele>
        <time>2022-12-08T08:14:03Z</time>
      </trkpt>
      <trkpt lat="47.9002" lon="-3.87305">
        <ele>70.6</ele>
        <time>2022-12-08T08:14:04Z</time>
      </trkpt>
      <trkpt lat="47.90023" lon="-3.87299">
        <ele>70.6</ele>
        <time>2022-12-08T08:14:05Z</time>
      </trkpt>
      <trkpt lat="47.90026" lon="-3.87293">
        <ele>70.6</ele>
        <time>2022-12-08T08:14:06Z</time>
      </trkpt>
      <trkpt lat="47.90029" lon="-3.87287">
        <ele>70.6</ele>
        <time>2022-12-08T08:14:07Z</time>
      </trkpt>
      <trkpt lat="47.90032" lon="-3.87281">
        <ele>70.6</ele>
        <time>2022-12-08T08:14:08Z</time>
      </trkpt>
      <trkpt lat="47.90035" lon="-3.87275">
        <ele>70.6</ele>
        <time>2022-12-08T08:14:09Z</time>
      </trkpt>
      <trkpt lat="47.90038" lon="-3.87269">
        <ele>70.7</ele>
        <time>2022-12-08T08:14:10Z</time>
      </trkpt>
      <trkpt lat="47.9004" lon="-3.87263">
        <ele>70.7</ele>
        <time>2022-12-08T08:14:11Z</time>
      </trkpt>
      <trkpt lat="47.90043" lon="-3.87256">
        <ele>70.8</ele>
        <time>2022-12-08T08:14:12Z</time>
      </trkpt>
      <trkpt lat="47.90046" lon="-3.8725">
        <ele>70.9</ele>
        <time>2022-12-08T08:14:13Z</time>
      </trkpt>
      <trkpt lat="47.90049" lon="-3.87245">
        <ele>70.9</ele>
        <time>2022-12-08T08:14:14Z</time>
      </trkpt>
      <trkpt lat="47.90052" lon="-3.8724">
        <ele>71</ele>
        <time>2022-12-08T08:14:15Z</time>
      </trkpt>
      <trkpt lat="47.90054" lon="-3.87234">
        <ele>71.1</ele>
        <time>2022-12-08T08:14:16Z</time>
      </trkpt>
      <trkpt lat="47.90057" lon="-3.87229">
        <ele>71.2</ele>
        <time>2022-12-08T08:14:17Z</time>
      </trkpt>
      <trkpt lat="47.9006" lon="-3.87223">
        <ele>71.4</ele>
        <time>2022-12-08T08:14:18Z</time>
      </trkpt>
      <trkpt lat="47.90062" lon="-3.87218">
        <ele>71.5</ele>
        <time>2022-12-08T08:14:19Z</time>
      </trkpt>
      <trkpt lat="47.90065" lon="-3.87213">
        <ele>71.6</ele>
        <time>2022-12-08T08:14:20Z</time>
      </trkpt>
      <trkpt lat="47.90067" lon="-3.87207">
        <ele>71.7</ele>
        <time>2022-12-08T08:14:21Z</time>
      </trkpt>
      <trkpt lat="47.9007" lon="-3.87201">
        <ele>71.8</ele>
        <time>2022-12-08T08:14:22Z</time>
      </trkpt>
      <trkpt lat="47.90073" lon="-3.87195">
        <ele>71.9</ele>
        <time>2022-12-08T08:14:23Z</time>
      </trkpt>
      <trkpt lat="47.90075" lon="-3.8719">
        <ele>72</ele>
        <time>2022-12-08T08:14:24Z</time>
      </trkpt>
      <trkpt lat="47.90078" lon="-3.87185">
        <ele>72.1</ele>
        <time>2022-12-08T08:14:25Z</time>
      </trkpt>
      <trkpt lat="47.9008" lon="-3.8718">
        <ele>72.1</ele>
        <time>2022-12-08T08:14:26Z</time>
      </trkpt>
      <trkpt lat="47.90082" lon="-3.87176">
        <ele>72.2</ele>
        <time>2022-12-08T08:14:27Z</time>
      </trkpt>
      <trkpt lat="47.90085" lon="-3.8717">
        <ele>72.2</ele>
        <time>2022-12-08T08:14:28Z</time>
      </trkpt>
      <trkpt lat="47.90088" lon="-3.87164">
        <ele>72.2</ele>
        <time>2022-12-08T08:14:29Z</time>
      </trkpt>
      <trkpt lat="47.90089" lon="-3.87161">
        <ele>72.2</ele>
        <time>2022-12-08T08:14:30Z</time>
      </trkpt>
      <trkpt lat="47.90091" lon="-3.87156">
        <ele>72.3</ele>
        <time>2022-12-08T08:14:31Z</time>
      </trkpt>
      <trkpt lat="47.90094" lon="-3.87151">
        <ele>72.3</ele>
        <time>2022-12-08T08:14:32Z</time>
      </trkpt>
      <trkpt lat="47.90098" lon="-3.87144">
        <ele>72.4</ele>
        <time>2022-12-08T08:14:33Z</time>
      </trkpt>
      <trkpt lat="47.90101" lon="-3.87138">
        <ele>72.5</ele>
        <time>2022-12-08T08:14:34Z</time>
      </trkpt>
      <trkpt lat="47.90103" lon="-3.87133">
        <ele>72.6</ele>
        <time>2022-12-08T08:14:35Z</time>
      </trkpt>
      <trkpt lat="47.90106" lon="-3.87127">
        <ele>72.7</ele>
        <time>2022-12-08T08:14:36Z</time>
      </trkpt>
      <trkpt lat="47.90109" lon="-3.87122">
        <ele>72.7</ele>
        <time>2022-12-08T08:14:37Z</time>
      </trkpt>
      <trkpt lat="47.90111" lon="-3.87117">
        <ele>72.7</ele>
        <time>2022-12-08T08:14:38Z</time>
      </trkpt>
      <trkpt lat="47.90114" lon="-3.87111">
        <ele>72.8</ele>
        <time>2022-12-08T08:14:39Z</time>
      </trkpt>
      <trkpt lat="47.90117" lon="-3.87105">
        <ele>72.8</ele>
        <time>2022-12-08T08:14:40Z</time>
      </trkpt>
      <trkpt lat="47.90119" lon="-3.87101">
        <ele>72.8</ele>
        <time>2022-12-08T08:14:41Z</time>
      </trkpt>
      <trkpt lat="47.90122" lon="-3.87095">
        <ele>72.8</ele>
        <time>2022-12-08T08:14:42Z</time>
      </trkpt>
      <trkpt lat="47.90125" lon="-3.8709">
        <ele>72.8</ele>
        <time>2022-12-08T08:14:43Z</time>
      </trkpt>
      <trkpt lat="47.90128" lon="-3.87083">
        <ele>72.7</ele>
        <time>2022-12-08T08:14:44Z</time>
      </trkpt>
      <trkpt lat="47.90131" lon="-3.87077">
        <ele>72.7</ele>
        <time>2022-12-08T08:14:45Z</time>
      </trkpt>
      <trkpt lat="47.90134" lon="-3.87071">
        <ele>72.7</ele>
        <time>2022-12-08T08:14:46Z</time>
      </trkpt>
      <trkpt lat="47.90137" lon="-3.87065">
        <ele>72.6</ele>
        <time>2022-12-08T08:14:47Z</time>
      </trkpt>
      <trkpt lat="47.9014" lon="-3.8706">
        <ele>72.5</ele>
        <time>2022-12-08T08:14:48Z</time>
      </trkpt>
      <trkpt lat="47.90143" lon="-3.87055">
        <ele>72.5</ele>
        <time>2022-12-08T08:14:49Z</time>
      </trkpt>
      <trkpt lat="47.90146" lon="-3.87049">
        <ele>72.4</ele>
        <time>2022-12-08T08:14:50Z</time>
      </trkpt>
      <trkpt lat="47.90149" lon="-3.87043">
        <ele>72.3</ele>
        <time>2022-12-08T08:14:51Z</time>
      </trkpt>
      <trkpt lat="47.90152" lon="-3.87037">
        <ele>72.2</ele>
        <time>2022-12-08T08:14:52Z</time>
      </trkpt>
      <trkpt lat="47.90156" lon="-3.87031">
        <ele>72.1</ele>
        <time>2022-12-08T08:14:53Z</time>
      </trkpt>
      <trkpt lat="47.90158" lon="-3.87026">
        <ele>72</ele>
        <time>2022-12-08T08:14:54Z</time>
      </trkpt>
      <trkpt lat="47.90161" lon="-3.8702">
        <ele>72</ele>
        <time>2022-12-08T08:14:55Z</time>
      </trkpt>
      <trkpt lat="47.90164" lon="-3.87014">
        <ele>71.9</ele>
        <time>2022-12-08T08:14:56Z</time>
      </trkpt>
      <trkpt lat="47.90167" lon="-3.87008">
        <ele>71.8</ele>
        <time>2022-12-08T08:14:57Z</time>
      </trkpt>
      <trkpt lat="47.9017" lon="-3.87002">
        <ele>71.7</ele>
        <time>2022-12-08T08:14:58Z</time>
      </trkpt>
      <trkpt lat="47.90173" lon="-3.86996">
        <ele>71.6</ele>
        <time>2022-12-08T08:14:59Z</time>
      </trkpt>
      <trkpt lat="47.90177" lon="-3.8699">
        <ele>71.5</ele>
        <time>2022-12-08T08:15:00Z</time>
      </trkpt>
      <trkpt lat="47.9018" lon="-3.86983">
        <ele>71.4</ele>
        <time>2022-12-08T08:15:01Z</time>
      </trkpt>
      <trkpt lat="47.90183" lon="-3.86977">
        <ele>71.3</ele>
        <time>2022-12-08T08:15:02Z</time>
      </trkpt>
      <trkpt lat="47.90186" lon="-3.86971">
        <ele>71.2</ele>
        <time>2022-12-08T08:15:03Z</time>
      </trkpt>
      <trkpt lat="47.90189" lon="-3.86964">
        <ele>71.2</ele>
        <time>2022-12-08T08:15:04Z</time>
      </trkpt>
      <trkpt lat="47.90192" lon="-3.86957">
        <ele>71.2</ele>
        <time>2022-12-08T08:15:05Z</time>
      </trkpt>
      <trkpt lat="47.90195" lon="-3.86951">
        <ele>71.2</ele>
        <time>2022-12-08T08:15:06Z</time>
      </trkpt>
      <trkpt lat="47.90198" lon="-3.86945">
        <ele>71.2</ele>
        <time>2022-12-08T08:15:07Z</time>
      </trkpt>
      <trkpt lat="47.90201" lon="-3.86939">
        <ele>71.2</ele>
        <time>2022-12-08T08:15:08Z</time>
      </trkpt>
      <trkpt lat="47.90205" lon="-3.86933">
        <ele>71.2</ele>
        <time>2022-12-08T08:15:09Z</time>
      </trkpt>
      <trkpt lat="47.90208" lon="-3.86926">
        <ele>71.3</ele>
        <time>2022-12-08T08:15:10Z</time>
      </trkpt>
      <trkpt lat="47.90211" lon="-3.8692">
        <ele>71.3</ele>
        <time>2022-12-08T08:15:11Z</time>
      </trkpt>
      <trkpt lat="47.90214" lon="-3.86913">
        <ele>71.4</ele>
        <time>2022-12-08T08:15:12Z</time>
      </trkpt>
      <trkpt lat="47.90217" lon="-3.86907">
        <ele>71.5</ele>
        <time>2022-12-08T08:15:13Z</time>
      </trkpt>
      <trkpt lat="47.9022" lon="-3.86901">
        <ele>71.6</ele>
        <time>2022-12-08T08:15:14Z</time>
      </trkpt>
      <trkpt lat="47.90223" lon="-3.86894">
        <ele>71.7</ele>
        <time>2022-12-08T08:15:15Z</time>
      </trkpt>
      <trkpt lat="47.90226" lon="-3.86888">
        <ele>71.9</ele>
        <time>2022-12-08T08:15:16Z</time>
      </trkpt>
      <trkpt lat="47.90229" lon="-3.86882">
        <ele>72</ele>
        <time>2022-12-08T08:15:17Z</time>
      </trkpt>
      <trkpt lat="47.90232" lon="-3.86877">
        <ele>72.2</ele>
        <time>2022-12-08T08:15:18Z</time>
      </trkpt>
      <trkpt lat="47.90235" lon="-3.86872">
        <ele>72.3</ele>
        <time>2022-12-08T08:15:19Z</time>
      </trkpt>
      <trkpt lat="47.90238" lon="-3.86866">
        <ele>72.5</ele>
        <time>2022-12-08T08:15:20Z</time>
      </trkpt>
      <trkpt lat="47.90241" lon="-3.86861">
        <ele>72.7</ele>
        <time>2022-12-08T08:15:21Z</time>
      </trkpt>
      <trkpt lat="47.90244" lon="-3.86856">
        <ele>72.9</ele>
        <time>2022-12-08T08:15:22Z</time>
      </trkpt>
      <trkpt lat="47.90248" lon="-3.86852">
        <ele>73</ele>
        <time>2022-12-08T08:15:23Z</time>
      </trkpt>
      <trkpt lat="47.90251" lon="-3.86847">
        <ele>73.2</ele>
        <time>2022-12-08T08:15:24Z</time>
      </trkpt>
      <trkpt lat="47.90255" lon="-3.86842">
        <ele>73.4</ele>
        <time>2022-12-08T08:15:25Z</time>
      </trkpt>
      <trkpt lat="47.90258" lon="-3.86837">
        <ele>73.6</ele>
        <time>2022-12-08T08:15:26Z</time>
      </trkpt>
      <trkpt lat="47.90262" lon="-3.86832">
        <ele>73.8</ele>
        <time>2022-12-08T08:15:27Z</time>
      </trkpt>
      <trkpt lat="47.90265" lon="-3.86827">
        <ele>73.9</ele>
        <time>2022-12-08T08:15:28Z</time>
      </trkpt>
      <trkpt lat="47.90268" lon="-3.86823">
        <ele>74.1</ele>
        <time>2022-12-08T08:15:29Z</time>
      </trkpt>
      <trkpt lat="47.90272" lon="-3.86819">
        <ele>74.3</ele>
        <time>2022-12-08T08:15:30Z</time>
      </trkpt>
      <trkpt lat="47.90274" lon="-3.86816">
        <ele>74.4</ele>
        <time>2022-12-08T08:15:31Z</time>
      </trkpt>
      <trkpt lat="47.90278" lon="-3.86812">
        <ele>74.7</ele>
        <time>2022-12-08T08:15:32Z</time>
      </trkpt>
      <trkpt lat="47.90281" lon="-3.86808">
        <ele>74.9</ele>
        <time>2022-12-08T08:15:33Z</time>
      </trkpt>
      <trkpt lat="47.90285" lon="-3.86804">
        <ele>75.1</ele>
        <time>2022-12-08T08:15:34Z</time>
      </trkpt>
      <trkpt lat="47.90289" lon="-3.868">
        <ele>75.4</ele>
        <time>2022-12-08T08:15:35Z</time>
      </trkpt>
      <trkpt lat="47.90291" lon="-3.86798">
        <ele>75.5</ele>
        <time>2022-12-08T08:15:36Z</time>
      </trkpt>
      <trkpt lat="47.90296" lon="-3.86794">
        <ele>75.8</ele>
        <time>2022-12-08T08:15:37Z</time>
      </trkpt>
      <trkpt lat="47.90299" lon="-3.86793">
        <ele>76</ele>
        <time>2022-12-08T08:15:38Z</time>
      </trkpt>
      <trkpt lat="47.90301" lon="-3.86792">
        <ele>76.2</ele>
        <time>2022-12-08T08:15:39Z</time>
      </trkpt>
      <trkpt lat="47.90308" lon="-3.86785">
        <ele>76.6</ele>
        <time>2022-12-08T08:15:41Z</time>
      </trkpt>
      <trkpt lat="47.90311" lon="-3.86781">
        <ele>76.9</ele>
        <time>2022-12-08T08:15:42Z</time>
      </trkpt>
      <trkpt lat="47.90314" lon="-3.86778">
        <ele>77.1</ele>
        <time>2022-12-08T08:15:43Z</time>
      </trkpt>
      <trkpt lat="47.90318" lon="-3.86775">
        <ele>77.3</ele>
        <time>2022-12-08T08:15:44Z</time>
      </trkpt>
      <trkpt lat="47.90321" lon="-3.86773">
        <ele>77.5</ele>
        <time>2022-12-08T08:15:45Z</time>
      </trkpt>
      <trkpt lat="47.90325" lon="-3.86771">
        <ele>77.7</ele>
        <time>2022-12-08T08:15:46Z</time>
      </trkpt>
      <trkpt lat="47.90329" lon="-3.86768">
        <ele>77.9</ele>
        <time>2022-12-08T08:15:47Z</time>
      </trkpt>
      <trkpt lat="47.90332" lon="-3.86765">
        <ele>78.1</ele>
        <time>2022-12-08T08:15:48Z</time>
      </trkpt>
      <trkpt lat="47.90336" lon="-3.86762">
        <ele>78.3</ele>
        <time>2022-12-08T08:15:49Z</time>
      </trkpt>
      <trkpt lat="47.90339" lon="-3.86759">
        <ele>78.5</ele>
        <time>2022-12-08T08:15:50Z</time>
      </trkpt>
      <trkpt lat="47.90343" lon="-3.86756">
        <ele>78.7</ele>
        <time>2022-12-08T08:15:51Z</time>
      </trkpt>
      <trkpt lat="47.90347" lon="-3.86754">
        <ele>78.9</ele>
        <time>2022-12-08T08:15:52Z</time>
      </trkpt>
      <trkpt lat="47.9035" lon="-3.86751">
        <ele>79.2</ele>
        <time>2022-12-08T08:15:53Z</time>
      </trkpt>
      <trkpt lat="47.90354" lon="-3.86748">
        <ele>79.5</ele>
        <time>2022-12-08T08:15:54Z</time>
      </trkpt>
      <trkpt lat="47.90358" lon="-3.86746">
        <ele>79.7</ele>
        <time>2022-12-08T08:15:55Z</time>
      </trkpt>
      <trkpt lat="47.90361" lon="-3.86743">
        <ele>79.9</ele>
        <time>2022-12-08T08:15:56Z</time>
      </trkpt>
      <trkpt lat="47.90364" lon="-3.8674">
        <ele>80.1</ele>
        <time>2022-12-08T08:15:57Z</time>
      </trkpt>
      <trkpt lat="47.90367" lon="-3.86738">
        <ele>80.3</ele>
        <time>2022-12-08T08:15:58Z</time>
      </trkpt>
      <trkpt lat="47.90371" lon="-3.86735">
        <ele>80.6</ele>
        <time>2022-12-08T08:16:00Z</time>
      </trkpt>
      <trkpt lat="47.90375" lon="-3.86732">
        <ele>80.8</ele>
        <time>2022-12-08T08:16:01Z</time>
      </trkpt>
      <trkpt lat="47.90381" lon="-3.86727">
        <ele>81.1</ele>
        <time>2022-12-08T08:16:02Z</time>
      </trkpt>
      <trkpt lat="47.90384" lon="-3.86724">
        <ele>81.3</ele>
        <time>2022-12-08T08:16:03Z</time>
      </trkpt>
      <trkpt lat="47.90388" lon="-3.8672">
        <ele>81.5</ele>
        <time>2022-12-08T08:16:04Z</time>
      </trkpt>
      <trkpt lat="47.90392" lon="-3.86718">
        <ele>81.7</ele>
        <time>2022-12-08T08:16:05Z</time>
      </trkpt>
      <trkpt lat="47.90396" lon="-3.86715">
        <ele>81.9</ele>
        <time>2022-12-08T08:16:06Z</time>
      </trkpt>
      <trkpt lat="47.90399" lon="-3.86711">
        <ele>82.1</ele>
        <time>2022-12-08T08:16:07Z</time>
      </trkpt>
      <trkpt lat="47.90402" lon="-3.86709">
        <ele>82.2</ele>
        <time>2022-12-08T08:16:08Z</time>
      </trkpt>
      <trkpt lat="47.90405" lon="-3.86707">
        <ele>82.4</ele>
        <time>2022-12-08T08:16:09Z</time>
      </trkpt>
      <trkpt lat="47.90409" lon="-3.86704">
        <ele>82.5</ele>
        <time>2022-12-08T08:16:10Z</time>
      </trkpt>
      <trkpt lat="47.90413" lon="-3.86701">
        <ele>82.7</ele>
        <time>2022-12-08T08:16:11Z</time>
      </trkpt>
      <trkpt lat="47.90417" lon="-3.86699">
        <ele>82.9</ele>
        <time>2022-12-08T08:16:12Z</time>
      </trkpt>
      <trkpt lat="47.90421" lon="-3.86696">
        <ele>83.1</ele>
        <time>2022-12-08T08:16:13Z</time>
      </trkpt>
      <trkpt lat="47.90424" lon="-3.86694">
        <ele>83.3</ele>
        <time>2022-12-08T08:16:14Z</time>
      </trkpt>
      <trkpt lat="47.90428" lon="-3.86691">
        <ele>83.5</ele>
        <time>2022-12-08T08:16:15Z</time>
      </trkpt>
      <trkpt lat="47.90432" lon="-3.86689">
        <ele>83.7</ele>
        <time>2022-12-08T08:16:16Z</time>
      </trkpt>
      <trkpt lat="47.90436" lon="-3.86688">
        <ele>83.9</ele>
        <time>2022-12-08T08:16:17Z</time>
      </trkpt>
      <trkpt lat="47.9044" lon="-3.86686">
        <ele>84.1</ele>
        <time>2022-12-08T08:16:18Z</time>
      </trkpt>
      <trkpt lat="47.90444" lon="-3.86683">
        <ele>84.2</ele>
        <time>2022-12-08T08:16:19Z</time>
      </trkpt>
      <trkpt lat="47.90447" lon="-3.8668">
        <ele>84.4</ele>
        <time>2022-12-08T08:16:20Z</time>
      </trkpt>
      <trkpt lat="47.90451" lon="-3.86679">
        <ele>84.5</ele>
        <time>2022-12-08T08:16:21Z</time>
      </trkpt>
      <trkpt lat="47.90455" lon="-3.86677">
        <ele>84.7</ele>
        <time>2022-12-08T08:16:22Z</time>
      </trkpt>
      <trkpt lat="47.90459" lon="-3.86676">
        <ele>84.9</ele>
        <time>2022-12-08T08:16:23Z</time>
      </trkpt>
      <trkpt lat="47.90463" lon="-3.86673">
        <ele>85.1</ele>
        <time>2022-12-08T08:16:24Z</time>
      </trkpt>
      <trkpt lat="47.90467" lon="-3.86672">
        <ele>85.3</ele>
        <time>2022-12-08T08:16:25Z</time>
      </trkpt>
      <trkpt lat="47.9047" lon="-3.86671">
        <ele>85.5</ele>
        <time>2022-12-08T08:16:26Z</time>
      </trkpt>
      <trkpt lat="47.90474" lon="-3.86668">
        <ele>85.7</ele>
        <time>2022-12-08T08:16:28Z</time>
      </trkpt>
      <trkpt lat="47.90478" lon="-3.86666">
        <ele>85.8</ele>
        <time>2022-12-08T08:16:29Z</time>
      </trkpt>
      <trkpt lat="47.90484" lon="-3.86663">
        <ele>86.1</ele>
        <time>2022-12-08T08:16:30Z</time>
      </trkpt>
      <trkpt lat="47.90491" lon="-3.8666">
        <ele>86.5</ele>
        <time>2022-12-08T08:16:32Z</time>
      </trkpt>
      <trkpt lat="47.90499" lon="-3.86656">
        <ele>86.8</ele>
        <time>2022-12-08T08:16:34Z</time>
      </trkpt>
      <trkpt lat="47.90507" lon="-3.86653">
        <ele>87.2</ele>
        <time>2022-12-08T08:16:36Z</time>
      </trkpt>
      <trkpt lat="47.90514" lon="-3.86649">
        <ele>87.5</ele>
        <time>2022-12-08T08:16:38Z</time>
      </trkpt>
      <trkpt lat="47.90518" lon="-3.86648">
        <ele>87.7</ele>
        <time>2022-12-08T08:16:39Z</time>
      </trkpt>
      <trkpt lat="47.90527" lon="-3.86644">
        <ele>88.1</ele>
        <time>2022-12-08T08:16:41Z</time>
      </trkpt>
      <trkpt lat="47.90531" lon="-3.86642">
        <ele>88.2</ele>
        <time>2022-12-08T08:16:42Z</time>
      </trkpt>
      <trkpt lat="47.90534" lon="-3.8664">
        <ele>88.4</ele>
        <time>2022-12-08T08:16:43Z</time>
      </trkpt>
      <trkpt lat="47.90539" lon="-3.86638">
        <ele>88.6</ele>
        <time>2022-12-08T08:16:44Z</time>
      </trkpt>
      <trkpt lat="47.90543" lon="-3.86636">
        <ele>88.8</ele>
        <time>2022-12-08T08:16:45Z</time>
      </trkpt>
      <trkpt lat="47.90547" lon="-3.86633">
        <ele>89</ele>
        <time>2022-12-08T08:16:46Z</time>
      </trkpt>
      <trkpt lat="47.9055" lon="-3.86631">
        <ele>89.1</ele>
        <time>2022-12-08T08:16:47Z</time>
      </trkpt>
      <trkpt lat="47.90556" lon="-3.86628">
        <ele>89.4</ele>
        <time>2022-12-08T08:16:49Z</time>
      </trkpt>
      <trkpt lat="47.90559" lon="-3.86625">
        <ele>89.6</ele>
        <time>2022-12-08T08:16:50Z</time>
      </trkpt>
      <trkpt lat="47.90562" lon="-3.86623">
        <ele>89.7</ele>
        <time>2022-12-08T08:16:51Z</time>
      </trkpt>
      <trkpt lat="47.90567" lon="-3.86619">
        <ele>90</ele>
        <time>2022-12-08T08:16:52Z</time>
      </trkpt>
      <trkpt lat="47.9057" lon="-3.86615">
        <ele>90.2</ele>
        <time>2022-12-08T08:16:53Z</time>
      </trkpt>
      <trkpt lat="47.90573" lon="-3.86612">
        <ele>90.4</ele>
        <time>2022-12-08T08:16:54Z</time>
      </trkpt>
      <trkpt lat="47.90577" lon="-3.86608">
        <ele>90.6</ele>
        <time>2022-12-08T08:16:55Z</time>
      </trkpt>
      <trkpt lat="47.9058" lon="-3.86604">
        <ele>90.7</ele>
        <time>2022-12-08T08:16:56Z</time>
      </trkpt>
      <trkpt lat="47.90582" lon="-3.86602">
        <ele>90.8</ele>
        <time>2022-12-08T08:16:57Z</time>
      </trkpt>
      <trkpt lat="47.90587" lon="-3.86597">
        <ele>91</ele>
        <time>2022-12-08T08:16:59Z</time>
      </trkpt>
      <trkpt lat="47.90591" lon="-3.86591">
        <ele>91.1</ele>
        <time>2022-12-08T08:17:00Z</time>
      </trkpt>
      <trkpt lat="47.90595" lon="-3.86585">
        <ele>91.3</ele>
        <time>2022-12-08T08:17:01Z</time>
      </trkpt>
      <trkpt lat="47.90598" lon="-3.86581">
        <ele>91.4</ele>
        <time>2022-12-08T08:17:02Z</time>
      </trkpt>
      <trkpt lat="47.90601" lon="-3.86577">
        <ele>91.4</ele>
        <time>2022-12-08T08:17:03Z</time>
      </trkpt>
      <trkpt lat="47.90605" lon="-3.86571">
        <ele>91.5</ele>
        <time>2022-12-08T08:17:04Z</time>
      </trkpt>
      <trkpt lat="47.90608" lon="-3.86566">
        <ele>91.6</ele>
        <time>2022-12-08T08:17:05Z</time>
      </trkpt>
      <trkpt lat="47.90611" lon="-3.8656">
        <ele>91.6</ele>
        <time>2022-12-08T08:17:06Z</time>
      </trkpt>
      <trkpt lat="47.90614" lon="-3.86555">
        <ele>91.6</ele>
        <time>2022-12-08T08:17:07Z</time>
      </trkpt>
      <trkpt lat="47.90616" lon="-3.86549">
        <ele>91.6</ele>
        <time>2022-12-08T08:17:08Z</time>
      </trkpt>
      <trkpt lat="47.90618" lon="-3.86543">
        <ele>91.6</ele>
        <time>2022-12-08T08:17:09Z</time>
      </trkpt>
      <trkpt lat="47.90621" lon="-3.86536">
        <ele>91.6</ele>
        <time>2022-12-08T08:17:10Z</time>
      </trkpt>
      <trkpt lat="47.90623" lon="-3.86529">
        <ele>91.6</ele>
        <time>2022-12-08T08:17:11Z</time>
      </trkpt>
      <trkpt lat="47.90625" lon="-3.86522">
        <ele>91.5</ele>
        <time>2022-12-08T08:17:12Z</time>
      </trkpt>
      <trkpt lat="47.90627" lon="-3.86515">
        <ele>91.5</ele>
        <time>2022-12-08T08:17:13Z</time>
      </trkpt>
      <trkpt lat="47.90629" lon="-3.86508">
        <ele>91.4</ele>
        <time>2022-12-08T08:17:14Z</time>
      </trkpt>
      <trkpt lat="47.90631" lon="-3.865">
        <ele>91.4</ele>
        <time>2022-12-08T08:17:15Z</time>
      </trkpt>
      <trkpt lat="47.90632" lon="-3.86493">
        <ele>91.3</ele>
        <time>2022-12-08T08:17:16Z</time>
      </trkpt>
      <trkpt lat="47.90634" lon="-3.86485">
        <ele>91.3</ele>
        <time>2022-12-08T08:17:17Z</time>
      </trkpt>
      <trkpt lat="47.90635" lon="-3.86477">
        <ele>91.2</ele>
        <time>2022-12-08T08:17:18Z</time>
      </trkpt>
      <trkpt lat="47.90636" lon="-3.86469">
        <ele>91.2</ele>
        <time>2022-12-08T08:17:19Z</time>
      </trkpt>
      <trkpt lat="47.90638" lon="-3.86461">
        <ele>91.2</ele>
        <time>2022-12-08T08:17:20Z</time>
      </trkpt>
      <trkpt lat="47.90639" lon="-3.86453">
        <ele>91.2</ele>
        <time>2022-12-08T08:17:21Z</time>
      </trkpt>
      <trkpt lat="47.9064" lon="-3.86445">
        <ele>91.1</ele>
        <time>2022-12-08T08:17:22Z</time>
      </trkpt>
      <trkpt lat="47.90641" lon="-3.86438">
        <ele>91.1</ele>
        <time>2022-12-08T08:17:23Z</time>
      </trkpt>
      <trkpt lat="47.90643" lon="-3.8643">
        <ele>91.1</ele>
        <time>2022-12-08T08:17:24Z</time>
      </trkpt>
      <trkpt lat="47.90644" lon="-3.86423">
        <ele>91.1</ele>
        <time>2022-12-08T08:17:25Z</time>
      </trkpt>
      <trkpt lat="47.90645" lon="-3.86416">
        <ele>91.1</ele>
        <time>2022-12-08T08:17:26Z</time>
      </trkpt>
      <trkpt lat="47.90647" lon="-3.86408">
        <ele>91.1</ele>
        <time>2022-12-08T08:17:27Z</time>
      </trkpt>
      <trkpt lat="47.90648" lon="-3.864">
        <ele>91.2</ele>
        <time>2022-12-08T08:17:28Z</time>
      </trkpt>
      <trkpt lat="47.90649" lon="-3.86393">
        <ele>91.2</ele>
        <time>2022-12-08T08:17:29Z</time>
      </trkpt>
      <trkpt lat="47.90651" lon="-3.86385">
        <ele>91.3</ele>
        <time>2022-12-08T08:17:30Z</time>
      </trkpt>
      <trkpt lat="47.90652" lon="-3.86377">
        <ele>91.3</ele>
        <time>2022-12-08T08:17:31Z</time>
      </trkpt>
      <trkpt lat="47.90654" lon="-3.86369">
        <ele>91.4</ele>
        <time>2022-12-08T08:17:32Z</time>
      </trkpt>
      <trkpt lat="47.90655" lon="-3.86362">
        <ele>91.5</ele>
        <time>2022-12-08T08:17:33Z</time>
      </trkpt>
      <trkpt lat="47.90657" lon="-3.86354">
        <ele>91.6</ele>
        <time>2022-12-08T08:17:34Z</time>
      </trkpt>
      <trkpt lat="47.90658" lon="-3.86346">
        <ele>91.7</ele>
        <time>2022-12-08T08:17:35Z</time>
      </trkpt>
      <trkpt lat="47.90659" lon="-3.86339">
        <ele>91.8</ele>
        <time>2022-12-08T08:17:36Z</time>
      </trkpt>
      <trkpt lat="47.9066" lon="-3.86331">
        <ele>91.8</ele>
        <time>2022-12-08T08:17:37Z</time>
      </trkpt>
      <trkpt lat="47.90661" lon="-3.86324">
        <ele>91.9</ele>
        <time>2022-12-08T08:17:38Z</time>
      </trkpt>
      <trkpt lat="47.90661" lon="-3.86316">
        <ele>92</ele>
        <time>2022-12-08T08:17:39Z</time>
      </trkpt>
      <trkpt lat="47.90662" lon="-3.86309">
        <ele>92.1</ele>
        <time>2022-12-08T08:17:40Z</time>
      </trkpt>
      <trkpt lat="47.90662" lon="-3.86302">
        <ele>92.2</ele>
        <time>2022-12-08T08:17:41Z</time>
      </trkpt>
      <trkpt lat="47.90663" lon="-3.86294">
        <ele>92.2</ele>
        <time>2022-12-08T08:17:42Z</time>
      </trkpt>
      <trkpt lat="47.90663" lon="-3.86287">
        <ele>92.3</ele>
        <time>2022-12-08T08:17:43Z</time>
      </trkpt>
      <trkpt lat="47.90664" lon="-3.8628">
        <ele>92.4</ele>
        <time>2022-12-08T08:17:44Z</time>
      </trkpt>
      <trkpt lat="47.90665" lon="-3.86272">
        <ele>92.5</ele>
        <time>2022-12-08T08:17:45Z</time>
      </trkpt>
      <trkpt lat="47.90665" lon="-3.86265">
        <ele>92.6</ele>
        <time>2022-12-08T08:17:46Z</time>
      </trkpt>
      <trkpt lat="47.90665" lon="-3.86258">
        <ele>92.7</ele>
        <time>2022-12-08T08:17:47Z</time>
      </trkpt>
      <trkpt lat="47.90666" lon="-3.8625">
        <ele>92.8</ele>
        <time>2022-12-08T08:17:48Z</time>
      </trkpt>
      <trkpt lat="47.90666" lon="-3.86243">
        <ele>92.9</ele>
        <time>2022-12-08T08:17:49Z</time>
      </trkpt>
      <trkpt lat="47.90667" lon="-3.86236">
        <ele>93</ele>
        <time>2022-12-08T08:17:50Z</time>
      </trkpt>
      <trkpt lat="47.90667" lon="-3.86228">
        <ele>93.1</ele>
        <time>2022-12-08T08:17:51Z</time>
      </trkpt>
      <trkpt lat="47.90667" lon="-3.86221">
        <ele>93.3</ele>
        <time>2022-12-08T08:17:52Z</time>
      </trkpt>
      <trkpt lat="47.90667" lon="-3.86214">
        <ele>93.4</ele>
        <time>2022-12-08T08:17:53Z</time>
      </trkpt>
      <trkpt lat="47.90668" lon="-3.86207">
        <ele>93.5</ele>
        <time>2022-12-08T08:17:54Z</time>
      </trkpt>
      <trkpt lat="47.90668" lon="-3.862">
        <ele>93.6</ele>
        <time>2022-12-08T08:17:55Z</time>
      </trkpt>
      <trkpt lat="47.90668" lon="-3.86193">
        <ele>93.6</ele>
        <time>2022-12-08T08:17:56Z</time>
      </trkpt>
      <trkpt lat="47.90668" lon="-3.86186">
        <ele>93.7</ele>
        <time>2022-12-08T08:17:57Z</time>
      </trkpt>
      <trkpt lat="47.90668" lon="-3.86179">
        <ele>93.8</ele>
        <time>2022-12-08T08:17:58Z</time>
      </trkpt>
      <trkpt lat="47.90667" lon="-3.86171">
        <ele>93.9</ele>
        <time>2022-12-08T08:17:59Z</time>
      </trkpt>
      <trkpt lat="47.90667" lon="-3.86164">
        <ele>94.1</ele>
        <time>2022-12-08T08:18:00Z</time>
      </trkpt>
      <trkpt lat="47.90667" lon="-3.86157">
        <ele>94.2</ele>
        <time>2022-12-08T08:18:01Z</time>
      </trkpt>
      <trkpt lat="47.90666" lon="-3.8615">
        <ele>94.4</ele>
        <time>2022-12-08T08:18:02Z</time>
      </trkpt>
      <trkpt lat="47.90666" lon="-3.86143">
        <ele>94.6</ele>
        <time>2022-12-08T08:18:03Z</time>
      </trkpt>
      <trkpt lat="47.90666" lon="-3.86136">
        <ele>94.7</ele>
        <time>2022-12-08T08:18:04Z</time>
      </trkpt>
      <trkpt lat="47.90666" lon="-3.8613">
        <ele>94.8</ele>
        <time>2022-12-08T08:18:05Z</time>
      </trkpt>
      <trkpt lat="47.90665" lon="-3.86123">
        <ele>95</ele>
        <time>2022-12-08T08:18:06Z</time>
      </trkpt>
      <trkpt lat="47.90665" lon="-3.86116">
        <ele>95.1</ele>
        <time>2022-12-08T08:18:07Z</time>
      </trkpt>
      <trkpt lat="47.90665" lon="-3.86111">
        <ele>95.2</ele>
        <time>2022-12-08T08:18:08Z</time>
      </trkpt>
      <trkpt lat="47.90665" lon="-3.86104">
        <ele>95.3</ele>
        <time>2022-12-08T08:18:09Z</time>
      </trkpt>
      <trkpt lat="47.90665" lon="-3.86098">
        <ele>95.5</ele>
        <time>2022-12-08T08:18:10Z</time>
      </trkpt>
      <trkpt lat="47.90664" lon="-3.86091">
        <ele>95.6</ele>
        <time>2022-12-08T08:18:11Z</time>
      </trkpt>
      <trkpt lat="47.90664" lon="-3.86086">
        <ele>95.7</ele>
        <time>2022-12-08T08:18:12Z</time>
      </trkpt>
      <trkpt lat="47.90665" lon="-3.86078">
        <ele>95.8</ele>
        <time>2022-12-08T08:18:13Z</time>
      </trkpt>
      <trkpt lat="47.90665" lon="-3.86072">
        <ele>95.9</ele>
        <time>2022-12-08T08:18:14Z</time>
      </trkpt>
      <trkpt lat="47.90663" lon="-3.86067">
        <ele>96</ele>
        <time>2022-12-08T08:18:15Z</time>
      </trkpt>
      <trkpt lat="47.90663" lon="-3.86065">
        <ele>96</ele>
        <time>2022-12-08T08:18:16Z</time>
      </trkpt>
      <trkpt lat="47.90665" lon="-3.86047">
        <ele>96.3</ele>
        <time>2022-12-08T08:18:18Z</time>
      </trkpt>
      <trkpt lat="47.90666" lon="-3.86039">
        <ele>96.4</ele>
        <time>2022-12-08T08:18:19Z</time>
      </trkpt>
      <trkpt lat="47.90667" lon="-3.86032">
        <ele>96.5</ele>
        <time>2022-12-08T08:18:20Z</time>
      </trkpt>
      <trkpt lat="47.90667" lon="-3.86026">
        <ele>96.6</ele>
        <time>2022-12-08T08:18:21Z</time>
      </trkpt>
      <trkpt lat="47.90667" lon="-3.8602">
        <ele>96.7</ele>
        <time>2022-12-08T08:18:22Z</time>
      </trkpt>
      <trkpt lat="47.90667" lon="-3.86012">
        <ele>96.8</ele>
        <time>2022-12-08T08:18:23Z</time>
      </trkpt>
      <trkpt lat="47.90668" lon="-3.86005">
        <ele>96.8</ele>
        <time>2022-12-08T08:18:24Z</time>
      </trkpt>
      <trkpt lat="47.90668" lon="-3.85997">
        <ele>96.8</ele>
        <time>2022-12-08T08:18:25Z</time>
      </trkpt>
      <trkpt lat="47.90668" lon="-3.8599">
        <ele>96.9</ele>
        <time>2022-12-08T08:18:26Z</time>
      </trkpt>
      <trkpt lat="47.90668" lon="-3.85983">
        <ele>96.9</ele>
        <time>2022-12-08T08:18:27Z</time>
      </trkpt>
      <trkpt lat="47.90669" lon="-3.85976">
        <ele>96.9</ele>
        <time>2022-12-08T08:18:28Z</time>
      </trkpt>
      <trkpt lat="47.9067" lon="-3.8597">
        <ele>96.9</ele>
        <time>2022-12-08T08:18:29Z</time>
      </trkpt>
      <trkpt lat="47.9067" lon="-3.85963">
        <ele>96.9</ele>
        <time>2022-12-08T08:18:30Z</time>
      </trkpt>
      <trkpt lat="47.90671" lon="-3.85956">
        <ele>97</ele>
        <time>2022-12-08T08:18:31Z</time>
      </trkpt>
      <trkpt lat="47.90671" lon="-3.8595">
        <ele>97</ele>
        <time>2022-12-08T08:18:32Z</time>
      </trkpt>
      <trkpt lat="47.90672" lon="-3.85943">
        <ele>97</ele>
        <time>2022-12-08T08:18:33Z</time>
      </trkpt>
      <trkpt lat="47.90673" lon="-3.85935">
        <ele>97</ele>
        <time>2022-12-08T08:18:34Z</time>
      </trkpt>
      <trkpt lat="47.90674" lon="-3.85928">
        <ele>97</ele>
        <time>2022-12-08T08:18:35Z</time>
      </trkpt>
      <trkpt lat="47.90675" lon="-3.8592">
        <ele>96.9</ele>
        <time>2022-12-08T08:18:36Z</time>
      </trkpt>
      <trkpt lat="47.90676" lon="-3.85913">
        <ele>96.9</ele>
        <time>2022-12-08T08:18:37Z</time>
      </trkpt>
      <trkpt lat="47.90677" lon="-3.85906">
        <ele>96.9</ele>
        <time>2022-12-08T08:18:38Z</time>
      </trkpt>
      <trkpt lat="47.90678" lon="-3.85899">
        <ele>96.9</ele>
        <time>2022-12-08T08:18:39Z</time>
      </trkpt>
      <trkpt lat="47.90679" lon="-3.85892">
        <ele>96.8</ele>
        <time>2022-12-08T08:18:40Z</time>
      </trkpt>
      <trkpt lat="47.9068" lon="-3.85885">
        <ele>96.8</ele>
        <time>2022-12-08T08:18:41Z</time>
      </trkpt>
      <trkpt lat="47.90681" lon="-3.85878">
        <ele>96.8</ele>
        <time>2022-12-08T08:18:42Z</time>
      </trkpt>
      <trkpt lat="47.90682" lon="-3.8587">
        <ele>96.8</ele>
        <time>2022-12-08T08:18:43Z</time>
      </trkpt>
      <trkpt lat="47.90683" lon="-3.85863">
        <ele>96.7</ele>
        <time>2022-12-08T08:18:44Z</time>
      </trkpt>
      <trkpt lat="47.90684" lon="-3.85856">
        <ele>96.7</ele>
        <time>2022-12-08T08:18:45Z</time>
      </trkpt>
      <trkpt lat="47.90685" lon="-3.85848">
        <ele>96.6</ele>
        <time>2022-12-08T08:18:46Z</time>
      </trkpt>
      <trkpt lat="47.90686" lon="-3.8584">
        <ele>96.6</ele>
        <time>2022-12-08T08:18:47Z</time>
      </trkpt>
      <trkpt lat="47.90687" lon="-3.85833">
        <ele>96.5</ele>
        <time>2022-12-08T08:18:48Z</time>
      </trkpt>
      <trkpt lat="47.90688" lon="-3.85826">
        <ele>96.5</ele>
        <time>2022-12-08T08:18:49Z</time>
      </trkpt>
      <trkpt lat="47.90689" lon="-3.85819">
        <ele>96.5</ele>
        <time>2022-12-08T08:18:50Z</time>
      </trkpt>
      <trkpt lat="47.9069" lon="-3.85812">
        <ele>96.4</ele>
        <time>2022-12-08T08:18:51Z</time>
      </trkpt>
      <trkpt lat="47.90691" lon="-3.85805">
        <ele>96.4</ele>
        <time>2022-12-08T08:18:52Z</time>
      </trkpt>
      <trkpt lat="47.90692" lon="-3.85797">
        <ele>96.3</ele>
        <time>2022-12-08T08:18:53Z</time>
      </trkpt>
      <trkpt lat="47.90693" lon="-3.8579">
        <ele>96.2</ele>
        <time>2022-12-08T08:18:54Z</time>
      </trkpt>
      <trkpt lat="47.90694" lon="-3.85782">
        <ele>96.2</ele>
        <time>2022-12-08T08:18:55Z</time>
      </trkpt>
      <trkpt lat="47.90694" lon="-3.85775">
        <ele>96.1</ele>
        <time>2022-12-08T08:18:56Z</time>
      </trkpt>
      <trkpt lat="47.90695" lon="-3.85767">
        <ele>96</ele>
        <time>2022-12-08T08:18:57Z</time>
      </trkpt>
      <trkpt lat="47.90696" lon="-3.85759">
        <ele>95.9</ele>
        <time>2022-12-08T08:18:58Z</time>
      </trkpt>
      <trkpt lat="47.90697" lon="-3.85751">
        <ele>95.8</ele>
        <time>2022-12-08T08:18:59Z</time>
      </trkpt>
      <trkpt lat="47.90698" lon="-3.85743">
        <ele>95.7</ele>
        <time>2022-12-08T08:19:00Z</time>
      </trkpt>
      <trkpt lat="47.90698" lon="-3.85736">
        <ele>95.6</ele>
        <time>2022-12-08T08:19:01Z</time>
      </trkpt>
      <trkpt lat="47.90698" lon="-3.85728">
        <ele>95.6</ele>
        <time>2022-12-08T08:19:02Z</time>
      </trkpt>
      <trkpt lat="47.90698" lon="-3.8572">
        <ele>95.6</ele>
        <time>2022-12-08T08:19:03Z</time>
      </trkpt>
      <trkpt lat="47.90699" lon="-3.85712">
        <ele>95.5</ele>
        <time>2022-12-08T08:19:04Z</time>
      </trkpt>
      <trkpt lat="47.90698" lon="-3.85704">
        <ele>95.5</ele>
        <time>2022-12-08T08:19:05Z</time>
      </trkpt>
      <trkpt lat="47.90698" lon="-3.85697">
        <ele>95.5</ele>
        <time>2022-12-08T08:19:06Z</time>
      </trkpt>
      <trkpt lat="47.90698" lon="-3.85689">
        <ele>95.4</ele>
        <time>2022-12-08T08:19:07Z</time>
      </trkpt>
      <trkpt lat="47.90697" lon="-3.85682">
        <ele>95.4</ele>
        <time>2022-12-08T08:19:08Z</time>
      </trkpt>
      <trkpt lat="47.90696" lon="-3.85674">
        <ele>95.4</ele>
        <time>2022-12-08T08:19:09Z</time>
      </trkpt>
      <trkpt lat="47.90696" lon="-3.85667">
        <ele>95.5</ele>
        <time>2022-12-08T08:19:10Z</time>
      </trkpt>
      <trkpt lat="47.90695" lon="-3.85659">
        <ele>95.5</ele>
        <time>2022-12-08T08:19:11Z</time>
      </trkpt>
      <trkpt lat="47.90694" lon="-3.85652">
        <ele>95.5</ele>
        <time>2022-12-08T08:19:12Z</time>
      </trkpt>
      <trkpt lat="47.90693" lon="-3.85645">
        <ele>95.5</ele>
        <time>2022-12-08T08:19:13Z</time>
      </trkpt>
      <trkpt lat="47.90692" lon="-3.85638">
        <ele>95.5</ele>
        <time>2022-12-08T08:19:14Z</time>
      </trkpt>
      <trkpt lat="47.90691" lon="-3.8563">
        <ele>95.5</ele>
        <time>2022-12-08T08:19:15Z</time>
      </trkpt>
      <trkpt lat="47.9069" lon="-3.85623">
        <ele>95.5</ele>
        <time>2022-12-08T08:19:16Z</time>
      </trkpt>
      <trkpt lat="47.90689" lon="-3.85615">
        <ele>95.5</ele>
        <time>2022-12-08T08:19:17Z</time>
      </trkpt>
      <trkpt lat="47.90688" lon="-3.85608">
        <ele>95.5</ele>
        <time>2022-12-08T08:19:18Z</time>
      </trkpt>
      <trkpt lat="47.90688" lon="-3.85601">
        <ele>95.5</ele>
        <time>2022-12-08T08:19:19Z</time>
      </trkpt>
      <trkpt lat="47.90687" lon="-3.85593">
        <ele>95.5</ele>
        <time>2022-12-08T08:19:20Z</time>
      </trkpt>
      <trkpt lat="47.90686" lon="-3.85586">
        <ele>95.5</ele>
        <time>2022-12-08T08:19:21Z</time>
      </trkpt>
      <trkpt lat="47.90686" lon="-3.85578">
        <ele>95.5</ele>
        <time>2022-12-08T08:19:22Z</time>
      </trkpt>
      <trkpt lat="47.90686" lon="-3.8557">
        <ele>95.4</ele>
        <time>2022-12-08T08:19:23Z</time>
      </trkpt>
      <trkpt lat="47.90687" lon="-3.85562">
        <ele>95.3</ele>
        <time>2022-12-08T08:19:24Z</time>
      </trkpt>
      <trkpt lat="47.90689" lon="-3.85554">
        <ele>95.1</ele>
        <time>2022-12-08T08:19:25Z</time>
      </trkpt>
      <trkpt lat="47.90691" lon="-3.85546">
        <ele>94.9</ele>
        <time>2022-12-08T08:19:26Z</time>
      </trkpt>
      <trkpt lat="47.90691" lon="-3.85537">
        <ele>94.9</ele>
        <time>2022-12-08T08:19:27Z</time>
      </trkpt>
      <trkpt lat="47.90689" lon="-3.85528">
        <ele>94.9</ele>
        <time>2022-12-08T08:19:28Z</time>
      </trkpt>
      <trkpt lat="47.90686" lon="-3.8552">
        <ele>95</ele>
        <time>2022-12-08T08:19:29Z</time>
      </trkpt>
      <trkpt lat="47.90683" lon="-3.85511">
        <ele>95</ele>
        <time>2022-12-08T08:19:30Z</time>
      </trkpt>
      <trkpt lat="47.9068" lon="-3.85502">
        <ele>94.9</ele>
        <time>2022-12-08T08:19:31Z</time>
      </trkpt>
      <trkpt lat="47.90678" lon="-3.85492">
        <ele>94.8</ele>
        <time>2022-12-08T08:19:32Z</time>
      </trkpt>
      <trkpt lat="47.90676" lon="-3.85483">
        <ele>94.7</ele>
        <time>2022-12-08T08:19:33Z</time>
      </trkpt>
      <trkpt lat="47.90673" lon="-3.85474">
        <ele>94.7</ele>
        <time>2022-12-08T08:19:34Z</time>
      </trkpt>
      <trkpt lat="47.90671" lon="-3.85464">
        <ele>94.6</ele>
        <time>2022-12-08T08:19:35Z</time>
      </trkpt>
      <trkpt lat="47.90669" lon="-3.85454">
        <ele>94.5</ele>
        <time>2022-12-08T08:19:36Z</time>
      </trkpt>
      <trkpt lat="47.90666" lon="-3.85445">
        <ele>94.4</ele>
        <time>2022-12-08T08:19:37Z</time>
      </trkpt>
      <trkpt lat="47.90664" lon="-3.85435">
        <ele>94.3</ele>
        <time>2022-12-08T08:19:38Z</time>
      </trkpt>
      <trkpt lat="47.90661" lon="-3.85425">
        <ele>94.3</ele>
        <time>2022-12-08T08:19:39Z</time>
      </trkpt>
      <trkpt lat="47.90658" lon="-3.85415">
        <ele>94.1</ele>
        <time>2022-12-08T08:19:40Z</time>
      </trkpt>
      <trkpt lat="47.90656" lon="-3.85405">
        <ele>94</ele>
        <time>2022-12-08T08:19:41Z</time>
      </trkpt>
      <trkpt lat="47.90654" lon="-3.85396">
        <ele>93.9</ele>
        <time>2022-12-08T08:19:42Z</time>
      </trkpt>
      <trkpt lat="47.90652" lon="-3.85386">
        <ele>93.7</ele>
        <time>2022-12-08T08:19:43Z</time>
      </trkpt>
      <trkpt lat="47.9065" lon="-3.85377">
        <ele>93.6</ele>
        <time>2022-12-08T08:19:44Z</time>
      </trkpt>
      <trkpt lat="47.90647" lon="-3.85368">
        <ele>93.6</ele>
        <time>2022-12-08T08:19:45Z</time>
      </trkpt>
      <trkpt lat="47.90644" lon="-3.8536">
        <ele>93.5</ele>
        <time>2022-12-08T08:19:46Z</time>
      </trkpt>
      <trkpt lat="47.90641" lon="-3.85352">
        <ele>93.4</ele>
        <time>2022-12-08T08:19:47Z</time>
      </trkpt>
      <trkpt lat="47.90638" lon="-3.85344">
        <ele>93.4</ele>
        <time>2022-12-08T08:19:48Z</time>
      </trkpt>
      <trkpt lat="47.90635" lon="-3.85337">
        <ele>93.4</ele>
        <time>2022-12-08T08:19:49Z</time>
      </trkpt>
      <trkpt lat="47.90632" lon="-3.85329">
        <ele>93.4</ele>
        <time>2022-12-08T08:19:50Z</time>
      </trkpt>
      <trkpt lat="47.90628" lon="-3.85322">
        <ele>93.4</ele>
        <time>2022-12-08T08:19:51Z</time>
      </trkpt>
      <trkpt lat="47.90625" lon="-3.85315">
        <ele>93.4</ele>
        <time>2022-12-08T08:19:52Z</time>
      </trkpt>
      <trkpt lat="47.90622" lon="-3.85308">
        <ele>93.5</ele>
        <time>2022-12-08T08:19:53Z</time>
      </trkpt>
      <trkpt lat="47.90618" lon="-3.85301">
        <ele>93.6</ele>
        <time>2022-12-08T08:19:54Z</time>
      </trkpt>
      <trkpt lat="47.90614" lon="-3.85294">
        <ele>93.7</ele>
        <time>2022-12-08T08:19:55Z</time>
      </trkpt>
      <trkpt lat="47.90611" lon="-3.85287">
        <ele>93.8</ele>
        <time>2022-12-08T08:19:56Z</time>
      </trkpt>
      <trkpt lat="47.90607" lon="-3.8528">
        <ele>93.9</ele>
        <time>2022-12-08T08:19:57Z</time>
      </trkpt>
      <trkpt lat="47.90604" lon="-3.85273">
        <ele>93.9</ele>
        <time>2022-12-08T08:19:58Z</time>
      </trkpt>
      <trkpt lat="47.90601" lon="-3.85266">
        <ele>94</ele>
        <time>2022-12-08T08:19:59Z</time>
      </trkpt>
      <trkpt lat="47.90597" lon="-3.8526">
        <ele>94.1</ele>
        <time>2022-12-08T08:20:00Z</time>
      </trkpt>
      <trkpt lat="47.90594" lon="-3.85253">
        <ele>94.2</ele>
        <time>2022-12-08T08:20:01Z</time>
      </trkpt>
      <trkpt lat="47.90591" lon="-3.85246">
        <ele>94.4</ele>
        <time>2022-12-08T08:20:02Z</time>
      </trkpt>
      <trkpt lat="47.90587" lon="-3.8524">
        <ele>94.5</ele>
        <time>2022-12-08T08:20:03Z</time>
      </trkpt>
      <trkpt lat="47.90584" lon="-3.85233">
        <ele>94.7</ele>
        <time>2022-12-08T08:20:04Z</time>
      </trkpt>
      <trkpt lat="47.90581" lon="-3.85226">
        <ele>94.8</ele>
        <time>2022-12-08T08:20:05Z</time>
      </trkpt>
      <trkpt lat="47.90578" lon="-3.8522">
        <ele>94.9</ele>
        <time>2022-12-08T08:20:06Z</time>
      </trkpt>
      <trkpt lat="47.90575" lon="-3.85213">
        <ele>95.1</ele>
        <time>2022-12-08T08:20:07Z</time>
      </trkpt>
      <trkpt lat="47.90572" lon="-3.85207">
        <ele>95.2</ele>
        <time>2022-12-08T08:20:08Z</time>
      </trkpt>
      <trkpt lat="47.90569" lon="-3.852">
        <ele>95.3</ele>
        <time>2022-12-08T08:20:09Z</time>
      </trkpt>
      <trkpt lat="47.90566" lon="-3.85193">
        <ele>95.5</ele>
        <time>2022-12-08T08:20:10Z</time>
      </trkpt>
      <trkpt lat="47.90564" lon="-3.85186">
        <ele>95.6</ele>
        <time>2022-12-08T08:20:11Z</time>
      </trkpt>
      <trkpt lat="47.90561" lon="-3.85179">
        <ele>95.7</ele>
        <time>2022-12-08T08:20:12Z</time>
      </trkpt>
      <trkpt lat="47.90559" lon="-3.85171">
        <ele>95.9</ele>
        <time>2022-12-08T08:20:13Z</time>
      </trkpt>
      <trkpt lat="47.90556" lon="-3.85164">
        <ele>96</ele>
        <time>2022-12-08T08:20:14Z</time>
      </trkpt>
      <trkpt lat="47.90554" lon="-3.85157">
        <ele>96.1</ele>
        <time>2022-12-08T08:20:15Z</time>
      </trkpt>
      <trkpt lat="47.90552" lon="-3.8515">
        <ele>96.2</ele>
        <time>2022-12-08T08:20:16Z</time>
      </trkpt>
      <trkpt lat="47.9055" lon="-3.85143">
        <ele>96.3</ele>
        <time>2022-12-08T08:20:17Z</time>
      </trkpt>
      <trkpt lat="47.90548" lon="-3.85136">
        <ele>96.4</ele>
        <time>2022-12-08T08:20:18Z</time>
      </trkpt>
      <trkpt lat="47.90547" lon="-3.85128">
        <ele>96.5</ele>
        <time>2022-12-08T08:20:19Z</time>
      </trkpt>
      <trkpt lat="47.90546" lon="-3.85121">
        <ele>96.6</ele>
        <time>2022-12-08T08:20:20Z</time>
      </trkpt>
      <trkpt lat="47.90544" lon="-3.85113">
        <ele>96.7</ele>
        <time>2022-12-08T08:20:21Z</time>
      </trkpt>
      <trkpt lat="47.90543" lon="-3.85105">
        <ele>96.8</ele>
        <time>2022-12-08T08:20:22Z</time>
      </trkpt>
      <trkpt lat="47.90543" lon="-3.85098">
        <ele>96.9</ele>
        <time>2022-12-08T08:20:23Z</time>
      </trkpt>
      <trkpt lat="47.90542" lon="-3.8509">
        <ele>97</ele>
        <time>2022-12-08T08:20:24Z</time>
      </trkpt>
      <trkpt lat="47.90542" lon="-3.85082">
        <ele>97.1</ele>
        <time>2022-12-08T08:20:25Z</time>
      </trkpt>
      <trkpt lat="47.90541" lon="-3.85075">
        <ele>97.2</ele>
        <time>2022-12-08T08:20:26Z</time>
      </trkpt>
      <trkpt lat="47.9054" lon="-3.85067">
        <ele>97.3</ele>
        <time>2022-12-08T08:20:27Z</time>
      </trkpt>
      <trkpt lat="47.9054" lon="-3.85059">
        <ele>97.4</ele>
        <time>2022-12-08T08:20:28Z</time>
      </trkpt>
      <trkpt lat="47.9054" lon="-3.85051">
        <ele>97.5</ele>
        <time>2022-12-08T08:20:29Z</time>
      </trkpt>
      <trkpt lat="47.9054" lon="-3.85043">
        <ele>97.6</ele>
        <time>2022-12-08T08:20:30Z</time>
      </trkpt>
      <trkpt lat="47.9054" lon="-3.85035">
        <ele>97.8</ele>
        <time>2022-12-08T08:20:31Z</time>
      </trkpt>
      <trkpt lat="47.9054" lon="-3.85027">
        <ele>97.9</ele>
        <time>2022-12-08T08:20:32Z</time>
      </trkpt>
      <trkpt lat="47.90541" lon="-3.85019">
        <ele>98</ele>
        <time>2022-12-08T08:20:33Z</time>
      </trkpt>
      <trkpt lat="47.90542" lon="-3.85011">
        <ele>98.1</ele>
        <time>2022-12-08T08:20:34Z</time>
      </trkpt>
      <trkpt lat="47.90542" lon="-3.85004">
        <ele>98.2</ele>
        <time>2022-12-08T08:20:35Z</time>
      </trkpt>
      <trkpt lat="47.90543" lon="-3.84997">
        <ele>98.2</ele>
        <time>2022-12-08T08:20:36Z</time>
      </trkpt>
      <trkpt lat="47.90544" lon="-3.8499">
        <ele>98.3</ele>
        <time>2022-12-08T08:20:37Z</time>
      </trkpt>
      <trkpt lat="47.90545" lon="-3.84983">
        <ele>98.4</ele>
        <time>2022-12-08T08:20:38Z</time>
      </trkpt>
      <trkpt lat="47.90546" lon="-3.84975">
        <ele>98.4</ele>
        <time>2022-12-08T08:20:39Z</time>
      </trkpt>
      <trkpt lat="47.90548" lon="-3.84968">
        <ele>98.5</ele>
        <time>2022-12-08T08:20:40Z</time>
      </trkpt>
      <trkpt lat="47.90549" lon="-3.84961">
        <ele>98.5</ele>
        <time>2022-12-08T08:20:41Z</time>
      </trkpt>
      <trkpt lat="47.90551" lon="-3.84954">
        <ele>98.6</ele>
        <time>2022-12-08T08:20:42Z</time>
      </trkpt>
      <trkpt lat="47.90553" lon="-3.84946">
        <ele>98.6</ele>
        <time>2022-12-08T08:20:43Z</time>
      </trkpt>
      <trkpt lat="47.90555" lon="-3.84939">
        <ele>98.6</ele>
        <time>2022-12-08T08:20:44Z</time>
      </trkpt>
      <trkpt lat="47.90557" lon="-3.84932">
        <ele>98.6</ele>
        <time>2022-12-08T08:20:45Z</time>
      </trkpt>
      <trkpt lat="47.90559" lon="-3.84925">
        <ele>98.7</ele>
        <time>2022-12-08T08:20:46Z</time>
      </trkpt>
      <trkpt lat="47.90562" lon="-3.84917">
        <ele>98.7</ele>
        <time>2022-12-08T08:20:47Z</time>
      </trkpt>
      <trkpt lat="47.90564" lon="-3.8491">
        <ele>98.7</ele>
        <time>2022-12-08T08:20:48Z</time>
      </trkpt>
      <trkpt lat="47.90566" lon="-3.84902">
        <ele>98.7</ele>
        <time>2022-12-08T08:20:49Z</time>
      </trkpt>
      <trkpt lat="47.90569" lon="-3.84894">
        <ele>98.7</ele>
        <time>2022-12-08T08:20:50Z</time>
      </trkpt>
      <trkpt lat="47.90571" lon="-3.84887">
        <ele>98.7</ele>
        <time>2022-12-08T08:20:51Z</time>
      </trkpt>
      <trkpt lat="47.90573" lon="-3.84879">
        <ele>98.7</ele>
        <time>2022-12-08T08:20:52Z</time>
      </trkpt>
      <trkpt lat="47.90576" lon="-3.84872">
        <ele>98.6</ele>
        <time>2022-12-08T08:20:53Z</time>
      </trkpt>
      <trkpt lat="47.90578" lon="-3.84864">
        <ele>98.5</ele>
        <time>2022-12-08T08:20:54Z</time>
      </trkpt>
      <trkpt lat="47.90581" lon="-3.84856">
        <ele>98.5</ele>
        <time>2022-12-08T08:20:55Z</time>
      </trkpt>
      <trkpt lat="47.90584" lon="-3.84848">
        <ele>98.4</ele>
        <time>2022-12-08T08:20:56Z</time>
      </trkpt>
      <trkpt lat="47.90586" lon="-3.84841">
        <ele>98.3</ele>
        <time>2022-12-08T08:20:57Z</time>
      </trkpt>
      <trkpt lat="47.90589" lon="-3.84833">
        <ele>98.2</ele>
        <time>2022-12-08T08:20:58Z</time>
      </trkpt>
      <trkpt lat="47.90592" lon="-3.84825">
        <ele>98.1</ele>
        <time>2022-12-08T08:20:59Z</time>
      </trkpt>
      <trkpt lat="47.90595" lon="-3.84817">
        <ele>98</ele>
        <time>2022-12-08T08:21:00Z</time>
      </trkpt>
      <trkpt lat="47.90598" lon="-3.84809">
        <ele>97.9</ele>
        <time>2022-12-08T08:21:01Z</time>
      </trkpt>
      <trkpt lat="47.906" lon="-3.84801">
        <ele>97.7</ele>
        <time>2022-12-08T08:21:02Z</time>
      </trkpt>
      <trkpt lat="47.90603" lon="-3.84792">
        <ele>97.6</ele>
        <time>2022-12-08T08:21:03Z</time>
      </trkpt>
      <trkpt lat="47.90606" lon="-3.84783">
        <ele>97.4</ele>
        <time>2022-12-08T08:21:04Z</time>
      </trkpt>
      <trkpt lat="47.90608" lon="-3.84774">
        <ele>97.2</ele>
        <time>2022-12-08T08:21:05Z</time>
      </trkpt>
      <trkpt lat="47.90611" lon="-3.84765">
        <ele>97</ele>
        <time>2022-12-08T08:21:06Z</time>
      </trkpt>
      <trkpt lat="47.90614" lon="-3.84755">
        <ele>96.8</ele>
        <time>2022-12-08T08:21:07Z</time>
      </trkpt>
      <trkpt lat="47.90616" lon="-3.84746">
        <ele>96.6</ele>
        <time>2022-12-08T08:21:08Z</time>
      </trkpt>
      <trkpt lat="47.90618" lon="-3.84736">
        <ele>96.4</ele>
        <time>2022-12-08T08:21:09Z</time>
      </trkpt>
      <trkpt lat="47.9062" lon="-3.84726">
        <ele>96.1</ele>
        <time>2022-12-08T08:21:10Z</time>
      </trkpt>
      <trkpt lat="47.90622" lon="-3.84716">
        <ele>95.9</ele>
        <time>2022-12-08T08:21:11Z</time>
      </trkpt>
      <trkpt lat="47.90624" lon="-3.84706">
        <ele>95.6</ele>
        <time>2022-12-08T08:21:12Z</time>
      </trkpt>
      <trkpt lat="47.90625" lon="-3.84696">
        <ele>95.3</ele>
        <time>2022-12-08T08:21:13Z</time>
      </trkpt>
      <trkpt lat="47.90626" lon="-3.84686">
        <ele>95</ele>
        <time>2022-12-08T08:21:14Z</time>
      </trkpt>
      <trkpt lat="47.90627" lon="-3.84675">
        <ele>94.7</ele>
        <time>2022-12-08T08:21:15Z</time>
      </trkpt>
      <trkpt lat="47.90628" lon="-3.84665">
        <ele>94.4</ele>
        <time>2022-12-08T08:21:16Z</time>
      </trkpt>
      <trkpt lat="47.90628" lon="-3.84654">
        <ele>94.1</ele>
        <time>2022-12-08T08:21:17Z</time>
      </trkpt>
      <trkpt lat="47.90629" lon="-3.84643">
        <ele>93.8</ele>
        <time>2022-12-08T08:21:18Z</time>
      </trkpt>
      <trkpt lat="47.90629" lon="-3.84632">
        <ele>93.6</ele>
        <time>2022-12-08T08:21:19Z</time>
      </trkpt>
      <trkpt lat="47.90629" lon="-3.84621">
        <ele>93.3</ele>
        <time>2022-12-08T08:21:20Z</time>
      </trkpt>
      <trkpt lat="47.9063" lon="-3.8461">
        <ele>93.1</ele>
        <time>2022-12-08T08:21:21Z</time>
      </trkpt>
      <trkpt lat="47.9063" lon="-3.846">
        <ele>92.8</ele>
        <time>2022-12-08T08:21:22Z</time>
      </trkpt>
      <trkpt lat="47.90631" lon="-3.8459">
        <ele>92.6</ele>
        <time>2022-12-08T08:21:23Z</time>
      </trkpt>
      <trkpt lat="47.90632" lon="-3.8458">
        <ele>92.5</ele>
        <time>2022-12-08T08:21:24Z</time>
      </trkpt>
      <trkpt lat="47.90633" lon="-3.84569">
        <ele>92.3</ele>
        <time>2022-12-08T08:21:25Z</time>
      </trkpt>
      <trkpt lat="47.90635" lon="-3.84559">
        <ele>92.2</ele>
        <time>2022-12-08T08:21:26Z</time>
      </trkpt>
      <trkpt lat="47.90636" lon="-3.8455">
        <ele>92.1</ele>
        <time>2022-12-08T08:21:27Z</time>
      </trkpt>
      <trkpt lat="47.90637" lon="-3.8454">
        <ele>92</ele>
        <time>2022-12-08T08:21:28Z</time>
      </trkpt>
      <trkpt lat="47.90639" lon="-3.84531">
        <ele>92</ele>
        <time>2022-12-08T08:21:29Z</time>
      </trkpt>
      <trkpt lat="47.9064" lon="-3.84521">
        <ele>91.9</ele>
        <time>2022-12-08T08:21:30Z</time>
      </trkpt>
      <trkpt lat="47.90642" lon="-3.84512">
        <ele>91.9</ele>
        <time>2022-12-08T08:21:31Z</time>
      </trkpt>
      <trkpt lat="47.90644" lon="-3.84503">
        <ele>91.8</ele>
        <time>2022-12-08T08:21:32Z</time>
      </trkpt>
      <trkpt lat="47.90645" lon="-3.84494">
        <ele>91.8</ele>
        <time>2022-12-08T08:21:33Z</time>
      </trkpt>
      <trkpt lat="47.90647" lon="-3.84484">
        <ele>91.7</ele>
        <time>2022-12-08T08:21:34Z</time>
      </trkpt>
      <trkpt lat="47.90648" lon="-3.84475">
        <ele>91.7</ele>
        <time>2022-12-08T08:21:35Z</time>
      </trkpt>
      <trkpt lat="47.9065" lon="-3.84466">
        <ele>91.6</ele>
        <time>2022-12-08T08:21:36Z</time>
      </trkpt>
      <trkpt lat="47.90652" lon="-3.84456">
        <ele>91.6</ele>
        <time>2022-12-08T08:21:37Z</time>
      </trkpt>
      <trkpt lat="47.90653" lon="-3.84447">
        <ele>91.6</ele>
        <time>2022-12-08T08:21:38Z</time>
      </trkpt>
      <trkpt lat="47.90654" lon="-3.84438">
        <ele>91.6</ele>
        <time>2022-12-08T08:21:39Z</time>
      </trkpt>
      <trkpt lat="47.90656" lon="-3.84429">
        <ele>91.6</ele>
        <time>2022-12-08T08:21:40Z</time>
      </trkpt>
      <trkpt lat="47.90657" lon="-3.8442">
        <ele>91.6</ele>
        <time>2022-12-08T08:21:41Z</time>
      </trkpt>
      <trkpt lat="47.90659" lon="-3.84411">
        <ele>91.6</ele>
        <time>2022-12-08T08:21:42Z</time>
      </trkpt>
      <trkpt lat="47.9066" lon="-3.84402">
        <ele>91.6</ele>
        <time>2022-12-08T08:21:43Z</time>
      </trkpt>
      <trkpt lat="47.90661" lon="-3.84393">
        <ele>91.6</ele>
        <time>2022-12-08T08:21:44Z</time>
      </trkpt>
      <trkpt lat="47.90663" lon="-3.84384">
        <ele>91.6</ele>
        <time>2022-12-08T08:21:45Z</time>
      </trkpt>
      <trkpt lat="47.90664" lon="-3.84375">
        <ele>91.6</ele>
        <time>2022-12-08T08:21:46Z</time>
      </trkpt>
      <trkpt lat="47.90665" lon="-3.84367">
        <ele>91.7</ele>
        <time>2022-12-08T08:21:47Z</time>
      </trkpt>
      <trkpt lat="47.90666" lon="-3.84358">
        <ele>91.7</ele>
        <time>2022-12-08T08:21:48Z</time>
      </trkpt>
      <trkpt lat="47.90666" lon="-3.84349">
        <ele>91.7</ele>
        <time>2022-12-08T08:21:49Z</time>
      </trkpt>
      <trkpt lat="47.90666" lon="-3.84339">
        <ele>91.7</ele>
        <time>2022-12-08T08:21:50Z</time>
      </trkpt>
      <trkpt lat="47.90666" lon="-3.8433">
        <ele>91.7</ele>
        <time>2022-12-08T08:21:51Z</time>
      </trkpt>
      <trkpt lat="47.90666" lon="-3.84321">
        <ele>91.7</ele>
        <time>2022-12-08T08:21:52Z</time>
      </trkpt>
      <trkpt lat="47.90666" lon="-3.84312">
        <ele>91.7</ele>
        <time>2022-12-08T08:21:53Z</time>
      </trkpt>
      <trkpt lat="47.90666" lon="-3.84303">
        <ele>91.7</ele>
        <time>2022-12-08T08:21:54Z</time>
      </trkpt>
      <trkpt lat="47.90665" lon="-3.84294">
        <ele>91.7</ele>
        <time>2022-12-08T08:21:55Z</time>
      </trkpt>
      <trkpt lat="47.90664" lon="-3.84286">
        <ele>91.7</ele>
        <time>2022-12-08T08:21:56Z</time>
      </trkpt>
      <trkpt lat="47.90664" lon="-3.84277">
        <ele>91.8</ele>
        <time>2022-12-08T08:21:57Z</time>
      </trkpt>
      <trkpt lat="47.90663" lon="-3.84268">
        <ele>91.8</ele>
        <time>2022-12-08T08:21:58Z</time>
      </trkpt>
      <trkpt lat="47.90663" lon="-3.8426">
        <ele>91.8</ele>
        <time>2022-12-08T08:21:59Z</time>
      </trkpt>
      <trkpt lat="47.90662" lon="-3.84251">
        <ele>91.8</ele>
        <time>2022-12-08T08:22:00Z</time>
      </trkpt>
      <trkpt lat="47.90661" lon="-3.84243">
        <ele>91.8</ele>
        <time>2022-12-08T08:22:01Z</time>
      </trkpt>
      <trkpt lat="47.9066" lon="-3.84235">
        <ele>91.9</ele>
        <time>2022-12-08T08:22:02Z</time>
      </trkpt>
      <trkpt lat="47.9066" lon="-3.84227">
        <ele>91.9</ele>
        <time>2022-12-08T08:22:03Z</time>
      </trkpt>
      <trkpt lat="47.90659" lon="-3.84218">
        <ele>91.9</ele>
        <time>2022-12-08T08:22:04Z</time>
      </trkpt>
      <trkpt lat="47.90658" lon="-3.8421">
        <ele>92</ele>
        <time>2022-12-08T08:22:05Z</time>
      </trkpt>
      <trkpt lat="47.90658" lon="-3.84201">
        <ele>92</ele>
        <time>2022-12-08T08:22:06Z</time>
      </trkpt>
      <trkpt lat="47.90657" lon="-3.84192">
        <ele>92.1</ele>
        <time>2022-12-08T08:22:07Z</time>
      </trkpt>
      <trkpt lat="47.90656" lon="-3.84184">
        <ele>92.2</ele>
        <time>2022-12-08T08:22:08Z</time>
      </trkpt>
      <trkpt lat="47.90656" lon="-3.84176">
        <ele>92.2</ele>
        <time>2022-12-08T08:22:09Z</time>
      </trkpt>
      <trkpt lat="47.90655" lon="-3.84167">
        <ele>92.3</ele>
        <time>2022-12-08T08:22:10Z</time>
      </trkpt>
      <trkpt lat="47.90654" lon="-3.8416">
        <ele>92.4</ele>
        <time>2022-12-08T08:22:11Z</time>
      </trkpt>
      <trkpt lat="47.90653" lon="-3.84152">
        <ele>92.5</ele>
        <time>2022-12-08T08:22:12Z</time>
      </trkpt>
      <trkpt lat="47.90652" lon="-3.84144">
        <ele>92.6</ele>
        <time>2022-12-08T08:22:13Z</time>
      </trkpt>
      <trkpt lat="47.90651" lon="-3.84136">
        <ele>92.8</ele>
        <time>2022-12-08T08:22:14Z</time>
      </trkpt>
      <trkpt lat="47.90649" lon="-3.84128">
        <ele>92.9</ele>
        <time>2022-12-08T08:22:15Z</time>
      </trkpt>
      <trkpt lat="47.90647" lon="-3.8412">
        <ele>93</ele>
        <time>2022-12-08T08:22:16Z</time>
      </trkpt>
      <trkpt lat="47.90646" lon="-3.84112">
        <ele>93.2</ele>
        <time>2022-12-08T08:22:17Z</time>
      </trkpt>
      <trkpt lat="47.90645" lon="-3.84104">
        <ele>93.4</ele>
        <time>2022-12-08T08:22:18Z</time>
      </trkpt>
      <trkpt lat="47.90643" lon="-3.84096">
        <ele>93.6</ele>
        <time>2022-12-08T08:22:19Z</time>
      </trkpt>
      <trkpt lat="47.90642" lon="-3.84088">
        <ele>93.7</ele>
        <time>2022-12-08T08:22:20Z</time>
      </trkpt>
      <trkpt lat="47.9064" lon="-3.84081">
        <ele>93.9</ele>
        <time>2022-12-08T08:22:21Z</time>
      </trkpt>
      <trkpt lat="47.90639" lon="-3.84073">
        <ele>94.1</ele>
        <time>2022-12-08T08:22:22Z</time>
      </trkpt>
      <trkpt lat="47.90638" lon="-3.84066">
        <ele>94.3</ele>
        <time>2022-12-08T08:22:23Z</time>
      </trkpt>
      <trkpt lat="47.90637" lon="-3.84058">
        <ele>94.4</ele>
        <time>2022-12-08T08:22:24Z</time>
      </trkpt>
      <trkpt lat="47.90635" lon="-3.84051">
        <ele>94.6</ele>
        <time>2022-12-08T08:22:25Z</time>
      </trkpt>
      <trkpt lat="47.90634" lon="-3.84044">
        <ele>94.8</ele>
        <time>2022-12-08T08:22:26Z</time>
      </trkpt>
      <trkpt lat="47.90632" lon="-3.84037">
        <ele>95</ele>
        <time>2022-12-08T08:22:27Z</time>
      </trkpt>
      <trkpt lat="47.90631" lon="-3.8403">
        <ele>95.2</ele>
        <time>2022-12-08T08:22:28Z</time>
      </trkpt>
      <trkpt lat="47.9063" lon="-3.84023">
        <ele>95.4</ele>
        <time>2022-12-08T08:22:29Z</time>
      </trkpt>
      <trkpt lat="47.90629" lon="-3.84016">
        <ele>95.6</ele>
        <time>2022-12-08T08:22:30Z</time>
      </trkpt>
      <trkpt lat="47.90628" lon="-3.84009">
        <ele>95.8</ele>
        <time>2022-12-08T08:22:31Z</time>
      </trkpt>
      <trkpt lat="47.90627" lon="-3.84002">
        <ele>95.9</ele>
        <time>2022-12-08T08:22:32Z</time>
      </trkpt>
      <trkpt lat="47.90626" lon="-3.83995">
        <ele>96.1</ele>
        <time>2022-12-08T08:22:33Z</time>
      </trkpt>
      <trkpt lat="47.90626" lon="-3.83988">
        <ele>96.3</ele>
        <time>2022-12-08T08:22:34Z</time>
      </trkpt>
      <trkpt lat="47.90626" lon="-3.83981">
        <ele>96.5</ele>
        <time>2022-12-08T08:22:35Z</time>
      </trkpt>
      <trkpt lat="47.90625" lon="-3.83974">
        <ele>96.7</ele>
        <time>2022-12-08T08:22:36Z</time>
      </trkpt>
      <trkpt lat="47.90624" lon="-3.83966">
        <ele>96.8</ele>
        <time>2022-12-08T08:22:37Z</time>
      </trkpt>
      <trkpt lat="47.90624" lon="-3.83959">
        <ele>97</ele>
        <time>2022-12-08T08:22:38Z</time>
      </trkpt>
      <trkpt lat="47.90624" lon="-3.83952">
        <ele>97.1</ele>
        <time>2022-12-08T08:22:39Z</time>
      </trkpt>
      <trkpt lat="47.90624" lon="-3.83944">
        <ele>97.2</ele>
        <time>2022-12-08T08:22:40Z</time>
      </trkpt>
      <trkpt lat="47.90624" lon="-3.83937">
        <ele>97.3</ele>
        <time>2022-12-08T08:22:41Z</time>
      </trkpt>
      <trkpt lat="47.90624" lon="-3.8393">
        <ele>97.4</ele>
        <time>2022-12-08T08:22:42Z</time>
      </trkpt>
      <trkpt lat="47.90625" lon="-3.83922">
        <ele>97.4</ele>
        <time>2022-12-08T08:22:43Z</time>
      </trkpt>
      <trkpt lat="47.90625" lon="-3.83914">
        <ele>97.5</ele>
        <time>2022-12-08T08:22:44Z</time>
      </trkpt>
      <trkpt lat="47.90626" lon="-3.83907">
        <ele>97.5</ele>
        <time>2022-12-08T08:22:45Z</time>
      </trkpt>
      <trkpt lat="47.90626" lon="-3.83899">
        <ele>97.6</ele>
        <time>2022-12-08T08:22:46Z</time>
      </trkpt>
      <trkpt lat="47.90626" lon="-3.83891">
        <ele>97.6</ele>
        <time>2022-12-08T08:22:47Z</time>
      </trkpt>
      <trkpt lat="47.90627" lon="-3.83884">
        <ele>97.6</ele>
        <time>2022-12-08T08:22:48Z</time>
      </trkpt>
      <trkpt lat="47.90628" lon="-3.83876">
        <ele>97.6</ele>
        <time>2022-12-08T08:22:49Z</time>
      </trkpt>
      <trkpt lat="47.9063" lon="-3.83868">
        <ele>97.5</ele>
        <time>2022-12-08T08:22:50Z</time>
      </trkpt>
      <trkpt lat="47.90632" lon="-3.83861">
        <ele>97.5</ele>
        <time>2022-12-08T08:22:51Z</time>
      </trkpt>
      <trkpt lat="47.90634" lon="-3.83854">
        <ele>97.4</ele>
        <time>2022-12-08T08:22:52Z</time>
      </trkpt>
      <trkpt lat="47.90636" lon="-3.83846">
        <ele>97.3</ele>
        <time>2022-12-08T08:22:53Z</time>
      </trkpt>
      <trkpt lat="47.90638" lon="-3.83839">
        <ele>97.2</ele>
        <time>2022-12-08T08:22:54Z</time>
      </trkpt>
      <trkpt lat="47.9064" lon="-3.83832">
        <ele>97.2</ele>
        <time>2022-12-08T08:22:55Z</time>
      </trkpt>
      <trkpt lat="47.90643" lon="-3.83824">
        <ele>97.1</ele>
        <time>2022-12-08T08:22:56Z</time>
      </trkpt>
      <trkpt lat="47.90645" lon="-3.83816">
        <ele>97</ele>
        <time>2022-12-08T08:22:57Z</time>
      </trkpt>
      <trkpt lat="47.90647" lon="-3.83808">
        <ele>96.9</ele>
        <time>2022-12-08T08:22:58Z</time>
      </trkpt>
      <trkpt lat="47.90649" lon="-3.838">
        <ele>96.8</ele>
        <time>2022-12-08T08:22:59Z</time>
      </trkpt>
      <trkpt lat="47.90652" lon="-3.83792">
        <ele>96.7</ele>
        <time>2022-12-08T08:23:00Z</time>
      </trkpt>
      <trkpt lat="47.90653" lon="-3.83783">
        <ele>96.7</ele>
        <time>2022-12-08T08:23:01Z</time>
      </trkpt>
      <trkpt lat="47.90655" lon="-3.83775">
        <ele>96.6</ele>
        <time>2022-12-08T08:23:02Z</time>
      </trkpt>
      <trkpt lat="47.90656" lon="-3.83765">
        <ele>96.5</ele>
        <time>2022-12-08T08:23:03Z</time>
      </trkpt>
      <trkpt lat="47.90657" lon="-3.83756">
        <ele>96.4</ele>
        <time>2022-12-08T08:23:04Z</time>
      </trkpt>
      <trkpt lat="47.90657" lon="-3.83747">
        <ele>96.3</ele>
        <time>2022-12-08T08:23:05Z</time>
      </trkpt>
      <trkpt lat="47.90658" lon="-3.83738">
        <ele>96.3</ele>
        <time>2022-12-08T08:23:06Z</time>
      </trkpt>
      <trkpt lat="47.90658" lon="-3.8373">
        <ele>96.2</ele>
        <time>2022-12-08T08:23:07Z</time>
      </trkpt>
      <trkpt lat="47.90658" lon="-3.83721">
        <ele>96.1</ele>
        <time>2022-12-08T08:23:08Z</time>
      </trkpt>
      <trkpt lat="47.90659" lon="-3.83713">
        <ele>96</ele>
        <time>2022-12-08T08:23:09Z</time>
      </trkpt>
      <trkpt lat="47.90659" lon="-3.83704">
        <ele>96</ele>
        <time>2022-12-08T08:23:10Z</time>
      </trkpt>
      <trkpt lat="47.9066" lon="-3.83695">
        <ele>96</ele>
        <time>2022-12-08T08:23:11Z</time>
      </trkpt>
      <trkpt lat="47.9066" lon="-3.83686">
        <ele>95.9</ele>
        <time>2022-12-08T08:23:12Z</time>
      </trkpt>
      <trkpt lat="47.9066" lon="-3.83678">
        <ele>95.9</ele>
        <time>2022-12-08T08:23:13Z</time>
      </trkpt>
      <trkpt lat="47.90659" lon="-3.8367">
        <ele>95.9</ele>
        <time>2022-12-08T08:23:14Z</time>
      </trkpt>
      <trkpt lat="47.90657" lon="-3.83662">
        <ele>95.9</ele>
        <time>2022-12-08T08:23:15Z</time>
      </trkpt>
      <trkpt lat="47.90655" lon="-3.83655">
        <ele>95.9</ele>
        <time>2022-12-08T08:23:16Z</time>
      </trkpt>
      <trkpt lat="47.90656" lon="-3.83648">
        <ele>95.7</ele>
        <time>2022-12-08T08:23:17Z</time>
      </trkpt>
      <trkpt lat="47.9066" lon="-3.83644">
        <ele>95.7</ele>
        <time>2022-12-08T08:23:18Z</time>
      </trkpt>
      <trkpt lat="47.90665" lon="-3.83643">
        <ele>95.6</ele>
        <time>2022-12-08T08:23:19Z</time>
      </trkpt>
      <trkpt lat="47.9067" lon="-3.83644">
        <ele>95.5</ele>
        <time>2022-12-08T08:23:20Z</time>
      </trkpt>
      <trkpt lat="47.90676" lon="-3.83643">
        <ele>95.4</ele>
        <time>2022-12-08T08:23:21Z</time>
      </trkpt>
      <trkpt lat="47.90682" lon="-3.83642">
        <ele>95.2</ele>
        <time>2022-12-08T08:23:22Z</time>
      </trkpt>
      <trkpt lat="47.90687" lon="-3.8364">
        <ele>95.1</ele>
        <time>2022-12-08T08:23:23Z</time>
      </trkpt>
      <trkpt lat="47.90693" lon="-3.83639">
        <ele>95</ele>
        <time>2022-12-08T08:23:24Z</time>
      </trkpt>
      <trkpt lat="47.90699" lon="-3.83639">
        <ele>94.9</ele>
        <time>2022-12-08T08:23:25Z</time>
      </trkpt>
      <trkpt lat="47.90705" lon="-3.8364">
        <ele>94.9</ele>
        <time>2022-12-08T08:23:26Z</time>
      </trkpt>
      <trkpt lat="47.90711" lon="-3.83641">
        <ele>94.9</ele>
        <time>2022-12-08T08:23:27Z</time>
      </trkpt>
      <trkpt lat="47.90717" lon="-3.83644">
        <ele>94.9</ele>
        <time>2022-12-08T08:23:28Z</time>
      </trkpt>
      <trkpt lat="47.90722" lon="-3.83648">
        <ele>94.9</ele>
        <time>2022-12-08T08:23:29Z</time>
      </trkpt>
      <trkpt lat="47.90728" lon="-3.83651">
        <ele>94.9</ele>
        <time>2022-12-08T08:23:30Z</time>
      </trkpt>
      <trkpt lat="47.90733" lon="-3.83655">
        <ele>94.9</ele>
        <time>2022-12-08T08:23:31Z</time>
      </trkpt>
      <trkpt lat="47.90738" lon="-3.83659">
        <ele>94.8</ele>
        <time>2022-12-08T08:23:32Z</time>
      </trkpt>
      <trkpt lat="47.90743" lon="-3.83663">
        <ele>94.8</ele>
        <time>2022-12-08T08:23:33Z</time>
      </trkpt>
      <trkpt lat="47.90748" lon="-3.83668">
        <ele>94.8</ele>
        <time>2022-12-08T08:23:34Z</time>
      </trkpt>
      <trkpt lat="47.90754" lon="-3.83672">
        <ele>94.7</ele>
        <time>2022-12-08T08:23:35Z</time>
      </trkpt>
      <trkpt lat="47.90759" lon="-3.83677">
        <ele>94.7</ele>
        <time>2022-12-08T08:23:36Z</time>
      </trkpt>
      <trkpt lat="47.90764" lon="-3.83682">
        <ele>94.7</ele>
        <time>2022-12-08T08:23:37Z</time>
      </trkpt>
      <trkpt lat="47.90769" lon="-3.83687">
        <ele>94.7</ele>
        <time>2022-12-08T08:23:38Z</time>
      </trkpt>
      <trkpt lat="47.90774" lon="-3.83691">
        <ele>94.7</ele>
        <time>2022-12-08T08:23:39Z</time>
      </trkpt>
      <trkpt lat="47.9078" lon="-3.83696">
        <ele>94.7</ele>
        <time>2022-12-08T08:23:40Z</time>
      </trkpt>
      <trkpt lat="47.90784" lon="-3.83701">
        <ele>94.7</ele>
        <time>2022-12-08T08:23:41Z</time>
      </trkpt>
      <trkpt lat="47.90789" lon="-3.83706">
        <ele>94.7</ele>
        <time>2022-12-08T08:23:42Z</time>
      </trkpt>
      <trkpt lat="47.90794" lon="-3.83711">
        <ele>94.7</ele>
        <time>2022-12-08T08:23:43Z</time>
      </trkpt>
      <trkpt lat="47.90798" lon="-3.83717">
        <ele>94.7</ele>
        <time>2022-12-08T08:23:44Z</time>
      </trkpt>
      <trkpt lat="47.90803" lon="-3.83722">
        <ele>94.7</ele>
        <time>2022-12-08T08:23:45Z</time>
      </trkpt>
      <trkpt lat="47.90807" lon="-3.83728">
        <ele>94.7</ele>
        <time>2022-12-08T08:23:46Z</time>
      </trkpt>
      <trkpt lat="47.90812" lon="-3.83734">
        <ele>94.7</ele>
        <time>2022-12-08T08:23:47Z</time>
      </trkpt>
      <trkpt lat="47.90817" lon="-3.83739">
        <ele>94.8</ele>
        <time>2022-12-08T08:23:48Z</time>
      </trkpt>
      <trkpt lat="47.90821" lon="-3.83744">
        <ele>94.8</ele>
        <time>2022-12-08T08:23:49Z</time>
      </trkpt>
      <trkpt lat="47.90826" lon="-3.8375">
        <ele>94.8</ele>
        <time>2022-12-08T08:23:50Z</time>
      </trkpt>
      <trkpt lat="47.9083" lon="-3.83755">
        <ele>94.8</ele>
        <time>2022-12-08T08:23:51Z</time>
      </trkpt>
      <trkpt lat="47.90835" lon="-3.83761">
        <ele>94.9</ele>
        <time>2022-12-08T08:23:52Z</time>
      </trkpt>
      <trkpt lat="47.90839" lon="-3.83766">
        <ele>94.9</ele>
        <time>2022-12-08T08:23:53Z</time>
      </trkpt>
      <trkpt lat="47.90844" lon="-3.83772">
        <ele>94.9</ele>
        <time>2022-12-08T08:23:54Z</time>
      </trkpt>
      <trkpt lat="47.90848" lon="-3.83777">
        <ele>94.9</ele>
        <time>2022-12-08T08:23:55Z</time>
      </trkpt>
      <trkpt lat="47.90852" lon="-3.83783">
        <ele>95</ele>
        <time>2022-12-08T08:23:56Z</time>
      </trkpt>
      <trkpt lat="47.90857" lon="-3.83788">
        <ele>95</ele>
        <time>2022-12-08T08:23:57Z</time>
      </trkpt>
      <trkpt lat="47.90861" lon="-3.83794">
        <ele>95</ele>
        <time>2022-12-08T08:23:58Z</time>
      </trkpt>
      <trkpt lat="47.90866" lon="-3.838">
        <ele>95</ele>
        <time>2022-12-08T08:23:59Z</time>
      </trkpt>
      <trkpt lat="47.9087" lon="-3.83806">
        <ele>95</ele>
        <time>2022-12-08T08:24:00Z</time>
      </trkpt>
      <trkpt lat="47.90875" lon="-3.83811">
        <ele>95</ele>
        <time>2022-12-08T08:24:01Z</time>
      </trkpt>
      <trkpt lat="47.90879" lon="-3.83817">
        <ele>95.1</ele>
        <time>2022-12-08T08:24:02Z</time>
      </trkpt>
      <trkpt lat="47.90884" lon="-3.83822">
        <ele>95.1</ele>
        <time>2022-12-08T08:24:03Z</time>
      </trkpt>
      <trkpt lat="47.90888" lon="-3.83827">
        <ele>95.1</ele>
        <time>2022-12-08T08:24:04Z</time>
      </trkpt>
      <trkpt lat="47.90893" lon="-3.83833">
        <ele>95.1</ele>
        <time>2022-12-08T08:24:05Z</time>
      </trkpt>
      <trkpt lat="47.90898" lon="-3.83837">
        <ele>95.2</ele>
        <time>2022-12-08T08:24:06Z</time>
      </trkpt>
      <trkpt lat="47.90903" lon="-3.83842">
        <ele>95.2</ele>
        <time>2022-12-08T08:24:07Z</time>
      </trkpt>
      <trkpt lat="47.90908" lon="-3.83847">
        <ele>95.2</ele>
        <time>2022-12-08T08:24:08Z</time>
      </trkpt>
      <trkpt lat="47.90913" lon="-3.83852">
        <ele>95.2</ele>
        <time>2022-12-08T08:24:09Z</time>
      </trkpt>
      <trkpt lat="47.90918" lon="-3.83857">
        <ele>95.2</ele>
        <time>2022-12-08T08:24:10Z</time>
      </trkpt>
      <trkpt lat="47.90922" lon="-3.83862">
        <ele>95.2</ele>
        <time>2022-12-08T08:24:11Z</time>
      </trkpt>
      <trkpt lat="47.90927" lon="-3.83867">
        <ele>95.2</ele>
        <time>2022-12-08T08:24:12Z</time>
      </trkpt>
      <trkpt lat="47.90931" lon="-3.83872">
        <ele>95.3</ele>
        <time>2022-12-08T08:24:13Z</time>
      </trkpt>
      <trkpt lat="47.90936" lon="-3.83877">
        <ele>95.3</ele>
        <time>2022-12-08T08:24:14Z</time>
      </trkpt>
      <trkpt lat="47.9094" lon="-3.83882">
        <ele>95.3</ele>
        <time>2022-12-08T08:24:15Z</time>
      </trkpt>
      <trkpt lat="47.90945" lon="-3.83887">
        <ele>95.3</ele>
        <time>2022-12-08T08:24:16Z</time>
      </trkpt>
      <trkpt lat="47.90949" lon="-3.83891">
        <ele>95.4</ele>
        <time>2022-12-08T08:24:17Z</time>
      </trkpt>
      <trkpt lat="47.90954" lon="-3.83896">
        <ele>95.4</ele>
        <time>2022-12-08T08:24:18Z</time>
      </trkpt>
      <trkpt lat="47.90959" lon="-3.83901">
        <ele>95.4</ele>
        <time>2022-12-08T08:24:19Z</time>
      </trkpt>
      <trkpt lat="47.90964" lon="-3.83905">
        <ele>95.4</ele>
        <time>2022-12-08T08:24:20Z</time>
      </trkpt>
      <trkpt lat="47.90968" lon="-3.83911">
        <ele>95.4</ele>
        <time>2022-12-08T08:24:21Z</time>
      </trkpt>
      <trkpt lat="47.90973" lon="-3.83916">
        <ele>95.5</ele>
        <time>2022-12-08T08:24:22Z</time>
      </trkpt>
      <trkpt lat="47.90977" lon="-3.8392">
        <ele>95.5</ele>
        <time>2022-12-08T08:24:23Z</time>
      </trkpt>
      <trkpt lat="47.90982" lon="-3.83925">
        <ele>95.6</ele>
        <time>2022-12-08T08:24:24Z</time>
      </trkpt>
      <trkpt lat="47.90986" lon="-3.8393">
        <ele>95.6</ele>
        <time>2022-12-08T08:24:25Z</time>
      </trkpt>
      <trkpt lat="47.90991" lon="-3.83934">
        <ele>95.6</ele>
        <time>2022-12-08T08:24:26Z</time>
      </trkpt>
      <trkpt lat="47.90995" lon="-3.83939">
        <ele>95.7</ele>
        <time>2022-12-08T08:24:27Z</time>
      </trkpt>
      <trkpt lat="47.90999" lon="-3.83944">
        <ele>95.7</ele>
        <time>2022-12-08T08:24:28Z</time>
      </trkpt>
      <trkpt lat="47.91004" lon="-3.83949">
        <ele>95.7</ele>
        <time>2022-12-08T08:24:29Z</time>
      </trkpt>
      <trkpt lat="47.91008" lon="-3.83954">
        <ele>95.7</ele>
        <time>2022-12-08T08:24:30Z</time>
      </trkpt>
      <trkpt lat="47.91013" lon="-3.83959">
        <ele>95.7</ele>
        <time>2022-12-08T08:24:31Z</time>
      </trkpt>
      <trkpt lat="47.91017" lon="-3.83964">
        <ele>95.7</ele>
        <time>2022-12-08T08:24:32Z</time>
      </trkpt>
      <trkpt lat="47.91022" lon="-3.83969">
        <ele>95.8</ele>
        <time>2022-12-08T08:24:33Z</time>
      </trkpt>
      <trkpt lat="47.91026" lon="-3.83974">
        <ele>95.8</ele>
        <time>2022-12-08T08:24:34Z</time>
      </trkpt>
      <trkpt lat="47.9103" lon="-3.83978">
        <ele>95.8</ele>
        <time>2022-12-08T08:24:35Z</time>
      </trkpt>
      <trkpt lat="47.91035" lon="-3.83983">
        <ele>95.8</ele>
        <time>2022-12-08T08:24:36Z</time>
      </trkpt>
      <trkpt lat="47.91039" lon="-3.83988">
        <ele>95.8</ele>
        <time>2022-12-08T08:24:37Z</time>
      </trkpt>
      <trkpt lat="47.91044" lon="-3.83993">
        <ele>95.9</ele>
        <time>2022-12-08T08:24:38Z</time>
      </trkpt>
      <trkpt lat="47.91049" lon="-3.83998">
        <ele>95.9</ele>
        <time>2022-12-08T08:24:39Z</time>
      </trkpt>
      <trkpt lat="47.91053" lon="-3.84003">
        <ele>95.9</ele>
        <time>2022-12-08T08:24:40Z</time>
      </trkpt>
      <trkpt lat="47.91058" lon="-3.84008">
        <ele>95.9</ele>
        <time>2022-12-08T08:24:41Z</time>
      </trkpt>
      <trkpt lat="47.91062" lon="-3.84013">
        <ele>95.9</ele>
        <time>2022-12-08T08:24:42Z</time>
      </trkpt>
      <trkpt lat="47.91067" lon="-3.84017">
        <ele>95.9</ele>
        <time>2022-12-08T08:24:43Z</time>
      </trkpt>
      <trkpt lat="47.91072" lon="-3.84022">
        <ele>96</ele>
        <time>2022-12-08T08:24:44Z</time>
      </trkpt>
      <trkpt lat="47.91076" lon="-3.84027">
        <ele>96</ele>
        <time>2022-12-08T08:24:45Z</time>
      </trkpt>
      <trkpt lat="47.91081" lon="-3.84031">
        <ele>96.1</ele>
        <time>2022-12-08T08:24:46Z</time>
      </trkpt>
      <trkpt lat="47.91086" lon="-3.84037">
        <ele>96.1</ele>
        <time>2022-12-08T08:24:47Z</time>
      </trkpt>
      <trkpt lat="47.9109" lon="-3.84042">
        <ele>96.1</ele>
        <time>2022-12-08T08:24:48Z</time>
      </trkpt>
      <trkpt lat="47.91095" lon="-3.84047">
        <ele>96.1</ele>
        <time>2022-12-08T08:24:49Z</time>
      </trkpt>
      <trkpt lat="47.911" lon="-3.84051">
        <ele>96.2</ele>
        <time>2022-12-08T08:24:50Z</time>
      </trkpt>
      <trkpt lat="47.91105" lon="-3.84056">
        <ele>96.2</ele>
        <time>2022-12-08T08:24:51Z</time>
      </trkpt>
      <trkpt lat="47.91109" lon="-3.8406">
        <ele>96.1</ele>
        <time>2022-12-08T08:24:52Z</time>
      </trkpt>
      <trkpt lat="47.91114" lon="-3.84065">
        <ele>96.1</ele>
        <time>2022-12-08T08:24:53Z</time>
      </trkpt>
      <trkpt lat="47.91119" lon="-3.84069">
        <ele>96.1</ele>
        <time>2022-12-08T08:24:54Z</time>
      </trkpt>
      <trkpt lat="47.91124" lon="-3.84073">
        <ele>96.1</ele>
        <time>2022-12-08T08:24:55Z</time>
      </trkpt>
      <trkpt lat="47.91128" lon="-3.84077">
        <ele>96.1</ele>
        <time>2022-12-08T08:24:56Z</time>
      </trkpt>
      <trkpt lat="47.91134" lon="-3.84081">
        <ele>96</ele>
        <time>2022-12-08T08:24:57Z</time>
      </trkpt>
      <trkpt lat="47.91139" lon="-3.84084">
        <ele>96</ele>
        <time>2022-12-08T08:24:58Z</time>
      </trkpt>
      <trkpt lat="47.91144" lon="-3.84088">
        <ele>96</ele>
        <time>2022-12-08T08:24:59Z</time>
      </trkpt>
      <trkpt lat="47.9115" lon="-3.84092">
        <ele>95.9</ele>
        <time>2022-12-08T08:25:00Z</time>
      </trkpt>
      <trkpt lat="47.91155" lon="-3.84095">
        <ele>95.8</ele>
        <time>2022-12-08T08:25:01Z</time>
      </trkpt>
      <trkpt lat="47.91161" lon="-3.84098">
        <ele>95.8</ele>
        <time>2022-12-08T08:25:02Z</time>
      </trkpt>
      <trkpt lat="47.91166" lon="-3.84102">
        <ele>95.7</ele>
        <time>2022-12-08T08:25:03Z</time>
      </trkpt>
      <trkpt lat="47.91172" lon="-3.84105">
        <ele>95.6</ele>
        <time>2022-12-08T08:25:04Z</time>
      </trkpt>
      <trkpt lat="47.91178" lon="-3.84108">
        <ele>95.6</ele>
        <time>2022-12-08T08:25:05Z</time>
      </trkpt>
      <trkpt lat="47.91184" lon="-3.84111">
        <ele>95.6</ele>
        <time>2022-12-08T08:25:06Z</time>
      </trkpt>
      <trkpt lat="47.9119" lon="-3.84114">
        <ele>95.5</ele>
        <time>2022-12-08T08:25:07Z</time>
      </trkpt>
      <trkpt lat="47.91195" lon="-3.84117">
        <ele>95.5</ele>
        <time>2022-12-08T08:25:08Z</time>
      </trkpt>
      <trkpt lat="47.91201" lon="-3.84119">
        <ele>95.4</ele>
        <time>2022-12-08T08:25:09Z</time>
      </trkpt>
      <trkpt lat="47.91207" lon="-3.84122">
        <ele>95.3</ele>
        <time>2022-12-08T08:25:10Z</time>
      </trkpt>
      <trkpt lat="47.91213" lon="-3.84123">
        <ele>95.3</ele>
        <time>2022-12-08T08:25:11Z</time>
      </trkpt>
      <trkpt lat="47.91219" lon="-3.84125">
        <ele>95.2</ele>
        <time>2022-12-08T08:25:12Z</time>
      </trkpt>
      <trkpt lat="47.91225" lon="-3.84127">
        <ele>95.2</ele>
        <time>2022-12-08T08:25:13Z</time>
      </trkpt>
      <trkpt lat="47.91231" lon="-3.84128">
        <ele>95.2</ele>
        <time>2022-12-08T08:25:14Z</time>
      </trkpt>
      <trkpt lat="47.91237" lon="-3.84129">
        <ele>95.2</ele>
        <time>2022-12-08T08:25:15Z</time>
      </trkpt>
      <trkpt lat="47.91243" lon="-3.84131">
        <ele>95.2</ele>
        <time>2022-12-08T08:25:16Z</time>
      </trkpt>
      <trkpt lat="47.9125" lon="-3.84132">
        <ele>95.2</ele>
        <time>2022-12-08T08:25:17Z</time>
      </trkpt>
      <trkpt lat="47.91256" lon="-3.84133">
        <ele>95.2</ele>
        <time>2022-12-08T08:25:18Z</time>
      </trkpt>
      <trkpt lat="47.91262" lon="-3.84134">
        <ele>95.2</ele>
        <time>2022-12-08T08:25:19Z</time>
      </trkpt>
      <trkpt lat="47.91268" lon="-3.84135">
        <ele>95.3</ele>
        <time>2022-12-08T08:25:20Z</time>
      </trkpt>
      <trkpt lat="47.91274" lon="-3.84136">
        <ele>95.3</ele>
        <time>2022-12-08T08:25:21Z</time>
      </trkpt>
      <trkpt lat="47.9128" lon="-3.84137">
        <ele>95.3</ele>
        <time>2022-12-08T08:25:22Z</time>
      </trkpt>
      <trkpt lat="47.91286" lon="-3.84138">
        <ele>95.4</ele>
        <time>2022-12-08T08:25:23Z</time>
      </trkpt>
      <trkpt lat="47.91292" lon="-3.84139">
        <ele>95.4</ele>
        <time>2022-12-08T08:25:24Z</time>
      </trkpt>
      <trkpt lat="47.91297" lon="-3.8414">
        <ele>95.5</ele>
        <time>2022-12-08T08:25:25Z</time>
      </trkpt>
      <trkpt lat="47.91303" lon="-3.84141">
        <ele>95.6</ele>
        <time>2022-12-08T08:25:26Z</time>
      </trkpt>
      <trkpt lat="47.91309" lon="-3.84141">
        <ele>95.7</ele>
        <time>2022-12-08T08:25:27Z</time>
      </trkpt>
      <trkpt lat="47.91314" lon="-3.84142">
        <ele>95.7</ele>
        <time>2022-12-08T08:25:28Z</time>
      </trkpt>
      <trkpt lat="47.9132" lon="-3.84142">
        <ele>95.8</ele>
        <time>2022-12-08T08:25:29Z</time>
      </trkpt>
      <trkpt lat="47.91325" lon="-3.84143">
        <ele>95.9</ele>
        <time>2022-12-08T08:25:30Z</time>
      </trkpt>
      <trkpt lat="47.91331" lon="-3.84143">
        <ele>96</ele>
        <time>2022-12-08T08:25:31Z</time>
      </trkpt>
      <trkpt lat="47.91337" lon="-3.84144">
        <ele>96.2</ele>
        <time>2022-12-08T08:25:32Z</time>
      </trkpt>
      <trkpt lat="47.91342" lon="-3.84144">
        <ele>96.3</ele>
        <time>2022-12-08T08:25:33Z</time>
      </trkpt>
      <trkpt lat="47.91347" lon="-3.84144">
        <ele>96.4</ele>
        <time>2022-12-08T08:25:34Z</time>
      </trkpt>
      <trkpt lat="47.91352" lon="-3.84145">
        <ele>96.6</ele>
        <time>2022-12-08T08:25:35Z</time>
      </trkpt>
      <trkpt lat="47.91358" lon="-3.84146">
        <ele>96.7</ele>
        <time>2022-12-08T08:25:36Z</time>
      </trkpt>
      <trkpt lat="47.91363" lon="-3.84147">
        <ele>96.9</ele>
        <time>2022-12-08T08:25:37Z</time>
      </trkpt>
      <trkpt lat="47.91368" lon="-3.84148">
        <ele>97</ele>
        <time>2022-12-08T08:25:38Z</time>
      </trkpt>
      <trkpt lat="47.91373" lon="-3.84148">
        <ele>97.2</ele>
        <time>2022-12-08T08:25:39Z</time>
      </trkpt>
      <trkpt lat="47.91378" lon="-3.84149">
        <ele>97.3</ele>
        <time>2022-12-08T08:25:40Z</time>
      </trkpt>
      <trkpt lat="47.91383" lon="-3.8415">
        <ele>97.5</ele>
        <time>2022-12-08T08:25:41Z</time>
      </trkpt>
      <trkpt lat="47.91388" lon="-3.84151">
        <ele>97.6</ele>
        <time>2022-12-08T08:25:42Z</time>
      </trkpt>
      <trkpt lat="47.91393" lon="-3.84151">
        <ele>97.8</ele>
        <time>2022-12-08T08:25:43Z</time>
      </trkpt>
      <trkpt lat="47.91398" lon="-3.84152">
        <ele>97.9</ele>
        <time>2022-12-08T08:25:44Z</time>
      </trkpt>
      <trkpt lat="47.91402" lon="-3.84152">
        <ele>98.1</ele>
        <time>2022-12-08T08:25:45Z</time>
      </trkpt>
      <trkpt lat="47.91407" lon="-3.84153">
        <ele>98.2</ele>
        <time>2022-12-08T08:25:46Z</time>
      </trkpt>
      <trkpt lat="47.91412" lon="-3.84153">
        <ele>98.3</ele>
        <time>2022-12-08T08:25:47Z</time>
      </trkpt>
      <trkpt lat="47.91417" lon="-3.84154">
        <ele>98.5</ele>
        <time>2022-12-08T08:25:48Z</time>
      </trkpt>
      <trkpt lat="47.91422" lon="-3.84155">
        <ele>98.6</ele>
        <time>2022-12-08T08:25:49Z</time>
      </trkpt>
      <trkpt lat="47.91427" lon="-3.84156">
        <ele>98.7</ele>
        <time>2022-12-08T08:25:50Z</time>
      </trkpt>
      <trkpt lat="47.91432" lon="-3.84157">
        <ele>98.9</ele>
        <time>2022-12-08T08:25:51Z</time>
      </trkpt>
      <trkpt lat="47.91437" lon="-3.84158">
        <ele>99</ele>
        <time>2022-12-08T08:25:52Z</time>
      </trkpt>
      <trkpt lat="47.91442" lon="-3.84159">
        <ele>99.2</ele>
        <time>2022-12-08T08:25:53Z</time>
      </trkpt>
      <trkpt lat="47.91447" lon="-3.84159">
        <ele>99.3</ele>
        <time>2022-12-08T08:25:54Z</time>
      </trkpt>
      <trkpt lat="47.91452" lon="-3.8416">
        <ele>99.4</ele>
        <time>2022-12-08T08:25:55Z</time>
      </trkpt>
      <trkpt lat="47.91457" lon="-3.8416">
        <ele>99.5</ele>
        <time>2022-12-08T08:25:56Z</time>
      </trkpt>
      <trkpt lat="47.91462" lon="-3.8416">
        <ele>99.6</ele>
        <time>2022-12-08T08:25:57Z</time>
      </trkpt>
      <trkpt lat="47.91467" lon="-3.84161">
        <ele>99.7</ele>
        <time>2022-12-08T08:25:58Z</time>
      </trkpt>
      <trkpt lat="47.91472" lon="-3.84161">
        <ele>99.8</ele>
        <time>2022-12-08T08:25:59Z</time>
      </trkpt>
      <trkpt lat="47.91477" lon="-3.84161">
        <ele>99.9</ele>
        <time>2022-12-08T08:26:00Z</time>
      </trkpt>
      <trkpt lat="47.91482" lon="-3.84162">
        <ele>99.9</ele>
        <time>2022-12-08T08:26:01Z</time>
      </trkpt>
      <trkpt lat="47.91487" lon="-3.84163">
        <ele>100</ele>
        <time>2022-12-08T08:26:02Z</time>
      </trkpt>
      <trkpt lat="47.91492" lon="-3.84164">
        <ele>100</ele>
        <time>2022-12-08T08:26:03Z</time>
      </trkpt>
      <trkpt lat="47.91497" lon="-3.84165">
        <ele>100.1</ele>
        <time>2022-12-08T08:26:04Z</time>
      </trkpt>
      <trkpt lat="47.91503" lon="-3.84166">
        <ele>100.2</ele>
        <time>2022-12-08T08:26:05Z</time>
      </trkpt>
      <trkpt lat="47.91508" lon="-3.84166">
        <ele>100.2</ele>
        <time>2022-12-08T08:26:06Z</time>
      </trkpt>
      <trkpt lat="47.91513" lon="-3.84167">
        <ele>100.2</ele>
        <time>2022-12-08T08:26:07Z</time>
      </trkpt>
      <trkpt lat="47.91517" lon="-3.84168">
        <ele>100.3</ele>
        <time>2022-12-08T08:26:08Z</time>
      </trkpt>
      <trkpt lat="47.91522" lon="-3.84169">
        <ele>100.3</ele>
        <time>2022-12-08T08:26:09Z</time>
      </trkpt>
      <trkpt lat="47.91528" lon="-3.8417">
        <ele>100.4</ele>
        <time>2022-12-08T08:26:10Z</time>
      </trkpt>
      <trkpt lat="47.91533" lon="-3.8417">
        <ele>100.4</ele>
        <time>2022-12-08T08:26:11Z</time>
      </trkpt>
      <trkpt lat="47.91538" lon="-3.84171">
        <ele>100.5</ele>
        <time>2022-12-08T08:26:12Z</time>
      </trkpt>
      <trkpt lat="47.91543" lon="-3.84172">
        <ele>100.5</ele>
        <time>2022-12-08T08:26:13Z</time>
      </trkpt>
      <trkpt lat="47.91548" lon="-3.84173">
        <ele>100.6</ele>
        <time>2022-12-08T08:26:14Z</time>
      </trkpt>
      <trkpt lat="47.91553" lon="-3.84173">
        <ele>100.6</ele>
        <time>2022-12-08T08:26:15Z</time>
      </trkpt>
      <trkpt lat="47.91558" lon="-3.84174">
        <ele>100.6</ele>
        <time>2022-12-08T08:26:16Z</time>
      </trkpt>
      <trkpt lat="47.91563" lon="-3.84176">
        <ele>100.6</ele>
        <time>2022-12-08T08:26:17Z</time>
      </trkpt>
      <trkpt lat="47.91569" lon="-3.84177">
        <ele>100.6</ele>
        <time>2022-12-08T08:26:18Z</time>
      </trkpt>
      <trkpt lat="47.91574" lon="-3.84178">
        <ele>100.6</ele>
        <time>2022-12-08T08:26:19Z</time>
      </trkpt>
      <trkpt lat="47.9158" lon="-3.84178">
        <ele>100.6</ele>
        <time>2022-12-08T08:26:20Z</time>
      </trkpt>
      <trkpt lat="47.91585" lon="-3.84179">
        <ele>100.6</ele>
        <time>2022-12-08T08:26:21Z</time>
      </trkpt>
      <trkpt lat="47.91591" lon="-3.8418">
        <ele>100.5</ele>
        <time>2022-12-08T08:26:22Z</time>
      </trkpt>
      <trkpt lat="47.91596" lon="-3.8418">
        <ele>100.5</ele>
        <time>2022-12-08T08:26:23Z</time>
      </trkpt>
      <trkpt lat="47.91602" lon="-3.84181">
        <ele>100.5</ele>
        <time>2022-12-08T08:26:24Z</time>
      </trkpt>
      <trkpt lat="47.91607" lon="-3.84181">
        <ele>100.5</ele>
        <time>2022-12-08T08:26:25Z</time>
      </trkpt>
      <trkpt lat="47.91613" lon="-3.84182">
        <ele>100.4</ele>
        <time>2022-12-08T08:26:26Z</time>
      </trkpt>
      <trkpt lat="47.91618" lon="-3.84183">
        <ele>100.4</ele>
        <time>2022-12-08T08:26:27Z</time>
      </trkpt>
      <trkpt lat="47.91624" lon="-3.84184">
        <ele>100.3</ele>
        <time>2022-12-08T08:26:28Z</time>
      </trkpt>
      <trkpt lat="47.9163" lon="-3.84185">
        <ele>100.3</ele>
        <time>2022-12-08T08:26:29Z</time>
      </trkpt>
      <trkpt lat="47.91636" lon="-3.84186">
        <ele>100.2</ele>
        <time>2022-12-08T08:26:30Z</time>
      </trkpt>
      <trkpt lat="47.91642" lon="-3.84186">
        <ele>100.2</ele>
        <time>2022-12-08T08:26:31Z</time>
      </trkpt>
      <trkpt lat="47.91647" lon="-3.84187">
        <ele>100.1</ele>
        <time>2022-12-08T08:26:32Z</time>
      </trkpt>
      <trkpt lat="47.91653" lon="-3.84188">
        <ele>100.1</ele>
        <time>2022-12-08T08:26:33Z</time>
      </trkpt>
      <trkpt lat="47.91659" lon="-3.84188">
        <ele>100</ele>
        <time>2022-12-08T08:26:34Z</time>
      </trkpt>
      <trkpt lat="47.91665" lon="-3.84189">
        <ele>100</ele>
        <time>2022-12-08T08:26:35Z</time>
      </trkpt>
      <trkpt lat="47.91671" lon="-3.8419">
        <ele>99.9</ele>
        <time>2022-12-08T08:26:36Z</time>
      </trkpt>
      <trkpt lat="47.91677" lon="-3.84191">
        <ele>99.9</ele>
        <time>2022-12-08T08:26:37Z</time>
      </trkpt>
      <trkpt lat="47.91683" lon="-3.84192">
        <ele>99.8</ele>
        <time>2022-12-08T08:26:38Z</time>
      </trkpt>
      <trkpt lat="47.91689" lon="-3.84193">
        <ele>99.8</ele>
        <time>2022-12-08T08:26:39Z</time>
      </trkpt>
      <trkpt lat="47.91695" lon="-3.84194">
        <ele>99.8</ele>
        <time>2022-12-08T08:26:40Z</time>
      </trkpt>
      <trkpt lat="47.91701" lon="-3.84194">
        <ele>99.8</ele>
        <time>2022-12-08T08:26:41Z</time>
      </trkpt>
      <trkpt lat="47.91707" lon="-3.84195">
        <ele>99.7</ele>
        <time>2022-12-08T08:26:42Z</time>
      </trkpt>
      <trkpt lat="47.91713" lon="-3.84196">
        <ele>99.7</ele>
        <time>2022-12-08T08:26:43Z</time>
      </trkpt>
      <trkpt lat="47.91719" lon="-3.84197">
        <ele>99.6</ele>
        <time>2022-12-08T08:26:44Z</time>
      </trkpt>
      <trkpt lat="47.91725" lon="-3.84198">
        <ele>99.6</ele>
        <time>2022-12-08T08:26:45Z</time>
      </trkpt>
      <trkpt lat="47.91731" lon="-3.84199">
        <ele>99.5</ele>
        <time>2022-12-08T08:26:46Z</time>
      </trkpt>
      <trkpt lat="47.91737" lon="-3.84199">
        <ele>99.5</ele>
        <time>2022-12-08T08:26:47Z</time>
      </trkpt>
      <trkpt lat="47.91743" lon="-3.84199">
        <ele>99.4</ele>
        <time>2022-12-08T08:26:48Z</time>
      </trkpt>
      <trkpt lat="47.91749" lon="-3.842">
        <ele>99.4</ele>
        <time>2022-12-08T08:26:49Z</time>
      </trkpt>
      <trkpt lat="47.91755" lon="-3.84201">
        <ele>99.3</ele>
        <time>2022-12-08T08:26:50Z</time>
      </trkpt>
      <trkpt lat="47.91761" lon="-3.84201">
        <ele>99.3</ele>
        <time>2022-12-08T08:26:51Z</time>
      </trkpt>
      <trkpt lat="47.91767" lon="-3.84202">
        <ele>99.3</ele>
        <time>2022-12-08T08:26:52Z</time>
      </trkpt>
      <trkpt lat="47.91773" lon="-3.84203">
        <ele>99.2</ele>
        <time>2022-12-08T08:26:53Z</time>
      </trkpt>
      <trkpt lat="47.91779" lon="-3.84204">
        <ele>99.2</ele>
        <time>2022-12-08T08:26:54Z</time>
      </trkpt>
      <trkpt lat="47.91785" lon="-3.84205">
        <ele>99.2</ele>
        <time>2022-12-08T08:26:55Z</time>
      </trkpt>
      <trkpt lat="47.91791" lon="-3.84205">
        <ele>99.2</ele>
        <time>2022-12-08T08:26:56Z</time>
      </trkpt>
      <trkpt lat="47.91797" lon="-3.84206">
        <ele>99.2</ele>
        <time>2022-12-08T08:26:57Z</time>
      </trkpt>
      <trkpt lat="47.91803" lon="-3.84207">
        <ele>99.2</ele>
        <time>2022-12-08T08:26:58Z</time>
      </trkpt>
      <trkpt lat="47.91809" lon="-3.84207">
        <ele>99.2</ele>
        <time>2022-12-08T08:26:59Z</time>
      </trkpt>
      <trkpt lat="47.91815" lon="-3.84208">
        <ele>99.2</ele>
        <time>2022-12-08T08:27:00Z</time>
      </trkpt>
      <trkpt lat="47.91821" lon="-3.84209">
        <ele>99.3</ele>
        <time>2022-12-08T08:27:01Z</time>
      </trkpt>
      <trkpt lat="47.91827" lon="-3.8421">
        <ele>99.3</ele>
        <time>2022-12-08T08:27:02Z</time>
      </trkpt>
      <trkpt lat="47.91832" lon="-3.84211">
        <ele>99.3</ele>
        <time>2022-12-08T08:27:03Z</time>
      </trkpt>
      <trkpt lat="47.91838" lon="-3.84212">
        <ele>99.4</ele>
        <time>2022-12-08T08:27:04Z</time>
      </trkpt>
      <trkpt lat="47.91844" lon="-3.84213">
        <ele>99.4</ele>
        <time>2022-12-08T08:27:05Z</time>
      </trkpt>
      <trkpt lat="47.9185" lon="-3.84213">
        <ele>99.5</ele>
        <time>2022-12-08T08:27:06Z</time>
      </trkpt>
      <trkpt lat="47.91855" lon="-3.84214">
        <ele>99.5</ele>
        <time>2022-12-08T08:27:07Z</time>
      </trkpt>
      <trkpt lat="47.91861" lon="-3.84215">
        <ele>99.6</ele>
        <time>2022-12-08T08:27:08Z</time>
      </trkpt>
      <trkpt lat="47.91867" lon="-3.84215">
        <ele>99.6</ele>
        <time>2022-12-08T08:27:09Z</time>
      </trkpt>
      <trkpt lat="47.91872" lon="-3.84216">
        <ele>99.7</ele>
        <time>2022-12-08T08:27:10Z</time>
      </trkpt>
      <trkpt lat="47.91878" lon="-3.84217">
        <ele>99.8</ele>
        <time>2022-12-08T08:27:11Z</time>
      </trkpt>
      <trkpt lat="47.91883" lon="-3.84218">
        <ele>99.9</ele>
        <time>2022-12-08T08:27:12Z</time>
      </trkpt>
      <trkpt lat="47.91888" lon="-3.84218">
        <ele>99.9</ele>
        <time>2022-12-08T08:27:13Z</time>
      </trkpt>
      <trkpt lat="47.91894" lon="-3.84219">
        <ele>100</ele>
        <time>2022-12-08T08:27:14Z</time>
      </trkpt>
      <trkpt lat="47.91899" lon="-3.8422">
        <ele>100.1</ele>
        <time>2022-12-08T08:27:15Z</time>
      </trkpt>
      <trkpt lat="47.91904" lon="-3.84221">
        <ele>100.1</ele>
        <time>2022-12-08T08:27:16Z</time>
      </trkpt>
      <trkpt lat="47.9191" lon="-3.84222">
        <ele>100.2</ele>
        <time>2022-12-08T08:27:17Z</time>
      </trkpt>
      <trkpt lat="47.91915" lon="-3.84222">
        <ele>100.2</ele>
        <time>2022-12-08T08:27:18Z</time>
      </trkpt>
      <trkpt lat="47.9192" lon="-3.84223">
        <ele>100.3</ele>
        <time>2022-12-08T08:27:19Z</time>
      </trkpt>
      <trkpt lat="47.91925" lon="-3.84223">
        <ele>100.3</ele>
        <time>2022-12-08T08:27:20Z</time>
      </trkpt>
      <trkpt lat="47.91931" lon="-3.84224">
        <ele>100.3</ele>
        <time>2022-12-08T08:27:21Z</time>
      </trkpt>
      <trkpt lat="47.91936" lon="-3.84225">
        <ele>100.4</ele>
        <time>2022-12-08T08:27:22Z</time>
      </trkpt>
      <trkpt lat="47.91941" lon="-3.84225">
        <ele>100.4</ele>
        <time>2022-12-08T08:27:23Z</time>
      </trkpt>
      <trkpt lat="47.91947" lon="-3.84226">
        <ele>100.4</ele>
        <time>2022-12-08T08:27:24Z</time>
      </trkpt>
      <trkpt lat="47.91952" lon="-3.84227">
        <ele>100.4</ele>
        <time>2022-12-08T08:27:25Z</time>
      </trkpt>
      <trkpt lat="47.91958" lon="-3.84227">
        <ele>100.4</ele>
        <time>2022-12-08T08:27:26Z</time>
      </trkpt>
      <trkpt lat="47.91963" lon="-3.84228">
        <ele>100.4</ele>
        <time>2022-12-08T08:27:27Z</time>
      </trkpt>
      <trkpt lat="47.91968" lon="-3.84229">
        <ele>100.4</ele>
        <time>2022-12-08T08:27:28Z</time>
      </trkpt>
      <trkpt lat="47.91974" lon="-3.8423">
        <ele>100.4</ele>
        <time>2022-12-08T08:27:29Z</time>
      </trkpt>
      <trkpt lat="47.91979" lon="-3.84231">
        <ele>100.3</ele>
        <time>2022-12-08T08:27:30Z</time>
      </trkpt>
      <trkpt lat="47.91985" lon="-3.84232">
        <ele>100.3</ele>
        <time>2022-12-08T08:27:31Z</time>
      </trkpt>
      <trkpt lat="47.9199" lon="-3.84232">
        <ele>100.2</ele>
        <time>2022-12-08T08:27:32Z</time>
      </trkpt>
      <trkpt lat="47.91996" lon="-3.84233">
        <ele>100.1</ele>
        <time>2022-12-08T08:27:33Z</time>
      </trkpt>
      <trkpt lat="47.92002" lon="-3.84234">
        <ele>100</ele>
        <time>2022-12-08T08:27:34Z</time>
      </trkpt>
      <trkpt lat="47.92007" lon="-3.84235">
        <ele>99.9</ele>
        <time>2022-12-08T08:27:35Z</time>
      </trkpt>
      <trkpt lat="47.92013" lon="-3.84236">
        <ele>99.7</ele>
        <time>2022-12-08T08:27:36Z</time>
      </trkpt>
      <trkpt lat="47.92019" lon="-3.84236">
        <ele>99.5</ele>
        <time>2022-12-08T08:27:37Z</time>
      </trkpt>
      <trkpt lat="47.92025" lon="-3.84237">
        <ele>99.3</ele>
        <time>2022-12-08T08:27:38Z</time>
      </trkpt>
      <trkpt lat="47.92031" lon="-3.84238">
        <ele>99.1</ele>
        <time>2022-12-08T08:27:39Z</time>
      </trkpt>
      <trkpt lat="47.92038" lon="-3.84238">
        <ele>98.8</ele>
        <time>2022-12-08T08:27:40Z</time>
      </trkpt>
      <trkpt lat="47.92045" lon="-3.84239">
        <ele>98.5</ele>
        <time>2022-12-08T08:27:41Z</time>
      </trkpt>
      <trkpt lat="47.92051" lon="-3.8424">
        <ele>98.2</ele>
        <time>2022-12-08T08:27:42Z</time>
      </trkpt>
      <trkpt lat="47.92058" lon="-3.84242">
        <ele>97.9</ele>
        <time>2022-12-08T08:27:43Z</time>
      </trkpt>
      <trkpt lat="47.92065" lon="-3.84243">
        <ele>97.7</ele>
        <time>2022-12-08T08:27:44Z</time>
      </trkpt>
      <trkpt lat="47.92072" lon="-3.84244">
        <ele>97.4</ele>
        <time>2022-12-08T08:27:45Z</time>
      </trkpt>
      <trkpt lat="47.92079" lon="-3.84244">
        <ele>97.2</ele>
        <time>2022-12-08T08:27:46Z</time>
      </trkpt>
      <trkpt lat="47.92086" lon="-3.84245">
        <ele>97</ele>
        <time>2022-12-08T08:27:47Z</time>
      </trkpt>
      <trkpt lat="47.92093" lon="-3.84246">
        <ele>96.8</ele>
        <time>2022-12-08T08:27:48Z</time>
      </trkpt>
      <trkpt lat="47.921" lon="-3.84247">
        <ele>96.7</ele>
        <time>2022-12-08T08:27:49Z</time>
      </trkpt>
      <trkpt lat="47.92107" lon="-3.84248">
        <ele>96.5</ele>
        <time>2022-12-08T08:27:50Z</time>
      </trkpt>
      <trkpt lat="47.92114" lon="-3.84248">
        <ele>96.4</ele>
        <time>2022-12-08T08:27:51Z</time>
      </trkpt>
      <trkpt lat="47.9212" lon="-3.84249">
        <ele>96.3</ele>
        <time>2022-12-08T08:27:52Z</time>
      </trkpt>
      <trkpt lat="47.92127" lon="-3.8425">
        <ele>96.3</ele>
        <time>2022-12-08T08:27:53Z</time>
      </trkpt>
      <trkpt lat="47.92133" lon="-3.8425">
        <ele>96.3</ele>
        <time>2022-12-08T08:27:54Z</time>
      </trkpt>
      <trkpt lat="47.92139" lon="-3.84251">
        <ele>96.3</ele>
        <time>2022-12-08T08:27:55Z</time>
      </trkpt>
      <trkpt lat="47.92145" lon="-3.84252">
        <ele>96.3</ele>
        <time>2022-12-08T08:27:56Z</time>
      </trkpt>
      <trkpt lat="47.9215" lon="-3.84252">
        <ele>96.3</ele>
        <time>2022-12-08T08:27:57Z</time>
      </trkpt>
      <trkpt lat="47.92156" lon="-3.84253">
        <ele>96.4</ele>
        <time>2022-12-08T08:27:58Z</time>
      </trkpt>
      <trkpt lat="47.92161" lon="-3.84254">
        <ele>96.4</ele>
        <time>2022-12-08T08:27:59Z</time>
      </trkpt>
      <trkpt lat="47.92167" lon="-3.84254">
        <ele>96.5</ele>
        <time>2022-12-08T08:28:00Z</time>
      </trkpt>
      <trkpt lat="47.92173" lon="-3.84255">
        <ele>96.6</ele>
        <time>2022-12-08T08:28:01Z</time>
      </trkpt>
      <trkpt lat="47.92178" lon="-3.84256">
        <ele>96.7</ele>
        <time>2022-12-08T08:28:02Z</time>
      </trkpt>
      <trkpt lat="47.92184" lon="-3.84256">
        <ele>96.8</ele>
        <time>2022-12-08T08:28:03Z</time>
      </trkpt>
      <trkpt lat="47.92189" lon="-3.84257">
        <ele>96.9</ele>
        <time>2022-12-08T08:28:04Z</time>
      </trkpt>
      <trkpt lat="47.92195" lon="-3.84258">
        <ele>97.1</ele>
        <time>2022-12-08T08:28:05Z</time>
      </trkpt>
      <trkpt lat="47.922" lon="-3.84259">
        <ele>97.2</ele>
        <time>2022-12-08T08:28:06Z</time>
      </trkpt>
      <trkpt lat="47.92205" lon="-3.84259">
        <ele>97.3</ele>
        <time>2022-12-08T08:28:07Z</time>
      </trkpt>
      <trkpt lat="47.92211" lon="-3.8426">
        <ele>97.4</ele>
        <time>2022-12-08T08:28:08Z</time>
      </trkpt>
      <trkpt lat="47.92216" lon="-3.8426">
        <ele>97.6</ele>
        <time>2022-12-08T08:28:09Z</time>
      </trkpt>
      <trkpt lat="47.92221" lon="-3.84261">
        <ele>97.7</ele>
        <time>2022-12-08T08:28:10Z</time>
      </trkpt>
      <trkpt lat="47.92226" lon="-3.84262">
        <ele>97.8</ele>
        <time>2022-12-08T08:28:11Z</time>
      </trkpt>
      <trkpt lat="47.92231" lon="-3.84263">
        <ele>97.9</ele>
        <time>2022-12-08T08:28:12Z</time>
      </trkpt>
      <trkpt lat="47.92236" lon="-3.84264">
        <ele>98.1</ele>
        <time>2022-12-08T08:28:13Z</time>
      </trkpt>
      <trkpt lat="47.92241" lon="-3.84264">
        <ele>98.2</ele>
        <time>2022-12-08T08:28:14Z</time>
      </trkpt>
      <trkpt lat="47.92246" lon="-3.84265">
        <ele>98.3</ele>
        <time>2022-12-08T08:28:15Z</time>
      </trkpt>
      <trkpt lat="47.92252" lon="-3.84266">
        <ele>98.5</ele>
        <time>2022-12-08T08:28:16Z</time>
      </trkpt>
      <trkpt lat="47.92257" lon="-3.84267">
        <ele>98.6</ele>
        <time>2022-12-08T08:28:17Z</time>
      </trkpt>
      <trkpt lat="47.92262" lon="-3.84268">
        <ele>98.7</ele>
        <time>2022-12-08T08:28:18Z</time>
      </trkpt>
      <trkpt lat="47.92267" lon="-3.84269">
        <ele>98.8</ele>
        <time>2022-12-08T08:28:19Z</time>
      </trkpt>
      <trkpt lat="47.92272" lon="-3.8427">
        <ele>98.9</ele>
        <time>2022-12-08T08:28:20Z</time>
      </trkpt>
      <trkpt lat="47.92277" lon="-3.84271">
        <ele>99</ele>
        <time>2022-12-08T08:28:21Z</time>
      </trkpt>
      <trkpt lat="47.92282" lon="-3.84273">
        <ele>99</ele>
        <time>2022-12-08T08:28:22Z</time>
      </trkpt>
      <trkpt lat="47.92287" lon="-3.84275">
        <ele>99.1</ele>
        <time>2022-12-08T08:28:23Z</time>
      </trkpt>
      <trkpt lat="47.92292" lon="-3.84277">
        <ele>99.2</ele>
        <time>2022-12-08T08:28:24Z</time>
      </trkpt>
      <trkpt lat="47.92297" lon="-3.84279">
        <ele>99.3</ele>
        <time>2022-12-08T08:28:25Z</time>
      </trkpt>
      <trkpt lat="47.92302" lon="-3.84281">
        <ele>99.4</ele>
        <time>2022-12-08T08:28:26Z</time>
      </trkpt>
      <trkpt lat="47.92306" lon="-3.84284">
        <ele>99.5</ele>
        <time>2022-12-08T08:28:27Z</time>
      </trkpt>
      <trkpt lat="47.92311" lon="-3.84286">
        <ele>99.6</ele>
        <time>2022-12-08T08:28:28Z</time>
      </trkpt>
      <trkpt lat="47.92316" lon="-3.84288">
        <ele>99.7</ele>
        <time>2022-12-08T08:28:29Z</time>
      </trkpt>
      <trkpt lat="47.92321" lon="-3.8429">
        <ele>99.9</ele>
        <time>2022-12-08T08:28:30Z</time>
      </trkpt>
      <trkpt lat="47.92325" lon="-3.84293">
        <ele>100</ele>
        <time>2022-12-08T08:28:31Z</time>
      </trkpt>
      <trkpt lat="47.9233" lon="-3.84295">
        <ele>100.1</ele>
        <time>2022-12-08T08:28:32Z</time>
      </trkpt>
      <trkpt lat="47.92334" lon="-3.84298">
        <ele>100.2</ele>
        <time>2022-12-08T08:28:33Z</time>
      </trkpt>
      <trkpt lat="47.92339" lon="-3.843">
        <ele>100.3</ele>
        <time>2022-12-08T08:28:34Z</time>
      </trkpt>
      <trkpt lat="47.92343" lon="-3.84303">
        <ele>100.4</ele>
        <time>2022-12-08T08:28:35Z</time>
      </trkpt>
      <trkpt lat="47.92348" lon="-3.84306">
        <ele>100.5</ele>
        <time>2022-12-08T08:28:36Z</time>
      </trkpt>
      <trkpt lat="47.92352" lon="-3.8431">
        <ele>100.6</ele>
        <time>2022-12-08T08:28:37Z</time>
      </trkpt>
      <trkpt lat="47.92357" lon="-3.84311">
        <ele>100.7</ele>
        <time>2022-12-08T08:28:38Z</time>
      </trkpt>
      <trkpt lat="47.92362" lon="-3.8431">
        <ele>100.9</ele>
        <time>2022-12-08T08:28:39Z</time>
      </trkpt>
      <trkpt lat="47.92366" lon="-3.84306">
        <ele>101.3</ele>
        <time>2022-12-08T08:28:40Z</time>
      </trkpt>
      <trkpt lat="47.92369" lon="-3.84301">
        <ele>101.5</ele>
        <time>2022-12-08T08:28:41Z</time>
      </trkpt>
      <trkpt lat="47.92372" lon="-3.84297">
        <ele>101.7</ele>
        <time>2022-12-08T08:28:42Z</time>
      </trkpt>
      <trkpt lat="47.92376" lon="-3.84293">
        <ele>101.8</ele>
        <time>2022-12-08T08:28:43Z</time>
      </trkpt>
      <trkpt lat="47.92378" lon="-3.84292">
        <ele>101.9</ele>
        <time>2022-12-08T08:28:44Z</time>
      </trkpt>
      <trkpt lat="47.92381" lon="-3.8429">
        <ele>102</ele>
        <time>2022-12-08T08:28:45Z</time>
      </trkpt>
      <trkpt lat="47.92385" lon="-3.84289">
        <ele>102.1</ele>
        <time>2022-12-08T08:28:46Z</time>
      </trkpt>
      <trkpt lat="47.92388" lon="-3.84288">
        <ele>102.2</ele>
        <time>2022-12-08T08:28:47Z</time>
      </trkpt>
      <trkpt lat="47.92391" lon="-3.84288">
        <ele>102.3</ele>
        <time>2022-12-08T08:28:48Z</time>
      </trkpt>
      <trkpt lat="47.92396" lon="-3.84287">
        <ele>102.4</ele>
        <time>2022-12-08T08:28:49Z</time>
      </trkpt>
      <trkpt lat="47.92399" lon="-3.84287">
        <ele>102.5</ele>
        <time>2022-12-08T08:28:51Z</time>
      </trkpt>
      <trkpt lat="47.92405" lon="-3.84288">
        <ele>102.7</ele>
        <time>2022-12-08T08:28:52Z</time>
      </trkpt>
      <trkpt lat="47.9241" lon="-3.84287">
        <ele>102.9</ele>
        <time>2022-12-08T08:28:53Z</time>
      </trkpt>
      <trkpt lat="47.92413" lon="-3.84287">
        <ele>103</ele>
        <time>2022-12-08T08:28:54Z</time>
      </trkpt>
      <trkpt lat="47.92417" lon="-3.84287">
        <ele>103.1</ele>
        <time>2022-12-08T08:28:55Z</time>
      </trkpt>
      <trkpt lat="47.9242" lon="-3.84288">
        <ele>103.2</ele>
        <time>2022-12-08T08:28:56Z</time>
      </trkpt>
      <trkpt lat="47.92424" lon="-3.84288">
        <ele>103.3</ele>
        <time>2022-12-08T08:28:57Z</time>
      </trkpt>
      <trkpt lat="47.92428" lon="-3.84288">
        <ele>103.5</ele>
        <time>2022-12-08T08:28:59Z</time>
      </trkpt>
      <trkpt lat="47.92431" lon="-3.84288">
        <ele>103.6</ele>
        <time>2022-12-08T08:29:00Z</time>
      </trkpt>
      <trkpt lat="47.92435" lon="-3.84288">
        <ele>103.7</ele>
        <time>2022-12-08T08:29:01Z</time>
      </trkpt>
      <trkpt lat="47.92438" lon="-3.84287">
        <ele>103.8</ele>
        <time>2022-12-08T08:29:02Z</time>
      </trkpt>
      <trkpt lat="47.92442" lon="-3.84287">
        <ele>104</ele>
        <time>2022-12-08T08:29:03Z</time>
      </trkpt>
      <trkpt lat="47.92446" lon="-3.84285">
        <ele>104.1</ele>
        <time>2022-12-08T08:29:04Z</time>
      </trkpt>
      <trkpt lat="47.92449" lon="-3.84285">
        <ele>104.2</ele>
        <time>2022-12-08T08:29:05Z</time>
      </trkpt>
      <trkpt lat="47.92452" lon="-3.84284">
        <ele>104.3</ele>
        <time>2022-12-08T08:29:06Z</time>
      </trkpt>
      <trkpt lat="47.92453" lon="-3.84284">
        <ele>104.3</ele>
        <time>2022-12-08T08:29:07Z</time>
      </trkpt>
      <trkpt lat="47.92456" lon="-3.84284">
        <ele>104.4</ele>
        <time>2022-12-08T08:29:08Z</time>
      </trkpt>
      <trkpt lat="47.92459" lon="-3.84283">
        <ele>104.5</ele>
        <time>2022-12-08T08:29:09Z</time>
      </trkpt>
      <trkpt lat="47.9246" lon="-3.84283">
        <ele>104.6</ele>
        <time>2022-12-08T08:29:10Z</time>
      </trkpt>
      <trkpt lat="47.92461" lon="-3.84283">
        <ele>104.6</ele>
        <time>2022-12-08T08:29:11Z</time>
      </trkpt>
      <trkpt lat="47.92461" lon="-3.84283">
        <ele>104.6</ele>
        <time>2022-12-08T08:29:12Z</time>
      </trkpt>
      <trkpt lat="47.92462" lon="-3.84283">
        <ele>104.6</ele>
        <time>2022-12-08T08:29:13Z</time>
      </trkpt>
      <trkpt lat="47.92462" lon="-3.84283">
        <ele>104.6</ele>
        <time>2022-12-08T08:29:14Z</time>
      </trkpt>
      <trkpt lat="47.92462" lon="-3.84283">
        <ele>104.7</ele>
        <time>2022-12-08T08:29:15Z</time>
      </trkpt>
      <trkpt lat="47.92463" lon="-3.84283">
        <ele>104.7</ele>
        <time>2022-12-08T08:29:17Z</time>
      </trkpt>
      <trkpt lat="47.92463" lon="-3.84284">
        <ele>104.7</ele>
        <time>2022-12-08T08:29:18Z</time>
      </trkpt>
      <trkpt lat="47.92464" lon="-3.84284">
        <ele>104.7</ele>
        <time>2022-12-08T08:29:19Z</time>
      </trkpt>
      <trkpt lat="47.92464" lon="-3.84284">
        <ele>104.7</ele>
        <time>2022-12-08T08:29:20Z</time>
      </trkpt>
      <trkpt lat="47.92464" lon="-3.84284">
        <ele>104.7</ele>
        <time>2022-12-08T08:29:21Z</time>
      </trkpt>
      <trkpt lat="47.92465" lon="-3.84284">
        <ele>104.8</ele>
        <time>2022-12-08T08:30:03Z</time>
      </trkpt>
      <trkpt lat="47.92465" lon="-3.84284">
        <ele>104.8</ele>
        <time>2022-12-08T08:30:04Z</time>
      </trkpt>
      <trkpt lat="47.92466" lon="-3.84285">
        <ele>104.8</ele>
        <time>2022-12-08T08:30:05Z</time>
      </trkpt>
      <trkpt lat="47.92466" lon="-3.84285">
        <ele>104.8</ele>
        <time>2022-12-08T08:30:06Z</time>
      </trkpt>
      <trkpt lat="47.92469" lon="-3.84282">
        <ele>105</ele>
        <time>2022-12-08T08:30:07Z</time>
      </trkpt>
      <trkpt lat="47.92473" lon="-3.84279">
        <ele>105.2</ele>
        <time>2022-12-08T08:30:08Z</time>
      </trkpt>
      <trkpt lat="47.92475" lon="-3.84278">
        <ele>105.3</ele>
        <time>2022-12-08T08:30:09Z</time>
      </trkpt>
      <trkpt lat="47.92478" lon="-3.84277">
        <ele>105.5</ele>
        <time>2022-12-08T08:30:11Z</time>
      </trkpt>
      <trkpt lat="47.92482" lon="-3.84278">
        <ele>105.8</ele>
        <time>2022-12-08T08:30:12Z</time>
      </trkpt>
      <trkpt lat="47.92485" lon="-3.84278">
        <ele>105.9</ele>
        <time>2022-12-08T08:30:13Z</time>
      </trkpt>
      <trkpt lat="47.92488" lon="-3.84277">
        <ele>106.2</ele>
        <time>2022-12-08T08:30:14Z</time>
      </trkpt>
      <trkpt lat="47.92489" lon="-3.84277">
        <ele>106.2</ele>
        <time>2022-12-08T08:30:15Z</time>
      </trkpt>
      <trkpt lat="47.92493" lon="-3.84276">
        <ele>106.5</ele>
        <time>2022-12-08T08:30:17Z</time>
      </trkpt>
      <trkpt lat="47.92496" lon="-3.84274">
        <ele>106.8</ele>
        <time>2022-12-08T08:30:18Z</time>
      </trkpt>
      <trkpt lat="47.92499" lon="-3.84273">
        <ele>107.1</ele>
        <time>2022-12-08T08:30:19Z</time>
      </trkpt>
      <trkpt lat="47.92501" lon="-3.84272">
        <ele>107.2</ele>
        <time>2022-12-08T08:30:20Z</time>
      </trkpt>
      <trkpt lat="47.92503" lon="-3.8427">
        <ele>107.5</ele>
        <time>2022-12-08T08:30:21Z</time>
      </trkpt>
      <trkpt lat="47.92507" lon="-3.8427">
        <ele>107.7</ele>
        <time>2022-12-08T08:30:22Z</time>
      </trkpt>
      <trkpt lat="47.92508" lon="-3.8427">
        <ele>107.8</ele>
        <time>2022-12-08T08:30:23Z</time>
      </trkpt>
      <trkpt lat="47.9251" lon="-3.84268">
        <ele>108.1</ele>
        <time>2022-12-08T08:30:24Z</time>
      </trkpt>
      <trkpt lat="47.92513" lon="-3.84267">
        <ele>108.3</ele>
        <time>2022-12-08T08:30:25Z</time>
      </trkpt>
      <trkpt lat="47.92517" lon="-3.84267">
        <ele>108.6</ele>
        <time>2022-12-08T08:30:26Z</time>
      </trkpt>
      <trkpt lat="47.92518" lon="-3.84267">
        <ele>108.7</ele>
        <time>2022-12-08T08:30:27Z</time>
      </trkpt>
      <trkpt lat="47.92522" lon="-3.84266">
        <ele>109</ele>
        <time>2022-12-08T08:30:28Z</time>
      </trkpt>
      <trkpt lat="47.92523" lon="-3.84266">
        <ele>109.2</ele>
        <time>2022-12-08T08:30:29Z</time>
      </trkpt>
      <trkpt lat="47.92527" lon="-3.84266">
        <ele>109.4</ele>
        <time>2022-12-08T08:30:30Z</time>
      </trkpt>
      <trkpt lat="47.92527" lon="-3.84265">
        <ele>109.5</ele>
        <time>2022-12-08T08:30:31Z</time>
      </trkpt>
      <trkpt lat="47.9253" lon="-3.84264">
        <ele>109.8</ele>
        <time>2022-12-08T08:30:32Z</time>
      </trkpt>
      <trkpt lat="47.92533" lon="-3.84264">
        <ele>110</ele>
        <time>2022-12-08T08:30:33Z</time>
      </trkpt>
      <trkpt lat="47.92536" lon="-3.84263">
        <ele>110.3</ele>
        <time>2022-12-08T08:30:35Z</time>
      </trkpt>
      <trkpt lat="47.9254" lon="-3.84262">
        <ele>110.6</ele>
        <time>2022-12-08T08:30:36Z</time>
      </trkpt>
      <trkpt lat="47.92544" lon="-3.84261">
        <ele>110.9</ele>
        <time>2022-12-08T08:30:37Z</time>
      </trkpt>
      <trkpt lat="47.92545" lon="-3.84261">
        <ele>111</ele>
        <time>2022-12-08T08:30:38Z</time>
      </trkpt>
      <trkpt lat="47.92548" lon="-3.8426">
        <ele>111.3</ele>
        <time>2022-12-08T08:30:39Z</time>
      </trkpt>
      <trkpt lat="47.9255" lon="-3.8426">
        <ele>111.5</ele>
        <time>2022-12-08T08:30:40Z</time>
      </trkpt>
      <trkpt lat="47.92554" lon="-3.8426">
        <ele>111.8</ele>
        <time>2022-12-08T08:30:42Z</time>
      </trkpt>
      <trkpt lat="47.92558" lon="-3.8426">
        <ele>112.2</ele>
        <time>2022-12-08T08:30:43Z</time>
      </trkpt>
      <trkpt lat="47.9256" lon="-3.8426">
        <ele>112.4</ele>
        <time>2022-12-08T08:30:44Z</time>
      </trkpt>
      <trkpt lat="47.92563" lon="-3.84259">
        <ele>112.7</ele>
        <time>2022-12-08T08:30:45Z</time>
      </trkpt>
      <trkpt lat="47.92564" lon="-3.84259">
        <ele>112.8</ele>
        <time>2022-12-08T08:30:46Z</time>
      </trkpt>
      <trkpt lat="47.92568" lon="-3.84259">
        <ele>113.2</ele>
        <time>2022-12-08T08:30:47Z</time>
      </trkpt>
      <trkpt lat="47.9257" lon="-3.84259">
        <ele>113.3</ele>
        <time>2022-12-08T08:30:48Z</time>
      </trkpt>
      <trkpt lat="47.92573" lon="-3.8426">
        <ele>113.6</ele>
        <time>2022-12-08T08:30:49Z</time>
      </trkpt>
      <trkpt lat="47.92574" lon="-3.84259">
        <ele>113.6</ele>
        <time>2022-12-08T08:30:50Z</time>
      </trkpt>
      <trkpt lat="47.92577" lon="-3.8426">
        <ele>113.9</ele>
        <time>2022-12-08T08:30:51Z</time>
      </trkpt>
      <trkpt lat="47.92579" lon="-3.84261">
        <ele>114.1</ele>
        <time>2022-12-08T08:30:52Z</time>
      </trkpt>
      <trkpt lat="47.92581" lon="-3.84262">
        <ele>114.2</ele>
        <time>2022-12-08T08:30:53Z</time>
      </trkpt>
      <trkpt lat="47.92582" lon="-3.84262">
        <ele>114.3</ele>
        <time>2022-12-08T08:30:54Z</time>
      </trkpt>
      <trkpt lat="47.92582" lon="-3.84262">
        <ele>114.3</ele>
        <time>2022-12-08T08:30:55Z</time>
      </trkpt>
      <trkpt lat="47.92583" lon="-3.84262">
        <ele>114.3</ele>
        <time>2022-12-08T08:30:56Z</time>
      </trkpt>
      <trkpt lat="47.92583" lon="-3.84262">
        <ele>114.4</ele>
        <time>2022-12-08T08:30:57Z</time>
      </trkpt>
      <trkpt lat="47.92584" lon="-3.84262">
        <ele>114.4</ele>
        <time>2022-12-08T08:30:58Z</time>
      </trkpt>
      <trkpt lat="47.92584" lon="-3.84262">
        <ele>114.5</ele>
        <time>2022-12-08T08:30:59Z</time>
      </trkpt>
      <trkpt lat="47.92585" lon="-3.84262">
        <ele>114.5</ele>
        <time>2022-12-08T08:31:01Z</time>
      </trkpt>
      <trkpt lat="47.92586" lon="-3.84262">
        <ele>114.6</ele>
        <time>2022-12-08T08:31:02Z</time>
      </trkpt>
      <trkpt lat="47.92586" lon="-3.84262">
        <ele>114.6</ele>
        <time>2022-12-08T08:31:03Z</time>
      </trkpt>
      <trkpt lat="47.92587" lon="-3.84262">
        <ele>114.7</ele>
        <time>2022-12-08T08:31:04Z</time>
      </trkpt>
      <trkpt lat="47.92587" lon="-3.84262">
        <ele>114.7</ele>
        <time>2022-12-08T08:33:08Z</time>
      </trkpt>
      <trkpt lat="47.92588" lon="-3.84262">
        <ele>114.8</ele>
        <time>2022-12-08T08:33:09Z</time>
      </trkpt>
      <trkpt lat="47.92588" lon="-3.84262">
        <ele>114.8</ele>
        <time>2022-12-08T08:33:10Z</time>
      </trkpt>
      <trkpt lat="47.9259" lon="-3.84262">
        <ele>114.9</ele>
        <time>2022-12-08T08:33:11Z</time>
      </trkpt>
      <trkpt lat="47.92591" lon="-3.84262">
        <ele>115</ele>
        <time>2022-12-08T08:33:12Z</time>
      </trkpt>
      <trkpt lat="47.92595" lon="-3.84263">
        <ele>115.3</ele>
        <time>2022-12-08T08:33:14Z</time>
      </trkpt>
      <trkpt lat="47.92598" lon="-3.84264">
        <ele>115.5</ele>
        <time>2022-12-08T08:33:15Z</time>
      </trkpt>
      <trkpt lat="47.92602" lon="-3.84264">
        <ele>115.9</ele>
        <time>2022-12-08T08:33:16Z</time>
      </trkpt>
      <trkpt lat="47.92604" lon="-3.84265">
        <ele>116</ele>
        <time>2022-12-08T08:33:17Z</time>
      </trkpt>
      <trkpt lat="47.92607" lon="-3.84265">
        <ele>116.3</ele>
        <time>2022-12-08T08:33:18Z</time>
      </trkpt>
      <trkpt lat="47.92609" lon="-3.84265">
        <ele>116.5</ele>
        <time>2022-12-08T08:33:19Z</time>
      </trkpt>
      <trkpt lat="47.92614" lon="-3.84265">
        <ele>116.9</ele>
        <time>2022-12-08T08:33:21Z</time>
      </trkpt>
      <trkpt lat="47.92616" lon="-3.84265">
        <ele>117.1</ele>
        <time>2022-12-08T08:33:22Z</time>
      </trkpt>
      <trkpt lat="47.9262" lon="-3.84263">
        <ele>117.4</ele>
        <time>2022-12-08T08:33:24Z</time>
      </trkpt>
      <trkpt lat="47.92622" lon="-3.84262">
        <ele>117.6</ele>
        <time>2022-12-08T08:33:25Z</time>
      </trkpt>
      <trkpt lat="47.92626" lon="-3.84261">
        <ele>117.9</ele>
        <time>2022-12-08T08:33:26Z</time>
      </trkpt>
      <trkpt lat="47.92629" lon="-3.84261">
        <ele>118.2</ele>
        <time>2022-12-08T08:33:27Z</time>
      </trkpt>
      <trkpt lat="47.92632" lon="-3.8426">
        <ele>118.4</ele>
        <time>2022-12-08T08:33:28Z</time>
      </trkpt>
      <trkpt lat="47.92633" lon="-3.84259">
        <ele>118.5</ele>
        <time>2022-12-08T08:33:29Z</time>
      </trkpt>
      <trkpt lat="47.92635" lon="-3.84259">
        <ele>118.7</ele>
        <time>2022-12-08T08:33:30Z</time>
      </trkpt>
      <trkpt lat="47.92638" lon="-3.84258">
        <ele>118.9</ele>
        <time>2022-12-08T08:33:31Z</time>
      </trkpt>
      <trkpt lat="47.92641" lon="-3.84256">
        <ele>119.2</ele>
        <time>2022-12-08T08:33:32Z</time>
      </trkpt>
      <trkpt lat="47.92644" lon="-3.84254">
        <ele>119.4</ele>
        <time>2022-12-08T08:33:33Z</time>
      </trkpt>
      <trkpt lat="47.92647" lon="-3.84252">
        <ele>119.7</ele>
        <time>2022-12-08T08:33:34Z</time>
      </trkpt>
      <trkpt lat="47.92648" lon="-3.84252">
        <ele>119.8</ele>
        <time>2022-12-08T08:33:35Z</time>
      </trkpt>
      <trkpt lat="47.9265" lon="-3.8425">
        <ele>120</ele>
        <time>2022-12-08T08:33:36Z</time>
      </trkpt>
      <trkpt lat="47.92653" lon="-3.84249">
        <ele>120.2</ele>
        <time>2022-12-08T08:33:38Z</time>
      </trkpt>
      <trkpt lat="47.92656" lon="-3.84249">
        <ele>120.5</ele>
        <time>2022-12-08T08:33:39Z</time>
      </trkpt>
      <trkpt lat="47.92659" lon="-3.84247">
        <ele>120.7</ele>
        <time>2022-12-08T08:33:40Z</time>
      </trkpt>
      <trkpt lat="47.92661" lon="-3.84247">
        <ele>120.8</ele>
        <time>2022-12-08T08:33:41Z</time>
      </trkpt>
      <trkpt lat="47.92664" lon="-3.84246">
        <ele>121.1</ele>
        <time>2022-12-08T08:33:42Z</time>
      </trkpt>
      <trkpt lat="47.92666" lon="-3.84245">
        <ele>121.1</ele>
        <time>2022-12-08T08:33:43Z</time>
      </trkpt>
      <trkpt lat="47.92669" lon="-3.84244">
        <ele>121.4</ele>
        <time>2022-12-08T08:33:44Z</time>
      </trkpt>
      <trkpt lat="47.9267" lon="-3.84243">
        <ele>121.5</ele>
        <time>2022-12-08T08:33:45Z</time>
      </trkpt>
      <trkpt lat="47.92674" lon="-3.84242">
        <ele>121.7</ele>
        <time>2022-12-08T08:33:46Z</time>
      </trkpt>
      <trkpt lat="47.92675" lon="-3.84242">
        <ele>121.8</ele>
        <time>2022-12-08T08:33:47Z</time>
      </trkpt>
      <trkpt lat="47.92678" lon="-3.84241">
        <ele>122</ele>
        <time>2022-12-08T08:33:48Z</time>
      </trkpt>
      <trkpt lat="47.92681" lon="-3.84239">
        <ele>122.2</ele>
        <time>2022-12-08T08:33:49Z</time>
      </trkpt>
      <trkpt lat="47.92682" lon="-3.84239">
        <ele>122.4</ele>
        <time>2022-12-08T08:33:50Z</time>
      </trkpt>
      <trkpt lat="47.92686" lon="-3.84239">
        <ele>122.7</ele>
        <time>2022-12-08T08:33:51Z</time>
      </trkpt>
      <trkpt lat="47.92688" lon="-3.84239">
        <ele>122.8</ele>
        <time>2022-12-08T08:33:52Z</time>
      </trkpt>
      <trkpt lat="47.92691" lon="-3.84237">
        <ele>123.1</ele>
        <time>2022-12-08T08:33:53Z</time>
      </trkpt>
      <trkpt lat="47.92692" lon="-3.84236">
        <ele>123.2</ele>
        <time>2022-12-08T08:33:54Z</time>
      </trkpt>
      <trkpt lat="47.92695" lon="-3.84233">
        <ele>123.5</ele>
        <time>2022-12-08T08:33:55Z</time>
      </trkpt>
      <trkpt lat="47.92696" lon="-3.84233">
        <ele>123.6</ele>
        <time>2022-12-08T08:33:56Z</time>
      </trkpt>
      <trkpt lat="47.927" lon="-3.84232">
        <ele>124</ele>
        <time>2022-12-08T08:33:57Z</time>
      </trkpt>
      <trkpt lat="47.92701" lon="-3.84232">
        <ele>124.1</ele>
        <time>2022-12-08T08:33:58Z</time>
      </trkpt>
      <trkpt lat="47.92702" lon="-3.84231">
        <ele>124.2</ele>
        <time>2022-12-08T08:33:59Z</time>
      </trkpt>
      <trkpt lat="47.92704" lon="-3.8423">
        <ele>124.4</ele>
        <time>2022-12-08T08:34:00Z</time>
      </trkpt>
      <trkpt lat="47.92707" lon="-3.84229">
        <ele>124.7</ele>
        <time>2022-12-08T08:34:01Z</time>
      </trkpt>
      <trkpt lat="47.9271" lon="-3.84227">
        <ele>125</ele>
        <time>2022-12-08T08:34:02Z</time>
      </trkpt>
      <trkpt lat="47.92711" lon="-3.84227">
        <ele>125.1</ele>
        <time>2022-12-08T08:34:03Z</time>
      </trkpt>
      <trkpt lat="47.92712" lon="-3.84225">
        <ele>125.2</ele>
        <time>2022-12-08T08:34:04Z</time>
      </trkpt>
      <trkpt lat="47.92717" lon="-3.84223">
        <ele>125.7</ele>
        <time>2022-12-08T08:34:06Z</time>
      </trkpt>
      <trkpt lat="47.92719" lon="-3.84222">
        <ele>125.9</ele>
        <time>2022-12-08T08:34:08Z</time>
      </trkpt>
      <trkpt lat="47.92722" lon="-3.84222">
        <ele>126.2</ele>
        <time>2022-12-08T08:34:09Z</time>
      </trkpt>
      <trkpt lat="47.92725" lon="-3.84219">
        <ele>126.4</ele>
        <time>2022-12-08T08:34:10Z</time>
      </trkpt>
      <trkpt lat="47.92726" lon="-3.84218">
        <ele>126.5</ele>
        <time>2022-12-08T08:34:11Z</time>
      </trkpt>
      <trkpt lat="47.92729" lon="-3.84216">
        <ele>126.8</ele>
        <time>2022-12-08T08:34:12Z</time>
      </trkpt>
      <trkpt lat="47.9273" lon="-3.84216">
        <ele>126.9</ele>
        <time>2022-12-08T08:34:13Z</time>
      </trkpt>
      <trkpt lat="47.92733" lon="-3.84214">
        <ele>127.2</ele>
        <time>2022-12-08T08:34:14Z</time>
      </trkpt>
      <trkpt lat="47.92734" lon="-3.84214">
        <ele>127.3</ele>
        <time>2022-12-08T08:34:15Z</time>
      </trkpt>
      <trkpt lat="47.92737" lon="-3.84211">
        <ele>127.5</ele>
        <time>2022-12-08T08:34:16Z</time>
      </trkpt>
      <trkpt lat="47.92738" lon="-3.8421">
        <ele>127.6</ele>
        <time>2022-12-08T08:34:17Z</time>
      </trkpt>
      <trkpt lat="47.9274" lon="-3.84207">
        <ele>127.9</ele>
        <time>2022-12-08T08:34:18Z</time>
      </trkpt>
      <trkpt lat="47.92743" lon="-3.84204">
        <ele>128.2</ele>
        <time>2022-12-08T08:34:19Z</time>
      </trkpt>
      <trkpt lat="47.92744" lon="-3.84203">
        <ele>128.3</ele>
        <time>2022-12-08T08:34:20Z</time>
      </trkpt>
      <trkpt lat="47.92747" lon="-3.84201">
        <ele>128.5</ele>
        <time>2022-12-08T08:34:21Z</time>
      </trkpt>
      <trkpt lat="47.92748" lon="-3.84201">
        <ele>128.6</ele>
        <time>2022-12-08T08:34:22Z</time>
      </trkpt>
      <trkpt lat="47.92751" lon="-3.84198">
        <ele>128.9</ele>
        <time>2022-12-08T08:34:23Z</time>
      </trkpt>
      <trkpt lat="47.92753" lon="-3.84197">
        <ele>129</ele>
        <time>2022-12-08T08:34:24Z</time>
      </trkpt>
      <trkpt lat="47.92756" lon="-3.84194">
        <ele>129.3</ele>
        <time>2022-12-08T08:34:25Z</time>
      </trkpt>
      <trkpt lat="47.92757" lon="-3.84193">
        <ele>129.4</ele>
        <time>2022-12-08T08:34:26Z</time>
      </trkpt>
      <trkpt lat="47.9276" lon="-3.84192">
        <ele>129.6</ele>
        <time>2022-12-08T08:34:27Z</time>
      </trkpt>
      <trkpt lat="47.92761" lon="-3.84191">
        <ele>129.7</ele>
        <time>2022-12-08T08:34:28Z</time>
      </trkpt>
      <trkpt lat="47.92764" lon="-3.84189">
        <ele>129.9</ele>
        <time>2022-12-08T08:34:29Z</time>
      </trkpt>
      <trkpt lat="47.92767" lon="-3.84186">
        <ele>130.1</ele>
        <time>2022-12-08T08:34:30Z</time>
      </trkpt>
      <trkpt lat="47.92768" lon="-3.84185">
        <ele>130.2</ele>
        <time>2022-12-08T08:34:31Z</time>
      </trkpt>
      <trkpt lat="47.92771" lon="-3.84182">
        <ele>130.4</ele>
        <time>2022-12-08T08:34:32Z</time>
      </trkpt>
      <trkpt lat="47.92772" lon="-3.84181">
        <ele>130.5</ele>
        <time>2022-12-08T08:34:33Z</time>
      </trkpt>
      <trkpt lat="47.92774" lon="-3.84178">
        <ele>130.7</ele>
        <time>2022-12-08T08:34:35Z</time>
      </trkpt>
      <trkpt lat="47.92776" lon="-3.84175">
        <ele>130.9</ele>
        <time>2022-12-08T08:34:36Z</time>
      </trkpt>
      <trkpt lat="47.92779" lon="-3.8417">
        <ele>131.1</ele>
        <time>2022-12-08T08:34:37Z</time>
      </trkpt>
      <trkpt lat="47.9278" lon="-3.84168">
        <ele>131.2</ele>
        <time>2022-12-08T08:34:38Z</time>
      </trkpt>
      <trkpt lat="47.92782" lon="-3.84166">
        <ele>131.4</ele>
        <time>2022-12-08T08:34:39Z</time>
      </trkpt>
      <trkpt lat="47.92784" lon="-3.8416">
        <ele>131.7</ele>
        <time>2022-12-08T08:34:41Z</time>
      </trkpt>
      <trkpt lat="47.92786" lon="-3.84155">
        <ele>131.9</ele>
        <time>2022-12-08T08:34:42Z</time>
      </trkpt>
      <trkpt lat="47.92786" lon="-3.84153">
        <ele>132</ele>
        <time>2022-12-08T08:34:43Z</time>
      </trkpt>
      <trkpt lat="47.92789" lon="-3.84149">
        <ele>132.2</ele>
        <time>2022-12-08T08:34:45Z</time>
      </trkpt>
      <trkpt lat="47.92791" lon="-3.84145">
        <ele>132.5</ele>
        <time>2022-12-08T08:34:46Z</time>
      </trkpt>
      <trkpt lat="47.92793" lon="-3.84142">
        <ele>132.7</ele>
        <time>2022-12-08T08:34:47Z</time>
      </trkpt>
      <trkpt lat="47.92798" lon="-3.84137">
        <ele>133</ele>
        <time>2022-12-08T08:34:49Z</time>
      </trkpt>
      <trkpt lat="47.928" lon="-3.84135">
        <ele>133.2</ele>
        <time>2022-12-08T08:34:50Z</time>
      </trkpt>
      <trkpt lat="47.92802" lon="-3.84134">
        <ele>133.3</ele>
        <time>2022-12-08T08:34:51Z</time>
      </trkpt>
      <trkpt lat="47.92805" lon="-3.8413">
        <ele>133.5</ele>
        <time>2022-12-08T08:34:52Z</time>
      </trkpt>
      <trkpt lat="47.92806" lon="-3.84129">
        <ele>133.6</ele>
        <time>2022-12-08T08:34:53Z</time>
      </trkpt>
      <trkpt lat="47.92809" lon="-3.84126">
        <ele>133.8</ele>
        <time>2022-12-08T08:34:54Z</time>
      </trkpt>
      <trkpt lat="47.9281" lon="-3.84125">
        <ele>133.9</ele>
        <time>2022-12-08T08:34:55Z</time>
      </trkpt>
      <trkpt lat="47.92812" lon="-3.84123">
        <ele>134</ele>
        <time>2022-12-08T08:34:56Z</time>
      </trkpt>
      <trkpt lat="47.92815" lon="-3.84121">
        <ele>134.2</ele>
        <time>2022-12-08T08:34:58Z</time>
      </trkpt>
      <trkpt lat="47.92818" lon="-3.84119">
        <ele>134.4</ele>
        <time>2022-12-08T08:34:59Z</time>
      </trkpt>
      <trkpt lat="47.92821" lon="-3.84118">
        <ele>134.5</ele>
        <time>2022-12-08T08:35:01Z</time>
      </trkpt>
      <trkpt lat="47.92826" lon="-3.84117">
        <ele>134.7</ele>
        <time>2022-12-08T08:35:02Z</time>
      </trkpt>
      <trkpt lat="47.9283" lon="-3.84115">
        <ele>134.9</ele>
        <time>2022-12-08T08:35:03Z</time>
      </trkpt>
      <trkpt lat="47.92832" lon="-3.84114">
        <ele>135</ele>
        <time>2022-12-08T08:35:04Z</time>
      </trkpt>
      <trkpt lat="47.92834" lon="-3.84113">
        <ele>135.1</ele>
        <time>2022-12-08T08:35:05Z</time>
      </trkpt>
      <trkpt lat="47.92837" lon="-3.84112">
        <ele>135.3</ele>
        <time>2022-12-08T08:35:06Z</time>
      </trkpt>
      <trkpt lat="47.92841" lon="-3.84109">
        <ele>135.5</ele>
        <time>2022-12-08T08:35:08Z</time>
      </trkpt>
      <trkpt lat="47.92845" lon="-3.84107">
        <ele>135.7</ele>
        <time>2022-12-08T08:35:09Z</time>
      </trkpt>
      <trkpt lat="47.92848" lon="-3.84106">
        <ele>135.8</ele>
        <time>2022-12-08T08:35:10Z</time>
      </trkpt>
      <trkpt lat="47.92852" lon="-3.84105">
        <ele>136</ele>
        <time>2022-12-08T08:35:11Z</time>
      </trkpt>
      <trkpt lat="47.92853" lon="-3.84105">
        <ele>136.1</ele>
        <time>2022-12-08T08:35:12Z</time>
      </trkpt>
      <trkpt lat="47.92856" lon="-3.84104">
        <ele>136.2</ele>
        <time>2022-12-08T08:35:13Z</time>
      </trkpt>
      <trkpt lat="47.92859" lon="-3.84102">
        <ele>136.4</ele>
        <time>2022-12-08T08:35:14Z</time>
      </trkpt>
      <trkpt lat="47.92862" lon="-3.84101">
        <ele>136.5</ele>
        <time>2022-12-08T08:35:15Z</time>
      </trkpt>
      <trkpt lat="47.92864" lon="-3.84101">
        <ele>136.6</ele>
        <time>2022-12-08T08:35:16Z</time>
      </trkpt>
      <trkpt lat="47.92868" lon="-3.84099">
        <ele>136.7</ele>
        <time>2022-12-08T08:35:17Z</time>
      </trkpt>
      <trkpt lat="47.92869" lon="-3.84098">
        <ele>136.8</ele>
        <time>2022-12-08T08:35:18Z</time>
      </trkpt>
      <trkpt lat="47.92872" lon="-3.84097">
        <ele>136.9</ele>
        <time>2022-12-08T08:35:19Z</time>
      </trkpt>
      <trkpt lat="47.92875" lon="-3.84097">
        <ele>137</ele>
        <time>2022-12-08T08:35:20Z</time>
      </trkpt>
      <trkpt lat="47.92879" lon="-3.84097">
        <ele>137.1</ele>
        <time>2022-12-08T08:35:21Z</time>
      </trkpt>
      <trkpt lat="47.92881" lon="-3.84097">
        <ele>137.2</ele>
        <time>2022-12-08T08:35:22Z</time>
      </trkpt>
      <trkpt lat="47.92884" lon="-3.84095">
        <ele>137.3</ele>
        <time>2022-12-08T08:35:23Z</time>
      </trkpt>
      <trkpt lat="47.92887" lon="-3.84094">
        <ele>137.4</ele>
        <time>2022-12-08T08:35:24Z</time>
      </trkpt>
      <trkpt lat="47.92891" lon="-3.84093">
        <ele>137.4</ele>
        <time>2022-12-08T08:35:25Z</time>
      </trkpt>
      <trkpt lat="47.92895" lon="-3.84091">
        <ele>137.5</ele>
        <time>2022-12-08T08:35:26Z</time>
      </trkpt>
      <trkpt lat="47.92896" lon="-3.8409">
        <ele>137.5</ele>
        <time>2022-12-08T08:35:27Z</time>
      </trkpt>
      <trkpt lat="47.92901" lon="-3.84089">
        <ele>137.6</ele>
        <time>2022-12-08T08:35:29Z</time>
      </trkpt>
      <trkpt lat="47.92906" lon="-3.84088">
        <ele>137.7</ele>
        <time>2022-12-08T08:35:30Z</time>
      </trkpt>
      <trkpt lat="47.92909" lon="-3.84087">
        <ele>137.7</ele>
        <time>2022-12-08T08:35:31Z</time>
      </trkpt>
      <trkpt lat="47.92914" lon="-3.84087">
        <ele>137.7</ele>
        <time>2022-12-08T08:35:32Z</time>
      </trkpt>
      <trkpt lat="47.92918" lon="-3.84086">
        <ele>137.7</ele>
        <time>2022-12-08T08:35:33Z</time>
      </trkpt>
      <trkpt lat="47.92922" lon="-3.84085">
        <ele>137.7</ele>
        <time>2022-12-08T08:35:34Z</time>
      </trkpt>
      <trkpt lat="47.92926" lon="-3.84083">
        <ele>137.7</ele>
        <time>2022-12-08T08:35:35Z</time>
      </trkpt>
      <trkpt lat="47.92929" lon="-3.84083">
        <ele>137.7</ele>
        <time>2022-12-08T08:35:36Z</time>
      </trkpt>
      <trkpt lat="47.92933" lon="-3.84083">
        <ele>137.7</ele>
        <time>2022-12-08T08:35:37Z</time>
      </trkpt>
      <trkpt lat="47.92937" lon="-3.84083">
        <ele>137.7</ele>
        <time>2022-12-08T08:35:38Z</time>
      </trkpt>
      <trkpt lat="47.92941" lon="-3.84085">
        <ele>137.7</ele>
        <time>2022-12-08T08:35:39Z</time>
      </trkpt>
      <trkpt lat="47.92945" lon="-3.84085">
        <ele>137.7</ele>
        <time>2022-12-08T08:35:40Z</time>
      </trkpt>
      <trkpt lat="47.92949" lon="-3.84085">
        <ele>137.7</ele>
        <time>2022-12-08T08:35:41Z</time>
      </trkpt>
      <trkpt lat="47.92953" lon="-3.84086">
        <ele>137.6</ele>
        <time>2022-12-08T08:35:42Z</time>
      </trkpt>
      <trkpt lat="47.92957" lon="-3.84087">
        <ele>137.6</ele>
        <time>2022-12-08T08:35:43Z</time>
      </trkpt>
      <trkpt lat="47.92961" lon="-3.84088">
        <ele>137.6</ele>
        <time>2022-12-08T08:35:44Z</time>
      </trkpt>
      <trkpt lat="47.92966" lon="-3.8409">
        <ele>137.5</ele>
        <time>2022-12-08T08:35:45Z</time>
      </trkpt>
      <trkpt lat="47.92968" lon="-3.8409">
        <ele>137.5</ele>
        <time>2022-12-08T08:35:46Z</time>
      </trkpt>
      <trkpt lat="47.92973" lon="-3.84092">
        <ele>137.4</ele>
        <time>2022-12-08T08:35:47Z</time>
      </trkpt>
      <trkpt lat="47.9298" lon="-3.84094">
        <ele>137.1</ele>
        <time>2022-12-08T08:35:49Z</time>
      </trkpt>
      <trkpt lat="47.92984" lon="-3.84095">
        <ele>136.9</ele>
        <time>2022-12-08T08:35:50Z</time>
      </trkpt>
      <trkpt lat="47.9299" lon="-3.84098">
        <ele>136.6</ele>
        <time>2022-12-08T08:35:51Z</time>
      </trkpt>
      <trkpt lat="47.92998" lon="-3.84102">
        <ele>136.2</ele>
        <time>2022-12-08T08:35:52Z</time>
      </trkpt>
      <trkpt lat="47.93004" lon="-3.84104">
        <ele>135.8</ele>
        <time>2022-12-08T08:35:53Z</time>
      </trkpt>
      <trkpt lat="47.9301" lon="-3.84106">
        <ele>135.5</ele>
        <time>2022-12-08T08:35:54Z</time>
      </trkpt>
      <trkpt lat="47.93016" lon="-3.84109">
        <ele>135.1</ele>
        <time>2022-12-08T08:35:55Z</time>
      </trkpt>
      <trkpt lat="47.93023" lon="-3.84111">
        <ele>134.8</ele>
        <time>2022-12-08T08:35:56Z</time>
      </trkpt>
      <trkpt lat="47.9303" lon="-3.84114">
        <ele>134.5</ele>
        <time>2022-12-08T08:35:57Z</time>
      </trkpt>
      <trkpt lat="47.93037" lon="-3.84117">
        <ele>134.2</ele>
        <time>2022-12-08T08:35:58Z</time>
      </trkpt>
      <trkpt lat="47.93044" lon="-3.84119">
        <ele>133.9</ele>
        <time>2022-12-08T08:35:59Z</time>
      </trkpt>
      <trkpt lat="47.93051" lon="-3.84121">
        <ele>133.7</ele>
        <time>2022-12-08T08:36:00Z</time>
      </trkpt>
      <trkpt lat="47.93058" lon="-3.84123">
        <ele>133.6</ele>
        <time>2022-12-08T08:36:01Z</time>
      </trkpt>
      <trkpt lat="47.93064" lon="-3.84125">
        <ele>133.6</ele>
        <time>2022-12-08T08:36:02Z</time>
      </trkpt>
      <trkpt lat="47.9307" lon="-3.84127">
        <ele>133.5</ele>
        <time>2022-12-08T08:36:03Z</time>
      </trkpt>
      <trkpt lat="47.93077" lon="-3.84129">
        <ele>133.5</ele>
        <time>2022-12-08T08:36:04Z</time>
      </trkpt>
      <trkpt lat="47.93083" lon="-3.8413">
        <ele>133.3</ele>
        <time>2022-12-08T08:36:05Z</time>
      </trkpt>
      <trkpt lat="47.93089" lon="-3.84132">
        <ele>133.2</ele>
        <time>2022-12-08T08:36:06Z</time>
      </trkpt>
      <trkpt lat="47.93094" lon="-3.84132">
        <ele>133</ele>
        <time>2022-12-08T08:36:07Z</time>
      </trkpt>
      <trkpt lat="47.93101" lon="-3.84132">
        <ele>132.8</ele>
        <time>2022-12-08T08:36:08Z</time>
      </trkpt>
      <trkpt lat="47.93106" lon="-3.8413">
        <ele>132.6</ele>
        <time>2022-12-08T08:36:09Z</time>
      </trkpt>
      <trkpt lat="47.93112" lon="-3.84129">
        <ele>132.4</ele>
        <time>2022-12-08T08:36:10Z</time>
      </trkpt>
      <trkpt lat="47.93118" lon="-3.84128">
        <ele>132.1</ele>
        <time>2022-12-08T08:36:11Z</time>
      </trkpt>
      <trkpt lat="47.93124" lon="-3.84128">
        <ele>131.8</ele>
        <time>2022-12-08T08:36:12Z</time>
      </trkpt>
      <trkpt lat="47.9313" lon="-3.84128">
        <ele>131.4</ele>
        <time>2022-12-08T08:36:13Z</time>
      </trkpt>
      <trkpt lat="47.93137" lon="-3.84128">
        <ele>130.9</ele>
        <time>2022-12-08T08:36:14Z</time>
      </trkpt>
      <trkpt lat="47.93144" lon="-3.84127">
        <ele>130.4</ele>
        <time>2022-12-08T08:36:15Z</time>
      </trkpt>
      <trkpt lat="47.93151" lon="-3.84127">
        <ele>129.9</ele>
        <time>2022-12-08T08:36:16Z</time>
      </trkpt>
      <trkpt lat="47.93157" lon="-3.84126">
        <ele>129.4</ele>
        <time>2022-12-08T08:36:17Z</time>
      </trkpt>
      <trkpt lat="47.93163" lon="-3.84125">
        <ele>129</ele>
        <time>2022-12-08T08:36:18Z</time>
      </trkpt>
      <trkpt lat="47.9317" lon="-3.84124">
        <ele>128.5</ele>
        <time>2022-12-08T08:36:19Z</time>
      </trkpt>
      <trkpt lat="47.93177" lon="-3.84121">
        <ele>128.1</ele>
        <time>2022-12-08T08:36:20Z</time>
      </trkpt>
      <trkpt lat="47.93184" lon="-3.84118">
        <ele>127.8</ele>
        <time>2022-12-08T08:36:21Z</time>
      </trkpt>
      <trkpt lat="47.9319" lon="-3.84116">
        <ele>127.5</ele>
        <time>2022-12-08T08:36:22Z</time>
      </trkpt>
      <trkpt lat="47.93196" lon="-3.84114">
        <ele>127.3</ele>
        <time>2022-12-08T08:36:23Z</time>
      </trkpt>
      <trkpt lat="47.93202" lon="-3.84114">
        <ele>127.1</ele>
        <time>2022-12-08T08:36:24Z</time>
      </trkpt>
      <trkpt lat="47.93209" lon="-3.84111">
        <ele>126.8</ele>
        <time>2022-12-08T08:36:25Z</time>
      </trkpt>
      <trkpt lat="47.93216" lon="-3.84109">
        <ele>126.5</ele>
        <time>2022-12-08T08:36:26Z</time>
      </trkpt>
      <trkpt lat="47.93223" lon="-3.84108">
        <ele>126.2</ele>
        <time>2022-12-08T08:36:27Z</time>
      </trkpt>
      <trkpt lat="47.9323" lon="-3.84109">
        <ele>125.9</ele>
        <time>2022-12-08T08:36:28Z</time>
      </trkpt>
      <trkpt lat="47.93237" lon="-3.84109">
        <ele>125.6</ele>
        <time>2022-12-08T08:36:29Z</time>
      </trkpt>
      <trkpt lat="47.93244" lon="-3.8411">
        <ele>125.4</ele>
        <time>2022-12-08T08:36:30Z</time>
      </trkpt>
      <trkpt lat="47.93251" lon="-3.8411">
        <ele>125.1</ele>
        <time>2022-12-08T08:36:31Z</time>
      </trkpt>
      <trkpt lat="47.93258" lon="-3.8411">
        <ele>124.9</ele>
        <time>2022-12-08T08:36:32Z</time>
      </trkpt>
      <trkpt lat="47.93264" lon="-3.84109">
        <ele>124.7</ele>
        <time>2022-12-08T08:36:33Z</time>
      </trkpt>
      <trkpt lat="47.93271" lon="-3.8411">
        <ele>124.5</ele>
        <time>2022-12-08T08:36:34Z</time>
      </trkpt>
      <trkpt lat="47.93277" lon="-3.84111">
        <ele>124.3</ele>
        <time>2022-12-08T08:36:35Z</time>
      </trkpt>
      <trkpt lat="47.93283" lon="-3.8411">
        <ele>124.1</ele>
        <time>2022-12-08T08:36:36Z</time>
      </trkpt>
      <trkpt lat="47.93289" lon="-3.8411">
        <ele>124</ele>
        <time>2022-12-08T08:36:37Z</time>
      </trkpt>
      <trkpt lat="47.93294" lon="-3.8411">
        <ele>123.8</ele>
        <time>2022-12-08T08:36:38Z</time>
      </trkpt>
      <trkpt lat="47.93299" lon="-3.8411">
        <ele>123.7</ele>
        <time>2022-12-08T08:36:39Z</time>
      </trkpt>
      <trkpt lat="47.93305" lon="-3.84108">
        <ele>123.6</ele>
        <time>2022-12-08T08:36:40Z</time>
      </trkpt>
      <trkpt lat="47.9331" lon="-3.84106">
        <ele>123.4</ele>
        <time>2022-12-08T08:36:41Z</time>
      </trkpt>
      <trkpt lat="47.93316" lon="-3.84106">
        <ele>123.3</ele>
        <time>2022-12-08T08:36:42Z</time>
      </trkpt>
      <trkpt lat="47.9332" lon="-3.84105">
        <ele>123.2</ele>
        <time>2022-12-08T08:36:43Z</time>
      </trkpt>
      <trkpt lat="47.93325" lon="-3.84103">
        <ele>123.1</ele>
        <time>2022-12-08T08:36:44Z</time>
      </trkpt>
      <trkpt lat="47.93328" lon="-3.84102">
        <ele>123.1</ele>
        <time>2022-12-08T08:36:45Z</time>
      </trkpt>
      <trkpt lat="47.93333" lon="-3.841">
        <ele>123</ele>
        <time>2022-12-08T08:36:46Z</time>
      </trkpt>
      <trkpt lat="47.93339" lon="-3.84097">
        <ele>122.8</ele>
        <time>2022-12-08T08:36:47Z</time>
      </trkpt>
      <trkpt lat="47.93344" lon="-3.84094">
        <ele>122.7</ele>
        <time>2022-12-08T08:36:48Z</time>
      </trkpt>
      <trkpt lat="47.93349" lon="-3.84091">
        <ele>122.6</ele>
        <time>2022-12-08T08:36:49Z</time>
      </trkpt>
      <trkpt lat="47.93354" lon="-3.84089">
        <ele>122.5</ele>
        <time>2022-12-08T08:36:50Z</time>
      </trkpt>
      <trkpt lat="47.9336" lon="-3.84086">
        <ele>122.4</ele>
        <time>2022-12-08T08:36:51Z</time>
      </trkpt>
      <trkpt lat="47.93364" lon="-3.84084">
        <ele>122.3</ele>
        <time>2022-12-08T08:36:52Z</time>
      </trkpt>
      <trkpt lat="47.93369" lon="-3.84083">
        <ele>122.2</ele>
        <time>2022-12-08T08:36:53Z</time>
      </trkpt>
      <trkpt lat="47.93374" lon="-3.84081">
        <ele>122.1</ele>
        <time>2022-12-08T08:36:54Z</time>
      </trkpt>
      <trkpt lat="47.93379" lon="-3.84079">
        <ele>122</ele>
        <time>2022-12-08T08:36:55Z</time>
      </trkpt>
      <trkpt lat="47.93385" lon="-3.84077">
        <ele>121.8</ele>
        <time>2022-12-08T08:36:56Z</time>
      </trkpt>
      <trkpt lat="47.9339" lon="-3.84076">
        <ele>121.7</ele>
        <time>2022-12-08T08:36:57Z</time>
      </trkpt>
      <trkpt lat="47.93395" lon="-3.84075">
        <ele>121.7</ele>
        <time>2022-12-08T08:36:58Z</time>
      </trkpt>
      <trkpt lat="47.934" lon="-3.84075">
        <ele>121.6</ele>
        <time>2022-12-08T08:36:59Z</time>
      </trkpt>
      <trkpt lat="47.93405" lon="-3.84077">
        <ele>121.5</ele>
        <time>2022-12-08T08:37:00Z</time>
      </trkpt>
      <trkpt lat="47.93411" lon="-3.84079">
        <ele>121.4</ele>
        <time>2022-12-08T08:37:01Z</time>
      </trkpt>
      <trkpt lat="47.93416" lon="-3.8408">
        <ele>121.3</ele>
        <time>2022-12-08T08:37:02Z</time>
      </trkpt>
      <trkpt lat="47.93422" lon="-3.84083">
        <ele>121.2</ele>
        <time>2022-12-08T08:37:03Z</time>
      </trkpt>
      <trkpt lat="47.93426" lon="-3.84085">
        <ele>121.1</ele>
        <time>2022-12-08T08:37:04Z</time>
      </trkpt>
      <trkpt lat="47.9343" lon="-3.84087">
        <ele>121</ele>
        <time>2022-12-08T08:37:05Z</time>
      </trkpt>
      <trkpt lat="47.93433" lon="-3.84088">
        <ele>121</ele>
        <time>2022-12-08T08:37:06Z</time>
      </trkpt>
      <trkpt lat="47.93438" lon="-3.8409">
        <ele>120.9</ele>
        <time>2022-12-08T08:37:07Z</time>
      </trkpt>
      <trkpt lat="47.93442" lon="-3.84091">
        <ele>120.9</ele>
        <time>2022-12-08T08:37:08Z</time>
      </trkpt>
      <trkpt lat="47.93447" lon="-3.84094">
        <ele>120.8</ele>
        <time>2022-12-08T08:37:09Z</time>
      </trkpt>
      <trkpt lat="47.93452" lon="-3.84097">
        <ele>120.8</ele>
        <time>2022-12-08T08:37:10Z</time>
      </trkpt>
      <trkpt lat="47.93457" lon="-3.84099">
        <ele>120.7</ele>
        <time>2022-12-08T08:37:11Z</time>
      </trkpt>
      <trkpt lat="47.93463" lon="-3.84102">
        <ele>120.6</ele>
        <time>2022-12-08T08:37:12Z</time>
      </trkpt>
      <trkpt lat="47.93468" lon="-3.84106">
        <ele>120.6</ele>
        <time>2022-12-08T08:37:13Z</time>
      </trkpt>
      <trkpt lat="47.93472" lon="-3.84109">
        <ele>120.5</ele>
        <time>2022-12-08T08:37:14Z</time>
      </trkpt>
      <trkpt lat="47.93476" lon="-3.84113">
        <ele>120.4</ele>
        <time>2022-12-08T08:37:15Z</time>
      </trkpt>
      <trkpt lat="47.93481" lon="-3.84117">
        <ele>120.4</ele>
        <time>2022-12-08T08:37:16Z</time>
      </trkpt>
      <trkpt lat="47.93485" lon="-3.8412">
        <ele>120.3</ele>
        <time>2022-12-08T08:37:17Z</time>
      </trkpt>
      <trkpt lat="47.93489" lon="-3.84123">
        <ele>120.2</ele>
        <time>2022-12-08T08:37:18Z</time>
      </trkpt>
      <trkpt lat="47.93492" lon="-3.84126">
        <ele>120.2</ele>
        <time>2022-12-08T08:37:19Z</time>
      </trkpt>
      <trkpt lat="47.93494" lon="-3.84128">
        <ele>120.1</ele>
        <time>2022-12-08T08:37:20Z</time>
      </trkpt>
      <trkpt lat="47.935" lon="-3.84134">
        <ele>120</ele>
        <time>2022-12-08T08:37:22Z</time>
      </trkpt>
      <trkpt lat="47.93505" lon="-3.84138">
        <ele>119.8</ele>
        <time>2022-12-08T08:37:23Z</time>
      </trkpt>
      <trkpt lat="47.93512" lon="-3.84141">
        <ele>119.6</ele>
        <time>2022-12-08T08:37:24Z</time>
      </trkpt>
      <trkpt lat="47.93518" lon="-3.84143">
        <ele>119.4</ele>
        <time>2022-12-08T08:37:25Z</time>
      </trkpt>
      <trkpt lat="47.93523" lon="-3.84145">
        <ele>119.2</ele>
        <time>2022-12-08T08:37:26Z</time>
      </trkpt>
      <trkpt lat="47.93529" lon="-3.84148">
        <ele>118.9</ele>
        <time>2022-12-08T08:37:27Z</time>
      </trkpt>
      <trkpt lat="47.93533" lon="-3.8415">
        <ele>118.7</ele>
        <time>2022-12-08T08:37:28Z</time>
      </trkpt>
      <trkpt lat="47.93539" lon="-3.84153">
        <ele>118.4</ele>
        <time>2022-12-08T08:37:29Z</time>
      </trkpt>
      <trkpt lat="47.93544" lon="-3.84155">
        <ele>118.2</ele>
        <time>2022-12-08T08:37:30Z</time>
      </trkpt>
      <trkpt lat="47.93548" lon="-3.84156">
        <ele>118</ele>
        <time>2022-12-08T08:37:31Z</time>
      </trkpt>
      <trkpt lat="47.93554" lon="-3.84158">
        <ele>117.6</ele>
        <time>2022-12-08T08:37:32Z</time>
      </trkpt>
      <trkpt lat="47.93559" lon="-3.84161">
        <ele>117.2</ele>
        <time>2022-12-08T08:37:33Z</time>
      </trkpt>
      <trkpt lat="47.93565" lon="-3.84162">
        <ele>116.9</ele>
        <time>2022-12-08T08:37:34Z</time>
      </trkpt>
      <trkpt lat="47.9357" lon="-3.84165">
        <ele>116.5</ele>
        <time>2022-12-08T08:37:35Z</time>
      </trkpt>
      <trkpt lat="47.93577" lon="-3.84169">
        <ele>116</ele>
        <time>2022-12-08T08:37:36Z</time>
      </trkpt>
      <trkpt lat="47.93584" lon="-3.84171">
        <ele>115.7</ele>
        <time>2022-12-08T08:37:37Z</time>
      </trkpt>
      <trkpt lat="47.9359" lon="-3.84176">
        <ele>115.5</ele>
        <time>2022-12-08T08:37:38Z</time>
      </trkpt>
      <trkpt lat="47.93595" lon="-3.84182">
        <ele>115.4</ele>
        <time>2022-12-08T08:37:39Z</time>
      </trkpt>
      <trkpt lat="47.936" lon="-3.84187">
        <ele>115.3</ele>
        <time>2022-12-08T08:37:40Z</time>
      </trkpt>
      <trkpt lat="47.93605" lon="-3.84191">
        <ele>115.3</ele>
        <time>2022-12-08T08:37:41Z</time>
      </trkpt>
      <trkpt lat="47.93609" lon="-3.84196">
        <ele>115.3</ele>
        <time>2022-12-08T08:37:42Z</time>
      </trkpt>
      <trkpt lat="47.93613" lon="-3.84201">
        <ele>115.3</ele>
        <time>2022-12-08T08:37:43Z</time>
      </trkpt>
      <trkpt lat="47.93617" lon="-3.84204">
        <ele>115.3</ele>
        <time>2022-12-08T08:37:44Z</time>
      </trkpt>
      <trkpt lat="47.93623" lon="-3.84206">
        <ele>115.3</ele>
        <time>2022-12-08T08:37:45Z</time>
      </trkpt>
      <trkpt lat="47.93628" lon="-3.84207">
        <ele>115.4</ele>
        <time>2022-12-08T08:37:46Z</time>
      </trkpt>
      <trkpt lat="47.93633" lon="-3.84205">
        <ele>115.5</ele>
        <time>2022-12-08T08:37:47Z</time>
      </trkpt>
      <trkpt lat="47.93638" lon="-3.84204">
        <ele>115.6</ele>
        <time>2022-12-08T08:37:48Z</time>
      </trkpt>
      <trkpt lat="47.93644" lon="-3.84201">
        <ele>115.8</ele>
        <time>2022-12-08T08:37:49Z</time>
      </trkpt>
      <trkpt lat="47.93649" lon="-3.84198">
        <ele>116</ele>
        <time>2022-12-08T08:37:50Z</time>
      </trkpt>
      <trkpt lat="47.93653" lon="-3.84195">
        <ele>116.3</ele>
        <time>2022-12-08T08:37:51Z</time>
      </trkpt>
      <trkpt lat="47.93657" lon="-3.84192">
        <ele>116.5</ele>
        <time>2022-12-08T08:37:52Z</time>
      </trkpt>
      <trkpt lat="47.93661" lon="-3.84189">
        <ele>116.8</ele>
        <time>2022-12-08T08:37:53Z</time>
      </trkpt>
      <trkpt lat="47.93664" lon="-3.84187">
        <ele>117</ele>
        <time>2022-12-08T08:37:54Z</time>
      </trkpt>
      <trkpt lat="47.93668" lon="-3.84185">
        <ele>117.3</ele>
        <time>2022-12-08T08:37:55Z</time>
      </trkpt>
      <trkpt lat="47.93671" lon="-3.84184">
        <ele>117.5</ele>
        <time>2022-12-08T08:37:56Z</time>
      </trkpt>
      <trkpt lat="47.93675" lon="-3.84182">
        <ele>117.8</ele>
        <time>2022-12-08T08:37:57Z</time>
      </trkpt>
      <trkpt lat="47.93678" lon="-3.8418">
        <ele>118.1</ele>
        <time>2022-12-08T08:37:58Z</time>
      </trkpt>
      <trkpt lat="47.93681" lon="-3.84178">
        <ele>118.3</ele>
        <time>2022-12-08T08:37:59Z</time>
      </trkpt>
      <trkpt lat="47.93684" lon="-3.84177">
        <ele>118.5</ele>
        <time>2022-12-08T08:38:00Z</time>
      </trkpt>
      <trkpt lat="47.93687" lon="-3.84175">
        <ele>118.8</ele>
        <time>2022-12-08T08:38:01Z</time>
      </trkpt>
      <trkpt lat="47.93691" lon="-3.84173">
        <ele>119</ele>
        <time>2022-12-08T08:38:02Z</time>
      </trkpt>
      <trkpt lat="47.93694" lon="-3.84171">
        <ele>119.2</ele>
        <time>2022-12-08T08:38:03Z</time>
      </trkpt>
      <trkpt lat="47.937" lon="-3.84168">
        <ele>119.5</ele>
        <time>2022-12-08T08:38:05Z</time>
      </trkpt>
      <trkpt lat="47.93706" lon="-3.84165">
        <ele>119.9</ele>
        <time>2022-12-08T08:38:07Z</time>
      </trkpt>
      <trkpt lat="47.9371" lon="-3.84164">
        <ele>120</ele>
        <time>2022-12-08T08:38:08Z</time>
      </trkpt>
      <trkpt lat="47.93713" lon="-3.84162">
        <ele>120.2</ele>
        <time>2022-12-08T08:38:09Z</time>
      </trkpt>
      <trkpt lat="47.93715" lon="-3.84159">
        <ele>120.3</ele>
        <time>2022-12-08T08:38:10Z</time>
      </trkpt>
      <trkpt lat="47.9372" lon="-3.84156">
        <ele>120.5</ele>
        <time>2022-12-08T08:38:12Z</time>
      </trkpt>
      <trkpt lat="47.93725" lon="-3.84152">
        <ele>120.7</ele>
        <time>2022-12-08T08:38:13Z</time>
      </trkpt>
      <trkpt lat="47.93728" lon="-3.84148">
        <ele>120.8</ele>
        <time>2022-12-08T08:38:14Z</time>
      </trkpt>
      <trkpt lat="47.93733" lon="-3.84145">
        <ele>121</ele>
        <time>2022-12-08T08:38:16Z</time>
      </trkpt>
      <trkpt lat="47.93738" lon="-3.8414">
        <ele>121.1</ele>
        <time>2022-12-08T08:38:17Z</time>
      </trkpt>
      <trkpt lat="47.93741" lon="-3.84138">
        <ele>121.1</ele>
        <time>2022-12-08T08:38:18Z</time>
      </trkpt>
      <trkpt lat="47.93744" lon="-3.84135">
        <ele>121.2</ele>
        <time>2022-12-08T08:38:19Z</time>
      </trkpt>
      <trkpt lat="47.93748" lon="-3.84132">
        <ele>121.2</ele>
        <time>2022-12-08T08:38:20Z</time>
      </trkpt>
      <trkpt lat="47.93751" lon="-3.8413">
        <ele>121.2</ele>
        <time>2022-12-08T08:38:21Z</time>
      </trkpt>
      <trkpt lat="47.93755" lon="-3.84127">
        <ele>121.2</ele>
        <time>2022-12-08T08:38:22Z</time>
      </trkpt>
      <trkpt lat="47.93758" lon="-3.84124">
        <ele>121.1</ele>
        <time>2022-12-08T08:38:23Z</time>
      </trkpt>
      <trkpt lat="47.93762" lon="-3.8412">
        <ele>121.1</ele>
        <time>2022-12-08T08:38:24Z</time>
      </trkpt>
      <trkpt lat="47.93766" lon="-3.84117">
        <ele>121</ele>
        <time>2022-12-08T08:38:25Z</time>
      </trkpt>
      <trkpt lat="47.9377" lon="-3.84114">
        <ele>120.9</ele>
        <time>2022-12-08T08:38:26Z</time>
      </trkpt>
      <trkpt lat="47.93774" lon="-3.84111">
        <ele>120.8</ele>
        <time>2022-12-08T08:38:27Z</time>
      </trkpt>
      <trkpt lat="47.93779" lon="-3.84107">
        <ele>120.6</ele>
        <time>2022-12-08T08:38:28Z</time>
      </trkpt>
      <trkpt lat="47.93782" lon="-3.84104">
        <ele>120.5</ele>
        <time>2022-12-08T08:38:29Z</time>
      </trkpt>
      <trkpt lat="47.93786" lon="-3.841">
        <ele>120.3</ele>
        <time>2022-12-08T08:38:30Z</time>
      </trkpt>
      <trkpt lat="47.93791" lon="-3.84096">
        <ele>120</ele>
        <time>2022-12-08T08:38:31Z</time>
      </trkpt>
      <trkpt lat="47.93796" lon="-3.84092">
        <ele>119.6</ele>
        <time>2022-12-08T08:38:32Z</time>
      </trkpt>
      <trkpt lat="47.93801" lon="-3.84087">
        <ele>119.2</ele>
        <time>2022-12-08T08:38:33Z</time>
      </trkpt>
      <trkpt lat="47.93807" lon="-3.84082">
        <ele>118.6</ele>
        <time>2022-12-08T08:38:34Z</time>
      </trkpt>
      <trkpt lat="47.93813" lon="-3.84078">
        <ele>118</ele>
        <time>2022-12-08T08:38:35Z</time>
      </trkpt>
      <trkpt lat="47.93819" lon="-3.84074">
        <ele>117.4</ele>
        <time>2022-12-08T08:38:36Z</time>
      </trkpt>
      <trkpt lat="47.93827" lon="-3.84071">
        <ele>116.7</ele>
        <time>2022-12-08T08:38:37Z</time>
      </trkpt>
      <trkpt lat="47.93835" lon="-3.84068">
        <ele>115.9</ele>
        <time>2022-12-08T08:38:38Z</time>
      </trkpt>
      <trkpt lat="47.93843" lon="-3.84065">
        <ele>115</ele>
        <time>2022-12-08T08:38:39Z</time>
      </trkpt>
      <trkpt lat="47.93851" lon="-3.84062">
        <ele>114.2</ele>
        <time>2022-12-08T08:38:40Z</time>
      </trkpt>
      <trkpt lat="47.93859" lon="-3.84059">
        <ele>113.5</ele>
        <time>2022-12-08T08:38:41Z</time>
      </trkpt>
      <trkpt lat="47.93867" lon="-3.84057">
        <ele>112.9</ele>
        <time>2022-12-08T08:38:42Z</time>
      </trkpt>
      <trkpt lat="47.93873" lon="-3.84055">
        <ele>112.4</ele>
        <time>2022-12-08T08:38:43Z</time>
      </trkpt>
      <trkpt lat="47.93879" lon="-3.84054">
        <ele>112</ele>
        <time>2022-12-08T08:38:44Z</time>
      </trkpt>
      <trkpt lat="47.93884" lon="-3.84051">
        <ele>111.6</ele>
        <time>2022-12-08T08:38:45Z</time>
      </trkpt>
      <trkpt lat="47.9389" lon="-3.84049">
        <ele>111.2</ele>
        <time>2022-12-08T08:38:46Z</time>
      </trkpt>
      <trkpt lat="47.93896" lon="-3.84045">
        <ele>110.8</ele>
        <time>2022-12-08T08:38:47Z</time>
      </trkpt>
      <trkpt lat="47.93902" lon="-3.84042">
        <ele>110.4</ele>
        <time>2022-12-08T08:38:48Z</time>
      </trkpt>
      <trkpt lat="47.93908" lon="-3.8404">
        <ele>110</ele>
        <time>2022-12-08T08:38:49Z</time>
      </trkpt>
      <trkpt lat="47.93914" lon="-3.84039">
        <ele>109.6</ele>
        <time>2022-12-08T08:38:50Z</time>
      </trkpt>
      <trkpt lat="47.93919" lon="-3.84038">
        <ele>109.3</ele>
        <time>2022-12-08T08:38:51Z</time>
      </trkpt>
      <trkpt lat="47.93924" lon="-3.84037">
        <ele>109.1</ele>
        <time>2022-12-08T08:38:52Z</time>
      </trkpt>
      <trkpt lat="47.93928" lon="-3.84035">
        <ele>109</ele>
        <time>2022-12-08T08:38:53Z</time>
      </trkpt>
      <trkpt lat="47.9393" lon="-3.84032">
        <ele>109</ele>
        <time>2022-12-08T08:38:54Z</time>
      </trkpt>
      <trkpt lat="47.93932" lon="-3.84027">
        <ele>108.9</ele>
        <time>2022-12-08T08:38:55Z</time>
      </trkpt>
      <trkpt lat="47.93933" lon="-3.84025">
        <ele>108.9</ele>
        <time>2022-12-08T08:38:56Z</time>
      </trkpt>
      <trkpt lat="47.93935" lon="-3.84022">
        <ele>108.8</ele>
        <time>2022-12-08T08:38:57Z</time>
      </trkpt>
      <trkpt lat="47.93938" lon="-3.84018">
        <ele>108.8</ele>
        <time>2022-12-08T08:38:58Z</time>
      </trkpt>
      <trkpt lat="47.93939" lon="-3.84017">
        <ele>108.8</ele>
        <time>2022-12-08T08:38:59Z</time>
      </trkpt>
      <trkpt lat="47.93942" lon="-3.84014">
        <ele>108.8</ele>
        <time>2022-12-08T08:39:00Z</time>
      </trkpt>
      <trkpt lat="47.93944" lon="-3.84011">
        <ele>108.9</ele>
        <time>2022-12-08T08:39:02Z</time>
      </trkpt>
      <trkpt lat="47.93946" lon="-3.8401">
        <ele>108.9</ele>
        <time>2022-12-08T08:39:03Z</time>
      </trkpt>
      <trkpt lat="47.9395" lon="-3.84008">
        <ele>108.9</ele>
        <time>2022-12-08T08:39:04Z</time>
      </trkpt>
      <trkpt lat="47.93954" lon="-3.84005">
        <ele>109</ele>
        <time>2022-12-08T08:39:05Z</time>
      </trkpt>
      <trkpt lat="47.93957" lon="-3.84002">
        <ele>109.1</ele>
        <time>2022-12-08T08:39:06Z</time>
      </trkpt>
      <trkpt lat="47.93961" lon="-3.83998">
        <ele>109.2</ele>
        <time>2022-12-08T08:39:07Z</time>
      </trkpt>
      <trkpt lat="47.93963" lon="-3.83995">
        <ele>109.3</ele>
        <time>2022-12-08T08:39:08Z</time>
      </trkpt>
      <trkpt lat="47.93966" lon="-3.83991">
        <ele>109.5</ele>
        <time>2022-12-08T08:39:09Z</time>
      </trkpt>
      <trkpt lat="47.93968" lon="-3.83989">
        <ele>109.6</ele>
        <time>2022-12-08T08:39:10Z</time>
      </trkpt>
      <trkpt lat="47.9397" lon="-3.83985">
        <ele>109.9</ele>
        <time>2022-12-08T08:39:12Z</time>
      </trkpt>
      <trkpt lat="47.93974" lon="-3.83982">
        <ele>110.2</ele>
        <time>2022-12-08T08:39:13Z</time>
      </trkpt>
      <trkpt lat="47.93975" lon="-3.83981">
        <ele>110.3</ele>
        <time>2022-12-08T08:39:14Z</time>
      </trkpt>
      <trkpt lat="47.93978" lon="-3.83978">
        <ele>110.7</ele>
        <time>2022-12-08T08:39:15Z</time>
      </trkpt>
      <trkpt lat="47.93981" lon="-3.83976">
        <ele>111.1</ele>
        <time>2022-12-08T08:39:16Z</time>
      </trkpt>
      <trkpt lat="47.93982" lon="-3.83975">
        <ele>111.2</ele>
        <time>2022-12-08T08:39:17Z</time>
      </trkpt>
      <trkpt lat="47.93984" lon="-3.83973">
        <ele>111.5</ele>
        <time>2022-12-08T08:39:19Z</time>
      </trkpt>
      <trkpt lat="47.93985" lon="-3.83972">
        <ele>111.7</ele>
        <time>2022-12-08T08:39:20Z</time>
      </trkpt>
      <trkpt lat="47.93988" lon="-3.83971">
        <ele>112.1</ele>
        <time>2022-12-08T08:39:21Z</time>
      </trkpt>
      <trkpt lat="47.93989" lon="-3.83971">
        <ele>112.2</ele>
        <time>2022-12-08T08:39:22Z</time>
      </trkpt>
      <trkpt lat="47.93991" lon="-3.8397">
        <ele>112.5</ele>
        <time>2022-12-08T08:39:23Z</time>
      </trkpt>
      <trkpt lat="47.93992" lon="-3.8397">
        <ele>112.6</ele>
        <time>2022-12-08T08:39:24Z</time>
      </trkpt>
      <trkpt lat="47.93994" lon="-3.83968">
        <ele>113</ele>
        <time>2022-12-08T08:39:25Z</time>
      </trkpt>
      <trkpt lat="47.93996" lon="-3.83967">
        <ele>113.3</ele>
        <time>2022-12-08T08:39:26Z</time>
      </trkpt>
      <trkpt lat="47.93998" lon="-3.83967">
        <ele>113.6</ele>
        <time>2022-12-08T08:39:27Z</time>
      </trkpt>
      <trkpt lat="47.94" lon="-3.83966">
        <ele>113.9</ele>
        <time>2022-12-08T08:39:29Z</time>
      </trkpt>
      <trkpt lat="47.94004" lon="-3.83964">
        <ele>114.5</ele>
        <time>2022-12-08T08:39:30Z</time>
      </trkpt>
      <trkpt lat="47.94005" lon="-3.83962">
        <ele>114.7</ele>
        <time>2022-12-08T08:39:31Z</time>
      </trkpt>
      <trkpt lat="47.94007" lon="-3.83962">
        <ele>114.9</ele>
        <time>2022-12-08T08:39:32Z</time>
      </trkpt>
      <trkpt lat="47.94008" lon="-3.83961">
        <ele>115.2</ele>
        <time>2022-12-08T08:39:33Z</time>
      </trkpt>
      <trkpt lat="47.94011" lon="-3.8396">
        <ele>115.6</ele>
        <time>2022-12-08T08:39:34Z</time>
      </trkpt>
      <trkpt lat="47.94012" lon="-3.83959">
        <ele>115.8</ele>
        <time>2022-12-08T08:39:35Z</time>
      </trkpt>
      <trkpt lat="47.94014" lon="-3.83958">
        <ele>116</ele>
        <time>2022-12-08T08:39:36Z</time>
      </trkpt>
      <trkpt lat="47.94015" lon="-3.83958">
        <ele>116.3</ele>
        <time>2022-12-08T08:39:37Z</time>
      </trkpt>
      <trkpt lat="47.94018" lon="-3.83957">
        <ele>116.7</ele>
        <time>2022-12-08T08:39:38Z</time>
      </trkpt>
      <trkpt lat="47.94019" lon="-3.83956">
        <ele>116.9</ele>
        <time>2022-12-08T08:39:39Z</time>
      </trkpt>
      <trkpt lat="47.94022" lon="-3.83955">
        <ele>117.3</ele>
        <time>2022-12-08T08:39:40Z</time>
      </trkpt>
      <trkpt lat="47.94023" lon="-3.83955">
        <ele>117.4</ele>
        <time>2022-12-08T08:39:41Z</time>
      </trkpt>
      <trkpt lat="47.94024" lon="-3.83953">
        <ele>117.7</ele>
        <time>2022-12-08T08:39:42Z</time>
      </trkpt>
      <trkpt lat="47.94026" lon="-3.83952">
        <ele>118</ele>
        <time>2022-12-08T08:39:43Z</time>
      </trkpt>
      <trkpt lat="47.94027" lon="-3.83951">
        <ele>118.3</ele>
        <time>2022-12-08T08:39:44Z</time>
      </trkpt>
      <trkpt lat="47.94029" lon="-3.8395">
        <ele>118.5</ele>
        <time>2022-12-08T08:39:45Z</time>
      </trkpt>
      <trkpt lat="47.94031" lon="-3.83949">
        <ele>118.8</ele>
        <time>2022-12-08T08:39:46Z</time>
      </trkpt>
      <trkpt lat="47.94032" lon="-3.83948">
        <ele>119</ele>
        <time>2022-12-08T08:39:47Z</time>
      </trkpt>
      <trkpt lat="47.94034" lon="-3.83948">
        <ele>119.3</ele>
        <time>2022-12-08T08:39:48Z</time>
      </trkpt>
      <trkpt lat="47.94035" lon="-3.83947">
        <ele>119.5</ele>
        <time>2022-12-08T08:39:49Z</time>
      </trkpt>
      <trkpt lat="47.94037" lon="-3.83946">
        <ele>119.7</ele>
        <time>2022-12-08T08:39:50Z</time>
      </trkpt>
      <trkpt lat="47.94038" lon="-3.83945">
        <ele>119.9</ele>
        <time>2022-12-08T08:39:51Z</time>
      </trkpt>
      <trkpt lat="47.94041" lon="-3.83943">
        <ele>120.4</ele>
        <time>2022-12-08T08:39:52Z</time>
      </trkpt>
      <trkpt lat="47.94042" lon="-3.83943">
        <ele>120.5</ele>
        <time>2022-12-08T08:39:53Z</time>
      </trkpt>
      <trkpt lat="47.94045" lon="-3.8394">
        <ele>121.1</ele>
        <time>2022-12-08T08:39:55Z</time>
      </trkpt>
      <trkpt lat="47.94046" lon="-3.83939">
        <ele>121.3</ele>
        <time>2022-12-08T08:39:56Z</time>
      </trkpt>
      <trkpt lat="47.94048" lon="-3.83937">
        <ele>121.5</ele>
        <time>2022-12-08T08:39:57Z</time>
      </trkpt>
      <trkpt lat="47.94051" lon="-3.83936">
        <ele>121.9</ele>
        <time>2022-12-08T08:39:59Z</time>
      </trkpt>
      <trkpt lat="47.94053" lon="-3.83934">
        <ele>122.2</ele>
        <time>2022-12-08T08:40:00Z</time>
      </trkpt>
      <trkpt lat="47.94056" lon="-3.83933">
        <ele>122.6</ele>
        <time>2022-12-08T08:40:01Z</time>
      </trkpt>
      <trkpt lat="47.94057" lon="-3.83932">
        <ele>122.8</ele>
        <time>2022-12-08T08:40:02Z</time>
      </trkpt>
      <trkpt lat="47.9406" lon="-3.83931">
        <ele>123.1</ele>
        <time>2022-12-08T08:40:03Z</time>
      </trkpt>
      <trkpt lat="47.94061" lon="-3.83931">
        <ele>123.3</ele>
        <time>2022-12-08T08:40:04Z</time>
      </trkpt>
      <trkpt lat="47.94063" lon="-3.8393">
        <ele>123.5</ele>
        <time>2022-12-08T08:40:05Z</time>
      </trkpt>
      <trkpt lat="47.94064" lon="-3.83929">
        <ele>123.7</ele>
        <time>2022-12-08T08:40:06Z</time>
      </trkpt>
      <trkpt lat="47.94066" lon="-3.83929">
        <ele>123.9</ele>
        <time>2022-12-08T08:40:07Z</time>
      </trkpt>
      <trkpt lat="47.9407" lon="-3.83929">
        <ele>124.3</ele>
        <time>2022-12-08T08:40:09Z</time>
      </trkpt>
      <trkpt lat="47.94073" lon="-3.83928">
        <ele>124.7</ele>
        <time>2022-12-08T08:40:10Z</time>
      </trkpt>
      <trkpt lat="47.94074" lon="-3.83928">
        <ele>124.8</ele>
        <time>2022-12-08T08:40:11Z</time>
      </trkpt>
      <trkpt lat="47.94077" lon="-3.83926">
        <ele>125.1</ele>
        <time>2022-12-08T08:40:12Z</time>
      </trkpt>
      <trkpt lat="47.94078" lon="-3.83925">
        <ele>125.2</ele>
        <time>2022-12-08T08:40:13Z</time>
      </trkpt>
      <trkpt lat="47.94081" lon="-3.83924">
        <ele>125.6</ele>
        <time>2022-12-08T08:40:15Z</time>
      </trkpt>
      <trkpt lat="47.94083" lon="-3.83923">
        <ele>125.8</ele>
        <time>2022-12-08T08:40:16Z</time>
      </trkpt>
      <trkpt lat="47.94086" lon="-3.83921">
        <ele>126.1</ele>
        <time>2022-12-08T08:40:17Z</time>
      </trkpt>
      <trkpt lat="47.94087" lon="-3.83921">
        <ele>126.2</ele>
        <time>2022-12-08T08:40:18Z</time>
      </trkpt>
      <trkpt lat="47.94088" lon="-3.83919">
        <ele>126.3</ele>
        <time>2022-12-08T08:40:19Z</time>
      </trkpt>
      <trkpt lat="47.94092" lon="-3.83917">
        <ele>126.7</ele>
        <time>2022-12-08T08:40:21Z</time>
      </trkpt>
      <trkpt lat="47.94095" lon="-3.83915">
        <ele>127</ele>
        <time>2022-12-08T08:40:22Z</time>
      </trkpt>
      <trkpt lat="47.94097" lon="-3.83912">
        <ele>127.3</ele>
        <time>2022-12-08T08:40:23Z</time>
      </trkpt>
      <trkpt lat="47.94098" lon="-3.83911">
        <ele>127.3</ele>
        <time>2022-12-08T08:40:24Z</time>
      </trkpt>
      <trkpt lat="47.94099" lon="-3.8391">
        <ele>127.5</ele>
        <time>2022-12-08T08:40:25Z</time>
      </trkpt>
      <trkpt lat="47.94101" lon="-3.83909">
        <ele>127.7</ele>
        <time>2022-12-08T08:40:26Z</time>
      </trkpt>
      <trkpt lat="47.94103" lon="-3.83907">
        <ele>127.9</ele>
        <time>2022-12-08T08:40:27Z</time>
      </trkpt>
      <trkpt lat="47.94105" lon="-3.83906">
        <ele>128.1</ele>
        <time>2022-12-08T08:40:29Z</time>
      </trkpt>
      <trkpt lat="47.94108" lon="-3.83903">
        <ele>128.5</ele>
        <time>2022-12-08T08:40:30Z</time>
      </trkpt>
      <trkpt lat="47.94109" lon="-3.83902">
        <ele>128.6</ele>
        <time>2022-12-08T08:40:31Z</time>
      </trkpt>
      <trkpt lat="47.94112" lon="-3.839">
        <ele>128.9</ele>
        <time>2022-12-08T08:40:32Z</time>
      </trkpt>
      <trkpt lat="47.94113" lon="-3.83899">
        <ele>129</ele>
        <time>2022-12-08T08:40:33Z</time>
      </trkpt>
      <trkpt lat="47.94114" lon="-3.83897">
        <ele>129.2</ele>
        <time>2022-12-08T08:40:34Z</time>
      </trkpt>
      <trkpt lat="47.94117" lon="-3.83896">
        <ele>129.5</ele>
        <time>2022-12-08T08:40:36Z</time>
      </trkpt>
      <trkpt lat="47.94118" lon="-3.83894">
        <ele>129.6</ele>
        <time>2022-12-08T08:40:37Z</time>
      </trkpt>
      <trkpt lat="47.9412" lon="-3.83892">
        <ele>129.8</ele>
        <time>2022-12-08T08:40:38Z</time>
      </trkpt>
      <trkpt lat="47.94122" lon="-3.83889">
        <ele>130.1</ele>
        <time>2022-12-08T08:40:39Z</time>
      </trkpt>
      <trkpt lat="47.94125" lon="-3.83886">
        <ele>130.4</ele>
        <time>2022-12-08T08:40:40Z</time>
      </trkpt>
      <trkpt lat="47.94125" lon="-3.83885">
        <ele>130.5</ele>
        <time>2022-12-08T08:40:41Z</time>
      </trkpt>
      <trkpt lat="47.94128" lon="-3.83883">
        <ele>130.8</ele>
        <time>2022-12-08T08:40:42Z</time>
      </trkpt>
      <trkpt lat="47.94129" lon="-3.83882">
        <ele>130.9</ele>
        <time>2022-12-08T08:40:43Z</time>
      </trkpt>
      <trkpt lat="47.9413" lon="-3.8388">
        <ele>131.1</ele>
        <time>2022-12-08T08:40:44Z</time>
      </trkpt>
      <trkpt lat="47.94132" lon="-3.83879">
        <ele>131.3</ele>
        <time>2022-12-08T08:40:45Z</time>
      </trkpt>
      <trkpt lat="47.94134" lon="-3.83877">
        <ele>131.6</ele>
        <time>2022-12-08T08:40:46Z</time>
      </trkpt>
      <trkpt lat="47.94135" lon="-3.83876">
        <ele>131.7</ele>
        <time>2022-12-08T08:40:47Z</time>
      </trkpt>
      <trkpt lat="47.94138" lon="-3.83875">
        <ele>132.1</ele>
        <time>2022-12-08T08:40:48Z</time>
      </trkpt>
      <trkpt lat="47.94139" lon="-3.83874">
        <ele>132.2</ele>
        <time>2022-12-08T08:40:49Z</time>
      </trkpt>
      <trkpt lat="47.94141" lon="-3.83873">
        <ele>132.4</ele>
        <time>2022-12-08T08:40:50Z</time>
      </trkpt>
      <trkpt lat="47.94143" lon="-3.83873">
        <ele>132.6</ele>
        <time>2022-12-08T08:40:51Z</time>
      </trkpt>
      <trkpt lat="47.94145" lon="-3.83871">
        <ele>132.9</ele>
        <time>2022-12-08T08:40:52Z</time>
      </trkpt>
      <trkpt lat="47.94145" lon="-3.8387">
        <ele>133</ele>
        <time>2022-12-08T08:40:53Z</time>
      </trkpt>
      <trkpt lat="47.94146" lon="-3.83869">
        <ele>133.2</ele>
        <time>2022-12-08T08:40:54Z</time>
      </trkpt>
      <trkpt lat="47.94149" lon="-3.83866">
        <ele>133.5</ele>
        <time>2022-12-08T08:40:55Z</time>
      </trkpt>
      <trkpt lat="47.94149" lon="-3.83865">
        <ele>133.7</ele>
        <time>2022-12-08T08:40:56Z</time>
      </trkpt>
      <trkpt lat="47.94152" lon="-3.83863">
        <ele>134.1</ele>
        <time>2022-12-08T08:40:57Z</time>
      </trkpt>
      <trkpt lat="47.94153" lon="-3.83862">
        <ele>134.2</ele>
        <time>2022-12-08T08:40:58Z</time>
      </trkpt>
      <trkpt lat="47.94155" lon="-3.8386">
        <ele>134.5</ele>
        <time>2022-12-08T08:40:59Z</time>
      </trkpt>
      <trkpt lat="47.94156" lon="-3.83859">
        <ele>134.6</ele>
        <time>2022-12-08T08:41:00Z</time>
      </trkpt>
      <trkpt lat="47.94158" lon="-3.83857">
        <ele>134.9</ele>
        <time>2022-12-08T08:41:01Z</time>
      </trkpt>
      <trkpt lat="47.9416" lon="-3.83855">
        <ele>135.2</ele>
        <time>2022-12-08T08:41:03Z</time>
      </trkpt>
      <trkpt lat="47.94161" lon="-3.83853">
        <ele>135.5</ele>
        <time>2022-12-08T08:41:04Z</time>
      </trkpt>
      <trkpt lat="47.94164" lon="-3.83852">
        <ele>135.8</ele>
        <time>2022-12-08T08:41:06Z</time>
      </trkpt>
      <trkpt lat="47.94166" lon="-3.83849">
        <ele>136.2</ele>
        <time>2022-12-08T08:41:07Z</time>
      </trkpt>
      <trkpt lat="47.94168" lon="-3.83849">
        <ele>136.3</ele>
        <time>2022-12-08T08:41:08Z</time>
      </trkpt>
      <trkpt lat="47.94169" lon="-3.83847">
        <ele>136.6</ele>
        <time>2022-12-08T08:41:09Z</time>
      </trkpt>
      <trkpt lat="47.94172" lon="-3.83846">
        <ele>136.9</ele>
        <time>2022-12-08T08:41:11Z</time>
      </trkpt>
      <trkpt lat="47.94175" lon="-3.83845">
        <ele>137.3</ele>
        <time>2022-12-08T08:41:12Z</time>
      </trkpt>
      <trkpt lat="47.94176" lon="-3.83844">
        <ele>137.5</ele>
        <time>2022-12-08T08:41:13Z</time>
      </trkpt>
      <trkpt lat="47.94178" lon="-3.83842">
        <ele>137.8</ele>
        <time>2022-12-08T08:41:15Z</time>
      </trkpt>
      <trkpt lat="47.94179" lon="-3.83841">
        <ele>137.9</ele>
        <time>2022-12-08T08:41:16Z</time>
      </trkpt>
      <trkpt lat="47.94182" lon="-3.83839">
        <ele>138.3</ele>
        <time>2022-12-08T08:41:17Z</time>
      </trkpt>
      <trkpt lat="47.94184" lon="-3.83836">
        <ele>138.6</ele>
        <time>2022-12-08T08:41:18Z</time>
      </trkpt>
      <trkpt lat="47.94185" lon="-3.83835">
        <ele>138.7</ele>
        <time>2022-12-08T08:41:19Z</time>
      </trkpt>
      <trkpt lat="47.94186" lon="-3.83834">
        <ele>138.8</ele>
        <time>2022-12-08T08:41:20Z</time>
      </trkpt>
      <trkpt lat="47.94188" lon="-3.83832">
        <ele>139.2</ele>
        <time>2022-12-08T08:41:22Z</time>
      </trkpt>
      <trkpt lat="47.9419" lon="-3.83831">
        <ele>139.4</ele>
        <time>2022-12-08T08:41:23Z</time>
      </trkpt>
      <trkpt lat="47.94191" lon="-3.8383">
        <ele>139.5</ele>
        <time>2022-12-08T08:41:24Z</time>
      </trkpt>
      <trkpt lat="47.94194" lon="-3.83827">
        <ele>139.9</ele>
        <time>2022-12-08T08:41:25Z</time>
      </trkpt>
      <trkpt lat="47.94195" lon="-3.83826">
        <ele>140.1</ele>
        <time>2022-12-08T08:41:26Z</time>
      </trkpt>
      <trkpt lat="47.94197" lon="-3.83825">
        <ele>140.2</ele>
        <time>2022-12-08T08:41:27Z</time>
      </trkpt>
      <trkpt lat="47.94198" lon="-3.83825">
        <ele>140.4</ele>
        <time>2022-12-08T08:41:28Z</time>
      </trkpt>
      <trkpt lat="47.942" lon="-3.83823">
        <ele>140.6</ele>
        <time>2022-12-08T08:41:29Z</time>
      </trkpt>
      <trkpt lat="47.94201" lon="-3.83822">
        <ele>140.7</ele>
        <time>2022-12-08T08:41:30Z</time>
      </trkpt>
      <trkpt lat="47.94204" lon="-3.83819">
        <ele>141</ele>
        <time>2022-12-08T08:41:31Z</time>
      </trkpt>
      <trkpt lat="47.94205" lon="-3.83818">
        <ele>141.1</ele>
        <time>2022-12-08T08:41:32Z</time>
      </trkpt>
      <trkpt lat="47.94207" lon="-3.83816">
        <ele>141.4</ele>
        <time>2022-12-08T08:41:33Z</time>
      </trkpt>
      <trkpt lat="47.94208" lon="-3.83815">
        <ele>141.5</ele>
        <time>2022-12-08T08:41:34Z</time>
      </trkpt>
      <trkpt lat="47.9421" lon="-3.83813">
        <ele>141.6</ele>
        <time>2022-12-08T08:41:35Z</time>
      </trkpt>
      <trkpt lat="47.94211" lon="-3.83811">
        <ele>141.8</ele>
        <time>2022-12-08T08:41:36Z</time>
      </trkpt>
      <trkpt lat="47.94214" lon="-3.83808">
        <ele>142</ele>
        <time>2022-12-08T08:41:37Z</time>
      </trkpt>
      <trkpt lat="47.94214" lon="-3.83807">
        <ele>142.1</ele>
        <time>2022-12-08T08:41:38Z</time>
      </trkpt>
      <trkpt lat="47.94217" lon="-3.83805">
        <ele>142.3</ele>
        <time>2022-12-08T08:41:39Z</time>
      </trkpt>
      <trkpt lat="47.94218" lon="-3.83805">
        <ele>142.4</ele>
        <time>2022-12-08T08:41:40Z</time>
      </trkpt>
      <trkpt lat="47.94222" lon="-3.83801">
        <ele>142.8</ele>
        <time>2022-12-08T08:41:42Z</time>
      </trkpt>
      <trkpt lat="47.94224" lon="-3.838">
        <ele>142.9</ele>
        <time>2022-12-08T08:41:43Z</time>
      </trkpt>
      <trkpt lat="47.94226" lon="-3.83799">
        <ele>143</ele>
        <time>2022-12-08T08:41:44Z</time>
      </trkpt>
      <trkpt lat="47.94228" lon="-3.83796">
        <ele>143.2</ele>
        <time>2022-12-08T08:41:45Z</time>
      </trkpt>
      <trkpt lat="47.94231" lon="-3.83793">
        <ele>143.4</ele>
        <time>2022-12-08T08:41:47Z</time>
      </trkpt>
      <trkpt lat="47.94232" lon="-3.83791">
        <ele>143.5</ele>
        <time>2022-12-08T08:41:48Z</time>
      </trkpt>
      <trkpt lat="47.94235" lon="-3.83789">
        <ele>143.7</ele>
        <time>2022-12-08T08:41:49Z</time>
      </trkpt>
      <trkpt lat="47.94239" lon="-3.83785">
        <ele>143.9</ele>
        <time>2022-12-08T08:41:51Z</time>
      </trkpt>
      <trkpt lat="47.94241" lon="-3.83782">
        <ele>144</ele>
        <time>2022-12-08T08:41:52Z</time>
      </trkpt>
      <trkpt lat="47.94244" lon="-3.83779">
        <ele>144.2</ele>
        <time>2022-12-08T08:41:53Z</time>
      </trkpt>
      <trkpt lat="47.94246" lon="-3.83778">
        <ele>144.2</ele>
        <time>2022-12-08T08:41:54Z</time>
      </trkpt>
      <trkpt lat="47.9425" lon="-3.83775">
        <ele>144.3</ele>
        <time>2022-12-08T08:41:56Z</time>
      </trkpt>
      <trkpt lat="47.94253" lon="-3.83775">
        <ele>144.3</ele>
        <time>2022-12-08T08:41:57Z</time>
      </trkpt>
      <trkpt lat="47.94257" lon="-3.83774">
        <ele>144.4</ele>
        <time>2022-12-08T08:41:58Z</time>
      </trkpt>
      <trkpt lat="47.94258" lon="-3.83773">
        <ele>144.4</ele>
        <time>2022-12-08T08:41:59Z</time>
      </trkpt>
      <trkpt lat="47.94262" lon="-3.83771">
        <ele>144.5</ele>
        <time>2022-12-08T08:42:00Z</time>
      </trkpt>
      <trkpt lat="47.94266" lon="-3.83769">
        <ele>144.6</ele>
        <time>2022-12-08T08:42:02Z</time>
      </trkpt>
      <trkpt lat="47.9427" lon="-3.83765">
        <ele>144.6</ele>
        <time>2022-12-08T08:42:03Z</time>
      </trkpt>
      <trkpt lat="47.94274" lon="-3.83761">
        <ele>144.6</ele>
        <time>2022-12-08T08:42:04Z</time>
      </trkpt>
      <trkpt lat="47.94277" lon="-3.83759">
        <ele>144.6</ele>
        <time>2022-12-08T08:42:05Z</time>
      </trkpt>
      <trkpt lat="47.94283" lon="-3.83756">
        <ele>144.6</ele>
        <time>2022-12-08T08:42:07Z</time>
      </trkpt>
      <trkpt lat="47.94288" lon="-3.83751">
        <ele>144.5</ele>
        <time>2022-12-08T08:42:08Z</time>
      </trkpt>
      <trkpt lat="47.94294" lon="-3.83746">
        <ele>144.4</ele>
        <time>2022-12-08T08:42:10Z</time>
      </trkpt>
      <trkpt lat="47.94301" lon="-3.83741">
        <ele>144.3</ele>
        <time>2022-12-08T08:42:11Z</time>
      </trkpt>
      <trkpt lat="47.94305" lon="-3.83738">
        <ele>144.2</ele>
        <time>2022-12-08T08:42:12Z</time>
      </trkpt>
      <trkpt lat="47.94309" lon="-3.83735">
        <ele>144.1</ele>
        <time>2022-12-08T08:42:13Z</time>
      </trkpt>
      <trkpt lat="47.94313" lon="-3.83731">
        <ele>144</ele>
        <time>2022-12-08T08:42:14Z</time>
      </trkpt>
      <trkpt lat="47.94317" lon="-3.83728">
        <ele>143.9</ele>
        <time>2022-12-08T08:42:15Z</time>
      </trkpt>
      <trkpt lat="47.94322" lon="-3.83724">
        <ele>143.8</ele>
        <time>2022-12-08T08:42:16Z</time>
      </trkpt>
      <trkpt lat="47.94327" lon="-3.83722">
        <ele>143.7</ele>
        <time>2022-12-08T08:42:17Z</time>
      </trkpt>
      <trkpt lat="47.94332" lon="-3.83719">
        <ele>143.7</ele>
        <time>2022-12-08T08:42:18Z</time>
      </trkpt>
      <trkpt lat="47.94337" lon="-3.83717">
        <ele>143.6</ele>
        <time>2022-12-08T08:42:19Z</time>
      </trkpt>
      <trkpt lat="47.94342" lon="-3.83716">
        <ele>143.6</ele>
        <time>2022-12-08T08:42:20Z</time>
      </trkpt>
      <trkpt lat="47.94347" lon="-3.83715">
        <ele>143.5</ele>
        <time>2022-12-08T08:42:21Z</time>
      </trkpt>
      <trkpt lat="47.94353" lon="-3.83715">
        <ele>143.4</ele>
        <time>2022-12-08T08:42:22Z</time>
      </trkpt>
      <trkpt lat="47.94358" lon="-3.83715">
        <ele>143.3</ele>
        <time>2022-12-08T08:42:23Z</time>
      </trkpt>
      <trkpt lat="47.94364" lon="-3.83715">
        <ele>143.1</ele>
        <time>2022-12-08T08:42:24Z</time>
      </trkpt>
      <trkpt lat="47.9437" lon="-3.83715">
        <ele>143</ele>
        <time>2022-12-08T08:42:25Z</time>
      </trkpt>
      <trkpt lat="47.94376" lon="-3.83715">
        <ele>142.9</ele>
        <time>2022-12-08T08:42:26Z</time>
      </trkpt>
      <trkpt lat="47.94382" lon="-3.83714">
        <ele>142.7</ele>
        <time>2022-12-08T08:42:27Z</time>
      </trkpt>
      <trkpt lat="47.94389" lon="-3.83713">
        <ele>142.6</ele>
        <time>2022-12-08T08:42:28Z</time>
      </trkpt>
      <trkpt lat="47.94395" lon="-3.83712">
        <ele>142.4</ele>
        <time>2022-12-08T08:42:29Z</time>
      </trkpt>
      <trkpt lat="47.94401" lon="-3.8371">
        <ele>142.2</ele>
        <time>2022-12-08T08:42:30Z</time>
      </trkpt>
      <trkpt lat="47.94408" lon="-3.83709">
        <ele>142</ele>
        <time>2022-12-08T08:42:31Z</time>
      </trkpt>
      <trkpt lat="47.94414" lon="-3.83707">
        <ele>141.9</ele>
        <time>2022-12-08T08:42:32Z</time>
      </trkpt>
      <trkpt lat="47.9442" lon="-3.83706">
        <ele>141.7</ele>
        <time>2022-12-08T08:42:33Z</time>
      </trkpt>
      <trkpt lat="47.94427" lon="-3.83705">
        <ele>141.6</ele>
        <time>2022-12-08T08:42:34Z</time>
      </trkpt>
      <trkpt lat="47.94433" lon="-3.83703">
        <ele>141.5</ele>
        <time>2022-12-08T08:42:35Z</time>
      </trkpt>
      <trkpt lat="47.94439" lon="-3.83701">
        <ele>141.3</ele>
        <time>2022-12-08T08:42:36Z</time>
      </trkpt>
      <trkpt lat="47.94445" lon="-3.837">
        <ele>141.2</ele>
        <time>2022-12-08T08:42:37Z</time>
      </trkpt>
      <trkpt lat="47.94451" lon="-3.83699">
        <ele>141.1</ele>
        <time>2022-12-08T08:42:38Z</time>
      </trkpt>
      <trkpt lat="47.94457" lon="-3.83698">
        <ele>140.9</ele>
        <time>2022-12-08T08:42:39Z</time>
      </trkpt>
      <trkpt lat="47.94463" lon="-3.83696">
        <ele>140.8</ele>
        <time>2022-12-08T08:42:40Z</time>
      </trkpt>
      <trkpt lat="47.94468" lon="-3.83694">
        <ele>140.7</ele>
        <time>2022-12-08T08:42:41Z</time>
      </trkpt>
      <trkpt lat="47.94474" lon="-3.83693">
        <ele>140.6</ele>
        <time>2022-12-08T08:42:42Z</time>
      </trkpt>
      <trkpt lat="47.9448" lon="-3.83692">
        <ele>140.4</ele>
        <time>2022-12-08T08:42:43Z</time>
      </trkpt>
      <trkpt lat="47.94486" lon="-3.8369">
        <ele>140.3</ele>
        <time>2022-12-08T08:42:44Z</time>
      </trkpt>
      <trkpt lat="47.94491" lon="-3.83687">
        <ele>140.2</ele>
        <time>2022-12-08T08:42:45Z</time>
      </trkpt>
      <trkpt lat="47.94497" lon="-3.83683">
        <ele>140</ele>
        <time>2022-12-08T08:42:46Z</time>
      </trkpt>
      <trkpt lat="47.94503" lon="-3.83679">
        <ele>139.9</ele>
        <time>2022-12-08T08:42:47Z</time>
      </trkpt>
      <trkpt lat="47.94509" lon="-3.83675">
        <ele>139.7</ele>
        <time>2022-12-08T08:42:48Z</time>
      </trkpt>
      <trkpt lat="47.94514" lon="-3.8367">
        <ele>139.6</ele>
        <time>2022-12-08T08:42:49Z</time>
      </trkpt>
      <trkpt lat="47.94519" lon="-3.83665">
        <ele>139.5</ele>
        <time>2022-12-08T08:42:50Z</time>
      </trkpt>
      <trkpt lat="47.94523" lon="-3.83659">
        <ele>139.3</ele>
        <time>2022-12-08T08:42:51Z</time>
      </trkpt>
      <trkpt lat="47.94528" lon="-3.83652">
        <ele>139.2</ele>
        <time>2022-12-08T08:42:52Z</time>
      </trkpt>
      <trkpt lat="47.94533" lon="-3.83646">
        <ele>139.1</ele>
        <time>2022-12-08T08:42:53Z</time>
      </trkpt>
      <trkpt lat="47.94537" lon="-3.83638">
        <ele>139</ele>
        <time>2022-12-08T08:42:54Z</time>
      </trkpt>
      <trkpt lat="47.94542" lon="-3.83631">
        <ele>138.8</ele>
        <time>2022-12-08T08:42:55Z</time>
      </trkpt>
      <trkpt lat="47.94546" lon="-3.83624">
        <ele>138.7</ele>
        <time>2022-12-08T08:42:56Z</time>
      </trkpt>
      <trkpt lat="47.9455" lon="-3.83617">
        <ele>138.5</ele>
        <time>2022-12-08T08:42:57Z</time>
      </trkpt>
      <trkpt lat="47.94554" lon="-3.8361">
        <ele>138.4</ele>
        <time>2022-12-08T08:42:58Z</time>
      </trkpt>
      <trkpt lat="47.94558" lon="-3.83603">
        <ele>138.3</ele>
        <time>2022-12-08T08:42:59Z</time>
      </trkpt>
      <trkpt lat="47.94562" lon="-3.83596">
        <ele>138.2</ele>
        <time>2022-12-08T08:43:00Z</time>
      </trkpt>
      <trkpt lat="47.94567" lon="-3.83589">
        <ele>138.1</ele>
        <time>2022-12-08T08:43:01Z</time>
      </trkpt>
      <trkpt lat="47.94571" lon="-3.83582">
        <ele>138</ele>
        <time>2022-12-08T08:43:02Z</time>
      </trkpt>
      <trkpt lat="47.94575" lon="-3.83575">
        <ele>137.9</ele>
        <time>2022-12-08T08:43:03Z</time>
      </trkpt>
      <trkpt lat="47.9458" lon="-3.83568">
        <ele>137.8</ele>
        <time>2022-12-08T08:43:04Z</time>
      </trkpt>
      <trkpt lat="47.94584" lon="-3.83561">
        <ele>137.6</ele>
        <time>2022-12-08T08:43:05Z</time>
      </trkpt>
      <trkpt lat="47.94588" lon="-3.83555">
        <ele>137.5</ele>
        <time>2022-12-08T08:43:06Z</time>
      </trkpt>
      <trkpt lat="47.94592" lon="-3.83548">
        <ele>137.4</ele>
        <time>2022-12-08T08:43:07Z</time>
      </trkpt>
      <trkpt lat="47.94596" lon="-3.8354">
        <ele>137.3</ele>
        <time>2022-12-08T08:43:08Z</time>
      </trkpt>
      <trkpt lat="47.946" lon="-3.83533">
        <ele>137.2</ele>
        <time>2022-12-08T08:43:09Z</time>
      </trkpt>
      <trkpt lat="47.94604" lon="-3.83527">
        <ele>137</ele>
        <time>2022-12-08T08:43:10Z</time>
      </trkpt>
      <trkpt lat="47.94608" lon="-3.8352">
        <ele>136.9</ele>
        <time>2022-12-08T08:43:11Z</time>
      </trkpt>
      <trkpt lat="47.94613" lon="-3.83513">
        <ele>136.8</ele>
        <time>2022-12-08T08:43:12Z</time>
      </trkpt>
      <trkpt lat="47.94617" lon="-3.83506">
        <ele>136.7</ele>
        <time>2022-12-08T08:43:13Z</time>
      </trkpt>
      <trkpt lat="47.94622" lon="-3.83499">
        <ele>136.6</ele>
        <time>2022-12-08T08:43:14Z</time>
      </trkpt>
      <trkpt lat="47.94626" lon="-3.83492">
        <ele>136.5</ele>
        <time>2022-12-08T08:43:15Z</time>
      </trkpt>
      <trkpt lat="47.9463" lon="-3.83485">
        <ele>136.4</ele>
        <time>2022-12-08T08:43:16Z</time>
      </trkpt>
      <trkpt lat="47.94634" lon="-3.83478">
        <ele>136.3</ele>
        <time>2022-12-08T08:43:17Z</time>
      </trkpt>
      <trkpt lat="47.94638" lon="-3.83471">
        <ele>136.3</ele>
        <time>2022-12-08T08:43:18Z</time>
      </trkpt>
      <trkpt lat="47.94642" lon="-3.83464">
        <ele>136.2</ele>
        <time>2022-12-08T08:43:19Z</time>
      </trkpt>
      <trkpt lat="47.94646" lon="-3.83457">
        <ele>136.2</ele>
        <time>2022-12-08T08:43:20Z</time>
      </trkpt>
      <trkpt lat="47.9465" lon="-3.8345">
        <ele>136.1</ele>
        <time>2022-12-08T08:43:21Z</time>
      </trkpt>
      <trkpt lat="47.94654" lon="-3.83443">
        <ele>136.1</ele>
        <time>2022-12-08T08:43:22Z</time>
      </trkpt>
      <trkpt lat="47.94658" lon="-3.83437">
        <ele>136</ele>
        <time>2022-12-08T08:43:23Z</time>
      </trkpt>
      <trkpt lat="47.94662" lon="-3.8343">
        <ele>135.9</ele>
        <time>2022-12-08T08:43:24Z</time>
      </trkpt>
      <trkpt lat="47.94666" lon="-3.83423">
        <ele>135.8</ele>
        <time>2022-12-08T08:43:25Z</time>
      </trkpt>
      <trkpt lat="47.94671" lon="-3.83416">
        <ele>135.8</ele>
        <time>2022-12-08T08:43:26Z</time>
      </trkpt>
      <trkpt lat="47.94675" lon="-3.83409">
        <ele>135.8</ele>
        <time>2022-12-08T08:43:27Z</time>
      </trkpt>
      <trkpt lat="47.94679" lon="-3.83403">
        <ele>135.7</ele>
        <time>2022-12-08T08:43:28Z</time>
      </trkpt>
      <trkpt lat="47.94683" lon="-3.83396">
        <ele>135.7</ele>
        <time>2022-12-08T08:43:29Z</time>
      </trkpt>
      <trkpt lat="47.94688" lon="-3.8339">
        <ele>135.6</ele>
        <time>2022-12-08T08:43:30Z</time>
      </trkpt>
      <trkpt lat="47.94693" lon="-3.83384">
        <ele>135.6</ele>
        <time>2022-12-08T08:43:31Z</time>
      </trkpt>
      <trkpt lat="47.94698" lon="-3.83379">
        <ele>135.5</ele>
        <time>2022-12-08T08:43:32Z</time>
      </trkpt>
      <trkpt lat="47.94703" lon="-3.83373">
        <ele>135.4</ele>
        <time>2022-12-08T08:43:33Z</time>
      </trkpt>
      <trkpt lat="47.94708" lon="-3.83367">
        <ele>135.3</ele>
        <time>2022-12-08T08:43:34Z</time>
      </trkpt>
      <trkpt lat="47.94712" lon="-3.83361">
        <ele>135.2</ele>
        <time>2022-12-08T08:43:35Z</time>
      </trkpt>
      <trkpt lat="47.94717" lon="-3.83355">
        <ele>135.1</ele>
        <time>2022-12-08T08:43:36Z</time>
      </trkpt>
      <trkpt lat="47.94722" lon="-3.8335">
        <ele>135</ele>
        <time>2022-12-08T08:43:37Z</time>
      </trkpt>
      <trkpt lat="47.94728" lon="-3.83344">
        <ele>134.9</ele>
        <time>2022-12-08T08:43:38Z</time>
      </trkpt>
      <trkpt lat="47.94733" lon="-3.8334">
        <ele>134.8</ele>
        <time>2022-12-08T08:43:39Z</time>
      </trkpt>
      <trkpt lat="47.94738" lon="-3.83335">
        <ele>134.7</ele>
        <time>2022-12-08T08:43:40Z</time>
      </trkpt>
      <trkpt lat="47.94743" lon="-3.83332">
        <ele>134.6</ele>
        <time>2022-12-08T08:43:41Z</time>
      </trkpt>
      <trkpt lat="47.94748" lon="-3.83328">
        <ele>134.6</ele>
        <time>2022-12-08T08:43:42Z</time>
      </trkpt>
      <trkpt lat="47.94753" lon="-3.83324">
        <ele>134.5</ele>
        <time>2022-12-08T08:43:43Z</time>
      </trkpt>
      <trkpt lat="47.94758" lon="-3.83321">
        <ele>134.5</ele>
        <time>2022-12-08T08:43:44Z</time>
      </trkpt>
      <trkpt lat="47.94764" lon="-3.83318">
        <ele>134.4</ele>
        <time>2022-12-08T08:43:45Z</time>
      </trkpt>
      <trkpt lat="47.94769" lon="-3.83315">
        <ele>134.4</ele>
        <time>2022-12-08T08:43:46Z</time>
      </trkpt>
      <trkpt lat="47.94774" lon="-3.83312">
        <ele>134.4</ele>
        <time>2022-12-08T08:43:47Z</time>
      </trkpt>
      <trkpt lat="47.94778" lon="-3.83309">
        <ele>134.3</ele>
        <time>2022-12-08T08:43:48Z</time>
      </trkpt>
      <trkpt lat="47.94783" lon="-3.83306">
        <ele>134.3</ele>
        <time>2022-12-08T08:43:49Z</time>
      </trkpt>
      <trkpt lat="47.94788" lon="-3.83303">
        <ele>134.2</ele>
        <time>2022-12-08T08:43:50Z</time>
      </trkpt>
      <trkpt lat="47.94793" lon="-3.833">
        <ele>134.1</ele>
        <time>2022-12-08T08:43:51Z</time>
      </trkpt>
      <trkpt lat="47.94799" lon="-3.83297">
        <ele>133.9</ele>
        <time>2022-12-08T08:43:52Z</time>
      </trkpt>
      <trkpt lat="47.94804" lon="-3.83294">
        <ele>133.8</ele>
        <time>2022-12-08T08:43:53Z</time>
      </trkpt>
      <trkpt lat="47.94809" lon="-3.83292">
        <ele>133.7</ele>
        <time>2022-12-08T08:43:54Z</time>
      </trkpt>
      <trkpt lat="47.94814" lon="-3.83289">
        <ele>133.6</ele>
        <time>2022-12-08T08:43:55Z</time>
      </trkpt>
      <trkpt lat="47.9482" lon="-3.83285">
        <ele>133.6</ele>
        <time>2022-12-08T08:43:56Z</time>
      </trkpt>
      <trkpt lat="47.94825" lon="-3.83282">
        <ele>133.5</ele>
        <time>2022-12-08T08:43:57Z</time>
      </trkpt>
      <trkpt lat="47.9483" lon="-3.8328">
        <ele>133.5</ele>
        <time>2022-12-08T08:43:58Z</time>
      </trkpt>
      <trkpt lat="47.94836" lon="-3.83277">
        <ele>133.5</ele>
        <time>2022-12-08T08:43:59Z</time>
      </trkpt>
      <trkpt lat="47.94841" lon="-3.83274">
        <ele>133.5</ele>
        <time>2022-12-08T08:44:00Z</time>
      </trkpt>
      <trkpt lat="47.94846" lon="-3.83271">
        <ele>133.4</ele>
        <time>2022-12-08T08:44:01Z</time>
      </trkpt>
      <trkpt lat="47.94852" lon="-3.8327">
        <ele>133.4</ele>
        <time>2022-12-08T08:44:02Z</time>
      </trkpt>
      <trkpt lat="47.94857" lon="-3.83272">
        <ele>133.4</ele>
        <time>2022-12-08T08:44:03Z</time>
      </trkpt>
      <trkpt lat="47.94862" lon="-3.83277">
        <ele>133.4</ele>
        <time>2022-12-08T08:44:04Z</time>
      </trkpt>
      <trkpt lat="47.94866" lon="-3.83283">
        <ele>133.4</ele>
        <time>2022-12-08T08:44:05Z</time>
      </trkpt>
      <trkpt lat="47.9487" lon="-3.83289">
        <ele>133.4</ele>
        <time>2022-12-08T08:44:06Z</time>
      </trkpt>
      <trkpt lat="47.94874" lon="-3.83295">
        <ele>133.4</ele>
        <time>2022-12-08T08:44:07Z</time>
      </trkpt>
      <trkpt lat="47.94878" lon="-3.83299">
        <ele>133.4</ele>
        <time>2022-12-08T08:44:08Z</time>
      </trkpt>
      <trkpt lat="47.94882" lon="-3.83304">
        <ele>133.5</ele>
        <time>2022-12-08T08:44:09Z</time>
      </trkpt>
      <trkpt lat="47.94886" lon="-3.83308">
        <ele>133.5</ele>
        <time>2022-12-08T08:44:10Z</time>
      </trkpt>
      <trkpt lat="47.9489" lon="-3.83313">
        <ele>133.6</ele>
        <time>2022-12-08T08:44:11Z</time>
      </trkpt>
      <trkpt lat="47.94894" lon="-3.83317">
        <ele>133.7</ele>
        <time>2022-12-08T08:44:12Z</time>
      </trkpt>
      <trkpt lat="47.94898" lon="-3.83321">
        <ele>133.8</ele>
        <time>2022-12-08T08:44:13Z</time>
      </trkpt>
      <trkpt lat="47.94902" lon="-3.83326">
        <ele>133.9</ele>
        <time>2022-12-08T08:44:14Z</time>
      </trkpt>
      <trkpt lat="47.94906" lon="-3.8333">
        <ele>134.1</ele>
        <time>2022-12-08T08:44:15Z</time>
      </trkpt>
      <trkpt lat="47.94909" lon="-3.83333">
        <ele>134.2</ele>
        <time>2022-12-08T08:44:16Z</time>
      </trkpt>
      <trkpt lat="47.94913" lon="-3.83337">
        <ele>134.4</ele>
        <time>2022-12-08T08:44:17Z</time>
      </trkpt>
      <trkpt lat="47.94916" lon="-3.83341">
        <ele>134.6</ele>
        <time>2022-12-08T08:44:18Z</time>
      </trkpt>
      <trkpt lat="47.94919" lon="-3.83344">
        <ele>134.7</ele>
        <time>2022-12-08T08:44:19Z</time>
      </trkpt>
      <trkpt lat="47.94922" lon="-3.83347">
        <ele>134.9</ele>
        <time>2022-12-08T08:44:20Z</time>
      </trkpt>
      <trkpt lat="47.94926" lon="-3.83352">
        <ele>135.1</ele>
        <time>2022-12-08T08:44:21Z</time>
      </trkpt>
      <trkpt lat="47.94929" lon="-3.83355">
        <ele>135.3</ele>
        <time>2022-12-08T08:44:22Z</time>
      </trkpt>
      <trkpt lat="47.94932" lon="-3.83359">
        <ele>135.5</ele>
        <time>2022-12-08T08:44:23Z</time>
      </trkpt>
      <trkpt lat="47.94935" lon="-3.83362">
        <ele>135.7</ele>
        <time>2022-12-08T08:44:24Z</time>
      </trkpt>
      <trkpt lat="47.94942" lon="-3.83369">
        <ele>136.2</ele>
        <time>2022-12-08T08:44:25Z</time>
      </trkpt>
      <trkpt lat="47.94945" lon="-3.83372">
        <ele>136.4</ele>
        <time>2022-12-08T08:44:27Z</time>
      </trkpt>
      <trkpt lat="47.94947" lon="-3.83375">
        <ele>136.6</ele>
        <time>2022-12-08T08:44:28Z</time>
      </trkpt>
      <trkpt lat="47.94952" lon="-3.83381">
        <ele>137</ele>
        <time>2022-12-08T08:44:29Z</time>
      </trkpt>
      <trkpt lat="47.94955" lon="-3.83384">
        <ele>137.2</ele>
        <time>2022-12-08T08:44:30Z</time>
      </trkpt>
      <trkpt lat="47.94958" lon="-3.83388">
        <ele>137.4</ele>
        <time>2022-12-08T08:44:31Z</time>
      </trkpt>
      <trkpt lat="47.94961" lon="-3.8339">
        <ele>137.5</ele>
        <time>2022-12-08T08:44:32Z</time>
      </trkpt>
      <trkpt lat="47.94964" lon="-3.83393">
        <ele>137.7</ele>
        <time>2022-12-08T08:44:33Z</time>
      </trkpt>
      <trkpt lat="47.94966" lon="-3.83396">
        <ele>137.8</ele>
        <time>2022-12-08T08:44:34Z</time>
      </trkpt>
      <trkpt lat="47.94968" lon="-3.83399">
        <ele>138</ele>
        <time>2022-12-08T08:44:35Z</time>
      </trkpt>
      <trkpt lat="47.94972" lon="-3.83402">
        <ele>138.2</ele>
        <time>2022-12-08T08:44:37Z</time>
      </trkpt>
      <trkpt lat="47.94975" lon="-3.83405">
        <ele>138.3</ele>
        <time>2022-12-08T08:44:38Z</time>
      </trkpt>
      <trkpt lat="47.94978" lon="-3.83406">
        <ele>138.4</ele>
        <time>2022-12-08T08:44:39Z</time>
      </trkpt>
      <trkpt lat="47.94981" lon="-3.83408">
        <ele>138.6</ele>
        <time>2022-12-08T08:44:40Z</time>
      </trkpt>
      <trkpt lat="47.94985" lon="-3.8341">
        <ele>138.5</ele>
        <time>2022-12-08T08:44:41Z</time>
      </trkpt>
      <trkpt lat="47.94986" lon="-3.8341">
        <ele>138.5</ele>
        <time>2022-12-08T08:44:42Z</time>
      </trkpt>
      <trkpt lat="47.94989" lon="-3.8341">
        <ele>138.4</ele>
        <time>2022-12-08T08:44:43Z</time>
      </trkpt>
      <trkpt lat="47.94991" lon="-3.83407">
        <ele>138.4</ele>
        <time>2022-12-08T08:44:44Z</time>
      </trkpt>
      <trkpt lat="47.94994" lon="-3.83408">
        <ele>138.5</ele>
        <time>2022-12-08T08:44:45Z</time>
      </trkpt>
      <trkpt lat="47.94998" lon="-3.83413">
        <ele>138.7</ele>
        <time>2022-12-08T08:44:46Z</time>
      </trkpt>
      <trkpt lat="47.95002" lon="-3.83418">
        <ele>139</ele>
        <time>2022-12-08T08:44:47Z</time>
      </trkpt>
      <trkpt lat="47.95005" lon="-3.83421">
        <ele>139.2</ele>
        <time>2022-12-08T08:44:48Z</time>
      </trkpt>
      <trkpt lat="47.95007" lon="-3.83425">
        <ele>139.3</ele>
        <time>2022-12-08T08:44:49Z</time>
      </trkpt>
      <trkpt lat="47.95009" lon="-3.83428">
        <ele>139.5</ele>
        <time>2022-12-08T08:44:50Z</time>
      </trkpt>
      <trkpt lat="47.95011" lon="-3.83432">
        <ele>139.6</ele>
        <time>2022-12-08T08:44:51Z</time>
      </trkpt>
      <trkpt lat="47.95014" lon="-3.83436">
        <ele>139.8</ele>
        <time>2022-12-08T08:44:52Z</time>
      </trkpt>
      <trkpt lat="47.95015" lon="-3.83437">
        <ele>139.9</ele>
        <time>2022-12-08T08:44:53Z</time>
      </trkpt>
      <trkpt lat="47.95018" lon="-3.83446">
        <ele>140.1</ele>
        <time>2022-12-08T08:44:55Z</time>
      </trkpt>
      <trkpt lat="47.95019" lon="-3.83451">
        <ele>140.2</ele>
        <time>2022-12-08T08:44:56Z</time>
      </trkpt>
      <trkpt lat="47.95021" lon="-3.83456">
        <ele>140.3</ele>
        <time>2022-12-08T08:44:57Z</time>
      </trkpt>
      <trkpt lat="47.95024" lon="-3.83463">
        <ele>140.3</ele>
        <time>2022-12-08T08:44:58Z</time>
      </trkpt>
      <trkpt lat="47.95025" lon="-3.83469">
        <ele>140.3</ele>
        <time>2022-12-08T08:44:59Z</time>
      </trkpt>
      <trkpt lat="47.95027" lon="-3.83474">
        <ele>140.3</ele>
        <time>2022-12-08T08:45:00Z</time>
      </trkpt>
      <trkpt lat="47.95028" lon="-3.83479">
        <ele>140.3</ele>
        <time>2022-12-08T08:45:01Z</time>
      </trkpt>
      <trkpt lat="47.95029" lon="-3.83484">
        <ele>140.3</ele>
        <time>2022-12-08T08:45:02Z</time>
      </trkpt>
      <trkpt lat="47.95031" lon="-3.8349">
        <ele>140.3</ele>
        <time>2022-12-08T08:45:03Z</time>
      </trkpt>
      <trkpt lat="47.95032" lon="-3.83495">
        <ele>140.3</ele>
        <time>2022-12-08T08:45:04Z</time>
      </trkpt>
      <trkpt lat="47.95034" lon="-3.83502">
        <ele>140.2</ele>
        <time>2022-12-08T08:45:05Z</time>
      </trkpt>
      <trkpt lat="47.95035" lon="-3.83509">
        <ele>140.2</ele>
        <time>2022-12-08T08:45:06Z</time>
      </trkpt>
      <trkpt lat="47.95037" lon="-3.83516">
        <ele>140.1</ele>
        <time>2022-12-08T08:45:07Z</time>
      </trkpt>
      <trkpt lat="47.95038" lon="-3.83521">
        <ele>140</ele>
        <time>2022-12-08T08:45:08Z</time>
      </trkpt>
      <trkpt lat="47.9504" lon="-3.83528">
        <ele>139.8</ele>
        <time>2022-12-08T08:45:09Z</time>
      </trkpt>
      <trkpt lat="47.95042" lon="-3.83536">
        <ele>139.6</ele>
        <time>2022-12-08T08:45:10Z</time>
      </trkpt>
      <trkpt lat="47.95044" lon="-3.83544">
        <ele>139.5</ele>
        <time>2022-12-08T08:45:11Z</time>
      </trkpt>
      <trkpt lat="47.95047" lon="-3.8355">
        <ele>139.3</ele>
        <time>2022-12-08T08:45:12Z</time>
      </trkpt>
      <trkpt lat="47.9505" lon="-3.83556">
        <ele>139.2</ele>
        <time>2022-12-08T08:45:13Z</time>
      </trkpt>
      <trkpt lat="47.95054" lon="-3.83562">
        <ele>139.1</ele>
        <time>2022-12-08T08:45:14Z</time>
      </trkpt>
      <trkpt lat="47.95058" lon="-3.83568">
        <ele>139</ele>
        <time>2022-12-08T08:45:15Z</time>
      </trkpt>
      <trkpt lat="47.95062" lon="-3.83574">
        <ele>138.9</ele>
        <time>2022-12-08T08:45:16Z</time>
      </trkpt>
      <trkpt lat="47.95066" lon="-3.83577">
        <ele>138.9</ele>
        <time>2022-12-08T08:45:17Z</time>
      </trkpt>
      <trkpt lat="47.9507" lon="-3.83582">
        <ele>138.8</ele>
        <time>2022-12-08T08:45:18Z</time>
      </trkpt>
      <trkpt lat="47.95075" lon="-3.83587">
        <ele>138.8</ele>
        <time>2022-12-08T08:45:19Z</time>
      </trkpt>
      <trkpt lat="47.95078" lon="-3.83591">
        <ele>138.8</ele>
        <time>2022-12-08T08:45:20Z</time>
      </trkpt>
      <trkpt lat="47.9508" lon="-3.83594">
        <ele>138.8</ele>
        <time>2022-12-08T08:45:21Z</time>
      </trkpt>
      <trkpt lat="47.95084" lon="-3.83601">
        <ele>138.8</ele>
        <time>2022-12-08T08:45:22Z</time>
      </trkpt>
      <trkpt lat="47.95088" lon="-3.83606">
        <ele>138.9</ele>
        <time>2022-12-08T08:45:23Z</time>
      </trkpt>
      <trkpt lat="47.95093" lon="-3.83611">
        <ele>138.9</ele>
        <time>2022-12-08T08:45:24Z</time>
      </trkpt>
      <trkpt lat="47.95097" lon="-3.83616">
        <ele>139</ele>
        <time>2022-12-08T08:45:25Z</time>
      </trkpt>
      <trkpt lat="47.95101" lon="-3.8362">
        <ele>139.1</ele>
        <time>2022-12-08T08:45:26Z</time>
      </trkpt>
      <trkpt lat="47.95105" lon="-3.83623">
        <ele>139.2</ele>
        <time>2022-12-08T08:45:27Z</time>
      </trkpt>
      <trkpt lat="47.95109" lon="-3.83626">
        <ele>139.3</ele>
        <time>2022-12-08T08:45:28Z</time>
      </trkpt>
      <trkpt lat="47.95111" lon="-3.83629">
        <ele>139.3</ele>
        <time>2022-12-08T08:45:29Z</time>
      </trkpt>
      <trkpt lat="47.95112" lon="-3.8363">
        <ele>139.4</ele>
        <time>2022-12-08T08:45:30Z</time>
      </trkpt>
      <trkpt lat="47.9512" lon="-3.83632">
        <ele>139.6</ele>
        <time>2022-12-08T08:45:31Z</time>
      </trkpt>
      <trkpt lat="47.95125" lon="-3.83634">
        <ele>139.7</ele>
        <time>2022-12-08T08:45:33Z</time>
      </trkpt>
      <trkpt lat="47.95131" lon="-3.83637">
        <ele>139.9</ele>
        <time>2022-12-08T08:45:34Z</time>
      </trkpt>
      <trkpt lat="47.95137" lon="-3.8364">
        <ele>140.1</ele>
        <time>2022-12-08T08:45:35Z</time>
      </trkpt>
      <trkpt lat="47.95142" lon="-3.83642">
        <ele>140.3</ele>
        <time>2022-12-08T08:45:37Z</time>
      </trkpt>
      <trkpt lat="47.95147" lon="-3.83645">
        <ele>140.5</ele>
        <time>2022-12-08T08:45:38Z</time>
      </trkpt>
      <trkpt lat="47.9515" lon="-3.83647">
        <ele>140.6</ele>
        <time>2022-12-08T08:45:39Z</time>
      </trkpt>
      <trkpt lat="47.95155" lon="-3.83648">
        <ele>140.8</ele>
        <time>2022-12-08T08:45:40Z</time>
      </trkpt>
      <trkpt lat="47.95158" lon="-3.83648">
        <ele>140.9</ele>
        <time>2022-12-08T08:45:41Z</time>
      </trkpt>
      <trkpt lat="47.95162" lon="-3.83645">
        <ele>141.1</ele>
        <time>2022-12-08T08:45:42Z</time>
      </trkpt>
      <trkpt lat="47.95164" lon="-3.83642">
        <ele>141.2</ele>
        <time>2022-12-08T08:45:43Z</time>
      </trkpt>
      <trkpt lat="47.95167" lon="-3.83636">
        <ele>141.3</ele>
        <time>2022-12-08T08:45:44Z</time>
      </trkpt>
      <trkpt lat="47.95169" lon="-3.83631">
        <ele>141.5</ele>
        <time>2022-12-08T08:45:45Z</time>
      </trkpt>
      <trkpt lat="47.95171" lon="-3.83627">
        <ele>141.6</ele>
        <time>2022-12-08T08:45:46Z</time>
      </trkpt>
      <trkpt lat="47.95173" lon="-3.83623">
        <ele>141.7</ele>
        <time>2022-12-08T08:45:47Z</time>
      </trkpt>
      <trkpt lat="47.95176" lon="-3.83619">
        <ele>141.8</ele>
        <time>2022-12-08T08:45:48Z</time>
      </trkpt>
      <trkpt lat="47.95178" lon="-3.83615">
        <ele>142</ele>
        <time>2022-12-08T08:45:49Z</time>
      </trkpt>
      <trkpt lat="47.95181" lon="-3.83611">
        <ele>142.1</ele>
        <time>2022-12-08T08:45:50Z</time>
      </trkpt>
      <trkpt lat="47.95184" lon="-3.83607">
        <ele>142.3</ele>
        <time>2022-12-08T08:45:51Z</time>
      </trkpt>
      <trkpt lat="47.95187" lon="-3.83603">
        <ele>142.4</ele>
        <time>2022-12-08T08:45:52Z</time>
      </trkpt>
      <trkpt lat="47.9519" lon="-3.836">
        <ele>142.6</ele>
        <time>2022-12-08T08:45:53Z</time>
      </trkpt>
      <trkpt lat="47.95194" lon="-3.83597">
        <ele>142.9</ele>
        <time>2022-12-08T08:45:54Z</time>
      </trkpt>
      <trkpt lat="47.95197" lon="-3.83595">
        <ele>143.1</ele>
        <time>2022-12-08T08:45:55Z</time>
      </trkpt>
      <trkpt lat="47.952" lon="-3.83594">
        <ele>143.3</ele>
        <time>2022-12-08T08:45:56Z</time>
      </trkpt>
      <trkpt lat="47.95204" lon="-3.83594">
        <ele>143.5</ele>
        <time>2022-12-08T08:45:57Z</time>
      </trkpt>
      <trkpt lat="47.95207" lon="-3.83595">
        <ele>143.7</ele>
        <time>2022-12-08T08:45:58Z</time>
      </trkpt>
      <trkpt lat="47.95211" lon="-3.83596">
        <ele>143.9</ele>
        <time>2022-12-08T08:45:59Z</time>
      </trkpt>
      <trkpt lat="47.95214" lon="-3.83597">
        <ele>144.2</ele>
        <time>2022-12-08T08:46:00Z</time>
      </trkpt>
      <trkpt lat="47.95218" lon="-3.83598">
        <ele>144.4</ele>
        <time>2022-12-08T08:46:01Z</time>
      </trkpt>
      <trkpt lat="47.9522" lon="-3.83599">
        <ele>144.6</ele>
        <time>2022-12-08T08:46:02Z</time>
      </trkpt>
      <trkpt lat="47.95223" lon="-3.83601">
        <ele>144.9</ele>
        <time>2022-12-08T08:46:03Z</time>
      </trkpt>
      <trkpt lat="47.95227" lon="-3.83603">
        <ele>145.1</ele>
        <time>2022-12-08T08:46:04Z</time>
      </trkpt>
      <trkpt lat="47.9523" lon="-3.83605">
        <ele>145.3</ele>
        <time>2022-12-08T08:46:06Z</time>
      </trkpt>
      <trkpt lat="47.95232" lon="-3.83607">
        <ele>145.5</ele>
        <time>2022-12-08T08:46:07Z</time>
      </trkpt>
      <trkpt lat="47.95235" lon="-3.83609">
        <ele>145.7</ele>
        <time>2022-12-08T08:46:08Z</time>
      </trkpt>
      <trkpt lat="47.95238" lon="-3.83611">
        <ele>145.9</ele>
        <time>2022-12-08T08:46:09Z</time>
      </trkpt>
      <trkpt lat="47.95243" lon="-3.83614">
        <ele>146.1</ele>
        <time>2022-12-08T08:46:10Z</time>
      </trkpt>
      <trkpt lat="47.95246" lon="-3.83615">
        <ele>146.3</ele>
        <time>2022-12-08T08:46:11Z</time>
      </trkpt>
      <trkpt lat="47.95249" lon="-3.83617">
        <ele>146.4</ele>
        <time>2022-12-08T08:46:12Z</time>
      </trkpt>
      <trkpt lat="47.95252" lon="-3.83619">
        <ele>146.6</ele>
        <time>2022-12-08T08:46:13Z</time>
      </trkpt>
      <trkpt lat="47.95255" lon="-3.83621">
        <ele>146.7</ele>
        <time>2022-12-08T08:46:14Z</time>
      </trkpt>
      <trkpt lat="47.95258" lon="-3.83622">
        <ele>146.8</ele>
        <time>2022-12-08T08:46:15Z</time>
      </trkpt>
      <trkpt lat="47.95261" lon="-3.83623">
        <ele>146.9</ele>
        <time>2022-12-08T08:46:16Z</time>
      </trkpt>
      <trkpt lat="47.95264" lon="-3.83625">
        <ele>147</ele>
        <time>2022-12-08T08:46:17Z</time>
      </trkpt>
      <trkpt lat="47.95267" lon="-3.83626">
        <ele>147.1</ele>
        <time>2022-12-08T08:46:18Z</time>
      </trkpt>
      <trkpt lat="47.95271" lon="-3.83628">
        <ele>147.2</ele>
        <time>2022-12-08T08:46:19Z</time>
      </trkpt>
      <trkpt lat="47.95274" lon="-3.83629">
        <ele>147.3</ele>
        <time>2022-12-08T08:46:20Z</time>
      </trkpt>
      <trkpt lat="47.95277" lon="-3.83631">
        <ele>147.3</ele>
        <time>2022-12-08T08:46:21Z</time>
      </trkpt>
      <trkpt lat="47.95281" lon="-3.83633">
        <ele>147.4</ele>
        <time>2022-12-08T08:46:22Z</time>
      </trkpt>
      <trkpt lat="47.95284" lon="-3.83635">
        <ele>147.5</ele>
        <time>2022-12-08T08:46:23Z</time>
      </trkpt>
      <trkpt lat="47.95288" lon="-3.83637">
        <ele>147.6</ele>
        <time>2022-12-08T08:46:24Z</time>
      </trkpt>
      <trkpt lat="47.9529" lon="-3.83638">
        <ele>147.6</ele>
        <time>2022-12-08T08:46:25Z</time>
      </trkpt>
      <trkpt lat="47.95293" lon="-3.83639">
        <ele>147.7</ele>
        <time>2022-12-08T08:46:26Z</time>
      </trkpt>
      <trkpt lat="47.95298" lon="-3.83642">
        <ele>147.9</ele>
        <time>2022-12-08T08:46:28Z</time>
      </trkpt>
      <trkpt lat="47.95303" lon="-3.83644">
        <ele>148</ele>
        <time>2022-12-08T08:46:29Z</time>
      </trkpt>
      <trkpt lat="47.95306" lon="-3.83645">
        <ele>148.2</ele>
        <time>2022-12-08T08:46:30Z</time>
      </trkpt>
      <trkpt lat="47.9531" lon="-3.83646">
        <ele>148.3</ele>
        <time>2022-12-08T08:46:31Z</time>
      </trkpt>
      <trkpt lat="47.95313" lon="-3.83647">
        <ele>148.4</ele>
        <time>2022-12-08T08:46:32Z</time>
      </trkpt>
      <trkpt lat="47.95316" lon="-3.83648">
        <ele>148.6</ele>
        <time>2022-12-08T08:46:33Z</time>
      </trkpt>
      <trkpt lat="47.9532" lon="-3.83649">
        <ele>148.7</ele>
        <time>2022-12-08T08:46:35Z</time>
      </trkpt>
      <trkpt lat="47.95323" lon="-3.83653">
        <ele>148.9</ele>
        <time>2022-12-08T08:46:36Z</time>
      </trkpt>
      <trkpt lat="47.95327" lon="-3.83656">
        <ele>149.1</ele>
        <time>2022-12-08T08:46:37Z</time>
      </trkpt>
      <trkpt lat="47.95329" lon="-3.83659">
        <ele>149.2</ele>
        <time>2022-12-08T08:46:38Z</time>
      </trkpt>
      <trkpt lat="47.95332" lon="-3.83662">
        <ele>149.3</ele>
        <time>2022-12-08T08:46:39Z</time>
      </trkpt>
      <trkpt lat="47.95335" lon="-3.83667">
        <ele>149.4</ele>
        <time>2022-12-08T08:46:41Z</time>
      </trkpt>
      <trkpt lat="47.95338" lon="-3.83673">
        <ele>149.5</ele>
        <time>2022-12-08T08:46:42Z</time>
      </trkpt>
      <trkpt lat="47.9534" lon="-3.83678">
        <ele>149.5</ele>
        <time>2022-12-08T08:46:43Z</time>
      </trkpt>
      <trkpt lat="47.95342" lon="-3.83682">
        <ele>149.5</ele>
        <time>2022-12-08T08:46:44Z</time>
      </trkpt>
      <trkpt lat="47.95345" lon="-3.83685">
        <ele>149.6</ele>
        <time>2022-12-08T08:46:45Z</time>
      </trkpt>
      <trkpt lat="47.95348" lon="-3.83688">
        <ele>149.6</ele>
        <time>2022-12-08T08:46:46Z</time>
      </trkpt>
      <trkpt lat="47.95353" lon="-3.83691">
        <ele>149.6</ele>
        <time>2022-12-08T08:46:48Z</time>
      </trkpt>
      <trkpt lat="47.95357" lon="-3.83694">
        <ele>149.5</ele>
        <time>2022-12-08T08:46:49Z</time>
      </trkpt>
      <trkpt lat="47.95361" lon="-3.83697">
        <ele>149.4</ele>
        <time>2022-12-08T08:46:50Z</time>
      </trkpt>
      <trkpt lat="47.95364" lon="-3.837">
        <ele>149.3</ele>
        <time>2022-12-08T08:46:51Z</time>
      </trkpt>
      <trkpt lat="47.9537" lon="-3.83703">
        <ele>149</ele>
        <time>2022-12-08T08:46:52Z</time>
      </trkpt>
      <trkpt lat="47.95376" lon="-3.83707">
        <ele>148.7</ele>
        <time>2022-12-08T08:46:53Z</time>
      </trkpt>
      <trkpt lat="47.95381" lon="-3.83711">
        <ele>148.6</ele>
        <time>2022-12-08T08:46:54Z</time>
      </trkpt>
      <trkpt lat="47.95386" lon="-3.83713">
        <ele>148</ele>
        <time>2022-12-08T08:46:55Z</time>
      </trkpt>
      <trkpt lat="47.9539" lon="-3.83716">
        <ele>148</ele>
        <time>2022-12-08T08:46:56Z</time>
      </trkpt>
      <trkpt lat="47.95393" lon="-3.83717">
        <ele>148</ele>
        <time>2022-12-08T08:46:57Z</time>
      </trkpt>
      <trkpt lat="47.95395" lon="-3.83718">
        <ele>148</ele>
        <time>2022-12-08T08:46:58Z</time>
      </trkpt>
      <trkpt lat="47.954" lon="-3.83722">
        <ele>148.1</ele>
        <time>2022-12-08T08:47:00Z</time>
      </trkpt>
      <trkpt lat="47.95402" lon="-3.83725">
        <ele>148.1</ele>
        <time>2022-12-08T08:47:01Z</time>
      </trkpt>
      <trkpt lat="47.95403" lon="-3.8373">
        <ele>148.1</ele>
        <time>2022-12-08T08:47:02Z</time>
      </trkpt>
      <trkpt lat="47.95403" lon="-3.83736">
        <ele>148.1</ele>
        <time>2022-12-08T08:47:03Z</time>
      </trkpt>
      <trkpt lat="47.95403" lon="-3.83742">
        <ele>148.1</ele>
        <time>2022-12-08T08:47:04Z</time>
      </trkpt>
      <trkpt lat="47.95402" lon="-3.83748">
        <ele>148.2</ele>
        <time>2022-12-08T08:47:05Z</time>
      </trkpt>
      <trkpt lat="47.95401" lon="-3.83754">
        <ele>148.1</ele>
        <time>2022-12-08T08:47:06Z</time>
      </trkpt>
      <trkpt lat="47.95402" lon="-3.8376">
        <ele>148</ele>
        <time>2022-12-08T08:47:07Z</time>
      </trkpt>
      <trkpt lat="47.95402" lon="-3.83767">
        <ele>148</ele>
        <time>2022-12-08T08:47:08Z</time>
      </trkpt>
      <trkpt lat="47.95401" lon="-3.83774">
        <ele>147.9</ele>
        <time>2022-12-08T08:47:09Z</time>
      </trkpt>
      <trkpt lat="47.95398" lon="-3.83779">
        <ele>147.9</ele>
        <time>2022-12-08T08:47:10Z</time>
      </trkpt>
      <trkpt lat="47.95393" lon="-3.8378">
        <ele>147.8</ele>
        <time>2022-12-08T08:47:11Z</time>
      </trkpt>
      <trkpt lat="47.9539" lon="-3.8378">
        <ele>147.7</ele>
        <time>2022-12-08T08:47:12Z</time>
      </trkpt>
      <trkpt lat="47.95384" lon="-3.83781">
        <ele>147.5</ele>
        <time>2022-12-08T08:47:14Z</time>
      </trkpt>
      <trkpt lat="47.95379" lon="-3.83784">
        <ele>147.4</ele>
        <time>2022-12-08T08:47:15Z</time>
      </trkpt>
      <trkpt lat="47.95375" lon="-3.83791">
        <ele>147.3</ele>
        <time>2022-12-08T08:47:16Z</time>
      </trkpt>
      <trkpt lat="47.95372" lon="-3.83797">
        <ele>147.2</ele>
        <time>2022-12-08T08:47:17Z</time>
      </trkpt>
      <trkpt lat="47.95369" lon="-3.83803">
        <ele>147.2</ele>
        <time>2022-12-08T08:47:18Z</time>
      </trkpt>
      <trkpt lat="47.95366" lon="-3.83809">
        <ele>147.1</ele>
        <time>2022-12-08T08:47:19Z</time>
      </trkpt>
      <trkpt lat="47.95363" lon="-3.83815">
        <ele>147</ele>
        <time>2022-12-08T08:47:20Z</time>
      </trkpt>
      <trkpt lat="47.95359" lon="-3.8382">
        <ele>146.9</ele>
        <time>2022-12-08T08:47:21Z</time>
      </trkpt>
      <trkpt lat="47.95356" lon="-3.83826">
        <ele>146.9</ele>
        <time>2022-12-08T08:47:22Z</time>
      </trkpt>
      <trkpt lat="47.95352" lon="-3.83832">
        <ele>146.8</ele>
        <time>2022-12-08T08:47:23Z</time>
      </trkpt>
      <trkpt lat="47.95348" lon="-3.83838">
        <ele>146.7</ele>
        <time>2022-12-08T08:47:24Z</time>
      </trkpt>
      <trkpt lat="47.95345" lon="-3.83843">
        <ele>146.2</ele>
        <time>2022-12-08T08:47:25Z</time>
      </trkpt>
      <trkpt lat="47.95345" lon="-3.83847">
        <ele>146</ele>
        <time>2022-12-08T08:47:26Z</time>
      </trkpt>
      <trkpt lat="47.95345" lon="-3.8385">
        <ele>145.8</ele>
        <time>2022-12-08T08:47:27Z</time>
      </trkpt>
      <trkpt lat="47.95348" lon="-3.83849">
        <ele>145.7</ele>
        <time>2022-12-08T08:47:28Z</time>
      </trkpt>
      <trkpt lat="47.95355" lon="-3.83854">
        <ele>145</ele>
        <time>2022-12-08T08:47:29Z</time>
      </trkpt>
      <trkpt lat="47.95361" lon="-3.83858">
        <ele>144.5</ele>
        <time>2022-12-08T08:47:31Z</time>
      </trkpt>
      <trkpt lat="47.9537" lon="-3.83864">
        <ele>143.7</ele>
        <time>2022-12-08T08:47:32Z</time>
      </trkpt>
      <trkpt lat="47.95376" lon="-3.83868">
        <ele>143.3</ele>
        <time>2022-12-08T08:47:33Z</time>
      </trkpt>
      <trkpt lat="47.95382" lon="-3.83873">
        <ele>142.9</ele>
        <time>2022-12-08T08:47:34Z</time>
      </trkpt>
      <trkpt lat="47.95387" lon="-3.83878">
        <ele>142.5</ele>
        <time>2022-12-08T08:47:35Z</time>
      </trkpt>
      <trkpt lat="47.95392" lon="-3.83883">
        <ele>142.3</ele>
        <time>2022-12-08T08:47:36Z</time>
      </trkpt>
      <trkpt lat="47.95398" lon="-3.83887">
        <ele>142.1</ele>
        <time>2022-12-08T08:47:37Z</time>
      </trkpt>
      <trkpt lat="47.95403" lon="-3.83891">
        <ele>141.9</ele>
        <time>2022-12-08T08:47:38Z</time>
      </trkpt>
      <trkpt lat="47.9541" lon="-3.83896">
        <ele>141.8</ele>
        <time>2022-12-08T08:47:39Z</time>
      </trkpt>
      <trkpt lat="47.95415" lon="-3.839">
        <ele>141.7</ele>
        <time>2022-12-08T08:47:40Z</time>
      </trkpt>
      <trkpt lat="47.95422" lon="-3.83903">
        <ele>141.6</ele>
        <time>2022-12-08T08:47:41Z</time>
      </trkpt>
      <trkpt lat="47.95428" lon="-3.83906">
        <ele>141.5</ele>
        <time>2022-12-08T08:47:42Z</time>
      </trkpt>
      <trkpt lat="47.95434" lon="-3.83909">
        <ele>141.4</ele>
        <time>2022-12-08T08:47:43Z</time>
      </trkpt>
      <trkpt lat="47.9544" lon="-3.83912">
        <ele>141.3</ele>
        <time>2022-12-08T08:47:44Z</time>
      </trkpt>
      <trkpt lat="47.95447" lon="-3.83915">
        <ele>141.2</ele>
        <time>2022-12-08T08:47:45Z</time>
      </trkpt>
      <trkpt lat="47.95454" lon="-3.83918">
        <ele>141.2</ele>
        <time>2022-12-08T08:47:46Z</time>
      </trkpt>
      <trkpt lat="47.95459" lon="-3.8392">
        <ele>141.1</ele>
        <time>2022-12-08T08:47:47Z</time>
      </trkpt>
      <trkpt lat="47.95466" lon="-3.83923">
        <ele>141.1</ele>
        <time>2022-12-08T08:47:48Z</time>
      </trkpt>
      <trkpt lat="47.95471" lon="-3.83926">
        <ele>141.1</ele>
        <time>2022-12-08T08:47:49Z</time>
      </trkpt>
      <trkpt lat="47.95478" lon="-3.83929">
        <ele>141.1</ele>
        <time>2022-12-08T08:47:50Z</time>
      </trkpt>
      <trkpt lat="47.95484" lon="-3.83931">
        <ele>141.2</ele>
        <time>2022-12-08T08:47:51Z</time>
      </trkpt>
      <trkpt lat="47.95488" lon="-3.83934">
        <ele>141.3</ele>
        <time>2022-12-08T08:47:52Z</time>
      </trkpt>
      <trkpt lat="47.95493" lon="-3.83936">
        <ele>141.3</ele>
        <time>2022-12-08T08:47:53Z</time>
      </trkpt>
      <trkpt lat="47.95498" lon="-3.83937">
        <ele>141.4</ele>
        <time>2022-12-08T08:47:54Z</time>
      </trkpt>
      <trkpt lat="47.95502" lon="-3.83939">
        <ele>141.4</ele>
        <time>2022-12-08T08:47:55Z</time>
      </trkpt>
      <trkpt lat="47.95507" lon="-3.83941">
        <ele>141.6</ele>
        <time>2022-12-08T08:47:56Z</time>
      </trkpt>
      <trkpt lat="47.95512" lon="-3.83942">
        <ele>141.7</ele>
        <time>2022-12-08T08:47:57Z</time>
      </trkpt>
      <trkpt lat="47.95517" lon="-3.83943">
        <ele>141.8</ele>
        <time>2022-12-08T08:47:58Z</time>
      </trkpt>
      <trkpt lat="47.95522" lon="-3.83946">
        <ele>142</ele>
        <time>2022-12-08T08:47:59Z</time>
      </trkpt>
      <trkpt lat="47.95527" lon="-3.83947">
        <ele>142.1</ele>
        <time>2022-12-08T08:48:00Z</time>
      </trkpt>
      <trkpt lat="47.9553" lon="-3.83948">
        <ele>142.2</ele>
        <time>2022-12-08T08:48:01Z</time>
      </trkpt>
      <trkpt lat="47.95535" lon="-3.83949">
        <ele>142.4</ele>
        <time>2022-12-08T08:48:02Z</time>
      </trkpt>
      <trkpt lat="47.95539" lon="-3.8395">
        <ele>142.5</ele>
        <time>2022-12-08T08:48:03Z</time>
      </trkpt>
      <trkpt lat="47.95543" lon="-3.8395">
        <ele>142.7</ele>
        <time>2022-12-08T08:48:04Z</time>
      </trkpt>
      <trkpt lat="47.95547" lon="-3.8395">
        <ele>142.8</ele>
        <time>2022-12-08T08:48:05Z</time>
      </trkpt>
      <trkpt lat="47.95551" lon="-3.83949">
        <ele>142.9</ele>
        <time>2022-12-08T08:48:06Z</time>
      </trkpt>
      <trkpt lat="47.95555" lon="-3.83948">
        <ele>143</ele>
        <time>2022-12-08T08:48:07Z</time>
      </trkpt>
      <trkpt lat="47.95557" lon="-3.83949">
        <ele>143</ele>
        <time>2022-12-08T08:48:08Z</time>
      </trkpt>
      <trkpt lat="47.95564" lon="-3.83954">
        <ele>143.2</ele>
        <time>2022-12-08T08:48:10Z</time>
      </trkpt>
      <trkpt lat="47.95569" lon="-3.83957">
        <ele>143.2</ele>
        <time>2022-12-08T08:48:11Z</time>
      </trkpt>
      <trkpt lat="47.95573" lon="-3.83959">
        <ele>143.3</ele>
        <time>2022-12-08T08:48:12Z</time>
      </trkpt>
      <trkpt lat="47.95577" lon="-3.83961">
        <ele>143.2</ele>
        <time>2022-12-08T08:48:13Z</time>
      </trkpt>
      <trkpt lat="47.95582" lon="-3.83963">
        <ele>143.1</ele>
        <time>2022-12-08T08:48:14Z</time>
      </trkpt>
      <trkpt lat="47.95588" lon="-3.83965">
        <ele>143</ele>
        <time>2022-12-08T08:48:16Z</time>
      </trkpt>
      <trkpt lat="47.95594" lon="-3.83967">
        <ele>142.8</ele>
        <time>2022-12-08T08:48:17Z</time>
      </trkpt>
      <trkpt lat="47.95598" lon="-3.8397">
        <ele>142.6</ele>
        <time>2022-12-08T08:48:18Z</time>
      </trkpt>
      <trkpt lat="47.95603" lon="-3.83976">
        <ele>142.3</ele>
        <time>2022-12-08T08:48:19Z</time>
      </trkpt>
      <trkpt lat="47.9561" lon="-3.83984">
        <ele>142</ele>
        <time>2022-12-08T08:48:20Z</time>
      </trkpt>
      <trkpt lat="47.95614" lon="-3.83989">
        <ele>141.9</ele>
        <time>2022-12-08T08:48:21Z</time>
      </trkpt>
      <trkpt lat="47.95619" lon="-3.83994">
        <ele>141.8</ele>
        <time>2022-12-08T08:48:22Z</time>
      </trkpt>
      <trkpt lat="47.95624" lon="-3.83998">
        <ele>141.7</ele>
        <time>2022-12-08T08:48:23Z</time>
      </trkpt>
      <trkpt lat="47.9563" lon="-3.84001">
        <ele>141.7</ele>
        <time>2022-12-08T08:48:24Z</time>
      </trkpt>
      <trkpt lat="47.95635" lon="-3.84003">
        <ele>141.6</ele>
        <time>2022-12-08T08:48:25Z</time>
      </trkpt>
      <trkpt lat="47.9564" lon="-3.84005">
        <ele>141.6</ele>
        <time>2022-12-08T08:48:26Z</time>
      </trkpt>
      <trkpt lat="47.95645" lon="-3.84005">
        <ele>141.6</ele>
        <time>2022-12-08T08:48:27Z</time>
      </trkpt>
      <trkpt lat="47.9565" lon="-3.84006">
        <ele>141.6</ele>
        <time>2022-12-08T08:48:28Z</time>
      </trkpt>
      <trkpt lat="47.95654" lon="-3.84006">
        <ele>141.6</ele>
        <time>2022-12-08T08:48:29Z</time>
      </trkpt>
      <trkpt lat="47.95659" lon="-3.84006">
        <ele>141.6</ele>
        <time>2022-12-08T08:48:30Z</time>
      </trkpt>
      <trkpt lat="47.95665" lon="-3.84004">
        <ele>141.7</ele>
        <time>2022-12-08T08:48:31Z</time>
      </trkpt>
      <trkpt lat="47.9567" lon="-3.84003">
        <ele>141.8</ele>
        <time>2022-12-08T08:48:32Z</time>
      </trkpt>
      <trkpt lat="47.95675" lon="-3.84003">
        <ele>142</ele>
        <time>2022-12-08T08:48:33Z</time>
      </trkpt>
      <trkpt lat="47.9568" lon="-3.84004">
        <ele>142.1</ele>
        <time>2022-12-08T08:48:34Z</time>
      </trkpt>
      <trkpt lat="47.95684" lon="-3.84004">
        <ele>142.3</ele>
        <time>2022-12-08T08:48:35Z</time>
      </trkpt>
      <trkpt lat="47.95687" lon="-3.84004">
        <ele>142.4</ele>
        <time>2022-12-08T08:48:36Z</time>
      </trkpt>
      <trkpt lat="47.95691" lon="-3.84004">
        <ele>142.5</ele>
        <time>2022-12-08T08:48:37Z</time>
      </trkpt>
      <trkpt lat="47.95697" lon="-3.84003">
        <ele>142.8</ele>
        <time>2022-12-08T08:48:38Z</time>
      </trkpt>
      <trkpt lat="47.95701" lon="-3.84003">
        <ele>142.9</ele>
        <time>2022-12-08T08:48:39Z</time>
      </trkpt>
      <trkpt lat="47.95706" lon="-3.84004">
        <ele>143.1</ele>
        <time>2022-12-08T08:48:40Z</time>
      </trkpt>
      <trkpt lat="47.95709" lon="-3.84004">
        <ele>143.2</ele>
        <time>2022-12-08T08:48:41Z</time>
      </trkpt>
      <trkpt lat="47.95712" lon="-3.84007">
        <ele>143.4</ele>
        <time>2022-12-08T08:48:43Z</time>
      </trkpt>
      <trkpt lat="47.95719" lon="-3.84005">
        <ele>143.6</ele>
        <time>2022-12-08T08:48:44Z</time>
      </trkpt>
      <trkpt lat="47.95724" lon="-3.84004">
        <ele>143.8</ele>
        <time>2022-12-08T08:48:45Z</time>
      </trkpt>
      <trkpt lat="47.95728" lon="-3.84004">
        <ele>144</ele>
        <time>2022-12-08T08:48:46Z</time>
      </trkpt>
      <trkpt lat="47.95733" lon="-3.84005">
        <ele>144.2</ele>
        <time>2022-12-08T08:48:48Z</time>
      </trkpt>
      <trkpt lat="47.95739" lon="-3.84005">
        <ele>144.4</ele>
        <time>2022-12-08T08:48:49Z</time>
      </trkpt>
      <trkpt lat="47.95742" lon="-3.84005">
        <ele>144.5</ele>
        <time>2022-12-08T08:48:50Z</time>
      </trkpt>
      <trkpt lat="47.95747" lon="-3.84006">
        <ele>144.7</ele>
        <time>2022-12-08T08:48:51Z</time>
      </trkpt>
      <trkpt lat="47.95749" lon="-3.84006">
        <ele>144.8</ele>
        <time>2022-12-08T08:48:52Z</time>
      </trkpt>
      <trkpt lat="47.95752" lon="-3.84007">
        <ele>144.9</ele>
        <time>2022-12-08T08:48:53Z</time>
      </trkpt>
      <trkpt lat="47.95756" lon="-3.84009">
        <ele>144.9</ele>
        <time>2022-12-08T08:48:54Z</time>
      </trkpt>
      <trkpt lat="47.95758" lon="-3.8401">
        <ele>144.9</ele>
        <time>2022-12-08T08:48:55Z</time>
      </trkpt>
      <trkpt lat="47.95762" lon="-3.84013">
        <ele>144.9</ele>
        <time>2022-12-08T08:48:56Z</time>
      </trkpt>
      <trkpt lat="47.95767" lon="-3.84017">
        <ele>144.8</ele>
        <time>2022-12-08T08:48:57Z</time>
      </trkpt>
      <trkpt lat="47.95772" lon="-3.84021">
        <ele>144.8</ele>
        <time>2022-12-08T08:48:58Z</time>
      </trkpt>
      <trkpt lat="47.95776" lon="-3.84026">
        <ele>144.8</ele>
        <time>2022-12-08T08:48:59Z</time>
      </trkpt>
      <trkpt lat="47.95779" lon="-3.84033">
        <ele>144.7</ele>
        <time>2022-12-08T08:49:00Z</time>
      </trkpt>
      <trkpt lat="47.95781" lon="-3.8404">
        <ele>144.7</ele>
        <time>2022-12-08T08:49:01Z</time>
      </trkpt>
      <trkpt lat="47.95783" lon="-3.84047">
        <ele>144.7</ele>
        <time>2022-12-08T08:49:02Z</time>
      </trkpt>
      <trkpt lat="47.95786" lon="-3.84053">
        <ele>144.6</ele>
        <time>2022-12-08T08:49:03Z</time>
      </trkpt>
      <trkpt lat="47.95789" lon="-3.8406">
        <ele>144.6</ele>
        <time>2022-12-08T08:49:04Z</time>
      </trkpt>
      <trkpt lat="47.95793" lon="-3.84064">
        <ele>144.6</ele>
        <time>2022-12-08T08:49:05Z</time>
      </trkpt>
      <trkpt lat="47.95799" lon="-3.84066">
        <ele>144.6</ele>
        <time>2022-12-08T08:49:06Z</time>
      </trkpt>
      <trkpt lat="47.95804" lon="-3.84064">
        <ele>144.6</ele>
        <time>2022-12-08T08:49:07Z</time>
      </trkpt>
      <trkpt lat="47.95809" lon="-3.84062">
        <ele>144.7</ele>
        <time>2022-12-08T08:49:08Z</time>
      </trkpt>
      <trkpt lat="47.95813" lon="-3.8406">
        <ele>144.7</ele>
        <time>2022-12-08T08:49:09Z</time>
      </trkpt>
      <trkpt lat="47.95818" lon="-3.84059">
        <ele>144.8</ele>
        <time>2022-12-08T08:49:10Z</time>
      </trkpt>
      <trkpt lat="47.95822" lon="-3.84058">
        <ele>144.9</ele>
        <time>2022-12-08T08:49:11Z</time>
      </trkpt>
      <trkpt lat="47.95826" lon="-3.84057">
        <ele>145</ele>
        <time>2022-12-08T08:49:12Z</time>
      </trkpt>
      <trkpt lat="47.95831" lon="-3.84057">
        <ele>145.1</ele>
        <time>2022-12-08T08:49:13Z</time>
      </trkpt>
      <trkpt lat="47.95835" lon="-3.84057">
        <ele>145.2</ele>
        <time>2022-12-08T08:49:14Z</time>
      </trkpt>
      <trkpt lat="47.95839" lon="-3.84057">
        <ele>145.2</ele>
        <time>2022-12-08T08:49:15Z</time>
      </trkpt>
      <trkpt lat="47.95843" lon="-3.84057">
        <ele>145.3</ele>
        <time>2022-12-08T08:49:16Z</time>
      </trkpt>
      <trkpt lat="47.95847" lon="-3.84058">
        <ele>145.3</ele>
        <time>2022-12-08T08:49:17Z</time>
      </trkpt>
      <trkpt lat="47.95849" lon="-3.84058">
        <ele>145.3</ele>
        <time>2022-12-08T08:49:18Z</time>
      </trkpt>
      <trkpt lat="47.95857" lon="-3.84061">
        <ele>145.2</ele>
        <time>2022-12-08T08:49:19Z</time>
      </trkpt>
      <trkpt lat="47.95862" lon="-3.84065">
        <ele>145.2</ele>
        <time>2022-12-08T08:49:20Z</time>
      </trkpt>
      <trkpt lat="47.95866" lon="-3.84068">
        <ele>144.7</ele>
        <time>2022-12-08T08:49:21Z</time>
      </trkpt>
      <trkpt lat="47.9587" lon="-3.84071">
        <ele>144.6</ele>
        <time>2022-12-08T08:49:22Z</time>
      </trkpt>
      <trkpt lat="47.95874" lon="-3.84071">
        <ele>144.5</ele>
        <time>2022-12-08T08:49:23Z</time>
      </trkpt>
      <trkpt lat="47.95875" lon="-3.84071">
        <ele>144.5</ele>
        <time>2022-12-08T08:49:24Z</time>
      </trkpt>
      <trkpt lat="47.95878" lon="-3.84069">
        <ele>144.4</ele>
        <time>2022-12-08T08:49:25Z</time>
      </trkpt>
      <trkpt lat="47.95882" lon="-3.84066">
        <ele>144.3</ele>
        <time>2022-12-08T08:49:26Z</time>
      </trkpt>
      <trkpt lat="47.95886" lon="-3.84063">
        <ele>144.2</ele>
        <time>2022-12-08T08:49:27Z</time>
      </trkpt>
      <trkpt lat="47.95892" lon="-3.84059">
        <ele>144</ele>
        <time>2022-12-08T08:49:28Z</time>
      </trkpt>
      <trkpt lat="47.95897" lon="-3.84055">
        <ele>143.9</ele>
        <time>2022-12-08T08:49:29Z</time>
      </trkpt>
      <trkpt lat="47.95902" lon="-3.84053">
        <ele>143.7</ele>
        <time>2022-12-08T08:49:30Z</time>
      </trkpt>
      <trkpt lat="47.95907" lon="-3.84051">
        <ele>143.6</ele>
        <time>2022-12-08T08:49:31Z</time>
      </trkpt>
      <trkpt lat="47.95912" lon="-3.84051">
        <ele>142.8</ele>
        <time>2022-12-08T08:49:32Z</time>
      </trkpt>
      <trkpt lat="47.95919" lon="-3.84049">
        <ele>141.7</ele>
        <time>2022-12-08T08:49:33Z</time>
      </trkpt>
      <trkpt lat="47.95926" lon="-3.84048">
        <ele>140.4</ele>
        <time>2022-12-08T08:49:34Z</time>
      </trkpt>
      <trkpt lat="47.95934" lon="-3.84046">
        <ele>139</ele>
        <time>2022-12-08T08:49:35Z</time>
      </trkpt>
      <trkpt lat="47.95942" lon="-3.84044">
        <ele>137.5</ele>
        <time>2022-12-08T08:49:36Z</time>
      </trkpt>
      <trkpt lat="47.95952" lon="-3.84041">
        <ele>135.8</ele>
        <time>2022-12-08T08:49:37Z</time>
      </trkpt>
      <trkpt lat="47.95962" lon="-3.84039">
        <ele>135</ele>
        <time>2022-12-08T08:49:38Z</time>
      </trkpt>
      <trkpt lat="47.95972" lon="-3.84037">
        <ele>133.8</ele>
        <time>2022-12-08T08:49:39Z</time>
      </trkpt>
      <trkpt lat="47.95983" lon="-3.84036">
        <ele>132.4</ele>
        <time>2022-12-08T08:49:40Z</time>
      </trkpt>
      <trkpt lat="47.95994" lon="-3.84034">
        <ele>131</ele>
        <time>2022-12-08T08:49:41Z</time>
      </trkpt>
      <trkpt lat="47.96006" lon="-3.84031">
        <ele>129.8</ele>
        <time>2022-12-08T08:49:42Z</time>
      </trkpt>
      <trkpt lat="47.96017" lon="-3.84028">
        <ele>128.8</ele>
        <time>2022-12-08T08:49:43Z</time>
      </trkpt>
      <trkpt lat="47.96028" lon="-3.84026">
        <ele>128.1</ele>
        <time>2022-12-08T08:49:44Z</time>
      </trkpt>
      <trkpt lat="47.96037" lon="-3.84024">
        <ele>127.5</ele>
        <time>2022-12-08T08:49:45Z</time>
      </trkpt>
      <trkpt lat="47.96044" lon="-3.84023">
        <ele>127.1</ele>
        <time>2022-12-08T08:49:46Z</time>
      </trkpt>
      <trkpt lat="47.9605" lon="-3.84019">
        <ele>126.9</ele>
        <time>2022-12-08T08:49:47Z</time>
      </trkpt>
      <trkpt lat="47.96054" lon="-3.84012">
        <ele>126.6</ele>
        <time>2022-12-08T08:49:48Z</time>
      </trkpt>
      <trkpt lat="47.96057" lon="-3.84002">
        <ele>126.3</ele>
        <time>2022-12-08T08:49:49Z</time>
      </trkpt>
      <trkpt lat="47.96058" lon="-3.83992">
        <ele>126.1</ele>
        <time>2022-12-08T08:49:50Z</time>
      </trkpt>
      <trkpt lat="47.96058" lon="-3.83984">
        <ele>126</ele>
        <time>2022-12-08T08:49:51Z</time>
      </trkpt>
      <trkpt lat="47.96058" lon="-3.83978">
        <ele>125.9</ele>
        <time>2022-12-08T08:49:52Z</time>
      </trkpt>
      <trkpt lat="47.96059" lon="-3.83973">
        <ele>125.8</ele>
        <time>2022-12-08T08:49:53Z</time>
      </trkpt>
      <trkpt lat="47.9606" lon="-3.83969">
        <ele>125.7</ele>
        <time>2022-12-08T08:49:54Z</time>
      </trkpt>
      <trkpt lat="47.9606" lon="-3.83968">
        <ele>125.6</ele>
        <time>2022-12-08T08:49:55Z</time>
      </trkpt>
      <trkpt lat="47.96063" lon="-3.83965">
        <ele>125.6</ele>
        <time>2022-12-08T08:49:56Z</time>
      </trkpt>
      <trkpt lat="47.96067" lon="-3.83964">
        <ele>125.6</ele>
        <time>2022-12-08T08:49:57Z</time>
      </trkpt>
      <trkpt lat="47.96072" lon="-3.83965">
        <ele>125.6</ele>
        <time>2022-12-08T08:49:58Z</time>
      </trkpt>
      <trkpt lat="47.96076" lon="-3.83968">
        <ele>125.5</ele>
        <time>2022-12-08T08:49:59Z</time>
      </trkpt>
      <trkpt lat="47.9608" lon="-3.83971">
        <ele>125.4</ele>
        <time>2022-12-08T08:50:00Z</time>
      </trkpt>
      <trkpt lat="47.96087" lon="-3.83974">
        <ele>125.3</ele>
        <time>2022-12-08T08:50:01Z</time>
      </trkpt>
      <trkpt lat="47.9609" lon="-3.83976">
        <ele>125.3</ele>
        <time>2022-12-08T08:50:02Z</time>
      </trkpt>
      <trkpt lat="47.96095" lon="-3.83979">
        <ele>125.2</ele>
        <time>2022-12-08T08:50:03Z</time>
      </trkpt>
      <trkpt lat="47.96099" lon="-3.83982">
        <ele>125.1</ele>
        <time>2022-12-08T08:50:04Z</time>
      </trkpt>
      <trkpt lat="47.96104" lon="-3.83985">
        <ele>125</ele>
        <time>2022-12-08T08:50:05Z</time>
      </trkpt>
      <trkpt lat="47.96109" lon="-3.83988">
        <ele>124.9</ele>
        <time>2022-12-08T08:50:06Z</time>
      </trkpt>
      <trkpt lat="47.96115" lon="-3.83991">
        <ele>124.7</ele>
        <time>2022-12-08T08:50:07Z</time>
      </trkpt>
      <trkpt lat="47.9612" lon="-3.83994">
        <ele>124.6</ele>
        <time>2022-12-08T08:50:08Z</time>
      </trkpt>
      <trkpt lat="47.96126" lon="-3.83997">
        <ele>124.5</ele>
        <time>2022-12-08T08:50:09Z</time>
      </trkpt>
      <trkpt lat="47.96132" lon="-3.83999">
        <ele>124.3</ele>
        <time>2022-12-08T08:50:10Z</time>
      </trkpt>
      <trkpt lat="47.96137" lon="-3.84003">
        <ele>124.2</ele>
        <time>2022-12-08T08:50:11Z</time>
      </trkpt>
      <trkpt lat="47.96143" lon="-3.84006">
        <ele>124.1</ele>
        <time>2022-12-08T08:50:12Z</time>
      </trkpt>
      <trkpt lat="47.96148" lon="-3.84009">
        <ele>124</ele>
        <time>2022-12-08T08:50:13Z</time>
      </trkpt>
      <trkpt lat="47.96154" lon="-3.84013">
        <ele>123.9</ele>
        <time>2022-12-08T08:50:14Z</time>
      </trkpt>
      <trkpt lat="47.9616" lon="-3.84016">
        <ele>123.8</ele>
        <time>2022-12-08T08:50:15Z</time>
      </trkpt>
      <trkpt lat="47.96166" lon="-3.8402">
        <ele>123.7</ele>
        <time>2022-12-08T08:50:16Z</time>
      </trkpt>
      <trkpt lat="47.96171" lon="-3.84024">
        <ele>123.7</ele>
        <time>2022-12-08T08:50:17Z</time>
      </trkpt>
      <trkpt lat="47.96177" lon="-3.84027">
        <ele>123.8</ele>
        <time>2022-12-08T08:50:18Z</time>
      </trkpt>
      <trkpt lat="47.96182" lon="-3.84031">
        <ele>123.8</ele>
        <time>2022-12-08T08:50:19Z</time>
      </trkpt>
      <trkpt lat="47.96187" lon="-3.84035">
        <ele>123.8</ele>
        <time>2022-12-08T08:50:20Z</time>
      </trkpt>
      <trkpt lat="47.96192" lon="-3.84041">
        <ele>123.8</ele>
        <time>2022-12-08T08:50:21Z</time>
      </trkpt>
      <trkpt lat="47.96195" lon="-3.84046">
        <ele>123.8</ele>
        <time>2022-12-08T08:50:22Z</time>
      </trkpt>
      <trkpt lat="47.96198" lon="-3.84043">
        <ele>123.8</ele>
        <time>2022-12-08T08:50:23Z</time>
      </trkpt>
      <trkpt lat="47.96198" lon="-3.84041">
        <ele>123.8</ele>
        <time>2022-12-08T08:50:24Z</time>
      </trkpt>
      <trkpt lat="47.96196" lon="-3.84037">
        <ele>123.9</ele>
        <time>2022-12-08T08:50:25Z</time>
      </trkpt>
      <trkpt lat="47.96196" lon="-3.84031">
        <ele>123.9</ele>
        <time>2022-12-08T08:50:26Z</time>
      </trkpt>
      <trkpt lat="47.96197" lon="-3.84029">
        <ele>123.9</ele>
        <time>2022-12-08T08:50:27Z</time>
      </trkpt>
      <trkpt lat="47.962" lon="-3.84026">
        <ele>123.9</ele>
        <time>2022-12-08T08:50:28Z</time>
      </trkpt>
      <trkpt lat="47.96204" lon="-3.84025">
        <ele>123.9</ele>
        <time>2022-12-08T08:50:29Z</time>
      </trkpt>
      <trkpt lat="47.96209" lon="-3.84025">
        <ele>123.9</ele>
        <time>2022-12-08T08:50:30Z</time>
      </trkpt>
      <trkpt lat="47.96214" lon="-3.84025">
        <ele>123.9</ele>
        <time>2022-12-08T08:50:31Z</time>
      </trkpt>
      <trkpt lat="47.96216" lon="-3.84026">
        <ele>123.9</ele>
        <time>2022-12-08T08:50:32Z</time>
      </trkpt>
      <trkpt lat="47.9622" lon="-3.84023">
        <ele>123.8</ele>
        <time>2022-12-08T08:50:33Z</time>
      </trkpt>
      <trkpt lat="47.96224" lon="-3.84021">
        <ele>123.8</ele>
        <time>2022-12-08T08:50:34Z</time>
      </trkpt>
      <trkpt lat="47.96229" lon="-3.8402">
        <ele>123.8</ele>
        <time>2022-12-08T08:50:35Z</time>
      </trkpt>
      <trkpt lat="47.96232" lon="-3.84019">
        <ele>123.7</ele>
        <time>2022-12-08T08:50:36Z</time>
      </trkpt>
      <trkpt lat="47.96237" lon="-3.84018">
        <ele>123.7</ele>
        <time>2022-12-08T08:50:37Z</time>
      </trkpt>
      <trkpt lat="47.96241" lon="-3.84016">
        <ele>123.6</ele>
        <time>2022-12-08T08:50:38Z</time>
      </trkpt>
      <trkpt lat="47.96245" lon="-3.84014">
        <ele>123.5</ele>
        <time>2022-12-08T08:50:39Z</time>
      </trkpt>
      <trkpt lat="47.96249" lon="-3.84013">
        <ele>123.4</ele>
        <time>2022-12-08T08:50:40Z</time>
      </trkpt>
      <trkpt lat="47.96254" lon="-3.84011">
        <ele>123.2</ele>
        <time>2022-12-08T08:50:41Z</time>
      </trkpt>
      <trkpt lat="47.96258" lon="-3.8401">
        <ele>123.1</ele>
        <time>2022-12-08T08:50:42Z</time>
      </trkpt>
      <trkpt lat="47.96262" lon="-3.84008">
        <ele>123</ele>
        <time>2022-12-08T08:50:43Z</time>
      </trkpt>
      <trkpt lat="47.96267" lon="-3.84006">
        <ele>122.8</ele>
        <time>2022-12-08T08:50:44Z</time>
      </trkpt>
      <trkpt lat="47.96272" lon="-3.84005">
        <ele>122.7</ele>
        <time>2022-12-08T08:50:45Z</time>
      </trkpt>
      <trkpt lat="47.96278" lon="-3.84003">
        <ele>122.5</ele>
        <time>2022-12-08T08:50:46Z</time>
      </trkpt>
      <trkpt lat="47.96284" lon="-3.84001">
        <ele>122.2</ele>
        <time>2022-12-08T08:50:47Z</time>
      </trkpt>
      <trkpt lat="47.9629" lon="-3.83999">
        <ele>122</ele>
        <time>2022-12-08T08:50:48Z</time>
      </trkpt>
      <trkpt lat="47.96296" lon="-3.83997">
        <ele>121.7</ele>
        <time>2022-12-08T08:50:49Z</time>
      </trkpt>
      <trkpt lat="47.96303" lon="-3.83996">
        <ele>121.4</ele>
        <time>2022-12-08T08:50:50Z</time>
      </trkpt>
      <trkpt lat="47.96309" lon="-3.83994">
        <ele>121.2</ele>
        <time>2022-12-08T08:50:51Z</time>
      </trkpt>
      <trkpt lat="47.96316" lon="-3.83992">
        <ele>120.8</ele>
        <time>2022-12-08T08:50:52Z</time>
      </trkpt>
      <trkpt lat="47.96324" lon="-3.8399">
        <ele>120.5</ele>
        <time>2022-12-08T08:50:53Z</time>
      </trkpt>
      <trkpt lat="47.96331" lon="-3.83988">
        <ele>120.2</ele>
        <time>2022-12-08T08:50:54Z</time>
      </trkpt>
      <trkpt lat="47.96339" lon="-3.83987">
        <ele>119.9</ele>
        <time>2022-12-08T08:50:55Z</time>
      </trkpt>
      <trkpt lat="47.96347" lon="-3.83987">
        <ele>119.5</ele>
        <time>2022-12-08T08:50:56Z</time>
      </trkpt>
      <trkpt lat="47.96355" lon="-3.83987">
        <ele>119.2</ele>
        <time>2022-12-08T08:50:57Z</time>
      </trkpt>
      <trkpt lat="47.96363" lon="-3.83988">
        <ele>118.9</ele>
        <time>2022-12-08T08:50:58Z</time>
      </trkpt>
      <trkpt lat="47.96372" lon="-3.83991">
        <ele>118.7</ele>
        <time>2022-12-08T08:50:59Z</time>
      </trkpt>
      <trkpt lat="47.9638" lon="-3.83994">
        <ele>118.5</ele>
        <time>2022-12-08T08:51:00Z</time>
      </trkpt>
      <trkpt lat="47.96388" lon="-3.83998">
        <ele>118.4</ele>
        <time>2022-12-08T08:51:01Z</time>
      </trkpt>
      <trkpt lat="47.96396" lon="-3.84002">
        <ele>118.3</ele>
        <time>2022-12-08T08:51:02Z</time>
      </trkpt>
      <trkpt lat="47.96404" lon="-3.84006">
        <ele>118.2</ele>
        <time>2022-12-08T08:51:03Z</time>
      </trkpt>
      <trkpt lat="47.96412" lon="-3.8401">
        <ele>118.2</ele>
        <time>2022-12-08T08:51:04Z</time>
      </trkpt>
      <trkpt lat="47.96419" lon="-3.84013">
        <ele>118.1</ele>
        <time>2022-12-08T08:51:05Z</time>
      </trkpt>
      <trkpt lat="47.96427" lon="-3.84014">
        <ele>118.1</ele>
        <time>2022-12-08T08:51:06Z</time>
      </trkpt>
      <trkpt lat="47.96434" lon="-3.84015">
        <ele>118.1</ele>
        <time>2022-12-08T08:51:07Z</time>
      </trkpt>
      <trkpt lat="47.96441" lon="-3.84018">
        <ele>118</ele>
        <time>2022-12-08T08:51:08Z</time>
      </trkpt>
      <trkpt lat="47.96446" lon="-3.84025">
        <ele>118</ele>
        <time>2022-12-08T08:51:09Z</time>
      </trkpt>
      <trkpt lat="47.9645" lon="-3.84034">
        <ele>118</ele>
        <time>2022-12-08T08:51:10Z</time>
      </trkpt>
      <trkpt lat="47.96452" lon="-3.84043">
        <ele>118</ele>
        <time>2022-12-08T08:51:11Z</time>
      </trkpt>
      <trkpt lat="47.96454" lon="-3.84053">
        <ele>118</ele>
        <time>2022-12-08T08:51:12Z</time>
      </trkpt>
      <trkpt lat="47.96456" lon="-3.84062">
        <ele>117.9</ele>
        <time>2022-12-08T08:51:13Z</time>
      </trkpt>
      <trkpt lat="47.9646" lon="-3.84069">
        <ele>117.9</ele>
        <time>2022-12-08T08:51:14Z</time>
      </trkpt>
      <trkpt lat="47.96465" lon="-3.84075">
        <ele>118</ele>
        <time>2022-12-08T08:51:15Z</time>
      </trkpt>
      <trkpt lat="47.96469" lon="-3.84081">
        <ele>118</ele>
        <time>2022-12-08T08:51:16Z</time>
      </trkpt>
      <trkpt lat="47.96473" lon="-3.84087">
        <ele>118</ele>
        <time>2022-12-08T08:51:17Z</time>
      </trkpt>
      <trkpt lat="47.96477" lon="-3.84094">
        <ele>118</ele>
        <time>2022-12-08T08:51:18Z</time>
      </trkpt>
      <trkpt lat="47.96481" lon="-3.841">
        <ele>118</ele>
        <time>2022-12-08T08:51:19Z</time>
      </trkpt>
      <trkpt lat="47.96485" lon="-3.84106">
        <ele>118</ele>
        <time>2022-12-08T08:51:20Z</time>
      </trkpt>
      <trkpt lat="47.9649" lon="-3.84112">
        <ele>118</ele>
        <time>2022-12-08T08:51:21Z</time>
      </trkpt>
      <trkpt lat="47.96494" lon="-3.84117">
        <ele>118</ele>
        <time>2022-12-08T08:51:22Z</time>
      </trkpt>
      <trkpt lat="47.96498" lon="-3.84123">
        <ele>118</ele>
        <time>2022-12-08T08:51:23Z</time>
      </trkpt>
      <trkpt lat="47.96502" lon="-3.8413">
        <ele>118</ele>
        <time>2022-12-08T08:51:24Z</time>
      </trkpt>
      <trkpt lat="47.96506" lon="-3.84136">
        <ele>118</ele>
        <time>2022-12-08T08:51:25Z</time>
      </trkpt>
      <trkpt lat="47.9651" lon="-3.84142">
        <ele>118.1</ele>
        <time>2022-12-08T08:51:26Z</time>
      </trkpt>
      <trkpt lat="47.96514" lon="-3.84148">
        <ele>118.2</ele>
        <time>2022-12-08T08:51:27Z</time>
      </trkpt>
      <trkpt lat="47.96518" lon="-3.84154">
        <ele>118.2</ele>
        <time>2022-12-08T08:51:28Z</time>
      </trkpt>
      <trkpt lat="47.96522" lon="-3.84159">
        <ele>118.3</ele>
        <time>2022-12-08T08:51:29Z</time>
      </trkpt>
      <trkpt lat="47.96526" lon="-3.84165">
        <ele>118.3</ele>
        <time>2022-12-08T08:51:30Z</time>
      </trkpt>
      <trkpt lat="47.9653" lon="-3.8417">
        <ele>118.3</ele>
        <time>2022-12-08T08:51:31Z</time>
      </trkpt>
      <trkpt lat="47.96534" lon="-3.84176">
        <ele>118.4</ele>
        <time>2022-12-08T08:51:32Z</time>
      </trkpt>
      <trkpt lat="47.96538" lon="-3.84182">
        <ele>118.5</ele>
        <time>2022-12-08T08:51:33Z</time>
      </trkpt>
      <trkpt lat="47.96543" lon="-3.84186">
        <ele>118.6</ele>
        <time>2022-12-08T08:51:34Z</time>
      </trkpt>
      <trkpt lat="47.96547" lon="-3.84192">
        <ele>118.7</ele>
        <time>2022-12-08T08:51:35Z</time>
      </trkpt>
      <trkpt lat="47.96551" lon="-3.84197">
        <ele>118.8</ele>
        <time>2022-12-08T08:51:36Z</time>
      </trkpt>
      <trkpt lat="47.96555" lon="-3.84203">
        <ele>118.9</ele>
        <time>2022-12-08T08:51:37Z</time>
      </trkpt>
      <trkpt lat="47.96559" lon="-3.84208">
        <ele>119</ele>
        <time>2022-12-08T08:51:38Z</time>
      </trkpt>
      <trkpt lat="47.96562" lon="-3.84214">
        <ele>119.1</ele>
        <time>2022-12-08T08:51:39Z</time>
      </trkpt>
      <trkpt lat="47.96566" lon="-3.84219">
        <ele>119.2</ele>
        <time>2022-12-08T08:51:40Z</time>
      </trkpt>
      <trkpt lat="47.9657" lon="-3.84225">
        <ele>119.4</ele>
        <time>2022-12-08T08:51:41Z</time>
      </trkpt>
      <trkpt lat="47.96573" lon="-3.84231">
        <ele>119.5</ele>
        <time>2022-12-08T08:51:42Z</time>
      </trkpt>
      <trkpt lat="47.96577" lon="-3.84236">
        <ele>119.7</ele>
        <time>2022-12-08T08:51:43Z</time>
      </trkpt>
      <trkpt lat="47.96581" lon="-3.8424">
        <ele>119.8</ele>
        <time>2022-12-08T08:51:44Z</time>
      </trkpt>
      <trkpt lat="47.96585" lon="-3.84245">
        <ele>120</ele>
        <time>2022-12-08T08:51:45Z</time>
      </trkpt>
      <trkpt lat="47.96589" lon="-3.8425">
        <ele>120.1</ele>
        <time>2022-12-08T08:51:46Z</time>
      </trkpt>
      <trkpt lat="47.96593" lon="-3.84255">
        <ele>120.3</ele>
        <time>2022-12-08T08:51:47Z</time>
      </trkpt>
      <trkpt lat="47.96596" lon="-3.8426">
        <ele>120.4</ele>
        <time>2022-12-08T08:51:48Z</time>
      </trkpt>
      <trkpt lat="47.966" lon="-3.84264">
        <ele>120.6</ele>
        <time>2022-12-08T08:51:49Z</time>
      </trkpt>
      <trkpt lat="47.96604" lon="-3.84269">
        <ele>120.8</ele>
        <time>2022-12-08T08:51:50Z</time>
      </trkpt>
      <trkpt lat="47.96608" lon="-3.84273">
        <ele>120.9</ele>
        <time>2022-12-08T08:51:51Z</time>
      </trkpt>
      <trkpt lat="47.96612" lon="-3.84278">
        <ele>121.1</ele>
        <time>2022-12-08T08:51:52Z</time>
      </trkpt>
      <trkpt lat="47.96615" lon="-3.84282">
        <ele>121.2</ele>
        <time>2022-12-08T08:51:53Z</time>
      </trkpt>
      <trkpt lat="47.96619" lon="-3.84286">
        <ele>121.4</ele>
        <time>2022-12-08T08:51:54Z</time>
      </trkpt>
      <trkpt lat="47.96623" lon="-3.8429">
        <ele>121.5</ele>
        <time>2022-12-08T08:51:55Z</time>
      </trkpt>
      <trkpt lat="47.96627" lon="-3.84294">
        <ele>121.6</ele>
        <time>2022-12-08T08:51:56Z</time>
      </trkpt>
      <trkpt lat="47.96631" lon="-3.84299">
        <ele>121.8</ele>
        <time>2022-12-08T08:51:57Z</time>
      </trkpt>
      <trkpt lat="47.96635" lon="-3.84302">
        <ele>121.9</ele>
        <time>2022-12-08T08:51:58Z</time>
      </trkpt>
      <trkpt lat="47.96638" lon="-3.84306">
        <ele>122.1</ele>
        <time>2022-12-08T08:51:59Z</time>
      </trkpt>
      <trkpt lat="47.96642" lon="-3.8431">
        <ele>122.2</ele>
        <time>2022-12-08T08:52:00Z</time>
      </trkpt>
      <trkpt lat="47.96646" lon="-3.84314">
        <ele>122.3</ele>
        <time>2022-12-08T08:52:01Z</time>
      </trkpt>
      <trkpt lat="47.9665" lon="-3.84318">
        <ele>122.5</ele>
        <time>2022-12-08T08:52:02Z</time>
      </trkpt>
      <trkpt lat="47.96654" lon="-3.84321">
        <ele>122.6</ele>
        <time>2022-12-08T08:52:03Z</time>
      </trkpt>
      <trkpt lat="47.96658" lon="-3.84325">
        <ele>122.7</ele>
        <time>2022-12-08T08:52:04Z</time>
      </trkpt>
      <trkpt lat="47.96663" lon="-3.84328">
        <ele>122.8</ele>
        <time>2022-12-08T08:52:05Z</time>
      </trkpt>
      <trkpt lat="47.96667" lon="-3.84332">
        <ele>123</ele>
        <time>2022-12-08T08:52:06Z</time>
      </trkpt>
      <trkpt lat="47.96671" lon="-3.84335">
        <ele>123.1</ele>
        <time>2022-12-08T08:52:07Z</time>
      </trkpt>
      <trkpt lat="47.96675" lon="-3.84339">
        <ele>123.2</ele>
        <time>2022-12-08T08:52:08Z</time>
      </trkpt>
      <trkpt lat="47.96679" lon="-3.84343">
        <ele>123.3</ele>
        <time>2022-12-08T08:52:09Z</time>
      </trkpt>
      <trkpt lat="47.96683" lon="-3.84347">
        <ele>123.4</ele>
        <time>2022-12-08T08:52:10Z</time>
      </trkpt>
      <trkpt lat="47.96687" lon="-3.84351">
        <ele>123.5</ele>
        <time>2022-12-08T08:52:11Z</time>
      </trkpt>
      <trkpt lat="47.96691" lon="-3.84355">
        <ele>123.7</ele>
        <time>2022-12-08T08:52:12Z</time>
      </trkpt>
      <trkpt lat="47.96695" lon="-3.84358">
        <ele>123.8</ele>
        <time>2022-12-08T08:52:13Z</time>
      </trkpt>
      <trkpt lat="47.96699" lon="-3.84362">
        <ele>123.9</ele>
        <time>2022-12-08T08:52:14Z</time>
      </trkpt>
      <trkpt lat="47.96704" lon="-3.84366">
        <ele>124</ele>
        <time>2022-12-08T08:52:15Z</time>
      </trkpt>
      <trkpt lat="47.96708" lon="-3.84369">
        <ele>124.1</ele>
        <time>2022-12-08T08:52:16Z</time>
      </trkpt>
      <trkpt lat="47.96712" lon="-3.84373">
        <ele>124.2</ele>
        <time>2022-12-08T08:52:17Z</time>
      </trkpt>
      <trkpt lat="47.96716" lon="-3.84377">
        <ele>124.3</ele>
        <time>2022-12-08T08:52:18Z</time>
      </trkpt>
      <trkpt lat="47.9672" lon="-3.84381">
        <ele>124.5</ele>
        <time>2022-12-08T08:52:19Z</time>
      </trkpt>
      <trkpt lat="47.96724" lon="-3.84385">
        <ele>124.6</ele>
        <time>2022-12-08T08:52:20Z</time>
      </trkpt>
      <trkpt lat="47.96728" lon="-3.84388">
        <ele>124.7</ele>
        <time>2022-12-08T08:52:21Z</time>
      </trkpt>
      <trkpt lat="47.96732" lon="-3.84392">
        <ele>124.8</ele>
        <time>2022-12-08T08:52:22Z</time>
      </trkpt>
      <trkpt lat="47.96736" lon="-3.84395">
        <ele>124.9</ele>
        <time>2022-12-08T08:52:23Z</time>
      </trkpt>
      <trkpt lat="47.96741" lon="-3.84399">
        <ele>125</ele>
        <time>2022-12-08T08:52:24Z</time>
      </trkpt>
      <trkpt lat="47.96745" lon="-3.84403">
        <ele>125.1</ele>
        <time>2022-12-08T08:52:25Z</time>
      </trkpt>
      <trkpt lat="47.96749" lon="-3.84406">
        <ele>125.2</ele>
        <time>2022-12-08T08:52:26Z</time>
      </trkpt>
      <trkpt lat="47.96753" lon="-3.84409">
        <ele>125.3</ele>
        <time>2022-12-08T08:52:27Z</time>
      </trkpt>
      <trkpt lat="47.96757" lon="-3.84413">
        <ele>125.4</ele>
        <time>2022-12-08T08:52:28Z</time>
      </trkpt>
      <trkpt lat="47.96761" lon="-3.84417">
        <ele>125.5</ele>
        <time>2022-12-08T08:52:29Z</time>
      </trkpt>
      <trkpt lat="47.96766" lon="-3.8442">
        <ele>125.7</ele>
        <time>2022-12-08T08:52:30Z</time>
      </trkpt>
      <trkpt lat="47.9677" lon="-3.84424">
        <ele>125.8</ele>
        <time>2022-12-08T08:52:31Z</time>
      </trkpt>
      <trkpt lat="47.96774" lon="-3.84428">
        <ele>125.9</ele>
        <time>2022-12-08T08:52:32Z</time>
      </trkpt>
      <trkpt lat="47.96779" lon="-3.84431">
        <ele>126</ele>
        <time>2022-12-08T08:52:33Z</time>
      </trkpt>
      <trkpt lat="47.96783" lon="-3.84435">
        <ele>126.1</ele>
        <time>2022-12-08T08:52:34Z</time>
      </trkpt>
      <trkpt lat="47.96787" lon="-3.84439">
        <ele>126.2</ele>
        <time>2022-12-08T08:52:35Z</time>
      </trkpt>
      <trkpt lat="47.96791" lon="-3.84443">
        <ele>126.3</ele>
        <time>2022-12-08T08:52:36Z</time>
      </trkpt>
      <trkpt lat="47.96795" lon="-3.84446">
        <ele>126.4</ele>
        <time>2022-12-08T08:52:37Z</time>
      </trkpt>
      <trkpt lat="47.968" lon="-3.8445">
        <ele>126.5</ele>
        <time>2022-12-08T08:52:38Z</time>
      </trkpt>
      <trkpt lat="47.96804" lon="-3.84454">
        <ele>126.6</ele>
        <time>2022-12-08T08:52:39Z</time>
      </trkpt>
      <trkpt lat="47.96808" lon="-3.84457">
        <ele>126.7</ele>
        <time>2022-12-08T08:52:40Z</time>
      </trkpt>
      <trkpt lat="47.96813" lon="-3.84461">
        <ele>126.9</ele>
        <time>2022-12-08T08:52:41Z</time>
      </trkpt>
      <trkpt lat="47.96817" lon="-3.84464">
        <ele>127</ele>
        <time>2022-12-08T08:52:42Z</time>
      </trkpt>
      <trkpt lat="47.96821" lon="-3.84468">
        <ele>127.1</ele>
        <time>2022-12-08T08:52:43Z</time>
      </trkpt>
      <trkpt lat="47.96825" lon="-3.84471">
        <ele>127.3</ele>
        <time>2022-12-08T08:52:44Z</time>
      </trkpt>
      <trkpt lat="47.96829" lon="-3.84475">
        <ele>127.4</ele>
        <time>2022-12-08T08:52:45Z</time>
      </trkpt>
      <trkpt lat="47.96833" lon="-3.84479">
        <ele>127.5</ele>
        <time>2022-12-08T08:52:46Z</time>
      </trkpt>
      <trkpt lat="47.96838" lon="-3.84483">
        <ele>127.6</ele>
        <time>2022-12-08T08:52:47Z</time>
      </trkpt>
      <trkpt lat="47.96842" lon="-3.84487">
        <ele>127.8</ele>
        <time>2022-12-08T08:52:48Z</time>
      </trkpt>
      <trkpt lat="47.96846" lon="-3.84491">
        <ele>127.9</ele>
        <time>2022-12-08T08:52:49Z</time>
      </trkpt>
      <trkpt lat="47.9685" lon="-3.84495">
        <ele>128</ele>
        <time>2022-12-08T08:52:50Z</time>
      </trkpt>
      <trkpt lat="47.96855" lon="-3.84498">
        <ele>128.1</ele>
        <time>2022-12-08T08:52:51Z</time>
      </trkpt>
      <trkpt lat="47.96859" lon="-3.84502">
        <ele>128.2</ele>
        <time>2022-12-08T08:52:52Z</time>
      </trkpt>
      <trkpt lat="47.96863" lon="-3.84505">
        <ele>128.3</ele>
        <time>2022-12-08T08:52:53Z</time>
      </trkpt>
      <trkpt lat="47.96867" lon="-3.84509">
        <ele>128.4</ele>
        <time>2022-12-08T08:52:54Z</time>
      </trkpt>
      <trkpt lat="47.96871" lon="-3.84512">
        <ele>128.5</ele>
        <time>2022-12-08T08:52:55Z</time>
      </trkpt>
      <trkpt lat="47.96875" lon="-3.84515">
        <ele>128.6</ele>
        <time>2022-12-08T08:52:56Z</time>
      </trkpt>
      <trkpt lat="47.96879" lon="-3.84518">
        <ele>128.7</ele>
        <time>2022-12-08T08:52:57Z</time>
      </trkpt>
      <trkpt lat="47.96883" lon="-3.84522">
        <ele>128.7</ele>
        <time>2022-12-08T08:52:58Z</time>
      </trkpt>
      <trkpt lat="47.96887" lon="-3.84526">
        <ele>128.8</ele>
        <time>2022-12-08T08:52:59Z</time>
      </trkpt>
      <trkpt lat="47.96891" lon="-3.8453">
        <ele>128.9</ele>
        <time>2022-12-08T08:53:00Z</time>
      </trkpt>
      <trkpt lat="47.96895" lon="-3.84534">
        <ele>129.1</ele>
        <time>2022-12-08T08:53:01Z</time>
      </trkpt>
      <trkpt lat="47.96899" lon="-3.84538">
        <ele>129.2</ele>
        <time>2022-12-08T08:53:02Z</time>
      </trkpt>
      <trkpt lat="47.96903" lon="-3.84541">
        <ele>129.4</ele>
        <time>2022-12-08T08:53:03Z</time>
      </trkpt>
      <trkpt lat="47.96907" lon="-3.84545">
        <ele>129.5</ele>
        <time>2022-12-08T08:53:04Z</time>
      </trkpt>
      <trkpt lat="47.96911" lon="-3.84549">
        <ele>129.6</ele>
        <time>2022-12-08T08:53:05Z</time>
      </trkpt>
      <trkpt lat="47.96915" lon="-3.84553">
        <ele>129.8</ele>
        <time>2022-12-08T08:53:06Z</time>
      </trkpt>
      <trkpt lat="47.96919" lon="-3.84556">
        <ele>129.9</ele>
        <time>2022-12-08T08:53:07Z</time>
      </trkpt>
      <trkpt lat="47.96923" lon="-3.8456">
        <ele>130</ele>
        <time>2022-12-08T08:53:08Z</time>
      </trkpt>
      <trkpt lat="47.96927" lon="-3.84564">
        <ele>130.1</ele>
        <time>2022-12-08T08:53:09Z</time>
      </trkpt>
      <trkpt lat="47.96931" lon="-3.84568">
        <ele>130.2</ele>
        <time>2022-12-08T08:53:10Z</time>
      </trkpt>
      <trkpt lat="47.96935" lon="-3.84572">
        <ele>130.3</ele>
        <time>2022-12-08T08:53:11Z</time>
      </trkpt>
      <trkpt lat="47.96939" lon="-3.84577">
        <ele>130.4</ele>
        <time>2022-12-08T08:53:12Z</time>
      </trkpt>
      <trkpt lat="47.96943" lon="-3.84581">
        <ele>130.5</ele>
        <time>2022-12-08T08:53:13Z</time>
      </trkpt>
      <trkpt lat="47.96947" lon="-3.84585">
        <ele>130.6</ele>
        <time>2022-12-08T08:53:14Z</time>
      </trkpt>
      <trkpt lat="47.96951" lon="-3.84589">
        <ele>130.7</ele>
        <time>2022-12-08T08:53:15Z</time>
      </trkpt>
      <trkpt lat="47.96955" lon="-3.84594">
        <ele>130.7</ele>
        <time>2022-12-08T08:53:16Z</time>
      </trkpt>
      <trkpt lat="47.96959" lon="-3.84599">
        <ele>130.8</ele>
        <time>2022-12-08T08:53:17Z</time>
      </trkpt>
      <trkpt lat="47.96963" lon="-3.84603">
        <ele>130.9</ele>
        <time>2022-12-08T08:53:18Z</time>
      </trkpt>
      <trkpt lat="47.96967" lon="-3.84607">
        <ele>131</ele>
        <time>2022-12-08T08:53:19Z</time>
      </trkpt>
      <trkpt lat="47.96971" lon="-3.84612">
        <ele>131</ele>
        <time>2022-12-08T08:53:20Z</time>
      </trkpt>
      <trkpt lat="47.96975" lon="-3.84616">
        <ele>131.1</ele>
        <time>2022-12-08T08:53:21Z</time>
      </trkpt>
      <trkpt lat="47.96979" lon="-3.84622">
        <ele>131.2</ele>
        <time>2022-12-08T08:53:22Z</time>
      </trkpt>
      <trkpt lat="47.96983" lon="-3.84626">
        <ele>131.3</ele>
        <time>2022-12-08T08:53:23Z</time>
      </trkpt>
      <trkpt lat="47.96988" lon="-3.84631">
        <ele>131.4</ele>
        <time>2022-12-08T08:53:24Z</time>
      </trkpt>
      <trkpt lat="47.96991" lon="-3.84635">
        <ele>131.4</ele>
        <time>2022-12-08T08:53:25Z</time>
      </trkpt>
      <trkpt lat="47.96995" lon="-3.8464">
        <ele>131.5</ele>
        <time>2022-12-08T08:53:26Z</time>
      </trkpt>
      <trkpt lat="47.96999" lon="-3.84645">
        <ele>131.6</ele>
        <time>2022-12-08T08:53:27Z</time>
      </trkpt>
      <trkpt lat="47.97003" lon="-3.84649">
        <ele>131.7</ele>
        <time>2022-12-08T08:53:28Z</time>
      </trkpt>
      <trkpt lat="47.97007" lon="-3.84654">
        <ele>131.8</ele>
        <time>2022-12-08T08:53:29Z</time>
      </trkpt>
      <trkpt lat="47.97011" lon="-3.84658">
        <ele>131.8</ele>
        <time>2022-12-08T08:53:30Z</time>
      </trkpt>
      <trkpt lat="47.97016" lon="-3.84663">
        <ele>131.9</ele>
        <time>2022-12-08T08:53:31Z</time>
      </trkpt>
      <trkpt lat="47.9702" lon="-3.84667">
        <ele>132</ele>
        <time>2022-12-08T08:53:32Z</time>
      </trkpt>
      <trkpt lat="47.97024" lon="-3.84672">
        <ele>132.1</ele>
        <time>2022-12-08T08:53:33Z</time>
      </trkpt>
      <trkpt lat="47.97028" lon="-3.84676">
        <ele>132.2</ele>
        <time>2022-12-08T08:53:34Z</time>
      </trkpt>
      <trkpt lat="47.97032" lon="-3.84681">
        <ele>132.3</ele>
        <time>2022-12-08T08:53:35Z</time>
      </trkpt>
      <trkpt lat="47.97036" lon="-3.84686">
        <ele>132.4</ele>
        <time>2022-12-08T08:53:36Z</time>
      </trkpt>
      <trkpt lat="47.9704" lon="-3.84691">
        <ele>132.5</ele>
        <time>2022-12-08T08:53:37Z</time>
      </trkpt>
      <trkpt lat="47.97044" lon="-3.84696">
        <ele>132.6</ele>
        <time>2022-12-08T08:53:38Z</time>
      </trkpt>
      <trkpt lat="47.97048" lon="-3.84701">
        <ele>132.7</ele>
        <time>2022-12-08T08:53:39Z</time>
      </trkpt>
      <trkpt lat="47.97053" lon="-3.84705">
        <ele>132.8</ele>
        <time>2022-12-08T08:53:40Z</time>
      </trkpt>
      <trkpt lat="47.97057" lon="-3.8471">
        <ele>132.8</ele>
        <time>2022-12-08T08:53:41Z</time>
      </trkpt>
      <trkpt lat="47.97061" lon="-3.84715">
        <ele>132.9</ele>
        <time>2022-12-08T08:53:42Z</time>
      </trkpt>
      <trkpt lat="47.97065" lon="-3.8472">
        <ele>133</ele>
        <time>2022-12-08T08:53:43Z</time>
      </trkpt>
      <trkpt lat="47.97069" lon="-3.84725">
        <ele>133.1</ele>
        <time>2022-12-08T08:53:44Z</time>
      </trkpt>
      <trkpt lat="47.97072" lon="-3.8473">
        <ele>133.2</ele>
        <time>2022-12-08T08:53:45Z</time>
      </trkpt>
      <trkpt lat="47.97076" lon="-3.84735">
        <ele>133.3</ele>
        <time>2022-12-08T08:53:46Z</time>
      </trkpt>
      <trkpt lat="47.9708" lon="-3.8474">
        <ele>133.3</ele>
        <time>2022-12-08T08:53:47Z</time>
      </trkpt>
      <trkpt lat="47.97084" lon="-3.84746">
        <ele>133.4</ele>
        <time>2022-12-08T08:53:48Z</time>
      </trkpt>
      <trkpt lat="47.97088" lon="-3.84751">
        <ele>133.5</ele>
        <time>2022-12-08T08:53:49Z</time>
      </trkpt>
      <trkpt lat="47.97091" lon="-3.84757">
        <ele>133.6</ele>
        <time>2022-12-08T08:53:50Z</time>
      </trkpt>
      <trkpt lat="47.97095" lon="-3.84762">
        <ele>133.6</ele>
        <time>2022-12-08T08:53:51Z</time>
      </trkpt>
      <trkpt lat="47.97098" lon="-3.84768">
        <ele>133.6</ele>
        <time>2022-12-08T08:53:52Z</time>
      </trkpt>
      <trkpt lat="47.97101" lon="-3.84774">
        <ele>133.7</ele>
        <time>2022-12-08T08:53:53Z</time>
      </trkpt>
      <trkpt lat="47.97105" lon="-3.8478">
        <ele>133.7</ele>
        <time>2022-12-08T08:53:54Z</time>
      </trkpt>
      <trkpt lat="47.97108" lon="-3.84785">
        <ele>133.7</ele>
        <time>2022-12-08T08:53:55Z</time>
      </trkpt>
      <trkpt lat="47.97111" lon="-3.84792">
        <ele>133.8</ele>
        <time>2022-12-08T08:53:56Z</time>
      </trkpt>
      <trkpt lat="47.97115" lon="-3.84798">
        <ele>133.8</ele>
        <time>2022-12-08T08:53:57Z</time>
      </trkpt>
      <trkpt lat="47.97118" lon="-3.84804">
        <ele>133.9</ele>
        <time>2022-12-08T08:53:58Z</time>
      </trkpt>
      <trkpt lat="47.97121" lon="-3.8481">
        <ele>133.9</ele>
        <time>2022-12-08T08:53:59Z</time>
      </trkpt>
      <trkpt lat="47.97124" lon="-3.84816">
        <ele>134</ele>
        <time>2022-12-08T08:54:00Z</time>
      </trkpt>
      <trkpt lat="47.97127" lon="-3.84823">
        <ele>134</ele>
        <time>2022-12-08T08:54:01Z</time>
      </trkpt>
      <trkpt lat="47.9713" lon="-3.84829">
        <ele>134.1</ele>
        <time>2022-12-08T08:54:02Z</time>
      </trkpt>
      <trkpt lat="47.97133" lon="-3.84836">
        <ele>134.1</ele>
        <time>2022-12-08T08:54:03Z</time>
      </trkpt>
      <trkpt lat="47.97135" lon="-3.84842">
        <ele>134.2</ele>
        <time>2022-12-08T08:54:04Z</time>
      </trkpt>
      <trkpt lat="47.97138" lon="-3.84849">
        <ele>134.3</ele>
        <time>2022-12-08T08:54:05Z</time>
      </trkpt>
      <trkpt lat="47.97141" lon="-3.84855">
        <ele>134.3</ele>
        <time>2022-12-08T08:54:06Z</time>
      </trkpt>
      <trkpt lat="47.97143" lon="-3.84861">
        <ele>134.4</ele>
        <time>2022-12-08T08:54:07Z</time>
      </trkpt>
      <trkpt lat="47.97146" lon="-3.84868">
        <ele>134.4</ele>
        <time>2022-12-08T08:54:08Z</time>
      </trkpt>
      <trkpt lat="47.97148" lon="-3.84875">
        <ele>134.4</ele>
        <time>2022-12-08T08:54:09Z</time>
      </trkpt>
      <trkpt lat="47.97151" lon="-3.84882">
        <ele>134.4</ele>
        <time>2022-12-08T08:54:10Z</time>
      </trkpt>
      <trkpt lat="47.97153" lon="-3.84888">
        <ele>134.4</ele>
        <time>2022-12-08T08:54:11Z</time>
      </trkpt>
      <trkpt lat="47.97156" lon="-3.84895">
        <ele>134.4</ele>
        <time>2022-12-08T08:54:12Z</time>
      </trkpt>
      <trkpt lat="47.97158" lon="-3.84902">
        <ele>134.4</ele>
        <time>2022-12-08T08:54:13Z</time>
      </trkpt>
      <trkpt lat="47.97161" lon="-3.84909">
        <ele>134.4</ele>
        <time>2022-12-08T08:54:14Z</time>
      </trkpt>
      <trkpt lat="47.97163" lon="-3.84916">
        <ele>134.4</ele>
        <time>2022-12-08T08:54:15Z</time>
      </trkpt>
      <trkpt lat="47.97166" lon="-3.84923">
        <ele>134.4</ele>
        <time>2022-12-08T08:54:16Z</time>
      </trkpt>
      <trkpt lat="47.97168" lon="-3.8493">
        <ele>134.3</ele>
        <time>2022-12-08T08:54:17Z</time>
      </trkpt>
      <trkpt lat="47.97171" lon="-3.84938">
        <ele>134.3</ele>
        <time>2022-12-08T08:54:18Z</time>
      </trkpt>
      <trkpt lat="47.97173" lon="-3.84945">
        <ele>134.3</ele>
        <time>2022-12-08T08:54:19Z</time>
      </trkpt>
      <trkpt lat="47.97176" lon="-3.84953">
        <ele>134.2</ele>
        <time>2022-12-08T08:54:20Z</time>
      </trkpt>
      <trkpt lat="47.97179" lon="-3.8496">
        <ele>134.2</ele>
        <time>2022-12-08T08:54:21Z</time>
      </trkpt>
      <trkpt lat="47.97181" lon="-3.84969">
        <ele>134.2</ele>
        <time>2022-12-08T08:54:22Z</time>
      </trkpt>
      <trkpt lat="47.97184" lon="-3.84976">
        <ele>134.1</ele>
        <time>2022-12-08T08:54:23Z</time>
      </trkpt>
      <trkpt lat="47.97187" lon="-3.84984">
        <ele>134.1</ele>
        <time>2022-12-08T08:54:24Z</time>
      </trkpt>
      <trkpt lat="47.9719" lon="-3.84992">
        <ele>134.1</ele>
        <time>2022-12-08T08:54:25Z</time>
      </trkpt>
      <trkpt lat="47.97193" lon="-3.85">
        <ele>134.1</ele>
        <time>2022-12-08T08:54:26Z</time>
      </trkpt>
      <trkpt lat="47.97196" lon="-3.85009">
        <ele>134</ele>
        <time>2022-12-08T08:54:27Z</time>
      </trkpt>
      <trkpt lat="47.97199" lon="-3.85017">
        <ele>134</ele>
        <time>2022-12-08T08:54:28Z</time>
      </trkpt>
      <trkpt lat="47.97202" lon="-3.85025">
        <ele>133.9</ele>
        <time>2022-12-08T08:54:29Z</time>
      </trkpt>
      <trkpt lat="47.97204" lon="-3.85033">
        <ele>133.8</ele>
        <time>2022-12-08T08:54:30Z</time>
      </trkpt>
      <trkpt lat="47.97207" lon="-3.85042">
        <ele>133.7</ele>
        <time>2022-12-08T08:54:31Z</time>
      </trkpt>
      <trkpt lat="47.9721" lon="-3.8505">
        <ele>133.6</ele>
        <time>2022-12-08T08:54:32Z</time>
      </trkpt>
      <trkpt lat="47.97212" lon="-3.85059">
        <ele>133.5</ele>
        <time>2022-12-08T08:54:33Z</time>
      </trkpt>
      <trkpt lat="47.97215" lon="-3.85067">
        <ele>133.4</ele>
        <time>2022-12-08T08:54:34Z</time>
      </trkpt>
      <trkpt lat="47.97218" lon="-3.85075">
        <ele>133.2</ele>
        <time>2022-12-08T08:54:35Z</time>
      </trkpt>
      <trkpt lat="47.97221" lon="-3.85084">
        <ele>133</ele>
        <time>2022-12-08T08:54:36Z</time>
      </trkpt>
      <trkpt lat="47.97224" lon="-3.85093">
        <ele>132.7</ele>
        <time>2022-12-08T08:54:37Z</time>
      </trkpt>
      <trkpt lat="47.97227" lon="-3.85102">
        <ele>132.4</ele>
        <time>2022-12-08T08:54:38Z</time>
      </trkpt>
      <trkpt lat="47.97231" lon="-3.85112">
        <ele>132.1</ele>
        <time>2022-12-08T08:54:39Z</time>
      </trkpt>
      <trkpt lat="47.97234" lon="-3.85122">
        <ele>131.8</ele>
        <time>2022-12-08T08:54:40Z</time>
      </trkpt>
      <trkpt lat="47.97237" lon="-3.85131">
        <ele>131.4</ele>
        <time>2022-12-08T08:54:41Z</time>
      </trkpt>
      <trkpt lat="47.97241" lon="-3.85141">
        <ele>131.1</ele>
        <time>2022-12-08T08:54:42Z</time>
      </trkpt>
      <trkpt lat="47.97244" lon="-3.85152">
        <ele>130.7</ele>
        <time>2022-12-08T08:54:43Z</time>
      </trkpt>
      <trkpt lat="47.97248" lon="-3.85162">
        <ele>130.3</ele>
        <time>2022-12-08T08:54:44Z</time>
      </trkpt>
      <trkpt lat="47.97252" lon="-3.85173">
        <ele>129.8</ele>
        <time>2022-12-08T08:54:45Z</time>
      </trkpt>
      <trkpt lat="47.97255" lon="-3.85184">
        <ele>129.4</ele>
        <time>2022-12-08T08:54:46Z</time>
      </trkpt>
      <trkpt lat="47.97259" lon="-3.85194">
        <ele>129</ele>
        <time>2022-12-08T08:54:47Z</time>
      </trkpt>
      <trkpt lat="47.97263" lon="-3.85205">
        <ele>128.5</ele>
        <time>2022-12-08T08:54:48Z</time>
      </trkpt>
      <trkpt lat="47.97267" lon="-3.85216">
        <ele>128.2</ele>
        <time>2022-12-08T08:54:49Z</time>
      </trkpt>
      <trkpt lat="47.9727" lon="-3.85227">
        <ele>127.9</ele>
        <time>2022-12-08T08:54:50Z</time>
      </trkpt>
      <trkpt lat="47.97274" lon="-3.85238">
        <ele>127.6</ele>
        <time>2022-12-08T08:54:51Z</time>
      </trkpt>
      <trkpt lat="47.97278" lon="-3.85249">
        <ele>127.3</ele>
        <time>2022-12-08T08:54:52Z</time>
      </trkpt>
      <trkpt lat="47.97282" lon="-3.85261">
        <ele>127.1</ele>
        <time>2022-12-08T08:54:53Z</time>
      </trkpt>
      <trkpt lat="47.97286" lon="-3.85272">
        <ele>126.9</ele>
        <time>2022-12-08T08:54:54Z</time>
      </trkpt>
      <trkpt lat="47.9729" lon="-3.85283">
        <ele>126.8</ele>
        <time>2022-12-08T08:54:55Z</time>
      </trkpt>
      <trkpt lat="47.97294" lon="-3.85293">
        <ele>126.8</ele>
        <time>2022-12-08T08:54:56Z</time>
        <extensions>
          <visugpx:TrkExtension xmlns:visugpx="https://www.visugpx.com/editgpx/">
            <visugpx:node>2</visugpx:node>
            </visugpx:TrkExtension>
        </extensions>
      </trkpt>
      <trkpt lat="47.97301" lon="-3.85324">
        <ele>126.2</ele>
      </trkpt>
      <trkpt lat="47.97318" lon="-3.85314">
        <ele>127</ele>
      </trkpt>
      <trkpt lat="47.97399" lon="-3.85246">
        <ele>128</ele>
      </trkpt>
      <trkpt lat="47.97434" lon="-3.85223">
        <ele>128</ele>
      </trkpt>
      <trkpt lat="47.97466" lon="-3.85197">
        <ele>128.1</ele>
      </trkpt>
      <trkpt lat="47.97484" lon="-3.85187">
        <ele>128.5</ele>
      </trkpt>
      <trkpt lat="47.97517" lon="-3.85188">
        <ele>128.8</ele>
      </trkpt>
      <trkpt lat="47.97593" lon="-3.85196">
        <ele>128.7</ele>
      </trkpt>
      <trkpt lat="47.97696" lon="-3.85195">
        <ele>123.9</ele>
      </trkpt>
      <trkpt lat="47.97728" lon="-3.85199">
        <ele>122.8</ele>
      </trkpt>
      <trkpt lat="47.97785" lon="-3.85218">
        <ele>119.9</ele>
      </trkpt>
      <trkpt lat="47.97816" lon="-3.85228">
        <ele>118.2</ele>
        <extensions>
          <visugpx:TrkExtension xmlns:visugpx="https://www.visugpx.com/editgpx/">
            <visugpx:node>3</visugpx:node>
            </visugpx:TrkExtension>
        </extensions>
      </trkpt>
      <trkpt lat="47.97818" lon="-3.85229">
        <ele>118.1</ele>
      </trkpt>
      <trkpt lat="47.97833" lon="-3.85234">
        <ele>117</ele>
        <extensions>
          <visugpx:TrkExtension xmlns:visugpx="https://www.visugpx.com/editgpx/">
            <visugpx:node>4</visugpx:node>
            </visugpx:TrkExtension>
        </extensions>
      </trkpt>
      <trkpt lat="47.97834" lon="-3.8523">
        <ele>117.8</ele>
        <time>2022-12-08T09:01:13Z</time>
      </trkpt>
      <trkpt lat="47.9784" lon="-3.85233">
        <ele>117.4</ele>
        <time>2022-12-08T09:01:14Z</time>
      </trkpt>
      <trkpt lat="47.97848" lon="-3.85235">
        <ele>117</ele>
        <time>2022-12-08T09:01:15Z</time>
      </trkpt>
      <trkpt lat="47.97855" lon="-3.85237">
        <ele>116.6</ele>
        <time>2022-12-08T09:01:16Z</time>
      </trkpt>
      <trkpt lat="47.97862" lon="-3.8524">
        <ele>116.2</ele>
        <time>2022-12-08T09:01:17Z</time>
      </trkpt>
      <trkpt lat="47.9787" lon="-3.85242">
        <ele>115.9</ele>
        <time>2022-12-08T09:01:18Z</time>
      </trkpt>
      <trkpt lat="47.97878" lon="-3.85244">
        <ele>115.5</ele>
        <time>2022-12-08T09:01:19Z</time>
      </trkpt>
      <trkpt lat="47.97886" lon="-3.85246">
        <ele>115.3</ele>
        <time>2022-12-08T09:01:20Z</time>
      </trkpt>
      <trkpt lat="47.97894" lon="-3.85247">
        <ele>115.1</ele>
        <time>2022-12-08T09:01:21Z</time>
      </trkpt>
      <trkpt lat="47.97901" lon="-3.85247">
        <ele>115</ele>
        <time>2022-12-08T09:01:22Z</time>
      </trkpt>
      <trkpt lat="47.97909" lon="-3.85247">
        <ele>114.9</ele>
        <time>2022-12-08T09:01:23Z</time>
      </trkpt>
      <trkpt lat="47.97916" lon="-3.85246">
        <ele>114.9</ele>
        <time>2022-12-08T09:01:24Z</time>
      </trkpt>
      <trkpt lat="47.97923" lon="-3.85245">
        <ele>114.9</ele>
        <time>2022-12-08T09:01:25Z</time>
      </trkpt>
      <trkpt lat="47.97929" lon="-3.85244">
        <ele>115</ele>
        <time>2022-12-08T09:01:26Z</time>
      </trkpt>
      <trkpt lat="47.97935" lon="-3.85243">
        <ele>115.1</ele>
        <time>2022-12-08T09:01:27Z</time>
      </trkpt>
      <trkpt lat="47.97941" lon="-3.85241">
        <ele>115.3</ele>
        <time>2022-12-08T09:01:28Z</time>
      </trkpt>
      <trkpt lat="47.97947" lon="-3.8524">
        <ele>115.4</ele>
        <time>2022-12-08T09:01:29Z</time>
      </trkpt>
      <trkpt lat="47.97952" lon="-3.85239">
        <ele>115.7</ele>
        <time>2022-12-08T09:01:30Z</time>
      </trkpt>
      <trkpt lat="47.97957" lon="-3.85239">
        <ele>116</ele>
        <time>2022-12-08T09:01:31Z</time>
      </trkpt>
      <trkpt lat="47.97963" lon="-3.85238">
        <ele>116.3</ele>
        <time>2022-12-08T09:01:32Z</time>
      </trkpt>
      <trkpt lat="47.97968" lon="-3.85237">
        <ele>116.6</ele>
        <time>2022-12-08T09:01:33Z</time>
      </trkpt>
      <trkpt lat="47.97972" lon="-3.85237">
        <ele>116.8</ele>
        <time>2022-12-08T09:01:34Z</time>
      </trkpt>
      <trkpt lat="47.97977" lon="-3.85237">
        <ele>117.1</ele>
        <time>2022-12-08T09:01:35Z</time>
      </trkpt>
      <trkpt lat="47.9798" lon="-3.85237">
        <ele>117.3</ele>
        <time>2022-12-08T09:01:36Z</time>
      </trkpt>
      <trkpt lat="47.97984" lon="-3.85236">
        <ele>117.5</ele>
        <time>2022-12-08T09:01:37Z</time>
      </trkpt>
      <trkpt lat="47.97987" lon="-3.85236">
        <ele>117.8</ele>
        <time>2022-12-08T09:01:38Z</time>
      </trkpt>
      <trkpt lat="47.97991" lon="-3.85236">
        <ele>118.1</ele>
        <time>2022-12-08T09:01:39Z</time>
      </trkpt>
      <trkpt lat="47.97996" lon="-3.85235">
        <ele>118.4</ele>
        <time>2022-12-08T09:01:40Z</time>
      </trkpt>
      <trkpt lat="47.98" lon="-3.85235">
        <ele>118.7</ele>
        <time>2022-12-08T09:01:41Z</time>
      </trkpt>
      <trkpt lat="47.98006" lon="-3.85234">
        <ele>119.1</ele>
        <time>2022-12-08T09:01:42Z</time>
      </trkpt>
      <trkpt lat="47.98011" lon="-3.85233">
        <ele>119.4</ele>
        <time>2022-12-08T09:01:44Z</time>
      </trkpt>
      <trkpt lat="47.98014" lon="-3.85233">
        <ele>119.6</ele>
        <time>2022-12-08T09:01:45Z</time>
      </trkpt>
      <trkpt lat="47.98019" lon="-3.85233">
        <ele>119.9</ele>
        <time>2022-12-08T09:01:46Z</time>
      </trkpt>
      <trkpt lat="47.98026" lon="-3.85232">
        <ele>120.3</ele>
        <time>2022-12-08T09:01:48Z</time>
      </trkpt>
      <trkpt lat="47.98031" lon="-3.85232">
        <ele>120.6</ele>
        <time>2022-12-08T09:01:49Z</time>
      </trkpt>
      <trkpt lat="47.98035" lon="-3.85233">
        <ele>120.8</ele>
        <time>2022-12-08T09:01:50Z</time>
      </trkpt>
      <trkpt lat="47.98042" lon="-3.85233">
        <ele>121.1</ele>
        <time>2022-12-08T09:01:52Z</time>
      </trkpt>
      <trkpt lat="47.98045" lon="-3.85232">
        <ele>121.3</ele>
        <time>2022-12-08T09:01:53Z</time>
      </trkpt>
      <trkpt lat="47.98051" lon="-3.85232">
        <ele>121.5</ele>
        <time>2022-12-08T09:01:54Z</time>
      </trkpt>
      <trkpt lat="47.98055" lon="-3.85233">
        <ele>121.7</ele>
        <time>2022-12-08T09:01:55Z</time>
      </trkpt>
      <trkpt lat="47.98059" lon="-3.85233">
        <ele>121.8</ele>
        <time>2022-12-08T09:01:56Z</time>
      </trkpt>
      <trkpt lat="47.98063" lon="-3.85234">
        <ele>121.9</ele>
        <time>2022-12-08T09:01:57Z</time>
      </trkpt>
      <trkpt lat="47.98067" lon="-3.85234">
        <ele>122.1</ele>
        <time>2022-12-08T09:01:58Z</time>
      </trkpt>
      <trkpt lat="47.98072" lon="-3.85235">
        <ele>122.2</ele>
        <time>2022-12-08T09:01:59Z</time>
      </trkpt>
      <trkpt lat="47.98076" lon="-3.85235">
        <ele>122.4</ele>
        <time>2022-12-08T09:02:00Z</time>
      </trkpt>
      <trkpt lat="47.98081" lon="-3.85235">
        <ele>122.5</ele>
        <time>2022-12-08T09:02:01Z</time>
      </trkpt>
      <trkpt lat="47.98084" lon="-3.85235">
        <ele>122.6</ele>
        <time>2022-12-08T09:02:02Z</time>
      </trkpt>
      <trkpt lat="47.98088" lon="-3.85236">
        <ele>122.7</ele>
        <time>2022-12-08T09:02:03Z</time>
      </trkpt>
      <trkpt lat="47.98092" lon="-3.85238">
        <ele>122.8</ele>
        <time>2022-12-08T09:02:04Z</time>
      </trkpt>
      <trkpt lat="47.98096" lon="-3.8524">
        <ele>122.8</ele>
        <time>2022-12-08T09:02:05Z</time>
      </trkpt>
      <trkpt lat="47.98101" lon="-3.85241">
        <ele>122.9</ele>
        <time>2022-12-08T09:02:06Z</time>
      </trkpt>
      <trkpt lat="47.98105" lon="-3.85242">
        <ele>123</ele>
        <time>2022-12-08T09:02:07Z</time>
      </trkpt>
      <trkpt lat="47.9811" lon="-3.85242">
        <ele>123</ele>
        <time>2022-12-08T09:02:08Z</time>
      </trkpt>
      <trkpt lat="47.98116" lon="-3.85239">
        <ele>123.1</ele>
        <time>2022-12-08T09:02:10Z</time>
      </trkpt>
      <trkpt lat="47.98123" lon="-3.85238">
        <ele>123.1</ele>
        <time>2022-12-08T09:02:11Z</time>
      </trkpt>
      <trkpt lat="47.98127" lon="-3.85239">
        <ele>123.1</ele>
        <time>2022-12-08T09:02:12Z</time>
      </trkpt>
      <trkpt lat="47.98132" lon="-3.85238">
        <ele>123.2</ele>
        <time>2022-12-08T09:02:13Z</time>
      </trkpt>
      <trkpt lat="47.98135" lon="-3.85238">
        <ele>123.2</ele>
        <time>2022-12-08T09:02:14Z</time>
      </trkpt>
      <trkpt lat="47.9814" lon="-3.85239">
        <ele>123.2</ele>
        <time>2022-12-08T09:02:15Z</time>
      </trkpt>
      <trkpt lat="47.98144" lon="-3.85239">
        <ele>123.2</ele>
        <time>2022-12-08T09:02:16Z</time>
      </trkpt>
      <trkpt lat="47.98148" lon="-3.85239">
        <ele>123.3</ele>
        <time>2022-12-08T09:02:17Z</time>
      </trkpt>
      <trkpt lat="47.98152" lon="-3.85239">
        <ele>123.3</ele>
        <time>2022-12-08T09:02:18Z</time>
      </trkpt>
      <trkpt lat="47.98155" lon="-3.85238">
        <ele>123.3</ele>
        <time>2022-12-08T09:02:19Z</time>
      </trkpt>
      <trkpt lat="47.98161" lon="-3.85237">
        <ele>123.2</ele>
        <time>2022-12-08T09:02:21Z</time>
      </trkpt>
      <trkpt lat="47.98168" lon="-3.85237">
        <ele>123.1</ele>
        <time>2022-12-08T09:02:22Z</time>
      </trkpt>
      <trkpt lat="47.98173" lon="-3.85237">
        <ele>123</ele>
        <time>2022-12-08T09:02:23Z</time>
      </trkpt>
      <trkpt lat="47.98177" lon="-3.85237">
        <ele>122.9</ele>
        <time>2022-12-08T09:02:24Z</time>
      </trkpt>
      <trkpt lat="47.98183" lon="-3.85236">
        <ele>122.7</ele>
        <time>2022-12-08T09:02:26Z</time>
      </trkpt>
      <trkpt lat="47.98188" lon="-3.85235">
        <ele>122.6</ele>
        <time>2022-12-08T09:02:27Z</time>
      </trkpt>
      <trkpt lat="47.98198" lon="-3.85231">
        <ele>122.2</ele>
        <time>2022-12-08T09:02:28Z</time>
      </trkpt>
      <trkpt lat="47.98203" lon="-3.85229">
        <ele>122</ele>
        <time>2022-12-08T09:02:29Z</time>
      </trkpt>
      <trkpt lat="47.98208" lon="-3.85226">
        <ele>121.7</ele>
        <time>2022-12-08T09:02:30Z</time>
      </trkpt>
      <trkpt lat="47.98213" lon="-3.85224">
        <ele>121.4</ele>
        <time>2022-12-08T09:02:31Z</time>
      </trkpt>
      <trkpt lat="47.98219" lon="-3.85222">
        <ele>121.2</ele>
        <time>2022-12-08T09:02:32Z</time>
      </trkpt>
      <trkpt lat="47.98224" lon="-3.8522">
        <ele>120.9</ele>
        <time>2022-12-08T09:02:33Z</time>
      </trkpt>
      <trkpt lat="47.98228" lon="-3.85218">
        <ele>120.7</ele>
        <time>2022-12-08T09:02:34Z</time>
      </trkpt>
      <trkpt lat="47.98232" lon="-3.85216">
        <ele>120.6</ele>
        <time>2022-12-08T09:02:35Z</time>
      </trkpt>
      <trkpt lat="47.98234" lon="-3.85216">
        <ele>120.4</ele>
        <time>2022-12-08T09:02:36Z</time>
      </trkpt>
      <trkpt lat="47.98235" lon="-3.85216">
        <ele>120.4</ele>
        <time>2022-12-08T09:02:37Z</time>
      </trkpt>
      <trkpt lat="47.98241" lon="-3.85213">
        <ele>120</ele>
        <time>2022-12-08T09:02:38Z</time>
      </trkpt>
      <trkpt lat="47.98245" lon="-3.85212">
        <ele>119.7</ele>
        <time>2022-12-08T09:02:40Z</time>
      </trkpt>
      <trkpt lat="47.98249" lon="-3.8521">
        <ele>119.4</ele>
        <time>2022-12-08T09:02:41Z</time>
      </trkpt>
      <trkpt lat="47.98252" lon="-3.85208">
        <ele>119.1</ele>
        <time>2022-12-08T09:02:43Z</time>
      </trkpt>
      <trkpt lat="47.98252" lon="-3.85208">
        <ele>119.1</ele>
        <time>2022-12-08T09:02:44Z</time>
      </trkpt>
      <trkpt lat="47.98253" lon="-3.85208">
        <ele>119</ele>
        <time>2022-12-08T09:02:46Z</time>
      </trkpt>
      <trkpt lat="47.98254" lon="-3.85209">
        <ele>118.9</ele>
        <time>2022-12-08T09:02:47Z</time>
      </trkpt>
      <trkpt lat="47.98255" lon="-3.8521">
        <ele>118.8</ele>
        <time>2022-12-08T09:02:48Z</time>
      </trkpt>
      <trkpt lat="47.98256" lon="-3.85209">
        <ele>118.7</ele>
        <time>2022-12-08T09:02:49Z</time>
      </trkpt>
      <trkpt lat="47.98257" lon="-3.85209">
        <ele>118.6</ele>
        <time>2022-12-08T09:02:50Z</time>
      </trkpt>
      <trkpt lat="47.98258" lon="-3.85208">
        <ele>118.5</ele>
        <time>2022-12-08T09:02:51Z</time>
      </trkpt>
      <trkpt lat="47.98259" lon="-3.85207">
        <ele>118.4</ele>
        <time>2022-12-08T09:02:52Z</time>
      </trkpt>
      <trkpt lat="47.98259" lon="-3.85207">
        <ele>118.4</ele>
        <time>2022-12-08T09:02:53Z</time>
      </trkpt>
      <trkpt lat="47.9826" lon="-3.85206">
        <ele>118.3</ele>
        <time>2022-12-08T09:02:54Z</time>
      </trkpt>
      <trkpt lat="47.9826" lon="-3.85206">
        <ele>118.3</ele>
        <time>2022-12-08T09:02:55Z</time>
      </trkpt>
      <trkpt lat="47.98261" lon="-3.85206">
        <ele>118.2</ele>
        <time>2022-12-08T09:02:56Z</time>
      </trkpt>
      <trkpt lat="47.98262" lon="-3.85205">
        <ele>118.1</ele>
        <time>2022-12-08T09:02:57Z</time>
      </trkpt>
      <trkpt lat="47.98263" lon="-3.85204">
        <ele>118</ele>
        <time>2022-12-08T09:02:58Z</time>
      </trkpt>
      <trkpt lat="47.98263" lon="-3.85204">
        <ele>118</ele>
        <time>2022-12-08T09:02:59Z</time>
      </trkpt>
      <trkpt lat="47.98263" lon="-3.85204">
        <ele>117.9</ele>
        <time>2022-12-08T09:03:00Z</time>
      </trkpt>
      <trkpt lat="47.98263" lon="-3.85204">
        <ele>117.9</ele>
        <time>2022-12-08T09:03:02Z</time>
      </trkpt>
      <trkpt lat="47.98263" lon="-3.85204">
        <ele>117.9</ele>
        <time>2022-12-08T09:03:03Z</time>
      </trkpt>
      <trkpt lat="47.98263" lon="-3.85204">
        <ele>117.9</ele>
        <time>2022-12-08T09:03:04Z</time>
      </trkpt>
      <trkpt lat="47.98263" lon="-3.85204">
        <ele>117.9</ele>
        <time>2022-12-08T09:03:05Z</time>
      </trkpt>
      <trkpt lat="47.98263" lon="-3.85204">
        <ele>117.9</ele>
        <time>2022-12-08T09:03:07Z</time>
      </trkpt>
      <trkpt lat="47.98263" lon="-3.85204">
        <ele>117.9</ele>
        <time>2022-12-08T09:03:08Z</time>
      </trkpt>
      <trkpt lat="47.98267" lon="-3.85201">
        <ele>117.5</ele>
        <time>2022-12-08T09:03:15Z</time>
      </trkpt>
      <trkpt lat="47.98271" lon="-3.85197">
        <ele>117.1</ele>
        <time>2022-12-08T09:03:17Z</time>
      </trkpt>
      <trkpt lat="47.98277" lon="-3.85194">
        <ele>116.7</ele>
        <time>2022-12-08T09:03:18Z</time>
      </trkpt>
      <trkpt lat="47.98282" lon="-3.85192">
        <ele>116.4</ele>
        <time>2022-12-08T09:03:19Z</time>
      </trkpt>
      <trkpt lat="47.98288" lon="-3.85189">
        <ele>116</ele>
        <time>2022-12-08T09:03:20Z</time>
      </trkpt>
      <trkpt lat="47.98298" lon="-3.85185">
        <ele>115.4</ele>
        <time>2022-12-08T09:03:21Z</time>
      </trkpt>
      <trkpt lat="47.98303" lon="-3.85181">
        <ele>115.2</ele>
        <time>2022-12-08T09:03:22Z</time>
      </trkpt>
      <trkpt lat="47.98309" lon="-3.85176">
        <ele>114.9</ele>
        <time>2022-12-08T09:03:23Z</time>
      </trkpt>
      <trkpt lat="47.98314" lon="-3.85171">
        <ele>114.7</ele>
        <time>2022-12-08T09:03:24Z</time>
      </trkpt>
      <trkpt lat="47.98319" lon="-3.85167">
        <ele>114.5</ele>
        <time>2022-12-08T09:03:25Z</time>
      </trkpt>
      <trkpt lat="47.98324" lon="-3.85164">
        <ele>114.2</ele>
        <time>2022-12-08T09:03:26Z</time>
      </trkpt>
      <trkpt lat="47.9833" lon="-3.85161">
        <ele>113.9</ele>
        <time>2022-12-08T09:03:27Z</time>
      </trkpt>
      <trkpt lat="47.98336" lon="-3.85158">
        <ele>113.7</ele>
        <time>2022-12-08T09:03:28Z</time>
      </trkpt>
      <trkpt lat="47.98342" lon="-3.85155">
        <ele>113.5</ele>
        <time>2022-12-08T09:03:29Z</time>
      </trkpt>
      <trkpt lat="47.98349" lon="-3.85151">
        <ele>113.2</ele>
        <time>2022-12-08T09:03:30Z</time>
      </trkpt>
      <trkpt lat="47.98355" lon="-3.85147">
        <ele>113</ele>
        <time>2022-12-08T09:03:31Z</time>
      </trkpt>
      <trkpt lat="47.98359" lon="-3.85143">
        <ele>112.8</ele>
        <time>2022-12-08T09:03:32Z</time>
      </trkpt>
      <trkpt lat="47.98364" lon="-3.85138">
        <ele>112.6</ele>
        <time>2022-12-08T09:03:33Z</time>
      </trkpt>
      <trkpt lat="47.98369" lon="-3.85133">
        <ele>112.4</ele>
        <time>2022-12-08T09:03:34Z</time>
      </trkpt>
      <trkpt lat="47.98373" lon="-3.85127">
        <ele>112.2</ele>
        <time>2022-12-08T09:03:35Z</time>
      </trkpt>
      <trkpt lat="47.98377" lon="-3.85123">
        <ele>112</ele>
        <time>2022-12-08T09:03:36Z</time>
      </trkpt>
      <trkpt lat="47.98382" lon="-3.85121">
        <ele>111.9</ele>
        <time>2022-12-08T09:03:37Z</time>
      </trkpt>
      <trkpt lat="47.98388" lon="-3.85119">
        <ele>111.8</ele>
        <time>2022-12-08T09:03:38Z</time>
      </trkpt>
      <trkpt lat="47.98393" lon="-3.85117">
        <ele>111.6</ele>
        <time>2022-12-08T09:03:39Z</time>
      </trkpt>
      <trkpt lat="47.98398" lon="-3.85113">
        <ele>111.5</ele>
        <time>2022-12-08T09:03:40Z</time>
      </trkpt>
      <trkpt lat="47.98403" lon="-3.8511">
        <ele>111.3</ele>
        <time>2022-12-08T09:03:41Z</time>
      </trkpt>
      <trkpt lat="47.98407" lon="-3.85108">
        <ele>111.1</ele>
        <time>2022-12-08T09:03:42Z</time>
      </trkpt>
      <trkpt lat="47.98411" lon="-3.85105">
        <ele>110.9</ele>
        <time>2022-12-08T09:03:43Z</time>
      </trkpt>
      <trkpt lat="47.98416" lon="-3.851">
        <ele>110.8</ele>
        <time>2022-12-08T09:03:44Z</time>
      </trkpt>
      <trkpt lat="47.98419" lon="-3.85096">
        <ele>110.6</ele>
        <time>2022-12-08T09:03:45Z</time>
      </trkpt>
      <trkpt lat="47.98424" lon="-3.85092">
        <ele>110.4</ele>
        <time>2022-12-08T09:03:46Z</time>
      </trkpt>
      <trkpt lat="47.98428" lon="-3.85089">
        <ele>110.2</ele>
        <time>2022-12-08T09:03:47Z</time>
      </trkpt>
      <trkpt lat="47.98433" lon="-3.85086">
        <ele>110</ele>
        <time>2022-12-08T09:03:48Z</time>
      </trkpt>
      <trkpt lat="47.98437" lon="-3.85082">
        <ele>109.8</ele>
        <time>2022-12-08T09:03:49Z</time>
      </trkpt>
      <trkpt lat="47.98439" lon="-3.85081">
        <ele>109.7</ele>
        <time>2022-12-08T09:03:50Z</time>
      </trkpt>
      <trkpt lat="47.98443" lon="-3.85075">
        <ele>109.5</ele>
        <time>2022-12-08T09:03:51Z</time>
      </trkpt>
      <trkpt lat="47.98448" lon="-3.85071">
        <ele>109.2</ele>
        <time>2022-12-08T09:03:52Z</time>
      </trkpt>
      <trkpt lat="47.98453" lon="-3.85066">
        <ele>109</ele>
        <time>2022-12-08T09:03:53Z</time>
      </trkpt>
      <trkpt lat="47.98458" lon="-3.85062">
        <ele>108.8</ele>
        <time>2022-12-08T09:03:54Z</time>
      </trkpt>
      <trkpt lat="47.98463" lon="-3.85059">
        <ele>108.6</ele>
        <time>2022-12-08T09:03:55Z</time>
      </trkpt>
      <trkpt lat="47.98467" lon="-3.85055">
        <ele>108.5</ele>
        <time>2022-12-08T09:03:56Z</time>
      </trkpt>
      <trkpt lat="47.98471" lon="-3.85052">
        <ele>108.3</ele>
        <time>2022-12-08T09:03:58Z</time>
      </trkpt>
      <trkpt lat="47.98474" lon="-3.8505">
        <ele>108.2</ele>
        <time>2022-12-08T09:03:59Z</time>
      </trkpt>
      <trkpt lat="47.98478" lon="-3.85047">
        <ele>108.1</ele>
        <time>2022-12-08T09:04:00Z</time>
      </trkpt>
      <trkpt lat="47.98486" lon="-3.85043">
        <ele>107.8</ele>
        <time>2022-12-08T09:04:01Z</time>
      </trkpt>
      <trkpt lat="47.98491" lon="-3.8504">
        <ele>107.6</ele>
        <time>2022-12-08T09:04:02Z</time>
      </trkpt>
      <trkpt lat="47.98499" lon="-3.85041">
        <ele>107.2</ele>
        <time>2022-12-08T09:04:04Z</time>
      </trkpt>
      <trkpt lat="47.98504" lon="-3.85041">
        <ele>107</ele>
        <time>2022-12-08T09:04:05Z</time>
      </trkpt>
      <trkpt lat="47.98511" lon="-3.85045">
        <ele>106.7</ele>
        <time>2022-12-08T09:04:06Z</time>
      </trkpt>
      <trkpt lat="47.98514" lon="-3.85049">
        <ele>106.6</ele>
        <time>2022-12-08T09:04:07Z</time>
      </trkpt>
      <trkpt lat="47.98517" lon="-3.85054">
        <ele>106.4</ele>
        <time>2022-12-08T09:04:08Z</time>
      </trkpt>
      <trkpt lat="47.98519" lon="-3.8506">
        <ele>106.2</ele>
        <time>2022-12-08T09:04:09Z</time>
      </trkpt>
      <trkpt lat="47.98526" lon="-3.85064">
        <ele>106</ele>
        <time>2022-12-08T09:04:11Z</time>
      </trkpt>
      <trkpt lat="47.98533" lon="-3.85065">
        <ele>105.8</ele>
        <time>2022-12-08T09:04:12Z</time>
      </trkpt>
      <trkpt lat="47.98537" lon="-3.85066">
        <ele>105.8</ele>
        <time>2022-12-08T09:04:13Z</time>
      </trkpt>
      <trkpt lat="47.98539" lon="-3.85066">
        <ele>105.7</ele>
        <time>2022-12-08T09:04:14Z</time>
      </trkpt>
      <trkpt lat="47.98543" lon="-3.85064">
        <ele>105.6</ele>
        <time>2022-12-08T09:04:15Z</time>
      </trkpt>
      <trkpt lat="47.98548" lon="-3.85063">
        <ele>105.6</ele>
        <time>2022-12-08T09:04:16Z</time>
      </trkpt>
      <trkpt lat="47.98552" lon="-3.85062">
        <ele>105.6</ele>
        <time>2022-12-08T09:04:17Z</time>
      </trkpt>
      <trkpt lat="47.98557" lon="-3.8506">
        <ele>105.5</ele>
        <time>2022-12-08T09:04:19Z</time>
      </trkpt>
      <trkpt lat="47.9856" lon="-3.8506">
        <ele>105.5</ele>
        <time>2022-12-08T09:04:20Z</time>
      </trkpt>
      <trkpt lat="47.98563" lon="-3.85058">
        <ele>105.5</ele>
        <time>2022-12-08T09:04:21Z</time>
      </trkpt>
      <trkpt lat="47.98566" lon="-3.85057">
        <ele>105.5</ele>
        <time>2022-12-08T09:04:22Z</time>
      </trkpt>
      <trkpt lat="47.9857" lon="-3.85054">
        <ele>105.5</ele>
        <time>2022-12-08T09:04:23Z</time>
      </trkpt>
      <trkpt lat="47.98573" lon="-3.85052">
        <ele>105.6</ele>
        <time>2022-12-08T09:04:24Z</time>
      </trkpt>
      <trkpt lat="47.98575" lon="-3.85051">
        <ele>105.6</ele>
        <time>2022-12-08T09:04:25Z</time>
      </trkpt>
      <trkpt lat="47.98577" lon="-3.85051">
        <ele>105.6</ele>
        <time>2022-12-08T09:04:27Z</time>
      </trkpt>
      <trkpt lat="47.98578" lon="-3.85051">
        <ele>105.6</ele>
        <time>2022-12-08T09:04:28Z</time>
      </trkpt>
      <trkpt lat="47.98578" lon="-3.85051">
        <ele>105.6</ele>
        <time>2022-12-08T09:04:29Z</time>
      </trkpt>
      <trkpt lat="47.98578" lon="-3.85051">
        <ele>105.6</ele>
        <time>2022-12-08T09:04:30Z</time>
      </trkpt>
      <trkpt lat="47.98579" lon="-3.8505">
        <ele>105.6</ele>
        <time>2022-12-08T09:04:31Z</time>
      </trkpt>
      <trkpt lat="47.98581" lon="-3.85049">
        <ele>105.7</ele>
        <time>2022-12-08T09:04:32Z</time>
      </trkpt>
      <trkpt lat="47.98582" lon="-3.85049">
        <ele>105.7</ele>
        <time>2022-12-08T09:04:33Z</time>
      </trkpt>
      <trkpt lat="47.98584" lon="-3.85049">
        <ele>105.7</ele>
        <time>2022-12-08T09:04:34Z</time>
      </trkpt>
      <trkpt lat="47.98587" lon="-3.85048">
        <ele>105.8</ele>
        <time>2022-12-08T09:04:35Z</time>
      </trkpt>
      <trkpt lat="47.9859" lon="-3.85047">
        <ele>105.9</ele>
        <time>2022-12-08T09:04:36Z</time>
      </trkpt>
      <trkpt lat="47.98591" lon="-3.85046">
        <ele>105.9</ele>
        <time>2022-12-08T09:04:37Z</time>
      </trkpt>
      <trkpt lat="47.98595" lon="-3.85044">
        <ele>106</ele>
        <time>2022-12-08T09:04:38Z</time>
      </trkpt>
      <trkpt lat="47.98596" lon="-3.85044">
        <ele>106</ele>
        <time>2022-12-08T09:04:39Z</time>
      </trkpt>
      <trkpt lat="47.98599" lon="-3.85042">
        <ele>106.2</ele>
        <time>2022-12-08T09:04:40Z</time>
      </trkpt>
      <trkpt lat="47.98603" lon="-3.85039">
        <ele>106.3</ele>
        <time>2022-12-08T09:04:42Z</time>
      </trkpt>
      <trkpt lat="47.98606" lon="-3.85038">
        <ele>106.4</ele>
        <time>2022-12-08T09:04:43Z</time>
      </trkpt>
      <trkpt lat="47.98609" lon="-3.85036">
        <ele>106.6</ele>
        <time>2022-12-08T09:04:44Z</time>
      </trkpt>
      <trkpt lat="47.98613" lon="-3.85034">
        <ele>106.7</ele>
        <time>2022-12-08T09:04:45Z</time>
      </trkpt>
      <trkpt lat="47.98614" lon="-3.85033">
        <ele>106.8</ele>
        <time>2022-12-08T09:04:46Z</time>
      </trkpt>
      <trkpt lat="47.98617" lon="-3.85031">
        <ele>106.9</ele>
        <time>2022-12-08T09:04:47Z</time>
      </trkpt>
      <trkpt lat="47.98619" lon="-3.85031">
        <ele>107</ele>
        <time>2022-12-08T09:04:48Z</time>
      </trkpt>
      <trkpt lat="47.98619" lon="-3.85032">
        <ele>107</ele>
        <time>2022-12-08T09:04:49Z</time>
      </trkpt>
      <trkpt lat="47.9862" lon="-3.85032">
        <ele>107</ele>
        <time>2022-12-08T09:04:50Z</time>
      </trkpt>
      <trkpt lat="47.98621" lon="-3.8503">
        <ele>107.1</ele>
        <time>2022-12-08T09:04:53Z</time>
      </trkpt>
      <trkpt lat="47.98621" lon="-3.8503">
        <ele>107.1</ele>
        <time>2022-12-08T09:04:54Z</time>
      </trkpt>
      <trkpt lat="47.98621" lon="-3.8503">
        <ele>107.1</ele>
        <time>2022-12-08T09:04:55Z</time>
      </trkpt>
      <trkpt lat="47.98621" lon="-3.85029">
        <ele>107.1</ele>
        <time>2022-12-08T09:04:56Z</time>
      </trkpt>
      <trkpt lat="47.98622" lon="-3.85028">
        <ele>107.1</ele>
        <time>2022-12-08T09:04:57Z</time>
      </trkpt>
      <trkpt lat="47.98623" lon="-3.85023">
        <ele>107.2</ele>
        <time>2022-12-08T09:04:58Z</time>
      </trkpt>
      <trkpt lat="47.98623" lon="-3.85021">
        <ele>107.2</ele>
        <time>2022-12-08T09:04:59Z</time>
      </trkpt>
      <trkpt lat="47.98623" lon="-3.85016">
        <ele>107.3</ele>
        <time>2022-12-08T09:05:00Z</time>
      </trkpt>
      <trkpt lat="47.98623" lon="-3.85011">
        <ele>107.4</ele>
        <time>2022-12-08T09:05:01Z</time>
      </trkpt>
      <trkpt lat="47.98623" lon="-3.85005">
        <ele>107.5</ele>
        <time>2022-12-08T09:05:02Z</time>
      </trkpt>
      <trkpt lat="47.98622" lon="-3.85">
        <ele>107.5</ele>
        <time>2022-12-08T09:05:03Z</time>
      </trkpt>
      <trkpt lat="47.98621" lon="-3.84996">
        <ele>107.6</ele>
        <time>2022-12-08T09:05:04Z</time>
      </trkpt>
      <trkpt lat="47.9862" lon="-3.84991">
        <ele>107.7</ele>
        <time>2022-12-08T09:05:05Z</time>
      </trkpt>
      <trkpt lat="47.98619" lon="-3.84988">
        <ele>107.7</ele>
        <time>2022-12-08T09:05:06Z</time>
      </trkpt>
      <trkpt lat="47.98618" lon="-3.84984">
        <ele>107.8</ele>
        <time>2022-12-08T09:05:07Z</time>
      </trkpt>
      <trkpt lat="47.98618" lon="-3.84977">
        <ele>107.8</ele>
        <time>2022-12-08T09:05:09Z</time>
      </trkpt>
      <trkpt lat="47.98618" lon="-3.84972">
        <ele>107.9</ele>
        <time>2022-12-08T09:05:10Z</time>
      </trkpt>
      <trkpt lat="47.98617" lon="-3.84968">
        <ele>107.9</ele>
        <time>2022-12-08T09:05:11Z</time>
      </trkpt>
      <trkpt lat="47.98616" lon="-3.84966">
        <ele>108</ele>
        <time>2022-12-08T09:05:12Z</time>
      </trkpt>
      <trkpt lat="47.98613" lon="-3.84962">
        <ele>108</ele>
        <time>2022-12-08T09:05:13Z</time>
      </trkpt>
      <trkpt lat="47.98611" lon="-3.84958">
        <ele>108</ele>
        <time>2022-12-08T09:05:14Z</time>
      </trkpt>
      <trkpt lat="47.98611" lon="-3.84957">
        <ele>108</ele>
        <time>2022-12-08T09:05:15Z</time>
      </trkpt>
      <trkpt lat="47.9861" lon="-3.84952">
        <ele>108.1</ele>
        <time>2022-12-08T09:05:16Z</time>
      </trkpt>
      <trkpt lat="47.98608" lon="-3.84948">
        <ele>108.1</ele>
        <time>2022-12-08T09:05:18Z</time>
      </trkpt>
      <trkpt lat="47.98608" lon="-3.84943">
        <ele>108.1</ele>
        <time>2022-12-08T09:05:19Z</time>
      </trkpt>
      <trkpt lat="47.98611" lon="-3.84937">
        <ele>108.2</ele>
        <time>2022-12-08T09:05:21Z</time>
      </trkpt>
      <trkpt lat="47.98613" lon="-3.84933">
        <ele>108.3</ele>
        <time>2022-12-08T09:05:22Z</time>
      </trkpt>
      <trkpt lat="47.98613" lon="-3.84932">
        <ele>108.3</ele>
        <time>2022-12-08T09:05:23Z</time>
      </trkpt>
      <trkpt lat="47.98614" lon="-3.8493">
        <ele>108.3</ele>
        <time>2022-12-08T09:05:24Z</time>
      </trkpt>
      <trkpt lat="47.98615" lon="-3.84929">
        <ele>108.3</ele>
        <time>2022-12-08T09:05:25Z</time>
      </trkpt>
      <trkpt lat="47.98615" lon="-3.84928">
        <ele>108.3</ele>
        <time>2022-12-08T09:05:26Z</time>
      </trkpt>
      <trkpt lat="47.98615" lon="-3.84928">
        <ele>108.3</ele>
        <time>2022-12-08T09:05:27Z</time>
      </trkpt>
      <trkpt lat="47.98615" lon="-3.84927">
        <ele>108.3</ele>
        <time>2022-12-08T09:05:28Z</time>
      </trkpt>
      <trkpt lat="47.98614" lon="-3.84926">
        <ele>108.4</ele>
        <time>2022-12-08T09:05:29Z</time>
      </trkpt>
      <trkpt lat="47.98614" lon="-3.84926">
        <ele>108.4</ele>
        <time>2022-12-08T09:05:30Z</time>
      </trkpt>
      <trkpt lat="47.98614" lon="-3.84925">
        <ele>108.4</ele>
        <time>2022-12-08T09:05:31Z</time>
      </trkpt>
      <trkpt lat="47.98614" lon="-3.84925">
        <ele>108.4</ele>
        <time>2022-12-08T09:05:32Z</time>
      </trkpt>
      <trkpt lat="47.98613" lon="-3.84924">
        <ele>108.4</ele>
        <time>2022-12-08T09:05:33Z</time>
      </trkpt>
      <trkpt lat="47.98612" lon="-3.84919">
        <ele>108.5</ele>
        <time>2022-12-08T09:05:34Z</time>
      </trkpt>
      <trkpt lat="47.98612" lon="-3.84918">
        <ele>108.5</ele>
        <time>2022-12-08T09:05:35Z</time>
      </trkpt>
      <trkpt lat="47.98611" lon="-3.84914">
        <ele>108.6</ele>
        <time>2022-12-08T09:05:36Z</time>
      </trkpt>
      <trkpt lat="47.98608" lon="-3.84908">
        <ele>108.8</ele>
        <time>2022-12-08T09:05:38Z</time>
      </trkpt>
      <trkpt lat="47.98607" lon="-3.84905">
        <ele>108.9</ele>
        <time>2022-12-08T09:05:39Z</time>
      </trkpt>
      <trkpt lat="47.98606" lon="-3.84903">
        <ele>108.9</ele>
        <time>2022-12-08T09:05:40Z</time>
      </trkpt>
      <trkpt lat="47.98605" lon="-3.84899">
        <ele>108.8</ele>
        <time>2022-12-08T09:05:41Z</time>
      </trkpt>
      <trkpt lat="47.98604" lon="-3.84895">
        <ele>108.7</ele>
        <time>2022-12-08T09:05:42Z</time>
      </trkpt>
      <trkpt lat="47.98602" lon="-3.8489">
        <ele>108.6</ele>
        <time>2022-12-08T09:05:44Z</time>
      </trkpt>
      <trkpt lat="47.98603" lon="-3.84889">
        <ele>108.6</ele>
        <time>2022-12-08T09:05:45Z</time>
      </trkpt>
      <trkpt lat="47.98603" lon="-3.84887">
        <ele>108.6</ele>
        <time>2022-12-08T09:05:46Z</time>
      </trkpt>
      <trkpt lat="47.98602" lon="-3.84886">
        <ele>108.5</ele>
        <time>2022-12-08T09:05:47Z</time>
      </trkpt>
      <trkpt lat="47.98601" lon="-3.84882">
        <ele>108.5</ele>
        <time>2022-12-08T09:05:48Z</time>
      </trkpt>
      <trkpt lat="47.986" lon="-3.84881">
        <ele>108.5</ele>
        <time>2022-12-08T09:05:49Z</time>
      </trkpt>
      <trkpt lat="47.98598" lon="-3.84878">
        <ele>108.5</ele>
        <time>2022-12-08T09:05:50Z</time>
      </trkpt>
      <trkpt lat="47.98597" lon="-3.84877">
        <ele>108.5</ele>
        <time>2022-12-08T09:05:51Z</time>
      </trkpt>
      <trkpt lat="47.98595" lon="-3.84872">
        <ele>108.5</ele>
        <time>2022-12-08T09:05:52Z</time>
      </trkpt>
      <trkpt lat="47.98594" lon="-3.84871">
        <ele>108.5</ele>
        <time>2022-12-08T09:05:53Z</time>
      </trkpt>
      <trkpt lat="47.98591" lon="-3.84867">
        <ele>108.6</ele>
        <time>2022-12-08T09:05:54Z</time>
      </trkpt>
      <trkpt lat="47.9859" lon="-3.84865">
        <ele>108.6</ele>
        <time>2022-12-08T09:05:55Z</time>
      </trkpt>
      <trkpt lat="47.98588" lon="-3.84861">
        <ele>108.7</ele>
        <time>2022-12-08T09:05:56Z</time>
      </trkpt>
      <trkpt lat="47.98586" lon="-3.84859">
        <ele>108.7</ele>
        <time>2022-12-08T09:05:57Z</time>
      </trkpt>
      <trkpt lat="47.98584" lon="-3.84858">
        <ele>108.8</ele>
        <time>2022-12-08T09:05:58Z</time>
      </trkpt>
      <trkpt lat="47.98582" lon="-3.84853">
        <ele>108.8</ele>
        <time>2022-12-08T09:05:59Z</time>
      </trkpt>
      <trkpt lat="47.98581" lon="-3.84851">
        <ele>108.8</ele>
        <time>2022-12-08T09:06:00Z</time>
      </trkpt>
      <trkpt lat="47.98579" lon="-3.84848">
        <ele>108.9</ele>
        <time>2022-12-08T09:06:01Z</time>
      </trkpt>
      <trkpt lat="47.98577" lon="-3.84845">
        <ele>108.9</ele>
        <time>2022-12-08T09:06:02Z</time>
      </trkpt>
      <trkpt lat="47.98575" lon="-3.84841">
        <ele>108.9</ele>
        <time>2022-12-08T09:06:03Z</time>
      </trkpt>
      <trkpt lat="47.98573" lon="-3.84838">
        <ele>108.9</ele>
        <time>2022-12-08T09:06:04Z</time>
      </trkpt>
      <trkpt lat="47.98572" lon="-3.84833">
        <ele>109</ele>
        <time>2022-12-08T09:06:05Z</time>
      </trkpt>
      <trkpt lat="47.9857" lon="-3.84828">
        <ele>109.1</ele>
        <time>2022-12-08T09:06:06Z</time>
      </trkpt>
      <trkpt lat="47.98567" lon="-3.84823">
        <ele>109.2</ele>
        <time>2022-12-08T09:06:07Z</time>
      </trkpt>
      <trkpt lat="47.98565" lon="-3.8482">
        <ele>109.3</ele>
        <time>2022-12-08T09:06:08Z</time>
      </trkpt>
      <trkpt lat="47.98563" lon="-3.84815">
        <ele>109.5</ele>
        <time>2022-12-08T09:06:09Z</time>
      </trkpt>
      <trkpt lat="47.98562" lon="-3.84813">
        <ele>109.5</ele>
        <time>2022-12-08T09:06:10Z</time>
      </trkpt>
      <trkpt lat="47.98559" lon="-3.84807">
        <ele>109.7</ele>
        <time>2022-12-08T09:06:12Z</time>
      </trkpt>
      <trkpt lat="47.98557" lon="-3.84805">
        <ele>109.9</ele>
        <time>2022-12-08T09:06:13Z</time>
      </trkpt>
      <trkpt lat="47.98555" lon="-3.84802">
        <ele>110.1</ele>
        <time>2022-12-08T09:06:14Z</time>
      </trkpt>
      <trkpt lat="47.98554" lon="-3.84798">
        <ele>110.3</ele>
        <time>2022-12-08T09:06:16Z</time>
      </trkpt>
      <trkpt lat="47.98551" lon="-3.84794">
        <ele>110.6</ele>
        <time>2022-12-08T09:06:17Z</time>
      </trkpt>
      <trkpt lat="47.9855" lon="-3.84792">
        <ele>110.7</ele>
        <time>2022-12-08T09:06:18Z</time>
      </trkpt>
      <trkpt lat="47.98548" lon="-3.84789">
        <ele>111</ele>
        <time>2022-12-08T09:06:19Z</time>
      </trkpt>
      <trkpt lat="47.98547" lon="-3.84788">
        <ele>111.1</ele>
        <time>2022-12-08T09:06:20Z</time>
      </trkpt>
      <trkpt lat="47.98546" lon="-3.84786">
        <ele>111.2</ele>
        <time>2022-12-08T09:06:21Z</time>
      </trkpt>
      <trkpt lat="47.98545" lon="-3.84785">
        <ele>111.4</ele>
        <time>2022-12-08T09:06:22Z</time>
      </trkpt>
      <trkpt lat="47.98543" lon="-3.84781">
        <ele>111.7</ele>
        <time>2022-12-08T09:06:23Z</time>
      </trkpt>
      <trkpt lat="47.98542" lon="-3.84779">
        <ele>111.9</ele>
        <time>2022-12-08T09:06:24Z</time>
      </trkpt>
      <trkpt lat="47.9854" lon="-3.84776">
        <ele>112.2</ele>
        <time>2022-12-08T09:06:25Z</time>
      </trkpt>
      <trkpt lat="47.98539" lon="-3.84775">
        <ele>112.2</ele>
        <time>2022-12-08T09:06:26Z</time>
      </trkpt>
      <trkpt lat="47.98537" lon="-3.84771">
        <ele>112.6</ele>
        <time>2022-12-08T09:06:27Z</time>
      </trkpt>
      <trkpt lat="47.98537" lon="-3.8477">
        <ele>112.7</ele>
        <time>2022-12-08T09:06:28Z</time>
      </trkpt>
      <trkpt lat="47.98536" lon="-3.84769">
        <ele>112.8</ele>
        <time>2022-12-08T09:06:29Z</time>
      </trkpt>
      <trkpt lat="47.98534" lon="-3.84766">
        <ele>113</ele>
        <time>2022-12-08T09:06:30Z</time>
      </trkpt>
      <trkpt lat="47.98533" lon="-3.84764">
        <ele>113.2</ele>
        <time>2022-12-08T09:06:31Z</time>
      </trkpt>
      <trkpt lat="47.98533" lon="-3.84762">
        <ele>113.4</ele>
        <time>2022-12-08T09:06:32Z</time>
      </trkpt>
      <trkpt lat="47.98531" lon="-3.8476">
        <ele>113.5</ele>
        <time>2022-12-08T09:06:33Z</time>
      </trkpt>
      <trkpt lat="47.98529" lon="-3.84756">
        <ele>113.8</ele>
        <time>2022-12-08T09:06:35Z</time>
      </trkpt>
      <trkpt lat="47.98528" lon="-3.84755">
        <ele>114</ele>
        <time>2022-12-08T09:06:36Z</time>
      </trkpt>
      <trkpt lat="47.98527" lon="-3.84753">
        <ele>114.1</ele>
        <time>2022-12-08T09:06:37Z</time>
      </trkpt>
      <trkpt lat="47.98526" lon="-3.84751">
        <ele>114.3</ele>
        <time>2022-12-08T09:06:38Z</time>
      </trkpt>
      <trkpt lat="47.98525" lon="-3.84749">
        <ele>114.5</ele>
        <time>2022-12-08T09:06:40Z</time>
      </trkpt>
      <trkpt lat="47.98524" lon="-3.84748">
        <ele>114.6</ele>
        <time>2022-12-08T09:06:41Z</time>
      </trkpt>
      <trkpt lat="47.98523" lon="-3.84746">
        <ele>114.7</ele>
        <time>2022-12-08T09:06:42Z</time>
      </trkpt>
      <trkpt lat="47.98521" lon="-3.84743">
        <ele>115</ele>
        <time>2022-12-08T09:06:43Z</time>
      </trkpt>
      <trkpt lat="47.9852" lon="-3.84742">
        <ele>115.1</ele>
        <time>2022-12-08T09:06:44Z</time>
      </trkpt>
      <trkpt lat="47.98519" lon="-3.8474">
        <ele>115.3</ele>
        <time>2022-12-08T09:06:45Z</time>
      </trkpt>
      <trkpt lat="47.98518" lon="-3.84738">
        <ele>115.5</ele>
        <time>2022-12-08T09:06:46Z</time>
      </trkpt>
      <trkpt lat="47.98517" lon="-3.84736">
        <ele>115.7</ele>
        <time>2022-12-08T09:06:47Z</time>
      </trkpt>
      <trkpt lat="47.98515" lon="-3.84735">
        <ele>115.9</ele>
        <time>2022-12-08T09:06:48Z</time>
      </trkpt>
      <trkpt lat="47.98514" lon="-3.84733">
        <ele>116.1</ele>
        <time>2022-12-08T09:06:49Z</time>
      </trkpt>
      <trkpt lat="47.98513" lon="-3.84731">
        <ele>116.3</ele>
        <time>2022-12-08T09:06:50Z</time>
      </trkpt>
      <trkpt lat="47.9851" lon="-3.84729">
        <ele>116.7</ele>
        <time>2022-12-08T09:06:51Z</time>
      </trkpt>
      <trkpt lat="47.98509" lon="-3.84728">
        <ele>116.8</ele>
        <time>2022-12-08T09:06:52Z</time>
      </trkpt>
      <trkpt lat="47.98506" lon="-3.84722">
        <ele>117.2</ele>
        <time>2022-12-08T09:06:54Z</time>
      </trkpt>
      <trkpt lat="47.98505" lon="-3.84721">
        <ele>117.3</ele>
        <time>2022-12-08T09:06:55Z</time>
      </trkpt>
      <trkpt lat="47.98504" lon="-3.8472">
        <ele>117.4</ele>
        <time>2022-12-08T09:06:56Z</time>
      </trkpt>
      <trkpt lat="47.98502" lon="-3.84716">
        <ele>117.7</ele>
        <time>2022-12-08T09:06:57Z</time>
      </trkpt>
      <trkpt lat="47.98502" lon="-3.84715">
        <ele>117.7</ele>
        <time>2022-12-08T09:06:58Z</time>
      </trkpt>
      <trkpt lat="47.98501" lon="-3.84714">
        <ele>117.8</ele>
        <time>2022-12-08T09:06:59Z</time>
      </trkpt>
      <trkpt lat="47.98501" lon="-3.84711">
        <ele>117.9</ele>
        <time>2022-12-08T09:07:00Z</time>
      </trkpt>
      <trkpt lat="47.98499" lon="-3.84709">
        <ele>118.1</ele>
        <time>2022-12-08T09:07:01Z</time>
      </trkpt>
      <trkpt lat="47.98498" lon="-3.84708">
        <ele>118.2</ele>
        <time>2022-12-08T09:07:02Z</time>
      </trkpt>
      <trkpt lat="47.98495" lon="-3.84706">
        <ele>118.3</ele>
        <time>2022-12-08T09:07:03Z</time>
      </trkpt>
      <trkpt lat="47.98494" lon="-3.84705">
        <ele>118.4</ele>
        <time>2022-12-08T09:07:04Z</time>
      </trkpt>
      <trkpt lat="47.98493" lon="-3.84703">
        <ele>118.5</ele>
        <time>2022-12-08T09:07:05Z</time>
      </trkpt>
      <trkpt lat="47.98492" lon="-3.847">
        <ele>118.6</ele>
        <time>2022-12-08T09:07:06Z</time>
      </trkpt>
      <trkpt lat="47.9849" lon="-3.84696">
        <ele>118.8</ele>
        <time>2022-12-08T09:07:07Z</time>
      </trkpt>
      <trkpt lat="47.98489" lon="-3.84695">
        <ele>118.9</ele>
        <time>2022-12-08T09:07:08Z</time>
      </trkpt>
      <trkpt lat="47.98486" lon="-3.84692">
        <ele>119.1</ele>
        <time>2022-12-08T09:07:09Z</time>
      </trkpt>
      <trkpt lat="47.98485" lon="-3.84691">
        <ele>119.2</ele>
        <time>2022-12-08T09:07:10Z</time>
      </trkpt>
      <trkpt lat="47.98483" lon="-3.84688">
        <ele>119.3</ele>
        <time>2022-12-08T09:07:11Z</time>
      </trkpt>
      <trkpt lat="47.98482" lon="-3.84687">
        <ele>119.4</ele>
        <time>2022-12-08T09:07:12Z</time>
      </trkpt>
      <trkpt lat="47.9848" lon="-3.84683">
        <ele>119.6</ele>
        <time>2022-12-08T09:07:14Z</time>
      </trkpt>
      <trkpt lat="47.98478" lon="-3.8468">
        <ele>119.7</ele>
        <time>2022-12-08T09:07:15Z</time>
      </trkpt>
      <trkpt lat="47.98477" lon="-3.84679">
        <ele>119.8</ele>
        <time>2022-12-08T09:07:16Z</time>
      </trkpt>
      <trkpt lat="47.98476" lon="-3.84676">
        <ele>119.9</ele>
        <time>2022-12-08T09:07:17Z</time>
      </trkpt>
      <trkpt lat="47.98474" lon="-3.84673">
        <ele>120</ele>
        <time>2022-12-08T09:07:18Z</time>
      </trkpt>
      <trkpt lat="47.98472" lon="-3.84669">
        <ele>120.1</ele>
        <time>2022-12-08T09:07:19Z</time>
      </trkpt>
      <trkpt lat="47.98471" lon="-3.84667">
        <ele>120.1</ele>
        <time>2022-12-08T09:07:20Z</time>
      </trkpt>
      <trkpt lat="47.98469" lon="-3.84665">
        <ele>120.2</ele>
        <time>2022-12-08T09:07:21Z</time>
      </trkpt>
      <trkpt lat="47.98467" lon="-3.84662">
        <ele>120.2</ele>
        <time>2022-12-08T09:07:22Z</time>
      </trkpt>
      <trkpt lat="47.98465" lon="-3.84659">
        <ele>120.2</ele>
        <time>2022-12-08T09:07:23Z</time>
      </trkpt>
      <trkpt lat="47.98463" lon="-3.84654">
        <ele>120.2</ele>
        <time>2022-12-08T09:07:25Z</time>
      </trkpt>
      <trkpt lat="47.98459" lon="-3.8465">
        <ele>120.3</ele>
        <time>2022-12-08T09:07:26Z</time>
      </trkpt>
      <trkpt lat="47.98457" lon="-3.84646">
        <ele>120.3</ele>
        <time>2022-12-08T09:07:27Z</time>
      </trkpt>
      <trkpt lat="47.98456" lon="-3.84643">
        <ele>120.3</ele>
        <time>2022-12-08T09:07:28Z</time>
      </trkpt>
      <trkpt lat="47.98453" lon="-3.84639">
        <ele>120.3</ele>
        <time>2022-12-08T09:07:29Z</time>
      </trkpt>
      <trkpt lat="47.98451" lon="-3.84635">
        <ele>120.4</ele>
        <time>2022-12-08T09:07:30Z</time>
      </trkpt>
      <trkpt lat="47.98448" lon="-3.84631">
        <ele>120.4</ele>
        <time>2022-12-08T09:07:31Z</time>
      </trkpt>
      <trkpt lat="47.98447" lon="-3.8463">
        <ele>120.4</ele>
        <time>2022-12-08T09:07:32Z</time>
      </trkpt>
      <trkpt lat="47.98444" lon="-3.84625">
        <ele>120.4</ele>
        <time>2022-12-08T09:07:34Z</time>
      </trkpt>
      <trkpt lat="47.98441" lon="-3.84619">
        <ele>120.4</ele>
        <time>2022-12-08T09:07:35Z</time>
      </trkpt>
      <trkpt lat="47.98439" lon="-3.84616">
        <ele>120.4</ele>
        <time>2022-12-08T09:07:36Z</time>
      </trkpt>
      <trkpt lat="47.98437" lon="-3.84612">
        <ele>120.4</ele>
        <time>2022-12-08T09:07:37Z</time>
      </trkpt>
      <trkpt lat="47.98435" lon="-3.84608">
        <ele>120.4</ele>
        <time>2022-12-08T09:07:38Z</time>
      </trkpt>
      <trkpt lat="47.98434" lon="-3.84604">
        <ele>120.4</ele>
        <time>2022-12-08T09:07:39Z</time>
      </trkpt>
      <trkpt lat="47.98432" lon="-3.84598">
        <ele>120.3</ele>
        <time>2022-12-08T09:07:41Z</time>
      </trkpt>
      <trkpt lat="47.9843" lon="-3.84593">
        <ele>120.3</ele>
        <time>2022-12-08T09:07:42Z</time>
      </trkpt>
      <trkpt lat="47.98428" lon="-3.84588">
        <ele>120.3</ele>
        <time>2022-12-08T09:07:43Z</time>
      </trkpt>
      <trkpt lat="47.98426" lon="-3.84581">
        <ele>120.3</ele>
        <time>2022-12-08T09:07:44Z</time>
      </trkpt>
      <trkpt lat="47.98423" lon="-3.84577">
        <ele>120.3</ele>
        <time>2022-12-08T09:07:45Z</time>
      </trkpt>
      <trkpt lat="47.98423" lon="-3.84575">
        <ele>120.3</ele>
        <time>2022-12-08T09:07:46Z</time>
      </trkpt>
      <trkpt lat="47.98421" lon="-3.8457">
        <ele>120.4</ele>
        <time>2022-12-08T09:07:47Z</time>
      </trkpt>
      <trkpt lat="47.98419" lon="-3.84565">
        <ele>120.4</ele>
        <time>2022-12-08T09:07:48Z</time>
      </trkpt>
      <trkpt lat="47.98416" lon="-3.84561">
        <ele>120.4</ele>
        <time>2022-12-08T09:07:49Z</time>
      </trkpt>
      <trkpt lat="47.98414" lon="-3.84557">
        <ele>120.4</ele>
        <time>2022-12-08T09:07:50Z</time>
      </trkpt>
      <trkpt lat="47.98412" lon="-3.84554">
        <ele>120.4</ele>
        <time>2022-12-08T09:07:51Z</time>
      </trkpt>
      <trkpt lat="47.98409" lon="-3.8455">
        <ele>120.4</ele>
        <time>2022-12-08T09:07:52Z</time>
      </trkpt>
      <trkpt lat="47.98409" lon="-3.84549">
        <ele>120.3</ele>
        <time>2022-12-08T09:07:53Z</time>
      </trkpt>
      <trkpt lat="47.98406" lon="-3.84545">
        <ele>120.3</ele>
        <time>2022-12-08T09:07:54Z</time>
      </trkpt>
      <trkpt lat="47.98401" lon="-3.8454">
        <ele>120.4</ele>
        <time>2022-12-08T09:07:56Z</time>
      </trkpt>
      <trkpt lat="47.98397" lon="-3.84537">
        <ele>120.4</ele>
        <time>2022-12-08T09:07:57Z</time>
      </trkpt>
      <trkpt lat="47.98393" lon="-3.84533">
        <ele>120.5</ele>
        <time>2022-12-08T09:07:58Z</time>
      </trkpt>
      <trkpt lat="47.98391" lon="-3.8453">
        <ele>120.6</ele>
        <time>2022-12-08T09:08:00Z</time>
      </trkpt>
      <trkpt lat="47.98388" lon="-3.84527">
        <ele>120.6</ele>
        <time>2022-12-08T09:08:01Z</time>
      </trkpt>
      <trkpt lat="47.98386" lon="-3.84525">
        <ele>120.6</ele>
        <time>2022-12-08T09:08:02Z</time>
      </trkpt>
      <trkpt lat="47.98383" lon="-3.84523">
        <ele>120.7</ele>
        <time>2022-12-08T09:08:03Z</time>
      </trkpt>
      <trkpt lat="47.98379" lon="-3.84519">
        <ele>120.7</ele>
        <time>2022-12-08T09:08:04Z</time>
      </trkpt>
      <trkpt lat="47.98377" lon="-3.84516">
        <ele>120.7</ele>
        <time>2022-12-08T09:08:05Z</time>
      </trkpt>
      <trkpt lat="47.98374" lon="-3.84514">
        <ele>120.7</ele>
        <time>2022-12-08T09:08:06Z</time>
      </trkpt>
      <trkpt lat="47.98371" lon="-3.8451">
        <ele>120.7</ele>
        <time>2022-12-08T09:08:07Z</time>
      </trkpt>
      <trkpt lat="47.98369" lon="-3.84506">
        <ele>120.7</ele>
        <time>2022-12-08T09:08:08Z</time>
      </trkpt>
      <trkpt lat="47.98366" lon="-3.84503">
        <ele>120.7</ele>
        <time>2022-12-08T09:08:09Z</time>
      </trkpt>
      <trkpt lat="47.98365" lon="-3.84502">
        <ele>120.6</ele>
        <time>2022-12-08T09:08:10Z</time>
      </trkpt>
      <trkpt lat="47.98361" lon="-3.84498">
        <ele>120.6</ele>
        <time>2022-12-08T09:08:11Z</time>
      </trkpt>
      <trkpt lat="47.98359" lon="-3.84494">
        <ele>120.5</ele>
        <time>2022-12-08T09:08:12Z</time>
      </trkpt>
      <trkpt lat="47.98356" lon="-3.84491">
        <ele>120.5</ele>
        <time>2022-12-08T09:08:13Z</time>
      </trkpt>
      <trkpt lat="47.98353" lon="-3.84488">
        <ele>120.4</ele>
        <time>2022-12-08T09:08:15Z</time>
      </trkpt>
      <trkpt lat="47.9835" lon="-3.84485">
        <ele>120.3</ele>
        <time>2022-12-08T09:08:16Z</time>
      </trkpt>
      <trkpt lat="47.98347" lon="-3.8448">
        <ele>120.1</ele>
        <time>2022-12-08T09:08:17Z</time>
      </trkpt>
      <trkpt lat="47.98344" lon="-3.84477">
        <ele>120</ele>
        <time>2022-12-08T09:08:18Z</time>
      </trkpt>
      <trkpt lat="47.98341" lon="-3.84471">
        <ele>119.9</ele>
        <time>2022-12-08T09:08:20Z</time>
      </trkpt>
      <trkpt lat="47.98338" lon="-3.84465">
        <ele>119.8</ele>
        <time>2022-12-08T09:08:21Z</time>
      </trkpt>
      <trkpt lat="47.98336" lon="-3.8446">
        <ele>119.7</ele>
        <time>2022-12-08T09:08:22Z</time>
      </trkpt>
      <trkpt lat="47.98334" lon="-3.84455">
        <ele>119.6</ele>
        <time>2022-12-08T09:08:23Z</time>
      </trkpt>
      <trkpt lat="47.98331" lon="-3.84449">
        <ele>119.6</ele>
        <time>2022-12-08T09:08:24Z</time>
      </trkpt>
      <trkpt lat="47.98328" lon="-3.84445">
        <ele>119.5</ele>
        <time>2022-12-08T09:08:25Z</time>
      </trkpt>
      <trkpt lat="47.98326" lon="-3.84441">
        <ele>119.5</ele>
        <time>2022-12-08T09:08:26Z</time>
      </trkpt>
      <trkpt lat="47.98324" lon="-3.84436">
        <ele>119.5</ele>
        <time>2022-12-08T09:08:27Z</time>
      </trkpt>
      <trkpt lat="47.98321" lon="-3.8443">
        <ele>119.6</ele>
        <time>2022-12-08T09:08:29Z</time>
      </trkpt>
      <trkpt lat="47.9832" lon="-3.84424">
        <ele>119.7</ele>
        <time>2022-12-08T09:08:30Z</time>
      </trkpt>
      <trkpt lat="47.98318" lon="-3.84415">
        <ele>119.9</ele>
        <time>2022-12-08T09:08:32Z</time>
      </trkpt>
      <trkpt lat="47.98319" lon="-3.8441">
        <ele>119.8</ele>
        <time>2022-12-08T09:08:33Z</time>
      </trkpt>
      <trkpt lat="47.98321" lon="-3.84404">
        <ele>119.8</ele>
        <time>2022-12-08T09:08:34Z</time>
      </trkpt>
      <trkpt lat="47.98323" lon="-3.84401">
        <ele>119.7</ele>
        <time>2022-12-08T09:08:35Z</time>
      </trkpt>
      <trkpt lat="47.98325" lon="-3.84396">
        <ele>119.6</ele>
        <time>2022-12-08T09:08:36Z</time>
      </trkpt>
      <trkpt lat="47.98326" lon="-3.84393">
        <ele>119.6</ele>
        <time>2022-12-08T09:08:37Z</time>
      </trkpt>
      <trkpt lat="47.98329" lon="-3.84388">
        <ele>119.5</ele>
        <time>2022-12-08T09:08:39Z</time>
      </trkpt>
      <trkpt lat="47.98331" lon="-3.84383">
        <ele>119.5</ele>
        <time>2022-12-08T09:08:40Z</time>
      </trkpt>
      <trkpt lat="47.98333" lon="-3.84379">
        <ele>119.4</ele>
        <time>2022-12-08T09:08:41Z</time>
      </trkpt>
      <trkpt lat="47.98335" lon="-3.84373">
        <ele>119.4</ele>
        <time>2022-12-08T09:08:42Z</time>
      </trkpt>
      <trkpt lat="47.98336" lon="-3.84369">
        <ele>119.3</ele>
        <time>2022-12-08T09:08:43Z</time>
      </trkpt>
      <trkpt lat="47.98337" lon="-3.84363">
        <ele>119.3</ele>
        <time>2022-12-08T09:08:45Z</time>
      </trkpt>
      <trkpt lat="47.98338" lon="-3.84358">
        <ele>119.2</ele>
        <time>2022-12-08T09:08:46Z</time>
      </trkpt>
      <trkpt lat="47.98339" lon="-3.84353">
        <ele>119.1</ele>
        <time>2022-12-08T09:08:47Z</time>
      </trkpt>
      <trkpt lat="47.98341" lon="-3.84349">
        <ele>119.1</ele>
        <time>2022-12-08T09:08:48Z</time>
      </trkpt>
      <trkpt lat="47.98341" lon="-3.84347">
        <ele>119.1</ele>
        <time>2022-12-08T09:08:49Z</time>
      </trkpt>
      <trkpt lat="47.98342" lon="-3.84341">
        <ele>119</ele>
        <time>2022-12-08T09:08:50Z</time>
      </trkpt>
      <trkpt lat="47.98342" lon="-3.84339">
        <ele>119</ele>
        <time>2022-12-08T09:08:51Z</time>
      </trkpt>
      <trkpt lat="47.98344" lon="-3.84335">
        <ele>118.9</ele>
        <time>2022-12-08T09:08:52Z</time>
      </trkpt>
      <trkpt lat="47.98347" lon="-3.84334">
        <ele>118.9</ele>
        <time>2022-12-08T09:08:53Z</time>
      </trkpt>
      <trkpt lat="47.98351" lon="-3.84332">
        <ele>118.7</ele>
        <time>2022-12-08T09:08:54Z</time>
      </trkpt>
      <trkpt lat="47.98353" lon="-3.8433">
        <ele>118.5</ele>
        <time>2022-12-08T09:08:55Z</time>
      </trkpt>
      <trkpt lat="47.98354" lon="-3.84326">
        <ele>118.2</ele>
        <time>2022-12-08T09:08:56Z</time>
      </trkpt>
      <trkpt lat="47.98355" lon="-3.84325">
        <ele>118.1</ele>
        <time>2022-12-08T09:08:57Z</time>
      </trkpt>
      <trkpt lat="47.98357" lon="-3.84322">
        <ele>117.8</ele>
        <time>2022-12-08T09:08:58Z</time>
      </trkpt>
      <trkpt lat="47.98359" lon="-3.84318">
        <ele>117.6</ele>
        <time>2022-12-08T09:08:59Z</time>
      </trkpt>
      <trkpt lat="47.9836" lon="-3.84317">
        <ele>117.4</ele>
        <time>2022-12-08T09:09:00Z</time>
      </trkpt>
      <trkpt lat="47.98378" lon="-3.84317">
        <ele>115.9</ele>
        <time>2022-12-08T09:09:01Z</time>
      </trkpt>
      <trkpt lat="47.98393" lon="-3.84318">
        <ele>114.8</ele>
        <time>2022-12-08T09:09:02Z</time>
      </trkpt>
      <trkpt lat="47.98408" lon="-3.8432">
        <ele>113.8</ele>
        <time>2022-12-08T09:09:03Z</time>
      </trkpt>
      <trkpt lat="47.98423" lon="-3.84321">
        <ele>112.9</ele>
        <time>2022-12-08T09:09:04Z</time>
      </trkpt>
      <trkpt lat="47.98433" lon="-3.8432">
        <ele>112.5</ele>
        <time>2022-12-08T09:09:05Z</time>
      </trkpt>
      <trkpt lat="47.98441" lon="-3.8432">
        <ele>112.3</ele>
        <time>2022-12-08T09:09:06Z</time>
      </trkpt>
      <trkpt lat="47.98449" lon="-3.84319">
        <ele>112.3</ele>
        <time>2022-12-08T09:09:07Z</time>
      </trkpt>
      <trkpt lat="47.98456" lon="-3.84319">
        <ele>112.3</ele>
        <time>2022-12-08T09:09:08Z</time>
      </trkpt>
      <trkpt lat="47.98464" lon="-3.84318">
        <ele>112.5</ele>
        <time>2022-12-08T09:09:09Z</time>
      </trkpt>
      <trkpt lat="47.98471" lon="-3.84318">
        <ele>112.7</ele>
        <time>2022-12-08T09:09:10Z</time>
      </trkpt>
      <trkpt lat="47.98477" lon="-3.84318">
        <ele>112.9</ele>
        <time>2022-12-08T09:09:11Z</time>
      </trkpt>
      <trkpt lat="47.98483" lon="-3.84317">
        <ele>113.2</ele>
        <time>2022-12-08T09:09:12Z</time>
      </trkpt>
      <trkpt lat="47.98489" lon="-3.84316">
        <ele>113.5</ele>
        <time>2022-12-08T09:09:13Z</time>
      </trkpt>
      <trkpt lat="47.98494" lon="-3.84316">
        <ele>113.8</ele>
        <time>2022-12-08T09:09:14Z</time>
      </trkpt>
      <trkpt lat="47.98499" lon="-3.84316">
        <ele>114.1</ele>
        <time>2022-12-08T09:09:15Z</time>
      </trkpt>
      <trkpt lat="47.98504" lon="-3.84316">
        <ele>114.4</ele>
        <time>2022-12-08T09:09:16Z</time>
      </trkpt>
      <trkpt lat="47.98508" lon="-3.84317">
        <ele>114.8</ele>
        <time>2022-12-08T09:09:17Z</time>
      </trkpt>
      <trkpt lat="47.98513" lon="-3.84317">
        <ele>115.1</ele>
        <time>2022-12-08T09:09:18Z</time>
      </trkpt>
      <trkpt lat="47.98517" lon="-3.84317">
        <ele>115.4</ele>
        <time>2022-12-08T09:09:19Z</time>
      </trkpt>
      <trkpt lat="47.9852" lon="-3.84317">
        <ele>115.7</ele>
        <time>2022-12-08T09:09:20Z</time>
      </trkpt>
      <trkpt lat="47.98525" lon="-3.84317">
        <ele>116.1</ele>
        <time>2022-12-08T09:09:21Z</time>
      </trkpt>
      <trkpt lat="47.98528" lon="-3.84316">
        <ele>116.5</ele>
        <time>2022-12-08T09:09:22Z</time>
      </trkpt>
      <trkpt lat="47.98533" lon="-3.84316">
        <ele>116.9</ele>
        <time>2022-12-08T09:09:23Z</time>
      </trkpt>
      <trkpt lat="47.98537" lon="-3.84315">
        <ele>117.3</ele>
        <time>2022-12-08T09:09:24Z</time>
      </trkpt>
      <trkpt lat="47.98538" lon="-3.84314">
        <ele>117.4</ele>
        <time>2022-12-08T09:09:25Z</time>
      </trkpt>
      <trkpt lat="47.98544" lon="-3.84313">
        <ele>117.9</ele>
        <time>2022-12-08T09:09:26Z</time>
      </trkpt>
      <trkpt lat="47.98549" lon="-3.84312">
        <ele>118.3</ele>
        <time>2022-12-08T09:09:27Z</time>
      </trkpt>
      <trkpt lat="47.98552" lon="-3.84312">
        <ele>118.6</ele>
        <time>2022-12-08T09:09:28Z</time>
      </trkpt>
      <trkpt lat="47.98556" lon="-3.84312">
        <ele>119</ele>
        <time>2022-12-08T09:09:29Z</time>
      </trkpt>
      <trkpt lat="47.98562" lon="-3.84311">
        <ele>119.5</ele>
        <time>2022-12-08T09:09:31Z</time>
      </trkpt>
      <trkpt lat="47.98568" lon="-3.8431">
        <ele>120</ele>
        <time>2022-12-08T09:09:32Z</time>
      </trkpt>
      <trkpt lat="47.98571" lon="-3.84309">
        <ele>120.3</ele>
        <time>2022-12-08T09:09:33Z</time>
      </trkpt>
      <trkpt lat="47.98575" lon="-3.84308">
        <ele>120.6</ele>
        <time>2022-12-08T09:09:34Z</time>
      </trkpt>
      <trkpt lat="47.98578" lon="-3.84307">
        <ele>120.9</ele>
        <time>2022-12-08T09:09:35Z</time>
      </trkpt>
      <trkpt lat="47.98584" lon="-3.84306">
        <ele>121.3</ele>
        <time>2022-12-08T09:09:37Z</time>
      </trkpt>
      <trkpt lat="47.98589" lon="-3.84307">
        <ele>121.7</ele>
        <time>2022-12-08T09:09:38Z</time>
      </trkpt>
      <trkpt lat="47.98596" lon="-3.84305">
        <ele>122.1</ele>
        <time>2022-12-08T09:09:40Z</time>
      </trkpt>
      <trkpt lat="47.98601" lon="-3.84305">
        <ele>122.4</ele>
        <time>2022-12-08T09:09:41Z</time>
      </trkpt>
      <trkpt lat="47.98607" lon="-3.84304">
        <ele>122.8</ele>
        <time>2022-12-08T09:09:43Z</time>
      </trkpt>
      <trkpt lat="47.98612" lon="-3.84305">
        <ele>123.1</ele>
        <time>2022-12-08T09:09:44Z</time>
      </trkpt>
      <trkpt lat="47.98616" lon="-3.84304">
        <ele>123.3</ele>
        <time>2022-12-08T09:09:45Z</time>
      </trkpt>
      <trkpt lat="47.98621" lon="-3.84304">
        <ele>123.6</ele>
        <time>2022-12-08T09:09:47Z</time>
      </trkpt>
      <trkpt lat="47.98625" lon="-3.84304">
        <ele>123.8</ele>
        <time>2022-12-08T09:09:48Z</time>
      </trkpt>
      <trkpt lat="47.9863" lon="-3.84305">
        <ele>124.1</ele>
        <time>2022-12-08T09:09:49Z</time>
      </trkpt>
      <trkpt lat="47.98634" lon="-3.84307">
        <ele>124.3</ele>
        <time>2022-12-08T09:09:50Z</time>
      </trkpt>
      <trkpt lat="47.98637" lon="-3.84308">
        <ele>124.5</ele>
        <time>2022-12-08T09:09:51Z</time>
      </trkpt>
      <trkpt lat="47.98641" lon="-3.84309">
        <ele>124.7</ele>
        <time>2022-12-08T09:09:52Z</time>
      </trkpt>
      <trkpt lat="47.98645" lon="-3.8431">
        <ele>124.9</ele>
        <time>2022-12-08T09:09:53Z</time>
      </trkpt>
      <trkpt lat="47.98648" lon="-3.8431">
        <ele>125.1</ele>
        <time>2022-12-08T09:09:54Z</time>
      </trkpt>
      <trkpt lat="47.98652" lon="-3.84311">
        <ele>125.3</ele>
        <time>2022-12-08T09:09:55Z</time>
      </trkpt>
      <trkpt lat="47.98655" lon="-3.84311">
        <ele>125.5</ele>
        <time>2022-12-08T09:09:56Z</time>
      </trkpt>
      <trkpt lat="47.98659" lon="-3.84313">
        <ele>125.8</ele>
        <time>2022-12-08T09:09:57Z</time>
      </trkpt>
      <trkpt lat="47.98663" lon="-3.84313">
        <ele>126</ele>
        <time>2022-12-08T09:09:58Z</time>
      </trkpt>
      <trkpt lat="47.98667" lon="-3.84314">
        <ele>126.3</ele>
        <time>2022-12-08T09:09:59Z</time>
      </trkpt>
      <trkpt lat="47.98668" lon="-3.84315">
        <ele>126.4</ele>
        <time>2022-12-08T09:10:00Z</time>
      </trkpt>
      <trkpt lat="47.98672" lon="-3.84316">
        <ele>126.7</ele>
        <time>2022-12-08T09:10:01Z</time>
      </trkpt>
      <trkpt lat="47.98678" lon="-3.84317">
        <ele>127.2</ele>
        <time>2022-12-08T09:10:03Z</time>
      </trkpt>
      <trkpt lat="47.98682" lon="-3.84318">
        <ele>127.5</ele>
        <time>2022-12-08T09:10:04Z</time>
      </trkpt>
      <trkpt lat="47.98686" lon="-3.8432">
        <ele>127.8</ele>
        <time>2022-12-08T09:10:05Z</time>
      </trkpt>
      <trkpt lat="47.98692" lon="-3.84321">
        <ele>128.3</ele>
        <time>2022-12-08T09:10:07Z</time>
      </trkpt>
      <trkpt lat="47.98696" lon="-3.84322">
        <ele>128.6</ele>
        <time>2022-12-08T09:10:08Z</time>
      </trkpt>
      <trkpt lat="47.98701" lon="-3.84323">
        <ele>129</ele>
        <time>2022-12-08T09:10:09Z</time>
      </trkpt>
      <trkpt lat="47.98705" lon="-3.84323">
        <ele>129.3</ele>
        <time>2022-12-08T09:10:10Z</time>
      </trkpt>
      <trkpt lat="47.98708" lon="-3.84324">
        <ele>129.5</ele>
        <time>2022-12-08T09:10:11Z</time>
      </trkpt>
      <trkpt lat="47.9871" lon="-3.84324">
        <ele>129.7</ele>
        <time>2022-12-08T09:10:12Z</time>
      </trkpt>
      <trkpt lat="47.98715" lon="-3.84324">
        <ele>130.1</ele>
        <time>2022-12-08T09:10:14Z</time>
      </trkpt>
      <trkpt lat="47.9872" lon="-3.84324">
        <ele>130.5</ele>
        <time>2022-12-08T09:10:15Z</time>
      </trkpt>
      <trkpt lat="47.98724" lon="-3.84324">
        <ele>130.8</ele>
        <time>2022-12-08T09:10:16Z</time>
      </trkpt>
      <trkpt lat="47.98729" lon="-3.84323">
        <ele>131.1</ele>
        <time>2022-12-08T09:10:18Z</time>
      </trkpt>
      <trkpt lat="47.98734" lon="-3.84323">
        <ele>131.4</ele>
        <time>2022-12-08T09:10:19Z</time>
      </trkpt>
      <trkpt lat="47.98737" lon="-3.84323">
        <ele>131.6</ele>
        <time>2022-12-08T09:10:20Z</time>
      </trkpt>
      <trkpt lat="47.98742" lon="-3.84323">
        <ele>131.8</ele>
        <time>2022-12-08T09:10:21Z</time>
      </trkpt>
      <trkpt lat="47.98745" lon="-3.84322">
        <ele>132</ele>
        <time>2022-12-08T09:10:22Z</time>
      </trkpt>
      <trkpt lat="47.98749" lon="-3.8432">
        <ele>132.2</ele>
        <time>2022-12-08T09:10:23Z</time>
      </trkpt>
      <trkpt lat="47.98752" lon="-3.84319">
        <ele>132.3</ele>
        <time>2022-12-08T09:10:24Z</time>
      </trkpt>
      <trkpt lat="47.98756" lon="-3.84318">
        <ele>132.5</ele>
        <time>2022-12-08T09:10:25Z</time>
      </trkpt>
      <trkpt lat="47.9876" lon="-3.84317">
        <ele>132.6</ele>
        <time>2022-12-08T09:10:26Z</time>
      </trkpt>
      <trkpt lat="47.98764" lon="-3.84317">
        <ele>132.7</ele>
        <time>2022-12-08T09:10:27Z</time>
      </trkpt>
      <trkpt lat="47.98767" lon="-3.84316">
        <ele>132.8</ele>
        <time>2022-12-08T09:10:28Z</time>
      </trkpt>
      <trkpt lat="47.98771" lon="-3.84316">
        <ele>132.8</ele>
        <time>2022-12-08T09:10:29Z</time>
      </trkpt>
      <trkpt lat="47.98774" lon="-3.84314">
        <ele>132.9</ele>
        <time>2022-12-08T09:10:30Z</time>
      </trkpt>
      <trkpt lat="47.98778" lon="-3.84313">
        <ele>132.9</ele>
        <time>2022-12-08T09:10:31Z</time>
      </trkpt>
      <trkpt lat="47.98782" lon="-3.84313">
        <ele>132.9</ele>
        <time>2022-12-08T09:10:32Z</time>
      </trkpt>
      <trkpt lat="47.98787" lon="-3.84312">
        <ele>132.9</ele>
        <time>2022-12-08T09:10:34Z</time>
      </trkpt>
      <trkpt lat="47.98791" lon="-3.84311">
        <ele>132.8</ele>
        <time>2022-12-08T09:10:35Z</time>
      </trkpt>
      <trkpt lat="47.98797" lon="-3.84312">
        <ele>132.7</ele>
        <time>2022-12-08T09:10:36Z</time>
      </trkpt>
      <trkpt lat="47.98804" lon="-3.84311">
        <ele>132.6</ele>
        <time>2022-12-08T09:10:37Z</time>
      </trkpt>
      <trkpt lat="47.98809" lon="-3.8431">
        <ele>132.5</ele>
        <time>2022-12-08T09:10:38Z</time>
      </trkpt>
      <trkpt lat="47.98814" lon="-3.84311">
        <ele>132.3</ele>
        <time>2022-12-08T09:10:39Z</time>
      </trkpt>
      <trkpt lat="47.98819" lon="-3.8431">
        <ele>132</ele>
        <time>2022-12-08T09:10:40Z</time>
      </trkpt>
      <trkpt lat="47.98825" lon="-3.8431">
        <ele>131.8</ele>
        <time>2022-12-08T09:10:41Z</time>
      </trkpt>
      <trkpt lat="47.9883" lon="-3.8431">
        <ele>131.6</ele>
        <time>2022-12-08T09:10:42Z</time>
      </trkpt>
      <trkpt lat="47.98836" lon="-3.8431">
        <ele>131.3</ele>
        <time>2022-12-08T09:10:43Z</time>
      </trkpt>
      <trkpt lat="47.98842" lon="-3.8431">
        <ele>130.9</ele>
        <time>2022-12-08T09:10:44Z</time>
      </trkpt>
      <trkpt lat="47.98849" lon="-3.8431">
        <ele>130.6</ele>
        <time>2022-12-08T09:10:45Z</time>
      </trkpt>
      <trkpt lat="47.98856" lon="-3.8431">
        <ele>130.2</ele>
        <time>2022-12-08T09:10:46Z</time>
      </trkpt>
      <trkpt lat="47.98863" lon="-3.84309">
        <ele>129.8</ele>
        <time>2022-12-08T09:10:47Z</time>
      </trkpt>
      <trkpt lat="47.9887" lon="-3.84309">
        <ele>129.4</ele>
        <time>2022-12-08T09:10:48Z</time>
      </trkpt>
      <trkpt lat="47.98877" lon="-3.84307">
        <ele>129</ele>
        <time>2022-12-08T09:10:49Z</time>
      </trkpt>
      <trkpt lat="47.98885" lon="-3.84306">
        <ele>128.7</ele>
        <time>2022-12-08T09:10:50Z</time>
      </trkpt>
      <trkpt lat="47.98892" lon="-3.84304">
        <ele>128.5</ele>
        <time>2022-12-08T09:10:51Z</time>
      </trkpt>
      <trkpt lat="47.98899" lon="-3.84303">
        <ele>128.2</ele>
        <time>2022-12-08T09:10:52Z</time>
      </trkpt>
      <trkpt lat="47.98907" lon="-3.84301">
        <ele>128</ele>
        <time>2022-12-08T09:10:53Z</time>
      </trkpt>
      <trkpt lat="47.98914" lon="-3.843">
        <ele>127.9</ele>
        <time>2022-12-08T09:10:54Z</time>
      </trkpt>
      <trkpt lat="47.98921" lon="-3.84299">
        <ele>127.8</ele>
        <time>2022-12-08T09:10:55Z</time>
      </trkpt>
      <trkpt lat="47.98928" lon="-3.84298">
        <ele>127.7</ele>
        <time>2022-12-08T09:10:56Z</time>
      </trkpt>
      <trkpt lat="47.98935" lon="-3.84297">
        <ele>127.6</ele>
        <time>2022-12-08T09:10:57Z</time>
      </trkpt>
      <trkpt lat="47.98941" lon="-3.84296">
        <ele>127.5</ele>
        <time>2022-12-08T09:10:58Z</time>
      </trkpt>
      <trkpt lat="47.98948" lon="-3.84295">
        <ele>127.5</ele>
        <time>2022-12-08T09:10:59Z</time>
      </trkpt>
      <trkpt lat="47.98955" lon="-3.84294">
        <ele>127.3</ele>
        <time>2022-12-08T09:11:00Z</time>
      </trkpt>
      <trkpt lat="47.98962" lon="-3.84293">
        <ele>127</ele>
        <time>2022-12-08T09:11:01Z</time>
      </trkpt>
      <trkpt lat="47.98968" lon="-3.84292">
        <ele>126.7</ele>
        <time>2022-12-08T09:11:02Z</time>
      </trkpt>
      <trkpt lat="47.98975" lon="-3.84292">
        <ele>126.4</ele>
        <time>2022-12-08T09:11:03Z</time>
      </trkpt>
      <trkpt lat="47.98982" lon="-3.84292">
        <ele>126.2</ele>
        <time>2022-12-08T09:11:04Z</time>
      </trkpt>
      <trkpt lat="47.98989" lon="-3.84293">
        <ele>126</ele>
        <time>2022-12-08T09:11:05Z</time>
      </trkpt>
      <trkpt lat="47.98997" lon="-3.84294">
        <ele>125.7</ele>
        <time>2022-12-08T09:11:06Z</time>
      </trkpt>
      <trkpt lat="47.99004" lon="-3.84294">
        <ele>125.6</ele>
        <time>2022-12-08T09:11:07Z</time>
      </trkpt>
      <trkpt lat="47.99011" lon="-3.84295">
        <ele>125.4</ele>
        <time>2022-12-08T09:11:08Z</time>
      </trkpt>
      <trkpt lat="47.99019" lon="-3.84296">
        <ele>125.2</ele>
        <time>2022-12-08T09:11:09Z</time>
      </trkpt>
      <trkpt lat="47.99026" lon="-3.84297">
        <ele>125</ele>
        <time>2022-12-08T09:11:10Z</time>
      </trkpt>
      <trkpt lat="47.99033" lon="-3.84298">
        <ele>124.9</ele>
        <time>2022-12-08T09:11:11Z</time>
      </trkpt>
      <trkpt lat="47.9904" lon="-3.84299">
        <ele>124.7</ele>
        <time>2022-12-08T09:11:12Z</time>
      </trkpt>
      <trkpt lat="47.99047" lon="-3.84301">
        <ele>124.6</ele>
        <time>2022-12-08T09:11:13Z</time>
      </trkpt>
      <trkpt lat="47.99054" lon="-3.84302">
        <ele>124.4</ele>
        <time>2022-12-08T09:11:14Z</time>
      </trkpt>
      <trkpt lat="47.99061" lon="-3.84304">
        <ele>124.3</ele>
        <time>2022-12-08T09:11:15Z</time>
      </trkpt>
      <trkpt lat="47.99068" lon="-3.84305">
        <ele>124.2</ele>
        <time>2022-12-08T09:11:16Z</time>
      </trkpt>
      <trkpt lat="47.99075" lon="-3.84306">
        <ele>124.1</ele>
        <time>2022-12-08T09:11:17Z</time>
      </trkpt>
      <trkpt lat="47.99082" lon="-3.84308">
        <ele>124</ele>
        <time>2022-12-08T09:11:18Z</time>
      </trkpt>
      <trkpt lat="47.99089" lon="-3.84309">
        <ele>123.9</ele>
        <time>2022-12-08T09:11:19Z</time>
      </trkpt>
      <trkpt lat="47.99096" lon="-3.84311">
        <ele>123.8</ele>
        <time>2022-12-08T09:11:20Z</time>
      </trkpt>
      <trkpt lat="47.99103" lon="-3.84312">
        <ele>123.8</ele>
        <time>2022-12-08T09:11:21Z</time>
      </trkpt>
      <trkpt lat="47.9911" lon="-3.84314">
        <ele>123.8</ele>
        <time>2022-12-08T09:11:22Z</time>
      </trkpt>
      <trkpt lat="47.99117" lon="-3.84316">
        <ele>123.8</ele>
        <time>2022-12-08T09:11:23Z</time>
      </trkpt>
      <trkpt lat="47.99123" lon="-3.84318">
        <ele>123.8</ele>
        <time>2022-12-08T09:11:24Z</time>
      </trkpt>
      <trkpt lat="47.9913" lon="-3.8432">
        <ele>123.8</ele>
        <time>2022-12-08T09:11:25Z</time>
      </trkpt>
      <trkpt lat="47.99137" lon="-3.84322">
        <ele>123.8</ele>
        <time>2022-12-08T09:11:26Z</time>
      </trkpt>
      <trkpt lat="47.99143" lon="-3.84324">
        <ele>123.8</ele>
        <time>2022-12-08T09:11:27Z</time>
      </trkpt>
      <trkpt lat="47.9915" lon="-3.84327">
        <ele>123.8</ele>
        <time>2022-12-08T09:11:28Z</time>
      </trkpt>
      <trkpt lat="47.99155" lon="-3.84331">
        <ele>123.8</ele>
        <time>2022-12-08T09:11:29Z</time>
      </trkpt>
      <trkpt lat="47.99162" lon="-3.84334">
        <ele>123.8</ele>
        <time>2022-12-08T09:11:30Z</time>
      </trkpt>
      <trkpt lat="47.99168" lon="-3.84336">
        <ele>123.8</ele>
        <time>2022-12-08T09:11:31Z</time>
      </trkpt>
      <trkpt lat="47.99174" lon="-3.84338">
        <ele>123.9</ele>
        <time>2022-12-08T09:11:32Z</time>
      </trkpt>
      <trkpt lat="47.9918" lon="-3.84341">
        <ele>123.9</ele>
        <time>2022-12-08T09:11:33Z</time>
      </trkpt>
      <trkpt lat="47.99187" lon="-3.84342">
        <ele>123.9</ele>
        <time>2022-12-08T09:11:34Z</time>
      </trkpt>
      <trkpt lat="47.99193" lon="-3.84344">
        <ele>124</ele>
        <time>2022-12-08T09:11:35Z</time>
      </trkpt>
      <trkpt lat="47.99199" lon="-3.84346">
        <ele>124</ele>
        <time>2022-12-08T09:11:36Z</time>
      </trkpt>
      <trkpt lat="47.99205" lon="-3.84348">
        <ele>124.1</ele>
        <time>2022-12-08T09:11:37Z</time>
      </trkpt>
      <trkpt lat="47.99211" lon="-3.84351">
        <ele>124.2</ele>
        <time>2022-12-08T09:11:38Z</time>
      </trkpt>
      <trkpt lat="47.99217" lon="-3.84353">
        <ele>124.3</ele>
        <time>2022-12-08T09:11:39Z</time>
      </trkpt>
      <trkpt lat="47.99222" lon="-3.84355">
        <ele>124.4</ele>
        <time>2022-12-08T09:11:40Z</time>
      </trkpt>
      <trkpt lat="47.99228" lon="-3.84357">
        <ele>124.5</ele>
        <time>2022-12-08T09:11:41Z</time>
      </trkpt>
      <trkpt lat="47.99234" lon="-3.84358">
        <ele>124.6</ele>
        <time>2022-12-08T09:11:42Z</time>
      </trkpt>
      <trkpt lat="47.99239" lon="-3.8436">
        <ele>124.7</ele>
        <time>2022-12-08T09:11:43Z</time>
      </trkpt>
      <trkpt lat="47.99244" lon="-3.84363">
        <ele>124.8</ele>
        <time>2022-12-08T09:11:44Z</time>
      </trkpt>
      <trkpt lat="47.99249" lon="-3.84365">
        <ele>124.9</ele>
        <time>2022-12-08T09:11:45Z</time>
      </trkpt>
      <trkpt lat="47.99254" lon="-3.84365">
        <ele>125</ele>
        <time>2022-12-08T09:11:46Z</time>
      </trkpt>
      <trkpt lat="47.99259" lon="-3.84367">
        <ele>125.1</ele>
        <time>2022-12-08T09:11:47Z</time>
      </trkpt>
      <trkpt lat="47.99265" lon="-3.84368">
        <ele>125.2</ele>
        <time>2022-12-08T09:11:48Z</time>
      </trkpt>
      <trkpt lat="47.9927" lon="-3.84369">
        <ele>125.3</ele>
        <time>2022-12-08T09:11:49Z</time>
      </trkpt>
      <trkpt lat="47.99275" lon="-3.8437">
        <ele>125.5</ele>
        <time>2022-12-08T09:11:50Z</time>
      </trkpt>
      <trkpt lat="47.9928" lon="-3.8437">
        <ele>125.6</ele>
        <time>2022-12-08T09:11:51Z</time>
      </trkpt>
      <trkpt lat="47.99285" lon="-3.8437">
        <ele>125.7</ele>
        <time>2022-12-08T09:11:52Z</time>
      </trkpt>
      <trkpt lat="47.9929" lon="-3.84371">
        <ele>125.8</ele>
        <time>2022-12-08T09:11:53Z</time>
      </trkpt>
      <trkpt lat="47.99295" lon="-3.84372">
        <ele>126</ele>
        <time>2022-12-08T09:11:54Z</time>
      </trkpt>
      <trkpt lat="47.993" lon="-3.84372">
        <ele>126.1</ele>
        <time>2022-12-08T09:11:55Z</time>
      </trkpt>
      <trkpt lat="47.99305" lon="-3.84372">
        <ele>126.2</ele>
        <time>2022-12-08T09:11:56Z</time>
      </trkpt>
      <trkpt lat="47.9931" lon="-3.84372">
        <ele>126.3</ele>
        <time>2022-12-08T09:11:57Z</time>
      </trkpt>
      <trkpt lat="47.99315" lon="-3.84372">
        <ele>126.4</ele>
        <time>2022-12-08T09:11:58Z</time>
      </trkpt>
      <trkpt lat="47.9932" lon="-3.84371">
        <ele>126.5</ele>
        <time>2022-12-08T09:11:59Z</time>
      </trkpt>
      <trkpt lat="47.99325" lon="-3.84371">
        <ele>126.6</ele>
        <time>2022-12-08T09:12:00Z</time>
      </trkpt>
      <trkpt lat="47.9933" lon="-3.8437">
        <ele>126.7</ele>
        <time>2022-12-08T09:12:01Z</time>
      </trkpt>
      <trkpt lat="47.99335" lon="-3.8437">
        <ele>126.8</ele>
        <time>2022-12-08T09:12:02Z</time>
      </trkpt>
      <trkpt lat="47.9934" lon="-3.84369">
        <ele>126.9</ele>
        <time>2022-12-08T09:12:03Z</time>
      </trkpt>
      <trkpt lat="47.99345" lon="-3.84368">
        <ele>127</ele>
        <time>2022-12-08T09:12:04Z</time>
      </trkpt>
      <trkpt lat="47.9935" lon="-3.84367">
        <ele>127.1</ele>
        <time>2022-12-08T09:12:05Z</time>
      </trkpt>
      <trkpt lat="47.99354" lon="-3.84367">
        <ele>127.2</ele>
        <time>2022-12-08T09:12:06Z</time>
      </trkpt>
      <trkpt lat="47.99359" lon="-3.84366">
        <ele>127.3</ele>
        <time>2022-12-08T09:12:07Z</time>
      </trkpt>
      <trkpt lat="47.99364" lon="-3.84365">
        <ele>127.4</ele>
        <time>2022-12-08T09:12:08Z</time>
      </trkpt>
      <trkpt lat="47.99368" lon="-3.84364">
        <ele>127.5</ele>
        <time>2022-12-08T09:12:09Z</time>
      </trkpt>
      <trkpt lat="47.99373" lon="-3.84363">
        <ele>127.7</ele>
        <time>2022-12-08T09:12:10Z</time>
      </trkpt>
      <trkpt lat="47.99378" lon="-3.84363">
        <ele>127.9</ele>
        <time>2022-12-08T09:12:11Z</time>
      </trkpt>
      <trkpt lat="47.99383" lon="-3.84362">
        <ele>128</ele>
        <time>2022-12-08T09:12:12Z</time>
      </trkpt>
      <trkpt lat="47.99387" lon="-3.8436">
        <ele>128.3</ele>
        <time>2022-12-08T09:12:13Z</time>
      </trkpt>
      <trkpt lat="47.99389" lon="-3.8436">
        <ele>128.4</ele>
        <time>2022-12-08T09:12:14Z</time>
      </trkpt>
      <trkpt lat="47.99395" lon="-3.84359">
        <ele>128.7</ele>
        <time>2022-12-08T09:12:15Z</time>
      </trkpt>
      <trkpt lat="47.99399" lon="-3.84358">
        <ele>129</ele>
        <time>2022-12-08T09:12:16Z</time>
      </trkpt>
      <trkpt lat="47.99403" lon="-3.84357">
        <ele>129.2</ele>
        <time>2022-12-08T09:12:17Z</time>
      </trkpt>
      <trkpt lat="47.99407" lon="-3.84356">
        <ele>129.5</ele>
        <time>2022-12-08T09:12:18Z</time>
      </trkpt>
      <trkpt lat="47.9941" lon="-3.84356">
        <ele>129.7</ele>
        <time>2022-12-08T09:12:19Z</time>
      </trkpt>
      <trkpt lat="47.99417" lon="-3.84355">
        <ele>130.2</ele>
        <time>2022-12-08T09:12:20Z</time>
      </trkpt>
      <trkpt lat="47.99416" lon="-3.84353">
        <ele>130.3</ele>
        <time>2022-12-08T09:12:21Z</time>
      </trkpt>
      <trkpt lat="47.99423" lon="-3.84353">
        <ele>130.8</ele>
        <time>2022-12-08T09:12:23Z</time>
      </trkpt>
      <trkpt lat="47.99429" lon="-3.84353">
        <ele>131.2</ele>
        <time>2022-12-08T09:12:24Z</time>
      </trkpt>
      <trkpt lat="47.99433" lon="-3.84352">
        <ele>131.5</ele>
        <time>2022-12-08T09:12:25Z</time>
      </trkpt>
      <trkpt lat="47.99436" lon="-3.84352">
        <ele>131.7</ele>
        <time>2022-12-08T09:12:26Z</time>
      </trkpt>
      <trkpt lat="47.9944" lon="-3.84351">
        <ele>132</ele>
        <time>2022-12-08T09:12:27Z</time>
      </trkpt>
      <trkpt lat="47.99443" lon="-3.8435">
        <ele>132.2</ele>
        <time>2022-12-08T09:12:28Z</time>
      </trkpt>
      <trkpt lat="47.99449" lon="-3.84348">
        <ele>132.7</ele>
        <time>2022-12-08T09:12:29Z</time>
      </trkpt>
      <trkpt lat="47.99453" lon="-3.84348">
        <ele>133</ele>
        <time>2022-12-08T09:12:31Z</time>
      </trkpt>
      <trkpt lat="47.99457" lon="-3.84348">
        <ele>133.3</ele>
        <time>2022-12-08T09:12:32Z</time>
      </trkpt>
      <trkpt lat="47.99461" lon="-3.84346">
        <ele>133.6</ele>
        <time>2022-12-08T09:12:33Z</time>
      </trkpt>
      <trkpt lat="47.99465" lon="-3.84345">
        <ele>133.9</ele>
        <time>2022-12-08T09:12:34Z</time>
      </trkpt>
      <trkpt lat="47.99468" lon="-3.84344">
        <ele>134.2</ele>
        <time>2022-12-08T09:12:35Z</time>
      </trkpt>
      <trkpt lat="47.99474" lon="-3.84343">
        <ele>134.7</ele>
        <time>2022-12-08T09:12:37Z</time>
      </trkpt>
      <trkpt lat="47.99479" lon="-3.84342">
        <ele>135.1</ele>
        <time>2022-12-08T09:12:38Z</time>
      </trkpt>
      <trkpt lat="47.99482" lon="-3.84342">
        <ele>135.4</ele>
        <time>2022-12-08T09:12:39Z</time>
      </trkpt>
      <trkpt lat="47.99485" lon="-3.84341">
        <ele>135.7</ele>
        <time>2022-12-08T09:12:40Z</time>
      </trkpt>
      <trkpt lat="47.9949" lon="-3.84341">
        <ele>136.1</ele>
        <time>2022-12-08T09:12:42Z</time>
      </trkpt>
      <trkpt lat="47.99493" lon="-3.84341">
        <ele>136.4</ele>
        <time>2022-12-08T09:12:43Z</time>
      </trkpt>
      <trkpt lat="47.99497" lon="-3.8434">
        <ele>136.6</ele>
        <time>2022-12-08T09:12:44Z</time>
      </trkpt>
      <trkpt lat="47.995" lon="-3.8434">
        <ele>136.9</ele>
        <time>2022-12-08T09:12:45Z</time>
      </trkpt>
      <trkpt lat="47.99504" lon="-3.8434">
        <ele>137.3</ele>
        <time>2022-12-08T09:12:46Z</time>
      </trkpt>
      <trkpt lat="47.99507" lon="-3.8434">
        <ele>137.5</ele>
        <time>2022-12-08T09:12:47Z</time>
      </trkpt>
      <trkpt lat="47.99511" lon="-3.84339">
        <ele>137.7</ele>
        <time>2022-12-08T09:12:48Z</time>
      </trkpt>
      <trkpt lat="47.99513" lon="-3.84339">
        <ele>137.9</ele>
        <time>2022-12-08T09:12:49Z</time>
      </trkpt>
      <trkpt lat="47.99518" lon="-3.84338">
        <ele>138.3</ele>
        <time>2022-12-08T09:12:51Z</time>
      </trkpt>
      <trkpt lat="47.99522" lon="-3.84337">
        <ele>138.6</ele>
        <time>2022-12-08T09:12:52Z</time>
      </trkpt>
      <trkpt lat="47.99525" lon="-3.84338">
        <ele>138.7</ele>
        <time>2022-12-08T09:12:53Z</time>
      </trkpt>
      <trkpt lat="47.99528" lon="-3.84337">
        <ele>138.9</ele>
        <time>2022-12-08T09:12:54Z</time>
      </trkpt>
      <trkpt lat="47.99531" lon="-3.84338">
        <ele>139.1</ele>
        <time>2022-12-08T09:12:55Z</time>
      </trkpt>
      <trkpt lat="47.99534" lon="-3.84338">
        <ele>139.3</ele>
        <time>2022-12-08T09:12:56Z</time>
      </trkpt>
      <trkpt lat="47.99537" lon="-3.84339">
        <ele>139.3</ele>
        <time>2022-12-08T09:12:57Z</time>
      </trkpt>
      <trkpt lat="47.9954" lon="-3.8434">
        <ele>139.4</ele>
        <time>2022-12-08T09:12:58Z</time>
      </trkpt>
      <trkpt lat="47.99543" lon="-3.84343">
        <ele>139.4</ele>
        <time>2022-12-08T09:12:59Z</time>
      </trkpt>
      <trkpt lat="47.99544" lon="-3.84345">
        <ele>139.4</ele>
        <time>2022-12-08T09:13:00Z</time>
      </trkpt>
      <trkpt lat="47.99543" lon="-3.84357">
        <ele>139.3</ele>
        <time>2022-12-08T09:13:02Z</time>
      </trkpt>
      <trkpt lat="47.99541" lon="-3.84371">
        <ele>138.9</ele>
        <time>2022-12-08T09:13:04Z</time>
      </trkpt>
      <trkpt lat="47.9954" lon="-3.8438">
        <ele>138.6</ele>
        <time>2022-12-08T09:13:05Z</time>
      </trkpt>
      <trkpt lat="47.9954" lon="-3.84388">
        <ele>138.3</ele>
        <time>2022-12-08T09:13:06Z</time>
      </trkpt>
      <trkpt lat="47.99539" lon="-3.84396">
        <ele>138</ele>
        <time>2022-12-08T09:13:07Z</time>
      </trkpt>
      <trkpt lat="47.99538" lon="-3.84405">
        <ele>137.7</ele>
        <time>2022-12-08T09:13:08Z</time>
      </trkpt>
      <trkpt lat="47.99538" lon="-3.84415">
        <ele>137.4</ele>
        <time>2022-12-08T09:13:09Z</time>
      </trkpt>
      <trkpt lat="47.99537" lon="-3.84424">
        <ele>137</ele>
        <time>2022-12-08T09:13:10Z</time>
      </trkpt>
      <trkpt lat="47.99536" lon="-3.84434">
        <ele>136.6</ele>
        <time>2022-12-08T09:13:11Z</time>
      </trkpt>
      <trkpt lat="47.99535" lon="-3.84444">
        <ele>136.2</ele>
        <time>2022-12-08T09:13:12Z</time>
      </trkpt>
      <trkpt lat="47.99534" lon="-3.84455">
        <ele>135.8</ele>
        <time>2022-12-08T09:13:13Z</time>
      </trkpt>
      <trkpt lat="47.99533" lon="-3.84466">
        <ele>135.4</ele>
        <time>2022-12-08T09:13:14Z</time>
      </trkpt>
      <trkpt lat="47.99532" lon="-3.84478">
        <ele>134.9</ele>
        <time>2022-12-08T09:13:15Z</time>
      </trkpt>
      <trkpt lat="47.99532" lon="-3.84489">
        <ele>134.3</ele>
        <time>2022-12-08T09:13:16Z</time>
      </trkpt>
      <trkpt lat="47.9953" lon="-3.84502">
        <ele>133.8</ele>
        <time>2022-12-08T09:13:17Z</time>
      </trkpt>
      <trkpt lat="47.99529" lon="-3.84514">
        <ele>133.2</ele>
        <time>2022-12-08T09:13:18Z</time>
      </trkpt>
      <trkpt lat="47.99528" lon="-3.84527">
        <ele>132.6</ele>
        <time>2022-12-08T09:13:19Z</time>
      </trkpt>
      <trkpt lat="47.99527" lon="-3.8454">
        <ele>131.9</ele>
        <time>2022-12-08T09:13:20Z</time>
      </trkpt>
      <trkpt lat="47.99526" lon="-3.84554">
        <ele>131.3</ele>
        <time>2022-12-08T09:13:21Z</time>
      </trkpt>
      <trkpt lat="47.99525" lon="-3.84569">
        <ele>130.6</ele>
        <time>2022-12-08T09:13:22Z</time>
      </trkpt>
      <trkpt lat="47.99524" lon="-3.84584">
        <ele>129.8</ele>
        <time>2022-12-08T09:13:23Z</time>
      </trkpt>
      <trkpt lat="47.99524" lon="-3.84599">
        <ele>129.1</ele>
        <time>2022-12-08T09:13:24Z</time>
      </trkpt>
      <trkpt lat="47.99524" lon="-3.84614">
        <ele>128.3</ele>
        <time>2022-12-08T09:13:25Z</time>
      </trkpt>
      <trkpt lat="47.99525" lon="-3.84629">
        <ele>127.5</ele>
        <time>2022-12-08T09:13:26Z</time>
      </trkpt>
      <trkpt lat="47.99526" lon="-3.84646">
        <ele>126.6</ele>
        <time>2022-12-08T09:13:27Z</time>
      </trkpt>
      <trkpt lat="47.99527" lon="-3.84662">
        <ele>126.1</ele>
        <time>2022-12-08T09:13:28Z</time>
      </trkpt>
      <trkpt lat="47.9953" lon="-3.84679">
        <ele>125.4</ele>
        <time>2022-12-08T09:13:29Z</time>
      </trkpt>
      <trkpt lat="47.99532" lon="-3.84696">
        <ele>124.6</ele>
        <time>2022-12-08T09:13:30Z</time>
      </trkpt>
      <trkpt lat="47.99535" lon="-3.84712">
        <ele>123.7</ele>
        <time>2022-12-08T09:13:31Z</time>
      </trkpt>
      <trkpt lat="47.99538" lon="-3.8473">
        <ele>122.8</ele>
        <time>2022-12-08T09:13:32Z</time>
      </trkpt>
      <trkpt lat="47.99541" lon="-3.84747">
        <ele>121.9</ele>
        <time>2022-12-08T09:13:33Z</time>
      </trkpt>
      <trkpt lat="47.99544" lon="-3.84764">
        <ele>121</ele>
        <time>2022-12-08T09:13:34Z</time>
      </trkpt>
      <trkpt lat="47.99547" lon="-3.84781">
        <ele>120.1</ele>
        <time>2022-12-08T09:13:35Z</time>
      </trkpt>
      <trkpt lat="47.9955" lon="-3.84798">
        <ele>119.2</ele>
        <time>2022-12-08T09:13:36Z</time>
      </trkpt>
      <trkpt lat="47.99553" lon="-3.84815">
        <ele>118.4</ele>
        <time>2022-12-08T09:13:37Z</time>
      </trkpt>
      <trkpt lat="47.99556" lon="-3.84833">
        <ele>117.7</ele>
        <time>2022-12-08T09:13:38Z</time>
      </trkpt>
      <trkpt lat="47.99558" lon="-3.8485">
        <ele>117</ele>
        <time>2022-12-08T09:13:39Z</time>
      </trkpt>
      <trkpt lat="47.9956" lon="-3.84867">
        <ele>116.4</ele>
        <time>2022-12-08T09:13:40Z</time>
      </trkpt>
      <trkpt lat="47.99562" lon="-3.84884">
        <ele>115.9</ele>
        <time>2022-12-08T09:13:41Z</time>
      </trkpt>
      <trkpt lat="47.99564" lon="-3.849">
        <ele>115.5</ele>
        <time>2022-12-08T09:13:42Z</time>
      </trkpt>
      <trkpt lat="47.99566" lon="-3.84917">
        <ele>115.2</ele>
        <time>2022-12-08T09:13:43Z</time>
      </trkpt>
      <trkpt lat="47.99568" lon="-3.84933">
        <ele>114.9</ele>
        <time>2022-12-08T09:13:44Z</time>
      </trkpt>
      <trkpt lat="47.99569" lon="-3.84949">
        <ele>114.6</ele>
        <time>2022-12-08T09:13:45Z</time>
      </trkpt>
      <trkpt lat="47.99571" lon="-3.84965">
        <ele>114.4</ele>
        <time>2022-12-08T09:13:46Z</time>
      </trkpt>
      <trkpt lat="47.99572" lon="-3.8498">
        <ele>114.3</ele>
        <time>2022-12-08T09:13:47Z</time>
      </trkpt>
      <trkpt lat="47.99573" lon="-3.84995">
        <ele>114.2</ele>
        <time>2022-12-08T09:13:48Z</time>
      </trkpt>
      <trkpt lat="47.99575" lon="-3.8501">
        <ele>114.3</ele>
        <time>2022-12-08T09:13:49Z</time>
      </trkpt>
      <trkpt lat="47.99576" lon="-3.85024">
        <ele>114.4</ele>
        <time>2022-12-08T09:13:50Z</time>
      </trkpt>
      <trkpt lat="47.99577" lon="-3.85037">
        <ele>114.5</ele>
        <time>2022-12-08T09:13:51Z</time>
      </trkpt>
      <trkpt lat="47.99578" lon="-3.8505">
        <ele>114.7</ele>
        <time>2022-12-08T09:13:52Z</time>
      </trkpt>
      <trkpt lat="47.99578" lon="-3.85063">
        <ele>114.9</ele>
        <time>2022-12-08T09:13:53Z</time>
      </trkpt>
      <trkpt lat="47.99579" lon="-3.85074">
        <ele>115.1</ele>
        <time>2022-12-08T09:13:54Z</time>
      </trkpt>
      <trkpt lat="47.9958" lon="-3.85085">
        <ele>115.3</ele>
        <time>2022-12-08T09:13:55Z</time>
      </trkpt>
      <trkpt lat="47.99581" lon="-3.85096">
        <ele>115.6</ele>
        <time>2022-12-08T09:13:56Z</time>
      </trkpt>
      <trkpt lat="47.99582" lon="-3.85106">
        <ele>115.8</ele>
        <time>2022-12-08T09:13:57Z</time>
      </trkpt>
      <trkpt lat="47.99583" lon="-3.85116">
        <ele>116.1</ele>
        <time>2022-12-08T09:13:58Z</time>
      </trkpt>
      <trkpt lat="47.99584" lon="-3.85126">
        <ele>116.4</ele>
        <time>2022-12-08T09:13:59Z</time>
      </trkpt>
      <trkpt lat="47.99585" lon="-3.85135">
        <ele>116.7</ele>
        <time>2022-12-08T09:14:00Z</time>
      </trkpt>
      <trkpt lat="47.99585" lon="-3.85144">
        <ele>117</ele>
        <time>2022-12-08T09:14:01Z</time>
      </trkpt>
      <trkpt lat="47.99586" lon="-3.85153">
        <ele>117.3</ele>
        <time>2022-12-08T09:14:02Z</time>
      </trkpt>
      <trkpt lat="47.99587" lon="-3.85161">
        <ele>117.5</ele>
        <time>2022-12-08T09:14:03Z</time>
      </trkpt>
      <trkpt lat="47.99588" lon="-3.8517">
        <ele>117.8</ele>
        <time>2022-12-08T09:14:04Z</time>
      </trkpt>
      <trkpt lat="47.99588" lon="-3.85178">
        <ele>118.1</ele>
        <time>2022-12-08T09:14:05Z</time>
      </trkpt>
      <trkpt lat="47.99589" lon="-3.85187">
        <ele>118.3</ele>
        <time>2022-12-08T09:14:06Z</time>
      </trkpt>
      <trkpt lat="47.9959" lon="-3.85196">
        <ele>118.6</ele>
        <time>2022-12-08T09:14:07Z</time>
      </trkpt>
      <trkpt lat="47.9959" lon="-3.85204">
        <ele>118.8</ele>
        <time>2022-12-08T09:14:08Z</time>
      </trkpt>
      <trkpt lat="47.99591" lon="-3.85212">
        <ele>119.1</ele>
        <time>2022-12-08T09:14:09Z</time>
      </trkpt>
      <trkpt lat="47.99592" lon="-3.85221">
        <ele>119.4</ele>
        <time>2022-12-08T09:14:10Z</time>
      </trkpt>
      <trkpt lat="47.99593" lon="-3.85228">
        <ele>119.6</ele>
        <time>2022-12-08T09:14:11Z</time>
      </trkpt>
      <trkpt lat="47.99593" lon="-3.85236">
        <ele>119.8</ele>
        <time>2022-12-08T09:14:12Z</time>
      </trkpt>
      <trkpt lat="47.99594" lon="-3.85243">
        <ele>120</ele>
        <time>2022-12-08T09:14:13Z</time>
      </trkpt>
      <trkpt lat="47.99595" lon="-3.85251">
        <ele>120.3</ele>
        <time>2022-12-08T09:14:14Z</time>
      </trkpt>
      <trkpt lat="47.99596" lon="-3.85258">
        <ele>120.5</ele>
        <time>2022-12-08T09:14:15Z</time>
      </trkpt>
      <trkpt lat="47.99596" lon="-3.85265">
        <ele>120.7</ele>
        <time>2022-12-08T09:14:16Z</time>
      </trkpt>
      <trkpt lat="47.99597" lon="-3.85272">
        <ele>120.9</ele>
        <time>2022-12-08T09:14:17Z</time>
      </trkpt>
      <trkpt lat="47.99598" lon="-3.8528">
        <ele>121</ele>
        <time>2022-12-08T09:14:18Z</time>
      </trkpt>
      <trkpt lat="47.99598" lon="-3.85287">
        <ele>121.2</ele>
        <time>2022-12-08T09:14:19Z</time>
      </trkpt>
      <trkpt lat="47.99598" lon="-3.85294">
        <ele>121.4</ele>
        <time>2022-12-08T09:14:20Z</time>
      </trkpt>
      <trkpt lat="47.99599" lon="-3.85302">
        <ele>121.5</ele>
        <time>2022-12-08T09:14:21Z</time>
      </trkpt>
      <trkpt lat="47.996" lon="-3.85309">
        <ele>121.6</ele>
        <time>2022-12-08T09:14:22Z</time>
      </trkpt>
      <trkpt lat="47.99601" lon="-3.85316">
        <ele>121.7</ele>
        <time>2022-12-08T09:14:23Z</time>
      </trkpt>
      <trkpt lat="47.99602" lon="-3.85323">
        <ele>121.8</ele>
        <time>2022-12-08T09:14:24Z</time>
      </trkpt>
      <trkpt lat="47.99603" lon="-3.8533">
        <ele>121.9</ele>
        <time>2022-12-08T09:14:25Z</time>
      </trkpt>
      <trkpt lat="47.99604" lon="-3.85338">
        <ele>121.9</ele>
        <time>2022-12-08T09:14:26Z</time>
      </trkpt>
      <trkpt lat="47.99604" lon="-3.85345">
        <ele>122</ele>
        <time>2022-12-08T09:14:27Z</time>
      </trkpt>
      <trkpt lat="47.99605" lon="-3.85353">
        <ele>122</ele>
        <time>2022-12-08T09:14:28Z</time>
      </trkpt>
      <trkpt lat="47.99606" lon="-3.8536">
        <ele>122</ele>
        <time>2022-12-08T09:14:29Z</time>
      </trkpt>
      <trkpt lat="47.99606" lon="-3.85368">
        <ele>122</ele>
        <time>2022-12-08T09:14:30Z</time>
      </trkpt>
      <trkpt lat="47.99607" lon="-3.85377">
        <ele>122</ele>
        <time>2022-12-08T09:14:31Z</time>
      </trkpt>
      <trkpt lat="47.99608" lon="-3.85384">
        <ele>121.9</ele>
        <time>2022-12-08T09:14:32Z</time>
      </trkpt>
      <trkpt lat="47.99608" lon="-3.85392">
        <ele>121.8</ele>
        <time>2022-12-08T09:14:33Z</time>
      </trkpt>
      <trkpt lat="47.99608" lon="-3.854">
        <ele>121.7</ele>
        <time>2022-12-08T09:14:34Z</time>
      </trkpt>
      <trkpt lat="47.99609" lon="-3.85409">
        <ele>121.6</ele>
        <time>2022-12-08T09:14:35Z</time>
      </trkpt>
      <trkpt lat="47.9961" lon="-3.85417">
        <ele>121.4</ele>
        <time>2022-12-08T09:14:36Z</time>
      </trkpt>
      <trkpt lat="47.9961" lon="-3.85426">
        <ele>121.3</ele>
        <time>2022-12-08T09:14:37Z</time>
      </trkpt>
      <trkpt lat="47.99611" lon="-3.85434">
        <ele>121.1</ele>
        <time>2022-12-08T09:14:38Z</time>
      </trkpt>
      <trkpt lat="47.99612" lon="-3.85443">
        <ele>121</ele>
        <time>2022-12-08T09:14:39Z</time>
      </trkpt>
      <trkpt lat="47.99612" lon="-3.85452">
        <ele>120.8</ele>
        <time>2022-12-08T09:14:40Z</time>
      </trkpt>
      <trkpt lat="47.99613" lon="-3.85462">
        <ele>120.6</ele>
        <time>2022-12-08T09:14:41Z</time>
      </trkpt>
      <trkpt lat="47.99614" lon="-3.85471">
        <ele>120.5</ele>
        <time>2022-12-08T09:14:42Z</time>
      </trkpt>
      <trkpt lat="47.99615" lon="-3.85481">
        <ele>120.3</ele>
        <time>2022-12-08T09:14:43Z</time>
      </trkpt>
      <trkpt lat="47.99615" lon="-3.85491">
        <ele>120.1</ele>
        <time>2022-12-08T09:14:44Z</time>
      </trkpt>
      <trkpt lat="47.99616" lon="-3.85501">
        <ele>119.8</ele>
        <time>2022-12-08T09:14:45Z</time>
      </trkpt>
      <trkpt lat="47.99617" lon="-3.85512">
        <ele>119.5</ele>
        <time>2022-12-08T09:14:46Z</time>
      </trkpt>
      <trkpt lat="47.99618" lon="-3.85522">
        <ele>119.3</ele>
        <time>2022-12-08T09:14:47Z</time>
      </trkpt>
      <trkpt lat="47.99619" lon="-3.85532">
        <ele>119.1</ele>
        <time>2022-12-08T09:14:48Z</time>
      </trkpt>
      <trkpt lat="47.9962" lon="-3.85543">
        <ele>118.8</ele>
        <time>2022-12-08T09:14:49Z</time>
      </trkpt>
      <trkpt lat="47.99622" lon="-3.85554">
        <ele>118.6</ele>
        <time>2022-12-08T09:14:50Z</time>
      </trkpt>
      <trkpt lat="47.99622" lon="-3.85564">
        <ele>118.5</ele>
        <time>2022-12-08T09:14:51Z</time>
      </trkpt>
      <trkpt lat="47.99623" lon="-3.85575">
        <ele>118.3</ele>
        <time>2022-12-08T09:14:52Z</time>
      </trkpt>
      <trkpt lat="47.99624" lon="-3.85585">
        <ele>118.3</ele>
        <time>2022-12-08T09:14:53Z</time>
      </trkpt>
      <trkpt lat="47.99625" lon="-3.85596">
        <ele>118.2</ele>
        <time>2022-12-08T09:14:54Z</time>
      </trkpt>
      <trkpt lat="47.99626" lon="-3.85606">
        <ele>118.2</ele>
        <time>2022-12-08T09:14:55Z</time>
      </trkpt>
      <trkpt lat="47.99627" lon="-3.85616">
        <ele>118.2</ele>
        <time>2022-12-08T09:14:56Z</time>
      </trkpt>
      <trkpt lat="47.99628" lon="-3.85625">
        <ele>118.3</ele>
        <time>2022-12-08T09:14:57Z</time>
      </trkpt>
      <trkpt lat="47.99629" lon="-3.85635">
        <ele>118.5</ele>
        <time>2022-12-08T09:14:58Z</time>
      </trkpt>
      <trkpt lat="47.99629" lon="-3.85644">
        <ele>118.6</ele>
        <time>2022-12-08T09:14:59Z</time>
      </trkpt>
      <trkpt lat="47.9963" lon="-3.85654">
        <ele>118.8</ele>
        <time>2022-12-08T09:15:00Z</time>
      </trkpt>
      <trkpt lat="47.99631" lon="-3.85662">
        <ele>119</ele>
        <time>2022-12-08T09:15:01Z</time>
      </trkpt>
      <trkpt lat="47.99632" lon="-3.85671">
        <ele>119.2</ele>
        <time>2022-12-08T09:15:02Z</time>
      </trkpt>
      <trkpt lat="47.99633" lon="-3.8568">
        <ele>119.4</ele>
        <time>2022-12-08T09:15:03Z</time>
      </trkpt>
      <trkpt lat="47.99634" lon="-3.85688">
        <ele>119.6</ele>
        <time>2022-12-08T09:15:04Z</time>
      </trkpt>
      <trkpt lat="47.99634" lon="-3.85696">
        <ele>119.8</ele>
        <time>2022-12-08T09:15:05Z</time>
      </trkpt>
      <trkpt lat="47.99635" lon="-3.85704">
        <ele>120.1</ele>
        <time>2022-12-08T09:15:06Z</time>
      </trkpt>
      <trkpt lat="47.99635" lon="-3.85712">
        <ele>120.3</ele>
        <time>2022-12-08T09:15:07Z</time>
      </trkpt>
      <trkpt lat="47.99636" lon="-3.85719">
        <ele>120.5</ele>
        <time>2022-12-08T09:15:08Z</time>
      </trkpt>
      <trkpt lat="47.99637" lon="-3.85726">
        <ele>120.7</ele>
        <time>2022-12-08T09:15:09Z</time>
      </trkpt>
      <trkpt lat="47.99637" lon="-3.85734">
        <ele>121</ele>
        <time>2022-12-08T09:15:10Z</time>
      </trkpt>
      <trkpt lat="47.99638" lon="-3.85741">
        <ele>121.2</ele>
        <time>2022-12-08T09:15:11Z</time>
      </trkpt>
      <trkpt lat="47.99639" lon="-3.85748">
        <ele>121.4</ele>
        <time>2022-12-08T09:15:12Z</time>
      </trkpt>
      <trkpt lat="47.99639" lon="-3.85755">
        <ele>121.7</ele>
        <time>2022-12-08T09:15:13Z</time>
      </trkpt>
      <trkpt lat="47.9964" lon="-3.85762">
        <ele>121.9</ele>
        <time>2022-12-08T09:15:14Z</time>
      </trkpt>
      <trkpt lat="47.99641" lon="-3.85769">
        <ele>122.2</ele>
        <time>2022-12-08T09:15:15Z</time>
      </trkpt>
      <trkpt lat="47.99641" lon="-3.85775">
        <ele>122.4</ele>
        <time>2022-12-08T09:15:16Z</time>
      </trkpt>
      <trkpt lat="47.99642" lon="-3.85782">
        <ele>122.6</ele>
        <time>2022-12-08T09:15:17Z</time>
      </trkpt>
      <trkpt lat="47.99642" lon="-3.85789">
        <ele>122.9</ele>
        <time>2022-12-08T09:15:18Z</time>
      </trkpt>
      <trkpt lat="47.99643" lon="-3.85796">
        <ele>123.1</ele>
        <time>2022-12-08T09:15:19Z</time>
      </trkpt>
      <trkpt lat="47.99644" lon="-3.85803">
        <ele>123.3</ele>
        <time>2022-12-08T09:15:20Z</time>
      </trkpt>
      <trkpt lat="47.99644" lon="-3.85809">
        <ele>123.6</ele>
        <time>2022-12-08T09:15:21Z</time>
      </trkpt>
      <trkpt lat="47.99645" lon="-3.85816">
        <ele>123.8</ele>
        <time>2022-12-08T09:15:22Z</time>
      </trkpt>
      <trkpt lat="47.99645" lon="-3.85823">
        <ele>124</ele>
        <time>2022-12-08T09:15:23Z</time>
      </trkpt>
      <trkpt lat="47.99646" lon="-3.85829">
        <ele>124.2</ele>
        <time>2022-12-08T09:15:24Z</time>
      </trkpt>
      <trkpt lat="47.99646" lon="-3.85836">
        <ele>124.5</ele>
        <time>2022-12-08T09:15:25Z</time>
      </trkpt>
      <trkpt lat="47.99646" lon="-3.8584">
        <ele>124.6</ele>
        <time>2022-12-08T09:15:26Z</time>
      </trkpt>
      <trkpt lat="47.99647" lon="-3.85849">
        <ele>124.9</ele>
        <time>2022-12-08T09:15:27Z</time>
      </trkpt>
      <trkpt lat="47.99647" lon="-3.85855">
        <ele>125.1</ele>
        <time>2022-12-08T09:15:28Z</time>
      </trkpt>
      <trkpt lat="47.99648" lon="-3.85863">
        <ele>125.3</ele>
        <time>2022-12-08T09:15:29Z</time>
      </trkpt>
      <trkpt lat="47.99649" lon="-3.85869">
        <ele>125.4</ele>
        <time>2022-12-08T09:15:30Z</time>
      </trkpt>
      <trkpt lat="47.99649" lon="-3.85874">
        <ele>125.5</ele>
        <time>2022-12-08T09:15:31Z</time>
      </trkpt>
      <trkpt lat="47.9965" lon="-3.8588">
        <ele>125.6</ele>
        <time>2022-12-08T09:15:32Z</time>
      </trkpt>
      <trkpt lat="47.99651" lon="-3.85885">
        <ele>125.7</ele>
        <time>2022-12-08T09:15:33Z</time>
      </trkpt>
      <trkpt lat="47.99652" lon="-3.85888">
        <ele>125.8</ele>
        <time>2022-12-08T09:15:34Z</time>
      </trkpt>
      <trkpt lat="47.99653" lon="-3.85902">
        <ele>125.9</ele>
        <time>2022-12-08T09:15:36Z</time>
      </trkpt>
      <trkpt lat="47.99654" lon="-3.85914">
        <ele>125.9</ele>
        <time>2022-12-08T09:15:37Z</time>
      </trkpt>
      <trkpt lat="47.99654" lon="-3.85921">
        <ele>125.9</ele>
        <time>2022-12-08T09:15:38Z</time>
      </trkpt>
      <trkpt lat="47.99655" lon="-3.85928">
        <ele>125.8</ele>
        <time>2022-12-08T09:15:39Z</time>
      </trkpt>
      <trkpt lat="47.99655" lon="-3.85935">
        <ele>125.8</ele>
        <time>2022-12-08T09:15:40Z</time>
      </trkpt>
      <trkpt lat="47.99656" lon="-3.85942">
        <ele>125.7</ele>
        <time>2022-12-08T09:15:41Z</time>
      </trkpt>
      <trkpt lat="47.99656" lon="-3.85949">
        <ele>125.6</ele>
        <time>2022-12-08T09:15:42Z</time>
      </trkpt>
      <trkpt lat="47.99656" lon="-3.85956">
        <ele>125.5</ele>
        <time>2022-12-08T09:15:43Z</time>
      </trkpt>
      <trkpt lat="47.99656" lon="-3.85964">
        <ele>125.4</ele>
        <time>2022-12-08T09:15:44Z</time>
      </trkpt>
      <trkpt lat="47.99656" lon="-3.85972">
        <ele>125.3</ele>
        <time>2022-12-08T09:15:45Z</time>
      </trkpt>
      <trkpt lat="47.99656" lon="-3.8598">
        <ele>125.1</ele>
        <time>2022-12-08T09:15:46Z</time>
      </trkpt>
      <trkpt lat="47.99656" lon="-3.85988">
        <ele>125</ele>
        <time>2022-12-08T09:15:47Z</time>
      </trkpt>
      <trkpt lat="47.99656" lon="-3.85997">
        <ele>124.8</ele>
        <time>2022-12-08T09:15:48Z</time>
      </trkpt>
      <trkpt lat="47.99655" lon="-3.86005">
        <ele>124.6</ele>
        <time>2022-12-08T09:15:49Z</time>
      </trkpt>
      <trkpt lat="47.99655" lon="-3.86013">
        <ele>124.3</ele>
        <time>2022-12-08T09:15:50Z</time>
      </trkpt>
      <trkpt lat="47.99654" lon="-3.86023">
        <ele>124</ele>
        <time>2022-12-08T09:15:51Z</time>
      </trkpt>
      <trkpt lat="47.99654" lon="-3.86032">
        <ele>123.7</ele>
        <time>2022-12-08T09:15:52Z</time>
      </trkpt>
      <trkpt lat="47.99653" lon="-3.86042">
        <ele>123.4</ele>
        <time>2022-12-08T09:15:53Z</time>
      </trkpt>
      <trkpt lat="47.99653" lon="-3.86052">
        <ele>123</ele>
        <time>2022-12-08T09:15:54Z</time>
      </trkpt>
      <trkpt lat="47.99652" lon="-3.86064">
        <ele>122.7</ele>
        <time>2022-12-08T09:15:55Z</time>
      </trkpt>
      <trkpt lat="47.99652" lon="-3.86075">
        <ele>122.3</ele>
        <time>2022-12-08T09:15:56Z</time>
      </trkpt>
      <trkpt lat="47.99651" lon="-3.86087">
        <ele>121.9</ele>
        <time>2022-12-08T09:15:57Z</time>
      </trkpt>
      <trkpt lat="47.9965" lon="-3.86098">
        <ele>121.5</ele>
        <time>2022-12-08T09:15:58Z</time>
      </trkpt>
      <trkpt lat="47.9965" lon="-3.86111">
        <ele>121.1</ele>
        <time>2022-12-08T09:15:59Z</time>
      </trkpt>
      <trkpt lat="47.9965" lon="-3.86123">
        <ele>120.7</ele>
        <time>2022-12-08T09:16:00Z</time>
      </trkpt>
      <trkpt lat="47.99649" lon="-3.86136">
        <ele>120.3</ele>
        <time>2022-12-08T09:16:01Z</time>
      </trkpt>
      <trkpt lat="47.99648" lon="-3.86148">
        <ele>120</ele>
        <time>2022-12-08T09:16:02Z</time>
      </trkpt>
      <trkpt lat="47.99648" lon="-3.86162">
        <ele>119.6</ele>
        <time>2022-12-08T09:16:03Z</time>
      </trkpt>
      <trkpt lat="47.99647" lon="-3.86174">
        <ele>119.4</ele>
        <time>2022-12-08T09:16:04Z</time>
      </trkpt>
      <trkpt lat="47.99647" lon="-3.86187">
        <ele>119.1</ele>
        <time>2022-12-08T09:16:05Z</time>
      </trkpt>
      <trkpt lat="47.99645" lon="-3.862">
        <ele>118.9</ele>
        <time>2022-12-08T09:16:06Z</time>
      </trkpt>
      <trkpt lat="47.99645" lon="-3.86212">
        <ele>118.8</ele>
        <time>2022-12-08T09:16:07Z</time>
      </trkpt>
      <trkpt lat="47.99644" lon="-3.86223">
        <ele>118.7</ele>
        <time>2022-12-08T09:16:08Z</time>
      </trkpt>
      <trkpt lat="47.99644" lon="-3.86235">
        <ele>118.6</ele>
        <time>2022-12-08T09:16:09Z</time>
      </trkpt>
      <trkpt lat="47.99643" lon="-3.86247">
        <ele>118.6</ele>
        <time>2022-12-08T09:16:10Z</time>
      </trkpt>
      <trkpt lat="47.99643" lon="-3.86258">
        <ele>118.6</ele>
        <time>2022-12-08T09:16:11Z</time>
      </trkpt>
      <trkpt lat="47.99642" lon="-3.86269">
        <ele>118.6</ele>
        <time>2022-12-08T09:16:12Z</time>
      </trkpt>
      <trkpt lat="47.99642" lon="-3.86279">
        <ele>118.7</ele>
        <time>2022-12-08T09:16:13Z</time>
      </trkpt>
      <trkpt lat="47.99641" lon="-3.8629">
        <ele>118.8</ele>
        <time>2022-12-08T09:16:14Z</time>
      </trkpt>
      <trkpt lat="47.99641" lon="-3.863">
        <ele>118.9</ele>
        <time>2022-12-08T09:16:15Z</time>
      </trkpt>
      <trkpt lat="47.99641" lon="-3.8631">
        <ele>119</ele>
        <time>2022-12-08T09:16:16Z</time>
      </trkpt>
      <trkpt lat="47.9964" lon="-3.86319">
        <ele>119.2</ele>
        <time>2022-12-08T09:16:17Z</time>
      </trkpt>
      <trkpt lat="47.9964" lon="-3.86329">
        <ele>119.3</ele>
        <time>2022-12-08T09:16:18Z</time>
      </trkpt>
      <trkpt lat="47.9964" lon="-3.86338">
        <ele>119.5</ele>
        <time>2022-12-08T09:16:19Z</time>
      </trkpt>
      <trkpt lat="47.99639" lon="-3.86347">
        <ele>119.7</ele>
        <time>2022-12-08T09:16:20Z</time>
      </trkpt>
      <trkpt lat="47.99639" lon="-3.86356">
        <ele>119.8</ele>
        <time>2022-12-08T09:16:21Z</time>
      </trkpt>
      <trkpt lat="47.99638" lon="-3.86365">
        <ele>120</ele>
        <time>2022-12-08T09:16:22Z</time>
      </trkpt>
      <trkpt lat="47.99638" lon="-3.86374">
        <ele>120.2</ele>
        <time>2022-12-08T09:16:23Z</time>
      </trkpt>
      <trkpt lat="47.99637" lon="-3.86383">
        <ele>120.4</ele>
        <time>2022-12-08T09:16:24Z</time>
      </trkpt>
      <trkpt lat="47.99637" lon="-3.86391">
        <ele>120.6</ele>
        <time>2022-12-08T09:16:25Z</time>
      </trkpt>
      <trkpt lat="47.99637" lon="-3.864">
        <ele>120.8</ele>
        <time>2022-12-08T09:16:26Z</time>
      </trkpt>
      <trkpt lat="47.99636" lon="-3.86408">
        <ele>121</ele>
        <time>2022-12-08T09:16:27Z</time>
      </trkpt>
      <trkpt lat="47.99636" lon="-3.86416">
        <ele>121.2</ele>
        <time>2022-12-08T09:16:28Z</time>
      </trkpt>
      <trkpt lat="47.99636" lon="-3.86423">
        <ele>121.4</ele>
        <time>2022-12-08T09:16:29Z</time>
      </trkpt>
      <trkpt lat="47.99635" lon="-3.86431">
        <ele>121.6</ele>
        <time>2022-12-08T09:16:30Z</time>
      </trkpt>
      <trkpt lat="47.99634" lon="-3.86438">
        <ele>121.8</ele>
        <time>2022-12-08T09:16:31Z</time>
      </trkpt>
      <trkpt lat="47.99634" lon="-3.86446">
        <ele>122</ele>
        <time>2022-12-08T09:16:32Z</time>
      </trkpt>
      <trkpt lat="47.99634" lon="-3.86453">
        <ele>122.1</ele>
        <time>2022-12-08T09:16:33Z</time>
      </trkpt>
      <trkpt lat="47.99633" lon="-3.8646">
        <ele>122.3</ele>
        <time>2022-12-08T09:16:34Z</time>
      </trkpt>
      <trkpt lat="47.99633" lon="-3.86468">
        <ele>122.5</ele>
        <time>2022-12-08T09:16:35Z</time>
      </trkpt>
      <trkpt lat="47.99632" lon="-3.86475">
        <ele>122.6</ele>
        <time>2022-12-08T09:16:36Z</time>
      </trkpt>
      <trkpt lat="47.99632" lon="-3.86482">
        <ele>122.6</ele>
        <time>2022-12-08T09:16:37Z</time>
      </trkpt>
      <trkpt lat="47.99631" lon="-3.8649">
        <ele>122.6</ele>
        <time>2022-12-08T09:16:38Z</time>
      </trkpt>
      <trkpt lat="47.99631" lon="-3.86497">
        <ele>122.6</ele>
        <time>2022-12-08T09:16:39Z</time>
      </trkpt>
      <trkpt lat="47.9963" lon="-3.86504">
        <ele>122.6</ele>
        <time>2022-12-08T09:16:40Z</time>
      </trkpt>
      <trkpt lat="47.99629" lon="-3.86511">
        <ele>122.6</ele>
        <time>2022-12-08T09:16:41Z</time>
      </trkpt>
      <trkpt lat="47.99629" lon="-3.86519">
        <ele>122.5</ele>
        <time>2022-12-08T09:16:42Z</time>
      </trkpt>
      <trkpt lat="47.99628" lon="-3.86526">
        <ele>122.5</ele>
        <time>2022-12-08T09:16:43Z</time>
      </trkpt>
      <trkpt lat="47.99627" lon="-3.86534">
        <ele>122.5</ele>
        <time>2022-12-08T09:16:44Z</time>
      </trkpt>
      <trkpt lat="47.99626" lon="-3.86541">
        <ele>122.5</ele>
        <time>2022-12-08T09:16:45Z</time>
      </trkpt>
      <trkpt lat="47.99625" lon="-3.86549">
        <ele>122.4</ele>
        <time>2022-12-08T09:16:46Z</time>
      </trkpt>
      <trkpt lat="47.99624" lon="-3.86557">
        <ele>122.3</ele>
        <time>2022-12-08T09:16:47Z</time>
      </trkpt>
      <trkpt lat="47.99623" lon="-3.86565">
        <ele>122.3</ele>
        <time>2022-12-08T09:16:48Z</time>
      </trkpt>
      <trkpt lat="47.99622" lon="-3.86574">
        <ele>122.2</ele>
        <time>2022-12-08T09:16:49Z</time>
      </trkpt>
      <trkpt lat="47.99622" lon="-3.86582">
        <ele>122.1</ele>
        <time>2022-12-08T09:16:50Z</time>
      </trkpt>
      <trkpt lat="47.99621" lon="-3.8659">
        <ele>121.9</ele>
        <time>2022-12-08T09:16:51Z</time>
      </trkpt>
      <trkpt lat="47.99619" lon="-3.86598">
        <ele>121.8</ele>
        <time>2022-12-08T09:16:52Z</time>
      </trkpt>
      <trkpt lat="47.99618" lon="-3.86607">
        <ele>121.6</ele>
        <time>2022-12-08T09:16:53Z</time>
      </trkpt>
      <trkpt lat="47.99617" lon="-3.86616">
        <ele>121.5</ele>
        <time>2022-12-08T09:16:54Z</time>
      </trkpt>
      <trkpt lat="47.99616" lon="-3.86625">
        <ele>121.3</ele>
        <time>2022-12-08T09:16:55Z</time>
      </trkpt>
      <trkpt lat="47.99615" lon="-3.86634">
        <ele>121.1</ele>
        <time>2022-12-08T09:16:56Z</time>
      </trkpt>
      <trkpt lat="47.99614" lon="-3.86644">
        <ele>120.9</ele>
        <time>2022-12-08T09:16:57Z</time>
      </trkpt>
      <trkpt lat="47.99613" lon="-3.86654">
        <ele>120.7</ele>
        <time>2022-12-08T09:16:58Z</time>
      </trkpt>
      <trkpt lat="47.99612" lon="-3.86664">
        <ele>120.5</ele>
        <time>2022-12-08T09:16:59Z</time>
      </trkpt>
      <trkpt lat="47.99611" lon="-3.86674">
        <ele>120.3</ele>
        <time>2022-12-08T09:17:00Z</time>
      </trkpt>
      <trkpt lat="47.9961" lon="-3.86684">
        <ele>120.1</ele>
        <time>2022-12-08T09:17:01Z</time>
      </trkpt>
      <trkpt lat="47.99609" lon="-3.86694">
        <ele>119.9</ele>
        <time>2022-12-08T09:17:02Z</time>
      </trkpt>
      <trkpt lat="47.99608" lon="-3.86704">
        <ele>119.7</ele>
        <time>2022-12-08T09:17:03Z</time>
      </trkpt>
      <trkpt lat="47.99606" lon="-3.86715">
        <ele>119.5</ele>
        <time>2022-12-08T09:17:04Z</time>
      </trkpt>
      <trkpt lat="47.99605" lon="-3.86726">
        <ele>119.2</ele>
        <time>2022-12-08T09:17:05Z</time>
      </trkpt>
      <trkpt lat="47.99604" lon="-3.86738">
        <ele>118.9</ele>
        <time>2022-12-08T09:17:06Z</time>
      </trkpt>
      <trkpt lat="47.99603" lon="-3.86749">
        <ele>118.6</ele>
        <time>2022-12-08T09:17:07Z</time>
      </trkpt>
      <trkpt lat="47.99602" lon="-3.86761">
        <ele>118.3</ele>
        <time>2022-12-08T09:17:08Z</time>
      </trkpt>
      <trkpt lat="47.996" lon="-3.86773">
        <ele>117.9</ele>
        <time>2022-12-08T09:17:09Z</time>
      </trkpt>
      <trkpt lat="47.99599" lon="-3.86785">
        <ele>117.6</ele>
        <time>2022-12-08T09:17:10Z</time>
      </trkpt>
      <trkpt lat="47.99598" lon="-3.86797">
        <ele>117.3</ele>
        <time>2022-12-08T09:17:11Z</time>
      </trkpt>
      <trkpt lat="47.99597" lon="-3.86809">
        <ele>117</ele>
        <time>2022-12-08T09:17:12Z</time>
      </trkpt>
      <trkpt lat="47.99596" lon="-3.86821">
        <ele>116.8</ele>
        <time>2022-12-08T09:17:13Z</time>
      </trkpt>
      <trkpt lat="47.99595" lon="-3.86833">
        <ele>116.7</ele>
        <time>2022-12-08T09:17:14Z</time>
      </trkpt>
      <trkpt lat="47.99594" lon="-3.86844">
        <ele>116.5</ele>
        <time>2022-12-08T09:17:15Z</time>
      </trkpt>
      <trkpt lat="47.99594" lon="-3.86856">
        <ele>116.4</ele>
        <time>2022-12-08T09:17:16Z</time>
      </trkpt>
      <trkpt lat="47.99593" lon="-3.86866">
        <ele>116.3</ele>
        <time>2022-12-08T09:17:17Z</time>
      </trkpt>
      <trkpt lat="47.99593" lon="-3.86876">
        <ele>116.2</ele>
        <time>2022-12-08T09:17:18Z</time>
      </trkpt>
      <trkpt lat="47.99592" lon="-3.86887">
        <ele>116.2</ele>
        <time>2022-12-08T09:17:19Z</time>
      </trkpt>
      <trkpt lat="47.99592" lon="-3.86898">
        <ele>116.1</ele>
        <time>2022-12-08T09:17:20Z</time>
      </trkpt>
      <trkpt lat="47.99592" lon="-3.86908">
        <ele>116.1</ele>
        <time>2022-12-08T09:17:21Z</time>
      </trkpt>
      <trkpt lat="47.99592" lon="-3.86918">
        <ele>116.2</ele>
        <time>2022-12-08T09:17:22Z</time>
      </trkpt>
      <trkpt lat="47.99591" lon="-3.86929">
        <ele>116.2</ele>
        <time>2022-12-08T09:17:23Z</time>
      </trkpt>
      <trkpt lat="47.99591" lon="-3.86938">
        <ele>116.3</ele>
        <time>2022-12-08T09:17:24Z</time>
      </trkpt>
      <trkpt lat="47.99591" lon="-3.86949">
        <ele>116.4</ele>
        <time>2022-12-08T09:17:25Z</time>
      </trkpt>
      <trkpt lat="47.9959" lon="-3.86958">
        <ele>116.5</ele>
        <time>2022-12-08T09:17:26Z</time>
      </trkpt>
      <trkpt lat="47.9959" lon="-3.86968">
        <ele>116.6</ele>
        <time>2022-12-08T09:17:27Z</time>
      </trkpt>
      <trkpt lat="47.99589" lon="-3.86978">
        <ele>116.7</ele>
        <time>2022-12-08T09:17:28Z</time>
      </trkpt>
      <trkpt lat="47.99589" lon="-3.86988">
        <ele>116.8</ele>
        <time>2022-12-08T09:17:29Z</time>
      </trkpt>
      <trkpt lat="47.99588" lon="-3.86998">
        <ele>116.8</ele>
        <time>2022-12-08T09:17:30Z</time>
      </trkpt>
      <trkpt lat="47.99588" lon="-3.87007">
        <ele>116.9</ele>
        <time>2022-12-08T09:17:31Z</time>
      </trkpt>
      <trkpt lat="47.99587" lon="-3.87016">
        <ele>117</ele>
        <time>2022-12-08T09:17:32Z</time>
      </trkpt>
      <trkpt lat="47.99587" lon="-3.87026">
        <ele>117.2</ele>
        <time>2022-12-08T09:17:33Z</time>
      </trkpt>
      <trkpt lat="47.99586" lon="-3.87035">
        <ele>117.3</ele>
        <time>2022-12-08T09:17:34Z</time>
      </trkpt>
      <trkpt lat="47.99586" lon="-3.87044">
        <ele>117.5</ele>
        <time>2022-12-08T09:17:35Z</time>
      </trkpt>
      <trkpt lat="47.99585" lon="-3.87053">
        <ele>117.6</ele>
        <time>2022-12-08T09:17:36Z</time>
      </trkpt>
      <trkpt lat="47.99585" lon="-3.87063">
        <ele>117.7</ele>
        <time>2022-12-08T09:17:37Z</time>
      </trkpt>
      <trkpt lat="47.99584" lon="-3.87072">
        <ele>117.8</ele>
        <time>2022-12-08T09:17:38Z</time>
      </trkpt>
      <trkpt lat="47.99584" lon="-3.87081">
        <ele>117.9</ele>
        <time>2022-12-08T09:17:39Z</time>
      </trkpt>
      <trkpt lat="47.99583" lon="-3.8709">
        <ele>118</ele>
        <time>2022-12-08T09:17:40Z</time>
      </trkpt>
      <trkpt lat="47.99583" lon="-3.87098">
        <ele>118.1</ele>
        <time>2022-12-08T09:17:41Z</time>
      </trkpt>
      <trkpt lat="47.99582" lon="-3.87107">
        <ele>118.2</ele>
        <time>2022-12-08T09:17:42Z</time>
      </trkpt>
      <trkpt lat="47.99582" lon="-3.87116">
        <ele>118.3</ele>
        <time>2022-12-08T09:17:43Z</time>
      </trkpt>
      <trkpt lat="47.99581" lon="-3.87125">
        <ele>118.4</ele>
        <time>2022-12-08T09:17:44Z</time>
      </trkpt>
      <trkpt lat="47.99581" lon="-3.87133">
        <ele>118.4</ele>
        <time>2022-12-08T09:17:45Z</time>
      </trkpt>
      <trkpt lat="47.9958" lon="-3.87142">
        <ele>118.5</ele>
        <time>2022-12-08T09:17:46Z</time>
      </trkpt>
      <trkpt lat="47.9958" lon="-3.87151">
        <ele>118.6</ele>
        <time>2022-12-08T09:17:47Z</time>
      </trkpt>
      <trkpt lat="47.99579" lon="-3.87159">
        <ele>118.6</ele>
        <time>2022-12-08T09:17:48Z</time>
      </trkpt>
      <trkpt lat="47.99578" lon="-3.87168">
        <ele>118.6</ele>
        <time>2022-12-08T09:17:49Z</time>
      </trkpt>
      <trkpt lat="47.99578" lon="-3.87177">
        <ele>118.7</ele>
        <time>2022-12-08T09:17:50Z</time>
      </trkpt>
      <trkpt lat="47.99577" lon="-3.87185">
        <ele>118.7</ele>
        <time>2022-12-08T09:17:51Z</time>
      </trkpt>
      <trkpt lat="47.99576" lon="-3.87194">
        <ele>118.7</ele>
        <time>2022-12-08T09:17:52Z</time>
      </trkpt>
      <trkpt lat="47.99576" lon="-3.87203">
        <ele>118.6</ele>
        <time>2022-12-08T09:17:53Z</time>
      </trkpt>
      <trkpt lat="47.99575" lon="-3.87211">
        <ele>118.6</ele>
        <time>2022-12-08T09:17:54Z</time>
      </trkpt>
      <trkpt lat="47.99575" lon="-3.8722">
        <ele>118.6</ele>
        <time>2022-12-08T09:17:55Z</time>
      </trkpt>
      <trkpt lat="47.99574" lon="-3.87228">
        <ele>118.5</ele>
        <time>2022-12-08T09:17:56Z</time>
      </trkpt>
      <trkpt lat="47.99572" lon="-3.87237">
        <ele>118.5</ele>
        <time>2022-12-08T09:17:57Z</time>
      </trkpt>
      <trkpt lat="47.99571" lon="-3.87246">
        <ele>118.4</ele>
        <time>2022-12-08T09:17:58Z</time>
      </trkpt>
      <trkpt lat="47.99571" lon="-3.87254">
        <ele>118.3</ele>
        <time>2022-12-08T09:17:59Z</time>
      </trkpt>
      <trkpt lat="47.99569" lon="-3.87263">
        <ele>118.1</ele>
        <time>2022-12-08T09:18:00Z</time>
      </trkpt>
      <trkpt lat="47.99567" lon="-3.87272">
        <ele>118</ele>
        <time>2022-12-08T09:18:01Z</time>
      </trkpt>
      <trkpt lat="47.99565" lon="-3.87281">
        <ele>117.9</ele>
        <time>2022-12-08T09:18:02Z</time>
      </trkpt>
      <trkpt lat="47.99563" lon="-3.8729">
        <ele>117.8</ele>
        <time>2022-12-08T09:18:03Z</time>
      </trkpt>
      <trkpt lat="47.99561" lon="-3.87299">
        <ele>117.7</ele>
        <time>2022-12-08T09:18:04Z</time>
      </trkpt>
      <trkpt lat="47.99559" lon="-3.87308">
        <ele>117.5</ele>
        <time>2022-12-08T09:18:05Z</time>
      </trkpt>
      <trkpt lat="47.99557" lon="-3.87318">
        <ele>117.4</ele>
        <time>2022-12-08T09:18:06Z</time>
      </trkpt>
      <trkpt lat="47.99554" lon="-3.87328">
        <ele>117.2</ele>
        <time>2022-12-08T09:18:07Z</time>
      </trkpt>
      <trkpt lat="47.99552" lon="-3.87338">
        <ele>117</ele>
        <time>2022-12-08T09:18:08Z</time>
      </trkpt>
      <trkpt lat="47.99549" lon="-3.87348">
        <ele>116.8</ele>
        <time>2022-12-08T09:18:09Z</time>
      </trkpt>
      <trkpt lat="47.99547" lon="-3.87358">
        <ele>116.6</ele>
        <time>2022-12-08T09:18:10Z</time>
      </trkpt>
      <trkpt lat="47.99544" lon="-3.87369">
        <ele>116.3</ele>
        <time>2022-12-08T09:18:11Z</time>
      </trkpt>
      <trkpt lat="47.99541" lon="-3.8738">
        <ele>116.1</ele>
        <time>2022-12-08T09:18:12Z</time>
      </trkpt>
      <trkpt lat="47.99538" lon="-3.87391">
        <ele>115.8</ele>
        <time>2022-12-08T09:18:13Z</time>
      </trkpt>
      <trkpt lat="47.99536" lon="-3.87402">
        <ele>115.5</ele>
        <time>2022-12-08T09:18:14Z</time>
      </trkpt>
      <trkpt lat="47.99533" lon="-3.87413">
        <ele>115.3</ele>
        <time>2022-12-08T09:18:15Z</time>
      </trkpt>
      <trkpt lat="47.9953" lon="-3.87424">
        <ele>115</ele>
        <time>2022-12-08T09:18:16Z</time>
      </trkpt>
      <trkpt lat="47.99528" lon="-3.87435">
        <ele>114.8</ele>
        <time>2022-12-08T09:18:17Z</time>
      </trkpt>
      <trkpt lat="47.99525" lon="-3.87446">
        <ele>114.6</ele>
        <time>2022-12-08T09:18:18Z</time>
      </trkpt>
      <trkpt lat="47.99522" lon="-3.87457">
        <ele>114.5</ele>
        <time>2022-12-08T09:18:19Z</time>
      </trkpt>
      <trkpt lat="47.9952" lon="-3.87467">
        <ele>114.3</ele>
        <time>2022-12-08T09:18:20Z</time>
      </trkpt>
      <trkpt lat="47.99517" lon="-3.87477">
        <ele>114.2</ele>
        <time>2022-12-08T09:18:21Z</time>
      </trkpt>
      <trkpt lat="47.99515" lon="-3.87488">
        <ele>114.2</ele>
        <time>2022-12-08T09:18:22Z</time>
      </trkpt>
      <trkpt lat="47.99512" lon="-3.87498">
        <ele>114.1</ele>
        <time>2022-12-08T09:18:23Z</time>
      </trkpt>
      <trkpt lat="47.9951" lon="-3.87508">
        <ele>114.1</ele>
        <time>2022-12-08T09:18:24Z</time>
      </trkpt>
      <trkpt lat="47.99508" lon="-3.87518">
        <ele>114.2</ele>
        <time>2022-12-08T09:18:25Z</time>
      </trkpt>
      <trkpt lat="47.99506" lon="-3.87528">
        <ele>114.2</ele>
        <time>2022-12-08T09:18:26Z</time>
      </trkpt>
      <trkpt lat="47.99503" lon="-3.87537">
        <ele>114.3</ele>
        <time>2022-12-08T09:18:27Z</time>
      </trkpt>
      <trkpt lat="47.99501" lon="-3.87546">
        <ele>114.4</ele>
        <time>2022-12-08T09:18:28Z</time>
      </trkpt>
      <trkpt lat="47.99499" lon="-3.87555">
        <ele>114.5</ele>
        <time>2022-12-08T09:18:29Z</time>
      </trkpt>
      <trkpt lat="47.99497" lon="-3.87564">
        <ele>114.7</ele>
        <time>2022-12-08T09:18:30Z</time>
      </trkpt>
      <trkpt lat="47.99495" lon="-3.87573">
        <ele>114.8</ele>
        <time>2022-12-08T09:18:31Z</time>
      </trkpt>
      <trkpt lat="47.99493" lon="-3.87582">
        <ele>114.9</ele>
        <time>2022-12-08T09:18:32Z</time>
      </trkpt>
      <trkpt lat="47.99491" lon="-3.87591">
        <ele>115.1</ele>
        <time>2022-12-08T09:18:33Z</time>
      </trkpt>
      <trkpt lat="47.99489" lon="-3.87599">
        <ele>115.2</ele>
        <time>2022-12-08T09:18:34Z</time>
      </trkpt>
      <trkpt lat="47.99487" lon="-3.87607">
        <ele>115.4</ele>
        <time>2022-12-08T09:18:35Z</time>
      </trkpt>
      <trkpt lat="47.99485" lon="-3.87615">
        <ele>115.5</ele>
        <time>2022-12-08T09:18:36Z</time>
      </trkpt>
      <trkpt lat="47.99484" lon="-3.87623">
        <ele>115.6</ele>
        <time>2022-12-08T09:18:37Z</time>
      </trkpt>
      <trkpt lat="47.99482" lon="-3.87631">
        <ele>115.8</ele>
        <time>2022-12-08T09:18:38Z</time>
      </trkpt>
      <trkpt lat="47.9948" lon="-3.87638">
        <ele>116</ele>
        <time>2022-12-08T09:18:39Z</time>
      </trkpt>
      <trkpt lat="47.99478" lon="-3.87646">
        <ele>116.1</ele>
        <time>2022-12-08T09:18:40Z</time>
      </trkpt>
      <trkpt lat="47.99476" lon="-3.87654">
        <ele>116.3</ele>
        <time>2022-12-08T09:18:41Z</time>
      </trkpt>
      <trkpt lat="47.99474" lon="-3.87662">
        <ele>116.4</ele>
        <time>2022-12-08T09:18:42Z</time>
      </trkpt>
      <trkpt lat="47.99473" lon="-3.8767">
        <ele>116.6</ele>
        <time>2022-12-08T09:18:43Z</time>
      </trkpt>
      <trkpt lat="47.99471" lon="-3.87678">
        <ele>116.7</ele>
        <time>2022-12-08T09:18:44Z</time>
      </trkpt>
      <trkpt lat="47.99469" lon="-3.87686">
        <ele>116.7</ele>
        <time>2022-12-08T09:18:45Z</time>
      </trkpt>
      <trkpt lat="47.99467" lon="-3.87694">
        <ele>116.8</ele>
        <time>2022-12-08T09:18:46Z</time>
      </trkpt>
      <trkpt lat="47.99466" lon="-3.87702">
        <ele>116.9</ele>
        <time>2022-12-08T09:18:47Z</time>
      </trkpt>
      <trkpt lat="47.99464" lon="-3.87709">
        <ele>117</ele>
        <time>2022-12-08T09:18:48Z</time>
      </trkpt>
      <trkpt lat="47.99463" lon="-3.87717">
        <ele>117</ele>
        <time>2022-12-08T09:18:49Z</time>
      </trkpt>
      <trkpt lat="47.99461" lon="-3.87724">
        <ele>117.1</ele>
        <time>2022-12-08T09:18:50Z</time>
      </trkpt>
      <trkpt lat="47.99459" lon="-3.87731">
        <ele>117.2</ele>
        <time>2022-12-08T09:18:51Z</time>
      </trkpt>
      <trkpt lat="47.99457" lon="-3.87739">
        <ele>117.2</ele>
        <time>2022-12-08T09:18:52Z</time>
      </trkpt>
      <trkpt lat="47.99455" lon="-3.87747">
        <ele>117.3</ele>
        <time>2022-12-08T09:18:53Z</time>
      </trkpt>
      <trkpt lat="47.99454" lon="-3.87754">
        <ele>117.4</ele>
        <time>2022-12-08T09:18:54Z</time>
      </trkpt>
      <trkpt lat="47.99452" lon="-3.87761">
        <ele>117.4</ele>
        <time>2022-12-08T09:18:55Z</time>
      </trkpt>
      <trkpt lat="47.9945" lon="-3.87769">
        <ele>117.4</ele>
        <time>2022-12-08T09:18:56Z</time>
      </trkpt>
      <trkpt lat="47.99448" lon="-3.87776">
        <ele>117.4</ele>
        <time>2022-12-08T09:18:57Z</time>
      </trkpt>
      <trkpt lat="47.99446" lon="-3.87783">
        <ele>117.4</ele>
        <time>2022-12-08T09:18:58Z</time>
      </trkpt>
      <trkpt lat="47.99444" lon="-3.87791">
        <ele>117.4</ele>
        <time>2022-12-08T09:18:59Z</time>
      </trkpt>
      <trkpt lat="47.99442" lon="-3.87799">
        <ele>117.4</ele>
        <time>2022-12-08T09:19:00Z</time>
      </trkpt>
      <trkpt lat="47.9944" lon="-3.87807">
        <ele>117.4</ele>
        <time>2022-12-08T09:19:01Z</time>
      </trkpt>
      <trkpt lat="47.99438" lon="-3.87815">
        <ele>117.4</ele>
        <time>2022-12-08T09:19:02Z</time>
      </trkpt>
      <trkpt lat="47.99437" lon="-3.87823">
        <ele>117.3</ele>
        <time>2022-12-08T09:19:03Z</time>
      </trkpt>
      <trkpt lat="47.99436" lon="-3.87831">
        <ele>117.3</ele>
        <time>2022-12-08T09:19:04Z</time>
      </trkpt>
      <trkpt lat="47.99437" lon="-3.8784">
        <ele>117.2</ele>
        <time>2022-12-08T09:19:05Z</time>
      </trkpt>
      <trkpt lat="47.99438" lon="-3.87848">
        <ele>117.1</ele>
        <time>2022-12-08T09:19:06Z</time>
      </trkpt>
      <trkpt lat="47.99438" lon="-3.87857">
        <ele>117</ele>
        <time>2022-12-08T09:19:07Z</time>
      </trkpt>
      <trkpt lat="47.99438" lon="-3.87866">
        <ele>116.9</ele>
        <time>2022-12-08T09:19:08Z</time>
      </trkpt>
      <trkpt lat="47.99438" lon="-3.87876">
        <ele>116.8</ele>
        <time>2022-12-08T09:19:09Z</time>
      </trkpt>
      <trkpt lat="47.99437" lon="-3.87885">
        <ele>116.6</ele>
        <time>2022-12-08T09:19:10Z</time>
      </trkpt>
      <trkpt lat="47.99437" lon="-3.87895">
        <ele>116.5</ele>
        <time>2022-12-08T09:19:11Z</time>
      </trkpt>
      <trkpt lat="47.99436" lon="-3.87904">
        <ele>116.4</ele>
        <time>2022-12-08T09:19:12Z</time>
      </trkpt>
      <trkpt lat="47.99434" lon="-3.87914">
        <ele>116.4</ele>
        <time>2022-12-08T09:19:13Z</time>
      </trkpt>
      <trkpt lat="47.99433" lon="-3.87923">
        <ele>116.4</ele>
        <time>2022-12-08T09:19:14Z</time>
      </trkpt>
      <trkpt lat="47.99432" lon="-3.87933">
        <ele>116.3</ele>
        <time>2022-12-08T09:19:15Z</time>
      </trkpt>
      <trkpt lat="47.99431" lon="-3.87942">
        <ele>116.3</ele>
        <time>2022-12-08T09:19:16Z</time>
      </trkpt>
      <trkpt lat="47.99429" lon="-3.87952">
        <ele>116.4</ele>
        <time>2022-12-08T09:19:17Z</time>
      </trkpt>
      <trkpt lat="47.99428" lon="-3.87961">
        <ele>116.4</ele>
        <time>2022-12-08T09:19:18Z</time>
      </trkpt>
      <trkpt lat="47.99427" lon="-3.8797">
        <ele>116.4</ele>
        <time>2022-12-08T09:19:19Z</time>
      </trkpt>
      <trkpt lat="47.99426" lon="-3.87979">
        <ele>116.5</ele>
        <time>2022-12-08T09:19:20Z</time>
      </trkpt>
      <trkpt lat="47.99424" lon="-3.87988">
        <ele>116.5</ele>
        <time>2022-12-08T09:19:21Z</time>
      </trkpt>
      <trkpt lat="47.99423" lon="-3.87997">
        <ele>116.6</ele>
        <time>2022-12-08T09:19:22Z</time>
      </trkpt>
      <trkpt lat="47.99421" lon="-3.88006">
        <ele>116.7</ele>
        <time>2022-12-08T09:19:23Z</time>
      </trkpt>
      <trkpt lat="47.9942" lon="-3.88014">
        <ele>116.8</ele>
        <time>2022-12-08T09:19:24Z</time>
      </trkpt>
      <trkpt lat="47.99418" lon="-3.88022">
        <ele>117</ele>
        <time>2022-12-08T09:19:25Z</time>
      </trkpt>
      <trkpt lat="47.99416" lon="-3.8803">
        <ele>117.2</ele>
        <time>2022-12-08T09:19:26Z</time>
      </trkpt>
      <trkpt lat="47.99414" lon="-3.88037">
        <ele>117.4</ele>
        <time>2022-12-08T09:19:27Z</time>
      </trkpt>
      <trkpt lat="47.99413" lon="-3.88044">
        <ele>117.6</ele>
        <time>2022-12-08T09:19:28Z</time>
      </trkpt>
      <trkpt lat="47.99411" lon="-3.88051">
        <ele>117.8</ele>
        <time>2022-12-08T09:19:29Z</time>
      </trkpt>
      <trkpt lat="47.99409" lon="-3.88058">
        <ele>118</ele>
        <time>2022-12-08T09:19:30Z</time>
      </trkpt>
      <trkpt lat="47.99408" lon="-3.88065">
        <ele>118.2</ele>
        <time>2022-12-08T09:19:31Z</time>
      </trkpt>
      <trkpt lat="47.99406" lon="-3.88071">
        <ele>118.4</ele>
        <time>2022-12-08T09:19:32Z</time>
      </trkpt>
      <trkpt lat="47.99405" lon="-3.88078">
        <ele>118.6</ele>
        <time>2022-12-08T09:19:33Z</time>
      </trkpt>
      <trkpt lat="47.99403" lon="-3.88084">
        <ele>118.8</ele>
        <time>2022-12-08T09:19:34Z</time>
      </trkpt>
      <trkpt lat="47.99401" lon="-3.88091">
        <ele>119</ele>
        <time>2022-12-08T09:19:35Z</time>
      </trkpt>
      <trkpt lat="47.994" lon="-3.88096">
        <ele>119.1</ele>
        <time>2022-12-08T09:19:36Z</time>
      </trkpt>
      <trkpt lat="47.99399" lon="-3.88102">
        <ele>119.3</ele>
        <time>2022-12-08T09:19:37Z</time>
      </trkpt>
      <trkpt lat="47.99397" lon="-3.88109">
        <ele>119.5</ele>
        <time>2022-12-08T09:19:38Z</time>
      </trkpt>
      <trkpt lat="47.99396" lon="-3.88116">
        <ele>119.7</ele>
        <time>2022-12-08T09:19:39Z</time>
      </trkpt>
      <trkpt lat="47.99395" lon="-3.88123">
        <ele>119.8</ele>
        <time>2022-12-08T09:19:40Z</time>
      </trkpt>
      <trkpt lat="47.99395" lon="-3.88127">
        <ele>119.9</ele>
        <time>2022-12-08T09:19:41Z</time>
      </trkpt>
      <trkpt lat="47.99394" lon="-3.88134">
        <ele>120</ele>
        <time>2022-12-08T09:19:42Z</time>
      </trkpt>
      <trkpt lat="47.99393" lon="-3.88138">
        <ele>120.1</ele>
        <time>2022-12-08T09:19:43Z</time>
      </trkpt>
      <trkpt lat="47.99393" lon="-3.88148">
        <ele>120.2</ele>
        <time>2022-12-08T09:19:44Z</time>
      </trkpt>
      <trkpt lat="47.99392" lon="-3.88156">
        <ele>120.3</ele>
        <time>2022-12-08T09:19:45Z</time>
      </trkpt>
      <trkpt lat="47.99392" lon="-3.88163">
        <ele>120.3</ele>
        <time>2022-12-08T09:19:46Z</time>
      </trkpt>
      <trkpt lat="47.99392" lon="-3.88171">
        <ele>120.3</ele>
        <time>2022-12-08T09:19:47Z</time>
      </trkpt>
      <trkpt lat="47.99393" lon="-3.88178">
        <ele>120.4</ele>
        <time>2022-12-08T09:19:48Z</time>
      </trkpt>
      <trkpt lat="47.99393" lon="-3.88184">
        <ele>120.4</ele>
        <time>2022-12-08T09:19:49Z</time>
      </trkpt>
      <trkpt lat="47.99393" lon="-3.88191">
        <ele>120.4</ele>
        <time>2022-12-08T09:19:50Z</time>
      </trkpt>
      <trkpt lat="47.99393" lon="-3.88199">
        <ele>120.4</ele>
        <time>2022-12-08T09:19:51Z</time>
      </trkpt>
      <trkpt lat="47.99394" lon="-3.88207">
        <ele>120.4</ele>
        <time>2022-12-08T09:19:52Z</time>
      </trkpt>
      <trkpt lat="47.99394" lon="-3.88214">
        <ele>120.4</ele>
        <time>2022-12-08T09:19:53Z</time>
      </trkpt>
      <trkpt lat="47.99394" lon="-3.88222">
        <ele>120.3</ele>
        <time>2022-12-08T09:19:54Z</time>
      </trkpt>
      <trkpt lat="47.99395" lon="-3.8823">
        <ele>120.3</ele>
        <time>2022-12-08T09:19:55Z</time>
      </trkpt>
      <trkpt lat="47.99395" lon="-3.88238">
        <ele>120.3</ele>
        <time>2022-12-08T09:19:56Z</time>
      </trkpt>
      <trkpt lat="47.99396" lon="-3.88246">
        <ele>120.2</ele>
        <time>2022-12-08T09:19:57Z</time>
      </trkpt>
      <trkpt lat="47.99396" lon="-3.88254">
        <ele>120.2</ele>
        <time>2022-12-08T09:19:58Z</time>
      </trkpt>
      <trkpt lat="47.99397" lon="-3.88261">
        <ele>120.2</ele>
        <time>2022-12-08T09:19:59Z</time>
      </trkpt>
      <trkpt lat="47.99397" lon="-3.88269">
        <ele>120.1</ele>
        <time>2022-12-08T09:20:00Z</time>
      </trkpt>
      <trkpt lat="47.99398" lon="-3.88277">
        <ele>120.1</ele>
        <time>2022-12-08T09:20:01Z</time>
      </trkpt>
      <trkpt lat="47.99398" lon="-3.88285">
        <ele>120.1</ele>
        <time>2022-12-08T09:20:02Z</time>
      </trkpt>
      <trkpt lat="47.99399" lon="-3.88293">
        <ele>120</ele>
        <time>2022-12-08T09:20:03Z</time>
      </trkpt>
      <trkpt lat="47.994" lon="-3.883">
        <ele>120</ele>
        <time>2022-12-08T09:20:04Z</time>
      </trkpt>
      <trkpt lat="47.994" lon="-3.88308">
        <ele>119.9</ele>
        <time>2022-12-08T09:20:05Z</time>
      </trkpt>
      <trkpt lat="47.99401" lon="-3.88316">
        <ele>119.9</ele>
        <time>2022-12-08T09:20:06Z</time>
      </trkpt>
      <trkpt lat="47.99401" lon="-3.88324">
        <ele>119.8</ele>
        <time>2022-12-08T09:20:07Z</time>
      </trkpt>
      <trkpt lat="47.99402" lon="-3.88332">
        <ele>119.8</ele>
        <time>2022-12-08T09:20:08Z</time>
      </trkpt>
      <trkpt lat="47.99403" lon="-3.8834">
        <ele>119.7</ele>
        <time>2022-12-08T09:20:09Z</time>
      </trkpt>
      <trkpt lat="47.99403" lon="-3.88348">
        <ele>119.7</ele>
        <time>2022-12-08T09:20:10Z</time>
      </trkpt>
      <trkpt lat="47.99404" lon="-3.88356">
        <ele>119.6</ele>
        <time>2022-12-08T09:20:11Z</time>
      </trkpt>
      <trkpt lat="47.99405" lon="-3.88364">
        <ele>119.6</ele>
        <time>2022-12-08T09:20:12Z</time>
      </trkpt>
      <trkpt lat="47.99406" lon="-3.88372">
        <ele>119.5</ele>
        <time>2022-12-08T09:20:13Z</time>
      </trkpt>
      <trkpt lat="47.99407" lon="-3.8838">
        <ele>119.4</ele>
        <time>2022-12-08T09:20:14Z</time>
      </trkpt>
      <trkpt lat="47.99407" lon="-3.88389">
        <ele>119.2</ele>
        <time>2022-12-08T09:20:15Z</time>
      </trkpt>
      <trkpt lat="47.99408" lon="-3.88397">
        <ele>119.1</ele>
        <time>2022-12-08T09:20:16Z</time>
      </trkpt>
      <trkpt lat="47.99408" lon="-3.88406">
        <ele>118.9</ele>
        <time>2022-12-08T09:20:17Z</time>
      </trkpt>
      <trkpt lat="47.99409" lon="-3.88415">
        <ele>118.8</ele>
        <time>2022-12-08T09:20:18Z</time>
      </trkpt>
      <trkpt lat="47.9941" lon="-3.88425">
        <ele>118.8</ele>
        <time>2022-12-08T09:20:19Z</time>
      </trkpt>
      <trkpt lat="47.9941" lon="-3.88434">
        <ele>118.7</ele>
        <time>2022-12-08T09:20:20Z</time>
      </trkpt>
      <trkpt lat="47.99411" lon="-3.88443">
        <ele>118.6</ele>
        <time>2022-12-08T09:20:21Z</time>
      </trkpt>
      <trkpt lat="47.99411" lon="-3.88453">
        <ele>118.5</ele>
        <time>2022-12-08T09:20:22Z</time>
      </trkpt>
      <trkpt lat="47.99412" lon="-3.88462">
        <ele>118.5</ele>
        <time>2022-12-08T09:20:23Z</time>
      </trkpt>
      <trkpt lat="47.99416" lon="-3.8847">
        <ele>118.4</ele>
        <time>2022-12-08T09:20:24Z</time>
      </trkpt>
      <trkpt lat="47.99421" lon="-3.88475">
        <ele>118.6</ele>
        <time>2022-12-08T09:20:25Z</time>
      </trkpt>
      <trkpt lat="47.99426" lon="-3.88476">
        <ele>118.8</ele>
        <time>2022-12-08T09:20:26Z</time>
      </trkpt>
      <trkpt lat="47.99431" lon="-3.88476">
        <ele>119</ele>
        <time>2022-12-08T09:20:27Z</time>
      </trkpt>
      <trkpt lat="47.99436" lon="-3.88475">
        <ele>119.3</ele>
        <time>2022-12-08T09:20:28Z</time>
      </trkpt>
      <trkpt lat="47.99439" lon="-3.88473">
        <ele>119.6</ele>
        <time>2022-12-08T09:20:29Z</time>
      </trkpt>
      <trkpt lat="47.99443" lon="-3.88472">
        <ele>119.9</ele>
        <time>2022-12-08T09:20:30Z</time>
      </trkpt>
      <trkpt lat="47.99447" lon="-3.88471">
        <ele>120.2</ele>
        <time>2022-12-08T09:20:31Z</time>
      </trkpt>
      <trkpt lat="47.99451" lon="-3.8847">
        <ele>120.5</ele>
        <time>2022-12-08T09:20:32Z</time>
      </trkpt>
      <trkpt lat="47.99455" lon="-3.8847">
        <ele>120.6</ele>
        <time>2022-12-08T09:20:33Z</time>
      </trkpt>
      <trkpt lat="47.99459" lon="-3.88469">
        <ele>120.6</ele>
        <time>2022-12-08T09:20:34Z</time>
      </trkpt>
      <trkpt lat="47.99462" lon="-3.88468">
        <ele>120.6</ele>
        <time>2022-12-08T09:20:35Z</time>
      </trkpt>
      <trkpt lat="47.99469" lon="-3.88467">
        <ele>120.6</ele>
        <time>2022-12-08T09:20:36Z</time>
      </trkpt>
      <trkpt lat="47.99473" lon="-3.88467">
        <ele>120.5</ele>
        <time>2022-12-08T09:20:37Z</time>
      </trkpt>
      <trkpt lat="47.99477" lon="-3.88466">
        <ele>120.5</ele>
        <time>2022-12-08T09:20:38Z</time>
      </trkpt>
      <trkpt lat="47.99482" lon="-3.88465">
        <ele>120.3</ele>
        <time>2022-12-08T09:20:39Z</time>
      </trkpt>
      <trkpt lat="47.99487" lon="-3.88464">
        <ele>120.1</ele>
        <time>2022-12-08T09:20:40Z</time>
      </trkpt>
      <trkpt lat="47.99492" lon="-3.88463">
        <ele>119.9</ele>
        <time>2022-12-08T09:20:41Z</time>
      </trkpt>
      <trkpt lat="47.99498" lon="-3.88463">
        <ele>119.5</ele>
        <time>2022-12-08T09:20:42Z</time>
      </trkpt>
      <trkpt lat="47.99505" lon="-3.88463">
        <ele>119.1</ele>
        <time>2022-12-08T09:20:43Z</time>
      </trkpt>
      <trkpt lat="47.99512" lon="-3.88464">
        <ele>118.6</ele>
        <time>2022-12-08T09:20:44Z</time>
      </trkpt>
      <trkpt lat="47.99519" lon="-3.88466">
        <ele>118.1</ele>
        <time>2022-12-08T09:20:45Z</time>
      </trkpt>
      <trkpt lat="47.99526" lon="-3.88467">
        <ele>117.6</ele>
        <time>2022-12-08T09:20:46Z</time>
      </trkpt>
      <trkpt lat="47.99534" lon="-3.8847">
        <ele>117.1</ele>
        <time>2022-12-08T09:20:47Z</time>
      </trkpt>
      <trkpt lat="47.99541" lon="-3.88472">
        <ele>116.6</ele>
        <time>2022-12-08T09:20:48Z</time>
      </trkpt>
      <trkpt lat="47.99549" lon="-3.88475">
        <ele>116.1</ele>
        <time>2022-12-08T09:20:49Z</time>
      </trkpt>
      <trkpt lat="47.99558" lon="-3.88477">
        <ele>115.5</ele>
        <time>2022-12-08T09:20:50Z</time>
      </trkpt>
      <trkpt lat="47.99566" lon="-3.88479">
        <ele>115</ele>
        <time>2022-12-08T09:20:51Z</time>
      </trkpt>
      <trkpt lat="47.99575" lon="-3.88482">
        <ele>114.6</ele>
        <time>2022-12-08T09:20:52Z</time>
      </trkpt>
      <trkpt lat="47.99583" lon="-3.88484">
        <ele>114.2</ele>
        <time>2022-12-08T09:20:53Z</time>
      </trkpt>
      <trkpt lat="47.99591" lon="-3.88487">
        <ele>113.8</ele>
        <time>2022-12-08T09:20:54Z</time>
      </trkpt>
      <trkpt lat="47.996" lon="-3.88489">
        <ele>113.5</ele>
        <time>2022-12-08T09:20:55Z</time>
      </trkpt>
      <trkpt lat="47.99608" lon="-3.88492">
        <ele>113.2</ele>
        <time>2022-12-08T09:20:56Z</time>
      </trkpt>
      <trkpt lat="47.99616" lon="-3.88495">
        <ele>112.9</ele>
        <time>2022-12-08T09:20:57Z</time>
      </trkpt>
      <trkpt lat="47.99624" lon="-3.88498">
        <ele>112.6</ele>
        <time>2022-12-08T09:20:58Z</time>
      </trkpt>
      <trkpt lat="47.99632" lon="-3.88501">
        <ele>112.3</ele>
        <time>2022-12-08T09:20:59Z</time>
      </trkpt>
      <trkpt lat="47.9964" lon="-3.88504">
        <ele>112.1</ele>
        <time>2022-12-08T09:21:00Z</time>
      </trkpt>
      <trkpt lat="47.99648" lon="-3.88508">
        <ele>111.8</ele>
        <time>2022-12-08T09:21:01Z</time>
      </trkpt>
      <trkpt lat="47.99656" lon="-3.88511">
        <ele>111.5</ele>
        <time>2022-12-08T09:21:02Z</time>
      </trkpt>
      <trkpt lat="47.99664" lon="-3.88515">
        <ele>111.3</ele>
        <time>2022-12-08T09:21:03Z</time>
      </trkpt>
      <trkpt lat="47.99672" lon="-3.88518">
        <ele>111</ele>
        <time>2022-12-08T09:21:04Z</time>
      </trkpt>
      <trkpt lat="47.99679" lon="-3.88521">
        <ele>110.7</ele>
        <time>2022-12-08T09:21:05Z</time>
      </trkpt>
      <trkpt lat="47.99687" lon="-3.88524">
        <ele>110.3</ele>
        <time>2022-12-08T09:21:06Z</time>
      </trkpt>
      <trkpt lat="47.99695" lon="-3.88526">
        <ele>109.7</ele>
        <time>2022-12-08T09:21:07Z</time>
      </trkpt>
      <trkpt lat="47.99702" lon="-3.88528">
        <ele>109.2</ele>
        <time>2022-12-08T09:21:08Z</time>
      </trkpt>
      <trkpt lat="47.99709" lon="-3.8853">
        <ele>108.6</ele>
        <time>2022-12-08T09:21:09Z</time>
      </trkpt>
      <trkpt lat="47.99715" lon="-3.88532">
        <ele>108</ele>
        <time>2022-12-08T09:21:10Z</time>
      </trkpt>
      <trkpt lat="47.9972" lon="-3.88534">
        <ele>107.4</ele>
        <time>2022-12-08T09:21:11Z</time>
      </trkpt>
      <trkpt lat="47.99726" lon="-3.88535">
        <ele>106.7</ele>
        <time>2022-12-08T09:21:12Z</time>
      </trkpt>
      <trkpt lat="47.99733" lon="-3.88535">
        <ele>105.8</ele>
        <time>2022-12-08T09:21:13Z</time>
      </trkpt>
      <trkpt lat="47.9974" lon="-3.88532">
        <ele>104.8</ele>
        <time>2022-12-08T09:21:14Z</time>
      </trkpt>
      <trkpt lat="47.99748" lon="-3.8853">
        <ele>103.9</ele>
        <time>2022-12-08T09:21:15Z</time>
      </trkpt>
      <trkpt lat="47.99757" lon="-3.88528">
        <ele>102.9</ele>
        <time>2022-12-08T09:21:16Z</time>
      </trkpt>
      <trkpt lat="47.99767" lon="-3.88526">
        <ele>101.8</ele>
        <time>2022-12-08T09:21:17Z</time>
      </trkpt>
      <trkpt lat="47.99777" lon="-3.88523">
        <ele>100.6</ele>
        <time>2022-12-08T09:21:18Z</time>
      </trkpt>
      <trkpt lat="47.99787" lon="-3.8852">
        <ele>99.2</ele>
        <time>2022-12-08T09:21:19Z</time>
      </trkpt>
      <trkpt lat="47.99797" lon="-3.88517">
        <ele>97.7</ele>
        <time>2022-12-08T09:21:20Z</time>
      </trkpt>
      <trkpt lat="47.99808" lon="-3.88514">
        <ele>96.1</ele>
        <time>2022-12-08T09:21:21Z</time>
      </trkpt>
      <trkpt lat="47.9982" lon="-3.8851">
        <ele>94.5</ele>
        <time>2022-12-08T09:21:22Z</time>
      </trkpt>
      <trkpt lat="47.99832" lon="-3.88508">
        <ele>93.2</ele>
        <time>2022-12-08T09:21:23Z</time>
      </trkpt>
      <trkpt lat="47.99844" lon="-3.8851">
        <ele>92.1</ele>
        <time>2022-12-08T09:21:24Z</time>
      </trkpt>
      <trkpt lat="47.99856" lon="-3.88515">
        <ele>91.2</ele>
        <time>2022-12-08T09:21:25Z</time>
      </trkpt>
      <trkpt lat="47.99867" lon="-3.88522">
        <ele>90.5</ele>
        <time>2022-12-08T09:21:26Z</time>
      </trkpt>
      <trkpt lat="47.99878" lon="-3.88529">
        <ele>90</ele>
        <time>2022-12-08T09:21:27Z</time>
      </trkpt>
      <trkpt lat="47.99889" lon="-3.88536">
        <ele>89.8</ele>
        <time>2022-12-08T09:21:28Z</time>
      </trkpt>
      <trkpt lat="47.99901" lon="-3.88541">
        <ele>89.8</ele>
        <time>2022-12-08T09:21:29Z</time>
      </trkpt>
      <trkpt lat="47.99912" lon="-3.88545">
        <ele>89.9</ele>
        <time>2022-12-08T09:21:30Z</time>
      </trkpt>
      <trkpt lat="47.99923" lon="-3.88547">
        <ele>90.1</ele>
        <time>2022-12-08T09:21:31Z</time>
      </trkpt>
      <trkpt lat="47.99933" lon="-3.88548">
        <ele>90.3</ele>
        <time>2022-12-08T09:21:32Z</time>
      </trkpt>
      <trkpt lat="47.99944" lon="-3.88548">
        <ele>90.4</ele>
        <time>2022-12-08T09:21:33Z</time>
      </trkpt>
      <trkpt lat="47.99954" lon="-3.88548">
        <ele>90.6</ele>
        <time>2022-12-08T09:21:34Z</time>
      </trkpt>
      <trkpt lat="47.99962" lon="-3.88548">
        <ele>91</ele>
        <time>2022-12-08T09:21:35Z</time>
      </trkpt>
      <trkpt lat="47.9997" lon="-3.88548">
        <ele>91.5</ele>
        <time>2022-12-08T09:21:36Z</time>
      </trkpt>
      <trkpt lat="47.99978" lon="-3.88548">
        <ele>91.9</ele>
        <time>2022-12-08T09:21:37Z</time>
      </trkpt>
      <trkpt lat="47.99985" lon="-3.88547">
        <ele>92.4</ele>
        <time>2022-12-08T09:21:38Z</time>
      </trkpt>
      <trkpt lat="47.99991" lon="-3.88547">
        <ele>92.9</ele>
        <time>2022-12-08T09:21:39Z</time>
      </trkpt>
      <trkpt lat="47.99996" lon="-3.88546">
        <ele>93.3</ele>
        <time>2022-12-08T09:21:40Z</time>
      </trkpt>
      <trkpt lat="48.00002" lon="-3.88545">
        <ele>93.7</ele>
        <time>2022-12-08T09:21:41Z</time>
      </trkpt>
      <trkpt lat="48.00006" lon="-3.88545">
        <ele>94.1</ele>
        <time>2022-12-08T09:21:42Z</time>
      </trkpt>
      <trkpt lat="48.00011" lon="-3.88545">
        <ele>94.5</ele>
        <time>2022-12-08T09:21:43Z</time>
      </trkpt>
      <trkpt lat="48.00013" lon="-3.88545">
        <ele>94.7</ele>
        <time>2022-12-08T09:21:44Z</time>
      </trkpt>
      <trkpt lat="48.00016" lon="-3.88544">
        <ele>95</ele>
        <time>2022-12-08T09:21:45Z</time>
      </trkpt>
      <trkpt lat="48.00021" lon="-3.88543">
        <ele>95.4</ele>
        <time>2022-12-08T09:21:46Z</time>
      </trkpt>
      <trkpt lat="48.00025" lon="-3.88542">
        <ele>95.8</ele>
        <time>2022-12-08T09:21:47Z</time>
      </trkpt>
      <trkpt lat="48.00029" lon="-3.88541">
        <ele>96.2</ele>
        <time>2022-12-08T09:21:48Z</time>
      </trkpt>
      <trkpt lat="48.00035" lon="-3.88539">
        <ele>96.6</ele>
        <time>2022-12-08T09:21:49Z</time>
      </trkpt>
      <trkpt lat="48.00038" lon="-3.88538">
        <ele>96.9</ele>
        <time>2022-12-08T09:21:50Z</time>
      </trkpt>
      <trkpt lat="48.00041" lon="-3.88538">
        <ele>97.2</ele>
        <time>2022-12-08T09:21:51Z</time>
      </trkpt>
      <trkpt lat="48.00044" lon="-3.88537">
        <ele>97.4</ele>
        <time>2022-12-08T09:21:52Z</time>
      </trkpt>
      <trkpt lat="48.00048" lon="-3.88536">
        <ele>97.7</ele>
        <time>2022-12-08T09:21:53Z</time>
      </trkpt>
      <trkpt lat="48.00051" lon="-3.88535">
        <ele>97.9</ele>
        <time>2022-12-08T09:21:54Z</time>
      </trkpt>
      <trkpt lat="48.00055" lon="-3.88535">
        <ele>98.1</ele>
        <time>2022-12-08T09:21:55Z</time>
      </trkpt>
      <trkpt lat="48.00058" lon="-3.88535">
        <ele>98.3</ele>
        <time>2022-12-08T09:21:56Z</time>
      </trkpt>
      <trkpt lat="48.00062" lon="-3.88535">
        <ele>98.5</ele>
        <time>2022-12-08T09:21:57Z</time>
      </trkpt>
      <trkpt lat="48.00066" lon="-3.88535">
        <ele>98.7</ele>
        <time>2022-12-08T09:21:58Z</time>
      </trkpt>
      <trkpt lat="48.00069" lon="-3.88535">
        <ele>98.9</ele>
        <time>2022-12-08T09:21:59Z</time>
      </trkpt>
      <trkpt lat="48.00073" lon="-3.88535">
        <ele>99.1</ele>
        <time>2022-12-08T09:22:00Z</time>
      </trkpt>
      <trkpt lat="48.00077" lon="-3.88535">
        <ele>99.3</ele>
        <time>2022-12-08T09:22:01Z</time>
      </trkpt>
      <trkpt lat="48.00081" lon="-3.88535">
        <ele>99.5</ele>
        <time>2022-12-08T09:22:02Z</time>
      </trkpt>
      <trkpt lat="48.00085" lon="-3.88534">
        <ele>99.6</ele>
        <time>2022-12-08T09:22:03Z</time>
      </trkpt>
      <trkpt lat="48.00089" lon="-3.88534">
        <ele>99.8</ele>
        <time>2022-12-08T09:22:04Z</time>
      </trkpt>
      <trkpt lat="48.00092" lon="-3.88534">
        <ele>99.9</ele>
        <time>2022-12-08T09:22:05Z</time>
      </trkpt>
      <trkpt lat="48.00097" lon="-3.88533">
        <ele>100.1</ele>
        <time>2022-12-08T09:22:06Z</time>
      </trkpt>
      <trkpt lat="48.001" lon="-3.88533">
        <ele>100.3</ele>
        <time>2022-12-08T09:22:07Z</time>
      </trkpt>
      <trkpt lat="48.00104" lon="-3.88533">
        <ele>100.4</ele>
        <time>2022-12-08T09:22:08Z</time>
      </trkpt>
      <trkpt lat="48.00109" lon="-3.88532">
        <ele>100.6</ele>
        <time>2022-12-08T09:22:09Z</time>
      </trkpt>
      <trkpt lat="48.00113" lon="-3.88529">
        <ele>100.8</ele>
        <time>2022-12-08T09:22:10Z</time>
      </trkpt>
      <trkpt lat="48.00117" lon="-3.88528">
        <ele>100.9</ele>
        <time>2022-12-08T09:22:11Z</time>
      </trkpt>
      <trkpt lat="48.00121" lon="-3.88527">
        <ele>101.1</ele>
        <time>2022-12-08T09:22:12Z</time>
      </trkpt>
      <trkpt lat="48.00125" lon="-3.88525">
        <ele>101.3</ele>
        <time>2022-12-08T09:22:13Z</time>
      </trkpt>
      <trkpt lat="48.00129" lon="-3.88523">
        <ele>101.5</ele>
        <time>2022-12-08T09:22:14Z</time>
      </trkpt>
      <trkpt lat="48.00134" lon="-3.88522">
        <ele>101.7</ele>
        <time>2022-12-08T09:22:15Z</time>
      </trkpt>
      <trkpt lat="48.00138" lon="-3.88521">
        <ele>101.9</ele>
        <time>2022-12-08T09:22:16Z</time>
      </trkpt>
      <trkpt lat="48.00141" lon="-3.8852">
        <ele>102.1</ele>
        <time>2022-12-08T09:22:17Z</time>
      </trkpt>
      <trkpt lat="48.00145" lon="-3.88519">
        <ele>102.3</ele>
        <time>2022-12-08T09:22:18Z</time>
      </trkpt>
      <trkpt lat="48.00148" lon="-3.88518">
        <ele>102.5</ele>
        <time>2022-12-08T09:22:19Z</time>
      </trkpt>
      <trkpt lat="48.00152" lon="-3.88517">
        <ele>102.7</ele>
        <time>2022-12-08T09:22:20Z</time>
      </trkpt>
      <trkpt lat="48.00156" lon="-3.88516">
        <ele>102.9</ele>
        <time>2022-12-08T09:22:21Z</time>
      </trkpt>
      <trkpt lat="48.0016" lon="-3.88515">
        <ele>103.1</ele>
        <time>2022-12-08T09:22:22Z</time>
      </trkpt>
      <trkpt lat="48.00163" lon="-3.88513">
        <ele>103.3</ele>
        <time>2022-12-08T09:22:23Z</time>
      </trkpt>
      <trkpt lat="48.00167" lon="-3.88511">
        <ele>103.5</ele>
        <time>2022-12-08T09:22:24Z</time>
      </trkpt>
      <trkpt lat="48.00171" lon="-3.88508">
        <ele>103.7</ele>
        <time>2022-12-08T09:22:25Z</time>
      </trkpt>
      <trkpt lat="48.00174" lon="-3.88505">
        <ele>103.9</ele>
        <time>2022-12-08T09:22:26Z</time>
      </trkpt>
      <trkpt lat="48.00178" lon="-3.88502">
        <ele>104.2</ele>
        <time>2022-12-08T09:22:27Z</time>
      </trkpt>
      <trkpt lat="48.00181" lon="-3.885">
        <ele>104.3</ele>
        <time>2022-12-08T09:22:28Z</time>
      </trkpt>
      <trkpt lat="48.00185" lon="-3.88498">
        <ele>104.5</ele>
        <time>2022-12-08T09:22:29Z</time>
      </trkpt>
      <trkpt lat="48.00188" lon="-3.88495">
        <ele>104.7</ele>
        <time>2022-12-08T09:22:30Z</time>
      </trkpt>
      <trkpt lat="48.00192" lon="-3.88493">
        <ele>104.9</ele>
        <time>2022-12-08T09:22:31Z</time>
      </trkpt>
      <trkpt lat="48.00196" lon="-3.88492">
        <ele>105.1</ele>
        <time>2022-12-08T09:22:32Z</time>
      </trkpt>
      <trkpt lat="48.00199" lon="-3.88491">
        <ele>105.3</ele>
        <time>2022-12-08T09:22:33Z</time>
      </trkpt>
      <trkpt lat="48.00203" lon="-3.88489">
        <ele>105.5</ele>
        <time>2022-12-08T09:22:34Z</time>
      </trkpt>
      <trkpt lat="48.00206" lon="-3.88488">
        <ele>105.6</ele>
        <time>2022-12-08T09:22:35Z</time>
      </trkpt>
      <trkpt lat="48.0021" lon="-3.88487">
        <ele>105.8</ele>
        <time>2022-12-08T09:22:36Z</time>
      </trkpt>
      <trkpt lat="48.00214" lon="-3.88486">
        <ele>106</ele>
        <time>2022-12-08T09:22:37Z</time>
      </trkpt>
      <trkpt lat="48.00216" lon="-3.88485">
        <ele>106.1</ele>
        <time>2022-12-08T09:22:38Z</time>
      </trkpt>
      <trkpt lat="48.00221" lon="-3.88485">
        <ele>106.3</ele>
        <time>2022-12-08T09:22:39Z</time>
      </trkpt>
      <trkpt lat="48.00225" lon="-3.88484">
        <ele>106.5</ele>
        <time>2022-12-08T09:22:40Z</time>
      </trkpt>
      <trkpt lat="48.00228" lon="-3.88483">
        <ele>106.6</ele>
        <time>2022-12-08T09:22:41Z</time>
      </trkpt>
      <trkpt lat="48.00232" lon="-3.88482">
        <ele>106.8</ele>
        <time>2022-12-08T09:22:42Z</time>
      </trkpt>
      <trkpt lat="48.00236" lon="-3.88481">
        <ele>107</ele>
        <time>2022-12-08T09:22:43Z</time>
      </trkpt>
      <trkpt lat="48.0024" lon="-3.88481">
        <ele>107.1</ele>
        <time>2022-12-08T09:22:44Z</time>
      </trkpt>
      <trkpt lat="48.00245" lon="-3.8848">
        <ele>107.3</ele>
        <time>2022-12-08T09:22:45Z</time>
      </trkpt>
      <trkpt lat="48.00249" lon="-3.8848">
        <ele>107.5</ele>
        <time>2022-12-08T09:22:46Z</time>
      </trkpt>
      <trkpt lat="48.00253" lon="-3.8848">
        <ele>107.6</ele>
        <time>2022-12-08T09:22:47Z</time>
      </trkpt>
      <trkpt lat="48.00257" lon="-3.8848">
        <ele>107.8</ele>
        <time>2022-12-08T09:22:48Z</time>
      </trkpt>
      <trkpt lat="48.00261" lon="-3.8848">
        <ele>107.9</ele>
        <time>2022-12-08T09:22:49Z</time>
      </trkpt>
      <trkpt lat="48.00264" lon="-3.8848">
        <ele>108.1</ele>
        <time>2022-12-08T09:22:50Z</time>
      </trkpt>
      <trkpt lat="48.00268" lon="-3.8848">
        <ele>108.2</ele>
        <time>2022-12-08T09:22:51Z</time>
      </trkpt>
      <trkpt lat="48.00272" lon="-3.88479">
        <ele>108.3</ele>
        <time>2022-12-08T09:22:52Z</time>
      </trkpt>
      <trkpt lat="48.00276" lon="-3.88479">
        <ele>108.5</ele>
        <time>2022-12-08T09:22:53Z</time>
      </trkpt>
      <trkpt lat="48.0028" lon="-3.88478">
        <ele>108.6</ele>
        <time>2022-12-08T09:22:54Z</time>
      </trkpt>
      <trkpt lat="48.00284" lon="-3.88478">
        <ele>108.7</ele>
        <time>2022-12-08T09:22:55Z</time>
      </trkpt>
      <trkpt lat="48.00288" lon="-3.88478">
        <ele>108.8</ele>
        <time>2022-12-08T09:22:56Z</time>
      </trkpt>
      <trkpt lat="48.00292" lon="-3.88477">
        <ele>108.9</ele>
        <time>2022-12-08T09:22:57Z</time>
      </trkpt>
      <trkpt lat="48.00295" lon="-3.88477">
        <ele>108.9</ele>
        <time>2022-12-08T09:22:58Z</time>
      </trkpt>
      <trkpt lat="48.00298" lon="-3.88477">
        <ele>109</ele>
        <time>2022-12-08T09:22:59Z</time>
      </trkpt>
      <trkpt lat="48.00302" lon="-3.88476">
        <ele>109</ele>
        <time>2022-12-08T09:23:00Z</time>
      </trkpt>
      <trkpt lat="48.00307" lon="-3.88475">
        <ele>109</ele>
        <time>2022-12-08T09:23:01Z</time>
      </trkpt>
      <trkpt lat="48.00312" lon="-3.88474">
        <ele>109.1</ele>
        <time>2022-12-08T09:23:02Z</time>
      </trkpt>
      <trkpt lat="48.00316" lon="-3.88473">
        <ele>109.1</ele>
        <time>2022-12-08T09:23:03Z</time>
      </trkpt>
      <trkpt lat="48.0032" lon="-3.88471">
        <ele>109</ele>
        <time>2022-12-08T09:23:04Z</time>
      </trkpt>
      <trkpt lat="48.00324" lon="-3.88469">
        <ele>109</ele>
        <time>2022-12-08T09:23:05Z</time>
      </trkpt>
      <trkpt lat="48.00328" lon="-3.88466">
        <ele>109</ele>
        <time>2022-12-08T09:23:06Z</time>
      </trkpt>
      <trkpt lat="48.00332" lon="-3.88463">
        <ele>108.9</ele>
        <time>2022-12-08T09:23:07Z</time>
      </trkpt>
      <trkpt lat="48.00336" lon="-3.8846">
        <ele>108.9</ele>
        <time>2022-12-08T09:23:08Z</time>
      </trkpt>
      <trkpt lat="48.0034" lon="-3.88458">
        <ele>108.9</ele>
        <time>2022-12-08T09:23:09Z</time>
      </trkpt>
      <trkpt lat="48.00345" lon="-3.88459">
        <ele>108.8</ele>
        <time>2022-12-08T09:23:10Z</time>
      </trkpt>
      <trkpt lat="48.00348" lon="-3.8846">
        <ele>109.2</ele>
        <time>2022-12-08T09:23:11Z</time>
      </trkpt>
      <trkpt lat="48.00351" lon="-3.88465">
        <ele>109.4</ele>
        <time>2022-12-08T09:23:12Z</time>
      </trkpt>
      <trkpt lat="48.00353" lon="-3.8847">
        <ele>109.6</ele>
        <time>2022-12-08T09:23:13Z</time>
      </trkpt>
      <trkpt lat="48.00356" lon="-3.8848">
        <ele>109.9</ele>
        <time>2022-12-08T09:23:15Z</time>
      </trkpt>
      <trkpt lat="48.00357" lon="-3.88487">
        <ele>110</ele>
        <time>2022-12-08T09:23:16Z</time>
      </trkpt>
      <trkpt lat="48.00357" lon="-3.88493">
        <ele>110.2</ele>
        <time>2022-12-08T09:23:17Z</time>
      </trkpt>
      <trkpt lat="48.00357" lon="-3.88502">
        <ele>110.4</ele>
        <time>2022-12-08T09:23:18Z</time>
      </trkpt>
      <trkpt lat="48.00356" lon="-3.88508">
        <ele>110.6</ele>
        <time>2022-12-08T09:23:19Z</time>
      </trkpt>
      <trkpt lat="48.00355" lon="-3.88514">
        <ele>110.8</ele>
        <time>2022-12-08T09:23:20Z</time>
      </trkpt>
      <trkpt lat="48.00355" lon="-3.88521">
        <ele>111</ele>
        <time>2022-12-08T09:23:21Z</time>
      </trkpt>
      <trkpt lat="48.00354" lon="-3.88527">
        <ele>111.2</ele>
        <time>2022-12-08T09:23:22Z</time>
      </trkpt>
      <trkpt lat="48.00353" lon="-3.88532">
        <ele>111.3</ele>
        <time>2022-12-08T09:23:23Z</time>
      </trkpt>
      <trkpt lat="48.00353" lon="-3.88538">
        <ele>111.5</ele>
        <time>2022-12-08T09:23:24Z</time>
      </trkpt>
      <trkpt lat="48.00352" lon="-3.88546">
        <ele>111.8</ele>
        <time>2022-12-08T09:23:26Z</time>
      </trkpt>
      <trkpt lat="48.00351" lon="-3.88554">
        <ele>112</ele>
        <time>2022-12-08T09:23:27Z</time>
      </trkpt>
      <trkpt lat="48.0035" lon="-3.8856">
        <ele>112.2</ele>
        <time>2022-12-08T09:23:28Z</time>
      </trkpt>
      <trkpt lat="48.00349" lon="-3.88572">
        <ele>112.6</ele>
        <time>2022-12-08T09:23:30Z</time>
      </trkpt>
      <trkpt lat="48.00349" lon="-3.88578">
        <ele>112.8</ele>
        <time>2022-12-08T09:23:31Z</time>
      </trkpt>
      <trkpt lat="48.00348" lon="-3.88583">
        <ele>112.9</ele>
        <time>2022-12-08T09:23:32Z</time>
      </trkpt>
      <trkpt lat="48.00348" lon="-3.88589">
        <ele>113.1</ele>
        <time>2022-12-08T09:23:33Z</time>
      </trkpt>
      <trkpt lat="48.00347" lon="-3.88595">
        <ele>113.3</ele>
        <time>2022-12-08T09:23:34Z</time>
      </trkpt>
      <trkpt lat="48.00346" lon="-3.88601">
        <ele>113.4</ele>
        <time>2022-12-08T09:23:35Z</time>
      </trkpt>
      <trkpt lat="48.00346" lon="-3.88607">
        <ele>113.6</ele>
        <time>2022-12-08T09:23:36Z</time>
      </trkpt>
      <trkpt lat="48.00346" lon="-3.88614">
        <ele>113.7</ele>
        <time>2022-12-08T09:23:37Z</time>
      </trkpt>
      <trkpt lat="48.00346" lon="-3.88619">
        <ele>113.9</ele>
        <time>2022-12-08T09:23:38Z</time>
      </trkpt>
      <trkpt lat="48.00347" lon="-3.88626">
        <ele>114</ele>
        <time>2022-12-08T09:23:39Z</time>
      </trkpt>
      <trkpt lat="48.00347" lon="-3.88632">
        <ele>114.1</ele>
        <time>2022-12-08T09:23:40Z</time>
      </trkpt>
      <trkpt lat="48.00348" lon="-3.88636">
        <ele>114.2</ele>
        <time>2022-12-08T09:23:41Z</time>
      </trkpt>
      <trkpt lat="48.0035" lon="-3.88643">
        <ele>114.3</ele>
        <time>2022-12-08T09:23:42Z</time>
      </trkpt>
      <trkpt lat="48.00352" lon="-3.88651">
        <ele>114.5</ele>
        <time>2022-12-08T09:23:43Z</time>
      </trkpt>
      <trkpt lat="48.00354" lon="-3.88657">
        <ele>114.6</ele>
        <time>2022-12-08T09:23:44Z</time>
      </trkpt>
      <trkpt lat="48.00356" lon="-3.88664">
        <ele>114.6</ele>
        <time>2022-12-08T09:23:45Z</time>
      </trkpt>
      <trkpt lat="48.00357" lon="-3.88671">
        <ele>114.7</ele>
        <time>2022-12-08T09:23:46Z</time>
      </trkpt>
      <trkpt lat="48.00359" lon="-3.88678">
        <ele>114.8</ele>
        <time>2022-12-08T09:23:47Z</time>
      </trkpt>
      <trkpt lat="48.0036" lon="-3.88684">
        <ele>114.9</ele>
        <time>2022-12-08T09:23:48Z</time>
      </trkpt>
      <trkpt lat="48.00362" lon="-3.88691">
        <ele>114.9</ele>
        <time>2022-12-08T09:23:49Z</time>
      </trkpt>
      <trkpt lat="48.00364" lon="-3.88698">
        <ele>115</ele>
        <time>2022-12-08T09:23:50Z</time>
      </trkpt>
      <trkpt lat="48.00365" lon="-3.88705">
        <ele>115.1</ele>
        <time>2022-12-08T09:23:51Z</time>
      </trkpt>
      <trkpt lat="48.00367" lon="-3.88712">
        <ele>115.2</ele>
        <time>2022-12-08T09:23:52Z</time>
      </trkpt>
      <trkpt lat="48.00369" lon="-3.88718">
        <ele>115.3</ele>
        <time>2022-12-08T09:23:53Z</time>
      </trkpt>
      <trkpt lat="48.00371" lon="-3.88725">
        <ele>115.4</ele>
        <time>2022-12-08T09:23:54Z</time>
      </trkpt>
      <trkpt lat="48.00373" lon="-3.88732">
        <ele>115.4</ele>
        <time>2022-12-08T09:23:55Z</time>
      </trkpt>
      <trkpt lat="48.00375" lon="-3.88738">
        <ele>115.5</ele>
        <time>2022-12-08T09:23:56Z</time>
      </trkpt>
      <trkpt lat="48.00376" lon="-3.88745">
        <ele>115.6</ele>
        <time>2022-12-08T09:23:57Z</time>
      </trkpt>
      <trkpt lat="48.00378" lon="-3.88752">
        <ele>115.7</ele>
        <time>2022-12-08T09:23:58Z</time>
      </trkpt>
      <trkpt lat="48.00379" lon="-3.88759">
        <ele>115.7</ele>
        <time>2022-12-08T09:23:59Z</time>
      </trkpt>
      <trkpt lat="48.00381" lon="-3.88765">
        <ele>115.8</ele>
        <time>2022-12-08T09:24:00Z</time>
      </trkpt>
      <trkpt lat="48.00383" lon="-3.88771">
        <ele>116.2</ele>
        <time>2022-12-08T09:24:01Z</time>
      </trkpt>
      <trkpt lat="48.00387" lon="-3.88775">
        <ele>116.3</ele>
        <time>2022-12-08T09:24:02Z</time>
      </trkpt>
      <trkpt lat="48.00391" lon="-3.88777">
        <ele>116.3</ele>
        <time>2022-12-08T09:24:03Z</time>
      </trkpt>
      <trkpt lat="48.00395" lon="-3.88776">
        <ele>116.4</ele>
        <time>2022-12-08T09:24:04Z</time>
      </trkpt>
      <trkpt lat="48.00399" lon="-3.88774">
        <ele>116.4</ele>
        <time>2022-12-08T09:24:05Z</time>
      </trkpt>
      <trkpt lat="48.00402" lon="-3.88772">
        <ele>116.3</ele>
        <time>2022-12-08T09:24:06Z</time>
      </trkpt>
      <trkpt lat="48.00406" lon="-3.8877">
        <ele>116.3</ele>
        <time>2022-12-08T09:24:07Z</time>
      </trkpt>
      <trkpt lat="48.0041" lon="-3.88768">
        <ele>116.1</ele>
        <time>2022-12-08T09:24:08Z</time>
      </trkpt>
      <trkpt lat="48.00415" lon="-3.88766">
        <ele>115.9</ele>
        <time>2022-12-08T09:24:09Z</time>
      </trkpt>
      <trkpt lat="48.00421" lon="-3.88763">
        <ele>115.5</ele>
        <time>2022-12-08T09:24:10Z</time>
      </trkpt>
      <trkpt lat="48.00426" lon="-3.88761">
        <ele>115.2</ele>
        <time>2022-12-08T09:24:11Z</time>
      </trkpt>
      <trkpt lat="48.00431" lon="-3.88758">
        <ele>114.8</ele>
        <time>2022-12-08T09:24:12Z</time>
      </trkpt>
      <trkpt lat="48.00436" lon="-3.88756">
        <ele>114.5</ele>
        <time>2022-12-08T09:24:13Z</time>
      </trkpt>
      <trkpt lat="48.00441" lon="-3.88753">
        <ele>114.1</ele>
        <time>2022-12-08T09:24:14Z</time>
      </trkpt>
      <trkpt lat="48.00447" lon="-3.8875">
        <ele>113.6</ele>
        <time>2022-12-08T09:24:15Z</time>
      </trkpt>
      <trkpt lat="48.00453" lon="-3.88746">
        <ele>113</ele>
        <time>2022-12-08T09:24:16Z</time>
      </trkpt>
      <trkpt lat="48.00459" lon="-3.88742">
        <ele>112.4</ele>
        <time>2022-12-08T09:24:17Z</time>
      </trkpt>
      <trkpt lat="48.00466" lon="-3.88737">
        <ele>111.7</ele>
        <time>2022-12-08T09:24:18Z</time>
      </trkpt>
      <trkpt lat="48.00474" lon="-3.88733">
        <ele>110.9</ele>
        <time>2022-12-08T09:24:19Z</time>
      </trkpt>
      <trkpt lat="48.00482" lon="-3.88727">
        <ele>109.9</ele>
        <time>2022-12-08T09:24:20Z</time>
      </trkpt>
      <trkpt lat="48.0049" lon="-3.88719">
        <ele>108.9</ele>
        <time>2022-12-08T09:24:21Z</time>
      </trkpt>
      <trkpt lat="48.00499" lon="-3.88711">
        <ele>108.1</ele>
        <time>2022-12-08T09:24:22Z</time>
      </trkpt>
      <trkpt lat="48.00508" lon="-3.88702">
        <ele>107.4</ele>
        <time>2022-12-08T09:24:23Z</time>
      </trkpt>
      <trkpt lat="48.00516" lon="-3.88694">
        <ele>106.8</ele>
        <time>2022-12-08T09:24:24Z</time>
      </trkpt>
      <trkpt lat="48.00525" lon="-3.88687">
        <ele>106.3</ele>
        <time>2022-12-08T09:24:25Z</time>
      </trkpt>
      <trkpt lat="48.00533" lon="-3.88679">
        <ele>106</ele>
        <time>2022-12-08T09:24:26Z</time>
      </trkpt>
      <trkpt lat="48.00542" lon="-3.88671">
        <ele>105.7</ele>
        <time>2022-12-08T09:24:27Z</time>
      </trkpt>
      <trkpt lat="48.0055" lon="-3.88664">
        <ele>105.6</ele>
        <time>2022-12-08T09:24:28Z</time>
      </trkpt>
      <trkpt lat="48.00559" lon="-3.88657">
        <ele>105.6</ele>
        <time>2022-12-08T09:24:29Z</time>
      </trkpt>
      <trkpt lat="48.00568" lon="-3.88651">
        <ele>105.7</ele>
        <time>2022-12-08T09:24:30Z</time>
      </trkpt>
      <trkpt lat="48.00577" lon="-3.88651">
        <ele>105.6</ele>
        <time>2022-12-08T09:24:31Z</time>
      </trkpt>
      <trkpt lat="48.00586" lon="-3.88656">
        <ele>105.7</ele>
        <time>2022-12-08T09:24:32Z</time>
      </trkpt>
      <trkpt lat="48.00593" lon="-3.88663">
        <ele>105.7</ele>
        <time>2022-12-08T09:24:33Z</time>
      </trkpt>
      <trkpt lat="48.006" lon="-3.88668">
        <ele>105.7</ele>
        <time>2022-12-08T09:24:34Z</time>
      </trkpt>
      <trkpt lat="48.00607" lon="-3.88673">
        <ele>105.7</ele>
        <time>2022-12-08T09:24:35Z</time>
      </trkpt>
      <trkpt lat="48.00613" lon="-3.88678">
        <ele>105.8</ele>
        <time>2022-12-08T09:24:36Z</time>
      </trkpt>
      <trkpt lat="48.00619" lon="-3.88683">
        <ele>105.8</ele>
        <time>2022-12-08T09:24:37Z</time>
      </trkpt>
      <trkpt lat="48.00625" lon="-3.88687">
        <ele>105.9</ele>
        <time>2022-12-08T09:24:38Z</time>
      </trkpt>
      <trkpt lat="48.00631" lon="-3.88691">
        <ele>106</ele>
        <time>2022-12-08T09:24:39Z</time>
      </trkpt>
      <trkpt lat="48.00637" lon="-3.88695">
        <ele>106.2</ele>
        <time>2022-12-08T09:24:40Z</time>
      </trkpt>
      <trkpt lat="48.00642" lon="-3.88699">
        <ele>106.3</ele>
        <time>2022-12-08T09:24:41Z</time>
      </trkpt>
      <trkpt lat="48.00648" lon="-3.88703">
        <ele>106.4</ele>
        <time>2022-12-08T09:24:42Z</time>
      </trkpt>
      <trkpt lat="48.00653" lon="-3.88707">
        <ele>106.6</ele>
        <time>2022-12-08T09:24:43Z</time>
      </trkpt>
      <trkpt lat="48.00658" lon="-3.88711">
        <ele>106.7</ele>
        <time>2022-12-08T09:24:44Z</time>
      </trkpt>
      <trkpt lat="48.00663" lon="-3.88715">
        <ele>106.8</ele>
        <time>2022-12-08T09:24:45Z</time>
      </trkpt>
      <trkpt lat="48.00668" lon="-3.88719">
        <ele>107</ele>
        <time>2022-12-08T09:24:46Z</time>
      </trkpt>
      <trkpt lat="48.00673" lon="-3.88723">
        <ele>107.1</ele>
        <time>2022-12-08T09:24:47Z</time>
      </trkpt>
      <trkpt lat="48.00678" lon="-3.88727">
        <ele>107.3</ele>
        <time>2022-12-08T09:24:48Z</time>
      </trkpt>
      <trkpt lat="48.00683" lon="-3.88731">
        <ele>107.5</ele>
        <time>2022-12-08T09:24:49Z</time>
      </trkpt>
      <trkpt lat="48.00688" lon="-3.88734">
        <ele>107.8</ele>
        <time>2022-12-08T09:24:50Z</time>
      </trkpt>
      <trkpt lat="48.00693" lon="-3.88737">
        <ele>108</ele>
        <time>2022-12-08T09:24:51Z</time>
      </trkpt>
      <trkpt lat="48.00698" lon="-3.88739">
        <ele>108.4</ele>
        <time>2022-12-08T09:24:52Z</time>
      </trkpt>
      <trkpt lat="48.00703" lon="-3.88742">
        <ele>108.9</ele>
        <time>2022-12-08T09:24:53Z</time>
      </trkpt>
      <trkpt lat="48.00708" lon="-3.88744">
        <ele>109.3</ele>
        <time>2022-12-08T09:24:54Z</time>
      </trkpt>
      <trkpt lat="48.00712" lon="-3.88746">
        <ele>109.6</ele>
        <time>2022-12-08T09:24:55Z</time>
      </trkpt>
      <trkpt lat="48.00716" lon="-3.88748">
        <ele>109.9</ele>
        <time>2022-12-08T09:24:56Z</time>
      </trkpt>
      <trkpt lat="48.0072" lon="-3.8875">
        <ele>110.1</ele>
        <time>2022-12-08T09:24:57Z</time>
      </trkpt>
      <trkpt lat="48.00724" lon="-3.88752">
        <ele>110.4</ele>
        <time>2022-12-08T09:24:58Z</time>
      </trkpt>
      <trkpt lat="48.00729" lon="-3.88754">
        <ele>110.6</ele>
        <time>2022-12-08T09:24:59Z</time>
      </trkpt>
      <trkpt lat="48.00732" lon="-3.88756">
        <ele>110.8</ele>
        <time>2022-12-08T09:25:00Z</time>
      </trkpt>
      <trkpt lat="48.00736" lon="-3.88758">
        <ele>111</ele>
        <time>2022-12-08T09:25:01Z</time>
      </trkpt>
      <trkpt lat="48.0074" lon="-3.8876">
        <ele>111.2</ele>
        <time>2022-12-08T09:25:02Z</time>
      </trkpt>
      <trkpt lat="48.00745" lon="-3.88762">
        <ele>111.5</ele>
        <time>2022-12-08T09:25:03Z</time>
      </trkpt>
      <trkpt lat="48.00749" lon="-3.88763">
        <ele>111.8</ele>
        <time>2022-12-08T09:25:04Z</time>
      </trkpt>
      <trkpt lat="48.00753" lon="-3.88763">
        <ele>112</ele>
        <time>2022-12-08T09:25:05Z</time>
      </trkpt>
      <trkpt lat="48.00756" lon="-3.88764">
        <ele>112.3</ele>
        <time>2022-12-08T09:25:06Z</time>
      </trkpt>
      <trkpt lat="48.0076" lon="-3.88765">
        <ele>112.5</ele>
        <time>2022-12-08T09:25:07Z</time>
      </trkpt>
      <trkpt lat="48.00764" lon="-3.88766">
        <ele>112.8</ele>
        <time>2022-12-08T09:25:08Z</time>
      </trkpt>
      <trkpt lat="48.00768" lon="-3.88767">
        <ele>113</ele>
        <time>2022-12-08T09:25:09Z</time>
      </trkpt>
      <trkpt lat="48.00773" lon="-3.88767">
        <ele>113.3</ele>
        <time>2022-12-08T09:25:10Z</time>
      </trkpt>
      <trkpt lat="48.00777" lon="-3.88768">
        <ele>113.6</ele>
        <time>2022-12-08T09:25:11Z</time>
      </trkpt>
      <trkpt lat="48.00781" lon="-3.88769">
        <ele>113.9</ele>
        <time>2022-12-08T09:25:12Z</time>
      </trkpt>
      <trkpt lat="48.00785" lon="-3.8877">
        <ele>114.1</ele>
        <time>2022-12-08T09:25:13Z</time>
      </trkpt>
      <trkpt lat="48.00788" lon="-3.8877">
        <ele>114.4</ele>
        <time>2022-12-08T09:25:14Z</time>
      </trkpt>
      <trkpt lat="48.00792" lon="-3.88771">
        <ele>114.6</ele>
        <time>2022-12-08T09:25:15Z</time>
      </trkpt>
      <trkpt lat="48.00795" lon="-3.88772">
        <ele>114.8</ele>
        <time>2022-12-08T09:25:16Z</time>
      </trkpt>
      <trkpt lat="48.00798" lon="-3.88773">
        <ele>115</ele>
        <time>2022-12-08T09:25:17Z</time>
      </trkpt>
      <trkpt lat="48.00802" lon="-3.88774">
        <ele>115.3</ele>
        <time>2022-12-08T09:25:18Z</time>
      </trkpt>
      <trkpt lat="48.00807" lon="-3.88775">
        <ele>115.6</ele>
        <time>2022-12-08T09:25:19Z</time>
      </trkpt>
      <trkpt lat="48.0081" lon="-3.88775">
        <ele>115.7</ele>
        <time>2022-12-08T09:25:20Z</time>
      </trkpt>
      <trkpt lat="48.00813" lon="-3.88776">
        <ele>115.9</ele>
        <time>2022-12-08T09:25:21Z</time>
      </trkpt>
      <trkpt lat="48.00817" lon="-3.88777">
        <ele>116.2</ele>
        <time>2022-12-08T09:25:22Z</time>
      </trkpt>
      <trkpt lat="48.00821" lon="-3.88778">
        <ele>116.4</ele>
        <time>2022-12-08T09:25:23Z</time>
      </trkpt>
      <trkpt lat="48.00824" lon="-3.88779">
        <ele>116.6</ele>
        <time>2022-12-08T09:25:24Z</time>
      </trkpt>
      <trkpt lat="48.00827" lon="-3.8878">
        <ele>116.8</ele>
        <time>2022-12-08T09:25:25Z</time>
      </trkpt>
      <trkpt lat="48.00831" lon="-3.88781">
        <ele>117</ele>
        <time>2022-12-08T09:25:26Z</time>
      </trkpt>
      <trkpt lat="48.00835" lon="-3.88782">
        <ele>117.2</ele>
        <time>2022-12-08T09:25:27Z</time>
      </trkpt>
      <trkpt lat="48.00839" lon="-3.88783">
        <ele>117.3</ele>
        <time>2022-12-08T09:25:28Z</time>
      </trkpt>
      <trkpt lat="48.00843" lon="-3.88784">
        <ele>117.5</ele>
        <time>2022-12-08T09:25:29Z</time>
      </trkpt>
      <trkpt lat="48.00847" lon="-3.88786">
        <ele>117.6</ele>
        <time>2022-12-08T09:25:30Z</time>
      </trkpt>
      <trkpt lat="48.00851" lon="-3.88787">
        <ele>117.7</ele>
        <time>2022-12-08T09:25:31Z</time>
      </trkpt>
      <trkpt lat="48.00855" lon="-3.88788">
        <ele>117.8</ele>
        <time>2022-12-08T09:25:32Z</time>
      </trkpt>
      <trkpt lat="48.00859" lon="-3.8879">
        <ele>117.9</ele>
        <time>2022-12-08T09:25:33Z</time>
      </trkpt>
      <trkpt lat="48.00863" lon="-3.88791">
        <ele>118</ele>
        <time>2022-12-08T09:25:34Z</time>
      </trkpt>
      <trkpt lat="48.00867" lon="-3.88793">
        <ele>118.1</ele>
        <time>2022-12-08T09:25:35Z</time>
      </trkpt>
      <trkpt lat="48.00871" lon="-3.88794">
        <ele>118.2</ele>
        <time>2022-12-08T09:25:36Z</time>
      </trkpt>
      <trkpt lat="48.00875" lon="-3.88797">
        <ele>118.3</ele>
        <time>2022-12-08T09:25:37Z</time>
      </trkpt>
      <trkpt lat="48.00879" lon="-3.88799">
        <ele>118.3</ele>
        <time>2022-12-08T09:25:38Z</time>
      </trkpt>
      <trkpt lat="48.00883" lon="-3.88802">
        <ele>118.3</ele>
        <time>2022-12-08T09:25:39Z</time>
      </trkpt>
      <trkpt lat="48.00887" lon="-3.88806">
        <ele>118.2</ele>
        <time>2022-12-08T09:25:40Z</time>
      </trkpt>
      <trkpt lat="48.00892" lon="-3.88809">
        <ele>118.2</ele>
        <time>2022-12-08T09:25:41Z</time>
      </trkpt>
      <trkpt lat="48.00896" lon="-3.88813">
        <ele>118.2</ele>
        <time>2022-12-08T09:25:42Z</time>
      </trkpt>
      <trkpt lat="48.00901" lon="-3.88816">
        <ele>118.2</ele>
        <time>2022-12-08T09:25:43Z</time>
      </trkpt>
      <trkpt lat="48.00906" lon="-3.88819">
        <ele>118.2</ele>
        <time>2022-12-08T09:25:44Z</time>
      </trkpt>
      <trkpt lat="48.00912" lon="-3.88822">
        <ele>118.2</ele>
        <time>2022-12-08T09:25:45Z</time>
      </trkpt>
      <trkpt lat="48.00917" lon="-3.88826">
        <ele>118.2</ele>
        <time>2022-12-08T09:25:46Z</time>
      </trkpt>
      <trkpt lat="48.00922" lon="-3.88829">
        <ele>118.2</ele>
        <time>2022-12-08T09:25:47Z</time>
      </trkpt>
      <trkpt lat="48.00927" lon="-3.88831">
        <ele>118.3</ele>
        <time>2022-12-08T09:25:48Z</time>
      </trkpt>
      <trkpt lat="48.00932" lon="-3.88834">
        <ele>118.4</ele>
        <time>2022-12-08T09:25:49Z</time>
      </trkpt>
      <trkpt lat="48.00937" lon="-3.88836">
        <ele>118.5</ele>
        <time>2022-12-08T09:25:50Z</time>
      </trkpt>
      <trkpt lat="48.00942" lon="-3.88839">
        <ele>118.6</ele>
        <time>2022-12-08T09:25:51Z</time>
      </trkpt>
      <trkpt lat="48.00947" lon="-3.88841">
        <ele>118.7</ele>
        <time>2022-12-08T09:25:52Z</time>
      </trkpt>
      <trkpt lat="48.00951" lon="-3.88843">
        <ele>118.7</ele>
        <time>2022-12-08T09:25:53Z</time>
      </trkpt>
      <trkpt lat="48.00956" lon="-3.88845">
        <ele>118.8</ele>
        <time>2022-12-08T09:25:54Z</time>
      </trkpt>
      <trkpt lat="48.00961" lon="-3.88847">
        <ele>118.8</ele>
        <time>2022-12-08T09:25:55Z</time>
      </trkpt>
      <trkpt lat="48.00965" lon="-3.8885">
        <ele>118.9</ele>
        <time>2022-12-08T09:25:56Z</time>
      </trkpt>
      <trkpt lat="48.0097" lon="-3.88852">
        <ele>118.9</ele>
        <time>2022-12-08T09:25:57Z</time>
      </trkpt>
      <trkpt lat="48.00974" lon="-3.88854">
        <ele>118.9</ele>
        <time>2022-12-08T09:25:58Z</time>
      </trkpt>
      <trkpt lat="48.00979" lon="-3.88855">
        <ele>119</ele>
        <time>2022-12-08T09:25:59Z</time>
      </trkpt>
      <trkpt lat="48.00983" lon="-3.88857">
        <ele>119</ele>
        <time>2022-12-08T09:26:00Z</time>
      </trkpt>
      <trkpt lat="48.00988" lon="-3.88859">
        <ele>119.1</ele>
        <time>2022-12-08T09:26:01Z</time>
      </trkpt>
      <trkpt lat="48.00992" lon="-3.88861">
        <ele>119.2</ele>
        <time>2022-12-08T09:26:02Z</time>
      </trkpt>
      <trkpt lat="48.00996" lon="-3.88863">
        <ele>119.3</ele>
        <time>2022-12-08T09:26:03Z</time>
      </trkpt>
      <trkpt lat="48.01001" lon="-3.88865">
        <ele>119.5</ele>
        <time>2022-12-08T09:26:04Z</time>
      </trkpt>
      <trkpt lat="48.01005" lon="-3.88866">
        <ele>119.7</ele>
        <time>2022-12-08T09:26:05Z</time>
      </trkpt>
      <trkpt lat="48.01009" lon="-3.88868">
        <ele>119.9</ele>
        <time>2022-12-08T09:26:06Z</time>
      </trkpt>
      <trkpt lat="48.01013" lon="-3.8887">
        <ele>120</ele>
        <time>2022-12-08T09:26:07Z</time>
      </trkpt>
      <trkpt lat="48.01017" lon="-3.88871">
        <ele>120.2</ele>
        <time>2022-12-08T09:26:08Z</time>
      </trkpt>
      <trkpt lat="48.01021" lon="-3.88872">
        <ele>120.5</ele>
        <time>2022-12-08T09:26:09Z</time>
      </trkpt>
      <trkpt lat="48.01025" lon="-3.88873">
        <ele>120.8</ele>
        <time>2022-12-08T09:26:10Z</time>
      </trkpt>
      <trkpt lat="48.01029" lon="-3.88874">
        <ele>121</ele>
        <time>2022-12-08T09:26:11Z</time>
      </trkpt>
      <trkpt lat="48.01032" lon="-3.88875">
        <ele>121.2</ele>
        <time>2022-12-08T09:26:12Z</time>
      </trkpt>
      <trkpt lat="48.01036" lon="-3.88876">
        <ele>121.5</ele>
        <time>2022-12-08T09:26:13Z</time>
      </trkpt>
      <trkpt lat="48.0104" lon="-3.88876">
        <ele>121.7</ele>
        <time>2022-12-08T09:26:14Z</time>
      </trkpt>
      <trkpt lat="48.01044" lon="-3.88878">
        <ele>122.1</ele>
        <time>2022-12-08T09:26:15Z</time>
      </trkpt>
      <trkpt lat="48.01047" lon="-3.88878">
        <ele>122.3</ele>
        <time>2022-12-08T09:26:16Z</time>
      </trkpt>
      <trkpt lat="48.0105" lon="-3.88879">
        <ele>122.6</ele>
        <time>2022-12-08T09:26:17Z</time>
      </trkpt>
      <trkpt lat="48.01054" lon="-3.88879">
        <ele>122.8</ele>
        <time>2022-12-08T09:26:18Z</time>
      </trkpt>
      <trkpt lat="48.01057" lon="-3.88879">
        <ele>123.1</ele>
        <time>2022-12-08T09:26:19Z</time>
      </trkpt>
      <trkpt lat="48.01062" lon="-3.8888">
        <ele>123.3</ele>
        <time>2022-12-08T09:26:20Z</time>
      </trkpt>
      <trkpt lat="48.01064" lon="-3.8888">
        <ele>123.5</ele>
        <time>2022-12-08T09:26:21Z</time>
      </trkpt>
      <trkpt lat="48.01068" lon="-3.88881">
        <ele>123.7</ele>
        <time>2022-12-08T09:26:22Z</time>
      </trkpt>
      <trkpt lat="48.01071" lon="-3.88882">
        <ele>123.9</ele>
        <time>2022-12-08T09:26:23Z</time>
      </trkpt>
      <trkpt lat="48.01075" lon="-3.88883">
        <ele>124.1</ele>
        <time>2022-12-08T09:26:24Z</time>
      </trkpt>
      <trkpt lat="48.01079" lon="-3.88883">
        <ele>124.3</ele>
        <time>2022-12-08T09:26:25Z</time>
      </trkpt>
      <trkpt lat="48.01082" lon="-3.88884">
        <ele>124.4</ele>
        <time>2022-12-08T09:26:26Z</time>
      </trkpt>
      <trkpt lat="48.01085" lon="-3.88884">
        <ele>124.6</ele>
        <time>2022-12-08T09:26:27Z</time>
      </trkpt>
      <trkpt lat="48.01089" lon="-3.88884">
        <ele>124.7</ele>
        <time>2022-12-08T09:26:28Z</time>
      </trkpt>
      <trkpt lat="48.01092" lon="-3.88885">
        <ele>124.9</ele>
        <time>2022-12-08T09:26:29Z</time>
      </trkpt>
      <trkpt lat="48.01096" lon="-3.88886">
        <ele>125.1</ele>
        <time>2022-12-08T09:26:30Z</time>
      </trkpt>
      <trkpt lat="48.01099" lon="-3.88887">
        <ele>125.3</ele>
        <time>2022-12-08T09:26:31Z</time>
      </trkpt>
      <trkpt lat="48.01102" lon="-3.88888">
        <ele>125.5</ele>
        <time>2022-12-08T09:26:32Z</time>
      </trkpt>
      <trkpt lat="48.01106" lon="-3.88889">
        <ele>125.6</ele>
        <time>2022-12-08T09:26:33Z</time>
      </trkpt>
      <trkpt lat="48.01109" lon="-3.88889">
        <ele>125.8</ele>
        <time>2022-12-08T09:26:34Z</time>
      </trkpt>
      <trkpt lat="48.01114" lon="-3.8889">
        <ele>125.9</ele>
        <time>2022-12-08T09:26:35Z</time>
      </trkpt>
      <trkpt lat="48.01117" lon="-3.8889">
        <ele>126.1</ele>
        <time>2022-12-08T09:26:36Z</time>
      </trkpt>
      <trkpt lat="48.0112" lon="-3.8889">
        <ele>126.2</ele>
        <time>2022-12-08T09:26:37Z</time>
      </trkpt>
      <trkpt lat="48.01124" lon="-3.88891">
        <ele>126.3</ele>
        <time>2022-12-08T09:26:38Z</time>
      </trkpt>
      <trkpt lat="48.01127" lon="-3.88892">
        <ele>126.4</ele>
        <time>2022-12-08T09:26:39Z</time>
      </trkpt>
      <trkpt lat="48.01131" lon="-3.88893">
        <ele>126.6</ele>
        <time>2022-12-08T09:26:40Z</time>
      </trkpt>
      <trkpt lat="48.01135" lon="-3.88893">
        <ele>126.7</ele>
        <time>2022-12-08T09:26:41Z</time>
      </trkpt>
      <trkpt lat="48.01138" lon="-3.88893">
        <ele>126.9</ele>
        <time>2022-12-08T09:26:42Z</time>
      </trkpt>
      <trkpt lat="48.01142" lon="-3.88893">
        <ele>127.1</ele>
        <time>2022-12-08T09:26:43Z</time>
      </trkpt>
      <trkpt lat="48.01146" lon="-3.88894">
        <ele>127.2</ele>
        <time>2022-12-08T09:26:44Z</time>
      </trkpt>
      <trkpt lat="48.01149" lon="-3.88894">
        <ele>127.4</ele>
        <time>2022-12-08T09:26:45Z</time>
      </trkpt>
      <trkpt lat="48.01153" lon="-3.88894">
        <ele>127.5</ele>
        <time>2022-12-08T09:26:46Z</time>
      </trkpt>
      <trkpt lat="48.01157" lon="-3.88895">
        <ele>127.6</ele>
        <time>2022-12-08T09:26:47Z</time>
      </trkpt>
      <trkpt lat="48.0116" lon="-3.88896">
        <ele>127.8</ele>
        <time>2022-12-08T09:26:48Z</time>
      </trkpt>
      <trkpt lat="48.01164" lon="-3.88896">
        <ele>128</ele>
        <time>2022-12-08T09:26:49Z</time>
      </trkpt>
      <trkpt lat="48.01167" lon="-3.88897">
        <ele>128.2</ele>
        <time>2022-12-08T09:26:50Z</time>
      </trkpt>
      <trkpt lat="48.01171" lon="-3.88898">
        <ele>128.4</ele>
        <time>2022-12-08T09:26:51Z</time>
      </trkpt>
      <trkpt lat="48.01174" lon="-3.88899">
        <ele>128.6</ele>
        <time>2022-12-08T09:26:52Z</time>
      </trkpt>
      <trkpt lat="48.01178" lon="-3.889">
        <ele>128.8</ele>
        <time>2022-12-08T09:26:53Z</time>
      </trkpt>
      <trkpt lat="48.01182" lon="-3.88901">
        <ele>128.9</ele>
        <time>2022-12-08T09:26:54Z</time>
      </trkpt>
      <trkpt lat="48.01186" lon="-3.88901">
        <ele>129.1</ele>
        <time>2022-12-08T09:26:55Z</time>
      </trkpt>
      <trkpt lat="48.01189" lon="-3.88901">
        <ele>129.3</ele>
        <time>2022-12-08T09:26:56Z</time>
      </trkpt>
      <trkpt lat="48.01193" lon="-3.88901">
        <ele>129.4</ele>
        <time>2022-12-08T09:26:57Z</time>
      </trkpt>
      <trkpt lat="48.01196" lon="-3.88902">
        <ele>129.5</ele>
        <time>2022-12-08T09:26:58Z</time>
      </trkpt>
      <trkpt lat="48.012" lon="-3.88902">
        <ele>129.6</ele>
        <time>2022-12-08T09:26:59Z</time>
      </trkpt>
      <trkpt lat="48.01204" lon="-3.88903">
        <ele>129.8</ele>
        <time>2022-12-08T09:27:00Z</time>
      </trkpt>
      <trkpt lat="48.01208" lon="-3.88904">
        <ele>129.9</ele>
        <time>2022-12-08T09:27:01Z</time>
      </trkpt>
      <trkpt lat="48.01211" lon="-3.88905">
        <ele>130.1</ele>
        <time>2022-12-08T09:27:02Z</time>
      </trkpt>
      <trkpt lat="48.01215" lon="-3.88906">
        <ele>130.2</ele>
        <time>2022-12-08T09:27:03Z</time>
      </trkpt>
      <trkpt lat="48.01218" lon="-3.88907">
        <ele>130.4</ele>
        <time>2022-12-08T09:27:04Z</time>
      </trkpt>
      <trkpt lat="48.01222" lon="-3.88909">
        <ele>130.5</ele>
        <time>2022-12-08T09:27:05Z</time>
      </trkpt>
      <trkpt lat="48.01225" lon="-3.88911">
        <ele>130.6</ele>
        <time>2022-12-08T09:27:06Z</time>
      </trkpt>
      <trkpt lat="48.01229" lon="-3.88912">
        <ele>130.7</ele>
        <time>2022-12-08T09:27:07Z</time>
      </trkpt>
      <trkpt lat="48.01233" lon="-3.88914">
        <ele>130.9</ele>
        <time>2022-12-08T09:27:08Z</time>
      </trkpt>
      <trkpt lat="48.01237" lon="-3.88916">
        <ele>131</ele>
        <time>2022-12-08T09:27:09Z</time>
      </trkpt>
      <trkpt lat="48.0124" lon="-3.88918">
        <ele>131.1</ele>
        <time>2022-12-08T09:27:10Z</time>
      </trkpt>
      <trkpt lat="48.01243" lon="-3.88919">
        <ele>131.2</ele>
        <time>2022-12-08T09:27:11Z</time>
      </trkpt>
      <trkpt lat="48.01247" lon="-3.88922">
        <ele>131.3</ele>
        <time>2022-12-08T09:27:12Z</time>
      </trkpt>
      <trkpt lat="48.0125" lon="-3.88924">
        <ele>131.4</ele>
        <time>2022-12-08T09:27:13Z</time>
      </trkpt>
      <trkpt lat="48.01254" lon="-3.88927">
        <ele>131.5</ele>
        <time>2022-12-08T09:27:14Z</time>
      </trkpt>
      <trkpt lat="48.01258" lon="-3.8893">
        <ele>131.6</ele>
        <time>2022-12-08T09:27:15Z</time>
      </trkpt>
      <trkpt lat="48.01262" lon="-3.88932">
        <ele>131.7</ele>
        <time>2022-12-08T09:27:16Z</time>
      </trkpt>
      <trkpt lat="48.01266" lon="-3.88935">
        <ele>131.7</ele>
        <time>2022-12-08T09:27:17Z</time>
      </trkpt>
      <trkpt lat="48.01269" lon="-3.88938">
        <ele>131.8</ele>
        <time>2022-12-08T09:27:18Z</time>
      </trkpt>
      <trkpt lat="48.01273" lon="-3.88942">
        <ele>131.8</ele>
        <time>2022-12-08T09:27:19Z</time>
      </trkpt>
      <trkpt lat="48.01277" lon="-3.88945">
        <ele>131.9</ele>
        <time>2022-12-08T09:27:20Z</time>
      </trkpt>
      <trkpt lat="48.01281" lon="-3.88948">
        <ele>131.9</ele>
        <time>2022-12-08T09:27:21Z</time>
      </trkpt>
      <trkpt lat="48.01284" lon="-3.88951">
        <ele>132</ele>
        <time>2022-12-08T09:27:22Z</time>
      </trkpt>
      <trkpt lat="48.01288" lon="-3.88954">
        <ele>132</ele>
        <time>2022-12-08T09:27:23Z</time>
      </trkpt>
      <trkpt lat="48.01293" lon="-3.88958">
        <ele>132.1</ele>
        <time>2022-12-08T09:27:24Z</time>
      </trkpt>
      <trkpt lat="48.01296" lon="-3.88961">
        <ele>132.1</ele>
        <time>2022-12-08T09:27:25Z</time>
      </trkpt>
      <trkpt lat="48.013" lon="-3.88964">
        <ele>132.2</ele>
        <time>2022-12-08T09:27:26Z</time>
      </trkpt>
      <trkpt lat="48.01304" lon="-3.88968">
        <ele>132.2</ele>
        <time>2022-12-08T09:27:27Z</time>
      </trkpt>
      <trkpt lat="48.01309" lon="-3.88971">
        <ele>132.3</ele>
        <time>2022-12-08T09:27:28Z</time>
      </trkpt>
      <trkpt lat="48.01313" lon="-3.88975">
        <ele>132.3</ele>
        <time>2022-12-08T09:27:29Z</time>
      </trkpt>
      <trkpt lat="48.01317" lon="-3.88979">
        <ele>132.3</ele>
        <time>2022-12-08T09:27:30Z</time>
      </trkpt>
      <trkpt lat="48.01321" lon="-3.88982">
        <ele>132.4</ele>
        <time>2022-12-08T09:27:31Z</time>
      </trkpt>
      <trkpt lat="48.01325" lon="-3.88985">
        <ele>132.4</ele>
        <time>2022-12-08T09:27:32Z</time>
      </trkpt>
      <trkpt lat="48.0133" lon="-3.88989">
        <ele>132.5</ele>
        <time>2022-12-08T09:27:33Z</time>
      </trkpt>
      <trkpt lat="48.01334" lon="-3.88992">
        <ele>132.5</ele>
        <time>2022-12-08T09:27:34Z</time>
      </trkpt>
      <trkpt lat="48.01338" lon="-3.88996">
        <ele>132.6</ele>
        <time>2022-12-08T09:27:35Z</time>
      </trkpt>
      <trkpt lat="48.01342" lon="-3.88999">
        <ele>132.6</ele>
        <time>2022-12-08T09:27:36Z</time>
      </trkpt>
      <trkpt lat="48.01347" lon="-3.89003">
        <ele>132.5</ele>
        <time>2022-12-08T09:27:37Z</time>
      </trkpt>
      <trkpt lat="48.01351" lon="-3.89007">
        <ele>132.5</ele>
        <time>2022-12-08T09:27:38Z</time>
      </trkpt>
      <trkpt lat="48.01355" lon="-3.8901">
        <ele>132.3</ele>
        <time>2022-12-08T09:27:39Z</time>
      </trkpt>
      <trkpt lat="48.01359" lon="-3.89014">
        <ele>132.2</ele>
        <time>2022-12-08T09:27:40Z</time>
      </trkpt>
      <trkpt lat="48.01363" lon="-3.89017">
        <ele>132.1</ele>
        <time>2022-12-08T09:27:41Z</time>
      </trkpt>
      <trkpt lat="48.01367" lon="-3.89021">
        <ele>132</ele>
        <time>2022-12-08T09:27:42Z</time>
      </trkpt>
      <trkpt lat="48.01372" lon="-3.89024">
        <ele>131.9</ele>
        <time>2022-12-08T09:27:43Z</time>
      </trkpt>
      <trkpt lat="48.01376" lon="-3.89027">
        <ele>131.9</ele>
        <time>2022-12-08T09:27:44Z</time>
      </trkpt>
      <trkpt lat="48.01381" lon="-3.89031">
        <ele>131.8</ele>
        <time>2022-12-08T09:27:45Z</time>
      </trkpt>
      <trkpt lat="48.01385" lon="-3.89035">
        <ele>131.8</ele>
        <time>2022-12-08T09:27:46Z</time>
      </trkpt>
      <trkpt lat="48.0139" lon="-3.89038">
        <ele>131.7</ele>
        <time>2022-12-08T09:27:47Z</time>
      </trkpt>
      <trkpt lat="48.01395" lon="-3.89042">
        <ele>131.6</ele>
        <time>2022-12-08T09:27:48Z</time>
      </trkpt>
      <trkpt lat="48.01399" lon="-3.89046">
        <ele>131.6</ele>
        <time>2022-12-08T09:27:49Z</time>
      </trkpt>
      <trkpt lat="48.01404" lon="-3.8905">
        <ele>131.6</ele>
        <time>2022-12-08T09:27:50Z</time>
      </trkpt>
      <trkpt lat="48.01409" lon="-3.89054">
        <ele>131.6</ele>
        <time>2022-12-08T09:27:51Z</time>
      </trkpt>
      <trkpt lat="48.01415" lon="-3.89058">
        <ele>131.6</ele>
        <time>2022-12-08T09:27:52Z</time>
      </trkpt>
      <trkpt lat="48.0142" lon="-3.89062">
        <ele>131.5</ele>
        <time>2022-12-08T09:27:53Z</time>
      </trkpt>
      <trkpt lat="48.01425" lon="-3.89066">
        <ele>131.3</ele>
        <time>2022-12-08T09:27:54Z</time>
      </trkpt>
      <trkpt lat="48.0143" lon="-3.89071">
        <ele>131.1</ele>
        <time>2022-12-08T09:27:55Z</time>
      </trkpt>
      <trkpt lat="48.01436" lon="-3.89075">
        <ele>130.8</ele>
        <time>2022-12-08T09:27:56Z</time>
      </trkpt>
      <trkpt lat="48.01442" lon="-3.89079">
        <ele>130.5</ele>
        <time>2022-12-08T09:27:57Z</time>
      </trkpt>
      <trkpt lat="48.01447" lon="-3.89084">
        <ele>130.2</ele>
        <time>2022-12-08T09:27:58Z</time>
      </trkpt>
      <trkpt lat="48.01453" lon="-3.89088">
        <ele>130.1</ele>
        <time>2022-12-08T09:27:59Z</time>
      </trkpt>
      <trkpt lat="48.01459" lon="-3.89092">
        <ele>129.9</ele>
        <time>2022-12-08T09:28:00Z</time>
      </trkpt>
      <trkpt lat="48.01465" lon="-3.89097">
        <ele>129.8</ele>
        <time>2022-12-08T09:28:01Z</time>
      </trkpt>
      <trkpt lat="48.01471" lon="-3.89101">
        <ele>129.6</ele>
        <time>2022-12-08T09:28:02Z</time>
      </trkpt>
      <trkpt lat="48.01476" lon="-3.89106">
        <ele>129.5</ele>
        <time>2022-12-08T09:28:03Z</time>
      </trkpt>
      <trkpt lat="48.01482" lon="-3.89112">
        <ele>129.4</ele>
        <time>2022-12-08T09:28:04Z</time>
      </trkpt>
      <trkpt lat="48.01487" lon="-3.89116">
        <ele>129.3</ele>
        <time>2022-12-08T09:28:05Z</time>
      </trkpt>
      <trkpt lat="48.01493" lon="-3.89121">
        <ele>129.1</ele>
        <time>2022-12-08T09:28:06Z</time>
      </trkpt>
      <trkpt lat="48.01498" lon="-3.89125">
        <ele>128.9</ele>
        <time>2022-12-08T09:28:07Z</time>
      </trkpt>
      <trkpt lat="48.01504" lon="-3.8913">
        <ele>128.5</ele>
        <time>2022-12-08T09:28:08Z</time>
      </trkpt>
      <trkpt lat="48.01509" lon="-3.89134">
        <ele>128.3</ele>
        <time>2022-12-08T09:28:09Z</time>
      </trkpt>
      <trkpt lat="48.01514" lon="-3.89138">
        <ele>128</ele>
        <time>2022-12-08T09:28:10Z</time>
      </trkpt>
      <trkpt lat="48.01519" lon="-3.89142">
        <ele>127.7</ele>
        <time>2022-12-08T09:28:11Z</time>
      </trkpt>
      <trkpt lat="48.01525" lon="-3.89145">
        <ele>127.3</ele>
        <time>2022-12-08T09:28:12Z</time>
      </trkpt>
      <trkpt lat="48.01531" lon="-3.89147">
        <ele>126.9</ele>
        <time>2022-12-08T09:28:13Z</time>
      </trkpt>
      <trkpt lat="48.01537" lon="-3.89149">
        <ele>126.4</ele>
        <time>2022-12-08T09:28:14Z</time>
      </trkpt>
      <trkpt lat="48.01544" lon="-3.89151">
        <ele>125.8</ele>
        <time>2022-12-08T09:28:15Z</time>
      </trkpt>
      <trkpt lat="48.01551" lon="-3.89151">
        <ele>125.1</ele>
        <time>2022-12-08T09:28:16Z</time>
      </trkpt>
      <trkpt lat="48.01559" lon="-3.8915">
        <ele>124.4</ele>
        <time>2022-12-08T09:28:17Z</time>
      </trkpt>
      <trkpt lat="48.01567" lon="-3.89147">
        <ele>123.4</ele>
        <time>2022-12-08T09:28:18Z</time>
      </trkpt>
      <trkpt lat="48.01575" lon="-3.89143">
        <ele>122.5</ele>
        <time>2022-12-08T09:28:19Z</time>
      </trkpt>
      <trkpt lat="48.01584" lon="-3.89137">
        <ele>121.3</ele>
        <time>2022-12-08T09:28:20Z</time>
      </trkpt>
      <trkpt lat="48.01594" lon="-3.89133">
        <ele>120</ele>
        <time>2022-12-08T09:28:21Z</time>
      </trkpt>
      <trkpt lat="48.01604" lon="-3.89127">
        <ele>118.7</ele>
        <time>2022-12-08T09:28:22Z</time>
      </trkpt>
      <trkpt lat="48.01614" lon="-3.89121">
        <ele>117.3</ele>
        <time>2022-12-08T09:28:23Z</time>
      </trkpt>
      <trkpt lat="48.01625" lon="-3.89115">
        <ele>116.2</ele>
        <time>2022-12-08T09:28:24Z</time>
      </trkpt>
      <trkpt lat="48.01636" lon="-3.89109">
        <ele>115.5</ele>
        <time>2022-12-08T09:28:25Z</time>
      </trkpt>
      <trkpt lat="48.01647" lon="-3.89101">
        <ele>114.9</ele>
        <time>2022-12-08T09:28:26Z</time>
      </trkpt>
      <trkpt lat="48.01658" lon="-3.89093">
        <ele>113.8</ele>
        <time>2022-12-08T09:28:27Z</time>
      </trkpt>
      <trkpt lat="48.01667" lon="-3.89082">
        <ele>113.7</ele>
        <time>2022-12-08T09:28:28Z</time>
      </trkpt>
      <trkpt lat="48.01675" lon="-3.8907">
        <ele>113.5</ele>
        <time>2022-12-08T09:28:29Z</time>
      </trkpt>
      <trkpt lat="48.01682" lon="-3.89058">
        <ele>113.1</ele>
        <time>2022-12-08T09:28:30Z</time>
      </trkpt>
      <trkpt lat="48.01689" lon="-3.89046">
        <ele>112.3</ele>
        <time>2022-12-08T09:28:31Z</time>
      </trkpt>
      <trkpt lat="48.01697" lon="-3.89033">
        <ele>111.3</ele>
        <time>2022-12-08T09:28:32Z</time>
      </trkpt>
      <trkpt lat="48.01704" lon="-3.8902">
        <ele>110.1</ele>
        <time>2022-12-08T09:28:33Z</time>
      </trkpt>
      <trkpt lat="48.0171" lon="-3.89006">
        <ele>108.9</ele>
        <time>2022-12-08T09:28:34Z</time>
      </trkpt>
      <trkpt lat="48.01717" lon="-3.88991">
        <ele>107.7</ele>
        <time>2022-12-08T09:28:35Z</time>
      </trkpt>
      <trkpt lat="48.01723" lon="-3.88976">
        <ele>106.5</ele>
        <time>2022-12-08T09:28:36Z</time>
      </trkpt>
      <trkpt lat="48.0173" lon="-3.88961">
        <ele>105.4</ele>
        <time>2022-12-08T09:28:37Z</time>
      </trkpt>
      <trkpt lat="48.01736" lon="-3.88946">
        <ele>104.5</ele>
        <time>2022-12-08T09:28:38Z</time>
      </trkpt>
      <trkpt lat="48.01744" lon="-3.88933">
        <ele>103.6</ele>
        <time>2022-12-08T09:28:39Z</time>
      </trkpt>
      <trkpt lat="48.01751" lon="-3.88919">
        <ele>102.8</ele>
        <time>2022-12-08T09:28:40Z</time>
      </trkpt>
      <trkpt lat="48.01758" lon="-3.88906">
        <ele>102</ele>
        <time>2022-12-08T09:28:41Z</time>
      </trkpt>
      <trkpt lat="48.01767" lon="-3.88893">
        <ele>101.4</ele>
        <time>2022-12-08T09:28:42Z</time>
      </trkpt>
      <trkpt lat="48.01776" lon="-3.88883">
        <ele>101</ele>
        <time>2022-12-08T09:28:43Z</time>
      </trkpt>
      <trkpt lat="48.01786" lon="-3.88875">
        <ele>100.9</ele>
        <time>2022-12-08T09:28:44Z</time>
      </trkpt>
      <trkpt lat="48.01796" lon="-3.8887">
        <ele>100.9</ele>
        <time>2022-12-08T09:28:45Z</time>
      </trkpt>
      <trkpt lat="48.01807" lon="-3.88865">
        <ele>101.1</ele>
        <time>2022-12-08T09:28:46Z</time>
      </trkpt>
      <trkpt lat="48.01816" lon="-3.88861">
        <ele>101.4</ele>
        <time>2022-12-08T09:28:47Z</time>
      </trkpt>
      <trkpt lat="48.01826" lon="-3.88858">
        <ele>101.8</ele>
        <time>2022-12-08T09:28:48Z</time>
      </trkpt>
      <trkpt lat="48.01835" lon="-3.88855">
        <ele>102.3</ele>
        <time>2022-12-08T09:28:49Z</time>
      </trkpt>
      <trkpt lat="48.01843" lon="-3.88852">
        <ele>102.9</ele>
        <time>2022-12-08T09:28:50Z</time>
      </trkpt>
      <trkpt lat="48.01851" lon="-3.88848">
        <ele>103.6</ele>
        <time>2022-12-08T09:28:51Z</time>
      </trkpt>
      <trkpt lat="48.01857" lon="-3.88843">
        <ele>104.2</ele>
        <time>2022-12-08T09:28:52Z</time>
      </trkpt>
      <trkpt lat="48.01863" lon="-3.88839">
        <ele>104.9</ele>
        <time>2022-12-08T09:28:53Z</time>
      </trkpt>
      <trkpt lat="48.01867" lon="-3.88836">
        <ele>105.5</ele>
        <time>2022-12-08T09:28:54Z</time>
      </trkpt>
      <trkpt lat="48.01872" lon="-3.88832">
        <ele>106</ele>
        <time>2022-12-08T09:28:55Z</time>
      </trkpt>
      <trkpt lat="48.01875" lon="-3.88829">
        <ele>106.5</ele>
        <time>2022-12-08T09:28:56Z</time>
      </trkpt>
      <trkpt lat="48.01878" lon="-3.88826">
        <ele>106.9</ele>
        <time>2022-12-08T09:28:57Z</time>
      </trkpt>
      <trkpt lat="48.01881" lon="-3.88824">
        <ele>107.2</ele>
        <time>2022-12-08T09:28:58Z</time>
      </trkpt>
      <trkpt lat="48.01883" lon="-3.88821">
        <ele>107.5</ele>
        <time>2022-12-08T09:28:59Z</time>
      </trkpt>
      <trkpt lat="48.01884" lon="-3.8882">
        <ele>107.7</ele>
        <time>2022-12-08T09:29:00Z</time>
      </trkpt>
      <trkpt lat="48.01887" lon="-3.88817">
        <ele>108.1</ele>
        <time>2022-12-08T09:29:01Z</time>
      </trkpt>
      <trkpt lat="48.0189" lon="-3.88814">
        <ele>108.5</ele>
        <time>2022-12-08T09:29:02Z</time>
      </trkpt>
      <trkpt lat="48.01893" lon="-3.8881">
        <ele>109</ele>
        <time>2022-12-08T09:29:03Z</time>
      </trkpt>
      <trkpt lat="48.01895" lon="-3.88808">
        <ele>109.3</ele>
        <time>2022-12-08T09:29:04Z</time>
      </trkpt>
      <trkpt lat="48.01898" lon="-3.88805">
        <ele>109.7</ele>
        <time>2022-12-08T09:29:05Z</time>
      </trkpt>
      <trkpt lat="48.01898" lon="-3.88805">
        <ele>109.8</ele>
        <time>2022-12-08T09:29:06Z</time>
      </trkpt>
      <trkpt lat="48.01901" lon="-3.88801">
        <ele>110.2</ele>
        <time>2022-12-08T09:29:07Z</time>
      </trkpt>
      <trkpt lat="48.01905" lon="-3.88796">
        <ele>110.8</ele>
        <time>2022-12-08T09:29:09Z</time>
      </trkpt>
      <trkpt lat="48.01907" lon="-3.88793">
        <ele>111.2</ele>
        <time>2022-12-08T09:29:10Z</time>
      </trkpt>
      <trkpt lat="48.01909" lon="-3.8879">
        <ele>111.6</ele>
        <time>2022-12-08T09:29:11Z</time>
      </trkpt>
      <trkpt lat="48.01913" lon="-3.88786">
        <ele>112.2</ele>
        <time>2022-12-08T09:29:13Z</time>
      </trkpt>
      <trkpt lat="48.01916" lon="-3.88782">
        <ele>112.7</ele>
        <time>2022-12-08T09:29:14Z</time>
      </trkpt>
      <trkpt lat="48.01919" lon="-3.88779">
        <ele>113.1</ele>
        <time>2022-12-08T09:29:15Z</time>
      </trkpt>
      <trkpt lat="48.01921" lon="-3.88777">
        <ele>113.4</ele>
        <time>2022-12-08T09:29:16Z</time>
      </trkpt>
      <trkpt lat="48.01923" lon="-3.88774">
        <ele>113.8</ele>
        <time>2022-12-08T09:29:17Z</time>
      </trkpt>
      <trkpt lat="48.01925" lon="-3.88771">
        <ele>114.1</ele>
        <time>2022-12-08T09:29:18Z</time>
      </trkpt>
      <trkpt lat="48.01929" lon="-3.88768">
        <ele>114.6</ele>
        <time>2022-12-08T09:29:19Z</time>
      </trkpt>
      <trkpt lat="48.0193" lon="-3.88767">
        <ele>114.7</ele>
        <time>2022-12-08T09:29:20Z</time>
      </trkpt>
      <trkpt lat="48.01933" lon="-3.88765">
        <ele>115</ele>
        <time>2022-12-08T09:29:21Z</time>
      </trkpt>
      <trkpt lat="48.01935" lon="-3.88762">
        <ele>115.4</ele>
        <time>2022-12-08T09:29:22Z</time>
      </trkpt>
      <trkpt lat="48.01937" lon="-3.88759">
        <ele>115.7</ele>
        <time>2022-12-08T09:29:23Z</time>
      </trkpt>
      <trkpt lat="48.01939" lon="-3.88757">
        <ele>116</ele>
        <time>2022-12-08T09:29:24Z</time>
      </trkpt>
      <trkpt lat="48.01942" lon="-3.88755">
        <ele>116.2</ele>
        <time>2022-12-08T09:29:25Z</time>
      </trkpt>
      <trkpt lat="48.01944" lon="-3.88753">
        <ele>116.5</ele>
        <time>2022-12-08T09:29:26Z</time>
      </trkpt>
      <trkpt lat="48.01945" lon="-3.88752">
        <ele>116.6</ele>
        <time>2022-12-08T09:29:27Z</time>
      </trkpt>
      <trkpt lat="48.01949" lon="-3.88749">
        <ele>117</ele>
        <time>2022-12-08T09:29:28Z</time>
      </trkpt>
      <trkpt lat="48.0195" lon="-3.88748">
        <ele>117.1</ele>
        <time>2022-12-08T09:29:29Z</time>
      </trkpt>
      <trkpt lat="48.01954" lon="-3.88744">
        <ele>117.5</ele>
        <time>2022-12-08T09:29:31Z</time>
      </trkpt>
      <trkpt lat="48.01957" lon="-3.88739">
        <ele>117.9</ele>
        <time>2022-12-08T09:29:32Z</time>
      </trkpt>
      <trkpt lat="48.0196" lon="-3.88737">
        <ele>118.2</ele>
        <time>2022-12-08T09:29:33Z</time>
      </trkpt>
      <trkpt lat="48.01963" lon="-3.88734">
        <ele>118.5</ele>
        <time>2022-12-08T09:29:34Z</time>
      </trkpt>
      <trkpt lat="48.01964" lon="-3.88733">
        <ele>118.6</ele>
        <time>2022-12-08T09:29:35Z</time>
      </trkpt>
      <trkpt lat="48.01967" lon="-3.8873">
        <ele>118.8</ele>
        <time>2022-12-08T09:29:36Z</time>
      </trkpt>
      <trkpt lat="48.01969" lon="-3.88727">
        <ele>118.9</ele>
        <time>2022-12-08T09:29:37Z</time>
      </trkpt>
      <trkpt lat="48.01971" lon="-3.88725">
        <ele>119.1</ele>
        <time>2022-12-08T09:29:38Z</time>
      </trkpt>
      <trkpt lat="48.01974" lon="-3.88722">
        <ele>119.3</ele>
        <time>2022-12-08T09:29:39Z</time>
      </trkpt>
      <trkpt lat="48.01974" lon="-3.88721">
        <ele>119.4</ele>
        <time>2022-12-08T09:29:40Z</time>
      </trkpt>
      <trkpt lat="48.01977" lon="-3.88717">
        <ele>119.6</ele>
        <time>2022-12-08T09:29:41Z</time>
      </trkpt>
      <trkpt lat="48.01978" lon="-3.88715">
        <ele>119.7</ele>
        <time>2022-12-08T09:29:42Z</time>
      </trkpt>
      <trkpt lat="48.01981" lon="-3.88712">
        <ele>119.9</ele>
        <time>2022-12-08T09:29:43Z</time>
      </trkpt>
      <trkpt lat="48.01982" lon="-3.88711">
        <ele>119.9</ele>
        <time>2022-12-08T09:29:44Z</time>
      </trkpt>
      <trkpt lat="48.01984" lon="-3.88708">
        <ele>120.1</ele>
        <time>2022-12-08T09:29:45Z</time>
      </trkpt>
      <trkpt lat="48.01986" lon="-3.88705">
        <ele>120.2</ele>
        <time>2022-12-08T09:29:46Z</time>
      </trkpt>
      <trkpt lat="48.01989" lon="-3.88701">
        <ele>120.4</ele>
        <time>2022-12-08T09:29:47Z</time>
      </trkpt>
      <trkpt lat="48.01992" lon="-3.88698">
        <ele>120.5</ele>
        <time>2022-12-08T09:29:48Z</time>
      </trkpt>
      <trkpt lat="48.01997" lon="-3.88692">
        <ele>120.7</ele>
        <time>2022-12-08T09:29:50Z</time>
      </trkpt>
      <trkpt lat="48.01999" lon="-3.88689">
        <ele>120.9</ele>
        <time>2022-12-08T09:29:51Z</time>
      </trkpt>
      <trkpt lat="48.02001" lon="-3.88685">
        <ele>121</ele>
        <time>2022-12-08T09:29:52Z</time>
      </trkpt>
      <trkpt lat="48.02004" lon="-3.88683">
        <ele>121.1</ele>
        <time>2022-12-08T09:29:53Z</time>
      </trkpt>
      <trkpt lat="48.02007" lon="-3.8868">
        <ele>121.2</ele>
        <time>2022-12-08T09:29:54Z</time>
      </trkpt>
      <trkpt lat="48.02009" lon="-3.88676">
        <ele>121.3</ele>
        <time>2022-12-08T09:29:55Z</time>
      </trkpt>
      <trkpt lat="48.02014" lon="-3.88669">
        <ele>121.5</ele>
        <time>2022-12-08T09:29:57Z</time>
      </trkpt>
      <trkpt lat="48.02018" lon="-3.88663">
        <ele>121.7</ele>
        <time>2022-12-08T09:29:59Z</time>
      </trkpt>
      <trkpt lat="48.02022" lon="-3.88658">
        <ele>121.8</ele>
        <time>2022-12-08T09:30:00Z</time>
      </trkpt>
      <trkpt lat="48.02028" lon="-3.88651">
        <ele>122</ele>
        <time>2022-12-08T09:30:02Z</time>
      </trkpt>
      <trkpt lat="48.02031" lon="-3.88646">
        <ele>122.1</ele>
        <time>2022-12-08T09:30:03Z</time>
      </trkpt>
      <trkpt lat="48.02034" lon="-3.88643">
        <ele>122.1</ele>
        <time>2022-12-08T09:30:04Z</time>
      </trkpt>
      <trkpt lat="48.02036" lon="-3.88638">
        <ele>122.2</ele>
        <time>2022-12-08T09:30:05Z</time>
      </trkpt>
      <trkpt lat="48.02039" lon="-3.88633">
        <ele>122.2</ele>
        <time>2022-12-08T09:30:06Z</time>
      </trkpt>
      <trkpt lat="48.02042" lon="-3.88629">
        <ele>122.3</ele>
        <time>2022-12-08T09:30:07Z</time>
      </trkpt>
      <trkpt lat="48.02046" lon="-3.88626">
        <ele>122.3</ele>
        <time>2022-12-08T09:30:08Z</time>
      </trkpt>
      <trkpt lat="48.0205" lon="-3.88622">
        <ele>122.4</ele>
        <time>2022-12-08T09:30:09Z</time>
      </trkpt>
      <trkpt lat="48.02053" lon="-3.88617">
        <ele>122.4</ele>
        <time>2022-12-08T09:30:10Z</time>
      </trkpt>
      <trkpt lat="48.02057" lon="-3.88613">
        <ele>122.5</ele>
        <time>2022-12-08T09:30:11Z</time>
      </trkpt>
      <trkpt lat="48.02061" lon="-3.88609">
        <ele>122.5</ele>
        <time>2022-12-08T09:30:12Z</time>
      </trkpt>
      <trkpt lat="48.02064" lon="-3.88605">
        <ele>122.5</ele>
        <time>2022-12-08T09:30:13Z</time>
      </trkpt>
      <trkpt lat="48.02068" lon="-3.88601">
        <ele>122.5</ele>
        <time>2022-12-08T09:30:14Z</time>
      </trkpt>
      <trkpt lat="48.02072" lon="-3.88597">
        <ele>122.5</ele>
        <time>2022-12-08T09:30:15Z</time>
      </trkpt>
      <trkpt lat="48.02076" lon="-3.88593">
        <ele>122.5</ele>
        <time>2022-12-08T09:30:16Z</time>
      </trkpt>
      <trkpt lat="48.0208" lon="-3.88589">
        <ele>122.5</ele>
        <time>2022-12-08T09:30:17Z</time>
      </trkpt>
      <trkpt lat="48.02083" lon="-3.88586">
        <ele>122.6</ele>
        <time>2022-12-08T09:30:18Z</time>
      </trkpt>
      <trkpt lat="48.02087" lon="-3.88583">
        <ele>122.6</ele>
        <time>2022-12-08T09:30:19Z</time>
      </trkpt>
      <trkpt lat="48.02091" lon="-3.8858">
        <ele>122.6</ele>
        <time>2022-12-08T09:30:20Z</time>
      </trkpt>
      <trkpt lat="48.02095" lon="-3.88575">
        <ele>122.7</ele>
        <time>2022-12-08T09:30:21Z</time>
      </trkpt>
      <trkpt lat="48.02098" lon="-3.88571">
        <ele>122.7</ele>
        <time>2022-12-08T09:30:22Z</time>
      </trkpt>
      <trkpt lat="48.02102" lon="-3.88567">
        <ele>122.8</ele>
        <time>2022-12-08T09:30:23Z</time>
      </trkpt>
      <trkpt lat="48.02106" lon="-3.88563">
        <ele>122.9</ele>
        <time>2022-12-08T09:30:24Z</time>
      </trkpt>
      <trkpt lat="48.0211" lon="-3.88559">
        <ele>123</ele>
        <time>2022-12-08T09:30:25Z</time>
      </trkpt>
      <trkpt lat="48.02113" lon="-3.88555">
        <ele>123</ele>
        <time>2022-12-08T09:30:26Z</time>
      </trkpt>
      <trkpt lat="48.02117" lon="-3.88551">
        <ele>123.1</ele>
        <time>2022-12-08T09:30:27Z</time>
      </trkpt>
      <trkpt lat="48.0212" lon="-3.88547">
        <ele>123.1</ele>
        <time>2022-12-08T09:30:28Z</time>
      </trkpt>
      <trkpt lat="48.02124" lon="-3.88543">
        <ele>123.2</ele>
        <time>2022-12-08T09:30:29Z</time>
      </trkpt>
      <trkpt lat="48.02128" lon="-3.88539">
        <ele>123.2</ele>
        <time>2022-12-08T09:30:30Z</time>
      </trkpt>
      <trkpt lat="48.02131" lon="-3.88535">
        <ele>123.3</ele>
        <time>2022-12-08T09:30:31Z</time>
      </trkpt>
      <trkpt lat="48.02135" lon="-3.8853">
        <ele>123.3</ele>
        <time>2022-12-08T09:30:32Z</time>
      </trkpt>
      <trkpt lat="48.02139" lon="-3.88526">
        <ele>123.4</ele>
        <time>2022-12-08T09:30:33Z</time>
      </trkpt>
      <trkpt lat="48.02142" lon="-3.88522">
        <ele>123.4</ele>
        <time>2022-12-08T09:30:34Z</time>
      </trkpt>
      <trkpt lat="48.02146" lon="-3.88518">
        <ele>123.5</ele>
        <time>2022-12-08T09:30:35Z</time>
      </trkpt>
      <trkpt lat="48.0215" lon="-3.88513">
        <ele>123.5</ele>
        <time>2022-12-08T09:30:36Z</time>
      </trkpt>
      <trkpt lat="48.02154" lon="-3.88509">
        <ele>123.6</ele>
        <time>2022-12-08T09:30:37Z</time>
      </trkpt>
      <trkpt lat="48.02158" lon="-3.88505">
        <ele>123.7</ele>
        <time>2022-12-08T09:30:38Z</time>
      </trkpt>
      <trkpt lat="48.02162" lon="-3.88501">
        <ele>123.8</ele>
        <time>2022-12-08T09:30:39Z</time>
      </trkpt>
      <trkpt lat="48.02166" lon="-3.88497">
        <ele>123.9</ele>
        <time>2022-12-08T09:30:40Z</time>
      </trkpt>
      <trkpt lat="48.0217" lon="-3.88494">
        <ele>124</ele>
        <time>2022-12-08T09:30:41Z</time>
      </trkpt>
      <trkpt lat="48.02174" lon="-3.8849">
        <ele>124.1</ele>
        <time>2022-12-08T09:30:42Z</time>
      </trkpt>
      <trkpt lat="48.02178" lon="-3.88487">
        <ele>124.3</ele>
        <time>2022-12-08T09:30:43Z</time>
      </trkpt>
      <trkpt lat="48.02181" lon="-3.88483">
        <ele>124.4</ele>
        <time>2022-12-08T09:30:44Z</time>
      </trkpt>
      <trkpt lat="48.02185" lon="-3.88479">
        <ele>124.5</ele>
        <time>2022-12-08T09:30:45Z</time>
      </trkpt>
      <trkpt lat="48.02189" lon="-3.88476">
        <ele>124.6</ele>
        <time>2022-12-08T09:30:46Z</time>
      </trkpt>
      <trkpt lat="48.02193" lon="-3.88473">
        <ele>124.7</ele>
        <time>2022-12-08T09:30:47Z</time>
      </trkpt>
      <trkpt lat="48.02197" lon="-3.88469">
        <ele>124.7</ele>
        <time>2022-12-08T09:30:48Z</time>
      </trkpt>
      <trkpt lat="48.02201" lon="-3.88466">
        <ele>124.8</ele>
        <time>2022-12-08T09:30:49Z</time>
      </trkpt>
      <trkpt lat="48.02205" lon="-3.88462">
        <ele>124.9</ele>
        <time>2022-12-08T09:30:50Z</time>
      </trkpt>
      <trkpt lat="48.02209" lon="-3.88458">
        <ele>125</ele>
        <time>2022-12-08T09:30:51Z</time>
      </trkpt>
      <trkpt lat="48.02213" lon="-3.88454">
        <ele>125.1</ele>
        <time>2022-12-08T09:30:52Z</time>
      </trkpt>
      <trkpt lat="48.02216" lon="-3.8845">
        <ele>125.2</ele>
        <time>2022-12-08T09:30:53Z</time>
      </trkpt>
      <trkpt lat="48.0222" lon="-3.88446">
        <ele>125.2</ele>
        <time>2022-12-08T09:30:54Z</time>
      </trkpt>
      <trkpt lat="48.02224" lon="-3.88442">
        <ele>125.3</ele>
        <time>2022-12-08T09:30:55Z</time>
      </trkpt>
      <trkpt lat="48.02228" lon="-3.88438">
        <ele>125.4</ele>
        <time>2022-12-08T09:30:56Z</time>
      </trkpt>
      <trkpt lat="48.02232" lon="-3.88433">
        <ele>125.5</ele>
        <time>2022-12-08T09:30:57Z</time>
      </trkpt>
      <trkpt lat="48.02236" lon="-3.88429">
        <ele>125.6</ele>
        <time>2022-12-08T09:30:58Z</time>
      </trkpt>
      <trkpt lat="48.0224" lon="-3.88425">
        <ele>125.8</ele>
        <time>2022-12-08T09:30:59Z</time>
      </trkpt>
      <trkpt lat="48.02244" lon="-3.8842">
        <ele>125.9</ele>
        <time>2022-12-08T09:31:00Z</time>
      </trkpt>
      <trkpt lat="48.02248" lon="-3.88416">
        <ele>126.1</ele>
        <time>2022-12-08T09:31:01Z</time>
      </trkpt>
      <trkpt lat="48.02252" lon="-3.88411">
        <ele>126.2</ele>
        <time>2022-12-08T09:31:02Z</time>
      </trkpt>
      <trkpt lat="48.02255" lon="-3.88406">
        <ele>126.4</ele>
        <time>2022-12-08T09:31:03Z</time>
      </trkpt>
      <trkpt lat="48.02258" lon="-3.88402">
        <ele>126.5</ele>
        <time>2022-12-08T09:31:04Z</time>
      </trkpt>
      <trkpt lat="48.02261" lon="-3.88397">
        <ele>126.7</ele>
        <time>2022-12-08T09:31:05Z</time>
      </trkpt>
      <trkpt lat="48.02264" lon="-3.88394">
        <ele>126.8</ele>
        <time>2022-12-08T09:31:06Z</time>
      </trkpt>
      <trkpt lat="48.02267" lon="-3.88389">
        <ele>127</ele>
        <time>2022-12-08T09:31:07Z</time>
      </trkpt>
      <trkpt lat="48.02269" lon="-3.88385">
        <ele>127.1</ele>
        <time>2022-12-08T09:31:08Z</time>
      </trkpt>
      <trkpt lat="48.02272" lon="-3.88381">
        <ele>127.2</ele>
        <time>2022-12-08T09:31:09Z</time>
      </trkpt>
      <trkpt lat="48.02275" lon="-3.88377">
        <ele>127.4</ele>
        <time>2022-12-08T09:31:10Z</time>
      </trkpt>
      <trkpt lat="48.02278" lon="-3.88371">
        <ele>127.5</ele>
        <time>2022-12-08T09:31:11Z</time>
      </trkpt>
      <trkpt lat="48.02282" lon="-3.88367">
        <ele>127.7</ele>
        <time>2022-12-08T09:31:12Z</time>
      </trkpt>
      <trkpt lat="48.02284" lon="-3.88364">
        <ele>127.9</ele>
        <time>2022-12-08T09:31:13Z</time>
      </trkpt>
      <trkpt lat="48.02287" lon="-3.88359">
        <ele>128.1</ele>
        <time>2022-12-08T09:31:14Z</time>
      </trkpt>
      <trkpt lat="48.02291" lon="-3.88354">
        <ele>128.3</ele>
        <time>2022-12-08T09:31:15Z</time>
      </trkpt>
      <trkpt lat="48.02295" lon="-3.8835">
        <ele>128.6</ele>
        <time>2022-12-08T09:31:16Z</time>
      </trkpt>
      <trkpt lat="48.02298" lon="-3.88345">
        <ele>128.8</ele>
        <time>2022-12-08T09:31:17Z</time>
      </trkpt>
      <trkpt lat="48.02301" lon="-3.88341">
        <ele>129</ele>
        <time>2022-12-08T09:31:18Z</time>
      </trkpt>
      <trkpt lat="48.02305" lon="-3.88337">
        <ele>129.2</ele>
        <time>2022-12-08T09:31:19Z</time>
      </trkpt>
      <trkpt lat="48.02309" lon="-3.88334">
        <ele>129.4</ele>
        <time>2022-12-08T09:31:20Z</time>
      </trkpt>
      <trkpt lat="48.02312" lon="-3.88331">
        <ele>129.6</ele>
        <time>2022-12-08T09:31:21Z</time>
      </trkpt>
      <trkpt lat="48.02316" lon="-3.88329">
        <ele>129.8</ele>
        <time>2022-12-08T09:31:22Z</time>
      </trkpt>
      <trkpt lat="48.0232" lon="-3.88325">
        <ele>130</ele>
        <time>2022-12-08T09:31:23Z</time>
      </trkpt>
      <trkpt lat="48.02324" lon="-3.88321">
        <ele>130.2</ele>
        <time>2022-12-08T09:31:24Z</time>
      </trkpt>
      <trkpt lat="48.02327" lon="-3.88317">
        <ele>130.4</ele>
        <time>2022-12-08T09:31:25Z</time>
      </trkpt>
      <trkpt lat="48.02331" lon="-3.88313">
        <ele>130.6</ele>
        <time>2022-12-08T09:31:26Z</time>
      </trkpt>
      <trkpt lat="48.02335" lon="-3.8831">
        <ele>130.8</ele>
        <time>2022-12-08T09:31:27Z</time>
      </trkpt>
      <trkpt lat="48.02338" lon="-3.88309">
        <ele>131</ele>
        <time>2022-12-08T09:31:28Z</time>
      </trkpt>
      <trkpt lat="48.0234" lon="-3.88307">
        <ele>131.1</ele>
        <time>2022-12-08T09:31:29Z</time>
      </trkpt>
      <trkpt lat="48.02344" lon="-3.88303">
        <ele>131.4</ele>
        <time>2022-12-08T09:31:30Z</time>
      </trkpt>
      <trkpt lat="48.02349" lon="-3.88298">
        <ele>131.7</ele>
        <time>2022-12-08T09:31:31Z</time>
      </trkpt>
      <trkpt lat="48.02352" lon="-3.88295">
        <ele>131.9</ele>
        <time>2022-12-08T09:31:32Z</time>
      </trkpt>
      <trkpt lat="48.02356" lon="-3.88291">
        <ele>132.2</ele>
        <time>2022-12-08T09:31:33Z</time>
      </trkpt>
      <trkpt lat="48.0236" lon="-3.88288">
        <ele>132.5</ele>
        <time>2022-12-08T09:31:34Z</time>
      </trkpt>
      <trkpt lat="48.02363" lon="-3.88284">
        <ele>132.7</ele>
        <time>2022-12-08T09:31:35Z</time>
      </trkpt>
      <trkpt lat="48.02367" lon="-3.8828">
        <ele>132.9</ele>
        <time>2022-12-08T09:31:36Z</time>
      </trkpt>
      <trkpt lat="48.0237" lon="-3.88277">
        <ele>133.2</ele>
        <time>2022-12-08T09:31:37Z</time>
      </trkpt>
      <trkpt lat="48.02374" lon="-3.88274">
        <ele>133.4</ele>
        <time>2022-12-08T09:31:38Z</time>
      </trkpt>
      <trkpt lat="48.02376" lon="-3.88272">
        <ele>133.6</ele>
        <time>2022-12-08T09:31:39Z</time>
      </trkpt>
      <trkpt lat="48.02379" lon="-3.88268">
        <ele>133.8</ele>
        <time>2022-12-08T09:31:40Z</time>
      </trkpt>
      <trkpt lat="48.02382" lon="-3.88267">
        <ele>134</ele>
        <time>2022-12-08T09:31:41Z</time>
      </trkpt>
      <trkpt lat="48.02388" lon="-3.88262">
        <ele>134.4</ele>
        <time>2022-12-08T09:31:43Z</time>
      </trkpt>
      <trkpt lat="48.02392" lon="-3.88258">
        <ele>134.7</ele>
        <time>2022-12-08T09:31:44Z</time>
      </trkpt>
      <trkpt lat="48.02396" lon="-3.88255">
        <ele>135</ele>
        <time>2022-12-08T09:31:45Z</time>
      </trkpt>
      <trkpt lat="48.024" lon="-3.88252">
        <ele>135.2</ele>
        <time>2022-12-08T09:31:46Z</time>
      </trkpt>
      <trkpt lat="48.02403" lon="-3.88249">
        <ele>135.4</ele>
        <time>2022-12-08T09:31:47Z</time>
      </trkpt>
      <trkpt lat="48.02406" lon="-3.88246">
        <ele>135.5</ele>
        <time>2022-12-08T09:31:48Z</time>
      </trkpt>
      <trkpt lat="48.02409" lon="-3.88243">
        <ele>135.7</ele>
        <time>2022-12-08T09:31:49Z</time>
      </trkpt>
      <trkpt lat="48.02412" lon="-3.88239">
        <ele>135.8</ele>
        <time>2022-12-08T09:31:50Z</time>
      </trkpt>
      <trkpt lat="48.02416" lon="-3.88236">
        <ele>136</ele>
        <time>2022-12-08T09:31:51Z</time>
      </trkpt>
      <trkpt lat="48.0242" lon="-3.88233">
        <ele>136.2</ele>
        <time>2022-12-08T09:31:52Z</time>
      </trkpt>
      <trkpt lat="48.02424" lon="-3.8823">
        <ele>136.3</ele>
        <time>2022-12-08T09:31:53Z</time>
      </trkpt>
      <trkpt lat="48.02427" lon="-3.88228">
        <ele>136.5</ele>
        <time>2022-12-08T09:31:54Z</time>
      </trkpt>
      <trkpt lat="48.02431" lon="-3.88224">
        <ele>136.6</ele>
        <time>2022-12-08T09:31:55Z</time>
      </trkpt>
      <trkpt lat="48.02434" lon="-3.88221">
        <ele>136.7</ele>
        <time>2022-12-08T09:31:56Z</time>
      </trkpt>
      <trkpt lat="48.02438" lon="-3.88218">
        <ele>136.9</ele>
        <time>2022-12-08T09:31:58Z</time>
      </trkpt>
      <trkpt lat="48.02442" lon="-3.88214">
        <ele>137.1</ele>
        <time>2022-12-08T09:31:59Z</time>
      </trkpt>
      <trkpt lat="48.02446" lon="-3.88209">
        <ele>137.2</ele>
        <time>2022-12-08T09:32:00Z</time>
      </trkpt>
      <trkpt lat="48.0245" lon="-3.88206">
        <ele>137.4</ele>
        <time>2022-12-08T09:32:01Z</time>
      </trkpt>
      <trkpt lat="48.02454" lon="-3.88203">
        <ele>137.5</ele>
        <time>2022-12-08T09:32:02Z</time>
      </trkpt>
      <trkpt lat="48.02457" lon="-3.88201">
        <ele>137.6</ele>
        <time>2022-12-08T09:32:03Z</time>
      </trkpt>
      <trkpt lat="48.02461" lon="-3.88197">
        <ele>137.7</ele>
        <time>2022-12-08T09:32:04Z</time>
      </trkpt>
      <trkpt lat="48.02463" lon="-3.88194">
        <ele>137.8</ele>
        <time>2022-12-08T09:32:05Z</time>
      </trkpt>
      <trkpt lat="48.0247" lon="-3.88188">
        <ele>137.9</ele>
        <time>2022-12-08T09:32:07Z</time>
      </trkpt>
      <trkpt lat="48.02472" lon="-3.88184">
        <ele>138</ele>
        <time>2022-12-08T09:32:08Z</time>
      </trkpt>
      <trkpt lat="48.02475" lon="-3.88181">
        <ele>138</ele>
        <time>2022-12-08T09:32:09Z</time>
      </trkpt>
      <trkpt lat="48.02479" lon="-3.88178">
        <ele>138.1</ele>
        <time>2022-12-08T09:32:10Z</time>
      </trkpt>
      <trkpt lat="48.02482" lon="-3.88175">
        <ele>138.1</ele>
        <time>2022-12-08T09:32:11Z</time>
      </trkpt>
      <trkpt lat="48.02485" lon="-3.88171">
        <ele>138.2</ele>
        <time>2022-12-08T09:32:12Z</time>
      </trkpt>
      <trkpt lat="48.02488" lon="-3.88168">
        <ele>138.2</ele>
        <time>2022-12-08T09:32:13Z</time>
      </trkpt>
      <trkpt lat="48.02492" lon="-3.88164">
        <ele>138.3</ele>
        <time>2022-12-08T09:32:14Z</time>
      </trkpt>
      <trkpt lat="48.02495" lon="-3.8816">
        <ele>138.3</ele>
        <time>2022-12-08T09:32:15Z</time>
      </trkpt>
      <trkpt lat="48.02498" lon="-3.88157">
        <ele>138.4</ele>
        <time>2022-12-08T09:32:16Z</time>
      </trkpt>
      <trkpt lat="48.02501" lon="-3.88153">
        <ele>138.5</ele>
        <time>2022-12-08T09:32:17Z</time>
      </trkpt>
      <trkpt lat="48.02505" lon="-3.88149">
        <ele>138.5</ele>
        <time>2022-12-08T09:32:18Z</time>
      </trkpt>
      <trkpt lat="48.02508" lon="-3.88144">
        <ele>138.6</ele>
        <time>2022-12-08T09:32:19Z</time>
      </trkpt>
      <trkpt lat="48.02511" lon="-3.8814">
        <ele>138.6</ele>
        <time>2022-12-08T09:32:20Z</time>
      </trkpt>
      <trkpt lat="48.02514" lon="-3.88136">
        <ele>138.7</ele>
        <time>2022-12-08T09:32:21Z</time>
      </trkpt>
      <trkpt lat="48.02517" lon="-3.88132">
        <ele>138.7</ele>
        <time>2022-12-08T09:32:22Z</time>
      </trkpt>
      <trkpt lat="48.0252" lon="-3.88127">
        <ele>138.8</ele>
        <time>2022-12-08T09:32:23Z</time>
      </trkpt>
      <trkpt lat="48.02524" lon="-3.88123">
        <ele>138.8</ele>
        <time>2022-12-08T09:32:24Z</time>
      </trkpt>
      <trkpt lat="48.02527" lon="-3.88118">
        <ele>138.9</ele>
        <time>2022-12-08T09:32:25Z</time>
      </trkpt>
      <trkpt lat="48.0253" lon="-3.88114">
        <ele>138.9</ele>
        <time>2022-12-08T09:32:26Z</time>
      </trkpt>
      <trkpt lat="48.02534" lon="-3.88109">
        <ele>138.9</ele>
        <time>2022-12-08T09:32:27Z</time>
      </trkpt>
      <trkpt lat="48.02538" lon="-3.88104">
        <ele>139</ele>
        <time>2022-12-08T09:32:28Z</time>
      </trkpt>
      <trkpt lat="48.02541" lon="-3.88099">
        <ele>139</ele>
        <time>2022-12-08T09:32:29Z</time>
      </trkpt>
      <trkpt lat="48.02545" lon="-3.88095">
        <ele>139.1</ele>
        <time>2022-12-08T09:32:30Z</time>
      </trkpt>
      <trkpt lat="48.02548" lon="-3.88091">
        <ele>139.1</ele>
        <time>2022-12-08T09:32:31Z</time>
      </trkpt>
      <trkpt lat="48.02552" lon="-3.88087">
        <ele>139.1</ele>
        <time>2022-12-08T09:32:32Z</time>
      </trkpt>
      <trkpt lat="48.02556" lon="-3.88082">
        <ele>139.2</ele>
        <time>2022-12-08T09:32:33Z</time>
      </trkpt>
      <trkpt lat="48.02559" lon="-3.88077">
        <ele>139.2</ele>
        <time>2022-12-08T09:32:34Z</time>
      </trkpt>
      <trkpt lat="48.02562" lon="-3.88072">
        <ele>139.2</ele>
        <time>2022-12-08T09:32:35Z</time>
      </trkpt>
      <trkpt lat="48.02565" lon="-3.88068">
        <ele>139.2</ele>
        <time>2022-12-08T09:32:36Z</time>
      </trkpt>
      <trkpt lat="48.02569" lon="-3.88064">
        <ele>139.3</ele>
        <time>2022-12-08T09:32:37Z</time>
      </trkpt>
      <trkpt lat="48.02572" lon="-3.88059">
        <ele>139.3</ele>
        <time>2022-12-08T09:32:38Z</time>
      </trkpt>
      <trkpt lat="48.02575" lon="-3.88054">
        <ele>139.3</ele>
        <time>2022-12-08T09:32:39Z</time>
      </trkpt>
      <trkpt lat="48.02578" lon="-3.88049">
        <ele>139.3</ele>
        <time>2022-12-08T09:32:40Z</time>
      </trkpt>
      <trkpt lat="48.02582" lon="-3.88045">
        <ele>139.4</ele>
        <time>2022-12-08T09:32:41Z</time>
      </trkpt>
      <trkpt lat="48.02585" lon="-3.8804">
        <ele>139.4</ele>
        <time>2022-12-08T09:32:42Z</time>
      </trkpt>
      <trkpt lat="48.02589" lon="-3.88035">
        <ele>139.4</ele>
        <time>2022-12-08T09:32:43Z</time>
      </trkpt>
      <trkpt lat="48.02592" lon="-3.88031">
        <ele>139.4</ele>
        <time>2022-12-08T09:32:44Z</time>
      </trkpt>
      <trkpt lat="48.02596" lon="-3.88026">
        <ele>139.4</ele>
        <time>2022-12-08T09:32:45Z</time>
      </trkpt>
      <trkpt lat="48.026" lon="-3.8802">
        <ele>139.4</ele>
        <time>2022-12-08T09:32:46Z</time>
      </trkpt>
      <trkpt lat="48.02603" lon="-3.88015">
        <ele>139.4</ele>
        <time>2022-12-08T09:32:47Z</time>
      </trkpt>
      <trkpt lat="48.02607" lon="-3.8801">
        <ele>139.4</ele>
        <time>2022-12-08T09:32:48Z</time>
      </trkpt>
      <trkpt lat="48.02611" lon="-3.88004">
        <ele>139.4</ele>
        <time>2022-12-08T09:32:49Z</time>
      </trkpt>
      <trkpt lat="48.02614" lon="-3.87999">
        <ele>139.4</ele>
        <time>2022-12-08T09:32:50Z</time>
      </trkpt>
      <trkpt lat="48.02617" lon="-3.87993">
        <ele>139.4</ele>
        <time>2022-12-08T09:32:51Z</time>
      </trkpt>
      <trkpt lat="48.0262" lon="-3.87986">
        <ele>139.4</ele>
        <time>2022-12-08T09:32:52Z</time>
      </trkpt>
      <trkpt lat="48.02622" lon="-3.87981">
        <ele>139.4</ele>
        <time>2022-12-08T09:32:53Z</time>
      </trkpt>
      <trkpt lat="48.02625" lon="-3.87974">
        <ele>139.4</ele>
        <time>2022-12-08T09:32:54Z</time>
      </trkpt>
      <trkpt lat="48.02628" lon="-3.87968">
        <ele>139.4</ele>
        <time>2022-12-08T09:32:55Z</time>
      </trkpt>
      <trkpt lat="48.02631" lon="-3.87962">
        <ele>139.5</ele>
        <time>2022-12-08T09:32:56Z</time>
      </trkpt>
      <trkpt lat="48.02633" lon="-3.87957">
        <ele>139.5</ele>
        <time>2022-12-08T09:32:57Z</time>
      </trkpt>
      <trkpt lat="48.02637" lon="-3.87951">
        <ele>139.5</ele>
        <time>2022-12-08T09:32:58Z</time>
      </trkpt>
      <trkpt lat="48.02639" lon="-3.87945">
        <ele>139.6</ele>
        <time>2022-12-08T09:32:59Z</time>
      </trkpt>
      <trkpt lat="48.02642" lon="-3.87939">
        <ele>139.6</ele>
        <time>2022-12-08T09:33:00Z</time>
      </trkpt>
      <trkpt lat="48.02645" lon="-3.87933">
        <ele>139.7</ele>
        <time>2022-12-08T09:33:01Z</time>
      </trkpt>
      <trkpt lat="48.02648" lon="-3.87927">
        <ele>139.8</ele>
        <time>2022-12-08T09:33:02Z</time>
      </trkpt>
      <trkpt lat="48.02651" lon="-3.87921">
        <ele>139.9</ele>
        <time>2022-12-08T09:33:03Z</time>
      </trkpt>
      <trkpt lat="48.02654" lon="-3.87916">
        <ele>140</ele>
        <time>2022-12-08T09:33:04Z</time>
      </trkpt>
      <trkpt lat="48.02656" lon="-3.8791">
        <ele>140.2</ele>
        <time>2022-12-08T09:33:05Z</time>
      </trkpt>
      <trkpt lat="48.02658" lon="-3.87906">
        <ele>140.2</ele>
        <time>2022-12-08T09:33:06Z</time>
      </trkpt>
      <trkpt lat="48.02662" lon="-3.87898">
        <ele>140.4</ele>
        <time>2022-12-08T09:33:07Z</time>
      </trkpt>
      <trkpt lat="48.02664" lon="-3.87892">
        <ele>140.6</ele>
        <time>2022-12-08T09:33:08Z</time>
      </trkpt>
      <trkpt lat="48.02667" lon="-3.87887">
        <ele>140.7</ele>
        <time>2022-12-08T09:33:09Z</time>
      </trkpt>
      <trkpt lat="48.0267" lon="-3.87881">
        <ele>140.9</ele>
        <time>2022-12-08T09:33:10Z</time>
      </trkpt>
      <trkpt lat="48.02672" lon="-3.87875">
        <ele>141</ele>
        <time>2022-12-08T09:33:11Z</time>
      </trkpt>
      <trkpt lat="48.02675" lon="-3.8787">
        <ele>141.1</ele>
        <time>2022-12-08T09:33:12Z</time>
      </trkpt>
      <trkpt lat="48.02679" lon="-3.87864">
        <ele>141.2</ele>
        <time>2022-12-08T09:33:13Z</time>
      </trkpt>
      <trkpt lat="48.02681" lon="-3.87859">
        <ele>141.3</ele>
        <time>2022-12-08T09:33:14Z</time>
      </trkpt>
      <trkpt lat="48.02684" lon="-3.87853">
        <ele>141.5</ele>
        <time>2022-12-08T09:33:15Z</time>
      </trkpt>
      <trkpt lat="48.02687" lon="-3.87849">
        <ele>141.5</ele>
        <time>2022-12-08T09:33:16Z</time>
      </trkpt>
      <trkpt lat="48.02689" lon="-3.87843">
        <ele>141.7</ele>
        <time>2022-12-08T09:33:17Z</time>
      </trkpt>
      <trkpt lat="48.02692" lon="-3.87838">
        <ele>141.8</ele>
        <time>2022-12-08T09:33:18Z</time>
      </trkpt>
      <trkpt lat="48.02695" lon="-3.87833">
        <ele>141.9</ele>
        <time>2022-12-08T09:33:19Z</time>
      </trkpt>
      <trkpt lat="48.02696" lon="-3.87828">
        <ele>142</ele>
        <time>2022-12-08T09:33:20Z</time>
      </trkpt>
      <trkpt lat="48.02699" lon="-3.87823">
        <ele>142.1</ele>
        <time>2022-12-08T09:33:21Z</time>
      </trkpt>
      <trkpt lat="48.02703" lon="-3.87816">
        <ele>142.3</ele>
        <time>2022-12-08T09:33:23Z</time>
      </trkpt>
      <trkpt lat="48.02706" lon="-3.87808">
        <ele>142.6</ele>
        <time>2022-12-08T09:33:24Z</time>
      </trkpt>
      <trkpt lat="48.02708" lon="-3.87802">
        <ele>142.8</ele>
        <time>2022-12-08T09:33:25Z</time>
      </trkpt>
      <trkpt lat="48.02711" lon="-3.87796">
        <ele>143</ele>
        <time>2022-12-08T09:33:26Z</time>
      </trkpt>
      <trkpt lat="48.02713" lon="-3.8779">
        <ele>143.3</ele>
        <time>2022-12-08T09:33:27Z</time>
      </trkpt>
      <trkpt lat="48.02715" lon="-3.87784">
        <ele>143.5</ele>
        <time>2022-12-08T09:33:28Z</time>
      </trkpt>
      <trkpt lat="48.02716" lon="-3.87778">
        <ele>143.7</ele>
        <time>2022-12-08T09:33:29Z</time>
      </trkpt>
      <trkpt lat="48.02718" lon="-3.87773">
        <ele>143.9</ele>
        <time>2022-12-08T09:33:30Z</time>
      </trkpt>
      <trkpt lat="48.0272" lon="-3.87768">
        <ele>144.2</ele>
        <time>2022-12-08T09:33:31Z</time>
      </trkpt>
      <trkpt lat="48.02721" lon="-3.87763">
        <ele>144.4</ele>
        <time>2022-12-08T09:33:32Z</time>
      </trkpt>
      <trkpt lat="48.02723" lon="-3.87758">
        <ele>144.6</ele>
        <time>2022-12-08T09:33:33Z</time>
      </trkpt>
      <trkpt lat="48.02724" lon="-3.87753">
        <ele>144.8</ele>
        <time>2022-12-08T09:33:34Z</time>
      </trkpt>
      <trkpt lat="48.02725" lon="-3.87747">
        <ele>145</ele>
        <time>2022-12-08T09:33:35Z</time>
      </trkpt>
      <trkpt lat="48.02727" lon="-3.87741">
        <ele>145.3</ele>
        <time>2022-12-08T09:33:36Z</time>
      </trkpt>
      <trkpt lat="48.02728" lon="-3.87735">
        <ele>145.5</ele>
        <time>2022-12-08T09:33:37Z</time>
      </trkpt>
      <trkpt lat="48.02729" lon="-3.87729">
        <ele>145.7</ele>
        <time>2022-12-08T09:33:38Z</time>
      </trkpt>
      <trkpt lat="48.0273" lon="-3.87724">
        <ele>145.9</ele>
        <time>2022-12-08T09:33:39Z</time>
      </trkpt>
      <trkpt lat="48.02732" lon="-3.87719">
        <ele>146.1</ele>
        <time>2022-12-08T09:33:40Z</time>
      </trkpt>
      <trkpt lat="48.02733" lon="-3.87712">
        <ele>146.4</ele>
        <time>2022-12-08T09:33:41Z</time>
      </trkpt>
      <trkpt lat="48.02734" lon="-3.87709">
        <ele>146.5</ele>
        <time>2022-12-08T09:33:42Z</time>
      </trkpt>
      <trkpt lat="48.02735" lon="-3.87703">
        <ele>146.7</ele>
        <time>2022-12-08T09:33:43Z</time>
      </trkpt>
      <trkpt lat="48.02736" lon="-3.87698">
        <ele>146.9</ele>
        <time>2022-12-08T09:33:44Z</time>
      </trkpt>
      <trkpt lat="48.02737" lon="-3.87693">
        <ele>147</ele>
        <time>2022-12-08T09:33:45Z</time>
      </trkpt>
      <trkpt lat="48.02738" lon="-3.87687">
        <ele>147.2</ele>
        <time>2022-12-08T09:33:46Z</time>
      </trkpt>
      <trkpt lat="48.02739" lon="-3.87683">
        <ele>147.4</ele>
        <time>2022-12-08T09:33:47Z</time>
      </trkpt>
      <trkpt lat="48.0274" lon="-3.87677">
        <ele>147.5</ele>
        <time>2022-12-08T09:33:48Z</time>
      </trkpt>
      <trkpt lat="48.02742" lon="-3.87671">
        <ele>147.6</ele>
        <time>2022-12-08T09:33:49Z</time>
      </trkpt>
      <trkpt lat="48.02743" lon="-3.87668">
        <ele>147.7</ele>
        <time>2022-12-08T09:33:50Z</time>
      </trkpt>
      <trkpt lat="48.02746" lon="-3.87657">
        <ele>148</ele>
        <time>2022-12-08T09:33:52Z</time>
      </trkpt>
      <trkpt lat="48.02748" lon="-3.87652">
        <ele>148.1</ele>
        <time>2022-12-08T09:33:53Z</time>
      </trkpt>
      <trkpt lat="48.0275" lon="-3.87646">
        <ele>148.2</ele>
        <time>2022-12-08T09:33:54Z</time>
      </trkpt>
      <trkpt lat="48.02751" lon="-3.87641">
        <ele>148.3</ele>
        <time>2022-12-08T09:33:55Z</time>
      </trkpt>
      <trkpt lat="48.02754" lon="-3.87636">
        <ele>148.4</ele>
        <time>2022-12-08T09:33:56Z</time>
      </trkpt>
      <trkpt lat="48.02756" lon="-3.87631">
        <ele>148.5</ele>
        <time>2022-12-08T09:33:57Z</time>
      </trkpt>
      <trkpt lat="48.02758" lon="-3.87626">
        <ele>148.6</ele>
        <time>2022-12-08T09:33:58Z</time>
      </trkpt>
      <trkpt lat="48.02761" lon="-3.87621">
        <ele>148.6</ele>
        <time>2022-12-08T09:33:59Z</time>
      </trkpt>
      <trkpt lat="48.02763" lon="-3.87616">
        <ele>148.7</ele>
        <time>2022-12-08T09:34:00Z</time>
      </trkpt>
      <trkpt lat="48.02766" lon="-3.8761">
        <ele>148.7</ele>
        <time>2022-12-08T09:34:01Z</time>
      </trkpt>
      <trkpt lat="48.0277" lon="-3.87604">
        <ele>148.8</ele>
        <time>2022-12-08T09:34:02Z</time>
      </trkpt>
      <trkpt lat="48.02773" lon="-3.87599">
        <ele>148.8</ele>
        <time>2022-12-08T09:34:03Z</time>
      </trkpt>
      <trkpt lat="48.02776" lon="-3.87594">
        <ele>148.8</ele>
        <time>2022-12-08T09:34:04Z</time>
      </trkpt>
      <trkpt lat="48.02779" lon="-3.87589">
        <ele>148.9</ele>
        <time>2022-12-08T09:34:05Z</time>
      </trkpt>
      <trkpt lat="48.02782" lon="-3.87583">
        <ele>148.9</ele>
        <time>2022-12-08T09:34:06Z</time>
      </trkpt>
      <trkpt lat="48.02784" lon="-3.87578">
        <ele>148.9</ele>
        <time>2022-12-08T09:34:07Z</time>
      </trkpt>
      <trkpt lat="48.02788" lon="-3.87572">
        <ele>149</ele>
        <time>2022-12-08T09:34:08Z</time>
      </trkpt>
      <trkpt lat="48.02791" lon="-3.87567">
        <ele>149</ele>
        <time>2022-12-08T09:34:09Z</time>
      </trkpt>
      <trkpt lat="48.02794" lon="-3.87562">
        <ele>149</ele>
        <time>2022-12-08T09:34:10Z</time>
      </trkpt>
      <trkpt lat="48.02796" lon="-3.87556">
        <ele>149.1</ele>
        <time>2022-12-08T09:34:11Z</time>
      </trkpt>
      <trkpt lat="48.02799" lon="-3.87551">
        <ele>149.1</ele>
        <time>2022-12-08T09:34:12Z</time>
      </trkpt>
      <trkpt lat="48.02802" lon="-3.87545">
        <ele>149.1</ele>
        <time>2022-12-08T09:34:13Z</time>
      </trkpt>
      <trkpt lat="48.02805" lon="-3.87539">
        <ele>149.1</ele>
        <time>2022-12-08T09:34:14Z</time>
      </trkpt>
      <trkpt lat="48.02808" lon="-3.87534">
        <ele>149.1</ele>
        <time>2022-12-08T09:34:15Z</time>
      </trkpt>
      <trkpt lat="48.02811" lon="-3.87528">
        <ele>149.1</ele>
        <time>2022-12-08T09:34:16Z</time>
      </trkpt>
      <trkpt lat="48.02813" lon="-3.87522">
        <ele>149.1</ele>
        <time>2022-12-08T09:34:17Z</time>
      </trkpt>
      <trkpt lat="48.02816" lon="-3.87515">
        <ele>149.1</ele>
        <time>2022-12-08T09:34:18Z</time>
      </trkpt>
      <trkpt lat="48.02818" lon="-3.87509">
        <ele>149.2</ele>
        <time>2022-12-08T09:34:19Z</time>
      </trkpt>
      <trkpt lat="48.02819" lon="-3.87502">
        <ele>149.2</ele>
        <time>2022-12-08T09:34:20Z</time>
      </trkpt>
      <trkpt lat="48.02821" lon="-3.87494">
        <ele>149.2</ele>
        <time>2022-12-08T09:34:21Z</time>
      </trkpt>
      <trkpt lat="48.02823" lon="-3.87488">
        <ele>149.2</ele>
        <time>2022-12-08T09:34:22Z</time>
      </trkpt>
      <trkpt lat="48.02825" lon="-3.87481">
        <ele>149.3</ele>
        <time>2022-12-08T09:34:23Z</time>
      </trkpt>
      <trkpt lat="48.02827" lon="-3.87474">
        <ele>149.3</ele>
        <time>2022-12-08T09:34:24Z</time>
      </trkpt>
      <trkpt lat="48.02829" lon="-3.87467">
        <ele>149.4</ele>
        <time>2022-12-08T09:34:25Z</time>
      </trkpt>
      <trkpt lat="48.0283" lon="-3.8746">
        <ele>149.5</ele>
        <time>2022-12-08T09:34:26Z</time>
      </trkpt>
      <trkpt lat="48.02831" lon="-3.87454">
        <ele>149.5</ele>
        <time>2022-12-08T09:34:27Z</time>
      </trkpt>
      <trkpt lat="48.02833" lon="-3.87447">
        <ele>149.6</ele>
        <time>2022-12-08T09:34:28Z</time>
      </trkpt>
      <trkpt lat="48.02834" lon="-3.87441">
        <ele>149.7</ele>
        <time>2022-12-08T09:34:29Z</time>
      </trkpt>
      <trkpt lat="48.02836" lon="-3.87434">
        <ele>149.7</ele>
        <time>2022-12-08T09:34:30Z</time>
      </trkpt>
      <trkpt lat="48.02837" lon="-3.87427">
        <ele>149.8</ele>
        <time>2022-12-08T09:34:31Z</time>
      </trkpt>
      <trkpt lat="48.02839" lon="-3.8742">
        <ele>149.8</ele>
        <time>2022-12-08T09:34:32Z</time>
      </trkpt>
      <trkpt lat="48.02841" lon="-3.87414">
        <ele>149.9</ele>
        <time>2022-12-08T09:34:33Z</time>
      </trkpt>
      <trkpt lat="48.02843" lon="-3.87407">
        <ele>150</ele>
        <time>2022-12-08T09:34:34Z</time>
      </trkpt>
      <trkpt lat="48.02845" lon="-3.874">
        <ele>150.1</ele>
        <time>2022-12-08T09:34:35Z</time>
      </trkpt>
      <trkpt lat="48.02847" lon="-3.87394">
        <ele>150.2</ele>
        <time>2022-12-08T09:34:36Z</time>
      </trkpt>
      <trkpt lat="48.02848" lon="-3.87388">
        <ele>150.3</ele>
        <time>2022-12-08T09:34:37Z</time>
      </trkpt>
      <trkpt lat="48.0285" lon="-3.87381">
        <ele>150.5</ele>
        <time>2022-12-08T09:34:38Z</time>
      </trkpt>
      <trkpt lat="48.02852" lon="-3.87375">
        <ele>150.6</ele>
        <time>2022-12-08T09:34:39Z</time>
      </trkpt>
      <trkpt lat="48.02853" lon="-3.87369">
        <ele>150.7</ele>
        <time>2022-12-08T09:34:40Z</time>
      </trkpt>
      <trkpt lat="48.02855" lon="-3.87363">
        <ele>150.9</ele>
        <time>2022-12-08T09:34:41Z</time>
      </trkpt>
      <trkpt lat="48.02856" lon="-3.8736">
        <ele>150.9</ele>
        <time>2022-12-08T09:34:42Z</time>
      </trkpt>
      <trkpt lat="48.02858" lon="-3.87353">
        <ele>151.1</ele>
        <time>2022-12-08T09:34:43Z</time>
      </trkpt>
      <trkpt lat="48.02859" lon="-3.87347">
        <ele>151.2</ele>
        <time>2022-12-08T09:34:44Z</time>
      </trkpt>
      <trkpt lat="48.02861" lon="-3.8734">
        <ele>151.4</ele>
        <time>2022-12-08T09:34:45Z</time>
      </trkpt>
      <trkpt lat="48.02864" lon="-3.87333">
        <ele>151.6</ele>
        <time>2022-12-08T09:34:46Z</time>
      </trkpt>
      <trkpt lat="48.02865" lon="-3.87332">
        <ele>151.6</ele>
        <time>2022-12-08T09:34:47Z</time>
      </trkpt>
      <trkpt lat="48.02871" lon="-3.87328">
        <ele>151.4</ele>
        <time>2022-12-08T09:34:49Z</time>
      </trkpt>
      <trkpt lat="48.02882" lon="-3.87328">
        <ele>150.7</ele>
        <time>2022-12-08T09:34:50Z</time>
      </trkpt>
      <trkpt lat="48.02887" lon="-3.8733">
        <ele>150.3</ele>
        <time>2022-12-08T09:34:51Z</time>
      </trkpt>
      <trkpt lat="48.02893" lon="-3.87334">
        <ele>149.8</ele>
        <time>2022-12-08T09:34:52Z</time>
      </trkpt>
      <trkpt lat="48.02899" lon="-3.87337">
        <ele>149.3</ele>
        <time>2022-12-08T09:34:53Z</time>
      </trkpt>
      <trkpt lat="48.02906" lon="-3.87341">
        <ele>148.8</ele>
        <time>2022-12-08T09:34:54Z</time>
      </trkpt>
      <trkpt lat="48.02913" lon="-3.87344">
        <ele>148.3</ele>
        <time>2022-12-08T09:34:55Z</time>
      </trkpt>
      <trkpt lat="48.0292" lon="-3.87349">
        <ele>147.8</ele>
        <time>2022-12-08T09:34:56Z</time>
      </trkpt>
      <trkpt lat="48.02927" lon="-3.87354">
        <ele>147.2</ele>
        <time>2022-12-08T09:34:57Z</time>
      </trkpt>
      <trkpt lat="48.02935" lon="-3.8736">
        <ele>146.6</ele>
        <time>2022-12-08T09:34:58Z</time>
      </trkpt>
      <trkpt lat="48.02943" lon="-3.87366">
        <ele>146</ele>
        <time>2022-12-08T09:34:59Z</time>
      </trkpt>
      <trkpt lat="48.0295" lon="-3.87373">
        <ele>145.3</ele>
        <time>2022-12-08T09:35:00Z</time>
      </trkpt>
      <trkpt lat="48.02958" lon="-3.87381">
        <ele>144.6</ele>
        <time>2022-12-08T09:35:01Z</time>
      </trkpt>
      <trkpt lat="48.02966" lon="-3.87388">
        <ele>143.8</ele>
        <time>2022-12-08T09:35:02Z</time>
      </trkpt>
      <trkpt lat="48.02975" lon="-3.87396">
        <ele>142.9</ele>
        <time>2022-12-08T09:35:03Z</time>
      </trkpt>
      <trkpt lat="48.02984" lon="-3.87404">
        <ele>142</ele>
        <time>2022-12-08T09:35:04Z</time>
      </trkpt>
      <trkpt lat="48.02993" lon="-3.87411">
        <ele>141.1</ele>
        <time>2022-12-08T09:35:05Z</time>
      </trkpt>
      <trkpt lat="48.03003" lon="-3.87417">
        <ele>140.1</ele>
        <time>2022-12-08T09:35:06Z</time>
      </trkpt>
      <trkpt lat="48.03014" lon="-3.87419">
        <ele>139.2</ele>
        <time>2022-12-08T09:35:07Z</time>
      </trkpt>
      <trkpt lat="48.03026" lon="-3.87419">
        <ele>138.2</ele>
        <time>2022-12-08T09:35:08Z</time>
      </trkpt>
      <trkpt lat="48.03037" lon="-3.87421">
        <ele>137.3</ele>
        <time>2022-12-08T09:35:09Z</time>
      </trkpt>
      <trkpt lat="48.03048" lon="-3.87425">
        <ele>136.3</ele>
        <time>2022-12-08T09:35:10Z</time>
      </trkpt>
      <trkpt lat="48.03059" lon="-3.87431">
        <ele>135.4</ele>
        <time>2022-12-08T09:35:11Z</time>
      </trkpt>
      <trkpt lat="48.0307" lon="-3.87438">
        <ele>134.5</ele>
        <time>2022-12-08T09:35:12Z</time>
      </trkpt>
      <trkpt lat="48.03079" lon="-3.87449">
        <ele>133.6</ele>
        <time>2022-12-08T09:35:13Z</time>
      </trkpt>
      <trkpt lat="48.03088" lon="-3.87461">
        <ele>132.7</ele>
        <time>2022-12-08T09:35:14Z</time>
      </trkpt>
      <trkpt lat="48.03095" lon="-3.87476">
        <ele>131.8</ele>
        <time>2022-12-08T09:35:15Z</time>
      </trkpt>
      <trkpt lat="48.031" lon="-3.87491">
        <ele>130.8</ele>
        <time>2022-12-08T09:35:16Z</time>
      </trkpt>
      <trkpt lat="48.03104" lon="-3.87508">
        <ele>129.8</ele>
        <time>2022-12-08T09:35:17Z</time>
      </trkpt>
      <trkpt lat="48.03106" lon="-3.87527">
        <ele>128.8</ele>
        <time>2022-12-08T09:35:18Z</time>
      </trkpt>
      <trkpt lat="48.03107" lon="-3.87545">
        <ele>127.8</ele>
        <time>2022-12-08T09:35:19Z</time>
      </trkpt>
      <trkpt lat="48.03107" lon="-3.87564">
        <ele>126.9</ele>
        <time>2022-12-08T09:35:20Z</time>
      </trkpt>
      <trkpt lat="48.03107" lon="-3.87582">
        <ele>125.9</ele>
        <time>2022-12-08T09:35:21Z</time>
      </trkpt>
      <trkpt lat="48.03107" lon="-3.87601">
        <ele>124.9</ele>
        <time>2022-12-08T09:35:22Z</time>
      </trkpt>
      <trkpt lat="48.03106" lon="-3.8762">
        <ele>123.8</ele>
        <time>2022-12-08T09:35:23Z</time>
      </trkpt>
      <trkpt lat="48.03106" lon="-3.87638">
        <ele>122.6</ele>
        <time>2022-12-08T09:35:24Z</time>
      </trkpt>
      <trkpt lat="48.03106" lon="-3.87657">
        <ele>121.2</ele>
        <time>2022-12-08T09:35:25Z</time>
      </trkpt>
      <trkpt lat="48.03106" lon="-3.87676">
        <ele>119.7</ele>
        <time>2022-12-08T09:35:26Z</time>
      </trkpt>
      <trkpt lat="48.03106" lon="-3.87696">
        <ele>118</ele>
        <time>2022-12-08T09:35:27Z</time>
      </trkpt>
      <trkpt lat="48.03107" lon="-3.87715">
        <ele>116.5</ele>
        <time>2022-12-08T09:35:28Z</time>
      </trkpt>
      <trkpt lat="48.0311" lon="-3.87734">
        <ele>115.2</ele>
        <time>2022-12-08T09:35:29Z</time>
      </trkpt>
      <trkpt lat="48.03115" lon="-3.87752">
        <ele>114</ele>
        <time>2022-12-08T09:35:30Z</time>
      </trkpt>
      <trkpt lat="48.03123" lon="-3.87769">
        <ele>113</ele>
        <time>2022-12-08T09:35:31Z</time>
      </trkpt>
      <trkpt lat="48.03134" lon="-3.87782">
        <ele>112.5</ele>
        <time>2022-12-08T09:35:32Z</time>
      </trkpt>
      <trkpt lat="48.03146" lon="-3.87792">
        <ele>112.5</ele>
        <time>2022-12-08T09:35:33Z</time>
      </trkpt>
      <trkpt lat="48.03158" lon="-3.87798">
        <ele>112.8</ele>
        <time>2022-12-08T09:35:34Z</time>
      </trkpt>
      <trkpt lat="48.0317" lon="-3.87801">
        <ele>113.3</ele>
        <time>2022-12-08T09:35:35Z</time>
      </trkpt>
      <trkpt lat="48.03179" lon="-3.87802">
        <ele>113.9</ele>
        <time>2022-12-08T09:35:36Z</time>
      </trkpt>
      <trkpt lat="48.03187" lon="-3.87801">
        <ele>114.7</ele>
        <time>2022-12-08T09:35:37Z</time>
      </trkpt>
      <trkpt lat="48.03193" lon="-3.87795">
        <ele>114.6</ele>
        <time>2022-12-08T09:35:38Z</time>
      </trkpt>
      <trkpt lat="48.03197" lon="-3.87786">
        <ele>114.5</ele>
        <time>2022-12-08T09:35:39Z</time>
      </trkpt>
      <trkpt lat="48.032" lon="-3.87778">
        <ele>114.5</ele>
        <time>2022-12-08T09:35:40Z</time>
      </trkpt>
      <trkpt lat="48.03203" lon="-3.8777">
        <ele>114.5</ele>
        <time>2022-12-08T09:35:41Z</time>
      </trkpt>
      <trkpt lat="48.03205" lon="-3.87762">
        <ele>114.4</ele>
        <time>2022-12-08T09:35:42Z</time>
      </trkpt>
      <trkpt lat="48.03208" lon="-3.87755">
        <ele>114.4</ele>
        <time>2022-12-08T09:35:43Z</time>
      </trkpt>
      <trkpt lat="48.0321" lon="-3.87748">
        <ele>114.4</ele>
        <time>2022-12-08T09:35:44Z</time>
      </trkpt>
      <trkpt lat="48.03213" lon="-3.87742">
        <ele>114.4</ele>
        <time>2022-12-08T09:35:45Z</time>
      </trkpt>
      <trkpt lat="48.03215" lon="-3.87735">
        <ele>114.4</ele>
        <time>2022-12-08T09:35:46Z</time>
      </trkpt>
      <trkpt lat="48.03217" lon="-3.87728">
        <ele>114.5</ele>
        <time>2022-12-08T09:35:47Z</time>
      </trkpt>
      <trkpt lat="48.0322" lon="-3.87722">
        <ele>114.5</ele>
        <time>2022-12-08T09:35:48Z</time>
      </trkpt>
      <trkpt lat="48.03221" lon="-3.87715">
        <ele>114.6</ele>
        <time>2022-12-08T09:35:49Z</time>
      </trkpt>
      <trkpt lat="48.03223" lon="-3.87709">
        <ele>114.7</ele>
        <time>2022-12-08T09:35:50Z</time>
      </trkpt>
      <trkpt lat="48.03225" lon="-3.87705">
        <ele>114.8</ele>
        <time>2022-12-08T09:35:51Z</time>
      </trkpt>
      <trkpt lat="48.03228" lon="-3.87698">
        <ele>114.9</ele>
        <time>2022-12-08T09:35:52Z</time>
      </trkpt>
      <trkpt lat="48.03229" lon="-3.87692">
        <ele>115</ele>
        <time>2022-12-08T09:35:53Z</time>
      </trkpt>
      <trkpt lat="48.03231" lon="-3.87686">
        <ele>115.2</ele>
        <time>2022-12-08T09:35:54Z</time>
      </trkpt>
      <trkpt lat="48.03233" lon="-3.8768">
        <ele>115.3</ele>
        <time>2022-12-08T09:35:55Z</time>
      </trkpt>
      <trkpt lat="48.03235" lon="-3.87674">
        <ele>115.4</ele>
        <time>2022-12-08T09:35:56Z</time>
      </trkpt>
      <trkpt lat="48.03237" lon="-3.87668">
        <ele>115.6</ele>
        <time>2022-12-08T09:35:57Z</time>
      </trkpt>
      <trkpt lat="48.03239" lon="-3.87663">
        <ele>115.8</ele>
        <time>2022-12-08T09:35:58Z</time>
      </trkpt>
      <trkpt lat="48.03241" lon="-3.87657">
        <ele>116</ele>
        <time>2022-12-08T09:35:59Z</time>
      </trkpt>
      <trkpt lat="48.03243" lon="-3.87651">
        <ele>116.2</ele>
        <time>2022-12-08T09:36:00Z</time>
      </trkpt>
      <trkpt lat="48.03244" lon="-3.87645">
        <ele>116.5</ele>
        <time>2022-12-08T09:36:01Z</time>
      </trkpt>
      <trkpt lat="48.03246" lon="-3.87639">
        <ele>116.8</ele>
        <time>2022-12-08T09:36:02Z</time>
      </trkpt>
      <trkpt lat="48.03248" lon="-3.87633">
        <ele>117.1</ele>
        <time>2022-12-08T09:36:03Z</time>
      </trkpt>
      <trkpt lat="48.0325" lon="-3.87629">
        <ele>117.5</ele>
        <time>2022-12-08T09:36:04Z</time>
      </trkpt>
      <trkpt lat="48.03252" lon="-3.87623">
        <ele>117.9</ele>
        <time>2022-12-08T09:36:05Z</time>
      </trkpt>
      <trkpt lat="48.03254" lon="-3.87617">
        <ele>118.3</ele>
        <time>2022-12-08T09:36:06Z</time>
      </trkpt>
      <trkpt lat="48.03255" lon="-3.87612">
        <ele>118.6</ele>
        <time>2022-12-08T09:36:07Z</time>
      </trkpt>
      <trkpt lat="48.03257" lon="-3.87607">
        <ele>119</ele>
        <time>2022-12-08T09:36:08Z</time>
      </trkpt>
      <trkpt lat="48.03259" lon="-3.87602">
        <ele>119.4</ele>
        <time>2022-12-08T09:36:09Z</time>
      </trkpt>
      <trkpt lat="48.03261" lon="-3.87597">
        <ele>119.8</ele>
        <time>2022-12-08T09:36:10Z</time>
      </trkpt>
      <trkpt lat="48.03263" lon="-3.87592">
        <ele>120.2</ele>
        <time>2022-12-08T09:36:11Z</time>
      </trkpt>
      <trkpt lat="48.03265" lon="-3.87587">
        <ele>120.6</ele>
        <time>2022-12-08T09:36:12Z</time>
      </trkpt>
      <trkpt lat="48.03267" lon="-3.87583">
        <ele>120.9</ele>
        <time>2022-12-08T09:36:13Z</time>
      </trkpt>
      <trkpt lat="48.03269" lon="-3.87578">
        <ele>121.3</ele>
        <time>2022-12-08T09:36:14Z</time>
      </trkpt>
      <trkpt lat="48.03272" lon="-3.87574">
        <ele>121.6</ele>
        <time>2022-12-08T09:36:15Z</time>
      </trkpt>
      <trkpt lat="48.03275" lon="-3.87571">
        <ele>121.9</ele>
        <time>2022-12-08T09:36:16Z</time>
      </trkpt>
      <trkpt lat="48.03278" lon="-3.87567">
        <ele>122.2</ele>
        <time>2022-12-08T09:36:17Z</time>
      </trkpt>
      <trkpt lat="48.0328" lon="-3.87564">
        <ele>122.4</ele>
        <time>2022-12-08T09:36:18Z</time>
      </trkpt>
      <trkpt lat="48.03284" lon="-3.87558">
        <ele>122.8</ele>
        <time>2022-12-08T09:36:20Z</time>
      </trkpt>
      <trkpt lat="48.03286" lon="-3.87555">
        <ele>123</ele>
        <time>2022-12-08T09:36:21Z</time>
      </trkpt>
      <trkpt lat="48.0329" lon="-3.87551">
        <ele>123.3</ele>
        <time>2022-12-08T09:36:22Z</time>
      </trkpt>
      <trkpt lat="48.03292" lon="-3.87547">
        <ele>123.6</ele>
        <time>2022-12-08T09:36:23Z</time>
      </trkpt>
      <trkpt lat="48.03293" lon="-3.87546">
        <ele>123.7</ele>
        <time>2022-12-08T09:36:24Z</time>
      </trkpt>
      <trkpt lat="48.03296" lon="-3.87542">
        <ele>123.9</ele>
        <time>2022-12-08T09:36:25Z</time>
      </trkpt>
      <trkpt lat="48.03299" lon="-3.87539">
        <ele>124.1</ele>
        <time>2022-12-08T09:36:26Z</time>
      </trkpt>
      <trkpt lat="48.03301" lon="-3.87536">
        <ele>124.4</ele>
        <time>2022-12-08T09:36:27Z</time>
      </trkpt>
      <trkpt lat="48.03304" lon="-3.87532">
        <ele>124.7</ele>
        <time>2022-12-08T09:36:28Z</time>
      </trkpt>
      <trkpt lat="48.03306" lon="-3.87529">
        <ele>124.9</ele>
        <time>2022-12-08T09:36:29Z</time>
      </trkpt>
      <trkpt lat="48.03309" lon="-3.87525">
        <ele>125.3</ele>
        <time>2022-12-08T09:36:30Z</time>
      </trkpt>
      <trkpt lat="48.03311" lon="-3.87522">
        <ele>125.5</ele>
        <time>2022-12-08T09:36:31Z</time>
      </trkpt>
      <trkpt lat="48.03314" lon="-3.87518">
        <ele>125.8</ele>
        <time>2022-12-08T09:36:32Z</time>
      </trkpt>
      <trkpt lat="48.03316" lon="-3.87515">
        <ele>126.1</ele>
        <time>2022-12-08T09:36:33Z</time>
      </trkpt>
      <trkpt lat="48.03319" lon="-3.87509">
        <ele>126.6</ele>
        <time>2022-12-08T09:36:35Z</time>
      </trkpt>
      <trkpt lat="48.03322" lon="-3.87506">
        <ele>126.9</ele>
        <time>2022-12-08T09:36:36Z</time>
      </trkpt>
      <trkpt lat="48.03324" lon="-3.87502">
        <ele>127.2</ele>
        <time>2022-12-08T09:36:37Z</time>
      </trkpt>
      <trkpt lat="48.03327" lon="-3.87497">
        <ele>127.7</ele>
        <time>2022-12-08T09:36:38Z</time>
      </trkpt>
      <trkpt lat="48.03329" lon="-3.87494">
        <ele>128.1</ele>
        <time>2022-12-08T09:36:39Z</time>
      </trkpt>
      <trkpt lat="48.03332" lon="-3.8749">
        <ele>128.5</ele>
        <time>2022-12-08T09:36:40Z</time>
      </trkpt>
      <trkpt lat="48.03334" lon="-3.87486">
        <ele>128.9</ele>
        <time>2022-12-08T09:36:41Z</time>
      </trkpt>
      <trkpt lat="48.03336" lon="-3.87483">
        <ele>129.3</ele>
        <time>2022-12-08T09:36:42Z</time>
      </trkpt>
      <trkpt lat="48.03338" lon="-3.87481">
        <ele>129.6</ele>
        <time>2022-12-08T09:36:43Z</time>
      </trkpt>
      <trkpt lat="48.03342" lon="-3.87475">
        <ele>130.3</ele>
        <time>2022-12-08T09:36:45Z</time>
      </trkpt>
      <trkpt lat="48.03345" lon="-3.8747">
        <ele>130.8</ele>
        <time>2022-12-08T09:36:46Z</time>
      </trkpt>
      <trkpt lat="48.03347" lon="-3.87466">
        <ele>131.2</ele>
        <time>2022-12-08T09:36:47Z</time>
      </trkpt>
      <trkpt lat="48.0335" lon="-3.87463">
        <ele>131.5</ele>
        <time>2022-12-08T09:36:48Z</time>
      </trkpt>
      <trkpt lat="48.03353" lon="-3.87461">
        <ele>131.9</ele>
        <time>2022-12-08T09:36:49Z</time>
      </trkpt>
      <trkpt lat="48.03355" lon="-3.87458">
        <ele>132.2</ele>
        <time>2022-12-08T09:36:50Z</time>
      </trkpt>
      <trkpt lat="48.03357" lon="-3.87454">
        <ele>132.5</ele>
        <time>2022-12-08T09:36:51Z</time>
      </trkpt>
      <trkpt lat="48.03361" lon="-3.87452">
        <ele>133</ele>
        <time>2022-12-08T09:36:53Z</time>
      </trkpt>
      <trkpt lat="48.03364" lon="-3.8745">
        <ele>133.3</ele>
        <time>2022-12-08T09:36:54Z</time>
      </trkpt>
      <trkpt lat="48.03368" lon="-3.87446">
        <ele>133.9</ele>
        <time>2022-12-08T09:36:56Z</time>
      </trkpt>
      <trkpt lat="48.0337" lon="-3.87445">
        <ele>134</ele>
        <time>2022-12-08T09:36:57Z</time>
      </trkpt>
      <trkpt lat="48.03371" lon="-3.87444">
        <ele>134.2</ele>
        <time>2022-12-08T09:36:58Z</time>
      </trkpt>
      <trkpt lat="48.03375" lon="-3.87441">
        <ele>134.7</ele>
        <time>2022-12-08T09:36:59Z</time>
      </trkpt>
      <trkpt lat="48.03379" lon="-3.87439">
        <ele>135.1</ele>
        <time>2022-12-08T09:37:00Z</time>
      </trkpt>
      <trkpt lat="48.0338" lon="-3.87439">
        <ele>135.3</ele>
        <time>2022-12-08T09:37:01Z</time>
      </trkpt>
      <trkpt lat="48.03383" lon="-3.87438">
        <ele>135.5</ele>
        <time>2022-12-08T09:37:02Z</time>
      </trkpt>
      <trkpt lat="48.03389" lon="-3.87436">
        <ele>136.2</ele>
        <time>2022-12-08T09:37:04Z</time>
      </trkpt>
      <trkpt lat="48.03392" lon="-3.87436">
        <ele>136.4</ele>
        <time>2022-12-08T09:37:05Z</time>
      </trkpt>
      <trkpt lat="48.03395" lon="-3.87435">
        <ele>136.7</ele>
        <time>2022-12-08T09:37:06Z</time>
      </trkpt>
      <trkpt lat="48.03398" lon="-3.87435">
        <ele>137</ele>
        <time>2022-12-08T09:37:07Z</time>
      </trkpt>
      <trkpt lat="48.03401" lon="-3.87435">
        <ele>137.3</ele>
        <time>2022-12-08T09:37:08Z</time>
      </trkpt>
      <trkpt lat="48.03404" lon="-3.87436">
        <ele>137.6</ele>
        <time>2022-12-08T09:37:09Z</time>
      </trkpt>
      <trkpt lat="48.03408" lon="-3.87437">
        <ele>138</ele>
        <time>2022-12-08T09:37:11Z</time>
      </trkpt>
      <trkpt lat="48.03413" lon="-3.87438">
        <ele>138.4</ele>
        <time>2022-12-08T09:37:12Z</time>
      </trkpt>
      <trkpt lat="48.03415" lon="-3.87439">
        <ele>138.6</ele>
        <time>2022-12-08T09:37:13Z</time>
      </trkpt>
      <trkpt lat="48.03418" lon="-3.8744">
        <ele>138.9</ele>
        <time>2022-12-08T09:37:14Z</time>
      </trkpt>
      <trkpt lat="48.03423" lon="-3.87442">
        <ele>139.4</ele>
        <time>2022-12-08T09:37:16Z</time>
      </trkpt>
      <trkpt lat="48.03426" lon="-3.87442">
        <ele>139.6</ele>
        <time>2022-12-08T09:37:17Z</time>
      </trkpt>
      <trkpt lat="48.0343" lon="-3.87442">
        <ele>139.8</ele>
        <time>2022-12-08T09:37:18Z</time>
      </trkpt>
      <trkpt lat="48.03433" lon="-3.87441">
        <ele>140</ele>
        <time>2022-12-08T09:37:19Z</time>
      </trkpt>
      <trkpt lat="48.03436" lon="-3.8744">
        <ele>140.2</ele>
        <time>2022-12-08T09:37:20Z</time>
      </trkpt>
      <trkpt lat="48.03439" lon="-3.87439">
        <ele>140.4</ele>
        <time>2022-12-08T09:37:21Z</time>
      </trkpt>
      <trkpt lat="48.03442" lon="-3.87437">
        <ele>140.5</ele>
        <time>2022-12-08T09:37:22Z</time>
      </trkpt>
      <trkpt lat="48.03445" lon="-3.87434">
        <ele>140.7</ele>
        <time>2022-12-08T09:37:23Z</time>
      </trkpt>
      <trkpt lat="48.03448" lon="-3.87432">
        <ele>140.7</ele>
        <time>2022-12-08T09:37:24Z</time>
      </trkpt>
      <trkpt lat="48.0345" lon="-3.87429">
        <ele>140.7</ele>
        <time>2022-12-08T09:37:25Z</time>
      </trkpt>
      <trkpt lat="48.03453" lon="-3.87426">
        <ele>140.7</ele>
        <time>2022-12-08T09:37:26Z</time>
      </trkpt>
      <trkpt lat="48.03455" lon="-3.87423">
        <ele>140.7</ele>
        <time>2022-12-08T09:37:27Z</time>
      </trkpt>
      <trkpt lat="48.03457" lon="-3.87421">
        <ele>140.7</ele>
        <time>2022-12-08T09:37:28Z</time>
      </trkpt>
      <trkpt lat="48.0346" lon="-3.87418">
        <ele>140.7</ele>
        <time>2022-12-08T09:37:29Z</time>
      </trkpt>
      <trkpt lat="48.03462" lon="-3.87414">
        <ele>140.7</ele>
        <time>2022-12-08T09:37:30Z</time>
      </trkpt>
      <trkpt lat="48.03464" lon="-3.87411">
        <ele>140.7</ele>
        <time>2022-12-08T09:37:31Z</time>
      </trkpt>
      <trkpt lat="48.03467" lon="-3.87407">
        <ele>140.7</ele>
        <time>2022-12-08T09:37:32Z</time>
      </trkpt>
      <trkpt lat="48.03469" lon="-3.87403">
        <ele>140.7</ele>
        <time>2022-12-08T09:37:33Z</time>
      </trkpt>
      <trkpt lat="48.03472" lon="-3.874">
        <ele>140.7</ele>
        <time>2022-12-08T09:37:34Z</time>
      </trkpt>
      <trkpt lat="48.03478" lon="-3.87394">
        <ele>140.7</ele>
        <time>2022-12-08T09:37:36Z</time>
      </trkpt>
      <trkpt lat="48.03481" lon="-3.87391">
        <ele>140.8</ele>
        <time>2022-12-08T09:37:37Z</time>
      </trkpt>
      <trkpt lat="48.03484" lon="-3.87387">
        <ele>140.8</ele>
        <time>2022-12-08T09:37:38Z</time>
      </trkpt>
      <trkpt lat="48.03486" lon="-3.87383">
        <ele>140.8</ele>
        <time>2022-12-08T09:37:39Z</time>
      </trkpt>
      <trkpt lat="48.03488" lon="-3.87379">
        <ele>140.9</ele>
        <time>2022-12-08T09:37:40Z</time>
      </trkpt>
      <trkpt lat="48.0349" lon="-3.87374">
        <ele>140.9</ele>
        <time>2022-12-08T09:37:41Z</time>
      </trkpt>
      <trkpt lat="48.03492" lon="-3.87369">
        <ele>140.9</ele>
        <time>2022-12-08T09:37:42Z</time>
      </trkpt>
      <trkpt lat="48.03494" lon="-3.87365">
        <ele>141</ele>
        <time>2022-12-08T09:37:43Z</time>
      </trkpt>
      <trkpt lat="48.03496" lon="-3.87361">
        <ele>141</ele>
        <time>2022-12-08T09:37:44Z</time>
      </trkpt>
      <trkpt lat="48.03498" lon="-3.87357">
        <ele>141</ele>
        <time>2022-12-08T09:37:45Z</time>
      </trkpt>
      <trkpt lat="48.035" lon="-3.87352">
        <ele>141</ele>
        <time>2022-12-08T09:37:46Z</time>
      </trkpt>
      <trkpt lat="48.03503" lon="-3.87348">
        <ele>141</ele>
        <time>2022-12-08T09:37:47Z</time>
      </trkpt>
      <trkpt lat="48.03505" lon="-3.87343">
        <ele>141.1</ele>
        <time>2022-12-08T09:37:48Z</time>
      </trkpt>
      <trkpt lat="48.03508" lon="-3.87338">
        <ele>141.1</ele>
        <time>2022-12-08T09:37:49Z</time>
      </trkpt>
      <trkpt lat="48.03509" lon="-3.87336">
        <ele>141.1</ele>
        <time>2022-12-08T09:37:50Z</time>
      </trkpt>
      <trkpt lat="48.03512" lon="-3.87332">
        <ele>141.1</ele>
        <time>2022-12-08T09:37:51Z</time>
      </trkpt>
      <trkpt lat="48.03516" lon="-3.87328">
        <ele>141.2</ele>
        <time>2022-12-08T09:37:52Z</time>
      </trkpt>
      <trkpt lat="48.03519" lon="-3.87324">
        <ele>141.2</ele>
        <time>2022-12-08T09:37:53Z</time>
      </trkpt>
      <trkpt lat="48.03522" lon="-3.8732">
        <ele>141.3</ele>
        <time>2022-12-08T09:37:54Z</time>
      </trkpt>
      <trkpt lat="48.03525" lon="-3.87314">
        <ele>141.4</ele>
        <time>2022-12-08T09:37:55Z</time>
      </trkpt>
      <trkpt lat="48.03528" lon="-3.8731">
        <ele>141.6</ele>
        <time>2022-12-08T09:37:56Z</time>
      </trkpt>
      <trkpt lat="48.03532" lon="-3.87305">
        <ele>141.7</ele>
        <time>2022-12-08T09:37:57Z</time>
      </trkpt>
      <trkpt lat="48.03535" lon="-3.87301">
        <ele>141.9</ele>
        <time>2022-12-08T09:37:58Z</time>
      </trkpt>
      <trkpt lat="48.03537" lon="-3.87297">
        <ele>142.1</ele>
        <time>2022-12-08T09:37:59Z</time>
      </trkpt>
      <trkpt lat="48.0354" lon="-3.87292">
        <ele>142.4</ele>
        <time>2022-12-08T09:38:00Z</time>
      </trkpt>
      <trkpt lat="48.03543" lon="-3.87288">
        <ele>142.5</ele>
        <time>2022-12-08T09:38:01Z</time>
      </trkpt>
      <trkpt lat="48.03546" lon="-3.87283">
        <ele>142.6</ele>
        <time>2022-12-08T09:38:02Z</time>
      </trkpt>
      <trkpt lat="48.03549" lon="-3.87279">
        <ele>142.8</ele>
        <time>2022-12-08T09:38:03Z</time>
      </trkpt>
      <trkpt lat="48.03551" lon="-3.87275">
        <ele>142.9</ele>
        <time>2022-12-08T09:38:04Z</time>
      </trkpt>
      <trkpt lat="48.03555" lon="-3.8727">
        <ele>143</ele>
        <time>2022-12-08T09:38:05Z</time>
      </trkpt>
      <trkpt lat="48.03558" lon="-3.87266">
        <ele>143.1</ele>
        <time>2022-12-08T09:38:06Z</time>
      </trkpt>
      <trkpt lat="48.03561" lon="-3.87261">
        <ele>143.3</ele>
        <time>2022-12-08T09:38:07Z</time>
      </trkpt>
      <trkpt lat="48.03565" lon="-3.87257">
        <ele>143.4</ele>
        <time>2022-12-08T09:38:08Z</time>
      </trkpt>
      <trkpt lat="48.03568" lon="-3.87254">
        <ele>143.5</ele>
        <time>2022-12-08T09:38:09Z</time>
      </trkpt>
      <trkpt lat="48.03571" lon="-3.8725">
        <ele>143.6</ele>
        <time>2022-12-08T09:38:10Z</time>
      </trkpt>
      <trkpt lat="48.03575" lon="-3.87247">
        <ele>143.8</ele>
        <time>2022-12-08T09:38:11Z</time>
      </trkpt>
      <trkpt lat="48.03578" lon="-3.87244">
        <ele>144</ele>
        <time>2022-12-08T09:38:12Z</time>
      </trkpt>
      <trkpt lat="48.03582" lon="-3.87241">
        <ele>144.1</ele>
        <time>2022-12-08T09:38:13Z</time>
      </trkpt>
      <trkpt lat="48.03585" lon="-3.87238">
        <ele>144.3</ele>
        <time>2022-12-08T09:38:14Z</time>
      </trkpt>
      <trkpt lat="48.03589" lon="-3.87235">
        <ele>144.4</ele>
        <time>2022-12-08T09:38:15Z</time>
      </trkpt>
      <trkpt lat="48.03592" lon="-3.87232">
        <ele>144.6</ele>
        <time>2022-12-08T09:38:16Z</time>
      </trkpt>
      <trkpt lat="48.03596" lon="-3.87229">
        <ele>144.8</ele>
        <time>2022-12-08T09:38:17Z</time>
      </trkpt>
      <trkpt lat="48.036" lon="-3.87226">
        <ele>144.9</ele>
        <time>2022-12-08T09:38:18Z</time>
      </trkpt>
      <trkpt lat="48.03603" lon="-3.87223">
        <ele>145.1</ele>
        <time>2022-12-08T09:38:19Z</time>
      </trkpt>
      <trkpt lat="48.03607" lon="-3.87219">
        <ele>145.3</ele>
        <time>2022-12-08T09:38:20Z</time>
      </trkpt>
      <trkpt lat="48.03611" lon="-3.87216">
        <ele>145.4</ele>
        <time>2022-12-08T09:38:21Z</time>
      </trkpt>
      <trkpt lat="48.03614" lon="-3.87214">
        <ele>145.6</ele>
        <time>2022-12-08T09:38:22Z</time>
      </trkpt>
      <trkpt lat="48.03617" lon="-3.8721">
        <ele>145.8</ele>
        <time>2022-12-08T09:38:23Z</time>
      </trkpt>
      <trkpt lat="48.03621" lon="-3.87207">
        <ele>145.9</ele>
        <time>2022-12-08T09:38:24Z</time>
      </trkpt>
      <trkpt lat="48.03624" lon="-3.87205">
        <ele>146.1</ele>
        <time>2022-12-08T09:38:25Z</time>
      </trkpt>
      <trkpt lat="48.03627" lon="-3.87202">
        <ele>146.2</ele>
        <time>2022-12-08T09:38:26Z</time>
      </trkpt>
      <trkpt lat="48.03631" lon="-3.872">
        <ele>146.4</ele>
        <time>2022-12-08T09:38:27Z</time>
      </trkpt>
      <trkpt lat="48.03634" lon="-3.87197">
        <ele>146.6</ele>
        <time>2022-12-08T09:38:28Z</time>
      </trkpt>
      <trkpt lat="48.03637" lon="-3.87195">
        <ele>146.7</ele>
        <time>2022-12-08T09:38:29Z</time>
      </trkpt>
      <trkpt lat="48.0364" lon="-3.87192">
        <ele>146.9</ele>
        <time>2022-12-08T09:38:30Z</time>
      </trkpt>
      <trkpt lat="48.03644" lon="-3.87189">
        <ele>147</ele>
        <time>2022-12-08T09:38:31Z</time>
      </trkpt>
      <trkpt lat="48.03647" lon="-3.87187">
        <ele>147.2</ele>
        <time>2022-12-08T09:38:32Z</time>
      </trkpt>
      <trkpt lat="48.0365" lon="-3.87185">
        <ele>147.3</ele>
        <time>2022-12-08T09:38:33Z</time>
      </trkpt>
      <trkpt lat="48.03653" lon="-3.87182">
        <ele>147.5</ele>
        <time>2022-12-08T09:38:34Z</time>
      </trkpt>
      <trkpt lat="48.03657" lon="-3.8718">
        <ele>147.7</ele>
        <time>2022-12-08T09:38:35Z</time>
      </trkpt>
      <trkpt lat="48.03661" lon="-3.87178">
        <ele>147.9</ele>
        <time>2022-12-08T09:38:36Z</time>
      </trkpt>
      <trkpt lat="48.03665" lon="-3.87175">
        <ele>148.1</ele>
        <time>2022-12-08T09:38:37Z</time>
      </trkpt>
      <trkpt lat="48.03668" lon="-3.87172">
        <ele>148.4</ele>
        <time>2022-12-08T09:38:38Z</time>
      </trkpt>
      <trkpt lat="48.03671" lon="-3.8717">
        <ele>148.5</ele>
        <time>2022-12-08T09:38:39Z</time>
      </trkpt>
      <trkpt lat="48.03674" lon="-3.87167">
        <ele>148.8</ele>
        <time>2022-12-08T09:38:40Z</time>
      </trkpt>
      <trkpt lat="48.03677" lon="-3.87164">
        <ele>149</ele>
        <time>2022-12-08T09:38:41Z</time>
      </trkpt>
      <trkpt lat="48.03679" lon="-3.87162">
        <ele>149.1</ele>
        <time>2022-12-08T09:38:42Z</time>
      </trkpt>
      <trkpt lat="48.03682" lon="-3.87159">
        <ele>149.3</ele>
        <time>2022-12-08T09:38:43Z</time>
      </trkpt>
      <trkpt lat="48.03685" lon="-3.87157">
        <ele>149.6</ele>
        <time>2022-12-08T09:38:44Z</time>
      </trkpt>
      <trkpt lat="48.03691" lon="-3.87151">
        <ele>150</ele>
        <time>2022-12-08T09:38:46Z</time>
      </trkpt>
      <trkpt lat="48.03694" lon="-3.87148">
        <ele>150.2</ele>
        <time>2022-12-08T09:38:47Z</time>
      </trkpt>
      <trkpt lat="48.03697" lon="-3.87146">
        <ele>150.4</ele>
        <time>2022-12-08T09:38:48Z</time>
      </trkpt>
      <trkpt lat="48.03701" lon="-3.87143">
        <ele>150.7</ele>
        <time>2022-12-08T09:38:49Z</time>
      </trkpt>
      <trkpt lat="48.03704" lon="-3.87141">
        <ele>150.9</ele>
        <time>2022-12-08T09:38:50Z</time>
      </trkpt>
      <trkpt lat="48.03708" lon="-3.87138">
        <ele>151.1</ele>
        <time>2022-12-08T09:38:51Z</time>
      </trkpt>
      <trkpt lat="48.03711" lon="-3.87135">
        <ele>151.3</ele>
        <time>2022-12-08T09:38:52Z</time>
      </trkpt>
      <trkpt lat="48.03715" lon="-3.87132">
        <ele>151.5</ele>
        <time>2022-12-08T09:38:53Z</time>
      </trkpt>
      <trkpt lat="48.03718" lon="-3.87129">
        <ele>151.7</ele>
        <time>2022-12-08T09:38:54Z</time>
      </trkpt>
      <trkpt lat="48.03721" lon="-3.87127">
        <ele>151.9</ele>
        <time>2022-12-08T09:38:55Z</time>
      </trkpt>
      <trkpt lat="48.03724" lon="-3.87124">
        <ele>152</ele>
        <time>2022-12-08T09:38:56Z</time>
      </trkpt>
      <trkpt lat="48.03728" lon="-3.87122">
        <ele>152.2</ele>
        <time>2022-12-08T09:38:57Z</time>
      </trkpt>
      <trkpt lat="48.03732" lon="-3.87118">
        <ele>152.4</ele>
        <time>2022-12-08T09:38:58Z</time>
      </trkpt>
      <trkpt lat="48.03735" lon="-3.87116">
        <ele>152.5</ele>
        <time>2022-12-08T09:38:59Z</time>
      </trkpt>
      <trkpt lat="48.03739" lon="-3.87113">
        <ele>152.7</ele>
        <time>2022-12-08T09:39:00Z</time>
      </trkpt>
      <trkpt lat="48.03742" lon="-3.8711">
        <ele>152.8</ele>
        <time>2022-12-08T09:39:01Z</time>
      </trkpt>
      <trkpt lat="48.03745" lon="-3.87107">
        <ele>152.9</ele>
        <time>2022-12-08T09:39:02Z</time>
      </trkpt>
      <trkpt lat="48.03749" lon="-3.87104">
        <ele>153</ele>
        <time>2022-12-08T09:39:03Z</time>
      </trkpt>
      <trkpt lat="48.03752" lon="-3.87102">
        <ele>153.1</ele>
        <time>2022-12-08T09:39:04Z</time>
      </trkpt>
      <trkpt lat="48.03755" lon="-3.87099">
        <ele>153.2</ele>
        <time>2022-12-08T09:39:05Z</time>
      </trkpt>
      <trkpt lat="48.03758" lon="-3.87096">
        <ele>153.3</ele>
        <time>2022-12-08T09:39:06Z</time>
      </trkpt>
      <trkpt lat="48.03761" lon="-3.87093">
        <ele>153.4</ele>
        <time>2022-12-08T09:39:07Z</time>
      </trkpt>
      <trkpt lat="48.03764" lon="-3.87092">
        <ele>153.5</ele>
        <time>2022-12-08T09:39:08Z</time>
      </trkpt>
      <trkpt lat="48.03768" lon="-3.87089">
        <ele>153.5</ele>
        <time>2022-12-08T09:39:09Z</time>
      </trkpt>
      <trkpt lat="48.03772" lon="-3.87085">
        <ele>153.6</ele>
        <time>2022-12-08T09:39:10Z</time>
      </trkpt>
      <trkpt lat="48.03776" lon="-3.87082">
        <ele>153.7</ele>
        <time>2022-12-08T09:39:11Z</time>
      </trkpt>
      <trkpt lat="48.03781" lon="-3.87078">
        <ele>153.7</ele>
        <time>2022-12-08T09:39:12Z</time>
      </trkpt>
      <trkpt lat="48.03784" lon="-3.87076">
        <ele>153.8</ele>
        <time>2022-12-08T09:39:13Z</time>
      </trkpt>
      <trkpt lat="48.03788" lon="-3.87073">
        <ele>153.8</ele>
        <time>2022-12-08T09:39:14Z</time>
      </trkpt>
      <trkpt lat="48.03792" lon="-3.87071">
        <ele>153.8</ele>
        <time>2022-12-08T09:39:15Z</time>
      </trkpt>
      <trkpt lat="48.03796" lon="-3.87068">
        <ele>153.9</ele>
        <time>2022-12-08T09:39:16Z</time>
      </trkpt>
      <trkpt lat="48.038" lon="-3.87065">
        <ele>153.9</ele>
        <time>2022-12-08T09:39:17Z</time>
      </trkpt>
      <trkpt lat="48.03803" lon="-3.87062">
        <ele>154</ele>
        <time>2022-12-08T09:39:18Z</time>
      </trkpt>
      <trkpt lat="48.03808" lon="-3.87059">
        <ele>154</ele>
        <time>2022-12-08T09:39:19Z</time>
      </trkpt>
      <trkpt lat="48.03811" lon="-3.87057">
        <ele>154.1</ele>
        <time>2022-12-08T09:39:20Z</time>
      </trkpt>
      <trkpt lat="48.03814" lon="-3.87054">
        <ele>154.1</ele>
        <time>2022-12-08T09:39:21Z</time>
      </trkpt>
      <trkpt lat="48.03817" lon="-3.87051">
        <ele>154.1</ele>
        <time>2022-12-08T09:39:22Z</time>
      </trkpt>
      <trkpt lat="48.03821" lon="-3.87048">
        <ele>154.2</ele>
        <time>2022-12-08T09:39:23Z</time>
      </trkpt>
      <trkpt lat="48.03824" lon="-3.87045">
        <ele>154.2</ele>
        <time>2022-12-08T09:39:24Z</time>
      </trkpt>
      <trkpt lat="48.03828" lon="-3.87042">
        <ele>154.2</ele>
        <time>2022-12-08T09:39:25Z</time>
      </trkpt>
      <trkpt lat="48.03832" lon="-3.87039">
        <ele>154.2</ele>
        <time>2022-12-08T09:39:26Z</time>
      </trkpt>
      <trkpt lat="48.03836" lon="-3.87037">
        <ele>154.1</ele>
        <time>2022-12-08T09:39:27Z</time>
      </trkpt>
      <trkpt lat="48.0384" lon="-3.87034">
        <ele>154.1</ele>
        <time>2022-12-08T09:39:28Z</time>
      </trkpt>
      <trkpt lat="48.03844" lon="-3.87031">
        <ele>154</ele>
        <time>2022-12-08T09:39:29Z</time>
      </trkpt>
      <trkpt lat="48.0385" lon="-3.87028">
        <ele>153.8</ele>
        <time>2022-12-08T09:39:30Z</time>
      </trkpt>
      <trkpt lat="48.03854" lon="-3.87026">
        <ele>153.7</ele>
        <time>2022-12-08T09:39:31Z</time>
      </trkpt>
      <trkpt lat="48.0386" lon="-3.87024">
        <ele>153.5</ele>
        <time>2022-12-08T09:39:32Z</time>
      </trkpt>
      <trkpt lat="48.03865" lon="-3.87021">
        <ele>153.2</ele>
        <time>2022-12-08T09:39:33Z</time>
      </trkpt>
      <trkpt lat="48.03871" lon="-3.87019">
        <ele>152.9</ele>
        <time>2022-12-08T09:39:34Z</time>
      </trkpt>
      <trkpt lat="48.03877" lon="-3.87017">
        <ele>152.6</ele>
        <time>2022-12-08T09:39:35Z</time>
      </trkpt>
      <trkpt lat="48.03882" lon="-3.87016">
        <ele>152.4</ele>
        <time>2022-12-08T09:39:36Z</time>
      </trkpt>
      <trkpt lat="48.03888" lon="-3.87015">
        <ele>152.1</ele>
        <time>2022-12-08T09:39:37Z</time>
      </trkpt>
      <trkpt lat="48.03895" lon="-3.87012">
        <ele>151.7</ele>
        <time>2022-12-08T09:39:38Z</time>
      </trkpt>
      <trkpt lat="48.03903" lon="-3.87009">
        <ele>151.4</ele>
        <time>2022-12-08T09:39:39Z</time>
      </trkpt>
      <trkpt lat="48.0391" lon="-3.87006">
        <ele>151</ele>
        <time>2022-12-08T09:39:40Z</time>
      </trkpt>
      <trkpt lat="48.03916" lon="-3.87004">
        <ele>150.8</ele>
        <time>2022-12-08T09:39:41Z</time>
      </trkpt>
      <trkpt lat="48.03922" lon="-3.87002">
        <ele>150.5</ele>
        <time>2022-12-08T09:39:42Z</time>
      </trkpt>
      <trkpt lat="48.0393" lon="-3.86999">
        <ele>150.3</ele>
        <time>2022-12-08T09:39:43Z</time>
      </trkpt>
      <trkpt lat="48.03937" lon="-3.86996">
        <ele>150</ele>
        <time>2022-12-08T09:39:44Z</time>
      </trkpt>
      <trkpt lat="48.03944" lon="-3.86993">
        <ele>149.8</ele>
        <time>2022-12-08T09:39:45Z</time>
      </trkpt>
      <trkpt lat="48.03951" lon="-3.86989">
        <ele>149.6</ele>
        <time>2022-12-08T09:39:46Z</time>
      </trkpt>
      <trkpt lat="48.03957" lon="-3.86987">
        <ele>149.3</ele>
        <time>2022-12-08T09:39:47Z</time>
      </trkpt>
      <trkpt lat="48.03964" lon="-3.86984">
        <ele>149.1</ele>
        <time>2022-12-08T09:39:48Z</time>
      </trkpt>
      <trkpt lat="48.03972" lon="-3.86981">
        <ele>148.8</ele>
        <time>2022-12-08T09:39:49Z</time>
      </trkpt>
      <trkpt lat="48.03979" lon="-3.86978">
        <ele>148.6</ele>
        <time>2022-12-08T09:39:50Z</time>
      </trkpt>
      <trkpt lat="48.03985" lon="-3.86976">
        <ele>148.3</ele>
        <time>2022-12-08T09:39:51Z</time>
      </trkpt>
      <trkpt lat="48.03991" lon="-3.86973">
        <ele>148.1</ele>
        <time>2022-12-08T09:39:52Z</time>
      </trkpt>
      <trkpt lat="48.03998" lon="-3.86971">
        <ele>147.9</ele>
        <time>2022-12-08T09:39:53Z</time>
      </trkpt>
      <trkpt lat="48.04005" lon="-3.86968">
        <ele>147.6</ele>
        <time>2022-12-08T09:39:54Z</time>
      </trkpt>
      <trkpt lat="48.04011" lon="-3.86965">
        <ele>147.4</ele>
        <time>2022-12-08T09:39:55Z</time>
      </trkpt>
      <trkpt lat="48.04018" lon="-3.86962">
        <ele>147.2</ele>
        <time>2022-12-08T09:39:56Z</time>
      </trkpt>
      <trkpt lat="48.04025" lon="-3.8696">
        <ele>147</ele>
        <time>2022-12-08T09:39:57Z</time>
      </trkpt>
      <trkpt lat="48.04032" lon="-3.86957">
        <ele>146.7</ele>
        <time>2022-12-08T09:39:58Z</time>
      </trkpt>
      <trkpt lat="48.04039" lon="-3.86954">
        <ele>146.5</ele>
        <time>2022-12-08T09:39:59Z</time>
      </trkpt>
      <trkpt lat="48.04046" lon="-3.8695">
        <ele>146.2</ele>
        <time>2022-12-08T09:40:00Z</time>
      </trkpt>
      <trkpt lat="48.04054" lon="-3.86947">
        <ele>145.8</ele>
        <time>2022-12-08T09:40:01Z</time>
      </trkpt>
      <trkpt lat="48.04061" lon="-3.86945">
        <ele>145.6</ele>
        <time>2022-12-08T09:40:02Z</time>
      </trkpt>
      <trkpt lat="48.04068" lon="-3.86941">
        <ele>145.3</ele>
        <time>2022-12-08T09:40:03Z</time>
      </trkpt>
      <trkpt lat="48.04076" lon="-3.86938">
        <ele>145.1</ele>
        <time>2022-12-08T09:40:04Z</time>
      </trkpt>
      <trkpt lat="48.04083" lon="-3.86935">
        <ele>145</ele>
        <time>2022-12-08T09:40:05Z</time>
      </trkpt>
      <trkpt lat="48.04091" lon="-3.86932">
        <ele>144.8</ele>
        <time>2022-12-08T09:40:06Z</time>
      </trkpt>
      <trkpt lat="48.04098" lon="-3.86929">
        <ele>144.8</ele>
        <time>2022-12-08T09:40:07Z</time>
      </trkpt>
      <trkpt lat="48.04106" lon="-3.86927">
        <ele>144.8</ele>
        <time>2022-12-08T09:40:08Z</time>
      </trkpt>
      <trkpt lat="48.04113" lon="-3.86924">
        <ele>144.8</ele>
        <time>2022-12-08T09:40:09Z</time>
      </trkpt>
      <trkpt lat="48.04121" lon="-3.86921">
        <ele>144.9</ele>
        <time>2022-12-08T09:40:10Z</time>
      </trkpt>
      <trkpt lat="48.04127" lon="-3.86918">
        <ele>145</ele>
        <time>2022-12-08T09:40:11Z</time>
      </trkpt>
      <trkpt lat="48.04134" lon="-3.86916">
        <ele>145.1</ele>
        <time>2022-12-08T09:40:12Z</time>
      </trkpt>
      <trkpt lat="48.0414" lon="-3.86914">
        <ele>145.3</ele>
        <time>2022-12-08T09:40:13Z</time>
      </trkpt>
      <trkpt lat="48.04146" lon="-3.8691">
        <ele>145.4</ele>
        <time>2022-12-08T09:40:14Z</time>
      </trkpt>
      <trkpt lat="48.04152" lon="-3.86907">
        <ele>145.6</ele>
        <time>2022-12-08T09:40:15Z</time>
      </trkpt>
      <trkpt lat="48.04158" lon="-3.86904">
        <ele>145.7</ele>
        <time>2022-12-08T09:40:16Z</time>
      </trkpt>
      <trkpt lat="48.04163" lon="-3.86901">
        <ele>145.8</ele>
        <time>2022-12-08T09:40:17Z</time>
      </trkpt>
      <trkpt lat="48.04168" lon="-3.86899">
        <ele>145.8</ele>
        <time>2022-12-08T09:40:18Z</time>
      </trkpt>
      <trkpt lat="48.04175" lon="-3.86897">
        <ele>145.9</ele>
        <time>2022-12-08T09:40:19Z</time>
      </trkpt>
      <trkpt lat="48.04181" lon="-3.86895">
        <ele>146</ele>
        <time>2022-12-08T09:40:20Z</time>
      </trkpt>
      <trkpt lat="48.04187" lon="-3.86893">
        <ele>146.1</ele>
        <time>2022-12-08T09:40:21Z</time>
      </trkpt>
      <trkpt lat="48.04193" lon="-3.8689">
        <ele>146.1</ele>
        <time>2022-12-08T09:40:22Z</time>
      </trkpt>
      <trkpt lat="48.04199" lon="-3.86888">
        <ele>146.2</ele>
        <time>2022-12-08T09:40:23Z</time>
      </trkpt>
      <trkpt lat="48.04205" lon="-3.86887">
        <ele>146.3</ele>
        <time>2022-12-08T09:40:24Z</time>
      </trkpt>
      <trkpt lat="48.04211" lon="-3.86885">
        <ele>146.4</ele>
        <time>2022-12-08T09:40:25Z</time>
      </trkpt>
      <trkpt lat="48.04216" lon="-3.86883">
        <ele>146.5</ele>
        <time>2022-12-08T09:40:26Z</time>
      </trkpt>
      <trkpt lat="48.04221" lon="-3.8688">
        <ele>146.5</ele>
        <time>2022-12-08T09:40:27Z</time>
      </trkpt>
      <trkpt lat="48.04226" lon="-3.86878">
        <ele>146.6</ele>
        <time>2022-12-08T09:40:28Z</time>
      </trkpt>
      <trkpt lat="48.0423" lon="-3.86876">
        <ele>146.6</ele>
        <time>2022-12-08T09:40:29Z</time>
      </trkpt>
      <trkpt lat="48.04235" lon="-3.86874">
        <ele>146.7</ele>
        <time>2022-12-08T09:40:30Z</time>
      </trkpt>
      <trkpt lat="48.04239" lon="-3.86872">
        <ele>146.8</ele>
        <time>2022-12-08T09:40:31Z</time>
      </trkpt>
      <trkpt lat="48.04244" lon="-3.86871">
        <ele>146.9</ele>
        <time>2022-12-08T09:40:32Z</time>
      </trkpt>
      <trkpt lat="48.04249" lon="-3.86869">
        <ele>147</ele>
        <time>2022-12-08T09:40:33Z</time>
      </trkpt>
      <trkpt lat="48.04254" lon="-3.86868">
        <ele>147.1</ele>
        <time>2022-12-08T09:40:34Z</time>
      </trkpt>
      <trkpt lat="48.04258" lon="-3.86866">
        <ele>147.2</ele>
        <time>2022-12-08T09:40:35Z</time>
      </trkpt>
      <trkpt lat="48.04263" lon="-3.86865">
        <ele>147.4</ele>
        <time>2022-12-08T09:40:36Z</time>
      </trkpt>
      <trkpt lat="48.04267" lon="-3.86863">
        <ele>147.5</ele>
        <time>2022-12-08T09:40:37Z</time>
      </trkpt>
      <trkpt lat="48.04272" lon="-3.86861">
        <ele>147.6</ele>
        <time>2022-12-08T09:40:38Z</time>
      </trkpt>
      <trkpt lat="48.04276" lon="-3.86859">
        <ele>147.7</ele>
        <time>2022-12-08T09:40:39Z</time>
      </trkpt>
      <trkpt lat="48.0428" lon="-3.86857">
        <ele>147.8</ele>
        <time>2022-12-08T09:40:40Z</time>
      </trkpt>
      <trkpt lat="48.04285" lon="-3.86856">
        <ele>147.9</ele>
        <time>2022-12-08T09:40:41Z</time>
      </trkpt>
      <trkpt lat="48.04289" lon="-3.86854">
        <ele>148.1</ele>
        <time>2022-12-08T09:40:42Z</time>
      </trkpt>
      <trkpt lat="48.04294" lon="-3.86853">
        <ele>148.2</ele>
        <time>2022-12-08T09:40:43Z</time>
      </trkpt>
      <trkpt lat="48.04298" lon="-3.86851">
        <ele>148.4</ele>
        <time>2022-12-08T09:40:44Z</time>
      </trkpt>
      <trkpt lat="48.04301" lon="-3.8685">
        <ele>148.5</ele>
        <time>2022-12-08T09:40:45Z</time>
      </trkpt>
      <trkpt lat="48.04305" lon="-3.86848">
        <ele>148.6</ele>
        <time>2022-12-08T09:40:46Z</time>
      </trkpt>
      <trkpt lat="48.04309" lon="-3.86847">
        <ele>148.8</ele>
        <time>2022-12-08T09:40:47Z</time>
      </trkpt>
      <trkpt lat="48.04314" lon="-3.86845">
        <ele>149</ele>
        <time>2022-12-08T09:40:48Z</time>
      </trkpt>
      <trkpt lat="48.04317" lon="-3.86843">
        <ele>149.1</ele>
        <time>2022-12-08T09:40:49Z</time>
      </trkpt>
      <trkpt lat="48.04322" lon="-3.86841">
        <ele>149.3</ele>
        <time>2022-12-08T09:40:50Z</time>
      </trkpt>
      <trkpt lat="48.04325" lon="-3.8684">
        <ele>149.4</ele>
        <time>2022-12-08T09:40:51Z</time>
      </trkpt>
      <trkpt lat="48.04329" lon="-3.86841">
        <ele>149.6</ele>
        <time>2022-12-08T09:40:53Z</time>
      </trkpt>
      <trkpt lat="48.04335" lon="-3.86837">
        <ele>149.8</ele>
        <time>2022-12-08T09:40:54Z</time>
      </trkpt>
      <trkpt lat="48.04339" lon="-3.86834">
        <ele>149.9</ele>
        <time>2022-12-08T09:40:55Z</time>
      </trkpt>
      <trkpt lat="48.04344" lon="-3.86833">
        <ele>150</ele>
        <time>2022-12-08T09:40:56Z</time>
      </trkpt>
      <trkpt lat="48.0435" lon="-3.8683">
        <ele>150.2</ele>
        <time>2022-12-08T09:40:57Z</time>
      </trkpt>
      <trkpt lat="48.04355" lon="-3.86829">
        <ele>150.4</ele>
        <time>2022-12-08T09:40:58Z</time>
      </trkpt>
      <trkpt lat="48.04361" lon="-3.86827">
        <ele>150.6</ele>
        <time>2022-12-08T09:41:00Z</time>
      </trkpt>
      <trkpt lat="48.04365" lon="-3.86825">
        <ele>150.7</ele>
        <time>2022-12-08T09:41:01Z</time>
      </trkpt>
      <trkpt lat="48.04371" lon="-3.86822">
        <ele>150.9</ele>
        <time>2022-12-08T09:41:02Z</time>
      </trkpt>
      <trkpt lat="48.04375" lon="-3.86821">
        <ele>151.1</ele>
        <time>2022-12-08T09:41:03Z</time>
      </trkpt>
      <trkpt lat="48.04379" lon="-3.86819">
        <ele>151.3</ele>
        <time>2022-12-08T09:41:04Z</time>
      </trkpt>
      <trkpt lat="48.04383" lon="-3.86817">
        <ele>151.5</ele>
        <time>2022-12-08T09:41:05Z</time>
      </trkpt>
      <trkpt lat="48.04387" lon="-3.86815">
        <ele>151.7</ele>
        <time>2022-12-08T09:41:06Z</time>
      </trkpt>
      <trkpt lat="48.04391" lon="-3.86814">
        <ele>151.9</ele>
        <time>2022-12-08T09:41:07Z</time>
      </trkpt>
      <trkpt lat="48.04395" lon="-3.86812">
        <ele>151.9</ele>
        <time>2022-12-08T09:41:08Z</time>
      </trkpt>
      <trkpt lat="48.04399" lon="-3.8681">
        <ele>152</ele>
        <time>2022-12-08T09:41:09Z</time>
      </trkpt>
      <trkpt lat="48.04403" lon="-3.86808">
        <ele>152</ele>
        <time>2022-12-08T09:41:10Z</time>
      </trkpt>
      <trkpt lat="48.04406" lon="-3.86807">
        <ele>152</ele>
        <time>2022-12-08T09:41:11Z</time>
      </trkpt>
      <trkpt lat="48.0441" lon="-3.86806">
        <ele>152.1</ele>
        <time>2022-12-08T09:41:12Z</time>
      </trkpt>
      <trkpt lat="48.04414" lon="-3.86804">
        <ele>152.2</ele>
        <time>2022-12-08T09:41:13Z</time>
      </trkpt>
      <trkpt lat="48.04418" lon="-3.86802">
        <ele>152.3</ele>
        <time>2022-12-08T09:41:14Z</time>
      </trkpt>
      <trkpt lat="48.04422" lon="-3.86801">
        <ele>152.4</ele>
        <time>2022-12-08T09:41:15Z</time>
      </trkpt>
      <trkpt lat="48.04427" lon="-3.868">
        <ele>152.5</ele>
        <time>2022-12-08T09:41:16Z</time>
      </trkpt>
      <trkpt lat="48.04431" lon="-3.86797">
        <ele>152.6</ele>
        <time>2022-12-08T09:41:17Z</time>
      </trkpt>
      <trkpt lat="48.04434" lon="-3.86795">
        <ele>152.8</ele>
        <time>2022-12-08T09:41:18Z</time>
      </trkpt>
      <trkpt lat="48.0444" lon="-3.86791">
        <ele>153</ele>
        <time>2022-12-08T09:41:20Z</time>
      </trkpt>
      <trkpt lat="48.04446" lon="-3.86788">
        <ele>153.3</ele>
        <time>2022-12-08T09:41:21Z</time>
      </trkpt>
      <trkpt lat="48.04451" lon="-3.86787">
        <ele>153.4</ele>
        <time>2022-12-08T09:41:22Z</time>
      </trkpt>
      <trkpt lat="48.04455" lon="-3.86785">
        <ele>153.5</ele>
        <time>2022-12-08T09:41:23Z</time>
      </trkpt>
      <trkpt lat="48.0446" lon="-3.86784">
        <ele>153.6</ele>
        <time>2022-12-08T09:41:24Z</time>
      </trkpt>
      <trkpt lat="48.04464" lon="-3.86782">
        <ele>153.7</ele>
        <time>2022-12-08T09:41:25Z</time>
      </trkpt>
      <trkpt lat="48.04468" lon="-3.8678">
        <ele>153.8</ele>
        <time>2022-12-08T09:41:26Z</time>
      </trkpt>
      <trkpt lat="48.04473" lon="-3.86777">
        <ele>153.8</ele>
        <time>2022-12-08T09:41:27Z</time>
      </trkpt>
      <trkpt lat="48.04478" lon="-3.86775">
        <ele>153.9</ele>
        <time>2022-12-08T09:41:28Z</time>
      </trkpt>
      <trkpt lat="48.04482" lon="-3.86774">
        <ele>154</ele>
        <time>2022-12-08T09:41:29Z</time>
      </trkpt>
      <trkpt lat="48.04487" lon="-3.86772">
        <ele>154.1</ele>
        <time>2022-12-08T09:41:30Z</time>
      </trkpt>
      <trkpt lat="48.04491" lon="-3.8677">
        <ele>154.2</ele>
        <time>2022-12-08T09:41:31Z</time>
      </trkpt>
      <trkpt lat="48.04496" lon="-3.86768">
        <ele>154.2</ele>
        <time>2022-12-08T09:41:32Z</time>
      </trkpt>
      <trkpt lat="48.04501" lon="-3.86766">
        <ele>154.3</ele>
        <time>2022-12-08T09:41:33Z</time>
      </trkpt>
      <trkpt lat="48.04505" lon="-3.86763">
        <ele>154.4</ele>
        <time>2022-12-08T09:41:34Z</time>
      </trkpt>
      <trkpt lat="48.04509" lon="-3.86761">
        <ele>154.5</ele>
        <time>2022-12-08T09:41:35Z</time>
      </trkpt>
      <trkpt lat="48.04514" lon="-3.86759">
        <ele>154.5</ele>
        <time>2022-12-08T09:41:36Z</time>
      </trkpt>
      <trkpt lat="48.04518" lon="-3.86757">
        <ele>154.6</ele>
        <time>2022-12-08T09:41:37Z</time>
      </trkpt>
      <trkpt lat="48.04523" lon="-3.86756">
        <ele>154.7</ele>
        <time>2022-12-08T09:41:38Z</time>
      </trkpt>
      <trkpt lat="48.04527" lon="-3.86755">
        <ele>154.8</ele>
        <time>2022-12-08T09:41:39Z</time>
      </trkpt>
      <trkpt lat="48.04529" lon="-3.86753">
        <ele>154.9</ele>
        <time>2022-12-08T09:41:40Z</time>
      </trkpt>
      <trkpt lat="48.04535" lon="-3.86751">
        <ele>155.1</ele>
        <time>2022-12-08T09:41:41Z</time>
      </trkpt>
      <trkpt lat="48.04541" lon="-3.86748">
        <ele>155.2</ele>
        <time>2022-12-08T09:41:43Z</time>
      </trkpt>
      <trkpt lat="48.04545" lon="-3.86745">
        <ele>155.4</ele>
        <time>2022-12-08T09:41:44Z</time>
      </trkpt>
      <trkpt lat="48.04549" lon="-3.86743">
        <ele>155.6</ele>
        <time>2022-12-08T09:41:45Z</time>
      </trkpt>
      <trkpt lat="48.04555" lon="-3.8674">
        <ele>155.8</ele>
        <time>2022-12-08T09:41:47Z</time>
      </trkpt>
      <trkpt lat="48.04562" lon="-3.86737">
        <ele>156</ele>
        <time>2022-12-08T09:41:48Z</time>
      </trkpt>
      <trkpt lat="48.04568" lon="-3.86735">
        <ele>156.3</ele>
        <time>2022-12-08T09:41:50Z</time>
      </trkpt>
      <trkpt lat="48.04573" lon="-3.86733">
        <ele>156.5</ele>
        <time>2022-12-08T09:41:51Z</time>
      </trkpt>
      <trkpt lat="48.04577" lon="-3.86731">
        <ele>156.7</ele>
        <time>2022-12-08T09:41:52Z</time>
      </trkpt>
      <trkpt lat="48.0458" lon="-3.86729">
        <ele>156.9</ele>
        <time>2022-12-08T09:41:53Z</time>
      </trkpt>
      <trkpt lat="48.04584" lon="-3.86728">
        <ele>157.1</ele>
        <time>2022-12-08T09:41:54Z</time>
      </trkpt>
      <trkpt lat="48.04588" lon="-3.86727">
        <ele>157.3</ele>
        <time>2022-12-08T09:41:55Z</time>
      </trkpt>
      <trkpt lat="48.04591" lon="-3.86725">
        <ele>157.5</ele>
        <time>2022-12-08T09:41:56Z</time>
      </trkpt>
      <trkpt lat="48.04594" lon="-3.86723">
        <ele>157.7</ele>
        <time>2022-12-08T09:41:57Z</time>
      </trkpt>
      <trkpt lat="48.04598" lon="-3.86722">
        <ele>157.9</ele>
        <time>2022-12-08T09:41:58Z</time>
      </trkpt>
      <trkpt lat="48.04601" lon="-3.86721">
        <ele>158.1</ele>
        <time>2022-12-08T09:41:59Z</time>
      </trkpt>
      <trkpt lat="48.04604" lon="-3.86719">
        <ele>158.3</ele>
        <time>2022-12-08T09:42:00Z</time>
      </trkpt>
      <trkpt lat="48.04609" lon="-3.86717">
        <ele>158.6</ele>
        <time>2022-12-08T09:42:02Z</time>
      </trkpt>
      <trkpt lat="48.04613" lon="-3.86715">
        <ele>158.9</ele>
        <time>2022-12-08T09:42:03Z</time>
      </trkpt>
      <trkpt lat="48.04618" lon="-3.86713">
        <ele>159.3</ele>
        <time>2022-12-08T09:42:05Z</time>
      </trkpt>
      <trkpt lat="48.04623" lon="-3.86711">
        <ele>159.6</ele>
        <time>2022-12-08T09:42:06Z</time>
      </trkpt>
      <trkpt lat="48.04627" lon="-3.86709">
        <ele>159.9</ele>
        <time>2022-12-08T09:42:07Z</time>
      </trkpt>
      <trkpt lat="48.0463" lon="-3.86708">
        <ele>160.2</ele>
        <time>2022-12-08T09:42:08Z</time>
      </trkpt>
      <trkpt lat="48.04635" lon="-3.86706">
        <ele>160.5</ele>
        <time>2022-12-08T09:42:10Z</time>
      </trkpt>
      <trkpt lat="48.0464" lon="-3.86704">
        <ele>160.9</ele>
        <time>2022-12-08T09:42:11Z</time>
      </trkpt>
      <trkpt lat="48.04643" lon="-3.86703">
        <ele>161.1</ele>
        <time>2022-12-08T09:42:12Z</time>
      </trkpt>
      <trkpt lat="48.04649" lon="-3.867">
        <ele>161.5</ele>
        <time>2022-12-08T09:42:13Z</time>
      </trkpt>
      <trkpt lat="48.04654" lon="-3.86698">
        <ele>162</ele>
        <time>2022-12-08T09:42:15Z</time>
      </trkpt>
      <trkpt lat="48.04658" lon="-3.86696">
        <ele>162.2</ele>
        <time>2022-12-08T09:42:16Z</time>
      </trkpt>
      <trkpt lat="48.04661" lon="-3.86694">
        <ele>162.6</ele>
        <time>2022-12-08T09:42:17Z</time>
      </trkpt>
      <trkpt lat="48.04665" lon="-3.86693">
        <ele>162.8</ele>
        <time>2022-12-08T09:42:18Z</time>
      </trkpt>
      <trkpt lat="48.04669" lon="-3.86691">
        <ele>163.2</ele>
        <time>2022-12-08T09:42:19Z</time>
      </trkpt>
      <trkpt lat="48.04674" lon="-3.86689">
        <ele>163.6</ele>
        <time>2022-12-08T09:42:20Z</time>
      </trkpt>
      <trkpt lat="48.04678" lon="-3.86688">
        <ele>164</ele>
        <time>2022-12-08T09:42:21Z</time>
      </trkpt>
      <trkpt lat="48.04681" lon="-3.86688">
        <ele>164.2</ele>
        <time>2022-12-08T09:42:22Z</time>
      </trkpt>
      <trkpt lat="48.04684" lon="-3.86688">
        <ele>164.5</ele>
        <time>2022-12-08T09:42:23Z</time>
      </trkpt>
      <trkpt lat="48.04688" lon="-3.86688">
        <ele>164.7</ele>
        <time>2022-12-08T09:42:24Z</time>
      </trkpt>
      <trkpt lat="48.04692" lon="-3.86686">
        <ele>165</ele>
        <time>2022-12-08T09:42:25Z</time>
      </trkpt>
      <trkpt lat="48.04695" lon="-3.86686">
        <ele>165.2</ele>
        <time>2022-12-08T09:42:26Z</time>
      </trkpt>
      <trkpt lat="48.04698" lon="-3.86685">
        <ele>165.4</ele>
        <time>2022-12-08T09:42:27Z</time>
      </trkpt>
      <trkpt lat="48.04702" lon="-3.86683">
        <ele>165.7</ele>
        <time>2022-12-08T09:42:28Z</time>
      </trkpt>
      <trkpt lat="48.04705" lon="-3.86682">
        <ele>165.8</ele>
        <time>2022-12-08T09:42:29Z</time>
      </trkpt>
      <trkpt lat="48.04708" lon="-3.86681">
        <ele>166</ele>
        <time>2022-12-08T09:42:30Z</time>
      </trkpt>
      <trkpt lat="48.04711" lon="-3.86679">
        <ele>166.2</ele>
        <time>2022-12-08T09:42:31Z</time>
      </trkpt>
      <trkpt lat="48.04715" lon="-3.86679">
        <ele>166.4</ele>
        <time>2022-12-08T09:42:32Z</time>
      </trkpt>
      <trkpt lat="48.04718" lon="-3.86678">
        <ele>166.5</ele>
        <time>2022-12-08T09:42:33Z</time>
      </trkpt>
      <trkpt lat="48.04722" lon="-3.86677">
        <ele>166.6</ele>
        <time>2022-12-08T09:42:35Z</time>
      </trkpt>
      <trkpt lat="48.04726" lon="-3.86676">
        <ele>166.7</ele>
        <time>2022-12-08T09:42:36Z</time>
      </trkpt>
      <trkpt lat="48.0473" lon="-3.86674">
        <ele>166.8</ele>
        <time>2022-12-08T09:42:37Z</time>
      </trkpt>
      <trkpt lat="48.04733" lon="-3.86673">
        <ele>166.9</ele>
        <time>2022-12-08T09:42:38Z</time>
      </trkpt>
      <trkpt lat="48.04737" lon="-3.8667">
        <ele>167.1</ele>
        <time>2022-12-08T09:42:39Z</time>
      </trkpt>
      <trkpt lat="48.04741" lon="-3.86668">
        <ele>167.2</ele>
        <time>2022-12-08T09:42:40Z</time>
      </trkpt>
      <trkpt lat="48.04744" lon="-3.86668">
        <ele>167.3</ele>
        <time>2022-12-08T09:42:41Z</time>
      </trkpt>
      <trkpt lat="48.04748" lon="-3.86668">
        <ele>167.4</ele>
        <time>2022-12-08T09:42:42Z</time>
      </trkpt>
      <trkpt lat="48.04753" lon="-3.86666">
        <ele>167.7</ele>
        <time>2022-12-08T09:42:44Z</time>
      </trkpt>
      <trkpt lat="48.04757" lon="-3.86666">
        <ele>167.8</ele>
        <time>2022-12-08T09:42:45Z</time>
      </trkpt>
      <trkpt lat="48.04761" lon="-3.86664">
        <ele>168</ele>
        <time>2022-12-08T09:42:46Z</time>
      </trkpt>
      <trkpt lat="48.04766" lon="-3.86663">
        <ele>168.3</ele>
        <time>2022-12-08T09:42:47Z</time>
      </trkpt>
      <trkpt lat="48.0477" lon="-3.86662">
        <ele>168.4</ele>
        <time>2022-12-08T09:42:48Z</time>
      </trkpt>
      <trkpt lat="48.04775" lon="-3.86661">
        <ele>168.7</ele>
        <time>2022-12-08T09:42:49Z</time>
      </trkpt>
      <trkpt lat="48.04779" lon="-3.8666">
        <ele>168.8</ele>
        <time>2022-12-08T09:42:51Z</time>
      </trkpt>
      <trkpt lat="48.04783" lon="-3.86659">
        <ele>169</ele>
        <time>2022-12-08T09:42:52Z</time>
      </trkpt>
      <trkpt lat="48.04787" lon="-3.86657">
        <ele>169.2</ele>
        <time>2022-12-08T09:42:53Z</time>
      </trkpt>
      <trkpt lat="48.04791" lon="-3.86656">
        <ele>169.3</ele>
        <time>2022-12-08T09:42:54Z</time>
      </trkpt>
      <trkpt lat="48.04795" lon="-3.86655">
        <ele>169.5</ele>
        <time>2022-12-08T09:42:55Z</time>
      </trkpt>
      <trkpt lat="48.04798" lon="-3.86654">
        <ele>169.6</ele>
        <time>2022-12-08T09:42:56Z</time>
      </trkpt>
      <trkpt lat="48.04804" lon="-3.86653">
        <ele>169.9</ele>
        <time>2022-12-08T09:42:58Z</time>
      </trkpt>
      <trkpt lat="48.04807" lon="-3.86653">
        <ele>170</ele>
        <time>2022-12-08T09:42:59Z</time>
      </trkpt>
      <trkpt lat="48.04812" lon="-3.86652">
        <ele>170.2</ele>
        <time>2022-12-08T09:43:00Z</time>
      </trkpt>
      <trkpt lat="48.04816" lon="-3.86653">
        <ele>170.4</ele>
        <time>2022-12-08T09:43:01Z</time>
      </trkpt>
      <trkpt lat="48.0482" lon="-3.86652">
        <ele>170.6</ele>
        <time>2022-12-08T09:43:02Z</time>
      </trkpt>
      <trkpt lat="48.04823" lon="-3.86652">
        <ele>170.8</ele>
        <time>2022-12-08T09:43:03Z</time>
      </trkpt>
      <trkpt lat="48.04827" lon="-3.86653">
        <ele>171</ele>
        <time>2022-12-08T09:43:04Z</time>
      </trkpt>
      <trkpt lat="48.0483" lon="-3.86652">
        <ele>171.2</ele>
        <time>2022-12-08T09:43:05Z</time>
      </trkpt>
      <trkpt lat="48.04834" lon="-3.86653">
        <ele>171.4</ele>
        <time>2022-12-08T09:43:06Z</time>
      </trkpt>
      <trkpt lat="48.04837" lon="-3.86653">
        <ele>171.6</ele>
        <time>2022-12-08T09:43:07Z</time>
      </trkpt>
      <trkpt lat="48.0484" lon="-3.86652">
        <ele>171.7</ele>
        <time>2022-12-08T09:43:08Z</time>
      </trkpt>
      <trkpt lat="48.04843" lon="-3.86651">
        <ele>171.9</ele>
        <time>2022-12-08T09:43:09Z</time>
      </trkpt>
      <trkpt lat="48.04847" lon="-3.86651">
        <ele>172</ele>
        <time>2022-12-08T09:43:10Z</time>
      </trkpt>
      <trkpt lat="48.0485" lon="-3.86651">
        <ele>172.2</ele>
        <time>2022-12-08T09:43:11Z</time>
      </trkpt>
      <trkpt lat="48.04853" lon="-3.86651">
        <ele>172.3</ele>
        <time>2022-12-08T09:43:12Z</time>
      </trkpt>
      <trkpt lat="48.04857" lon="-3.8665">
        <ele>172.4</ele>
        <time>2022-12-08T09:43:13Z</time>
      </trkpt>
      <trkpt lat="48.04861" lon="-3.86649">
        <ele>172.5</ele>
        <time>2022-12-08T09:43:14Z</time>
      </trkpt>
      <trkpt lat="48.04863" lon="-3.86649">
        <ele>172.7</ele>
        <time>2022-12-08T09:43:15Z</time>
      </trkpt>
      <trkpt lat="48.04868" lon="-3.86649">
        <ele>172.8</ele>
        <time>2022-12-08T09:43:16Z</time>
      </trkpt>
      <trkpt lat="48.04869" lon="-3.86649">
        <ele>172.9</ele>
        <time>2022-12-08T09:43:17Z</time>
      </trkpt>
      <trkpt lat="48.04874" lon="-3.86648">
        <ele>173.1</ele>
        <time>2022-12-08T09:43:18Z</time>
      </trkpt>
      <trkpt lat="48.04879" lon="-3.86647">
        <ele>173.2</ele>
        <time>2022-12-08T09:43:20Z</time>
      </trkpt>
      <trkpt lat="48.04884" lon="-3.86647">
        <ele>173.4</ele>
        <time>2022-12-08T09:43:21Z</time>
      </trkpt>
      <trkpt lat="48.04889" lon="-3.86646">
        <ele>173.5</ele>
        <time>2022-12-08T09:43:22Z</time>
      </trkpt>
      <trkpt lat="48.04893" lon="-3.86645">
        <ele>173.5</ele>
        <time>2022-12-08T09:43:23Z</time>
      </trkpt>
      <trkpt lat="48.04899" lon="-3.86644">
        <ele>173.6</ele>
        <time>2022-12-08T09:43:25Z</time>
      </trkpt>
      <trkpt lat="48.04904" lon="-3.86644">
        <ele>173.6</ele>
        <time>2022-12-08T09:43:26Z</time>
      </trkpt>
      <trkpt lat="48.04908" lon="-3.86643">
        <ele>173.7</ele>
        <time>2022-12-08T09:43:27Z</time>
      </trkpt>
      <trkpt lat="48.04911" lon="-3.86642">
        <ele>173.7</ele>
        <time>2022-12-08T09:43:28Z</time>
      </trkpt>
      <trkpt lat="48.04915" lon="-3.86641">
        <ele>173.8</ele>
        <time>2022-12-08T09:43:29Z</time>
      </trkpt>
      <trkpt lat="48.04918" lon="-3.86642">
        <ele>173.8</ele>
        <time>2022-12-08T09:43:30Z</time>
      </trkpt>
      <trkpt lat="48.04922" lon="-3.86641">
        <ele>173.9</ele>
        <time>2022-12-08T09:43:31Z</time>
      </trkpt>
      <trkpt lat="48.04927" lon="-3.8664">
        <ele>174</ele>
        <time>2022-12-08T09:43:32Z</time>
      </trkpt>
      <trkpt lat="48.04932" lon="-3.8664">
        <ele>174</ele>
        <time>2022-12-08T09:43:33Z</time>
      </trkpt>
      <trkpt lat="48.04936" lon="-3.8664">
        <ele>174</ele>
        <time>2022-12-08T09:43:34Z</time>
      </trkpt>
      <trkpt lat="48.04942" lon="-3.86639">
        <ele>174</ele>
        <time>2022-12-08T09:43:35Z</time>
      </trkpt>
      <trkpt lat="48.04947" lon="-3.86639">
        <ele>174</ele>
        <time>2022-12-08T09:43:36Z</time>
      </trkpt>
      <trkpt lat="48.04952" lon="-3.86637">
        <ele>174</ele>
        <time>2022-12-08T09:43:37Z</time>
      </trkpt>
      <trkpt lat="48.04957" lon="-3.86637">
        <ele>174</ele>
        <time>2022-12-08T09:43:38Z</time>
      </trkpt>
      <trkpt lat="48.04962" lon="-3.86636">
        <ele>173.9</ele>
        <time>2022-12-08T09:43:39Z</time>
      </trkpt>
      <trkpt lat="48.04966" lon="-3.86636">
        <ele>173.9</ele>
        <time>2022-12-08T09:43:40Z</time>
      </trkpt>
      <trkpt lat="48.04971" lon="-3.86637">
        <ele>173.9</ele>
        <time>2022-12-08T09:43:41Z</time>
      </trkpt>
      <trkpt lat="48.04974" lon="-3.86637">
        <ele>173.8</ele>
        <time>2022-12-08T09:43:42Z</time>
      </trkpt>
      <trkpt lat="48.0498" lon="-3.86636">
        <ele>173.8</ele>
        <time>2022-12-08T09:43:43Z</time>
      </trkpt>
      <trkpt lat="48.04984" lon="-3.86634">
        <ele>173.7</ele>
        <time>2022-12-08T09:43:45Z</time>
      </trkpt>
      <trkpt lat="48.0499" lon="-3.86634">
        <ele>173.6</ele>
        <time>2022-12-08T09:43:46Z</time>
      </trkpt>
      <trkpt lat="48.04998" lon="-3.86635">
        <ele>173.4</ele>
        <time>2022-12-08T09:43:47Z</time>
      </trkpt>
      <trkpt lat="48.05002" lon="-3.86634">
        <ele>173.3</ele>
        <time>2022-12-08T09:43:48Z</time>
      </trkpt>
      <trkpt lat="48.05006" lon="-3.86635">
        <ele>173.1</ele>
        <time>2022-12-08T09:43:49Z</time>
      </trkpt>
      <trkpt lat="48.0501" lon="-3.86636">
        <ele>172.6</ele>
        <time>2022-12-08T09:43:50Z</time>
      </trkpt>
      <trkpt lat="48.05013" lon="-3.86641">
        <ele>172.5</ele>
        <time>2022-12-08T09:43:52Z</time>
      </trkpt>
      <trkpt lat="48.05016" lon="-3.86649">
        <ele>172.4</ele>
        <time>2022-12-08T09:43:53Z</time>
      </trkpt>
      <trkpt lat="48.05016" lon="-3.86656">
        <ele>172.4</ele>
        <time>2022-12-08T09:43:54Z</time>
      </trkpt>
      <trkpt lat="48.05015" lon="-3.86664">
        <ele>172.3</ele>
        <time>2022-12-08T09:43:55Z</time>
      </trkpt>
      <trkpt lat="48.05014" lon="-3.86672">
        <ele>172.2</ele>
        <time>2022-12-08T09:43:56Z</time>
      </trkpt>
      <trkpt lat="48.05013" lon="-3.86679">
        <ele>172.2</ele>
        <time>2022-12-08T09:43:57Z</time>
      </trkpt>
      <trkpt lat="48.05012" lon="-3.86687">
        <ele>172.1</ele>
        <time>2022-12-08T09:43:58Z</time>
      </trkpt>
      <trkpt lat="48.05011" lon="-3.86695">
        <ele>172</ele>
        <time>2022-12-08T09:43:59Z</time>
      </trkpt>
      <trkpt lat="48.05009" lon="-3.86703">
        <ele>172</ele>
        <time>2022-12-08T09:44:00Z</time>
      </trkpt>
      <trkpt lat="48.05009" lon="-3.86711">
        <ele>171.9</ele>
        <time>2022-12-08T09:44:01Z</time>
      </trkpt>
      <trkpt lat="48.05008" lon="-3.86719">
        <ele>171.9</ele>
        <time>2022-12-08T09:44:02Z</time>
      </trkpt>
      <trkpt lat="48.05006" lon="-3.86728">
        <ele>171.8</ele>
        <time>2022-12-08T09:44:03Z</time>
      </trkpt>
      <trkpt lat="48.05005" lon="-3.86737">
        <ele>171.7</ele>
        <time>2022-12-08T09:44:04Z</time>
      </trkpt>
      <trkpt lat="48.05004" lon="-3.86745">
        <ele>171.7</ele>
        <time>2022-12-08T09:44:05Z</time>
      </trkpt>
      <trkpt lat="48.05003" lon="-3.86754">
        <ele>171.6</ele>
        <time>2022-12-08T09:44:06Z</time>
      </trkpt>
      <trkpt lat="48.05002" lon="-3.86763">
        <ele>171.5</ele>
        <time>2022-12-08T09:44:07Z</time>
      </trkpt>
      <trkpt lat="48.05001" lon="-3.86772">
        <ele>171.5</ele>
        <time>2022-12-08T09:44:08Z</time>
      </trkpt>
      <trkpt lat="48.04999" lon="-3.86781">
        <ele>171.4</ele>
        <time>2022-12-08T09:44:09Z</time>
      </trkpt>
      <trkpt lat="48.04998" lon="-3.86791">
        <ele>171.4</ele>
        <time>2022-12-08T09:44:10Z</time>
      </trkpt>
      <trkpt lat="48.04997" lon="-3.868">
        <ele>171.3</ele>
        <time>2022-12-08T09:44:11Z</time>
      </trkpt>
      <trkpt lat="48.04996" lon="-3.8681">
        <ele>171.3</ele>
        <time>2022-12-08T09:44:12Z</time>
      </trkpt>
      <trkpt lat="48.04995" lon="-3.86819">
        <ele>171.2</ele>
        <time>2022-12-08T09:44:13Z</time>
      </trkpt>
      <trkpt lat="48.04994" lon="-3.86828">
        <ele>171.2</ele>
        <time>2022-12-08T09:44:14Z</time>
      </trkpt>
      <trkpt lat="48.04992" lon="-3.86838">
        <ele>171.1</ele>
        <time>2022-12-08T09:44:15Z</time>
      </trkpt>
      <trkpt lat="48.04991" lon="-3.86847">
        <ele>171.1</ele>
        <time>2022-12-08T09:44:16Z</time>
      </trkpt>
      <trkpt lat="48.0499" lon="-3.86857">
        <ele>171</ele>
        <time>2022-12-08T09:44:17Z</time>
      </trkpt>
      <trkpt lat="48.04989" lon="-3.86866">
        <ele>171</ele>
        <time>2022-12-08T09:44:18Z</time>
      </trkpt>
      <trkpt lat="48.04987" lon="-3.86876">
        <ele>171</ele>
        <time>2022-12-08T09:44:19Z</time>
      </trkpt>
      <trkpt lat="48.04986" lon="-3.86885">
        <ele>170.9</ele>
        <time>2022-12-08T09:44:20Z</time>
      </trkpt>
      <trkpt lat="48.04985" lon="-3.86895">
        <ele>170.9</ele>
        <time>2022-12-08T09:44:21Z</time>
      </trkpt>
      <trkpt lat="48.04984" lon="-3.86904">
        <ele>170.9</ele>
        <time>2022-12-08T09:44:22Z</time>
      </trkpt>
      <trkpt lat="48.04983" lon="-3.86913">
        <ele>170.9</ele>
        <time>2022-12-08T09:44:23Z</time>
      </trkpt>
      <trkpt lat="48.04982" lon="-3.86923">
        <ele>170.8</ele>
        <time>2022-12-08T09:44:24Z</time>
      </trkpt>
      <trkpt lat="48.04981" lon="-3.86932">
        <ele>170.8</ele>
        <time>2022-12-08T09:44:25Z</time>
      </trkpt>
      <trkpt lat="48.0498" lon="-3.86942">
        <ele>170.8</ele>
        <time>2022-12-08T09:44:26Z</time>
      </trkpt>
      <trkpt lat="48.04979" lon="-3.86952">
        <ele>170.7</ele>
        <time>2022-12-08T09:44:27Z</time>
      </trkpt>
      <trkpt lat="48.04978" lon="-3.86962">
        <ele>170.7</ele>
        <time>2022-12-08T09:44:28Z</time>
      </trkpt>
      <trkpt lat="48.04977" lon="-3.86972">
        <ele>170.6</ele>
        <time>2022-12-08T09:44:29Z</time>
      </trkpt>
      <trkpt lat="48.04977" lon="-3.86982">
        <ele>170.6</ele>
        <time>2022-12-08T09:44:30Z</time>
      </trkpt>
      <trkpt lat="48.04976" lon="-3.86991">
        <ele>170.5</ele>
        <time>2022-12-08T09:44:31Z</time>
      </trkpt>
      <trkpt lat="48.04976" lon="-3.87001">
        <ele>170.5</ele>
        <time>2022-12-08T09:44:32Z</time>
      </trkpt>
      <trkpt lat="48.04975" lon="-3.87011">
        <ele>170.4</ele>
        <time>2022-12-08T09:44:33Z</time>
      </trkpt>
      <trkpt lat="48.04974" lon="-3.87021">
        <ele>170.4</ele>
        <time>2022-12-08T09:44:34Z</time>
      </trkpt>
      <trkpt lat="48.04974" lon="-3.87031">
        <ele>170.3</ele>
        <time>2022-12-08T09:44:35Z</time>
      </trkpt>
      <trkpt lat="48.04973" lon="-3.8704">
        <ele>170.2</ele>
        <time>2022-12-08T09:44:36Z</time>
      </trkpt>
      <trkpt lat="48.04973" lon="-3.87051">
        <ele>170.2</ele>
        <time>2022-12-08T09:44:37Z</time>
      </trkpt>
      <trkpt lat="48.04972" lon="-3.87061">
        <ele>170.1</ele>
        <time>2022-12-08T09:44:38Z</time>
      </trkpt>
      <trkpt lat="48.04971" lon="-3.87071">
        <ele>170</ele>
        <time>2022-12-08T09:44:39Z</time>
      </trkpt>
      <trkpt lat="48.04971" lon="-3.87081">
        <ele>169.9</ele>
        <time>2022-12-08T09:44:40Z</time>
      </trkpt>
      <trkpt lat="48.0497" lon="-3.87091">
        <ele>169.9</ele>
        <time>2022-12-08T09:44:41Z</time>
      </trkpt>
      <trkpt lat="48.04969" lon="-3.87101">
        <ele>169.8</ele>
        <time>2022-12-08T09:44:42Z</time>
      </trkpt>
      <trkpt lat="48.04968" lon="-3.87111">
        <ele>169.7</ele>
        <time>2022-12-08T09:44:43Z</time>
      </trkpt>
      <trkpt lat="48.04967" lon="-3.87121">
        <ele>169.6</ele>
        <time>2022-12-08T09:44:44Z</time>
      </trkpt>
      <trkpt lat="48.04967" lon="-3.87131">
        <ele>169.5</ele>
        <time>2022-12-08T09:44:45Z</time>
      </trkpt>
      <trkpt lat="48.04966" lon="-3.87141">
        <ele>169.4</ele>
        <time>2022-12-08T09:44:46Z</time>
      </trkpt>
      <trkpt lat="48.04965" lon="-3.87151">
        <ele>169.4</ele>
        <time>2022-12-08T09:44:47Z</time>
      </trkpt>
      <trkpt lat="48.04965" lon="-3.87161">
        <ele>169.3</ele>
        <time>2022-12-08T09:44:48Z</time>
      </trkpt>
      <trkpt lat="48.04964" lon="-3.87171">
        <ele>169.2</ele>
        <time>2022-12-08T09:44:49Z</time>
      </trkpt>
      <trkpt lat="48.04963" lon="-3.87182">
        <ele>169.1</ele>
        <time>2022-12-08T09:44:50Z</time>
      </trkpt>
      <trkpt lat="48.04962" lon="-3.87192">
        <ele>169.1</ele>
        <time>2022-12-08T09:44:51Z</time>
      </trkpt>
      <trkpt lat="48.04961" lon="-3.87203">
        <ele>169</ele>
        <time>2022-12-08T09:44:52Z</time>
      </trkpt>
      <trkpt lat="48.04961" lon="-3.87213">
        <ele>169</ele>
        <time>2022-12-08T09:44:53Z</time>
      </trkpt>
      <trkpt lat="48.0496" lon="-3.87224">
        <ele>168.9</ele>
        <time>2022-12-08T09:44:54Z</time>
      </trkpt>
      <trkpt lat="48.04959" lon="-3.87234">
        <ele>168.8</ele>
        <time>2022-12-08T09:44:55Z</time>
      </trkpt>
      <trkpt lat="48.04959" lon="-3.87244">
        <ele>168.8</ele>
        <time>2022-12-08T09:44:56Z</time>
      </trkpt>
      <trkpt lat="48.04958" lon="-3.87255">
        <ele>168.7</ele>
        <time>2022-12-08T09:44:57Z</time>
      </trkpt>
      <trkpt lat="48.04957" lon="-3.87266">
        <ele>168.6</ele>
        <time>2022-12-08T09:44:58Z</time>
      </trkpt>
      <trkpt lat="48.04957" lon="-3.87277">
        <ele>168.6</ele>
        <time>2022-12-08T09:44:59Z</time>
      </trkpt>
      <trkpt lat="48.04956" lon="-3.87287">
        <ele>168.5</ele>
        <time>2022-12-08T09:45:00Z</time>
      </trkpt>
      <trkpt lat="48.04956" lon="-3.87298">
        <ele>168.4</ele>
        <time>2022-12-08T09:45:01Z</time>
      </trkpt>
      <trkpt lat="48.04955" lon="-3.87309">
        <ele>168.3</ele>
        <time>2022-12-08T09:45:02Z</time>
      </trkpt>
      <trkpt lat="48.04954" lon="-3.8732">
        <ele>168.3</ele>
        <time>2022-12-08T09:45:03Z</time>
      </trkpt>
      <trkpt lat="48.04954" lon="-3.87331">
        <ele>168.2</ele>
        <time>2022-12-08T09:45:04Z</time>
      </trkpt>
      <trkpt lat="48.04953" lon="-3.87342">
        <ele>168.2</ele>
        <time>2022-12-08T09:45:05Z</time>
      </trkpt>
      <trkpt lat="48.04952" lon="-3.87353">
        <ele>168.1</ele>
        <time>2022-12-08T09:45:06Z</time>
      </trkpt>
      <trkpt lat="48.04952" lon="-3.87364">
        <ele>168</ele>
        <time>2022-12-08T09:45:07Z</time>
      </trkpt>
      <trkpt lat="48.04952" lon="-3.87375">
        <ele>168</ele>
        <time>2022-12-08T09:45:08Z</time>
      </trkpt>
      <trkpt lat="48.04951" lon="-3.87386">
        <ele>167.9</ele>
        <time>2022-12-08T09:45:09Z</time>
      </trkpt>
      <trkpt lat="48.04951" lon="-3.87397">
        <ele>167.8</ele>
        <time>2022-12-08T09:45:10Z</time>
      </trkpt>
      <trkpt lat="48.0495" lon="-3.87407">
        <ele>167.7</ele>
        <time>2022-12-08T09:45:11Z</time>
      </trkpt>
      <trkpt lat="48.0495" lon="-3.87418">
        <ele>167.6</ele>
        <time>2022-12-08T09:45:12Z</time>
      </trkpt>
      <trkpt lat="48.04949" lon="-3.87429">
        <ele>167.5</ele>
        <time>2022-12-08T09:45:13Z</time>
      </trkpt>
      <trkpt lat="48.04948" lon="-3.8744">
        <ele>167.4</ele>
        <time>2022-12-08T09:45:14Z</time>
      </trkpt>
      <trkpt lat="48.04948" lon="-3.87451">
        <ele>167.3</ele>
        <time>2022-12-08T09:45:15Z</time>
      </trkpt>
      <trkpt lat="48.04947" lon="-3.87462">
        <ele>167.2</ele>
        <time>2022-12-08T09:45:16Z</time>
      </trkpt>
      <trkpt lat="48.04946" lon="-3.87473">
        <ele>167.1</ele>
        <time>2022-12-08T09:45:17Z</time>
      </trkpt>
      <trkpt lat="48.04945" lon="-3.87484">
        <ele>167</ele>
        <time>2022-12-08T09:45:18Z</time>
      </trkpt>
      <trkpt lat="48.04944" lon="-3.87495">
        <ele>166.9</ele>
        <time>2022-12-08T09:45:19Z</time>
      </trkpt>
      <trkpt lat="48.04943" lon="-3.87507">
        <ele>166.8</ele>
        <time>2022-12-08T09:45:20Z</time>
      </trkpt>
      <trkpt lat="48.04941" lon="-3.87518">
        <ele>166.7</ele>
        <time>2022-12-08T09:45:21Z</time>
      </trkpt>
      <trkpt lat="48.0494" lon="-3.87529">
        <ele>166.5</ele>
        <time>2022-12-08T09:45:22Z</time>
      </trkpt>
      <trkpt lat="48.04938" lon="-3.8754">
        <ele>166.4</ele>
        <time>2022-12-08T09:45:23Z</time>
      </trkpt>
      <trkpt lat="48.04936" lon="-3.87551">
        <ele>166.2</ele>
        <time>2022-12-08T09:45:24Z</time>
      </trkpt>
      <trkpt lat="48.04934" lon="-3.87563">
        <ele>166</ele>
        <time>2022-12-08T09:45:25Z</time>
      </trkpt>
      <trkpt lat="48.04932" lon="-3.87574">
        <ele>165.8</ele>
        <time>2022-12-08T09:45:26Z</time>
      </trkpt>
      <trkpt lat="48.0493" lon="-3.87586">
        <ele>165.6</ele>
        <time>2022-12-08T09:45:27Z</time>
      </trkpt>
      <trkpt lat="48.04928" lon="-3.87597">
        <ele>165.3</ele>
        <time>2022-12-08T09:45:28Z</time>
      </trkpt>
      <trkpt lat="48.04926" lon="-3.87609">
        <ele>165.1</ele>
        <time>2022-12-08T09:45:29Z</time>
      </trkpt>
      <trkpt lat="48.04923" lon="-3.8762">
        <ele>164.9</ele>
        <time>2022-12-08T09:45:30Z</time>
      </trkpt>
      <trkpt lat="48.04921" lon="-3.87632">
        <ele>164.6</ele>
        <time>2022-12-08T09:45:31Z</time>
      </trkpt>
      <trkpt lat="48.04919" lon="-3.87644">
        <ele>164.4</ele>
        <time>2022-12-08T09:45:32Z</time>
      </trkpt>
      <trkpt lat="48.04917" lon="-3.87655">
        <ele>164.1</ele>
        <time>2022-12-08T09:45:33Z</time>
      </trkpt>
      <trkpt lat="48.04915" lon="-3.87667">
        <ele>163.8</ele>
        <time>2022-12-08T09:45:34Z</time>
      </trkpt>
      <trkpt lat="48.04913" lon="-3.87678">
        <ele>163.6</ele>
        <time>2022-12-08T09:45:35Z</time>
      </trkpt>
      <trkpt lat="48.04911" lon="-3.87689">
        <ele>163.3</ele>
        <time>2022-12-08T09:45:36Z</time>
      </trkpt>
      <trkpt lat="48.04909" lon="-3.87701">
        <ele>163.1</ele>
        <time>2022-12-08T09:45:37Z</time>
      </trkpt>
      <trkpt lat="48.04908" lon="-3.87712">
        <ele>162.8</ele>
        <time>2022-12-08T09:45:38Z</time>
      </trkpt>
      <trkpt lat="48.04906" lon="-3.87724">
        <ele>162.6</ele>
        <time>2022-12-08T09:45:39Z</time>
      </trkpt>
      <trkpt lat="48.04904" lon="-3.87735">
        <ele>162.3</ele>
        <time>2022-12-08T09:45:40Z</time>
      </trkpt>
      <trkpt lat="48.04902" lon="-3.87746">
        <ele>162.1</ele>
        <time>2022-12-08T09:45:41Z</time>
      </trkpt>
      <trkpt lat="48.049" lon="-3.87757">
        <ele>161.9</ele>
        <time>2022-12-08T09:45:42Z</time>
      </trkpt>
      <trkpt lat="48.04898" lon="-3.87769">
        <ele>161.6</ele>
        <time>2022-12-08T09:45:43Z</time>
      </trkpt>
      <trkpt lat="48.04896" lon="-3.87781">
        <ele>161.4</ele>
        <time>2022-12-08T09:45:44Z</time>
      </trkpt>
      <trkpt lat="48.04894" lon="-3.87792">
        <ele>161.2</ele>
        <time>2022-12-08T09:45:45Z</time>
      </trkpt>
      <trkpt lat="48.04892" lon="-3.87803">
        <ele>161</ele>
        <time>2022-12-08T09:45:46Z</time>
      </trkpt>
      <trkpt lat="48.04891" lon="-3.87815">
        <ele>160.8</ele>
        <time>2022-12-08T09:45:47Z</time>
      </trkpt>
      <trkpt lat="48.04889" lon="-3.87827">
        <ele>160.7</ele>
        <time>2022-12-08T09:45:48Z</time>
      </trkpt>
      <trkpt lat="48.04887" lon="-3.87838">
        <ele>160.5</ele>
        <time>2022-12-08T09:45:49Z</time>
      </trkpt>
      <trkpt lat="48.04885" lon="-3.87849">
        <ele>160.4</ele>
        <time>2022-12-08T09:45:50Z</time>
      </trkpt>
      <trkpt lat="48.04883" lon="-3.8786">
        <ele>160.3</ele>
        <time>2022-12-08T09:45:51Z</time>
      </trkpt>
      <trkpt lat="48.04881" lon="-3.87871">
        <ele>160.2</ele>
        <time>2022-12-08T09:45:52Z</time>
      </trkpt>
      <trkpt lat="48.04879" lon="-3.87882">
        <ele>160.1</ele>
        <time>2022-12-08T09:45:53Z</time>
      </trkpt>
      <trkpt lat="48.04877" lon="-3.87893">
        <ele>160.1</ele>
        <time>2022-12-08T09:45:54Z</time>
      </trkpt>
      <trkpt lat="48.04876" lon="-3.87905">
        <ele>160</ele>
        <time>2022-12-08T09:45:55Z</time>
      </trkpt>
      <trkpt lat="48.04874" lon="-3.87915">
        <ele>160</ele>
        <time>2022-12-08T09:45:56Z</time>
      </trkpt>
      <trkpt lat="48.04872" lon="-3.87926">
        <ele>159.9</ele>
        <time>2022-12-08T09:45:57Z</time>
      </trkpt>
      <trkpt lat="48.0487" lon="-3.87937">
        <ele>159.9</ele>
        <time>2022-12-08T09:45:58Z</time>
      </trkpt>
      <trkpt lat="48.04868" lon="-3.87947">
        <ele>159.8</ele>
        <time>2022-12-08T09:45:59Z</time>
      </trkpt>
      <trkpt lat="48.04865" lon="-3.87957">
        <ele>159.8</ele>
        <time>2022-12-08T09:46:00Z</time>
      </trkpt>
      <trkpt lat="48.04863" lon="-3.87968">
        <ele>159.8</ele>
        <time>2022-12-08T09:46:01Z</time>
      </trkpt>
      <trkpt lat="48.04861" lon="-3.87978">
        <ele>159.8</ele>
        <time>2022-12-08T09:46:02Z</time>
      </trkpt>
      <trkpt lat="48.04858" lon="-3.87988">
        <ele>159.8</ele>
        <time>2022-12-08T09:46:03Z</time>
      </trkpt>
      <trkpt lat="48.04856" lon="-3.87998">
        <ele>159.8</ele>
        <time>2022-12-08T09:46:04Z</time>
      </trkpt>
      <trkpt lat="48.04852" lon="-3.88007">
        <ele>159.8</ele>
        <time>2022-12-08T09:46:05Z</time>
      </trkpt>
      <trkpt lat="48.04849" lon="-3.88017">
        <ele>159.9</ele>
        <time>2022-12-08T09:46:06Z</time>
      </trkpt>
      <trkpt lat="48.04846" lon="-3.88027">
        <ele>159.9</ele>
        <time>2022-12-08T09:46:07Z</time>
      </trkpt>
      <trkpt lat="48.04842" lon="-3.88037">
        <ele>160</ele>
        <time>2022-12-08T09:46:08Z</time>
      </trkpt>
      <trkpt lat="48.04839" lon="-3.88046">
        <ele>160.1</ele>
        <time>2022-12-08T09:46:09Z</time>
      </trkpt>
      <trkpt lat="48.04835" lon="-3.88055">
        <ele>160.2</ele>
        <time>2022-12-08T09:46:10Z</time>
      </trkpt>
      <trkpt lat="48.04831" lon="-3.88064">
        <ele>160.3</ele>
        <time>2022-12-08T09:46:11Z</time>
      </trkpt>
      <trkpt lat="48.04828" lon="-3.88072">
        <ele>160.4</ele>
        <time>2022-12-08T09:46:12Z</time>
      </trkpt>
      <trkpt lat="48.04824" lon="-3.88081">
        <ele>160.5</ele>
        <time>2022-12-08T09:46:13Z</time>
      </trkpt>
      <trkpt lat="48.0482" lon="-3.8809">
        <ele>160.6</ele>
        <time>2022-12-08T09:46:14Z</time>
      </trkpt>
      <trkpt lat="48.04816" lon="-3.88099">
        <ele>160.7</ele>
        <time>2022-12-08T09:46:15Z</time>
      </trkpt>
      <trkpt lat="48.04812" lon="-3.88108">
        <ele>160.8</ele>
        <time>2022-12-08T09:46:16Z</time>
      </trkpt>
      <trkpt lat="48.04808" lon="-3.88117">
        <ele>160.9</ele>
        <time>2022-12-08T09:46:17Z</time>
      </trkpt>
      <trkpt lat="48.04804" lon="-3.88125">
        <ele>161</ele>
        <time>2022-12-08T09:46:18Z</time>
      </trkpt>
      <trkpt lat="48.04801" lon="-3.88133">
        <ele>161.2</ele>
        <time>2022-12-08T09:46:19Z</time>
      </trkpt>
      <trkpt lat="48.04797" lon="-3.88141">
        <ele>161.3</ele>
        <time>2022-12-08T09:46:20Z</time>
      </trkpt>
      <trkpt lat="48.04794" lon="-3.8815">
        <ele>161.4</ele>
        <time>2022-12-08T09:46:21Z</time>
      </trkpt>
      <trkpt lat="48.04793" lon="-3.88159">
        <ele>161.5</ele>
        <time>2022-12-08T09:46:22Z</time>
      </trkpt>
      <trkpt lat="48.04796" lon="-3.88169">
        <ele>161.5</ele>
        <time>2022-12-08T09:46:23Z</time>
      </trkpt>
      <trkpt lat="48.048" lon="-3.88176">
        <ele>161.5</ele>
        <time>2022-12-08T09:46:24Z</time>
      </trkpt>
      <trkpt lat="48.04804" lon="-3.88181">
        <ele>161.6</ele>
        <time>2022-12-08T09:46:25Z</time>
      </trkpt>
      <trkpt lat="48.04809" lon="-3.88185">
        <ele>161.7</ele>
        <time>2022-12-08T09:46:26Z</time>
      </trkpt>
      <trkpt lat="48.04814" lon="-3.88187">
        <ele>161.9</ele>
        <time>2022-12-08T09:46:27Z</time>
      </trkpt>
      <trkpt lat="48.04819" lon="-3.8819">
        <ele>162.2</ele>
        <time>2022-12-08T09:46:28Z</time>
      </trkpt>
      <trkpt lat="48.04823" lon="-3.88193">
        <ele>162.4</ele>
        <time>2022-12-08T09:46:29Z</time>
      </trkpt>
      <trkpt lat="48.04827" lon="-3.88196">
        <ele>162.6</ele>
        <time>2022-12-08T09:46:30Z</time>
      </trkpt>
      <trkpt lat="48.04831" lon="-3.88199">
        <ele>162.8</ele>
        <time>2022-12-08T09:46:31Z</time>
      </trkpt>
      <trkpt lat="48.04835" lon="-3.88202">
        <ele>163</ele>
        <time>2022-12-08T09:46:32Z</time>
      </trkpt>
      <trkpt lat="48.04838" lon="-3.88205">
        <ele>163.1</ele>
        <time>2022-12-08T09:46:33Z</time>
      </trkpt>
      <trkpt lat="48.04843" lon="-3.88207">
        <ele>163.3</ele>
        <time>2022-12-08T09:46:34Z</time>
      </trkpt>
      <trkpt lat="48.04847" lon="-3.8821">
        <ele>163.5</ele>
        <time>2022-12-08T09:46:35Z</time>
      </trkpt>
      <trkpt lat="48.0485" lon="-3.88213">
        <ele>163.6</ele>
        <time>2022-12-08T09:46:36Z</time>
      </trkpt>
      <trkpt lat="48.04854" lon="-3.88217">
        <ele>163.8</ele>
        <time>2022-12-08T09:46:37Z</time>
      </trkpt>
      <trkpt lat="48.04857" lon="-3.88221">
        <ele>164</ele>
        <time>2022-12-08T09:46:38Z</time>
      </trkpt>
      <trkpt lat="48.04859" lon="-3.88223">
        <ele>164.1</ele>
        <time>2022-12-08T09:46:39Z</time>
      </trkpt>
      <trkpt lat="48.0486" lon="-3.88225">
        <ele>164.1</ele>
        <time>2022-12-08T09:46:40Z</time>
      </trkpt>
      <trkpt lat="48.04869" lon="-3.88232">
        <ele>164.5</ele>
        <time>2022-12-08T09:46:42Z</time>
      </trkpt>
      <trkpt lat="48.04876" lon="-3.88236">
        <ele>164.6</ele>
        <time>2022-12-08T09:46:44Z</time>
      </trkpt>
      <trkpt lat="48.04882" lon="-3.88241">
        <ele>164.8</ele>
        <time>2022-12-08T09:46:45Z</time>
      </trkpt>
      <trkpt lat="48.04886" lon="-3.88244">
        <ele>165</ele>
        <time>2022-12-08T09:46:46Z</time>
      </trkpt>
      <trkpt lat="48.0489" lon="-3.88248">
        <ele>165.2</ele>
        <time>2022-12-08T09:46:47Z</time>
      </trkpt>
      <trkpt lat="48.04894" lon="-3.8825">
        <ele>165.3</ele>
        <time>2022-12-08T09:46:48Z</time>
      </trkpt>
      <trkpt lat="48.04898" lon="-3.88253">
        <ele>165.5</ele>
        <time>2022-12-08T09:46:49Z</time>
      </trkpt>
      <trkpt lat="48.04902" lon="-3.88256">
        <ele>165.7</ele>
        <time>2022-12-08T09:46:50Z</time>
      </trkpt>
      <trkpt lat="48.04906" lon="-3.88259">
        <ele>165.9</ele>
        <time>2022-12-08T09:46:51Z</time>
      </trkpt>
      <trkpt lat="48.0491" lon="-3.88261">
        <ele>166</ele>
        <time>2022-12-08T09:46:52Z</time>
      </trkpt>
      <trkpt lat="48.04914" lon="-3.88265">
        <ele>166.1</ele>
        <time>2022-12-08T09:46:53Z</time>
      </trkpt>
      <trkpt lat="48.04918" lon="-3.88268">
        <ele>166.3</ele>
        <time>2022-12-08T09:46:54Z</time>
      </trkpt>
      <trkpt lat="48.04922" lon="-3.8827">
        <ele>166.4</ele>
        <time>2022-12-08T09:46:55Z</time>
      </trkpt>
      <trkpt lat="48.04926" lon="-3.88273">
        <ele>166.5</ele>
        <time>2022-12-08T09:46:56Z</time>
      </trkpt>
      <trkpt lat="48.0493" lon="-3.88277">
        <ele>166.5</ele>
        <time>2022-12-08T09:46:57Z</time>
      </trkpt>
      <trkpt lat="48.04934" lon="-3.88279">
        <ele>166.6</ele>
        <time>2022-12-08T09:46:58Z</time>
      </trkpt>
      <trkpt lat="48.04938" lon="-3.88281">
        <ele>166.6</ele>
        <time>2022-12-08T09:46:59Z</time>
      </trkpt>
      <trkpt lat="48.04942" lon="-3.88285">
        <ele>166.6</ele>
        <time>2022-12-08T09:47:00Z</time>
      </trkpt>
      <trkpt lat="48.04946" lon="-3.88287">
        <ele>166.7</ele>
        <time>2022-12-08T09:47:01Z</time>
      </trkpt>
      <trkpt lat="48.0495" lon="-3.8829">
        <ele>166.7</ele>
        <time>2022-12-08T09:47:02Z</time>
      </trkpt>
      <trkpt lat="48.04954" lon="-3.88292">
        <ele>166.7</ele>
        <time>2022-12-08T09:47:03Z</time>
      </trkpt>
      <trkpt lat="48.0496" lon="-3.88294">
        <ele>166.7</ele>
        <time>2022-12-08T09:47:04Z</time>
      </trkpt>
      <trkpt lat="48.04965" lon="-3.88296">
        <ele>166.7</ele>
        <time>2022-12-08T09:47:05Z</time>
      </trkpt>
      <trkpt lat="48.04969" lon="-3.88296">
        <ele>166.8</ele>
        <time>2022-12-08T09:47:06Z</time>
      </trkpt>
      <trkpt lat="48.04974" lon="-3.88295">
        <ele>166.9</ele>
        <time>2022-12-08T09:47:07Z</time>
      </trkpt>
      <trkpt lat="48.04979" lon="-3.88294">
        <ele>166.9</ele>
        <time>2022-12-08T09:47:08Z</time>
      </trkpt>
      <trkpt lat="48.04983" lon="-3.88292">
        <ele>167</ele>
        <time>2022-12-08T09:47:09Z</time>
      </trkpt>
      <trkpt lat="48.04988" lon="-3.88289">
        <ele>167</ele>
        <time>2022-12-08T09:47:10Z</time>
      </trkpt>
      <trkpt lat="48.04992" lon="-3.88285">
        <ele>167.1</ele>
        <time>2022-12-08T09:47:11Z</time>
      </trkpt>
      <trkpt lat="48.04996" lon="-3.88282">
        <ele>167.1</ele>
        <time>2022-12-08T09:47:12Z</time>
      </trkpt>
      <trkpt lat="48.05" lon="-3.88277">
        <ele>167.1</ele>
        <time>2022-12-08T09:47:13Z</time>
      </trkpt>
      <trkpt lat="48.05003" lon="-3.88272">
        <ele>167.1</ele>
        <time>2022-12-08T09:47:14Z</time>
      </trkpt>
      <trkpt lat="48.05006" lon="-3.88266">
        <ele>167.2</ele>
        <time>2022-12-08T09:47:15Z</time>
      </trkpt>
      <trkpt lat="48.05009" lon="-3.88259">
        <ele>167.2</ele>
        <time>2022-12-08T09:47:16Z</time>
      </trkpt>
      <trkpt lat="48.05012" lon="-3.88253">
        <ele>167.3</ele>
        <time>2022-12-08T09:47:17Z</time>
      </trkpt>
      <trkpt lat="48.05015" lon="-3.88246">
        <ele>167.4</ele>
        <time>2022-12-08T09:47:18Z</time>
      </trkpt>
      <trkpt lat="48.05018" lon="-3.88239">
        <ele>167.4</ele>
        <time>2022-12-08T09:47:19Z</time>
      </trkpt>
      <trkpt lat="48.0502" lon="-3.88232">
        <ele>167.5</ele>
        <time>2022-12-08T09:47:20Z</time>
      </trkpt>
      <trkpt lat="48.05022" lon="-3.88225">
        <ele>167.5</ele>
        <time>2022-12-08T09:47:21Z</time>
      </trkpt>
      <trkpt lat="48.05025" lon="-3.88218">
        <ele>167.6</ele>
        <time>2022-12-08T09:47:22Z</time>
      </trkpt>
      <trkpt lat="48.05028" lon="-3.88212">
        <ele>167.6</ele>
        <time>2022-12-08T09:47:23Z</time>
      </trkpt>
      <trkpt lat="48.0503" lon="-3.88205">
        <ele>167.6</ele>
        <time>2022-12-08T09:47:24Z</time>
      </trkpt>
      <trkpt lat="48.05033" lon="-3.88199">
        <ele>167.6</ele>
        <time>2022-12-08T09:47:25Z</time>
      </trkpt>
      <trkpt lat="48.05036" lon="-3.88193">
        <ele>167.6</ele>
        <time>2022-12-08T09:47:26Z</time>
      </trkpt>
      <trkpt lat="48.0504" lon="-3.88188">
        <ele>167.6</ele>
        <time>2022-12-08T09:47:27Z</time>
      </trkpt>
      <trkpt lat="48.05044" lon="-3.88184">
        <ele>167.7</ele>
        <time>2022-12-08T09:47:28Z</time>
      </trkpt>
      <trkpt lat="48.05048" lon="-3.8818">
        <ele>167.7</ele>
        <time>2022-12-08T09:47:29Z</time>
      </trkpt>
      <trkpt lat="48.05053" lon="-3.88176">
        <ele>167.7</ele>
        <time>2022-12-08T09:47:30Z</time>
      </trkpt>
      <trkpt lat="48.05058" lon="-3.88174">
        <ele>167.7</ele>
        <time>2022-12-08T09:47:31Z</time>
      </trkpt>
      <trkpt lat="48.05063" lon="-3.88174">
        <ele>167.8</ele>
        <time>2022-12-08T09:47:32Z</time>
      </trkpt>
      <trkpt lat="48.05068" lon="-3.88173">
        <ele>167.8</ele>
        <time>2022-12-08T09:47:33Z</time>
      </trkpt>
      <trkpt lat="48.05073" lon="-3.88174">
        <ele>167.8</ele>
        <time>2022-12-08T09:47:34Z</time>
      </trkpt>
      <trkpt lat="48.05078" lon="-3.88175">
        <ele>167.8</ele>
        <time>2022-12-08T09:47:35Z</time>
      </trkpt>
      <trkpt lat="48.05083" lon="-3.88176">
        <ele>167.9</ele>
        <time>2022-12-08T09:47:36Z</time>
      </trkpt>
      <trkpt lat="48.05089" lon="-3.88176">
        <ele>168</ele>
        <time>2022-12-08T09:47:37Z</time>
      </trkpt>
      <trkpt lat="48.05094" lon="-3.88177">
        <ele>168</ele>
        <time>2022-12-08T09:47:38Z</time>
      </trkpt>
      <trkpt lat="48.05099" lon="-3.88177">
        <ele>168.1</ele>
        <time>2022-12-08T09:47:39Z</time>
      </trkpt>
      <trkpt lat="48.05104" lon="-3.88178">
        <ele>168.2</ele>
        <time>2022-12-08T09:47:40Z</time>
      </trkpt>
      <trkpt lat="48.0511" lon="-3.88179">
        <ele>168.2</ele>
        <time>2022-12-08T09:47:41Z</time>
      </trkpt>
      <trkpt lat="48.05115" lon="-3.8818">
        <ele>168.3</ele>
        <time>2022-12-08T09:47:42Z</time>
      </trkpt>
      <trkpt lat="48.05121" lon="-3.88182">
        <ele>168.3</ele>
        <time>2022-12-08T09:47:43Z</time>
      </trkpt>
      <trkpt lat="48.05126" lon="-3.88183">
        <ele>168.3</ele>
        <time>2022-12-08T09:47:44Z</time>
      </trkpt>
      <trkpt lat="48.05131" lon="-3.88185">
        <ele>168.3</ele>
        <time>2022-12-08T09:47:45Z</time>
      </trkpt>
      <trkpt lat="48.05136" lon="-3.88187">
        <ele>168.3</ele>
        <time>2022-12-08T09:47:46Z</time>
      </trkpt>
      <trkpt lat="48.05142" lon="-3.88188">
        <ele>168.3</ele>
        <time>2022-12-08T09:47:47Z</time>
      </trkpt>
      <trkpt lat="48.05147" lon="-3.88189">
        <ele>168.3</ele>
        <time>2022-12-08T09:47:48Z</time>
      </trkpt>
      <trkpt lat="48.05152" lon="-3.88191">
        <ele>168.3</ele>
        <time>2022-12-08T09:47:49Z</time>
      </trkpt>
      <trkpt lat="48.05158" lon="-3.88192">
        <ele>168.2</ele>
        <time>2022-12-08T09:47:50Z</time>
      </trkpt>
      <trkpt lat="48.05163" lon="-3.88194">
        <ele>168.1</ele>
        <time>2022-12-08T09:47:51Z</time>
      </trkpt>
      <trkpt lat="48.05169" lon="-3.88197">
        <ele>168</ele>
        <time>2022-12-08T09:47:52Z</time>
      </trkpt>
      <trkpt lat="48.05174" lon="-3.88199">
        <ele>167.8</ele>
        <time>2022-12-08T09:47:53Z</time>
      </trkpt>
      <trkpt lat="48.05179" lon="-3.88202">
        <ele>167.7</ele>
        <time>2022-12-08T09:47:54Z</time>
      </trkpt>
      <trkpt lat="48.05184" lon="-3.88205">
        <ele>167.5</ele>
        <time>2022-12-08T09:47:55Z</time>
      </trkpt>
      <trkpt lat="48.0519" lon="-3.88209">
        <ele>167.4</ele>
        <time>2022-12-08T09:47:56Z</time>
      </trkpt>
      <trkpt lat="48.05195" lon="-3.88212">
        <ele>167.3</ele>
        <time>2022-12-08T09:47:57Z</time>
      </trkpt>
      <trkpt lat="48.05201" lon="-3.88215">
        <ele>167.2</ele>
        <time>2022-12-08T09:47:58Z</time>
      </trkpt>
      <trkpt lat="48.05207" lon="-3.88219">
        <ele>167</ele>
        <time>2022-12-08T09:47:59Z</time>
      </trkpt>
      <trkpt lat="48.05212" lon="-3.88222">
        <ele>166.9</ele>
        <time>2022-12-08T09:48:00Z</time>
      </trkpt>
      <trkpt lat="48.05218" lon="-3.88224">
        <ele>166.7</ele>
        <time>2022-12-08T09:48:01Z</time>
      </trkpt>
      <trkpt lat="48.05224" lon="-3.88228">
        <ele>166.6</ele>
        <time>2022-12-08T09:48:02Z</time>
      </trkpt>
      <trkpt lat="48.0523" lon="-3.88231">
        <ele>166.4</ele>
        <time>2022-12-08T09:48:03Z</time>
      </trkpt>
      <trkpt lat="48.05236" lon="-3.88234">
        <ele>166.2</ele>
        <time>2022-12-08T09:48:04Z</time>
      </trkpt>
      <trkpt lat="48.05242" lon="-3.88237">
        <ele>165.9</ele>
        <time>2022-12-08T09:48:05Z</time>
      </trkpt>
      <trkpt lat="48.05248" lon="-3.8824">
        <ele>165.7</ele>
        <time>2022-12-08T09:48:06Z</time>
      </trkpt>
      <trkpt lat="48.05254" lon="-3.88243">
        <ele>165.4</ele>
        <time>2022-12-08T09:48:07Z</time>
      </trkpt>
      <trkpt lat="48.0526" lon="-3.88246">
        <ele>165.1</ele>
        <time>2022-12-08T09:48:08Z</time>
      </trkpt>
      <trkpt lat="48.05266" lon="-3.8825">
        <ele>164.8</ele>
        <time>2022-12-08T09:48:09Z</time>
      </trkpt>
      <trkpt lat="48.05273" lon="-3.88254">
        <ele>164.4</ele>
        <time>2022-12-08T09:48:10Z</time>
      </trkpt>
      <trkpt lat="48.05279" lon="-3.88258">
        <ele>164</ele>
        <time>2022-12-08T09:48:11Z</time>
      </trkpt>
      <trkpt lat="48.05286" lon="-3.88262">
        <ele>163.6</ele>
        <time>2022-12-08T09:48:12Z</time>
      </trkpt>
      <trkpt lat="48.05294" lon="-3.88266">
        <ele>163.1</ele>
        <time>2022-12-08T09:48:13Z</time>
      </trkpt>
      <trkpt lat="48.05301" lon="-3.8827">
        <ele>162.6</ele>
        <time>2022-12-08T09:48:14Z</time>
      </trkpt>
      <trkpt lat="48.05309" lon="-3.88274">
        <ele>162.1</ele>
        <time>2022-12-08T09:48:15Z</time>
      </trkpt>
      <trkpt lat="48.05317" lon="-3.88279">
        <ele>161.6</ele>
        <time>2022-12-08T09:48:16Z</time>
      </trkpt>
      <trkpt lat="48.05325" lon="-3.88283">
        <ele>161</ele>
        <time>2022-12-08T09:48:17Z</time>
      </trkpt>
      <trkpt lat="48.05333" lon="-3.88287">
        <ele>160.4</ele>
        <time>2022-12-08T09:48:18Z</time>
      </trkpt>
      <trkpt lat="48.05342" lon="-3.88292">
        <ele>159.9</ele>
        <time>2022-12-08T09:48:19Z</time>
      </trkpt>
      <trkpt lat="48.0535" lon="-3.88297">
        <ele>159.3</ele>
        <time>2022-12-08T09:48:20Z</time>
      </trkpt>
      <trkpt lat="48.05359" lon="-3.88302">
        <ele>158.8</ele>
        <time>2022-12-08T09:48:21Z</time>
      </trkpt>
      <trkpt lat="48.05368" lon="-3.88307">
        <ele>158.2</ele>
        <time>2022-12-08T09:48:22Z</time>
      </trkpt>
      <trkpt lat="48.05377" lon="-3.88312">
        <ele>157.7</ele>
        <time>2022-12-08T09:48:23Z</time>
      </trkpt>
      <trkpt lat="48.05386" lon="-3.88317">
        <ele>157.2</ele>
        <time>2022-12-08T09:48:24Z</time>
      </trkpt>
      <trkpt lat="48.05395" lon="-3.88322">
        <ele>156.7</ele>
        <time>2022-12-08T09:48:25Z</time>
      </trkpt>
      <trkpt lat="48.05404" lon="-3.88328">
        <ele>156.2</ele>
        <time>2022-12-08T09:48:26Z</time>
      </trkpt>
      <trkpt lat="48.05413" lon="-3.88333">
        <ele>155.8</ele>
        <time>2022-12-08T09:48:27Z</time>
      </trkpt>
      <trkpt lat="48.05422" lon="-3.88338">
        <ele>155.4</ele>
        <time>2022-12-08T09:48:28Z</time>
      </trkpt>
      <trkpt lat="48.05432" lon="-3.88343">
        <ele>154.9</ele>
        <time>2022-12-08T09:48:29Z</time>
      </trkpt>
      <trkpt lat="48.05441" lon="-3.88349">
        <ele>154.5</ele>
        <time>2022-12-08T09:48:30Z</time>
      </trkpt>
      <trkpt lat="48.0545" lon="-3.88354">
        <ele>154.1</ele>
        <time>2022-12-08T09:48:31Z</time>
      </trkpt>
      <trkpt lat="48.05459" lon="-3.88359">
        <ele>153.6</ele>
        <time>2022-12-08T09:48:32Z</time>
      </trkpt>
      <trkpt lat="48.05468" lon="-3.88366">
        <ele>153.1</ele>
        <time>2022-12-08T09:48:33Z</time>
      </trkpt>
      <trkpt lat="48.05477" lon="-3.88373">
        <ele>152.6</ele>
        <time>2022-12-08T09:48:34Z</time>
      </trkpt>
      <trkpt lat="48.05486" lon="-3.88379">
        <ele>152.1</ele>
        <time>2022-12-08T09:48:35Z</time>
      </trkpt>
      <trkpt lat="48.05494" lon="-3.88386">
        <ele>151.7</ele>
        <time>2022-12-08T09:48:36Z</time>
      </trkpt>
      <trkpt lat="48.05503" lon="-3.88394">
        <ele>151.3</ele>
        <time>2022-12-08T09:48:37Z</time>
      </trkpt>
      <trkpt lat="48.05511" lon="-3.88402">
        <ele>151</ele>
        <time>2022-12-08T09:48:38Z</time>
      </trkpt>
      <trkpt lat="48.05519" lon="-3.88409">
        <ele>150.7</ele>
        <time>2022-12-08T09:48:39Z</time>
      </trkpt>
      <trkpt lat="48.05526" lon="-3.88417">
        <ele>150.4</ele>
        <time>2022-12-08T09:48:40Z</time>
      </trkpt>
      <trkpt lat="48.05534" lon="-3.88425">
        <ele>150.2</ele>
        <time>2022-12-08T09:48:41Z</time>
      </trkpt>
      <trkpt lat="48.05541" lon="-3.88433">
        <ele>150</ele>
        <time>2022-12-08T09:48:42Z</time>
      </trkpt>
      <trkpt lat="48.05548" lon="-3.88441">
        <ele>149.8</ele>
        <time>2022-12-08T09:48:43Z</time>
      </trkpt>
      <trkpt lat="48.05555" lon="-3.88449">
        <ele>149.7</ele>
        <time>2022-12-08T09:48:44Z</time>
      </trkpt>
      <trkpt lat="48.05563" lon="-3.88456">
        <ele>149.6</ele>
        <time>2022-12-08T09:48:45Z</time>
      </trkpt>
      <trkpt lat="48.05569" lon="-3.88463">
        <ele>149.5</ele>
        <time>2022-12-08T09:48:46Z</time>
      </trkpt>
      <trkpt lat="48.05577" lon="-3.8847">
        <ele>149.3</ele>
        <time>2022-12-08T09:48:47Z</time>
      </trkpt>
      <trkpt lat="48.05583" lon="-3.88477">
        <ele>149.1</ele>
        <time>2022-12-08T09:48:48Z</time>
      </trkpt>
      <trkpt lat="48.0559" lon="-3.88483">
        <ele>149</ele>
        <time>2022-12-08T09:48:49Z</time>
      </trkpt>
      <trkpt lat="48.05597" lon="-3.88488">
        <ele>148.9</ele>
        <time>2022-12-08T09:48:50Z</time>
      </trkpt>
      <trkpt lat="48.05603" lon="-3.88493">
        <ele>148.8</ele>
        <time>2022-12-08T09:48:51Z</time>
      </trkpt>
      <trkpt lat="48.0561" lon="-3.88498">
        <ele>148.7</ele>
        <time>2022-12-08T09:48:52Z</time>
      </trkpt>
      <trkpt lat="48.05617" lon="-3.88502">
        <ele>148.6</ele>
        <time>2022-12-08T09:48:53Z</time>
      </trkpt>
      <trkpt lat="48.05624" lon="-3.88507">
        <ele>148.5</ele>
        <time>2022-12-08T09:48:54Z</time>
      </trkpt>
      <trkpt lat="48.05631" lon="-3.88511">
        <ele>148.4</ele>
        <time>2022-12-08T09:48:55Z</time>
      </trkpt>
      <trkpt lat="48.05638" lon="-3.88515">
        <ele>148.3</ele>
        <time>2022-12-08T09:48:56Z</time>
      </trkpt>
      <trkpt lat="48.05644" lon="-3.88519">
        <ele>148.3</ele>
        <time>2022-12-08T09:48:57Z</time>
      </trkpt>
      <trkpt lat="48.05651" lon="-3.88522">
        <ele>148.3</ele>
        <time>2022-12-08T09:48:58Z</time>
      </trkpt>
      <trkpt lat="48.05657" lon="-3.88526">
        <ele>148.3</ele>
        <time>2022-12-08T09:48:59Z</time>
      </trkpt>
      <trkpt lat="48.05663" lon="-3.8853">
        <ele>148.2</ele>
        <time>2022-12-08T09:49:00Z</time>
      </trkpt>
      <trkpt lat="48.05669" lon="-3.88534">
        <ele>148.2</ele>
        <time>2022-12-08T09:49:01Z</time>
      </trkpt>
      <trkpt lat="48.05676" lon="-3.88538">
        <ele>148.3</ele>
        <time>2022-12-08T09:49:02Z</time>
      </trkpt>
      <trkpt lat="48.05681" lon="-3.88541">
        <ele>148.3</ele>
        <time>2022-12-08T09:49:03Z</time>
      </trkpt>
      <trkpt lat="48.05687" lon="-3.88545">
        <ele>148.4</ele>
        <time>2022-12-08T09:49:04Z</time>
      </trkpt>
      <trkpt lat="48.05693" lon="-3.88548">
        <ele>148.4</ele>
        <time>2022-12-08T09:49:05Z</time>
      </trkpt>
      <trkpt lat="48.05699" lon="-3.88552">
        <ele>148.5</ele>
        <time>2022-12-08T09:49:06Z</time>
      </trkpt>
      <trkpt lat="48.05705" lon="-3.88556">
        <ele>148.5</ele>
        <time>2022-12-08T09:49:07Z</time>
      </trkpt>
      <trkpt lat="48.0571" lon="-3.88559">
        <ele>148.5</ele>
        <time>2022-12-08T09:49:08Z</time>
      </trkpt>
      <trkpt lat="48.05716" lon="-3.88564">
        <ele>148.5</ele>
        <time>2022-12-08T09:49:09Z</time>
      </trkpt>
      <trkpt lat="48.05722" lon="-3.88567">
        <ele>148.4</ele>
        <time>2022-12-08T09:49:10Z</time>
      </trkpt>
      <trkpt lat="48.05727" lon="-3.88571">
        <ele>148.4</ele>
        <time>2022-12-08T09:49:11Z</time>
      </trkpt>
      <trkpt lat="48.05733" lon="-3.88575">
        <ele>148.3</ele>
        <time>2022-12-08T09:49:12Z</time>
      </trkpt>
      <trkpt lat="48.0574" lon="-3.88579">
        <ele>148.2</ele>
        <time>2022-12-08T09:49:13Z</time>
      </trkpt>
      <trkpt lat="48.05745" lon="-3.88583">
        <ele>148</ele>
        <time>2022-12-08T09:49:14Z</time>
      </trkpt>
      <trkpt lat="48.05752" lon="-3.88587">
        <ele>147.7</ele>
        <time>2022-12-08T09:49:15Z</time>
      </trkpt>
      <trkpt lat="48.05758" lon="-3.88591">
        <ele>147.4</ele>
        <time>2022-12-08T09:49:16Z</time>
      </trkpt>
      <trkpt lat="48.05765" lon="-3.88595">
        <ele>146.9</ele>
        <time>2022-12-08T09:49:17Z</time>
      </trkpt>
      <trkpt lat="48.05772" lon="-3.88598">
        <ele>146.4</ele>
        <time>2022-12-08T09:49:18Z</time>
      </trkpt>
      <trkpt lat="48.0578" lon="-3.88601">
        <ele>145.8</ele>
        <time>2022-12-08T09:49:19Z</time>
      </trkpt>
      <trkpt lat="48.05788" lon="-3.88602">
        <ele>145.2</ele>
        <time>2022-12-08T09:49:20Z</time>
      </trkpt>
      <trkpt lat="48.05797" lon="-3.88603">
        <ele>144.6</ele>
        <time>2022-12-08T09:49:21Z</time>
      </trkpt>
      <trkpt lat="48.05806" lon="-3.88601">
        <ele>143.9</ele>
        <time>2022-12-08T09:49:22Z</time>
      </trkpt>
      <trkpt lat="48.05815" lon="-3.88598">
        <ele>143.2</ele>
        <time>2022-12-08T09:49:23Z</time>
      </trkpt>
      <trkpt lat="48.05823" lon="-3.88593">
        <ele>142.5</ele>
        <time>2022-12-08T09:49:24Z</time>
      </trkpt>
      <trkpt lat="48.05832" lon="-3.88587">
        <ele>141.8</ele>
        <time>2022-12-08T09:49:25Z</time>
      </trkpt>
      <trkpt lat="48.0584" lon="-3.88578">
        <ele>140.9</ele>
        <time>2022-12-08T09:49:26Z</time>
      </trkpt>
      <trkpt lat="48.05847" lon="-3.88569">
        <ele>140</ele>
        <time>2022-12-08T09:49:27Z</time>
      </trkpt>
      <trkpt lat="48.05854" lon="-3.88558">
        <ele>139.2</ele>
        <time>2022-12-08T09:49:28Z</time>
      </trkpt>
      <trkpt lat="48.05861" lon="-3.88546">
        <ele>138.4</ele>
        <time>2022-12-08T09:49:29Z</time>
      </trkpt>
      <trkpt lat="48.05867" lon="-3.88534">
        <ele>137.6</ele>
        <time>2022-12-08T09:49:30Z</time>
      </trkpt>
      <trkpt lat="48.05872" lon="-3.88522">
        <ele>136.7</ele>
        <time>2022-12-08T09:49:31Z</time>
      </trkpt>
      <trkpt lat="48.05878" lon="-3.8851">
        <ele>135.9</ele>
        <time>2022-12-08T09:49:32Z</time>
      </trkpt>
      <trkpt lat="48.05885" lon="-3.88498">
        <ele>135</ele>
        <time>2022-12-08T09:49:33Z</time>
      </trkpt>
      <trkpt lat="48.05891" lon="-3.88486">
        <ele>134.2</ele>
        <time>2022-12-08T09:49:34Z</time>
      </trkpt>
      <trkpt lat="48.05897" lon="-3.88475">
        <ele>133.4</ele>
        <time>2022-12-08T09:49:35Z</time>
      </trkpt>
      <trkpt lat="48.05904" lon="-3.88464">
        <ele>132.7</ele>
        <time>2022-12-08T09:49:36Z</time>
      </trkpt>
      <trkpt lat="48.05912" lon="-3.88454">
        <ele>131.9</ele>
        <time>2022-12-08T09:49:37Z</time>
      </trkpt>
      <trkpt lat="48.0592" lon="-3.88445">
        <ele>131.2</ele>
        <time>2022-12-08T09:49:38Z</time>
      </trkpt>
      <trkpt lat="48.05929" lon="-3.88437">
        <ele>130.5</ele>
        <time>2022-12-08T09:49:39Z</time>
      </trkpt>
      <trkpt lat="48.05938" lon="-3.8843">
        <ele>129.8</ele>
        <time>2022-12-08T09:49:40Z</time>
      </trkpt>
      <trkpt lat="48.05947" lon="-3.88424">
        <ele>129</ele>
        <time>2022-12-08T09:49:41Z</time>
      </trkpt>
      <trkpt lat="48.05956" lon="-3.88417">
        <ele>128.1</ele>
        <time>2022-12-08T09:49:42Z</time>
      </trkpt>
      <trkpt lat="48.05966" lon="-3.88411">
        <ele>127.2</ele>
        <time>2022-12-08T09:49:43Z</time>
      </trkpt>
      <trkpt lat="48.05976" lon="-3.88405">
        <ele>126.5</ele>
        <time>2022-12-08T09:49:44Z</time>
      </trkpt>
      <trkpt lat="48.05986" lon="-3.884">
        <ele>125.8</ele>
        <time>2022-12-08T09:49:45Z</time>
      </trkpt>
      <trkpt lat="48.05996" lon="-3.88393">
        <ele>125.1</ele>
        <time>2022-12-08T09:49:46Z</time>
      </trkpt>
      <trkpt lat="48.06006" lon="-3.88387">
        <ele>124.4</ele>
        <time>2022-12-08T09:49:47Z</time>
      </trkpt>
      <trkpt lat="48.06016" lon="-3.88381">
        <ele>123.5</ele>
        <time>2022-12-08T09:49:48Z</time>
      </trkpt>
      <trkpt lat="48.06026" lon="-3.88375">
        <ele>122.9</ele>
        <time>2022-12-08T09:49:49Z</time>
      </trkpt>
      <trkpt lat="48.06036" lon="-3.88369">
        <ele>122.2</ele>
        <time>2022-12-08T09:49:50Z</time>
      </trkpt>
      <trkpt lat="48.06046" lon="-3.88361">
        <ele>121.3</ele>
        <time>2022-12-08T09:49:51Z</time>
      </trkpt>
      <trkpt lat="48.06055" lon="-3.88351">
        <ele>120.4</ele>
        <time>2022-12-08T09:49:52Z</time>
      </trkpt>
      <trkpt lat="48.06064" lon="-3.8834">
        <ele>119.6</ele>
        <time>2022-12-08T09:49:53Z</time>
      </trkpt>
      <trkpt lat="48.06071" lon="-3.88327">
        <ele>118.8</ele>
        <time>2022-12-08T09:49:54Z</time>
      </trkpt>
      <trkpt lat="48.06078" lon="-3.88313">
        <ele>118</ele>
        <time>2022-12-08T09:49:55Z</time>
      </trkpt>
      <trkpt lat="48.06083" lon="-3.88297">
        <ele>117.1</ele>
        <time>2022-12-08T09:49:56Z</time>
      </trkpt>
      <trkpt lat="48.06088" lon="-3.88281">
        <ele>116.2</ele>
        <time>2022-12-08T09:49:57Z</time>
      </trkpt>
      <trkpt lat="48.06092" lon="-3.88264">
        <ele>115.2</ele>
        <time>2022-12-08T09:49:58Z</time>
      </trkpt>
      <trkpt lat="48.06095" lon="-3.88247">
        <ele>114.3</ele>
        <time>2022-12-08T09:49:59Z</time>
      </trkpt>
      <trkpt lat="48.06098" lon="-3.8823">
        <ele>113.3</ele>
        <time>2022-12-08T09:50:00Z</time>
      </trkpt>
      <trkpt lat="48.06101" lon="-3.88213">
        <ele>112.3</ele>
        <time>2022-12-08T09:50:01Z</time>
      </trkpt>
      <trkpt lat="48.06103" lon="-3.88195">
        <ele>111.2</ele>
        <time>2022-12-08T09:50:02Z</time>
      </trkpt>
      <trkpt lat="48.06106" lon="-3.88177">
        <ele>110.1</ele>
        <time>2022-12-08T09:50:03Z</time>
      </trkpt>
      <trkpt lat="48.06108" lon="-3.8816">
        <ele>108.9</ele>
        <time>2022-12-08T09:50:04Z</time>
      </trkpt>
      <trkpt lat="48.0611" lon="-3.88142">
        <ele>108</ele>
        <time>2022-12-08T09:50:05Z</time>
      </trkpt>
      <trkpt lat="48.06112" lon="-3.88124">
        <ele>107.2</ele>
        <time>2022-12-08T09:50:06Z</time>
      </trkpt>
      <trkpt lat="48.06115" lon="-3.88107">
        <ele>106.4</ele>
        <time>2022-12-08T09:50:07Z</time>
      </trkpt>
      <trkpt lat="48.06118" lon="-3.8809">
        <ele>105.7</ele>
        <time>2022-12-08T09:50:08Z</time>
      </trkpt>
      <trkpt lat="48.06123" lon="-3.88074">
        <ele>105.1</ele>
        <time>2022-12-08T09:50:09Z</time>
      </trkpt>
      <trkpt lat="48.06129" lon="-3.88058">
        <ele>104.6</ele>
        <time>2022-12-08T09:50:10Z</time>
      </trkpt>
      <trkpt lat="48.06136" lon="-3.88045">
        <ele>104.4</ele>
        <time>2022-12-08T09:50:11Z</time>
      </trkpt>
      <trkpt lat="48.06145" lon="-3.88033">
        <ele>104.4</ele>
        <time>2022-12-08T09:50:12Z</time>
      </trkpt>
      <trkpt lat="48.06154" lon="-3.88023">
        <ele>104.2</ele>
        <time>2022-12-08T09:50:13Z</time>
      </trkpt>
      <trkpt lat="48.06163" lon="-3.88015">
        <ele>104</ele>
        <time>2022-12-08T09:50:14Z</time>
      </trkpt>
      <trkpt lat="48.06173" lon="-3.8801">
        <ele>103.9</ele>
        <time>2022-12-08T09:50:15Z</time>
      </trkpt>
      <trkpt lat="48.06183" lon="-3.88008">
        <ele>104</ele>
        <time>2022-12-08T09:50:16Z</time>
      </trkpt>
      <trkpt lat="48.06192" lon="-3.88009">
        <ele>104.3</ele>
        <time>2022-12-08T09:50:17Z</time>
      </trkpt>
      <trkpt lat="48.062" lon="-3.8801">
        <ele>104.6</ele>
        <time>2022-12-08T09:50:18Z</time>
      </trkpt>
      <trkpt lat="48.06207" lon="-3.88011">
        <ele>105</ele>
        <time>2022-12-08T09:50:19Z</time>
      </trkpt>
      <trkpt lat="48.06213" lon="-3.88009">
        <ele>105.7</ele>
        <time>2022-12-08T09:50:20Z</time>
      </trkpt>
      <trkpt lat="48.06216" lon="-3.88002">
        <ele>106</ele>
        <time>2022-12-08T09:50:21Z</time>
      </trkpt>
      <trkpt lat="48.06218" lon="-3.87995">
        <ele>106.3</ele>
        <time>2022-12-08T09:50:22Z</time>
      </trkpt>
      <trkpt lat="48.06219" lon="-3.87988">
        <ele>106.6</ele>
        <time>2022-12-08T09:50:23Z</time>
      </trkpt>
      <trkpt lat="48.06219" lon="-3.87982">
        <ele>106.8</ele>
        <time>2022-12-08T09:50:24Z</time>
      </trkpt>
      <trkpt lat="48.0622" lon="-3.87977">
        <ele>106.9</ele>
        <time>2022-12-08T09:50:25Z</time>
      </trkpt>
      <trkpt lat="48.06221" lon="-3.87969">
        <ele>107.2</ele>
        <time>2022-12-08T09:50:26Z</time>
      </trkpt>
      <trkpt lat="48.06221" lon="-3.87962">
        <ele>107.4</ele>
        <time>2022-12-08T09:50:27Z</time>
      </trkpt>
      <trkpt lat="48.0622" lon="-3.87956">
        <ele>107.5</ele>
        <time>2022-12-08T09:50:28Z</time>
      </trkpt>
      <trkpt lat="48.0622" lon="-3.8795">
        <ele>107.7</ele>
        <time>2022-12-08T09:50:29Z</time>
      </trkpt>
      <trkpt lat="48.0622" lon="-3.87945">
        <ele>108</ele>
        <time>2022-12-08T09:50:30Z</time>
      </trkpt>
      <trkpt lat="48.06222" lon="-3.8794">
        <ele>108.1</ele>
        <time>2022-12-08T09:50:31Z</time>
      </trkpt>
      <trkpt lat="48.06224" lon="-3.87936">
        <ele>108.2</ele>
        <time>2022-12-08T09:50:32Z</time>
      </trkpt>
      <trkpt lat="48.06226" lon="-3.87934">
        <ele>108.3</ele>
        <time>2022-12-08T09:50:33Z</time>
      </trkpt>
      <trkpt lat="48.06226" lon="-3.87935">
        <ele>108.4</ele>
        <time>2022-12-08T09:50:34Z</time>
      </trkpt>
      <trkpt lat="48.06229" lon="-3.87931">
        <ele>108.6</ele>
        <time>2022-12-08T09:50:36Z</time>
      </trkpt>
      <trkpt lat="48.06232" lon="-3.87927">
        <ele>108.8</ele>
        <time>2022-12-08T09:50:37Z</time>
      </trkpt>
      <trkpt lat="48.06234" lon="-3.87926">
        <ele>108.9</ele>
        <time>2022-12-08T09:50:38Z</time>
      </trkpt>
      <trkpt lat="48.06235" lon="-3.87925">
        <ele>108.9</ele>
        <time>2022-12-08T09:50:39Z</time>
      </trkpt>
      <trkpt lat="48.06236" lon="-3.87924">
        <ele>109</ele>
        <time>2022-12-08T09:50:40Z</time>
      </trkpt>
      <trkpt lat="48.06239" lon="-3.87922">
        <ele>109.3</ele>
        <time>2022-12-08T09:50:42Z</time>
      </trkpt>
      <trkpt lat="48.06241" lon="-3.87921">
        <ele>109.4</ele>
        <time>2022-12-08T09:50:43Z</time>
      </trkpt>
      <trkpt lat="48.06242" lon="-3.8792">
        <ele>109.5</ele>
        <time>2022-12-08T09:50:44Z</time>
      </trkpt>
      <trkpt lat="48.06244" lon="-3.87919">
        <ele>109.7</ele>
        <time>2022-12-08T09:50:45Z</time>
      </trkpt>
      <trkpt lat="48.06246" lon="-3.8792">
        <ele>109.8</ele>
        <time>2022-12-08T09:50:46Z</time>
      </trkpt>
      <trkpt lat="48.06247" lon="-3.8792">
        <ele>109.9</ele>
        <time>2022-12-08T09:50:47Z</time>
      </trkpt>
      <trkpt lat="48.06248" lon="-3.8792">
        <ele>110</ele>
        <time>2022-12-08T09:50:48Z</time>
      </trkpt>
      <trkpt lat="48.06249" lon="-3.87921">
        <ele>110.1</ele>
        <time>2022-12-08T09:50:49Z</time>
      </trkpt>
      <trkpt lat="48.06251" lon="-3.87922">
        <ele>110.3</ele>
        <time>2022-12-08T09:50:51Z</time>
      </trkpt>
      <trkpt lat="48.06253" lon="-3.87924">
        <ele>110.5</ele>
        <time>2022-12-08T09:50:52Z</time>
      </trkpt>
      <trkpt lat="48.06254" lon="-3.87924">
        <ele>110.6</ele>
        <time>2022-12-08T09:50:53Z</time>
      </trkpt>
      <trkpt lat="48.06255" lon="-3.87925">
        <ele>110.7</ele>
        <time>2022-12-08T09:50:54Z</time>
      </trkpt>
      <trkpt lat="48.06257" lon="-3.87927">
        <ele>110.9</ele>
        <time>2022-12-08T09:50:55Z</time>
      </trkpt>
      <trkpt lat="48.0626" lon="-3.87929">
        <ele>111.2</ele>
        <time>2022-12-08T09:50:56Z</time>
      </trkpt>
      <trkpt lat="48.0626" lon="-3.8793">
        <ele>111.3</ele>
        <time>2022-12-08T09:50:57Z</time>
      </trkpt>
      <trkpt lat="48.06263" lon="-3.87933">
        <ele>111.6</ele>
        <time>2022-12-08T09:50:58Z</time>
      </trkpt>
      <trkpt lat="48.06263" lon="-3.87934">
        <ele>111.7</ele>
        <time>2022-12-08T09:50:59Z</time>
      </trkpt>
      <trkpt lat="48.06265" lon="-3.87936">
        <ele>111.8</ele>
        <time>2022-12-08T09:51:00Z</time>
      </trkpt>
      <trkpt lat="48.06266" lon="-3.87938">
        <ele>112</ele>
        <time>2022-12-08T09:51:01Z</time>
      </trkpt>
      <trkpt lat="48.06268" lon="-3.87942">
        <ele>112.3</ele>
        <time>2022-12-08T09:51:02Z</time>
      </trkpt>
      <trkpt lat="48.06269" lon="-3.87943">
        <ele>112.4</ele>
        <time>2022-12-08T09:51:03Z</time>
      </trkpt>
      <trkpt lat="48.06271" lon="-3.87946">
        <ele>112.7</ele>
        <time>2022-12-08T09:51:04Z</time>
      </trkpt>
      <trkpt lat="48.06272" lon="-3.87947">
        <ele>112.8</ele>
        <time>2022-12-08T09:51:05Z</time>
      </trkpt>
      <trkpt lat="48.06275" lon="-3.87951">
        <ele>113.2</ele>
        <time>2022-12-08T09:51:07Z</time>
      </trkpt>
      <trkpt lat="48.06276" lon="-3.87953">
        <ele>113.3</ele>
        <time>2022-12-08T09:51:08Z</time>
      </trkpt>
      <trkpt lat="48.06278" lon="-3.87956">
        <ele>113.6</ele>
        <time>2022-12-08T09:51:09Z</time>
      </trkpt>
      <trkpt lat="48.06279" lon="-3.87957">
        <ele>113.7</ele>
        <time>2022-12-08T09:51:10Z</time>
      </trkpt>
      <trkpt lat="48.06282" lon="-3.8796">
        <ele>114</ele>
        <time>2022-12-08T09:51:11Z</time>
      </trkpt>
      <trkpt lat="48.06283" lon="-3.87961">
        <ele>114.1</ele>
        <time>2022-12-08T09:51:12Z</time>
      </trkpt>
      <trkpt lat="48.06286" lon="-3.87964">
        <ele>114.5</ele>
        <time>2022-12-08T09:51:13Z</time>
      </trkpt>
      <trkpt lat="48.06287" lon="-3.87965">
        <ele>114.6</ele>
        <time>2022-12-08T09:51:14Z</time>
      </trkpt>
      <trkpt lat="48.06288" lon="-3.87966">
        <ele>114.8</ele>
        <time>2022-12-08T09:51:15Z</time>
      </trkpt>
      <trkpt lat="48.06289" lon="-3.87969">
        <ele>114.9</ele>
        <time>2022-12-08T09:51:16Z</time>
      </trkpt>
      <trkpt lat="48.0629" lon="-3.8797">
        <ele>115.1</ele>
        <time>2022-12-08T09:51:17Z</time>
      </trkpt>
      <trkpt lat="48.06292" lon="-3.87971">
        <ele>115.3</ele>
        <time>2022-12-08T09:51:19Z</time>
      </trkpt>
      <trkpt lat="48.06294" lon="-3.87974">
        <ele>115.7</ele>
        <time>2022-12-08T09:51:20Z</time>
      </trkpt>
      <trkpt lat="48.06295" lon="-3.87975">
        <ele>115.8</ele>
        <time>2022-12-08T09:51:21Z</time>
      </trkpt>
      <trkpt lat="48.06296" lon="-3.87975">
        <ele>115.9</ele>
        <time>2022-12-08T09:51:22Z</time>
      </trkpt>
      <trkpt lat="48.06296" lon="-3.87975">
        <ele>115.9</ele>
        <time>2022-12-08T09:51:23Z</time>
      </trkpt>
      <trkpt lat="48.06296" lon="-3.87975">
        <ele>115.9</ele>
        <time>2022-12-08T09:51:24Z</time>
      </trkpt>
      <trkpt lat="48.06296" lon="-3.87975">
        <ele>115.9</ele>
        <time>2022-12-08T09:51:25Z</time>
      </trkpt>
      <trkpt lat="48.06296" lon="-3.87975">
        <ele>115.9</ele>
        <time>2022-12-08T09:51:26Z</time>
      </trkpt>
      <trkpt lat="48.06296" lon="-3.87975">
        <ele>116</ele>
        <time>2022-12-08T09:51:27Z</time>
      </trkpt>
      <trkpt lat="48.06296" lon="-3.87975">
        <ele>116</ele>
        <time>2022-12-08T09:51:28Z</time>
      </trkpt>
      <trkpt lat="48.06296" lon="-3.87975">
        <ele>116</ele>
        <time>2022-12-08T09:51:29Z</time>
      </trkpt>
      <trkpt lat="48.06296" lon="-3.87975">
        <ele>116</ele>
        <time>2022-12-08T09:51:30Z</time>
      </trkpt>
      <trkpt lat="48.06296" lon="-3.87975">
        <ele>116</ele>
        <time>2022-12-08T09:51:31Z</time>
      </trkpt>
      <trkpt lat="48.06296" lon="-3.87975">
        <ele>116</ele>
        <time>2022-12-08T09:51:32Z</time>
      </trkpt>
      <trkpt lat="48.06298" lon="-3.87978">
        <ele>116.3</ele>
        <time>2022-12-08T09:52:13Z</time>
      </trkpt>
      <trkpt lat="48.06299" lon="-3.87979">
        <ele>116.4</ele>
        <time>2022-12-08T09:52:14Z</time>
      </trkpt>
      <trkpt lat="48.06299" lon="-3.87977">
        <ele>116.5</ele>
        <time>2022-12-08T09:52:15Z</time>
      </trkpt>
      <trkpt lat="48.06301" lon="-3.87978">
        <ele>116.8</ele>
        <time>2022-12-08T09:52:16Z</time>
      </trkpt>
      <trkpt lat="48.06303" lon="-3.87982">
        <ele>117.2</ele>
        <time>2022-12-08T09:52:17Z</time>
      </trkpt>
      <trkpt lat="48.06304" lon="-3.87983">
        <ele>117.3</ele>
        <time>2022-12-08T09:52:18Z</time>
      </trkpt>
      <trkpt lat="48.06306" lon="-3.87985">
        <ele>117.7</ele>
        <time>2022-12-08T09:52:19Z</time>
      </trkpt>
      <trkpt lat="48.06307" lon="-3.87985">
        <ele>117.8</ele>
        <time>2022-12-08T09:52:20Z</time>
      </trkpt>
      <trkpt lat="48.06309" lon="-3.87985">
        <ele>118.1</ele>
        <time>2022-12-08T09:52:21Z</time>
      </trkpt>
      <trkpt lat="48.06311" lon="-3.87985">
        <ele>118.3</ele>
        <time>2022-12-08T09:52:22Z</time>
      </trkpt>
      <trkpt lat="48.06313" lon="-3.87986">
        <ele>118.7</ele>
        <time>2022-12-08T09:52:23Z</time>
      </trkpt>
      <trkpt lat="48.06316" lon="-3.87988">
        <ele>119</ele>
        <time>2022-12-08T09:52:25Z</time>
      </trkpt>
      <trkpt lat="48.06318" lon="-3.8799">
        <ele>119.5</ele>
        <time>2022-12-08T09:52:26Z</time>
      </trkpt>
      <trkpt lat="48.06321" lon="-3.87991">
        <ele>120.1</ele>
        <time>2022-12-08T09:52:27Z</time>
      </trkpt>
      <trkpt lat="48.06322" lon="-3.87992">
        <ele>120.2</ele>
        <time>2022-12-08T09:52:28Z</time>
      </trkpt>
      <trkpt lat="48.06325" lon="-3.87994">
        <ele>120.8</ele>
        <time>2022-12-08T09:52:29Z</time>
      </trkpt>
      <trkpt lat="48.06326" lon="-3.87994">
        <ele>121</ele>
        <time>2022-12-08T09:52:30Z</time>
      </trkpt>
      <trkpt lat="48.06328" lon="-3.87996">
        <ele>121.4</ele>
        <time>2022-12-08T09:52:31Z</time>
      </trkpt>
      <trkpt lat="48.06329" lon="-3.87997">
        <ele>121.7</ele>
        <time>2022-12-08T09:52:32Z</time>
      </trkpt>
      <trkpt lat="48.0633" lon="-3.87998">
        <ele>122</ele>
        <time>2022-12-08T09:52:33Z</time>
      </trkpt>
      <trkpt lat="48.06331" lon="-3.87999">
        <ele>122.3</ele>
        <time>2022-12-08T09:52:34Z</time>
      </trkpt>
      <trkpt lat="48.06332" lon="-3.87999">
        <ele>122.5</ele>
        <time>2022-12-08T09:52:35Z</time>
      </trkpt>
      <trkpt lat="48.06333" lon="-3.87999">
        <ele>122.7</ele>
        <time>2022-12-08T09:52:36Z</time>
      </trkpt>
      <trkpt lat="48.06334" lon="-3.87999">
        <ele>122.9</ele>
        <time>2022-12-08T09:52:37Z</time>
      </trkpt>
      <trkpt lat="48.06335" lon="-3.87999">
        <ele>123.1</ele>
        <time>2022-12-08T09:52:38Z</time>
      </trkpt>
      <trkpt lat="48.06336" lon="-3.88">
        <ele>123.3</ele>
        <time>2022-12-08T09:52:39Z</time>
      </trkpt>
      <trkpt lat="48.06338" lon="-3.88001">
        <ele>123.8</ele>
        <time>2022-12-08T09:52:41Z</time>
      </trkpt>
      <trkpt lat="48.06339" lon="-3.88001">
        <ele>124</ele>
        <time>2022-12-08T09:52:42Z</time>
      </trkpt>
      <trkpt lat="48.0634" lon="-3.88002">
        <ele>124.3</ele>
        <time>2022-12-08T09:52:43Z</time>
      </trkpt>
      <trkpt lat="48.06341" lon="-3.88003">
        <ele>124.4</ele>
        <time>2022-12-08T09:52:44Z</time>
      </trkpt>
      <trkpt lat="48.06342" lon="-3.88004">
        <ele>124.8</ele>
        <time>2022-12-08T09:52:45Z</time>
      </trkpt>
      <trkpt lat="48.06343" lon="-3.88005">
        <ele>125</ele>
        <time>2022-12-08T09:52:46Z</time>
      </trkpt>
      <trkpt lat="48.06344" lon="-3.88005">
        <ele>125.1</ele>
        <time>2022-12-08T09:52:47Z</time>
      </trkpt>
      <trkpt lat="48.06346" lon="-3.88008">
        <ele>125.6</ele>
        <time>2022-12-08T09:52:49Z</time>
      </trkpt>
      <trkpt lat="48.06347" lon="-3.88008">
        <ele>125.8</ele>
        <time>2022-12-08T09:52:50Z</time>
      </trkpt>
      <trkpt lat="48.06347" lon="-3.88009">
        <ele>126</ele>
        <time>2022-12-08T09:52:51Z</time>
      </trkpt>
      <trkpt lat="48.06348" lon="-3.88011">
        <ele>126.3</ele>
        <time>2022-12-08T09:52:52Z</time>
      </trkpt>
      <trkpt lat="48.06349" lon="-3.88012">
        <ele>126.4</ele>
        <time>2022-12-08T09:52:53Z</time>
      </trkpt>
      <trkpt lat="48.0635" lon="-3.88012">
        <ele>126.6</ele>
        <time>2022-12-08T09:52:54Z</time>
      </trkpt>
      <trkpt lat="48.0635" lon="-3.88013">
        <ele>126.8</ele>
        <time>2022-12-08T09:52:55Z</time>
      </trkpt>
      <trkpt lat="48.06351" lon="-3.88015">
        <ele>127</ele>
        <time>2022-12-08T09:52:56Z</time>
      </trkpt>
      <trkpt lat="48.06351" lon="-3.88016">
        <ele>127.2</ele>
        <time>2022-12-08T09:52:57Z</time>
      </trkpt>
      <trkpt lat="48.06352" lon="-3.88016">
        <ele>127.3</ele>
        <time>2022-12-08T09:52:58Z</time>
      </trkpt>
      <trkpt lat="48.06353" lon="-3.88017">
        <ele>127.5</ele>
        <time>2022-12-08T09:52:59Z</time>
      </trkpt>
      <trkpt lat="48.06353" lon="-3.88018">
        <ele>127.6</ele>
        <time>2022-12-08T09:53:01Z</time>
      </trkpt>
      <trkpt lat="48.06354" lon="-3.88019">
        <ele>127.8</ele>
        <time>2022-12-08T09:53:02Z</time>
      </trkpt>
      <trkpt lat="48.06354" lon="-3.8802">
        <ele>128</ele>
        <time>2022-12-08T09:53:03Z</time>
      </trkpt>
      <trkpt lat="48.06355" lon="-3.88021">
        <ele>128.1</ele>
        <time>2022-12-08T09:53:04Z</time>
      </trkpt>
      <trkpt lat="48.06355" lon="-3.88022">
        <ele>128.3</ele>
        <time>2022-12-08T09:53:06Z</time>
      </trkpt>
      <trkpt lat="48.06356" lon="-3.88022">
        <ele>128.4</ele>
        <time>2022-12-08T09:53:07Z</time>
      </trkpt>
      <trkpt lat="48.06357" lon="-3.88023">
        <ele>128.6</ele>
        <time>2022-12-08T09:53:09Z</time>
      </trkpt>
      <trkpt lat="48.06357" lon="-3.88024">
        <ele>128.7</ele>
        <time>2022-12-08T09:53:10Z</time>
      </trkpt>
      <trkpt lat="48.06358" lon="-3.88027">
        <ele>129.2</ele>
        <time>2022-12-08T09:53:12Z</time>
      </trkpt>
      <trkpt lat="48.06359" lon="-3.88028">
        <ele>129.3</ele>
        <time>2022-12-08T09:53:13Z</time>
      </trkpt>
      <trkpt lat="48.06359" lon="-3.88029">
        <ele>129.4</ele>
        <time>2022-12-08T09:53:14Z</time>
      </trkpt>
      <trkpt lat="48.0636" lon="-3.88031">
        <ele>129.8</ele>
        <time>2022-12-08T09:53:15Z</time>
      </trkpt>
      <trkpt lat="48.06361" lon="-3.88032">
        <ele>129.9</ele>
        <time>2022-12-08T09:53:16Z</time>
      </trkpt>
      <trkpt lat="48.06361" lon="-3.88032">
        <ele>130</ele>
        <time>2022-12-08T09:53:17Z</time>
      </trkpt>
      <trkpt lat="48.06361" lon="-3.88031">
        <ele>130.1</ele>
        <time>2022-12-08T09:53:18Z</time>
      </trkpt>
      <trkpt lat="48.06362" lon="-3.88032">
        <ele>130.2</ele>
        <time>2022-12-08T09:53:21Z</time>
      </trkpt>
      <trkpt lat="48.06363" lon="-3.88033">
        <ele>130.4</ele>
        <time>2022-12-08T09:53:22Z</time>
      </trkpt>
      <trkpt lat="48.06364" lon="-3.88034">
        <ele>130.6</ele>
        <time>2022-12-08T09:53:23Z</time>
      </trkpt>
      <trkpt lat="48.06367" lon="-3.88037">
        <ele>131.2</ele>
        <time>2022-12-08T09:53:25Z</time>
      </trkpt>
      <trkpt lat="48.06369" lon="-3.88038">
        <ele>131.4</ele>
        <time>2022-12-08T09:53:26Z</time>
      </trkpt>
      <trkpt lat="48.06372" lon="-3.88041">
        <ele>131.9</ele>
        <time>2022-12-08T09:53:28Z</time>
      </trkpt>
      <trkpt lat="48.06373" lon="-3.88042">
        <ele>132.1</ele>
        <time>2022-12-08T09:53:29Z</time>
      </trkpt>
      <trkpt lat="48.06376" lon="-3.88044">
        <ele>132.5</ele>
        <time>2022-12-08T09:53:30Z</time>
      </trkpt>
      <trkpt lat="48.06379" lon="-3.88047">
        <ele>132.9</ele>
        <time>2022-12-08T09:53:31Z</time>
      </trkpt>
      <trkpt lat="48.0638" lon="-3.88048">
        <ele>133</ele>
        <time>2022-12-08T09:53:32Z</time>
      </trkpt>
      <trkpt lat="48.06383" lon="-3.8805">
        <ele>133.4</ele>
        <time>2022-12-08T09:53:33Z</time>
      </trkpt>
      <trkpt lat="48.06383" lon="-3.88051">
        <ele>133.5</ele>
        <time>2022-12-08T09:53:34Z</time>
      </trkpt>
      <trkpt lat="48.06387" lon="-3.88055">
        <ele>134</ele>
        <time>2022-12-08T09:53:36Z</time>
      </trkpt>
      <trkpt lat="48.06388" lon="-3.88056">
        <ele>134.1</ele>
        <time>2022-12-08T09:53:37Z</time>
      </trkpt>
      <trkpt lat="48.06389" lon="-3.88058">
        <ele>134.3</ele>
        <time>2022-12-08T09:53:38Z</time>
      </trkpt>
      <trkpt lat="48.06391" lon="-3.88059">
        <ele>134.4</ele>
        <time>2022-12-08T09:53:39Z</time>
      </trkpt>
      <trkpt lat="48.06393" lon="-3.88061">
        <ele>134.7</ele>
        <time>2022-12-08T09:53:41Z</time>
      </trkpt>
      <trkpt lat="48.06396" lon="-3.88064">
        <ele>135</ele>
        <time>2022-12-08T09:53:43Z</time>
      </trkpt>
      <trkpt lat="48.06396" lon="-3.88065">
        <ele>135.1</ele>
        <time>2022-12-08T09:53:44Z</time>
      </trkpt>
      <trkpt lat="48.06399" lon="-3.88067">
        <ele>135.3</ele>
        <time>2022-12-08T09:53:45Z</time>
      </trkpt>
      <trkpt lat="48.064" lon="-3.88068">
        <ele>135.4</ele>
        <time>2022-12-08T09:53:46Z</time>
      </trkpt>
      <trkpt lat="48.06401" lon="-3.8807">
        <ele>135.6</ele>
        <time>2022-12-08T09:53:47Z</time>
      </trkpt>
      <trkpt lat="48.06402" lon="-3.88071">
        <ele>135.7</ele>
        <time>2022-12-08T09:53:48Z</time>
      </trkpt>
      <trkpt lat="48.06402" lon="-3.88072">
        <ele>135.7</ele>
        <time>2022-12-08T09:53:49Z</time>
      </trkpt>
      <trkpt lat="48.06405" lon="-3.88074">
        <ele>135.9</ele>
        <time>2022-12-08T09:53:50Z</time>
      </trkpt>
      <trkpt lat="48.06406" lon="-3.88075">
        <ele>136</ele>
        <time>2022-12-08T09:53:51Z</time>
      </trkpt>
      <trkpt lat="48.06407" lon="-3.88076">
        <ele>136.1</ele>
        <time>2022-12-08T09:53:52Z</time>
      </trkpt>
      <trkpt lat="48.06408" lon="-3.88079">
        <ele>136.3</ele>
        <time>2022-12-08T09:53:53Z</time>
      </trkpt>
      <trkpt lat="48.06409" lon="-3.8808">
        <ele>136.4</ele>
        <time>2022-12-08T09:53:54Z</time>
      </trkpt>
      <trkpt lat="48.06411" lon="-3.88082">
        <ele>136.5</ele>
        <time>2022-12-08T09:53:55Z</time>
      </trkpt>
      <trkpt lat="48.06413" lon="-3.88085">
        <ele>136.7</ele>
        <time>2022-12-08T09:53:56Z</time>
      </trkpt>
      <trkpt lat="48.06414" lon="-3.88085">
        <ele>136.7</ele>
        <time>2022-12-08T09:53:57Z</time>
      </trkpt>
      <trkpt lat="48.06415" lon="-3.88087">
        <ele>136.8</ele>
        <time>2022-12-08T09:53:58Z</time>
      </trkpt>
      <trkpt lat="48.06416" lon="-3.88089">
        <ele>137</ele>
        <time>2022-12-08T09:53:59Z</time>
      </trkpt>
      <trkpt lat="48.06419" lon="-3.88093">
        <ele>137.2</ele>
        <time>2022-12-08T09:54:01Z</time>
      </trkpt>
      <trkpt lat="48.06421" lon="-3.88095">
        <ele>137.4</ele>
        <time>2022-12-08T09:54:02Z</time>
      </trkpt>
      <trkpt lat="48.06422" lon="-3.88096">
        <ele>137.5</ele>
        <time>2022-12-08T09:54:03Z</time>
      </trkpt>
      <trkpt lat="48.06425" lon="-3.88098">
        <ele>137.7</ele>
        <time>2022-12-08T09:54:04Z</time>
      </trkpt>
      <trkpt lat="48.06425" lon="-3.88099">
        <ele>137.8</ele>
        <time>2022-12-08T09:54:05Z</time>
      </trkpt>
      <trkpt lat="48.06428" lon="-3.88101">
        <ele>138</ele>
        <time>2022-12-08T09:54:06Z</time>
      </trkpt>
      <trkpt lat="48.06429" lon="-3.88102">
        <ele>138.1</ele>
        <time>2022-12-08T09:54:07Z</time>
      </trkpt>
      <trkpt lat="48.06432" lon="-3.88104">
        <ele>138.4</ele>
        <time>2022-12-08T09:54:08Z</time>
      </trkpt>
      <trkpt lat="48.06433" lon="-3.88104">
        <ele>138.5</ele>
        <time>2022-12-08T09:54:09Z</time>
      </trkpt>
      <trkpt lat="48.06437" lon="-3.88107">
        <ele>138.8</ele>
        <time>2022-12-08T09:54:11Z</time>
      </trkpt>
      <trkpt lat="48.06439" lon="-3.88109">
        <ele>138.9</ele>
        <time>2022-12-08T09:54:12Z</time>
      </trkpt>
      <trkpt lat="48.0644" lon="-3.8811">
        <ele>139.1</ele>
        <time>2022-12-08T09:54:13Z</time>
      </trkpt>
      <trkpt lat="48.06443" lon="-3.88112">
        <ele>139.3</ele>
        <time>2022-12-08T09:54:14Z</time>
      </trkpt>
      <trkpt lat="48.06444" lon="-3.88113">
        <ele>139.4</ele>
        <time>2022-12-08T09:54:15Z</time>
      </trkpt>
      <trkpt lat="48.06447" lon="-3.88115">
        <ele>139.6</ele>
        <time>2022-12-08T09:54:16Z</time>
      </trkpt>
      <trkpt lat="48.06448" lon="-3.88116">
        <ele>139.7</ele>
        <time>2022-12-08T09:54:17Z</time>
      </trkpt>
      <trkpt lat="48.06451" lon="-3.88119">
        <ele>140.1</ele>
        <time>2022-12-08T09:54:19Z</time>
      </trkpt>
      <trkpt lat="48.06453" lon="-3.8812">
        <ele>140.2</ele>
        <time>2022-12-08T09:54:20Z</time>
      </trkpt>
      <trkpt lat="48.06454" lon="-3.88121">
        <ele>140.3</ele>
        <time>2022-12-08T09:54:21Z</time>
      </trkpt>
      <trkpt lat="48.06457" lon="-3.88123">
        <ele>140.6</ele>
        <time>2022-12-08T09:54:22Z</time>
      </trkpt>
      <trkpt lat="48.06458" lon="-3.88124">
        <ele>140.7</ele>
        <time>2022-12-08T09:54:23Z</time>
      </trkpt>
      <trkpt lat="48.06461" lon="-3.88126">
        <ele>140.9</ele>
        <time>2022-12-08T09:54:24Z</time>
      </trkpt>
      <trkpt lat="48.06465" lon="-3.88127">
        <ele>141.2</ele>
        <time>2022-12-08T09:54:25Z</time>
      </trkpt>
      <trkpt lat="48.06466" lon="-3.88127">
        <ele>141.3</ele>
        <time>2022-12-08T09:54:26Z</time>
      </trkpt>
      <trkpt lat="48.06469" lon="-3.88125">
        <ele>141.7</ele>
        <time>2022-12-08T09:54:27Z</time>
      </trkpt>
      <trkpt lat="48.0647" lon="-3.88123">
        <ele>141.7</ele>
        <time>2022-12-08T09:54:28Z</time>
      </trkpt>
      <trkpt lat="48.06471" lon="-3.8812">
        <ele>141.8</ele>
        <time>2022-12-08T09:54:29Z</time>
      </trkpt>
      <trkpt lat="48.06473" lon="-3.88116">
        <ele>141.8</ele>
        <time>2022-12-08T09:54:30Z</time>
      </trkpt>
      <trkpt lat="48.06474" lon="-3.88112">
        <ele>141.9</ele>
        <time>2022-12-08T09:54:31Z</time>
      </trkpt>
      <trkpt lat="48.06475" lon="-3.88108">
        <ele>141.9</ele>
        <time>2022-12-08T09:54:32Z</time>
      </trkpt>
      <trkpt lat="48.06477" lon="-3.88099">
        <ele>142</ele>
        <time>2022-12-08T09:54:34Z</time>
      </trkpt>
      <trkpt lat="48.06478" lon="-3.88094">
        <ele>142.1</ele>
        <time>2022-12-08T09:54:35Z</time>
      </trkpt>
      <trkpt lat="48.0648" lon="-3.88089">
        <ele>142.1</ele>
        <time>2022-12-08T09:54:36Z</time>
      </trkpt>
      <trkpt lat="48.06482" lon="-3.88083">
        <ele>142.2</ele>
        <time>2022-12-08T09:54:37Z</time>
      </trkpt>
      <trkpt lat="48.06483" lon="-3.88079">
        <ele>142.3</ele>
        <time>2022-12-08T09:54:38Z</time>
      </trkpt>
      <trkpt lat="48.06486" lon="-3.88072">
        <ele>142.4</ele>
        <time>2022-12-08T09:54:39Z</time>
      </trkpt>
      <trkpt lat="48.06487" lon="-3.88068">
        <ele>142.4</ele>
        <time>2022-12-08T09:54:40Z</time>
      </trkpt>
      <trkpt lat="48.06489" lon="-3.88063">
        <ele>142.5</ele>
        <time>2022-12-08T09:54:41Z</time>
      </trkpt>
      <trkpt lat="48.0649" lon="-3.88057">
        <ele>142.6</ele>
        <time>2022-12-08T09:54:42Z</time>
      </trkpt>
      <trkpt lat="48.06492" lon="-3.88052">
        <ele>142.6</ele>
        <time>2022-12-08T09:54:43Z</time>
      </trkpt>
      <trkpt lat="48.06493" lon="-3.88047">
        <ele>142.7</ele>
        <time>2022-12-08T09:54:44Z</time>
      </trkpt>
      <trkpt lat="48.06496" lon="-3.88042">
        <ele>142.8</ele>
        <time>2022-12-08T09:54:45Z</time>
      </trkpt>
      <trkpt lat="48.065" lon="-3.88032">
        <ele>142.9</ele>
        <time>2022-12-08T09:54:47Z</time>
      </trkpt>
      <trkpt lat="48.06503" lon="-3.88024">
        <ele>143</ele>
        <time>2022-12-08T09:54:49Z</time>
      </trkpt>
      <trkpt lat="48.06507" lon="-3.88015">
        <ele>143.1</ele>
        <time>2022-12-08T09:54:50Z</time>
      </trkpt>
      <trkpt lat="48.06509" lon="-3.88011">
        <ele>143.2</ele>
        <time>2022-12-08T09:54:51Z</time>
      </trkpt>
      <trkpt lat="48.06514" lon="-3.87999">
        <ele>143.3</ele>
        <time>2022-12-08T09:54:53Z</time>
      </trkpt>
      <trkpt lat="48.06515" lon="-3.87994">
        <ele>143.4</ele>
        <time>2022-12-08T09:54:54Z</time>
      </trkpt>
      <trkpt lat="48.06516" lon="-3.87987">
        <ele>143.4</ele>
        <time>2022-12-08T09:54:55Z</time>
      </trkpt>
      <trkpt lat="48.06519" lon="-3.87982">
        <ele>143.5</ele>
        <time>2022-12-08T09:54:57Z</time>
      </trkpt>
      <trkpt lat="48.0652" lon="-3.87976">
        <ele>143.6</ele>
        <time>2022-12-08T09:54:58Z</time>
      </trkpt>
      <trkpt lat="48.06523" lon="-3.87968">
        <ele>143.7</ele>
        <time>2022-12-08T09:54:59Z</time>
      </trkpt>
      <trkpt lat="48.06525" lon="-3.87962">
        <ele>143.8</ele>
        <time>2022-12-08T09:55:00Z</time>
      </trkpt>
      <trkpt lat="48.06528" lon="-3.87957">
        <ele>143.9</ele>
        <time>2022-12-08T09:55:01Z</time>
      </trkpt>
      <trkpt lat="48.0653" lon="-3.87952">
        <ele>144.1</ele>
        <time>2022-12-08T09:55:02Z</time>
      </trkpt>
      <trkpt lat="48.06532" lon="-3.87946">
        <ele>144.2</ele>
        <time>2022-12-08T09:55:03Z</time>
      </trkpt>
      <trkpt lat="48.06533" lon="-3.87941">
        <ele>144.3</ele>
        <time>2022-12-08T09:55:04Z</time>
      </trkpt>
      <trkpt lat="48.06535" lon="-3.87936">
        <ele>144.4</ele>
        <time>2022-12-08T09:55:05Z</time>
      </trkpt>
      <trkpt lat="48.06538" lon="-3.87929">
        <ele>144.5</ele>
        <time>2022-12-08T09:55:07Z</time>
      </trkpt>
      <trkpt lat="48.06541" lon="-3.87922">
        <ele>144.7</ele>
        <time>2022-12-08T09:55:08Z</time>
      </trkpt>
      <trkpt lat="48.06545" lon="-3.87915">
        <ele>144.9</ele>
        <time>2022-12-08T09:55:10Z</time>
      </trkpt>
      <trkpt lat="48.06548" lon="-3.87911">
        <ele>145</ele>
        <time>2022-12-08T09:55:11Z</time>
      </trkpt>
      <trkpt lat="48.06552" lon="-3.87906">
        <ele>145.3</ele>
        <time>2022-12-08T09:55:12Z</time>
      </trkpt>
      <trkpt lat="48.06554" lon="-3.87902">
        <ele>145.4</ele>
        <time>2022-12-08T09:55:13Z</time>
      </trkpt>
      <trkpt lat="48.06557" lon="-3.87898">
        <ele>145.6</ele>
        <time>2022-12-08T09:55:14Z</time>
      </trkpt>
      <trkpt lat="48.06559" lon="-3.87894">
        <ele>145.7</ele>
        <time>2022-12-08T09:55:15Z</time>
      </trkpt>
      <trkpt lat="48.06562" lon="-3.87889">
        <ele>145.9</ele>
        <time>2022-12-08T09:55:16Z</time>
      </trkpt>
      <trkpt lat="48.06565" lon="-3.87887">
        <ele>146</ele>
        <time>2022-12-08T09:55:17Z</time>
      </trkpt>
      <trkpt lat="48.06567" lon="-3.87883">
        <ele>146.2</ele>
        <time>2022-12-08T09:55:18Z</time>
      </trkpt>
      <trkpt lat="48.06571" lon="-3.8788">
        <ele>146.3</ele>
        <time>2022-12-08T09:55:19Z</time>
      </trkpt>
      <trkpt lat="48.06573" lon="-3.87877">
        <ele>146.5</ele>
        <time>2022-12-08T09:55:20Z</time>
      </trkpt>
      <trkpt lat="48.06576" lon="-3.87873">
        <ele>146.6</ele>
        <time>2022-12-08T09:55:21Z</time>
      </trkpt>
      <trkpt lat="48.06579" lon="-3.8787">
        <ele>146.8</ele>
        <time>2022-12-08T09:55:22Z</time>
      </trkpt>
      <trkpt lat="48.06582" lon="-3.87867">
        <ele>146.9</ele>
        <time>2022-12-08T09:55:23Z</time>
      </trkpt>
      <trkpt lat="48.06585" lon="-3.87864">
        <ele>147.1</ele>
        <time>2022-12-08T09:55:24Z</time>
      </trkpt>
      <trkpt lat="48.06588" lon="-3.8786">
        <ele>147.2</ele>
        <time>2022-12-08T09:55:25Z</time>
      </trkpt>
      <trkpt lat="48.06591" lon="-3.87857">
        <ele>147.4</ele>
        <time>2022-12-08T09:55:26Z</time>
      </trkpt>
      <trkpt lat="48.06595" lon="-3.87855">
        <ele>147.6</ele>
        <time>2022-12-08T09:55:27Z</time>
      </trkpt>
      <trkpt lat="48.066" lon="-3.87851">
        <ele>147.9</ele>
        <time>2022-12-08T09:55:29Z</time>
      </trkpt>
      <trkpt lat="48.06603" lon="-3.87848">
        <ele>148.2</ele>
        <time>2022-12-08T09:55:30Z</time>
      </trkpt>
      <trkpt lat="48.06607" lon="-3.87847">
        <ele>148.4</ele>
        <time>2022-12-08T09:55:31Z</time>
      </trkpt>
      <trkpt lat="48.0661" lon="-3.87844">
        <ele>148.6</ele>
        <time>2022-12-08T09:55:32Z</time>
      </trkpt>
      <trkpt lat="48.06613" lon="-3.87842">
        <ele>148.8</ele>
        <time>2022-12-08T09:55:33Z</time>
      </trkpt>
      <trkpt lat="48.06616" lon="-3.8784">
        <ele>149</ele>
        <time>2022-12-08T09:55:34Z</time>
      </trkpt>
      <trkpt lat="48.0662" lon="-3.87838">
        <ele>149.2</ele>
        <time>2022-12-08T09:55:35Z</time>
      </trkpt>
      <trkpt lat="48.06623" lon="-3.87836">
        <ele>149.4</ele>
        <time>2022-12-08T09:55:36Z</time>
      </trkpt>
      <trkpt lat="48.06627" lon="-3.87834">
        <ele>149.6</ele>
        <time>2022-12-08T09:55:37Z</time>
      </trkpt>
      <trkpt lat="48.0663" lon="-3.87831">
        <ele>149.9</ele>
        <time>2022-12-08T09:55:38Z</time>
      </trkpt>
      <trkpt lat="48.06633" lon="-3.87828">
        <ele>150.2</ele>
        <time>2022-12-08T09:55:39Z</time>
      </trkpt>
      <trkpt lat="48.06635" lon="-3.87825">
        <ele>150.2</ele>
        <time>2022-12-08T09:55:40Z</time>
      </trkpt>
      <trkpt lat="48.06638" lon="-3.87814">
        <ele>150.2</ele>
        <time>2022-12-08T09:55:42Z</time>
      </trkpt>
      <trkpt lat="48.06638" lon="-3.87809">
        <ele>150.2</ele>
        <time>2022-12-08T09:55:43Z</time>
      </trkpt>
      <trkpt lat="48.06639" lon="-3.87802">
        <ele>150.2</ele>
        <time>2022-12-08T09:55:44Z</time>
      </trkpt>
      <trkpt lat="48.06639" lon="-3.87796">
        <ele>150.2</ele>
        <time>2022-12-08T09:55:45Z</time>
      </trkpt>
      <trkpt lat="48.0664" lon="-3.8778">
        <ele>150.1</ele>
        <time>2022-12-08T09:55:47Z</time>
      </trkpt>
      <trkpt lat="48.0664" lon="-3.87772">
        <ele>150.1</ele>
        <time>2022-12-08T09:55:48Z</time>
      </trkpt>
      <trkpt lat="48.06641" lon="-3.87765">
        <ele>150.1</ele>
        <time>2022-12-08T09:55:49Z</time>
      </trkpt>
      <trkpt lat="48.06641" lon="-3.87757">
        <ele>150.1</ele>
        <time>2022-12-08T09:55:50Z</time>
      </trkpt>
      <trkpt lat="48.06642" lon="-3.8775">
        <ele>150.1</ele>
        <time>2022-12-08T09:55:51Z</time>
      </trkpt>
      <trkpt lat="48.06642" lon="-3.87742">
        <ele>150.1</ele>
        <time>2022-12-08T09:55:52Z</time>
      </trkpt>
      <trkpt lat="48.06643" lon="-3.87735">
        <ele>150.1</ele>
        <time>2022-12-08T09:55:53Z</time>
      </trkpt>
      <trkpt lat="48.06644" lon="-3.87727">
        <ele>150.1</ele>
        <time>2022-12-08T09:55:54Z</time>
      </trkpt>
      <trkpt lat="48.06645" lon="-3.8772">
        <ele>150.1</ele>
        <time>2022-12-08T09:55:55Z</time>
      </trkpt>
      <trkpt lat="48.06645" lon="-3.87712">
        <ele>150.1</ele>
        <time>2022-12-08T09:55:56Z</time>
      </trkpt>
      <trkpt lat="48.06646" lon="-3.87704">
        <ele>150.1</ele>
        <time>2022-12-08T09:55:57Z</time>
      </trkpt>
      <trkpt lat="48.06647" lon="-3.87697">
        <ele>150.1</ele>
        <time>2022-12-08T09:55:58Z</time>
      </trkpt>
      <trkpt lat="48.06647" lon="-3.87689">
        <ele>150</ele>
        <time>2022-12-08T09:55:59Z</time>
      </trkpt>
      <trkpt lat="48.06648" lon="-3.87681">
        <ele>150</ele>
        <time>2022-12-08T09:56:00Z</time>
      </trkpt>
      <trkpt lat="48.06648" lon="-3.87673">
        <ele>150</ele>
        <time>2022-12-08T09:56:01Z</time>
      </trkpt>
      <trkpt lat="48.06649" lon="-3.87666">
        <ele>150</ele>
        <time>2022-12-08T09:56:02Z</time>
      </trkpt>
      <trkpt lat="48.06649" lon="-3.87658">
        <ele>149.9</ele>
        <time>2022-12-08T09:56:03Z</time>
      </trkpt>
      <trkpt lat="48.0665" lon="-3.8765">
        <ele>149.9</ele>
        <time>2022-12-08T09:56:04Z</time>
      </trkpt>
      <trkpt lat="48.06651" lon="-3.87643">
        <ele>149.8</ele>
        <time>2022-12-08T09:56:05Z</time>
      </trkpt>
      <trkpt lat="48.06652" lon="-3.87635">
        <ele>149.8</ele>
        <time>2022-12-08T09:56:06Z</time>
      </trkpt>
      <trkpt lat="48.06653" lon="-3.87627">
        <ele>149.8</ele>
        <time>2022-12-08T09:56:07Z</time>
      </trkpt>
      <trkpt lat="48.06654" lon="-3.8762">
        <ele>149.7</ele>
        <time>2022-12-08T09:56:08Z</time>
      </trkpt>
      <trkpt lat="48.06655" lon="-3.87612">
        <ele>149.7</ele>
        <time>2022-12-08T09:56:09Z</time>
      </trkpt>
      <trkpt lat="48.06656" lon="-3.87604">
        <ele>149.6</ele>
        <time>2022-12-08T09:56:10Z</time>
      </trkpt>
      <trkpt lat="48.06657" lon="-3.87596">
        <ele>149.6</ele>
        <time>2022-12-08T09:56:11Z</time>
      </trkpt>
      <trkpt lat="48.06658" lon="-3.87588">
        <ele>149.6</ele>
        <time>2022-12-08T09:56:12Z</time>
      </trkpt>
      <trkpt lat="48.06659" lon="-3.8758">
        <ele>149.6</ele>
        <time>2022-12-08T09:56:13Z</time>
      </trkpt>
      <trkpt lat="48.06661" lon="-3.87572">
        <ele>149.5</ele>
        <time>2022-12-08T09:56:14Z</time>
      </trkpt>
      <trkpt lat="48.06662" lon="-3.87565">
        <ele>149.5</ele>
        <time>2022-12-08T09:56:15Z</time>
      </trkpt>
      <trkpt lat="48.06663" lon="-3.87557">
        <ele>149.4</ele>
        <time>2022-12-08T09:56:16Z</time>
      </trkpt>
      <trkpt lat="48.06664" lon="-3.87549">
        <ele>149.4</ele>
        <time>2022-12-08T09:56:17Z</time>
      </trkpt>
      <trkpt lat="48.06665" lon="-3.87541">
        <ele>149.4</ele>
        <time>2022-12-08T09:56:18Z</time>
      </trkpt>
      <trkpt lat="48.06667" lon="-3.87534">
        <ele>149.3</ele>
        <time>2022-12-08T09:56:19Z</time>
      </trkpt>
      <trkpt lat="48.06667" lon="-3.87526">
        <ele>149.3</ele>
        <time>2022-12-08T09:56:20Z</time>
      </trkpt>
      <trkpt lat="48.06668" lon="-3.87518">
        <ele>149.2</ele>
        <time>2022-12-08T09:56:21Z</time>
      </trkpt>
      <trkpt lat="48.06669" lon="-3.8751">
        <ele>149.1</ele>
        <time>2022-12-08T09:56:22Z</time>
      </trkpt>
      <trkpt lat="48.0667" lon="-3.87502">
        <ele>149.1</ele>
        <time>2022-12-08T09:56:23Z</time>
      </trkpt>
      <trkpt lat="48.06671" lon="-3.87494">
        <ele>149</ele>
        <time>2022-12-08T09:56:24Z</time>
      </trkpt>
      <trkpt lat="48.06672" lon="-3.87486">
        <ele>148.9</ele>
        <time>2022-12-08T09:56:25Z</time>
      </trkpt>
      <trkpt lat="48.06673" lon="-3.87478">
        <ele>148.9</ele>
        <time>2022-12-08T09:56:26Z</time>
      </trkpt>
      <trkpt lat="48.06674" lon="-3.8747">
        <ele>148.8</ele>
        <time>2022-12-08T09:56:27Z</time>
      </trkpt>
      <trkpt lat="48.06675" lon="-3.87461">
        <ele>148.7</ele>
        <time>2022-12-08T09:56:28Z</time>
      </trkpt>
      <trkpt lat="48.06676" lon="-3.87453">
        <ele>148.6</ele>
        <time>2022-12-08T09:56:29Z</time>
      </trkpt>
      <trkpt lat="48.06677" lon="-3.87444">
        <ele>148.6</ele>
        <time>2022-12-08T09:56:30Z</time>
      </trkpt>
      <trkpt lat="48.06678" lon="-3.87436">
        <ele>148.5</ele>
        <time>2022-12-08T09:56:31Z</time>
      </trkpt>
      <trkpt lat="48.06678" lon="-3.87428">
        <ele>148.5</ele>
        <time>2022-12-08T09:56:32Z</time>
      </trkpt>
      <trkpt lat="48.06679" lon="-3.8742">
        <ele>148.4</ele>
        <time>2022-12-08T09:56:33Z</time>
      </trkpt>
      <trkpt lat="48.0668" lon="-3.87411">
        <ele>148.4</ele>
        <time>2022-12-08T09:56:34Z</time>
      </trkpt>
      <trkpt lat="48.06681" lon="-3.87403">
        <ele>148.4</ele>
        <time>2022-12-08T09:56:35Z</time>
      </trkpt>
      <trkpt lat="48.06682" lon="-3.87395">
        <ele>148.3</ele>
        <time>2022-12-08T09:56:36Z</time>
      </trkpt>
      <trkpt lat="48.06682" lon="-3.87387">
        <ele>148.3</ele>
        <time>2022-12-08T09:56:37Z</time>
      </trkpt>
      <trkpt lat="48.06683" lon="-3.87379">
        <ele>148.3</ele>
        <time>2022-12-08T09:56:38Z</time>
      </trkpt>
      <trkpt lat="48.06684" lon="-3.87371">
        <ele>148.4</ele>
        <time>2022-12-08T09:56:39Z</time>
      </trkpt>
      <trkpt lat="48.06685" lon="-3.87363">
        <ele>148.4</ele>
        <time>2022-12-08T09:56:40Z</time>
      </trkpt>
      <trkpt lat="48.06686" lon="-3.87355">
        <ele>148.4</ele>
        <time>2022-12-08T09:56:41Z</time>
      </trkpt>
      <trkpt lat="48.06687" lon="-3.87347">
        <ele>148.5</ele>
        <time>2022-12-08T09:56:42Z</time>
      </trkpt>
      <trkpt lat="48.06687" lon="-3.8734">
        <ele>148.5</ele>
        <time>2022-12-08T09:56:43Z</time>
      </trkpt>
      <trkpt lat="48.06688" lon="-3.87332">
        <ele>148.6</ele>
        <time>2022-12-08T09:56:44Z</time>
      </trkpt>
      <trkpt lat="48.06689" lon="-3.87325">
        <ele>148.7</ele>
        <time>2022-12-08T09:56:45Z</time>
      </trkpt>
      <trkpt lat="48.0669" lon="-3.87317">
        <ele>148.7</ele>
        <time>2022-12-08T09:56:46Z</time>
      </trkpt>
      <trkpt lat="48.06691" lon="-3.87309">
        <ele>148.8</ele>
        <time>2022-12-08T09:56:47Z</time>
      </trkpt>
      <trkpt lat="48.06691" lon="-3.87302">
        <ele>148.9</ele>
        <time>2022-12-08T09:56:48Z</time>
      </trkpt>
      <trkpt lat="48.06692" lon="-3.87294">
        <ele>149</ele>
        <time>2022-12-08T09:56:49Z</time>
      </trkpt>
      <trkpt lat="48.06693" lon="-3.87286">
        <ele>149.1</ele>
        <time>2022-12-08T09:56:50Z</time>
      </trkpt>
      <trkpt lat="48.06693" lon="-3.87279">
        <ele>149.2</ele>
        <time>2022-12-08T09:56:51Z</time>
      </trkpt>
      <trkpt lat="48.06694" lon="-3.87271">
        <ele>149.4</ele>
        <time>2022-12-08T09:56:52Z</time>
      </trkpt>
      <trkpt lat="48.06694" lon="-3.87264">
        <ele>149.5</ele>
        <time>2022-12-08T09:56:53Z</time>
      </trkpt>
      <trkpt lat="48.06695" lon="-3.87257">
        <ele>149.7</ele>
        <time>2022-12-08T09:56:54Z</time>
      </trkpt>
      <trkpt lat="48.06696" lon="-3.87249">
        <ele>149.9</ele>
        <time>2022-12-08T09:56:55Z</time>
      </trkpt>
      <trkpt lat="48.06696" lon="-3.87243">
        <ele>150</ele>
        <time>2022-12-08T09:56:56Z</time>
      </trkpt>
      <trkpt lat="48.06697" lon="-3.87236">
        <ele>150.1</ele>
        <time>2022-12-08T09:56:57Z</time>
      </trkpt>
      <trkpt lat="48.06697" lon="-3.87229">
        <ele>150.3</ele>
        <time>2022-12-08T09:56:58Z</time>
      </trkpt>
      <trkpt lat="48.06697" lon="-3.87223">
        <ele>150.4</ele>
        <time>2022-12-08T09:56:59Z</time>
      </trkpt>
      <trkpt lat="48.06697" lon="-3.87216">
        <ele>150.5</ele>
        <time>2022-12-08T09:57:00Z</time>
      </trkpt>
      <trkpt lat="48.06697" lon="-3.8721">
        <ele>150.7</ele>
        <time>2022-12-08T09:57:01Z</time>
      </trkpt>
      <trkpt lat="48.06698" lon="-3.87203">
        <ele>150.9</ele>
        <time>2022-12-08T09:57:02Z</time>
      </trkpt>
      <trkpt lat="48.06698" lon="-3.87199">
        <ele>151</ele>
        <time>2022-12-08T09:57:03Z</time>
      </trkpt>
      <trkpt lat="48.06698" lon="-3.8719">
        <ele>151.2</ele>
        <time>2022-12-08T09:57:04Z</time>
      </trkpt>
      <trkpt lat="48.06699" lon="-3.87183">
        <ele>151.4</ele>
        <time>2022-12-08T09:57:05Z</time>
      </trkpt>
      <trkpt lat="48.06699" lon="-3.87178">
        <ele>151.6</ele>
        <time>2022-12-08T09:57:06Z</time>
      </trkpt>
      <trkpt lat="48.06699" lon="-3.87173">
        <ele>151.7</ele>
        <time>2022-12-08T09:57:07Z</time>
      </trkpt>
      <trkpt lat="48.067" lon="-3.87162">
        <ele>152.1</ele>
        <time>2022-12-08T09:57:08Z</time>
      </trkpt>
      <trkpt lat="48.067" lon="-3.87157">
        <ele>152.2</ele>
        <time>2022-12-08T09:57:09Z</time>
      </trkpt>
      <trkpt lat="48.067" lon="-3.87156">
        <ele>152.3</ele>
        <time>2022-12-08T09:57:10Z</time>
      </trkpt>
      <trkpt lat="48.06701" lon="-3.87145">
        <ele>152.6</ele>
        <time>2022-12-08T09:57:12Z</time>
      </trkpt>
      <trkpt lat="48.06702" lon="-3.87138">
        <ele>152.8</ele>
        <time>2022-12-08T09:57:13Z</time>
      </trkpt>
      <trkpt lat="48.06702" lon="-3.87128">
        <ele>153.2</ele>
        <time>2022-12-08T09:57:14Z</time>
      </trkpt>
      <trkpt lat="48.06703" lon="-3.87121">
        <ele>153.4</ele>
        <time>2022-12-08T09:57:15Z</time>
      </trkpt>
      <trkpt lat="48.06703" lon="-3.87116">
        <ele>153.6</ele>
        <time>2022-12-08T09:57:16Z</time>
      </trkpt>
      <trkpt lat="48.06703" lon="-3.87109">
        <ele>153.9</ele>
        <time>2022-12-08T09:57:17Z</time>
      </trkpt>
      <trkpt lat="48.06703" lon="-3.87103">
        <ele>154.1</ele>
        <time>2022-12-08T09:57:18Z</time>
      </trkpt>
      <trkpt lat="48.06704" lon="-3.87097">
        <ele>154.3</ele>
        <time>2022-12-08T09:57:19Z</time>
      </trkpt>
      <trkpt lat="48.06705" lon="-3.8709">
        <ele>154.6</ele>
        <time>2022-12-08T09:57:20Z</time>
      </trkpt>
      <trkpt lat="48.06705" lon="-3.87084">
        <ele>154.8</ele>
        <time>2022-12-08T09:57:21Z</time>
      </trkpt>
      <trkpt lat="48.06706" lon="-3.87076">
        <ele>155.1</ele>
        <time>2022-12-08T09:57:22Z</time>
      </trkpt>
      <trkpt lat="48.06707" lon="-3.8707">
        <ele>155.4</ele>
        <time>2022-12-08T09:57:23Z</time>
      </trkpt>
      <trkpt lat="48.06707" lon="-3.87065">
        <ele>155.5</ele>
        <time>2022-12-08T09:57:24Z</time>
      </trkpt>
      <trkpt lat="48.06707" lon="-3.87059">
        <ele>155.7</ele>
        <time>2022-12-08T09:57:25Z</time>
      </trkpt>
      <trkpt lat="48.06708" lon="-3.87053">
        <ele>156</ele>
        <time>2022-12-08T09:57:26Z</time>
      </trkpt>
      <trkpt lat="48.06708" lon="-3.87047">
        <ele>156.2</ele>
        <time>2022-12-08T09:57:27Z</time>
      </trkpt>
      <trkpt lat="48.06709" lon="-3.87042">
        <ele>156.4</ele>
        <time>2022-12-08T09:57:28Z</time>
      </trkpt>
      <trkpt lat="48.06709" lon="-3.87036">
        <ele>156.6</ele>
        <time>2022-12-08T09:57:29Z</time>
      </trkpt>
      <trkpt lat="48.0671" lon="-3.8703">
        <ele>156.8</ele>
        <time>2022-12-08T09:57:30Z</time>
      </trkpt>
      <trkpt lat="48.0671" lon="-3.87023">
        <ele>157</ele>
        <time>2022-12-08T09:57:31Z</time>
      </trkpt>
      <trkpt lat="48.06711" lon="-3.87018">
        <ele>157.2</ele>
        <time>2022-12-08T09:57:32Z</time>
      </trkpt>
      <trkpt lat="48.06711" lon="-3.87011">
        <ele>157.4</ele>
        <time>2022-12-08T09:57:33Z</time>
      </trkpt>
      <trkpt lat="48.06712" lon="-3.86999">
        <ele>157.9</ele>
        <time>2022-12-08T09:57:35Z</time>
      </trkpt>
      <trkpt lat="48.06712" lon="-3.86993">
        <ele>158.1</ele>
        <time>2022-12-08T09:57:36Z</time>
      </trkpt>
      <trkpt lat="48.06712" lon="-3.86987">
        <ele>158.3</ele>
        <time>2022-12-08T09:57:37Z</time>
      </trkpt>
      <trkpt lat="48.06712" lon="-3.86981">
        <ele>158.5</ele>
        <time>2022-12-08T09:57:38Z</time>
      </trkpt>
      <trkpt lat="48.06712" lon="-3.86976">
        <ele>158.7</ele>
        <time>2022-12-08T09:57:39Z</time>
      </trkpt>
      <trkpt lat="48.06712" lon="-3.8697">
        <ele>158.8</ele>
        <time>2022-12-08T09:57:40Z</time>
      </trkpt>
      <trkpt lat="48.06712" lon="-3.86963">
        <ele>159</ele>
        <time>2022-12-08T09:57:41Z</time>
      </trkpt>
      <trkpt lat="48.06712" lon="-3.86958">
        <ele>159.2</ele>
        <time>2022-12-08T09:57:42Z</time>
      </trkpt>
      <trkpt lat="48.06712" lon="-3.86951">
        <ele>159.4</ele>
        <time>2022-12-08T09:57:43Z</time>
      </trkpt>
      <trkpt lat="48.06713" lon="-3.86945">
        <ele>159.6</ele>
        <time>2022-12-08T09:57:44Z</time>
      </trkpt>
      <trkpt lat="48.06714" lon="-3.86938">
        <ele>159.7</ele>
        <time>2022-12-08T09:57:45Z</time>
      </trkpt>
      <trkpt lat="48.06714" lon="-3.86931">
        <ele>160</ele>
        <time>2022-12-08T09:57:46Z</time>
      </trkpt>
      <trkpt lat="48.06714" lon="-3.86927">
        <ele>160.1</ele>
        <time>2022-12-08T09:57:47Z</time>
      </trkpt>
      <trkpt lat="48.06715" lon="-3.86921">
        <ele>160.3</ele>
        <time>2022-12-08T09:57:48Z</time>
      </trkpt>
      <trkpt lat="48.06715" lon="-3.86914">
        <ele>160.4</ele>
        <time>2022-12-08T09:57:49Z</time>
      </trkpt>
      <trkpt lat="48.06715" lon="-3.86908">
        <ele>160.6</ele>
        <time>2022-12-08T09:57:50Z</time>
      </trkpt>
      <trkpt lat="48.06716" lon="-3.86901">
        <ele>160.8</ele>
        <time>2022-12-08T09:57:51Z</time>
      </trkpt>
      <trkpt lat="48.06716" lon="-3.86895">
        <ele>161</ele>
        <time>2022-12-08T09:57:52Z</time>
      </trkpt>
      <trkpt lat="48.06717" lon="-3.86892">
        <ele>161.1</ele>
        <time>2022-12-08T09:57:53Z</time>
      </trkpt>
      <trkpt lat="48.06717" lon="-3.86887">
        <ele>161.2</ele>
        <time>2022-12-08T09:57:54Z</time>
      </trkpt>
      <trkpt lat="48.06719" lon="-3.86875">
        <ele>161.6</ele>
        <time>2022-12-08T09:57:56Z</time>
      </trkpt>
      <trkpt lat="48.06719" lon="-3.8687">
        <ele>161.7</ele>
        <time>2022-12-08T09:57:57Z</time>
      </trkpt>
      <trkpt lat="48.06719" lon="-3.86864">
        <ele>161.9</ele>
        <time>2022-12-08T09:57:58Z</time>
      </trkpt>
      <trkpt lat="48.0672" lon="-3.86858">
        <ele>162.1</ele>
        <time>2022-12-08T09:57:59Z</time>
      </trkpt>
      <trkpt lat="48.0672" lon="-3.86853">
        <ele>162.2</ele>
        <time>2022-12-08T09:58:00Z</time>
      </trkpt>
      <trkpt lat="48.06721" lon="-3.86841">
        <ele>162.6</ele>
        <time>2022-12-08T09:58:02Z</time>
      </trkpt>
      <trkpt lat="48.06722" lon="-3.86835">
        <ele>162.8</ele>
        <time>2022-12-08T09:58:03Z</time>
      </trkpt>
      <trkpt lat="48.06723" lon="-3.86829">
        <ele>163</ele>
        <time>2022-12-08T09:58:04Z</time>
      </trkpt>
      <trkpt lat="48.06723" lon="-3.86822">
        <ele>163.2</ele>
        <time>2022-12-08T09:58:05Z</time>
      </trkpt>
      <trkpt lat="48.06724" lon="-3.86817">
        <ele>163.3</ele>
        <time>2022-12-08T09:58:06Z</time>
      </trkpt>
      <trkpt lat="48.06725" lon="-3.86806">
        <ele>163.6</ele>
        <time>2022-12-08T09:58:08Z</time>
      </trkpt>
      <trkpt lat="48.06726" lon="-3.868">
        <ele>163.8</ele>
        <time>2022-12-08T09:58:09Z</time>
      </trkpt>
      <trkpt lat="48.06726" lon="-3.86794">
        <ele>164</ele>
        <time>2022-12-08T09:58:10Z</time>
      </trkpt>
      <trkpt lat="48.06727" lon="-3.86789">
        <ele>164.1</ele>
        <time>2022-12-08T09:58:11Z</time>
      </trkpt>
      <trkpt lat="48.06728" lon="-3.86783">
        <ele>164.3</ele>
        <time>2022-12-08T09:58:12Z</time>
      </trkpt>
      <trkpt lat="48.06728" lon="-3.86778">
        <ele>164.4</ele>
        <time>2022-12-08T09:58:13Z</time>
      </trkpt>
      <trkpt lat="48.06729" lon="-3.86774">
        <ele>164.5</ele>
        <time>2022-12-08T09:58:14Z</time>
      </trkpt>
      <trkpt lat="48.06729" lon="-3.86767">
        <ele>164.7</ele>
        <time>2022-12-08T09:58:15Z</time>
      </trkpt>
      <trkpt lat="48.0673" lon="-3.86761">
        <ele>164.9</ele>
        <time>2022-12-08T09:58:16Z</time>
      </trkpt>
      <trkpt lat="48.0673" lon="-3.86755">
        <ele>165</ele>
        <time>2022-12-08T09:58:17Z</time>
      </trkpt>
      <trkpt lat="48.06731" lon="-3.86749">
        <ele>165.1</ele>
        <time>2022-12-08T09:58:18Z</time>
      </trkpt>
      <trkpt lat="48.06732" lon="-3.86743">
        <ele>165.2</ele>
        <time>2022-12-08T09:58:19Z</time>
      </trkpt>
      <trkpt lat="48.06732" lon="-3.86737">
        <ele>165.4</ele>
        <time>2022-12-08T09:58:20Z</time>
      </trkpt>
      <trkpt lat="48.06733" lon="-3.86731">
        <ele>165.5</ele>
        <time>2022-12-08T09:58:21Z</time>
      </trkpt>
      <trkpt lat="48.06734" lon="-3.86725">
        <ele>165.6</ele>
        <time>2022-12-08T09:58:22Z</time>
      </trkpt>
      <trkpt lat="48.06735" lon="-3.86719">
        <ele>165.7</ele>
        <time>2022-12-08T09:58:23Z</time>
      </trkpt>
      <trkpt lat="48.06736" lon="-3.86713">
        <ele>165.7</ele>
        <time>2022-12-08T09:58:24Z</time>
      </trkpt>
      <trkpt lat="48.06737" lon="-3.86707">
        <ele>165.8</ele>
        <time>2022-12-08T09:58:25Z</time>
      </trkpt>
      <trkpt lat="48.06737" lon="-3.86701">
        <ele>165.9</ele>
        <time>2022-12-08T09:58:26Z</time>
      </trkpt>
      <trkpt lat="48.06738" lon="-3.86695">
        <ele>166</ele>
        <time>2022-12-08T09:58:27Z</time>
      </trkpt>
      <trkpt lat="48.06739" lon="-3.86688">
        <ele>166.1</ele>
        <time>2022-12-08T09:58:28Z</time>
      </trkpt>
      <trkpt lat="48.0674" lon="-3.86682">
        <ele>166.2</ele>
        <time>2022-12-08T09:58:29Z</time>
      </trkpt>
      <trkpt lat="48.06741" lon="-3.86676">
        <ele>166.3</ele>
        <time>2022-12-08T09:58:30Z</time>
      </trkpt>
      <trkpt lat="48.06741" lon="-3.86669">
        <ele>166.4</ele>
        <time>2022-12-08T09:58:31Z</time>
      </trkpt>
      <trkpt lat="48.06742" lon="-3.86664">
        <ele>166.4</ele>
        <time>2022-12-08T09:58:32Z</time>
      </trkpt>
      <trkpt lat="48.06742" lon="-3.86658">
        <ele>166.5</ele>
        <time>2022-12-08T09:58:33Z</time>
      </trkpt>
      <trkpt lat="48.06743" lon="-3.86651">
        <ele>166.5</ele>
        <time>2022-12-08T09:58:34Z</time>
      </trkpt>
      <trkpt lat="48.06744" lon="-3.86644">
        <ele>166.6</ele>
        <time>2022-12-08T09:58:35Z</time>
      </trkpt>
      <trkpt lat="48.06745" lon="-3.86638">
        <ele>166.6</ele>
        <time>2022-12-08T09:58:36Z</time>
      </trkpt>
      <trkpt lat="48.06746" lon="-3.86632">
        <ele>166.7</ele>
        <time>2022-12-08T09:58:37Z</time>
      </trkpt>
      <trkpt lat="48.06746" lon="-3.86625">
        <ele>166.7</ele>
        <time>2022-12-08T09:58:38Z</time>
      </trkpt>
      <trkpt lat="48.06747" lon="-3.86619">
        <ele>166.8</ele>
        <time>2022-12-08T09:58:39Z</time>
      </trkpt>
      <trkpt lat="48.06747" lon="-3.86613">
        <ele>166.8</ele>
        <time>2022-12-08T09:58:40Z</time>
      </trkpt>
      <trkpt lat="48.06748" lon="-3.86606">
        <ele>166.8</ele>
        <time>2022-12-08T09:58:41Z</time>
      </trkpt>
      <trkpt lat="48.06748" lon="-3.86599">
        <ele>166.8</ele>
        <time>2022-12-08T09:58:42Z</time>
      </trkpt>
      <trkpt lat="48.06748" lon="-3.86593">
        <ele>166.9</ele>
        <time>2022-12-08T09:58:43Z</time>
      </trkpt>
      <trkpt lat="48.06748" lon="-3.86586">
        <ele>166.9</ele>
        <time>2022-12-08T09:58:44Z</time>
      </trkpt>
      <trkpt lat="48.06749" lon="-3.86579">
        <ele>166.9</ele>
        <time>2022-12-08T09:58:45Z</time>
      </trkpt>
      <trkpt lat="48.06749" lon="-3.86573">
        <ele>166.9</ele>
        <time>2022-12-08T09:58:46Z</time>
      </trkpt>
      <trkpt lat="48.06749" lon="-3.86566">
        <ele>167</ele>
        <time>2022-12-08T09:58:47Z</time>
      </trkpt>
      <trkpt lat="48.0675" lon="-3.8656">
        <ele>167</ele>
        <time>2022-12-08T09:58:48Z</time>
      </trkpt>
      <trkpt lat="48.0675" lon="-3.86553">
        <ele>167.1</ele>
        <time>2022-12-08T09:58:49Z</time>
      </trkpt>
      <trkpt lat="48.06751" lon="-3.86546">
        <ele>167.2</ele>
        <time>2022-12-08T09:58:50Z</time>
      </trkpt>
      <trkpt lat="48.06752" lon="-3.86539">
        <ele>167.2</ele>
        <time>2022-12-08T09:58:51Z</time>
      </trkpt>
      <trkpt lat="48.06753" lon="-3.86533">
        <ele>167.3</ele>
        <time>2022-12-08T09:58:52Z</time>
      </trkpt>
      <trkpt lat="48.06754" lon="-3.86526">
        <ele>167.3</ele>
        <time>2022-12-08T09:58:53Z</time>
      </trkpt>
      <trkpt lat="48.06755" lon="-3.8652">
        <ele>167.4</ele>
        <time>2022-12-08T09:58:54Z</time>
      </trkpt>
      <trkpt lat="48.06755" lon="-3.86513">
        <ele>167.5</ele>
        <time>2022-12-08T09:58:55Z</time>
      </trkpt>
      <trkpt lat="48.06756" lon="-3.86507">
        <ele>167.5</ele>
        <time>2022-12-08T09:58:56Z</time>
      </trkpt>
      <trkpt lat="48.06757" lon="-3.86501">
        <ele>167.6</ele>
        <time>2022-12-08T09:58:57Z</time>
      </trkpt>
      <trkpt lat="48.06758" lon="-3.86494">
        <ele>167.7</ele>
        <time>2022-12-08T09:58:58Z</time>
      </trkpt>
      <trkpt lat="48.06759" lon="-3.86488">
        <ele>167.8</ele>
        <time>2022-12-08T09:58:59Z</time>
      </trkpt>
      <trkpt lat="48.0676" lon="-3.86482">
        <ele>167.8</ele>
        <time>2022-12-08T09:59:00Z</time>
      </trkpt>
      <trkpt lat="48.06761" lon="-3.86475">
        <ele>167.9</ele>
        <time>2022-12-08T09:59:01Z</time>
      </trkpt>
      <trkpt lat="48.06761" lon="-3.86469">
        <ele>168</ele>
        <time>2022-12-08T09:59:02Z</time>
      </trkpt>
      <trkpt lat="48.06762" lon="-3.86462">
        <ele>168</ele>
        <time>2022-12-08T09:59:03Z</time>
      </trkpt>
      <trkpt lat="48.06763" lon="-3.86455">
        <ele>168.1</ele>
        <time>2022-12-08T09:59:04Z</time>
      </trkpt>
      <trkpt lat="48.06764" lon="-3.86449">
        <ele>168.2</ele>
        <time>2022-12-08T09:59:05Z</time>
      </trkpt>
      <trkpt lat="48.06765" lon="-3.86442">
        <ele>168.2</ele>
        <time>2022-12-08T09:59:06Z</time>
      </trkpt>
      <trkpt lat="48.06766" lon="-3.86436">
        <ele>168.3</ele>
        <time>2022-12-08T09:59:07Z</time>
      </trkpt>
      <trkpt lat="48.06766" lon="-3.86431">
        <ele>168.3</ele>
        <time>2022-12-08T09:59:08Z</time>
      </trkpt>
      <trkpt lat="48.06768" lon="-3.86424">
        <ele>168.4</ele>
        <time>2022-12-08T09:59:09Z</time>
      </trkpt>
      <trkpt lat="48.06769" lon="-3.86417">
        <ele>168.5</ele>
        <time>2022-12-08T09:59:10Z</time>
      </trkpt>
      <trkpt lat="48.0677" lon="-3.86411">
        <ele>168.6</ele>
        <time>2022-12-08T09:59:11Z</time>
      </trkpt>
      <trkpt lat="48.0677" lon="-3.86404">
        <ele>168.6</ele>
        <time>2022-12-08T09:59:12Z</time>
      </trkpt>
      <trkpt lat="48.06771" lon="-3.86398">
        <ele>168.7</ele>
        <time>2022-12-08T09:59:13Z</time>
      </trkpt>
      <trkpt lat="48.06773" lon="-3.86392">
        <ele>168.8</ele>
        <time>2022-12-08T09:59:14Z</time>
      </trkpt>
      <trkpt lat="48.06773" lon="-3.86386">
        <ele>168.9</ele>
        <time>2022-12-08T09:59:15Z</time>
      </trkpt>
      <trkpt lat="48.06774" lon="-3.86379">
        <ele>168.9</ele>
        <time>2022-12-08T09:59:16Z</time>
      </trkpt>
      <trkpt lat="48.06775" lon="-3.86373">
        <ele>169</ele>
        <time>2022-12-08T09:59:17Z</time>
      </trkpt>
      <trkpt lat="48.06777" lon="-3.86366">
        <ele>169.1</ele>
        <time>2022-12-08T09:59:18Z</time>
      </trkpt>
      <trkpt lat="48.06778" lon="-3.86359">
        <ele>169.2</ele>
        <time>2022-12-08T09:59:19Z</time>
      </trkpt>
      <trkpt lat="48.06779" lon="-3.86353">
        <ele>169.3</ele>
        <time>2022-12-08T09:59:20Z</time>
      </trkpt>
      <trkpt lat="48.0678" lon="-3.86346">
        <ele>169.4</ele>
        <time>2022-12-08T09:59:21Z</time>
      </trkpt>
      <trkpt lat="48.06781" lon="-3.8634">
        <ele>169.5</ele>
        <time>2022-12-08T09:59:22Z</time>
      </trkpt>
      <trkpt lat="48.06782" lon="-3.86333">
        <ele>169.6</ele>
        <time>2022-12-08T09:59:23Z</time>
      </trkpt>
      <trkpt lat="48.06783" lon="-3.86326">
        <ele>169.7</ele>
        <time>2022-12-08T09:59:24Z</time>
      </trkpt>
      <trkpt lat="48.06784" lon="-3.8632">
        <ele>169.8</ele>
        <time>2022-12-08T09:59:25Z</time>
      </trkpt>
      <trkpt lat="48.06785" lon="-3.86314">
        <ele>169.9</ele>
        <time>2022-12-08T09:59:26Z</time>
      </trkpt>
      <trkpt lat="48.06785" lon="-3.86307">
        <ele>170</ele>
        <time>2022-12-08T09:59:27Z</time>
      </trkpt>
      <trkpt lat="48.06786" lon="-3.86301">
        <ele>170.1</ele>
        <time>2022-12-08T09:59:28Z</time>
      </trkpt>
      <trkpt lat="48.06787" lon="-3.86295">
        <ele>170.2</ele>
        <time>2022-12-08T09:59:29Z</time>
      </trkpt>
      <trkpt lat="48.06787" lon="-3.86289">
        <ele>170.3</ele>
        <time>2022-12-08T09:59:30Z</time>
      </trkpt>
      <trkpt lat="48.06788" lon="-3.86282">
        <ele>170.4</ele>
        <time>2022-12-08T09:59:31Z</time>
      </trkpt>
      <trkpt lat="48.06788" lon="-3.86276">
        <ele>170.5</ele>
        <time>2022-12-08T09:59:32Z</time>
      </trkpt>
      <trkpt lat="48.06788" lon="-3.8627">
        <ele>170.6</ele>
        <time>2022-12-08T09:59:33Z</time>
      </trkpt>
      <trkpt lat="48.06788" lon="-3.86263">
        <ele>170.7</ele>
        <time>2022-12-08T09:59:34Z</time>
      </trkpt>
      <trkpt lat="48.06788" lon="-3.86257">
        <ele>170.8</ele>
        <time>2022-12-08T09:59:35Z</time>
      </trkpt>
      <trkpt lat="48.06788" lon="-3.86252">
        <ele>170.8</ele>
        <time>2022-12-08T09:59:36Z</time>
      </trkpt>
      <trkpt lat="48.06788" lon="-3.86244">
        <ele>170.9</ele>
        <time>2022-12-08T09:59:37Z</time>
      </trkpt>
      <trkpt lat="48.06788" lon="-3.86237">
        <ele>171</ele>
        <time>2022-12-08T09:59:38Z</time>
      </trkpt>
      <trkpt lat="48.06788" lon="-3.8623">
        <ele>171.1</ele>
        <time>2022-12-08T09:59:39Z</time>
      </trkpt>
      <trkpt lat="48.06788" lon="-3.86224">
        <ele>171.2</ele>
        <time>2022-12-08T09:59:40Z</time>
      </trkpt>
      <trkpt lat="48.06788" lon="-3.86217">
        <ele>171.3</ele>
        <time>2022-12-08T09:59:41Z</time>
      </trkpt>
      <trkpt lat="48.06788" lon="-3.86211">
        <ele>171.4</ele>
        <time>2022-12-08T09:59:42Z</time>
      </trkpt>
      <trkpt lat="48.06787" lon="-3.86204">
        <ele>171.5</ele>
        <time>2022-12-08T09:59:43Z</time>
      </trkpt>
      <trkpt lat="48.06787" lon="-3.86198">
        <ele>171.5</ele>
        <time>2022-12-08T09:59:44Z</time>
      </trkpt>
      <trkpt lat="48.06787" lon="-3.86192">
        <ele>171.6</ele>
        <time>2022-12-08T09:59:45Z</time>
      </trkpt>
      <trkpt lat="48.06786" lon="-3.86185">
        <ele>171.7</ele>
        <time>2022-12-08T09:59:46Z</time>
      </trkpt>
      <trkpt lat="48.06786" lon="-3.86179">
        <ele>171.8</ele>
        <time>2022-12-08T09:59:47Z</time>
      </trkpt>
      <trkpt lat="48.06785" lon="-3.86172">
        <ele>171.9</ele>
        <time>2022-12-08T09:59:48Z</time>
      </trkpt>
      <trkpt lat="48.06785" lon="-3.86166">
        <ele>172</ele>
        <time>2022-12-08T09:59:49Z</time>
      </trkpt>
      <trkpt lat="48.06784" lon="-3.8616">
        <ele>172.1</ele>
        <time>2022-12-08T09:59:50Z</time>
      </trkpt>
      <trkpt lat="48.06784" lon="-3.86153">
        <ele>172.2</ele>
        <time>2022-12-08T09:59:51Z</time>
      </trkpt>
      <trkpt lat="48.06783" lon="-3.86147">
        <ele>172.3</ele>
        <time>2022-12-08T09:59:52Z</time>
      </trkpt>
      <trkpt lat="48.06783" lon="-3.86141">
        <ele>172.3</ele>
        <time>2022-12-08T09:59:53Z</time>
      </trkpt>
      <trkpt lat="48.06782" lon="-3.86135">
        <ele>172.4</ele>
        <time>2022-12-08T09:59:54Z</time>
      </trkpt>
      <trkpt lat="48.06782" lon="-3.86129">
        <ele>172.5</ele>
        <time>2022-12-08T09:59:55Z</time>
      </trkpt>
      <trkpt lat="48.06782" lon="-3.86123">
        <ele>172.6</ele>
        <time>2022-12-08T09:59:56Z</time>
      </trkpt>
      <trkpt lat="48.06781" lon="-3.86116">
        <ele>172.7</ele>
        <time>2022-12-08T09:59:57Z</time>
      </trkpt>
      <trkpt lat="48.06781" lon="-3.8611">
        <ele>172.7</ele>
        <time>2022-12-08T09:59:58Z</time>
      </trkpt>
      <trkpt lat="48.06781" lon="-3.86106">
        <ele>172.8</ele>
        <time>2022-12-08T09:59:59Z</time>
      </trkpt>
      <trkpt lat="48.06781" lon="-3.86099">
        <ele>172.9</ele>
        <time>2022-12-08T10:00:00Z</time>
      </trkpt>
      <trkpt lat="48.06782" lon="-3.86092">
        <ele>173</ele>
        <time>2022-12-08T10:00:01Z</time>
      </trkpt>
      <trkpt lat="48.06782" lon="-3.86086">
        <ele>173.1</ele>
        <time>2022-12-08T10:00:02Z</time>
      </trkpt>
      <trkpt lat="48.06782" lon="-3.86079">
        <ele>173.1</ele>
        <time>2022-12-08T10:00:03Z</time>
      </trkpt>
      <trkpt lat="48.06783" lon="-3.86073">
        <ele>173.2</ele>
        <time>2022-12-08T10:00:04Z</time>
      </trkpt>
      <trkpt lat="48.06783" lon="-3.86067">
        <ele>173.3</ele>
        <time>2022-12-08T10:00:05Z</time>
      </trkpt>
      <trkpt lat="48.06784" lon="-3.8606">
        <ele>173.3</ele>
        <time>2022-12-08T10:00:06Z</time>
      </trkpt>
      <trkpt lat="48.06785" lon="-3.86054">
        <ele>173.4</ele>
        <time>2022-12-08T10:00:07Z</time>
      </trkpt>
      <trkpt lat="48.06785" lon="-3.86047">
        <ele>173.5</ele>
        <time>2022-12-08T10:00:08Z</time>
      </trkpt>
      <trkpt lat="48.06786" lon="-3.86041">
        <ele>173.5</ele>
        <time>2022-12-08T10:00:09Z</time>
      </trkpt>
      <trkpt lat="48.06786" lon="-3.86035">
        <ele>173.6</ele>
        <time>2022-12-08T10:00:10Z</time>
      </trkpt>
      <trkpt lat="48.06787" lon="-3.86028">
        <ele>173.6</ele>
        <time>2022-12-08T10:00:11Z</time>
      </trkpt>
      <trkpt lat="48.06787" lon="-3.86021">
        <ele>173.7</ele>
        <time>2022-12-08T10:00:12Z</time>
      </trkpt>
      <trkpt lat="48.06788" lon="-3.86015">
        <ele>173.7</ele>
        <time>2022-12-08T10:00:13Z</time>
      </trkpt>
      <trkpt lat="48.06788" lon="-3.86008">
        <ele>173.8</ele>
        <time>2022-12-08T10:00:14Z</time>
      </trkpt>
      <trkpt lat="48.06789" lon="-3.86002">
        <ele>173.8</ele>
        <time>2022-12-08T10:00:15Z</time>
      </trkpt>
      <trkpt lat="48.06789" lon="-3.85995">
        <ele>173.9</ele>
        <time>2022-12-08T10:00:16Z</time>
      </trkpt>
      <trkpt lat="48.06789" lon="-3.85989">
        <ele>173.9</ele>
        <time>2022-12-08T10:00:17Z</time>
      </trkpt>
      <trkpt lat="48.06789" lon="-3.85982">
        <ele>174</ele>
        <time>2022-12-08T10:00:18Z</time>
      </trkpt>
      <trkpt lat="48.0679" lon="-3.85976">
        <ele>174</ele>
        <time>2022-12-08T10:00:19Z</time>
      </trkpt>
      <trkpt lat="48.0679" lon="-3.85969">
        <ele>174.1</ele>
        <time>2022-12-08T10:00:20Z</time>
      </trkpt>
      <trkpt lat="48.0679" lon="-3.85962">
        <ele>174.2</ele>
        <time>2022-12-08T10:00:21Z</time>
      </trkpt>
      <trkpt lat="48.0679" lon="-3.85955">
        <ele>174.2</ele>
        <time>2022-12-08T10:00:22Z</time>
      </trkpt>
      <trkpt lat="48.0679" lon="-3.85949">
        <ele>174.3</ele>
        <time>2022-12-08T10:00:23Z</time>
      </trkpt>
      <trkpt lat="48.06789" lon="-3.85942">
        <ele>174.4</ele>
        <time>2022-12-08T10:00:24Z</time>
      </trkpt>
      <trkpt lat="48.06789" lon="-3.85935">
        <ele>174.5</ele>
        <time>2022-12-08T10:00:25Z</time>
      </trkpt>
      <trkpt lat="48.06789" lon="-3.85929">
        <ele>174.5</ele>
        <time>2022-12-08T10:00:26Z</time>
      </trkpt>
      <trkpt lat="48.06789" lon="-3.85922">
        <ele>174.6</ele>
        <time>2022-12-08T10:00:27Z</time>
      </trkpt>
      <trkpt lat="48.06788" lon="-3.85916">
        <ele>174.7</ele>
        <time>2022-12-08T10:00:28Z</time>
      </trkpt>
      <trkpt lat="48.06787" lon="-3.85908">
        <ele>174.8</ele>
        <time>2022-12-08T10:00:29Z</time>
      </trkpt>
      <trkpt lat="48.06787" lon="-3.85904">
        <ele>174.9</ele>
        <time>2022-12-08T10:00:30Z</time>
      </trkpt>
      <trkpt lat="48.06787" lon="-3.85897">
        <ele>175</ele>
        <time>2022-12-08T10:00:31Z</time>
      </trkpt>
      <trkpt lat="48.06786" lon="-3.85891">
        <ele>175.1</ele>
        <time>2022-12-08T10:00:32Z</time>
      </trkpt>
      <trkpt lat="48.06786" lon="-3.85884">
        <ele>175.2</ele>
        <time>2022-12-08T10:00:33Z</time>
      </trkpt>
      <trkpt lat="48.06786" lon="-3.85877">
        <ele>175.3</ele>
        <time>2022-12-08T10:00:34Z</time>
      </trkpt>
      <trkpt lat="48.06785" lon="-3.85871">
        <ele>175.4</ele>
        <time>2022-12-08T10:00:35Z</time>
      </trkpt>
      <trkpt lat="48.06785" lon="-3.85864">
        <ele>175.4</ele>
        <time>2022-12-08T10:00:36Z</time>
      </trkpt>
      <trkpt lat="48.06785" lon="-3.85857">
        <ele>175.5</ele>
        <time>2022-12-08T10:00:37Z</time>
      </trkpt>
      <trkpt lat="48.06785" lon="-3.8585">
        <ele>175.6</ele>
        <time>2022-12-08T10:00:38Z</time>
      </trkpt>
      <trkpt lat="48.06784" lon="-3.85844">
        <ele>175.7</ele>
        <time>2022-12-08T10:00:39Z</time>
      </trkpt>
      <trkpt lat="48.06784" lon="-3.85837">
        <ele>175.8</ele>
        <time>2022-12-08T10:00:40Z</time>
      </trkpt>
      <trkpt lat="48.06783" lon="-3.8583">
        <ele>175.9</ele>
        <time>2022-12-08T10:00:41Z</time>
      </trkpt>
      <trkpt lat="48.06782" lon="-3.85824">
        <ele>176</ele>
        <time>2022-12-08T10:00:42Z</time>
      </trkpt>
      <trkpt lat="48.06781" lon="-3.85818">
        <ele>176.1</ele>
        <time>2022-12-08T10:00:43Z</time>
      </trkpt>
      <trkpt lat="48.0678" lon="-3.85811">
        <ele>176.2</ele>
        <time>2022-12-08T10:00:44Z</time>
      </trkpt>
      <trkpt lat="48.06779" lon="-3.85805">
        <ele>176.3</ele>
        <time>2022-12-08T10:00:45Z</time>
      </trkpt>
      <trkpt lat="48.06778" lon="-3.85798">
        <ele>176.4</ele>
        <time>2022-12-08T10:00:46Z</time>
      </trkpt>
      <trkpt lat="48.06777" lon="-3.85793">
        <ele>176.5</ele>
        <time>2022-12-08T10:00:47Z</time>
      </trkpt>
      <trkpt lat="48.06775" lon="-3.85786">
        <ele>176.6</ele>
        <time>2022-12-08T10:00:48Z</time>
      </trkpt>
      <trkpt lat="48.06774" lon="-3.8578">
        <ele>176.7</ele>
        <time>2022-12-08T10:00:49Z</time>
      </trkpt>
      <trkpt lat="48.06772" lon="-3.85774">
        <ele>176.9</ele>
        <time>2022-12-08T10:00:50Z</time>
      </trkpt>
      <trkpt lat="48.0677" lon="-3.85768">
        <ele>177</ele>
        <time>2022-12-08T10:00:51Z</time>
      </trkpt>
      <trkpt lat="48.06769" lon="-3.85762">
        <ele>177.1</ele>
        <time>2022-12-08T10:00:52Z</time>
      </trkpt>
      <trkpt lat="48.06767" lon="-3.85756">
        <ele>177.2</ele>
        <time>2022-12-08T10:00:53Z</time>
      </trkpt>
      <trkpt lat="48.06765" lon="-3.8575">
        <ele>177.3</ele>
        <time>2022-12-08T10:00:54Z</time>
      </trkpt>
      <trkpt lat="48.06763" lon="-3.85745">
        <ele>177.4</ele>
        <time>2022-12-08T10:00:55Z</time>
      </trkpt>
      <trkpt lat="48.0676" lon="-3.85739">
        <ele>177.5</ele>
        <time>2022-12-08T10:00:56Z</time>
      </trkpt>
      <trkpt lat="48.06759" lon="-3.85735">
        <ele>177.6</ele>
        <time>2022-12-08T10:00:57Z</time>
      </trkpt>
      <trkpt lat="48.06756" lon="-3.85728">
        <ele>177.7</ele>
        <time>2022-12-08T10:00:58Z</time>
      </trkpt>
      <trkpt lat="48.06753" lon="-3.85723">
        <ele>177.8</ele>
        <time>2022-12-08T10:00:59Z</time>
      </trkpt>
      <trkpt lat="48.0675" lon="-3.85718">
        <ele>177.9</ele>
        <time>2022-12-08T10:01:00Z</time>
      </trkpt>
      <trkpt lat="48.06748" lon="-3.85713">
        <ele>178</ele>
        <time>2022-12-08T10:01:01Z</time>
      </trkpt>
      <trkpt lat="48.06745" lon="-3.85708">
        <ele>178.2</ele>
        <time>2022-12-08T10:01:02Z</time>
      </trkpt>
      <trkpt lat="48.06742" lon="-3.85704">
        <ele>178.3</ele>
        <time>2022-12-08T10:01:03Z</time>
      </trkpt>
      <trkpt lat="48.0674" lon="-3.85699">
        <ele>178.3</ele>
        <time>2022-12-08T10:01:04Z</time>
      </trkpt>
      <trkpt lat="48.06737" lon="-3.85694">
        <ele>178.5</ele>
        <time>2022-12-08T10:01:05Z</time>
      </trkpt>
      <trkpt lat="48.06734" lon="-3.8569">
        <ele>178.5</ele>
        <time>2022-12-08T10:01:06Z</time>
      </trkpt>
      <trkpt lat="48.06729" lon="-3.85682">
        <ele>178.7</ele>
        <time>2022-12-08T10:01:08Z</time>
      </trkpt>
      <trkpt lat="48.06727" lon="-3.85677">
        <ele>178.8</ele>
        <time>2022-12-08T10:01:09Z</time>
      </trkpt>
      <trkpt lat="48.06724" lon="-3.85672">
        <ele>178.9</ele>
        <time>2022-12-08T10:01:10Z</time>
      </trkpt>
      <trkpt lat="48.06722" lon="-3.85667">
        <ele>179</ele>
        <time>2022-12-08T10:01:11Z</time>
      </trkpt>
      <trkpt lat="48.06719" lon="-3.85662">
        <ele>179</ele>
        <time>2022-12-08T10:01:12Z</time>
      </trkpt>
      <trkpt lat="48.06717" lon="-3.85657">
        <ele>179.1</ele>
        <time>2022-12-08T10:01:13Z</time>
      </trkpt>
      <trkpt lat="48.06714" lon="-3.85651">
        <ele>179.2</ele>
        <time>2022-12-08T10:01:14Z</time>
      </trkpt>
      <trkpt lat="48.06712" lon="-3.85646">
        <ele>179.3</ele>
        <time>2022-12-08T10:01:15Z</time>
      </trkpt>
      <trkpt lat="48.06709" lon="-3.8564">
        <ele>179.4</ele>
        <time>2022-12-08T10:01:16Z</time>
      </trkpt>
      <trkpt lat="48.06706" lon="-3.85635">
        <ele>179.5</ele>
        <time>2022-12-08T10:01:17Z</time>
      </trkpt>
      <trkpt lat="48.06704" lon="-3.85629">
        <ele>179.6</ele>
        <time>2022-12-08T10:01:18Z</time>
      </trkpt>
      <trkpt lat="48.06702" lon="-3.85623">
        <ele>179.7</ele>
        <time>2022-12-08T10:01:19Z</time>
      </trkpt>
      <trkpt lat="48.067" lon="-3.85617">
        <ele>179.8</ele>
        <time>2022-12-08T10:01:20Z</time>
      </trkpt>
      <trkpt lat="48.06697" lon="-3.85612">
        <ele>179.9</ele>
        <time>2022-12-08T10:01:21Z</time>
      </trkpt>
      <trkpt lat="48.06696" lon="-3.85608">
        <ele>179.9</ele>
        <time>2022-12-08T10:01:22Z</time>
      </trkpt>
      <trkpt lat="48.06694" lon="-3.85603">
        <ele>180</ele>
        <time>2022-12-08T10:01:23Z</time>
      </trkpt>
      <trkpt lat="48.06692" lon="-3.85597">
        <ele>180.1</ele>
        <time>2022-12-08T10:01:24Z</time>
      </trkpt>
      <trkpt lat="48.06689" lon="-3.85592">
        <ele>180.2</ele>
        <time>2022-12-08T10:01:25Z</time>
      </trkpt>
      <trkpt lat="48.06686" lon="-3.85586">
        <ele>180.3</ele>
        <time>2022-12-08T10:01:26Z</time>
      </trkpt>
      <trkpt lat="48.06683" lon="-3.8558">
        <ele>180.4</ele>
        <time>2022-12-08T10:01:27Z</time>
      </trkpt>
      <trkpt lat="48.06681" lon="-3.85574">
        <ele>180.4</ele>
        <time>2022-12-08T10:01:28Z</time>
      </trkpt>
      <trkpt lat="48.06678" lon="-3.85569">
        <ele>180.5</ele>
        <time>2022-12-08T10:01:29Z</time>
      </trkpt>
      <trkpt lat="48.06675" lon="-3.85563">
        <ele>180.6</ele>
        <time>2022-12-08T10:01:30Z</time>
      </trkpt>
      <trkpt lat="48.06672" lon="-3.85558">
        <ele>180.6</ele>
        <time>2022-12-08T10:01:31Z</time>
      </trkpt>
      <trkpt lat="48.0667" lon="-3.85553">
        <ele>180.7</ele>
        <time>2022-12-08T10:01:32Z</time>
      </trkpt>
      <trkpt lat="48.06667" lon="-3.85547">
        <ele>180.8</ele>
        <time>2022-12-08T10:01:33Z</time>
      </trkpt>
      <trkpt lat="48.06665" lon="-3.85542">
        <ele>180.8</ele>
        <time>2022-12-08T10:01:34Z</time>
      </trkpt>
      <trkpt lat="48.06662" lon="-3.85536">
        <ele>180.9</ele>
        <time>2022-12-08T10:01:35Z</time>
      </trkpt>
      <trkpt lat="48.0666" lon="-3.85531">
        <ele>181</ele>
        <time>2022-12-08T10:01:36Z</time>
      </trkpt>
      <trkpt lat="48.06657" lon="-3.85525">
        <ele>181</ele>
        <time>2022-12-08T10:01:37Z</time>
      </trkpt>
      <trkpt lat="48.06655" lon="-3.85519">
        <ele>181.1</ele>
        <time>2022-12-08T10:01:38Z</time>
      </trkpt>
      <trkpt lat="48.06652" lon="-3.85513">
        <ele>181.2</ele>
        <time>2022-12-08T10:01:39Z</time>
      </trkpt>
      <trkpt lat="48.0665" lon="-3.85508">
        <ele>181.2</ele>
        <time>2022-12-08T10:01:40Z</time>
      </trkpt>
      <trkpt lat="48.06647" lon="-3.85502">
        <ele>181.3</ele>
        <time>2022-12-08T10:01:41Z</time>
      </trkpt>
      <trkpt lat="48.06645" lon="-3.85496">
        <ele>181.4</ele>
        <time>2022-12-08T10:01:42Z</time>
      </trkpt>
      <trkpt lat="48.06643" lon="-3.85491">
        <ele>181.5</ele>
        <time>2022-12-08T10:01:43Z</time>
      </trkpt>
      <trkpt lat="48.06641" lon="-3.85485">
        <ele>181.6</ele>
        <time>2022-12-08T10:01:44Z</time>
      </trkpt>
      <trkpt lat="48.06639" lon="-3.85479">
        <ele>181.7</ele>
        <time>2022-12-08T10:01:45Z</time>
      </trkpt>
      <trkpt lat="48.06638" lon="-3.85475">
        <ele>181.8</ele>
        <time>2022-12-08T10:01:46Z</time>
      </trkpt>
      <trkpt lat="48.06635" lon="-3.85468">
        <ele>181.9</ele>
        <time>2022-12-08T10:01:47Z</time>
      </trkpt>
      <trkpt lat="48.06632" lon="-3.85461">
        <ele>182</ele>
        <time>2022-12-08T10:01:48Z</time>
      </trkpt>
      <trkpt lat="48.0663" lon="-3.85456">
        <ele>182.1</ele>
        <time>2022-12-08T10:01:49Z</time>
      </trkpt>
      <trkpt lat="48.06629" lon="-3.8545">
        <ele>182.1</ele>
        <time>2022-12-08T10:01:50Z</time>
      </trkpt>
      <trkpt lat="48.06627" lon="-3.85445">
        <ele>182.2</ele>
        <time>2022-12-08T10:01:51Z</time>
      </trkpt>
      <trkpt lat="48.06625" lon="-3.85439">
        <ele>182.3</ele>
        <time>2022-12-08T10:01:52Z</time>
      </trkpt>
      <trkpt lat="48.06623" lon="-3.85433">
        <ele>182.4</ele>
        <time>2022-12-08T10:01:53Z</time>
      </trkpt>
      <trkpt lat="48.06622" lon="-3.85428">
        <ele>182.5</ele>
        <time>2022-12-08T10:01:54Z</time>
      </trkpt>
      <trkpt lat="48.0662" lon="-3.85421">
        <ele>182.6</ele>
        <time>2022-12-08T10:01:55Z</time>
      </trkpt>
      <trkpt lat="48.06618" lon="-3.85416">
        <ele>182.7</ele>
        <time>2022-12-08T10:01:56Z</time>
      </trkpt>
      <trkpt lat="48.06616" lon="-3.85408">
        <ele>182.8</ele>
        <time>2022-12-08T10:01:57Z</time>
      </trkpt>
      <trkpt lat="48.06615" lon="-3.85401">
        <ele>182.9</ele>
        <time>2022-12-08T10:01:58Z</time>
      </trkpt>
      <trkpt lat="48.06613" lon="-3.85395">
        <ele>183.1</ele>
        <time>2022-12-08T10:01:59Z</time>
      </trkpt>
      <trkpt lat="48.06611" lon="-3.85383">
        <ele>183.3</ele>
        <time>2022-12-08T10:02:01Z</time>
      </trkpt>
      <trkpt lat="48.06609" lon="-3.85375">
        <ele>183.3</ele>
        <time>2022-12-08T10:02:03Z</time>
      </trkpt>
      <trkpt lat="48.06607" lon="-3.85365">
        <ele>183.4</ele>
        <time>2022-12-08T10:02:04Z</time>
      </trkpt>
      <trkpt lat="48.06607" lon="-3.85358">
        <ele>183.4</ele>
        <time>2022-12-08T10:02:05Z</time>
      </trkpt>
      <trkpt lat="48.06606" lon="-3.85351">
        <ele>183.5</ele>
        <time>2022-12-08T10:02:06Z</time>
      </trkpt>
      <trkpt lat="48.06605" lon="-3.85344">
        <ele>183.5</ele>
        <time>2022-12-08T10:02:07Z</time>
      </trkpt>
      <trkpt lat="48.06605" lon="-3.85338">
        <ele>183.6</ele>
        <time>2022-12-08T10:02:08Z</time>
      </trkpt>
      <trkpt lat="48.06605" lon="-3.85331">
        <ele>183.6</ele>
        <time>2022-12-08T10:02:09Z</time>
      </trkpt>
      <trkpt lat="48.06604" lon="-3.85324">
        <ele>183.7</ele>
        <time>2022-12-08T10:02:10Z</time>
      </trkpt>
      <trkpt lat="48.06604" lon="-3.85317">
        <ele>183.8</ele>
        <time>2022-12-08T10:02:11Z</time>
      </trkpt>
      <trkpt lat="48.06604" lon="-3.8531">
        <ele>183.9</ele>
        <time>2022-12-08T10:02:12Z</time>
      </trkpt>
      <trkpt lat="48.06603" lon="-3.85303">
        <ele>183.9</ele>
        <time>2022-12-08T10:02:13Z</time>
      </trkpt>
      <trkpt lat="48.06603" lon="-3.85299">
        <ele>184</ele>
        <time>2022-12-08T10:02:14Z</time>
      </trkpt>
      <trkpt lat="48.06603" lon="-3.85292">
        <ele>184.1</ele>
        <time>2022-12-08T10:02:15Z</time>
      </trkpt>
      <trkpt lat="48.06603" lon="-3.85286">
        <ele>184.1</ele>
        <time>2022-12-08T10:02:16Z</time>
      </trkpt>
      <trkpt lat="48.06603" lon="-3.85279">
        <ele>184.2</ele>
        <time>2022-12-08T10:02:17Z</time>
      </trkpt>
      <trkpt lat="48.06604" lon="-3.85273">
        <ele>184.3</ele>
        <time>2022-12-08T10:02:18Z</time>
      </trkpt>
      <trkpt lat="48.06603" lon="-3.85262">
        <ele>184.4</ele>
        <time>2022-12-08T10:02:20Z</time>
      </trkpt>
      <trkpt lat="48.06603" lon="-3.85253">
        <ele>184.5</ele>
        <time>2022-12-08T10:02:21Z</time>
      </trkpt>
      <trkpt lat="48.06603" lon="-3.85246">
        <ele>184.6</ele>
        <time>2022-12-08T10:02:22Z</time>
      </trkpt>
      <trkpt lat="48.06604" lon="-3.8524">
        <ele>184.7</ele>
        <time>2022-12-08T10:02:23Z</time>
      </trkpt>
      <trkpt lat="48.06603" lon="-3.85231">
        <ele>184.7</ele>
        <time>2022-12-08T10:02:24Z</time>
      </trkpt>
      <trkpt lat="48.06603" lon="-3.85225">
        <ele>184.8</ele>
        <time>2022-12-08T10:02:25Z</time>
      </trkpt>
      <trkpt lat="48.06604" lon="-3.85218">
        <ele>184.9</ele>
        <time>2022-12-08T10:02:26Z</time>
      </trkpt>
      <trkpt lat="48.06604" lon="-3.85211">
        <ele>184.9</ele>
        <time>2022-12-08T10:02:27Z</time>
      </trkpt>
      <trkpt lat="48.06604" lon="-3.85204">
        <ele>185</ele>
        <time>2022-12-08T10:02:28Z</time>
      </trkpt>
      <trkpt lat="48.06604" lon="-3.85197">
        <ele>185</ele>
        <time>2022-12-08T10:02:29Z</time>
      </trkpt>
      <trkpt lat="48.06604" lon="-3.85189">
        <ele>185.1</ele>
        <time>2022-12-08T10:02:30Z</time>
      </trkpt>
      <trkpt lat="48.06604" lon="-3.85183">
        <ele>185.2</ele>
        <time>2022-12-08T10:02:31Z</time>
      </trkpt>
      <trkpt lat="48.06604" lon="-3.85176">
        <ele>185.3</ele>
        <time>2022-12-08T10:02:32Z</time>
      </trkpt>
      <trkpt lat="48.06604" lon="-3.85169">
        <ele>185.4</ele>
        <time>2022-12-08T10:02:33Z</time>
      </trkpt>
      <trkpt lat="48.06604" lon="-3.85162">
        <ele>185.5</ele>
        <time>2022-12-08T10:02:34Z</time>
      </trkpt>
      <trkpt lat="48.06605" lon="-3.85156">
        <ele>185.5</ele>
        <time>2022-12-08T10:02:35Z</time>
      </trkpt>
      <trkpt lat="48.06605" lon="-3.85149">
        <ele>185.6</ele>
        <time>2022-12-08T10:02:36Z</time>
      </trkpt>
      <trkpt lat="48.06605" lon="-3.85144">
        <ele>185.7</ele>
        <time>2022-12-08T10:02:37Z</time>
      </trkpt>
      <trkpt lat="48.06604" lon="-3.85139">
        <ele>185.7</ele>
        <time>2022-12-08T10:02:38Z</time>
      </trkpt>
      <trkpt lat="48.06604" lon="-3.85132">
        <ele>185.8</ele>
        <time>2022-12-08T10:02:39Z</time>
      </trkpt>
      <trkpt lat="48.06605" lon="-3.85124">
        <ele>185.9</ele>
        <time>2022-12-08T10:02:40Z</time>
      </trkpt>
      <trkpt lat="48.06605" lon="-3.85118">
        <ele>185.9</ele>
        <time>2022-12-08T10:02:41Z</time>
      </trkpt>
      <trkpt lat="48.06606" lon="-3.85111">
        <ele>186</ele>
        <time>2022-12-08T10:02:42Z</time>
      </trkpt>
      <trkpt lat="48.06606" lon="-3.85103">
        <ele>186.1</ele>
        <time>2022-12-08T10:02:43Z</time>
      </trkpt>
      <trkpt lat="48.06606" lon="-3.85096">
        <ele>186.2</ele>
        <time>2022-12-08T10:02:44Z</time>
      </trkpt>
      <trkpt lat="48.06605" lon="-3.8509">
        <ele>186.2</ele>
        <time>2022-12-08T10:02:45Z</time>
      </trkpt>
      <trkpt lat="48.06605" lon="-3.85082">
        <ele>186.3</ele>
        <time>2022-12-08T10:02:46Z</time>
      </trkpt>
      <trkpt lat="48.06605" lon="-3.85075">
        <ele>186.4</ele>
        <time>2022-12-08T10:02:47Z</time>
      </trkpt>
      <trkpt lat="48.06605" lon="-3.85068">
        <ele>186.4</ele>
        <time>2022-12-08T10:02:48Z</time>
      </trkpt>
      <trkpt lat="48.06606" lon="-3.85061">
        <ele>186.5</ele>
        <time>2022-12-08T10:02:49Z</time>
      </trkpt>
      <trkpt lat="48.06606" lon="-3.85054">
        <ele>186.6</ele>
        <time>2022-12-08T10:02:50Z</time>
      </trkpt>
      <trkpt lat="48.06606" lon="-3.85047">
        <ele>186.7</ele>
        <time>2022-12-08T10:02:51Z</time>
      </trkpt>
      <trkpt lat="48.06606" lon="-3.8504">
        <ele>186.7</ele>
        <time>2022-12-08T10:02:52Z</time>
      </trkpt>
      <trkpt lat="48.06606" lon="-3.85033">
        <ele>186.8</ele>
        <time>2022-12-08T10:02:53Z</time>
      </trkpt>
      <trkpt lat="48.06607" lon="-3.85026">
        <ele>186.9</ele>
        <time>2022-12-08T10:02:54Z</time>
      </trkpt>
      <trkpt lat="48.06607" lon="-3.85018">
        <ele>187</ele>
        <time>2022-12-08T10:02:55Z</time>
      </trkpt>
      <trkpt lat="48.06606" lon="-3.85011">
        <ele>187</ele>
        <time>2022-12-08T10:02:56Z</time>
      </trkpt>
      <trkpt lat="48.06606" lon="-3.85003">
        <ele>187.1</ele>
        <time>2022-12-08T10:02:57Z</time>
      </trkpt>
      <trkpt lat="48.06606" lon="-3.84995">
        <ele>187.2</ele>
        <time>2022-12-08T10:02:58Z</time>
      </trkpt>
      <trkpt lat="48.06607" lon="-3.84988">
        <ele>187.3</ele>
        <time>2022-12-08T10:02:59Z</time>
      </trkpt>
      <trkpt lat="48.06607" lon="-3.8498">
        <ele>187.4</ele>
        <time>2022-12-08T10:03:00Z</time>
      </trkpt>
      <trkpt lat="48.06607" lon="-3.84973">
        <ele>187.4</ele>
        <time>2022-12-08T10:03:01Z</time>
      </trkpt>
      <trkpt lat="48.06607" lon="-3.84965">
        <ele>187.5</ele>
        <time>2022-12-08T10:03:02Z</time>
      </trkpt>
      <trkpt lat="48.06608" lon="-3.84958">
        <ele>187.6</ele>
        <time>2022-12-08T10:03:03Z</time>
      </trkpt>
      <trkpt lat="48.06608" lon="-3.84951">
        <ele>187.6</ele>
        <time>2022-12-08T10:03:04Z</time>
      </trkpt>
      <trkpt lat="48.06609" lon="-3.84943">
        <ele>187.7</ele>
        <time>2022-12-08T10:03:05Z</time>
      </trkpt>
      <trkpt lat="48.06608" lon="-3.84936">
        <ele>187.8</ele>
        <time>2022-12-08T10:03:06Z</time>
      </trkpt>
      <trkpt lat="48.06609" lon="-3.84929">
        <ele>187.9</ele>
        <time>2022-12-08T10:03:07Z</time>
      </trkpt>
      <trkpt lat="48.06609" lon="-3.84922">
        <ele>187.9</ele>
        <time>2022-12-08T10:03:08Z</time>
      </trkpt>
      <trkpt lat="48.06608" lon="-3.84914">
        <ele>188</ele>
        <time>2022-12-08T10:03:09Z</time>
      </trkpt>
      <trkpt lat="48.06608" lon="-3.84907">
        <ele>188</ele>
        <time>2022-12-08T10:03:10Z</time>
      </trkpt>
      <trkpt lat="48.06608" lon="-3.849">
        <ele>188.1</ele>
        <time>2022-12-08T10:03:11Z</time>
      </trkpt>
      <trkpt lat="48.06608" lon="-3.84892">
        <ele>188.1</ele>
        <time>2022-12-08T10:03:12Z</time>
      </trkpt>
      <trkpt lat="48.06608" lon="-3.84885">
        <ele>188.2</ele>
        <time>2022-12-08T10:03:13Z</time>
      </trkpt>
      <trkpt lat="48.06608" lon="-3.84877">
        <ele>188.2</ele>
        <time>2022-12-08T10:03:14Z</time>
      </trkpt>
      <trkpt lat="48.06608" lon="-3.8487">
        <ele>188.2</ele>
        <time>2022-12-08T10:03:15Z</time>
      </trkpt>
      <trkpt lat="48.06608" lon="-3.84863">
        <ele>188.3</ele>
        <time>2022-12-08T10:03:16Z</time>
      </trkpt>
      <trkpt lat="48.06608" lon="-3.84855">
        <ele>188.3</ele>
        <time>2022-12-08T10:03:17Z</time>
      </trkpt>
      <trkpt lat="48.06608" lon="-3.84848">
        <ele>188.3</ele>
        <time>2022-12-08T10:03:18Z</time>
      </trkpt>
      <trkpt lat="48.06608" lon="-3.84841">
        <ele>188.4</ele>
        <time>2022-12-08T10:03:19Z</time>
      </trkpt>
      <trkpt lat="48.06608" lon="-3.84833">
        <ele>188.4</ele>
        <time>2022-12-08T10:03:20Z</time>
      </trkpt>
      <trkpt lat="48.06608" lon="-3.84826">
        <ele>188.4</ele>
        <time>2022-12-08T10:03:21Z</time>
      </trkpt>
      <trkpt lat="48.06608" lon="-3.84819">
        <ele>188.5</ele>
        <time>2022-12-08T10:03:22Z</time>
      </trkpt>
      <trkpt lat="48.06608" lon="-3.84811">
        <ele>188.5</ele>
        <time>2022-12-08T10:03:23Z</time>
      </trkpt>
      <trkpt lat="48.06608" lon="-3.84804">
        <ele>188.5</ele>
        <time>2022-12-08T10:03:24Z</time>
      </trkpt>
      <trkpt lat="48.06608" lon="-3.84797">
        <ele>188.5</ele>
        <time>2022-12-08T10:03:25Z</time>
      </trkpt>
      <trkpt lat="48.06608" lon="-3.8479">
        <ele>188.4</ele>
        <time>2022-12-08T10:03:26Z</time>
      </trkpt>
      <trkpt lat="48.06608" lon="-3.84782">
        <ele>188.4</ele>
        <time>2022-12-08T10:03:27Z</time>
      </trkpt>
      <trkpt lat="48.06608" lon="-3.84775">
        <ele>188.4</ele>
        <time>2022-12-08T10:03:28Z</time>
      </trkpt>
      <trkpt lat="48.06608" lon="-3.84768">
        <ele>188.4</ele>
        <time>2022-12-08T10:03:29Z</time>
      </trkpt>
      <trkpt lat="48.06608" lon="-3.8476">
        <ele>188.4</ele>
        <time>2022-12-08T10:03:30Z</time>
      </trkpt>
      <trkpt lat="48.06608" lon="-3.84753">
        <ele>188.4</ele>
        <time>2022-12-08T10:03:31Z</time>
      </trkpt>
      <trkpt lat="48.06608" lon="-3.84745">
        <ele>188.4</ele>
        <time>2022-12-08T10:03:32Z</time>
      </trkpt>
      <trkpt lat="48.06608" lon="-3.84738">
        <ele>188.4</ele>
        <time>2022-12-08T10:03:33Z</time>
      </trkpt>
      <trkpt lat="48.06608" lon="-3.8473">
        <ele>188.4</ele>
        <time>2022-12-08T10:03:34Z</time>
      </trkpt>
      <trkpt lat="48.06608" lon="-3.84723">
        <ele>188.3</ele>
        <time>2022-12-08T10:03:35Z</time>
      </trkpt>
      <trkpt lat="48.06608" lon="-3.84716">
        <ele>188.3</ele>
        <time>2022-12-08T10:03:36Z</time>
      </trkpt>
      <trkpt lat="48.06608" lon="-3.84708">
        <ele>188.3</ele>
        <time>2022-12-08T10:03:37Z</time>
      </trkpt>
      <trkpt lat="48.06607" lon="-3.847">
        <ele>188.3</ele>
        <time>2022-12-08T10:03:38Z</time>
      </trkpt>
      <trkpt lat="48.06607" lon="-3.84693">
        <ele>188.3</ele>
        <time>2022-12-08T10:03:39Z</time>
      </trkpt>
      <trkpt lat="48.06607" lon="-3.84685">
        <ele>188.3</ele>
        <time>2022-12-08T10:03:40Z</time>
      </trkpt>
      <trkpt lat="48.06608" lon="-3.84678">
        <ele>188.3</ele>
        <time>2022-12-08T10:03:41Z</time>
      </trkpt>
      <trkpt lat="48.06608" lon="-3.8467">
        <ele>188.3</ele>
        <time>2022-12-08T10:03:42Z</time>
      </trkpt>
      <trkpt lat="48.06608" lon="-3.84663">
        <ele>188.3</ele>
        <time>2022-12-08T10:03:43Z</time>
      </trkpt>
      <trkpt lat="48.06608" lon="-3.84655">
        <ele>188.3</ele>
        <time>2022-12-08T10:03:44Z</time>
      </trkpt>
      <trkpt lat="48.06607" lon="-3.84648">
        <ele>188.3</ele>
        <time>2022-12-08T10:03:45Z</time>
      </trkpt>
      <trkpt lat="48.06607" lon="-3.8464">
        <ele>188.3</ele>
        <time>2022-12-08T10:03:46Z</time>
      </trkpt>
      <trkpt lat="48.06607" lon="-3.84632">
        <ele>188.4</ele>
        <time>2022-12-08T10:03:47Z</time>
      </trkpt>
      <trkpt lat="48.06607" lon="-3.84624">
        <ele>188.4</ele>
        <time>2022-12-08T10:03:48Z</time>
      </trkpt>
      <trkpt lat="48.06607" lon="-3.84617">
        <ele>188.4</ele>
        <time>2022-12-08T10:03:49Z</time>
      </trkpt>
      <trkpt lat="48.06607" lon="-3.84609">
        <ele>188.4</ele>
        <time>2022-12-08T10:03:50Z</time>
      </trkpt>
      <trkpt lat="48.06607" lon="-3.84602">
        <ele>188.4</ele>
        <time>2022-12-08T10:03:51Z</time>
      </trkpt>
      <trkpt lat="48.06606" lon="-3.84594">
        <ele>188.5</ele>
        <time>2022-12-08T10:03:52Z</time>
      </trkpt>
      <trkpt lat="48.06606" lon="-3.84587">
        <ele>188.5</ele>
        <time>2022-12-08T10:03:53Z</time>
      </trkpt>
      <trkpt lat="48.06607" lon="-3.8458">
        <ele>188.5</ele>
        <time>2022-12-08T10:03:54Z</time>
      </trkpt>
      <trkpt lat="48.06606" lon="-3.84573">
        <ele>188.6</ele>
        <time>2022-12-08T10:03:55Z</time>
      </trkpt>
      <trkpt lat="48.06607" lon="-3.84566">
        <ele>188.6</ele>
        <time>2022-12-08T10:03:56Z</time>
      </trkpt>
      <trkpt lat="48.06606" lon="-3.84558">
        <ele>188.7</ele>
        <time>2022-12-08T10:03:57Z</time>
      </trkpt>
      <trkpt lat="48.06607" lon="-3.84551">
        <ele>188.7</ele>
        <time>2022-12-08T10:03:58Z</time>
      </trkpt>
      <trkpt lat="48.06607" lon="-3.84543">
        <ele>188.7</ele>
        <time>2022-12-08T10:03:59Z</time>
      </trkpt>
      <trkpt lat="48.06607" lon="-3.84536">
        <ele>188.8</ele>
        <time>2022-12-08T10:04:00Z</time>
      </trkpt>
      <trkpt lat="48.06607" lon="-3.84529">
        <ele>188.8</ele>
        <time>2022-12-08T10:04:01Z</time>
      </trkpt>
      <trkpt lat="48.06607" lon="-3.84522">
        <ele>188.9</ele>
        <time>2022-12-08T10:04:02Z</time>
      </trkpt>
      <trkpt lat="48.06607" lon="-3.84514">
        <ele>188.9</ele>
        <time>2022-12-08T10:04:03Z</time>
      </trkpt>
      <trkpt lat="48.06608" lon="-3.84507">
        <ele>188.9</ele>
        <time>2022-12-08T10:04:04Z</time>
      </trkpt>
      <trkpt lat="48.06608" lon="-3.84499">
        <ele>189</ele>
        <time>2022-12-08T10:04:05Z</time>
      </trkpt>
      <trkpt lat="48.06608" lon="-3.84492">
        <ele>189</ele>
        <time>2022-12-08T10:04:06Z</time>
      </trkpt>
      <trkpt lat="48.06609" lon="-3.84485">
        <ele>189</ele>
        <time>2022-12-08T10:04:07Z</time>
      </trkpt>
      <trkpt lat="48.06609" lon="-3.84477">
        <ele>189.1</ele>
        <time>2022-12-08T10:04:08Z</time>
      </trkpt>
      <trkpt lat="48.06609" lon="-3.8447">
        <ele>189.1</ele>
        <time>2022-12-08T10:04:09Z</time>
      </trkpt>
      <trkpt lat="48.06609" lon="-3.84462">
        <ele>189.2</ele>
        <time>2022-12-08T10:04:10Z</time>
      </trkpt>
      <trkpt lat="48.06609" lon="-3.84455">
        <ele>189.3</ele>
        <time>2022-12-08T10:04:11Z</time>
      </trkpt>
      <trkpt lat="48.06609" lon="-3.84448">
        <ele>189.3</ele>
        <time>2022-12-08T10:04:12Z</time>
      </trkpt>
      <trkpt lat="48.06609" lon="-3.84441">
        <ele>189.4</ele>
        <time>2022-12-08T10:04:13Z</time>
      </trkpt>
      <trkpt lat="48.06609" lon="-3.84434">
        <ele>189.5</ele>
        <time>2022-12-08T10:04:14Z</time>
      </trkpt>
      <trkpt lat="48.06609" lon="-3.84427">
        <ele>189.6</ele>
        <time>2022-12-08T10:04:15Z</time>
      </trkpt>
      <trkpt lat="48.06609" lon="-3.8442">
        <ele>189.6</ele>
        <time>2022-12-08T10:04:16Z</time>
      </trkpt>
      <trkpt lat="48.06609" lon="-3.84413">
        <ele>189.7</ele>
        <time>2022-12-08T10:04:17Z</time>
      </trkpt>
      <trkpt lat="48.06609" lon="-3.84406">
        <ele>189.7</ele>
        <time>2022-12-08T10:04:18Z</time>
      </trkpt>
      <trkpt lat="48.06609" lon="-3.84399">
        <ele>189.8</ele>
        <time>2022-12-08T10:04:19Z</time>
      </trkpt>
      <trkpt lat="48.06609" lon="-3.84391">
        <ele>189.9</ele>
        <time>2022-12-08T10:04:20Z</time>
      </trkpt>
      <trkpt lat="48.06609" lon="-3.84384">
        <ele>189.9</ele>
        <time>2022-12-08T10:04:21Z</time>
      </trkpt>
      <trkpt lat="48.06609" lon="-3.84377">
        <ele>190</ele>
        <time>2022-12-08T10:04:22Z</time>
      </trkpt>
      <trkpt lat="48.06608" lon="-3.84369">
        <ele>190.1</ele>
        <time>2022-12-08T10:04:23Z</time>
      </trkpt>
      <trkpt lat="48.06608" lon="-3.84362">
        <ele>190.2</ele>
        <time>2022-12-08T10:04:24Z</time>
      </trkpt>
      <trkpt lat="48.06608" lon="-3.84355">
        <ele>190.3</ele>
        <time>2022-12-08T10:04:25Z</time>
      </trkpt>
      <trkpt lat="48.06608" lon="-3.84349">
        <ele>190.4</ele>
        <time>2022-12-08T10:04:26Z</time>
      </trkpt>
      <trkpt lat="48.06608" lon="-3.84342">
        <ele>190.6</ele>
        <time>2022-12-08T10:04:27Z</time>
      </trkpt>
      <trkpt lat="48.06608" lon="-3.84335">
        <ele>190.7</ele>
        <time>2022-12-08T10:04:28Z</time>
      </trkpt>
      <trkpt lat="48.06607" lon="-3.84329">
        <ele>190.8</ele>
        <time>2022-12-08T10:04:29Z</time>
      </trkpt>
      <trkpt lat="48.06607" lon="-3.84322">
        <ele>191</ele>
        <time>2022-12-08T10:04:30Z</time>
      </trkpt>
      <trkpt lat="48.06606" lon="-3.84316">
        <ele>191.1</ele>
        <time>2022-12-08T10:04:31Z</time>
      </trkpt>
      <trkpt lat="48.06607" lon="-3.8431">
        <ele>191.2</ele>
        <time>2022-12-08T10:04:32Z</time>
      </trkpt>
      <trkpt lat="48.06608" lon="-3.84304">
        <ele>191.4</ele>
        <time>2022-12-08T10:04:33Z</time>
      </trkpt>
      <trkpt lat="48.06611" lon="-3.843">
        <ele>191.1</ele>
        <time>2022-12-08T10:04:34Z</time>
      </trkpt>
      <trkpt lat="48.06616" lon="-3.84299">
        <ele>190.7</ele>
        <time>2022-12-08T10:04:35Z</time>
      </trkpt>
      <trkpt lat="48.06623" lon="-3.84301">
        <ele>190.1</ele>
        <time>2022-12-08T10:04:36Z</time>
      </trkpt>
      <trkpt lat="48.06629" lon="-3.84304">
        <ele>189.4</ele>
        <time>2022-12-08T10:04:37Z</time>
      </trkpt>
      <trkpt lat="48.06636" lon="-3.84308">
        <ele>188.6</ele>
        <time>2022-12-08T10:04:38Z</time>
      </trkpt>
      <trkpt lat="48.06643" lon="-3.84312">
        <ele>187.8</ele>
        <time>2022-12-08T10:04:39Z</time>
      </trkpt>
      <trkpt lat="48.0665" lon="-3.84316">
        <ele>186.8</ele>
        <time>2022-12-08T10:04:40Z</time>
      </trkpt>
      <trkpt lat="48.06658" lon="-3.84321">
        <ele>185.9</ele>
        <time>2022-12-08T10:04:41Z</time>
      </trkpt>
      <trkpt lat="48.06667" lon="-3.84328">
        <ele>185</ele>
        <time>2022-12-08T10:04:42Z</time>
      </trkpt>
      <trkpt lat="48.06675" lon="-3.84334">
        <ele>184</ele>
        <time>2022-12-08T10:04:43Z</time>
      </trkpt>
      <trkpt lat="48.06685" lon="-3.84341">
        <ele>183.1</ele>
        <time>2022-12-08T10:04:44Z</time>
      </trkpt>
      <trkpt lat="48.06695" lon="-3.84347">
        <ele>182</ele>
        <time>2022-12-08T10:04:45Z</time>
      </trkpt>
      <trkpt lat="48.06705" lon="-3.84354">
        <ele>181</ele>
        <time>2022-12-08T10:04:46Z</time>
      </trkpt>
      <trkpt lat="48.06714" lon="-3.8436">
        <ele>180.3</ele>
        <time>2022-12-08T10:04:47Z</time>
      </trkpt>
      <trkpt lat="48.06724" lon="-3.84368">
        <ele>179.7</ele>
        <time>2022-12-08T10:04:48Z</time>
      </trkpt>
      <trkpt lat="48.06734" lon="-3.84375">
        <ele>179.1</ele>
        <time>2022-12-08T10:04:49Z</time>
      </trkpt>
      <trkpt lat="48.06744" lon="-3.84383">
        <ele>178.6</ele>
        <time>2022-12-08T10:04:50Z</time>
      </trkpt>
      <trkpt lat="48.06753" lon="-3.8439">
        <ele>178.3</ele>
        <time>2022-12-08T10:04:51Z</time>
      </trkpt>
      <trkpt lat="48.06762" lon="-3.84398">
        <ele>178</ele>
        <time>2022-12-08T10:04:52Z</time>
      </trkpt>
      <trkpt lat="48.06771" lon="-3.84405">
        <ele>177.8</ele>
        <time>2022-12-08T10:04:53Z</time>
      </trkpt>
      <trkpt lat="48.0678" lon="-3.84412">
        <ele>177.6</ele>
        <time>2022-12-08T10:04:54Z</time>
      </trkpt>
      <trkpt lat="48.06789" lon="-3.84418">
        <ele>177.4</ele>
        <time>2022-12-08T10:04:55Z</time>
      </trkpt>
      <trkpt lat="48.06797" lon="-3.84424">
        <ele>177.3</ele>
        <time>2022-12-08T10:04:56Z</time>
      </trkpt>
      <trkpt lat="48.06805" lon="-3.8443">
        <ele>177.3</ele>
        <time>2022-12-08T10:04:57Z</time>
      </trkpt>
      <trkpt lat="48.06814" lon="-3.84436">
        <ele>177.3</ele>
        <time>2022-12-08T10:04:58Z</time>
      </trkpt>
      <trkpt lat="48.06822" lon="-3.8444">
        <ele>177.4</ele>
        <time>2022-12-08T10:04:59Z</time>
      </trkpt>
      <trkpt lat="48.06831" lon="-3.84443">
        <ele>177.4</ele>
        <time>2022-12-08T10:05:00Z</time>
      </trkpt>
      <trkpt lat="48.06839" lon="-3.84446">
        <ele>177.4</ele>
        <time>2022-12-08T10:05:01Z</time>
      </trkpt>
      <trkpt lat="48.06847" lon="-3.8445">
        <ele>177.4</ele>
        <time>2022-12-08T10:05:02Z</time>
      </trkpt>
      <trkpt lat="48.06854" lon="-3.84454">
        <ele>177.5</ele>
        <time>2022-12-08T10:05:03Z</time>
      </trkpt>
      <trkpt lat="48.06861" lon="-3.84458">
        <ele>177.6</ele>
        <time>2022-12-08T10:05:04Z</time>
      </trkpt>
      <trkpt lat="48.06868" lon="-3.84462">
        <ele>177.6</ele>
        <time>2022-12-08T10:05:05Z</time>
      </trkpt>
      <trkpt lat="48.06874" lon="-3.84466">
        <ele>177.7</ele>
        <time>2022-12-08T10:05:06Z</time>
      </trkpt>
      <trkpt lat="48.06881" lon="-3.84469">
        <ele>177.7</ele>
        <time>2022-12-08T10:05:07Z</time>
      </trkpt>
      <trkpt lat="48.06888" lon="-3.84473">
        <ele>177.7</ele>
        <time>2022-12-08T10:05:08Z</time>
      </trkpt>
      <trkpt lat="48.06894" lon="-3.84478">
        <ele>177.6</ele>
        <time>2022-12-08T10:05:09Z</time>
      </trkpt>
      <trkpt lat="48.069" lon="-3.84482">
        <ele>177.5</ele>
        <time>2022-12-08T10:05:10Z</time>
      </trkpt>
      <trkpt lat="48.06906" lon="-3.84485">
        <ele>177.4</ele>
        <time>2022-12-08T10:05:11Z</time>
      </trkpt>
      <trkpt lat="48.06912" lon="-3.84489">
        <ele>177.2</ele>
        <time>2022-12-08T10:05:12Z</time>
      </trkpt>
      <trkpt lat="48.06919" lon="-3.84493">
        <ele>176.9</ele>
        <time>2022-12-08T10:05:13Z</time>
      </trkpt>
      <trkpt lat="48.06926" lon="-3.84496">
        <ele>176.5</ele>
        <time>2022-12-08T10:05:14Z</time>
      </trkpt>
      <trkpt lat="48.06932" lon="-3.845">
        <ele>176</ele>
        <time>2022-12-08T10:05:15Z</time>
      </trkpt>
      <trkpt lat="48.06939" lon="-3.84502">
        <ele>175.5</ele>
        <time>2022-12-08T10:05:16Z</time>
      </trkpt>
      <trkpt lat="48.06947" lon="-3.84502">
        <ele>174.9</ele>
        <time>2022-12-08T10:05:17Z</time>
      </trkpt>
      <trkpt lat="48.06954" lon="-3.84503">
        <ele>174.4</ele>
        <time>2022-12-08T10:05:18Z</time>
      </trkpt>
      <trkpt lat="48.06963" lon="-3.84505">
        <ele>173.7</ele>
        <time>2022-12-08T10:05:19Z</time>
      </trkpt>
      <trkpt lat="48.06972" lon="-3.84506">
        <ele>172.9</ele>
        <time>2022-12-08T10:05:20Z</time>
      </trkpt>
      <trkpt lat="48.06982" lon="-3.84508">
        <ele>172.1</ele>
        <time>2022-12-08T10:05:21Z</time>
      </trkpt>
      <trkpt lat="48.06991" lon="-3.8451">
        <ele>171.3</ele>
        <time>2022-12-08T10:05:22Z</time>
      </trkpt>
      <trkpt lat="48.07001" lon="-3.84514">
        <ele>170.4</ele>
        <time>2022-12-08T10:05:23Z</time>
      </trkpt>
      <trkpt lat="48.07011" lon="-3.84518">
        <ele>169.6</ele>
        <time>2022-12-08T10:05:24Z</time>
      </trkpt>
      <trkpt lat="48.07022" lon="-3.84524">
        <ele>168.7</ele>
        <time>2022-12-08T10:05:25Z</time>
      </trkpt>
      <trkpt lat="48.07032" lon="-3.84531">
        <ele>167.6</ele>
        <time>2022-12-08T10:05:26Z</time>
      </trkpt>
      <trkpt lat="48.07043" lon="-3.8454">
        <ele>166.4</ele>
        <time>2022-12-08T10:05:27Z</time>
      </trkpt>
      <trkpt lat="48.07053" lon="-3.8455">
        <ele>165.2</ele>
        <time>2022-12-08T10:05:28Z</time>
      </trkpt>
      <trkpt lat="48.07062" lon="-3.84562">
        <ele>164</ele>
        <time>2022-12-08T10:05:29Z</time>
      </trkpt>
      <trkpt lat="48.07071" lon="-3.84575">
        <ele>162.7</ele>
        <time>2022-12-08T10:05:30Z</time>
      </trkpt>
      <trkpt lat="48.07081" lon="-3.84588">
        <ele>161.3</ele>
        <time>2022-12-08T10:05:31Z</time>
      </trkpt>
      <trkpt lat="48.07091" lon="-3.84601">
        <ele>159.9</ele>
        <time>2022-12-08T10:05:32Z</time>
      </trkpt>
      <trkpt lat="48.07101" lon="-3.84615">
        <ele>158.4</ele>
        <time>2022-12-08T10:05:33Z</time>
      </trkpt>
      <trkpt lat="48.07111" lon="-3.84629">
        <ele>157</ele>
        <time>2022-12-08T10:05:34Z</time>
      </trkpt>
      <trkpt lat="48.07122" lon="-3.84642">
        <ele>155.5</ele>
        <time>2022-12-08T10:05:35Z</time>
      </trkpt>
      <trkpt lat="48.07132" lon="-3.84656">
        <ele>154.1</ele>
        <time>2022-12-08T10:05:36Z</time>
      </trkpt>
      <trkpt lat="48.07143" lon="-3.84669">
        <ele>152.6</ele>
        <time>2022-12-08T10:05:37Z</time>
      </trkpt>
      <trkpt lat="48.07154" lon="-3.84684">
        <ele>150.8</ele>
        <time>2022-12-08T10:05:38Z</time>
      </trkpt>
      <trkpt lat="48.07165" lon="-3.84698">
        <ele>149.3</ele>
        <time>2022-12-08T10:05:39Z</time>
      </trkpt>
      <trkpt lat="48.07176" lon="-3.84713">
        <ele>147.9</ele>
        <time>2022-12-08T10:05:40Z</time>
      </trkpt>
      <trkpt lat="48.07187" lon="-3.84728">
        <ele>146.5</ele>
        <time>2022-12-08T10:05:41Z</time>
      </trkpt>
      <trkpt lat="48.07198" lon="-3.84742">
        <ele>145.1</ele>
        <time>2022-12-08T10:05:42Z</time>
      </trkpt>
      <trkpt lat="48.07209" lon="-3.84757">
        <ele>143.9</ele>
        <time>2022-12-08T10:05:43Z</time>
      </trkpt>
      <trkpt lat="48.0722" lon="-3.84772">
        <ele>143.1</ele>
        <time>2022-12-08T10:05:44Z</time>
      </trkpt>
      <trkpt lat="48.0723" lon="-3.84787">
        <ele>142.9</ele>
        <time>2022-12-08T10:05:45Z</time>
      </trkpt>
      <trkpt lat="48.07238" lon="-3.84802">
        <ele>143.1</ele>
        <time>2022-12-08T10:05:46Z</time>
      </trkpt>
      <trkpt lat="48.07245" lon="-3.84817">
        <ele>143.6</ele>
        <time>2022-12-08T10:05:47Z</time>
      </trkpt>
      <trkpt lat="48.0725" lon="-3.84832">
        <ele>144.3</ele>
        <time>2022-12-08T10:05:48Z</time>
      </trkpt>
      <trkpt lat="48.07254" lon="-3.84847">
        <ele>145.1</ele>
        <time>2022-12-08T10:05:49Z</time>
      </trkpt>
      <trkpt lat="48.07257" lon="-3.84859">
        <ele>146</ele>
        <time>2022-12-08T10:05:50Z</time>
      </trkpt>
      <trkpt lat="48.0726" lon="-3.84871">
        <ele>146.7</ele>
        <time>2022-12-08T10:05:51Z</time>
      </trkpt>
      <trkpt lat="48.07264" lon="-3.84881">
        <ele>147.3</ele>
        <time>2022-12-08T10:05:52Z</time>
      </trkpt>
      <trkpt lat="48.07266" lon="-3.84889">
        <ele>148</ele>
        <time>2022-12-08T10:05:53Z</time>
      </trkpt>
      <trkpt lat="48.07269" lon="-3.84896">
        <ele>148.6</ele>
        <time>2022-12-08T10:05:54Z</time>
      </trkpt>
      <trkpt lat="48.07272" lon="-3.84901">
        <ele>149</ele>
        <time>2022-12-08T10:05:55Z</time>
      </trkpt>
      <trkpt lat="48.07274" lon="-3.84905">
        <ele>149.4</ele>
        <time>2022-12-08T10:05:56Z</time>
      </trkpt>
      <trkpt lat="48.07276" lon="-3.84909">
        <ele>149.8</ele>
        <time>2022-12-08T10:05:57Z</time>
      </trkpt>
      <trkpt lat="48.07277" lon="-3.84911">
        <ele>150</ele>
        <time>2022-12-08T10:05:58Z</time>
      </trkpt>
      <trkpt lat="48.0728" lon="-3.84915">
        <ele>150.5</ele>
        <time>2022-12-08T10:05:59Z</time>
      </trkpt>
      <trkpt lat="48.07281" lon="-3.84917">
        <ele>150.7</ele>
        <time>2022-12-08T10:06:00Z</time>
      </trkpt>
      <trkpt lat="48.07284" lon="-3.84921">
        <ele>151.2</ele>
        <time>2022-12-08T10:06:01Z</time>
      </trkpt>
      <trkpt lat="48.07286" lon="-3.84925">
        <ele>151.6</ele>
        <time>2022-12-08T10:06:02Z</time>
      </trkpt>
      <trkpt lat="48.07289" lon="-3.84928">
        <ele>152</ele>
        <time>2022-12-08T10:06:03Z</time>
      </trkpt>
      <trkpt lat="48.07289" lon="-3.84925">
        <ele>152.2</ele>
        <time>2022-12-08T10:06:04Z</time>
      </trkpt>
      <trkpt lat="48.07293" lon="-3.84932">
        <ele>153</ele>
        <time>2022-12-08T10:06:06Z</time>
      </trkpt>
      <trkpt lat="48.07297" lon="-3.84936">
        <ele>153.6</ele>
        <time>2022-12-08T10:06:07Z</time>
      </trkpt>
      <trkpt lat="48.073" lon="-3.8494">
        <ele>154.1</ele>
        <time>2022-12-08T10:06:08Z</time>
      </trkpt>
      <trkpt lat="48.07305" lon="-3.84945">
        <ele>154.8</ele>
        <time>2022-12-08T10:06:10Z</time>
      </trkpt>
      <trkpt lat="48.07307" lon="-3.84948">
        <ele>155.1</ele>
        <time>2022-12-08T10:06:11Z</time>
      </trkpt>
      <trkpt lat="48.07309" lon="-3.84951">
        <ele>155.4</ele>
        <time>2022-12-08T10:06:12Z</time>
      </trkpt>
      <trkpt lat="48.07312" lon="-3.84953">
        <ele>155.8</ele>
        <time>2022-12-08T10:06:13Z</time>
      </trkpt>
      <trkpt lat="48.07314" lon="-3.84955">
        <ele>156.1</ele>
        <time>2022-12-08T10:06:14Z</time>
      </trkpt>
      <trkpt lat="48.07318" lon="-3.84959">
        <ele>156.5</ele>
        <time>2022-12-08T10:06:15Z</time>
      </trkpt>
      <trkpt lat="48.07319" lon="-3.8496">
        <ele>156.6</ele>
        <time>2022-12-08T10:06:16Z</time>
      </trkpt>
      <trkpt lat="48.07322" lon="-3.84963">
        <ele>157</ele>
        <time>2022-12-08T10:06:17Z</time>
      </trkpt>
      <trkpt lat="48.07324" lon="-3.84963">
        <ele>157.1</ele>
        <time>2022-12-08T10:06:18Z</time>
      </trkpt>
      <trkpt lat="48.07326" lon="-3.84965">
        <ele>157.3</ele>
        <time>2022-12-08T10:06:19Z</time>
      </trkpt>
      <trkpt lat="48.07328" lon="-3.84968">
        <ele>157.6</ele>
        <time>2022-12-08T10:06:20Z</time>
      </trkpt>
      <trkpt lat="48.0733" lon="-3.8497">
        <ele>157.7</ele>
        <time>2022-12-08T10:06:21Z</time>
      </trkpt>
      <trkpt lat="48.07333" lon="-3.84974">
        <ele>158</ele>
        <time>2022-12-08T10:06:23Z</time>
      </trkpt>
      <trkpt lat="48.07335" lon="-3.84976">
        <ele>158.3</ele>
        <time>2022-12-08T10:06:24Z</time>
      </trkpt>
      <trkpt lat="48.07338" lon="-3.84979">
        <ele>158.5</ele>
        <time>2022-12-08T10:06:25Z</time>
      </trkpt>
      <trkpt lat="48.0734" lon="-3.84983">
        <ele>158.8</ele>
        <time>2022-12-08T10:06:26Z</time>
      </trkpt>
      <trkpt lat="48.07341" lon="-3.84984">
        <ele>158.9</ele>
        <time>2022-12-08T10:06:27Z</time>
      </trkpt>
      <trkpt lat="48.07343" lon="-3.84986">
        <ele>159.1</ele>
        <time>2022-12-08T10:06:28Z</time>
      </trkpt>
      <trkpt lat="48.07346" lon="-3.84992">
        <ele>159.4</ele>
        <time>2022-12-08T10:06:30Z</time>
      </trkpt>
      <trkpt lat="48.07347" lon="-3.84994">
        <ele>159.6</ele>
        <time>2022-12-08T10:06:31Z</time>
      </trkpt>
      <trkpt lat="48.07352" lon="-3.85001">
        <ele>159.9</ele>
        <time>2022-12-08T10:06:33Z</time>
      </trkpt>
      <trkpt lat="48.07355" lon="-3.85008">
        <ele>160.3</ele>
        <time>2022-12-08T10:06:35Z</time>
      </trkpt>
      <trkpt lat="48.07357" lon="-3.85013">
        <ele>160.5</ele>
        <time>2022-12-08T10:06:36Z</time>
      </trkpt>
      <trkpt lat="48.07359" lon="-3.85018">
        <ele>160.7</ele>
        <time>2022-12-08T10:06:37Z</time>
      </trkpt>
      <trkpt lat="48.07361" lon="-3.85021">
        <ele>160.9</ele>
        <time>2022-12-08T10:06:38Z</time>
      </trkpt>
      <trkpt lat="48.07365" lon="-3.85026">
        <ele>161.1</ele>
        <time>2022-12-08T10:06:40Z</time>
      </trkpt>
      <trkpt lat="48.07367" lon="-3.8503">
        <ele>161.2</ele>
        <time>2022-12-08T10:06:41Z</time>
      </trkpt>
      <trkpt lat="48.0737" lon="-3.85035">
        <ele>161.4</ele>
        <time>2022-12-08T10:06:42Z</time>
      </trkpt>
      <trkpt lat="48.07372" lon="-3.85039">
        <ele>161.5</ele>
        <time>2022-12-08T10:06:43Z</time>
      </trkpt>
      <trkpt lat="48.07375" lon="-3.85041">
        <ele>161.6</ele>
        <time>2022-12-08T10:06:44Z</time>
      </trkpt>
      <trkpt lat="48.07378" lon="-3.85044">
        <ele>161.7</ele>
        <time>2022-12-08T10:06:45Z</time>
      </trkpt>
      <trkpt lat="48.0738" lon="-3.85047">
        <ele>161.8</ele>
        <time>2022-12-08T10:06:46Z</time>
      </trkpt>
      <trkpt lat="48.07381" lon="-3.8505">
        <ele>161.8</ele>
        <time>2022-12-08T10:06:47Z</time>
      </trkpt>
      <trkpt lat="48.07386" lon="-3.85058">
        <ele>162</ele>
        <time>2022-12-08T10:06:49Z</time>
      </trkpt>
      <trkpt lat="48.07389" lon="-3.85064">
        <ele>162.1</ele>
        <time>2022-12-08T10:06:50Z</time>
      </trkpt>
      <trkpt lat="48.07391" lon="-3.85067">
        <ele>162.2</ele>
        <time>2022-12-08T10:06:51Z</time>
      </trkpt>
      <trkpt lat="48.07393" lon="-3.85071">
        <ele>162.3</ele>
        <time>2022-12-08T10:06:52Z</time>
      </trkpt>
      <trkpt lat="48.07397" lon="-3.85078">
        <ele>162.5</ele>
        <time>2022-12-08T10:06:54Z</time>
      </trkpt>
      <trkpt lat="48.07401" lon="-3.85084">
        <ele>162.6</ele>
        <time>2022-12-08T10:06:55Z</time>
      </trkpt>
      <trkpt lat="48.07403" lon="-3.85089">
        <ele>162.6</ele>
        <time>2022-12-08T10:06:56Z</time>
      </trkpt>
      <trkpt lat="48.07405" lon="-3.85093">
        <ele>162.7</ele>
        <time>2022-12-08T10:06:57Z</time>
      </trkpt>
      <trkpt lat="48.07407" lon="-3.85097">
        <ele>162.7</ele>
        <time>2022-12-08T10:06:58Z</time>
      </trkpt>
      <trkpt lat="48.0741" lon="-3.85103">
        <ele>162.7</ele>
        <time>2022-12-08T10:06:59Z</time>
      </trkpt>
      <trkpt lat="48.07413" lon="-3.85108">
        <ele>162.7</ele>
        <time>2022-12-08T10:07:00Z</time>
      </trkpt>
      <trkpt lat="48.07415" lon="-3.85111">
        <ele>162.7</ele>
        <time>2022-12-08T10:07:01Z</time>
      </trkpt>
      <trkpt lat="48.07417" lon="-3.85115">
        <ele>162.7</ele>
        <time>2022-12-08T10:07:02Z</time>
      </trkpt>
      <trkpt lat="48.07419" lon="-3.85121">
        <ele>162.7</ele>
        <time>2022-12-08T10:07:03Z</time>
      </trkpt>
      <trkpt lat="48.07422" lon="-3.85127">
        <ele>162.7</ele>
        <time>2022-12-08T10:07:04Z</time>
      </trkpt>
      <trkpt lat="48.07424" lon="-3.85131">
        <ele>162.7</ele>
        <time>2022-12-08T10:07:05Z</time>
      </trkpt>
      <trkpt lat="48.07427" lon="-3.85137">
        <ele>162.7</ele>
        <time>2022-12-08T10:07:06Z</time>
      </trkpt>
      <trkpt lat="48.07429" lon="-3.85144">
        <ele>162.6</ele>
        <time>2022-12-08T10:07:07Z</time>
      </trkpt>
      <trkpt lat="48.07431" lon="-3.85149">
        <ele>162.6</ele>
        <time>2022-12-08T10:07:08Z</time>
      </trkpt>
      <trkpt lat="48.07434" lon="-3.8516">
        <ele>162.5</ele>
        <time>2022-12-08T10:07:10Z</time>
      </trkpt>
      <trkpt lat="48.07437" lon="-3.85169">
        <ele>162.4</ele>
        <time>2022-12-08T10:07:11Z</time>
      </trkpt>
      <trkpt lat="48.07439" lon="-3.85176">
        <ele>162.4</ele>
        <time>2022-12-08T10:07:12Z</time>
      </trkpt>
      <trkpt lat="48.07442" lon="-3.85182">
        <ele>162.4</ele>
        <time>2022-12-08T10:07:13Z</time>
      </trkpt>
      <trkpt lat="48.07446" lon="-3.85186">
        <ele>162.5</ele>
        <time>2022-12-08T10:07:14Z</time>
      </trkpt>
      <trkpt lat="48.0745" lon="-3.85188">
        <ele>162.8</ele>
        <time>2022-12-08T10:07:15Z</time>
      </trkpt>
      <trkpt lat="48.07453" lon="-3.85188">
        <ele>162.9</ele>
        <time>2022-12-08T10:07:16Z</time>
      </trkpt>
      <trkpt lat="48.07457" lon="-3.85187">
        <ele>163.2</ele>
        <time>2022-12-08T10:07:17Z</time>
      </trkpt>
      <trkpt lat="48.07461" lon="-3.85188">
        <ele>163.4</ele>
        <time>2022-12-08T10:07:18Z</time>
      </trkpt>
      <trkpt lat="48.07464" lon="-3.85187">
        <ele>163.6</ele>
        <time>2022-12-08T10:07:19Z</time>
      </trkpt>
      <trkpt lat="48.07467" lon="-3.85187">
        <ele>163.8</ele>
        <time>2022-12-08T10:07:20Z</time>
      </trkpt>
      <trkpt lat="48.07468" lon="-3.85186">
        <ele>163.8</ele>
        <time>2022-12-08T10:07:21Z</time>
      </trkpt>
      <trkpt lat="48.07471" lon="-3.85187">
        <ele>164</ele>
        <time>2022-12-08T10:07:22Z</time>
      </trkpt>
      <trkpt lat="48.07475" lon="-3.85185">
        <ele>164.2</ele>
        <time>2022-12-08T10:07:24Z</time>
      </trkpt>
      <trkpt lat="48.07478" lon="-3.85184">
        <ele>164.3</ele>
        <time>2022-12-08T10:07:25Z</time>
      </trkpt>
      <trkpt lat="48.07482" lon="-3.85183">
        <ele>164.4</ele>
        <time>2022-12-08T10:07:26Z</time>
      </trkpt>
      <trkpt lat="48.07486" lon="-3.85183">
        <ele>164.5</ele>
        <time>2022-12-08T10:07:27Z</time>
      </trkpt>
      <trkpt lat="48.07489" lon="-3.85184">
        <ele>164.6</ele>
        <time>2022-12-08T10:07:28Z</time>
      </trkpt>
      <trkpt lat="48.07492" lon="-3.85184">
        <ele>164.7</ele>
        <time>2022-12-08T10:07:29Z</time>
      </trkpt>
      <trkpt lat="48.07496" lon="-3.85183">
        <ele>164.8</ele>
        <time>2022-12-08T10:07:30Z</time>
      </trkpt>
      <trkpt lat="48.07499" lon="-3.85183">
        <ele>164.9</ele>
        <time>2022-12-08T10:07:31Z</time>
      </trkpt>
      <trkpt lat="48.07502" lon="-3.85183">
        <ele>165.1</ele>
        <time>2022-12-08T10:07:33Z</time>
      </trkpt>
      <trkpt lat="48.07505" lon="-3.85183">
        <ele>165.2</ele>
        <time>2022-12-08T10:07:34Z</time>
      </trkpt>
      <trkpt lat="48.0751" lon="-3.85183">
        <ele>165.4</ele>
        <time>2022-12-08T10:07:35Z</time>
      </trkpt>
      <trkpt lat="48.07514" lon="-3.85183">
        <ele>165.6</ele>
        <time>2022-12-08T10:07:37Z</time>
      </trkpt>
      <trkpt lat="48.0752" lon="-3.85183">
        <ele>165.9</ele>
        <time>2022-12-08T10:07:38Z</time>
      </trkpt>
      <trkpt lat="48.07523" lon="-3.85183">
        <ele>166.1</ele>
        <time>2022-12-08T10:07:39Z</time>
      </trkpt>
      <trkpt lat="48.07527" lon="-3.85183">
        <ele>166.3</ele>
        <time>2022-12-08T10:07:41Z</time>
      </trkpt>
      <trkpt lat="48.0753" lon="-3.85183">
        <ele>166.5</ele>
        <time>2022-12-08T10:07:42Z</time>
      </trkpt>
      <trkpt lat="48.07533" lon="-3.85183">
        <ele>166.6</ele>
        <time>2022-12-08T10:07:43Z</time>
      </trkpt>
      <trkpt lat="48.07533" lon="-3.85183">
        <ele>166.6</ele>
        <time>2022-12-08T10:07:44Z</time>
      </trkpt>
      <trkpt lat="48.07534" lon="-3.85183">
        <ele>166.7</ele>
        <time>2022-12-08T10:07:45Z</time>
      </trkpt>
      <trkpt lat="48.07534" lon="-3.85183">
        <ele>166.7</ele>
        <time>2022-12-08T10:07:46Z</time>
      </trkpt>
      <trkpt lat="48.07535" lon="-3.85182">
        <ele>166.8</ele>
        <time>2022-12-08T10:07:47Z</time>
      </trkpt>
      <trkpt lat="48.07536" lon="-3.85182">
        <ele>166.8</ele>
        <time>2022-12-08T10:07:48Z</time>
      </trkpt>
      <trkpt lat="48.07537" lon="-3.85182">
        <ele>166.9</ele>
        <time>2022-12-08T10:07:49Z</time>
      </trkpt>
      <trkpt lat="48.07537" lon="-3.85182">
        <ele>166.9</ele>
        <time>2022-12-08T10:07:51Z</time>
      </trkpt>
      <trkpt lat="48.07538" lon="-3.85181">
        <ele>166.9</ele>
        <time>2022-12-08T10:07:52Z</time>
      </trkpt>
      <trkpt lat="48.07539" lon="-3.85181">
        <ele>167</ele>
        <time>2022-12-08T10:07:53Z</time>
      </trkpt>
      <trkpt lat="48.0754" lon="-3.85181">
        <ele>167</ele>
        <time>2022-12-08T10:08:31Z</time>
      </trkpt>
      <trkpt lat="48.07541" lon="-3.85181">
        <ele>167.1</ele>
        <time>2022-12-08T10:08:32Z</time>
      </trkpt>
      <trkpt lat="48.07541" lon="-3.8518">
        <ele>167.1</ele>
        <time>2022-12-08T10:08:33Z</time>
      </trkpt>
      <trkpt lat="48.07545" lon="-3.8518">
        <ele>167.3</ele>
        <time>2022-12-08T10:08:34Z</time>
      </trkpt>
      <trkpt lat="48.07547" lon="-3.85179">
        <ele>167.4</ele>
        <time>2022-12-08T10:08:35Z</time>
      </trkpt>
      <trkpt lat="48.0755" lon="-3.8518">
        <ele>167.4</ele>
        <time>2022-12-08T10:08:36Z</time>
      </trkpt>
      <trkpt lat="48.07554" lon="-3.85182">
        <ele>167.5</ele>
        <time>2022-12-08T10:08:37Z</time>
      </trkpt>
      <trkpt lat="48.07555" lon="-3.85182">
        <ele>167.6</ele>
        <time>2022-12-08T10:08:38Z</time>
      </trkpt>
      <trkpt lat="48.07559" lon="-3.85181">
        <ele>167.7</ele>
        <time>2022-12-08T10:08:39Z</time>
      </trkpt>
      <trkpt lat="48.0756" lon="-3.85181">
        <ele>167.7</ele>
        <time>2022-12-08T10:08:40Z</time>
      </trkpt>
      <trkpt lat="48.07564" lon="-3.85181">
        <ele>167.8</ele>
        <time>2022-12-08T10:08:41Z</time>
      </trkpt>
      <trkpt lat="48.07567" lon="-3.85182">
        <ele>167.9</ele>
        <time>2022-12-08T10:08:42Z</time>
      </trkpt>
      <trkpt lat="48.07571" lon="-3.85182">
        <ele>167.9</ele>
        <time>2022-12-08T10:08:43Z</time>
      </trkpt>
      <trkpt lat="48.07574" lon="-3.85182">
        <ele>168</ele>
        <time>2022-12-08T10:08:44Z</time>
      </trkpt>
      <trkpt lat="48.07577" lon="-3.85182">
        <ele>168.1</ele>
        <time>2022-12-08T10:08:45Z</time>
      </trkpt>
      <trkpt lat="48.07581" lon="-3.85182">
        <ele>168.1</ele>
        <time>2022-12-08T10:08:46Z</time>
      </trkpt>
      <trkpt lat="48.07584" lon="-3.85182">
        <ele>168.2</ele>
        <time>2022-12-08T10:08:47Z</time>
      </trkpt>
      <trkpt lat="48.07587" lon="-3.85182">
        <ele>168.3</ele>
        <time>2022-12-08T10:08:48Z</time>
      </trkpt>
      <trkpt lat="48.0759" lon="-3.85182">
        <ele>168.3</ele>
        <time>2022-12-08T10:08:49Z</time>
      </trkpt>
      <trkpt lat="48.07594" lon="-3.85182">
        <ele>168.4</ele>
        <time>2022-12-08T10:08:50Z</time>
      </trkpt>
      <trkpt lat="48.07598" lon="-3.85183">
        <ele>168.5</ele>
        <time>2022-12-08T10:08:51Z</time>
      </trkpt>
      <trkpt lat="48.07602" lon="-3.85183">
        <ele>168.6</ele>
        <time>2022-12-08T10:08:52Z</time>
      </trkpt>
      <trkpt lat="48.07606" lon="-3.85182">
        <ele>168.8</ele>
        <time>2022-12-08T10:08:54Z</time>
      </trkpt>
      <trkpt lat="48.07612" lon="-3.85183">
        <ele>169</ele>
        <time>2022-12-08T10:08:55Z</time>
      </trkpt>
      <trkpt lat="48.07617" lon="-3.85183">
        <ele>169.2</ele>
        <time>2022-12-08T10:08:56Z</time>
      </trkpt>
      <trkpt lat="48.0762" lon="-3.85183">
        <ele>169.4</ele>
        <time>2022-12-08T10:08:57Z</time>
      </trkpt>
      <trkpt lat="48.07624" lon="-3.85183">
        <ele>169.6</ele>
        <time>2022-12-08T10:08:58Z</time>
      </trkpt>
      <trkpt lat="48.07628" lon="-3.85183">
        <ele>169.7</ele>
        <time>2022-12-08T10:08:59Z</time>
      </trkpt>
      <trkpt lat="48.07633" lon="-3.85183">
        <ele>169.9</ele>
        <time>2022-12-08T10:09:00Z</time>
      </trkpt>
      <trkpt lat="48.07638" lon="-3.85182">
        <ele>170</ele>
        <time>2022-12-08T10:09:02Z</time>
      </trkpt>
      <trkpt lat="48.07644" lon="-3.85182">
        <ele>170</ele>
        <time>2022-12-08T10:09:03Z</time>
      </trkpt>
      <trkpt lat="48.07652" lon="-3.85183">
        <ele>170.1</ele>
        <time>2022-12-08T10:09:05Z</time>
      </trkpt>
      <trkpt lat="48.07656" lon="-3.85183">
        <ele>170.1</ele>
        <time>2022-12-08T10:09:06Z</time>
      </trkpt>
      <trkpt lat="48.0766" lon="-3.85183">
        <ele>170.1</ele>
        <time>2022-12-08T10:09:07Z</time>
      </trkpt>
      <trkpt lat="48.07664" lon="-3.85183">
        <ele>170.2</ele>
        <time>2022-12-08T10:09:08Z</time>
      </trkpt>
      <trkpt lat="48.07668" lon="-3.85183">
        <ele>170.2</ele>
        <time>2022-12-08T10:09:09Z</time>
      </trkpt>
      <trkpt lat="48.07672" lon="-3.85182">
        <ele>170.2</ele>
        <time>2022-12-08T10:09:10Z</time>
      </trkpt>
      <trkpt lat="48.07676" lon="-3.85182">
        <ele>170.3</ele>
        <time>2022-12-08T10:09:11Z</time>
      </trkpt>
      <trkpt lat="48.07682" lon="-3.85182">
        <ele>170.4</ele>
        <time>2022-12-08T10:09:13Z</time>
      </trkpt>
      <trkpt lat="48.07688" lon="-3.85181">
        <ele>170.4</ele>
        <time>2022-12-08T10:09:14Z</time>
      </trkpt>
      <trkpt lat="48.07692" lon="-3.85181">
        <ele>170.3</ele>
        <time>2022-12-08T10:09:15Z</time>
      </trkpt>
      <trkpt lat="48.07699" lon="-3.85181">
        <ele>170.2</ele>
        <time>2022-12-08T10:09:17Z</time>
      </trkpt>
      <trkpt lat="48.07703" lon="-3.85181">
        <ele>170.1</ele>
        <time>2022-12-08T10:09:18Z</time>
      </trkpt>
      <trkpt lat="48.07709" lon="-3.85182">
        <ele>170</ele>
        <time>2022-12-08T10:09:19Z</time>
      </trkpt>
      <trkpt lat="48.07714" lon="-3.85182">
        <ele>169.8</ele>
        <time>2022-12-08T10:09:20Z</time>
      </trkpt>
      <trkpt lat="48.07718" lon="-3.85183">
        <ele>169.7</ele>
        <time>2022-12-08T10:09:21Z</time>
      </trkpt>
      <trkpt lat="48.07723" lon="-3.85184">
        <ele>169.5</ele>
        <time>2022-12-08T10:09:22Z</time>
      </trkpt>
      <trkpt lat="48.07728" lon="-3.85185">
        <ele>169.3</ele>
        <time>2022-12-08T10:09:23Z</time>
      </trkpt>
      <trkpt lat="48.07732" lon="-3.85188">
        <ele>169.2</ele>
        <time>2022-12-08T10:09:24Z</time>
      </trkpt>
      <trkpt lat="48.07737" lon="-3.85189">
        <ele>169.1</ele>
        <time>2022-12-08T10:09:25Z</time>
      </trkpt>
      <trkpt lat="48.07742" lon="-3.85192">
        <ele>168.9</ele>
        <time>2022-12-08T10:09:26Z</time>
      </trkpt>
      <trkpt lat="48.07747" lon="-3.85193">
        <ele>168.8</ele>
        <time>2022-12-08T10:09:27Z</time>
      </trkpt>
      <trkpt lat="48.07752" lon="-3.85195">
        <ele>168.7</ele>
        <time>2022-12-08T10:09:28Z</time>
      </trkpt>
      <trkpt lat="48.07757" lon="-3.85196">
        <ele>168.6</ele>
        <time>2022-12-08T10:09:29Z</time>
      </trkpt>
      <trkpt lat="48.07762" lon="-3.85198">
        <ele>168.5</ele>
        <time>2022-12-08T10:09:30Z</time>
      </trkpt>
      <trkpt lat="48.07767" lon="-3.85199">
        <ele>168.4</ele>
        <time>2022-12-08T10:09:31Z</time>
      </trkpt>
      <trkpt lat="48.07772" lon="-3.852">
        <ele>168.3</ele>
        <time>2022-12-08T10:09:32Z</time>
      </trkpt>
      <trkpt lat="48.07777" lon="-3.85201">
        <ele>168.2</ele>
        <time>2022-12-08T10:09:33Z</time>
      </trkpt>
      <trkpt lat="48.07782" lon="-3.85203">
        <ele>168.1</ele>
        <time>2022-12-08T10:09:34Z</time>
      </trkpt>
      <trkpt lat="48.07787" lon="-3.85204">
        <ele>168</ele>
        <time>2022-12-08T10:09:35Z</time>
      </trkpt>
      <trkpt lat="48.07792" lon="-3.85206">
        <ele>167.9</ele>
        <time>2022-12-08T10:09:36Z</time>
      </trkpt>
      <trkpt lat="48.07797" lon="-3.85208">
        <ele>167.8</ele>
        <time>2022-12-08T10:09:37Z</time>
      </trkpt>
      <trkpt lat="48.07801" lon="-3.8521">
        <ele>167.8</ele>
        <time>2022-12-08T10:09:38Z</time>
      </trkpt>
      <trkpt lat="48.07806" lon="-3.85212">
        <ele>167.7</ele>
        <time>2022-12-08T10:09:39Z</time>
      </trkpt>
      <trkpt lat="48.07811" lon="-3.85214">
        <ele>167.6</ele>
        <time>2022-12-08T10:09:40Z</time>
      </trkpt>
      <trkpt lat="48.07816" lon="-3.85216">
        <ele>167.6</ele>
        <time>2022-12-08T10:09:41Z</time>
      </trkpt>
      <trkpt lat="48.07822" lon="-3.85217">
        <ele>167.5</ele>
        <time>2022-12-08T10:09:42Z</time>
      </trkpt>
      <trkpt lat="48.07827" lon="-3.85218">
        <ele>167.4</ele>
        <time>2022-12-08T10:09:43Z</time>
      </trkpt>
      <trkpt lat="48.07832" lon="-3.8522">
        <ele>167.3</ele>
        <time>2022-12-08T10:09:44Z</time>
      </trkpt>
      <trkpt lat="48.07837" lon="-3.85222">
        <ele>167.2</ele>
        <time>2022-12-08T10:09:45Z</time>
      </trkpt>
      <trkpt lat="48.07841" lon="-3.85223">
        <ele>167.1</ele>
        <time>2022-12-08T10:09:46Z</time>
      </trkpt>
      <trkpt lat="48.07846" lon="-3.85225">
        <ele>167</ele>
        <time>2022-12-08T10:09:47Z</time>
      </trkpt>
      <trkpt lat="48.07851" lon="-3.85227">
        <ele>166.9</ele>
        <time>2022-12-08T10:09:48Z</time>
      </trkpt>
      <trkpt lat="48.07856" lon="-3.85228">
        <ele>166.9</ele>
        <time>2022-12-08T10:09:49Z</time>
      </trkpt>
      <trkpt lat="48.07861" lon="-3.8523">
        <ele>166.8</ele>
        <time>2022-12-08T10:09:50Z</time>
      </trkpt>
      <trkpt lat="48.07865" lon="-3.85232">
        <ele>166.7</ele>
        <time>2022-12-08T10:09:51Z</time>
      </trkpt>
      <trkpt lat="48.0787" lon="-3.85234">
        <ele>166.7</ele>
        <time>2022-12-08T10:09:52Z</time>
      </trkpt>
      <trkpt lat="48.07875" lon="-3.85236">
        <ele>166.6</ele>
        <time>2022-12-08T10:09:53Z</time>
      </trkpt>
      <trkpt lat="48.07879" lon="-3.85239">
        <ele>166.5</ele>
        <time>2022-12-08T10:09:54Z</time>
      </trkpt>
      <trkpt lat="48.07884" lon="-3.85242">
        <ele>166.4</ele>
        <time>2022-12-08T10:09:55Z</time>
      </trkpt>
      <trkpt lat="48.07889" lon="-3.85244">
        <ele>166.3</ele>
        <time>2022-12-08T10:09:56Z</time>
      </trkpt>
      <trkpt lat="48.07894" lon="-3.85247">
        <ele>166.2</ele>
        <time>2022-12-08T10:09:57Z</time>
      </trkpt>
      <trkpt lat="48.07899" lon="-3.8525">
        <ele>166</ele>
        <time>2022-12-08T10:09:58Z</time>
      </trkpt>
      <trkpt lat="48.07904" lon="-3.85253">
        <ele>165.9</ele>
        <time>2022-12-08T10:09:59Z</time>
      </trkpt>
      <trkpt lat="48.07909" lon="-3.85256">
        <ele>165.8</ele>
        <time>2022-12-08T10:10:00Z</time>
      </trkpt>
      <trkpt lat="48.07914" lon="-3.85258">
        <ele>165.7</ele>
        <time>2022-12-08T10:10:01Z</time>
      </trkpt>
      <trkpt lat="48.07919" lon="-3.85261">
        <ele>165.6</ele>
        <time>2022-12-08T10:10:02Z</time>
      </trkpt>
      <trkpt lat="48.07924" lon="-3.85263">
        <ele>165.5</ele>
        <time>2022-12-08T10:10:03Z</time>
      </trkpt>
      <trkpt lat="48.07928" lon="-3.85265">
        <ele>165.4</ele>
        <time>2022-12-08T10:10:04Z</time>
      </trkpt>
      <trkpt lat="48.07933" lon="-3.85268">
        <ele>165.3</ele>
        <time>2022-12-08T10:10:05Z</time>
      </trkpt>
      <trkpt lat="48.07938" lon="-3.8527">
        <ele>165.2</ele>
        <time>2022-12-08T10:10:06Z</time>
      </trkpt>
      <trkpt lat="48.07943" lon="-3.85273">
        <ele>165</ele>
        <time>2022-12-08T10:10:07Z</time>
      </trkpt>
      <trkpt lat="48.07948" lon="-3.85275">
        <ele>164.8</ele>
        <time>2022-12-08T10:10:08Z</time>
      </trkpt>
      <trkpt lat="48.07953" lon="-3.85278">
        <ele>164.7</ele>
        <time>2022-12-08T10:10:09Z</time>
      </trkpt>
      <trkpt lat="48.07958" lon="-3.85281">
        <ele>164.5</ele>
        <time>2022-12-08T10:10:10Z</time>
      </trkpt>
      <trkpt lat="48.07962" lon="-3.85283">
        <ele>164.4</ele>
        <time>2022-12-08T10:10:11Z</time>
      </trkpt>
      <trkpt lat="48.07967" lon="-3.85286">
        <ele>164.2</ele>
        <time>2022-12-08T10:10:12Z</time>
      </trkpt>
      <trkpt lat="48.07972" lon="-3.85288">
        <ele>164.1</ele>
        <time>2022-12-08T10:10:13Z</time>
      </trkpt>
      <trkpt lat="48.07977" lon="-3.85291">
        <ele>163.8</ele>
        <time>2022-12-08T10:10:14Z</time>
      </trkpt>
      <trkpt lat="48.07982" lon="-3.85293">
        <ele>163.6</ele>
        <time>2022-12-08T10:10:15Z</time>
      </trkpt>
      <trkpt lat="48.07988" lon="-3.85295">
        <ele>163.4</ele>
        <time>2022-12-08T10:10:16Z</time>
      </trkpt>
      <trkpt lat="48.07993" lon="-3.85298">
        <ele>163</ele>
        <time>2022-12-08T10:10:17Z</time>
      </trkpt>
      <trkpt lat="48.07997" lon="-3.85301">
        <ele>162.7</ele>
        <time>2022-12-08T10:10:18Z</time>
      </trkpt>
      <trkpt lat="48.08002" lon="-3.85303">
        <ele>162.5</ele>
        <time>2022-12-08T10:10:19Z</time>
      </trkpt>
      <trkpt lat="48.08005" lon="-3.85305">
        <ele>162.2</ele>
        <time>2022-12-08T10:10:20Z</time>
      </trkpt>
      <trkpt lat="48.08009" lon="-3.8531">
        <ele>162</ele>
        <time>2022-12-08T10:10:21Z</time>
      </trkpt>
      <trkpt lat="48.0801" lon="-3.85313">
        <ele>161.8</ele>
        <time>2022-12-08T10:10:22Z</time>
      </trkpt>
      <trkpt lat="48.0801" lon="-3.85322">
        <ele>161.5</ele>
        <time>2022-12-08T10:10:23Z</time>
      </trkpt>
      <trkpt lat="48.08009" lon="-3.85329">
        <ele>161.2</ele>
        <time>2022-12-08T10:10:24Z</time>
      </trkpt>
      <trkpt lat="48.08008" lon="-3.85336">
        <ele>160.9</ele>
        <time>2022-12-08T10:10:25Z</time>
      </trkpt>
      <trkpt lat="48.08007" lon="-3.85343">
        <ele>160.6</ele>
        <time>2022-12-08T10:10:26Z</time>
      </trkpt>
      <trkpt lat="48.08006" lon="-3.8535">
        <ele>160.4</ele>
        <time>2022-12-08T10:10:27Z</time>
      </trkpt>
      <trkpt lat="48.08006" lon="-3.85358">
        <ele>160.1</ele>
        <time>2022-12-08T10:10:28Z</time>
      </trkpt>
      <trkpt lat="48.08006" lon="-3.85365">
        <ele>159.8</ele>
        <time>2022-12-08T10:10:29Z</time>
      </trkpt>
      <trkpt lat="48.08005" lon="-3.85373">
        <ele>159.5</ele>
        <time>2022-12-08T10:10:30Z</time>
      </trkpt>
      <trkpt lat="48.08005" lon="-3.85382">
        <ele>159.2</ele>
        <time>2022-12-08T10:10:31Z</time>
      </trkpt>
      <trkpt lat="48.08006" lon="-3.85389">
        <ele>158.8</ele>
        <time>2022-12-08T10:10:32Z</time>
      </trkpt>
      <trkpt lat="48.08007" lon="-3.85395">
        <ele>158.5</ele>
        <time>2022-12-08T10:10:33Z</time>
      </trkpt>
      <trkpt lat="48.08012" lon="-3.85401">
        <ele>158</ele>
        <time>2022-12-08T10:10:34Z</time>
      </trkpt>
      <trkpt lat="48.08014" lon="-3.85404">
        <ele>157.8</ele>
        <time>2022-12-08T10:10:35Z</time>
      </trkpt>
      <trkpt lat="48.08019" lon="-3.85408">
        <ele>157.2</ele>
        <time>2022-12-08T10:10:36Z</time>
      </trkpt>
      <trkpt lat="48.08025" lon="-3.85413">
        <ele>156.6</ele>
        <time>2022-12-08T10:10:37Z</time>
      </trkpt>
      <trkpt lat="48.0803" lon="-3.85417">
        <ele>155.9</ele>
        <time>2022-12-08T10:10:38Z</time>
      </trkpt>
      <trkpt lat="48.08034" lon="-3.85422">
        <ele>155.3</ele>
        <time>2022-12-08T10:10:39Z</time>
      </trkpt>
      <trkpt lat="48.08038" lon="-3.85426">
        <ele>154.6</ele>
        <time>2022-12-08T10:10:40Z</time>
      </trkpt>
      <trkpt lat="48.08043" lon="-3.85429">
        <ele>153.8</ele>
        <time>2022-12-08T10:10:41Z</time>
      </trkpt>
      <trkpt lat="48.08048" lon="-3.85432">
        <ele>152.9</ele>
        <time>2022-12-08T10:10:42Z</time>
      </trkpt>
      <trkpt lat="48.08053" lon="-3.85436">
        <ele>152</ele>
        <time>2022-12-08T10:10:43Z</time>
      </trkpt>
      <trkpt lat="48.08057" lon="-3.85439">
        <ele>151</ele>
        <time>2022-12-08T10:10:44Z</time>
      </trkpt>
      <trkpt lat="48.08061" lon="-3.85442">
        <ele>150</ele>
        <time>2022-12-08T10:10:45Z</time>
      </trkpt>
      <trkpt lat="48.08066" lon="-3.85445">
        <ele>148.9</ele>
        <time>2022-12-08T10:10:46Z</time>
      </trkpt>
      <trkpt lat="48.08071" lon="-3.85448">
        <ele>147.8</ele>
        <time>2022-12-08T10:10:47Z</time>
      </trkpt>
      <trkpt lat="48.08076" lon="-3.85451">
        <ele>146.6</ele>
        <time>2022-12-08T10:10:48Z</time>
      </trkpt>
      <trkpt lat="48.08081" lon="-3.85454">
        <ele>145.5</ele>
        <time>2022-12-08T10:10:49Z</time>
      </trkpt>
      <trkpt lat="48.08086" lon="-3.85458">
        <ele>144.4</ele>
        <time>2022-12-08T10:10:50Z</time>
      </trkpt>
      <trkpt lat="48.08092" lon="-3.85463">
        <ele>143.4</ele>
        <time>2022-12-08T10:10:51Z</time>
      </trkpt>
      <trkpt lat="48.08097" lon="-3.85468">
        <ele>142.4</ele>
        <time>2022-12-08T10:10:52Z</time>
      </trkpt>
      <trkpt lat="48.08101" lon="-3.85474">
        <ele>141.6</ele>
        <time>2022-12-08T10:10:53Z</time>
      </trkpt>
      <trkpt lat="48.08105" lon="-3.85481">
        <ele>140.7</ele>
        <time>2022-12-08T10:10:54Z</time>
      </trkpt>
      <trkpt lat="48.0811" lon="-3.85484">
        <ele>140.1</ele>
        <time>2022-12-08T10:10:55Z</time>
      </trkpt>
      <trkpt lat="48.08115" lon="-3.85485">
        <ele>139.6</ele>
        <time>2022-12-08T10:10:56Z</time>
      </trkpt>
      <trkpt lat="48.0812" lon="-3.85486">
        <ele>139</ele>
        <time>2022-12-08T10:10:57Z</time>
      </trkpt>
      <trkpt lat="48.08126" lon="-3.85485">
        <ele>138.6</ele>
        <time>2022-12-08T10:10:58Z</time>
      </trkpt>
      <trkpt lat="48.08132" lon="-3.85482">
        <ele>138.2</ele>
        <time>2022-12-08T10:10:59Z</time>
      </trkpt>
      <trkpt lat="48.08138" lon="-3.85479">
        <ele>137.8</ele>
        <time>2022-12-08T10:11:00Z</time>
      </trkpt>
      <trkpt lat="48.08144" lon="-3.85477">
        <ele>137.3</ele>
        <time>2022-12-08T10:11:01Z</time>
      </trkpt>
      <trkpt lat="48.0815" lon="-3.85477">
        <ele>136.9</ele>
        <time>2022-12-08T10:11:02Z</time>
      </trkpt>
      <trkpt lat="48.08157" lon="-3.85478">
        <ele>136.5</ele>
        <time>2022-12-08T10:11:03Z</time>
      </trkpt>
      <trkpt lat="48.08164" lon="-3.85481">
        <ele>136</ele>
        <time>2022-12-08T10:11:04Z</time>
      </trkpt>
      <trkpt lat="48.08172" lon="-3.85483">
        <ele>135.6</ele>
        <time>2022-12-08T10:11:05Z</time>
      </trkpt>
      <trkpt lat="48.08178" lon="-3.85487">
        <ele>135.3</ele>
        <time>2022-12-08T10:11:06Z</time>
      </trkpt>
      <trkpt lat="48.08183" lon="-3.8549">
        <ele>135</ele>
        <time>2022-12-08T10:11:07Z</time>
      </trkpt>
      <trkpt lat="48.08185" lon="-3.85495">
        <ele>134.8</ele>
        <time>2022-12-08T10:11:08Z</time>
      </trkpt>
      <trkpt lat="48.08185" lon="-3.855">
        <ele>134.6</ele>
        <time>2022-12-08T10:11:09Z</time>
      </trkpt>
      <trkpt lat="48.08182" lon="-3.85505">
        <ele>134.2</ele>
        <time>2022-12-08T10:11:10Z</time>
      </trkpt>
      <trkpt lat="48.0818" lon="-3.85507">
        <ele>134.1</ele>
        <time>2022-12-08T10:11:11Z</time>
      </trkpt>
      <trkpt lat="48.08177" lon="-3.8551">
        <ele>133.9</ele>
        <time>2022-12-08T10:11:12Z</time>
      </trkpt>
      <trkpt lat="48.08175" lon="-3.85512">
        <ele>133.8</ele>
        <time>2022-12-08T10:11:13Z</time>
      </trkpt>
      <trkpt lat="48.08172" lon="-3.85516">
        <ele>133.6</ele>
        <time>2022-12-08T10:11:14Z</time>
      </trkpt>
      <trkpt lat="48.0817" lon="-3.8552">
        <ele>133.4</ele>
        <time>2022-12-08T10:11:15Z</time>
      </trkpt>
      <trkpt lat="48.08163" lon="-3.85522">
        <ele>133.1</ele>
        <time>2022-12-08T10:11:16Z</time>
      </trkpt>
      <trkpt lat="48.08158" lon="-3.85521">
        <ele>132.9</ele>
        <time>2022-12-08T10:11:17Z</time>
      </trkpt>
      <trkpt lat="48.08153" lon="-3.85524">
        <ele>132.6</ele>
        <time>2022-12-08T10:11:18Z</time>
      </trkpt>
      <trkpt lat="48.08149" lon="-3.85525">
        <ele>132.4</ele>
        <time>2022-12-08T10:11:20Z</time>
      </trkpt>
      <trkpt lat="48.08148" lon="-3.85527">
        <ele>132.3</ele>
        <time>2022-12-08T10:11:21Z</time>
      </trkpt>
      <trkpt lat="48.08148" lon="-3.85528">
        <ele>132.3</ele>
        <time>2022-12-08T10:11:22Z</time>
      </trkpt>
      <trkpt lat="48.08149" lon="-3.85528">
        <ele>132.2</ele>
        <time>2022-12-08T10:11:23Z</time>
      </trkpt>
      <trkpt lat="48.08149" lon="-3.85529">
        <ele>132.2</ele>
        <time>2022-12-08T10:11:24Z</time>
      </trkpt>
      <trkpt lat="48.0815" lon="-3.85529">
        <ele>132.2</ele>
        <time>2022-12-08T10:11:25Z</time>
      </trkpt>
      <trkpt lat="48.08151" lon="-3.85529">
        <ele>132.1</ele>
        <time>2022-12-08T10:11:26Z</time>
      </trkpt>
      <trkpt lat="48.08151" lon="-3.8553">
        <ele>132.1</ele>
        <time>2022-12-08T10:11:27Z</time>
      </trkpt>
      <trkpt lat="48.08152" lon="-3.8553">
        <ele>132.1</ele>
        <time>2022-12-08T10:11:28Z</time>
      </trkpt>
      <trkpt lat="48.08154" lon="-3.85535">
        <ele>131.9</ele>
        <time>2022-12-08T10:11:29Z</time>
      </trkpt>
      <trkpt lat="48.08154" lon="-3.8554">
        <ele>131.7</ele>
        <time>2022-12-08T10:11:30Z</time>
      </trkpt>
      <trkpt lat="48.08153" lon="-3.85545">
        <ele>131.6</ele>
        <time>2022-12-08T10:11:31Z</time>
      </trkpt>
      <trkpt lat="48.08154" lon="-3.85547">
        <ele>131.5</ele>
        <time>2022-12-08T10:11:32Z</time>
      </trkpt>
      <trkpt lat="48.08154" lon="-3.8555">
        <ele>131.4</ele>
        <time>2022-12-08T10:11:33Z</time>
      </trkpt>
      <trkpt lat="48.08155" lon="-3.85554">
        <ele>131.3</ele>
        <time>2022-12-08T10:11:35Z</time>
      </trkpt>
      <trkpt lat="48.08157" lon="-3.85558">
        <ele>131.1</ele>
        <time>2022-12-08T10:11:36Z</time>
      </trkpt>
      <trkpt lat="48.08158" lon="-3.85559">
        <ele>131.1</ele>
        <time>2022-12-08T10:11:37Z</time>
      </trkpt>
      <trkpt lat="48.0816" lon="-3.85565">
        <ele>130.9</ele>
        <time>2022-12-08T10:11:39Z</time>
      </trkpt>
      <trkpt lat="48.0816" lon="-3.85567">
        <ele>130.8</ele>
        <time>2022-12-08T10:11:40Z</time>
      </trkpt>
      <trkpt lat="48.08161" lon="-3.85569">
        <ele>130.7</ele>
        <time>2022-12-08T10:11:41Z</time>
      </trkpt>
      <trkpt lat="48.08163" lon="-3.85573">
        <ele>130.5</ele>
        <time>2022-12-08T10:11:42Z</time>
      </trkpt>
      <trkpt lat="48.08164" lon="-3.85574">
        <ele>130.4</ele>
        <time>2022-12-08T10:11:43Z</time>
      </trkpt>
      <trkpt lat="48.08166" lon="-3.85578">
        <ele>130.2</ele>
        <time>2022-12-08T10:11:44Z</time>
      </trkpt>
      <trkpt lat="48.08166" lon="-3.8558">
        <ele>130.1</ele>
        <time>2022-12-08T10:11:45Z</time>
      </trkpt>
      <trkpt lat="48.08168" lon="-3.85583">
        <ele>129.9</ele>
        <time>2022-12-08T10:11:46Z</time>
      </trkpt>
      <trkpt lat="48.08169" lon="-3.85584">
        <ele>129.8</ele>
        <time>2022-12-08T10:11:47Z</time>
      </trkpt>
      <trkpt lat="48.0817" lon="-3.85586">
        <ele>129.6</ele>
        <time>2022-12-08T10:11:48Z</time>
      </trkpt>
      <trkpt lat="48.08171" lon="-3.85588">
        <ele>129.4</ele>
        <time>2022-12-08T10:11:49Z</time>
      </trkpt>
      <trkpt lat="48.08173" lon="-3.85592">
        <ele>129.2</ele>
        <time>2022-12-08T10:11:50Z</time>
      </trkpt>
      <trkpt lat="48.08173" lon="-3.85593">
        <ele>129.1</ele>
        <time>2022-12-08T10:11:51Z</time>
      </trkpt>
      <trkpt lat="48.08174" lon="-3.85596">
        <ele>128.9</ele>
        <time>2022-12-08T10:11:52Z</time>
      </trkpt>
      <trkpt lat="48.08175" lon="-3.85598">
        <ele>128.7</ele>
        <time>2022-12-08T10:11:54Z</time>
      </trkpt>
      <trkpt lat="48.08177" lon="-3.85602">
        <ele>128.4</ele>
        <time>2022-12-08T10:11:55Z</time>
      </trkpt>
      <trkpt lat="48.08178" lon="-3.85603">
        <ele>128.3</ele>
        <time>2022-12-08T10:11:56Z</time>
      </trkpt>
      <trkpt lat="48.0818" lon="-3.85606">
        <ele>128</ele>
        <time>2022-12-08T10:11:57Z</time>
      </trkpt>
      <trkpt lat="48.08181" lon="-3.85607">
        <ele>127.9</ele>
        <time>2022-12-08T10:11:58Z</time>
      </trkpt>
      <trkpt lat="48.08184" lon="-3.85612">
        <ele>127.5</ele>
        <time>2022-12-08T10:11:59Z</time>
      </trkpt>
      <trkpt lat="48.08187" lon="-3.85616">
        <ele>127.1</ele>
        <time>2022-12-08T10:12:00Z</time>
      </trkpt>
      <trkpt lat="48.08188" lon="-3.85618">
        <ele>127</ele>
        <time>2022-12-08T10:12:01Z</time>
      </trkpt>
      <trkpt lat="48.0819" lon="-3.8562">
        <ele>126.9</ele>
        <time>2022-12-08T10:12:02Z</time>
      </trkpt>
      <trkpt lat="48.08191" lon="-3.85622">
        <ele>126.7</ele>
        <time>2022-12-08T10:12:04Z</time>
      </trkpt>
      <trkpt lat="48.08192" lon="-3.85626">
        <ele>126.5</ele>
        <time>2022-12-08T10:12:05Z</time>
      </trkpt>
      <trkpt lat="48.08194" lon="-3.85628">
        <ele>126.4</ele>
        <time>2022-12-08T10:12:06Z</time>
      </trkpt>
      <trkpt lat="48.08195" lon="-3.85629">
        <ele>126.3</ele>
        <time>2022-12-08T10:12:07Z</time>
      </trkpt>
      <trkpt lat="48.08196" lon="-3.85631">
        <ele>126.2</ele>
        <time>2022-12-08T10:12:08Z</time>
      </trkpt>
      <trkpt lat="48.08196" lon="-3.85633">
        <ele>126.1</ele>
        <time>2022-12-08T10:12:09Z</time>
      </trkpt>
      <trkpt lat="48.08197" lon="-3.85634">
        <ele>126.1</ele>
        <time>2022-12-08T10:12:10Z</time>
      </trkpt>
      <trkpt lat="48.08197" lon="-3.85634">
        <ele>126.1</ele>
        <time>2022-12-08T10:12:11Z</time>
      </trkpt>
      <trkpt lat="48.08197" lon="-3.85634">
        <ele>126.1</ele>
        <time>2022-12-08T10:12:12Z</time>
      </trkpt>
      <trkpt lat="48.08198" lon="-3.85634">
        <ele>126.1</ele>
        <time>2022-12-08T10:12:13Z</time>
      </trkpt>
      <trkpt lat="48.08198" lon="-3.85634">
        <ele>126</ele>
        <time>2022-12-08T10:12:14Z</time>
      </trkpt>
      <trkpt lat="48.08198" lon="-3.85634">
        <ele>126</ele>
        <time>2022-12-08T10:12:15Z</time>
      </trkpt>
      <trkpt lat="48.08198" lon="-3.85634">
        <ele>126</ele>
        <time>2022-12-08T10:12:16Z</time>
      </trkpt>
      <trkpt lat="48.08199" lon="-3.85634">
        <ele>126</ele>
        <time>2022-12-08T10:12:17Z</time>
      </trkpt>
      <trkpt lat="48.08199" lon="-3.85633">
        <ele>125.9</ele>
        <time>2022-12-08T10:12:18Z</time>
      </trkpt>
      <trkpt lat="48.08199" lon="-3.85633">
        <ele>125.9</ele>
        <time>2022-12-08T10:12:19Z</time>
      </trkpt>
      <trkpt lat="48.08199" lon="-3.85632">
        <ele>125.9</ele>
        <time>2022-12-08T10:12:20Z</time>
      </trkpt>
      <trkpt lat="48.08199" lon="-3.85632">
        <ele>125.9</ele>
        <time>2022-12-08T10:12:22Z</time>
      </trkpt>
      <trkpt lat="48.08199" lon="-3.85632">
        <ele>125.9</ele>
        <time>2022-12-08T10:12:23Z</time>
      </trkpt>
      <trkpt lat="48.082" lon="-3.85632">
        <ele>125.9</ele>
        <time>2022-12-08T10:12:25Z</time>
      </trkpt>
      <trkpt lat="48.082" lon="-3.85632">
        <ele>125.8</ele>
        <time>2022-12-08T10:12:26Z</time>
      </trkpt>
      <trkpt lat="48.08202" lon="-3.85634">
        <ele>125.7</ele>
        <time>2022-12-08T10:12:55Z</time>
      </trkpt>
      <trkpt lat="48.08203" lon="-3.85641">
        <ele>125.3</ele>
        <time>2022-12-08T10:12:57Z</time>
      </trkpt>
      <trkpt lat="48.08204" lon="-3.85646">
        <ele>125.1</ele>
        <time>2022-12-08T10:12:58Z</time>
      </trkpt>
      <trkpt lat="48.08205" lon="-3.85647">
        <ele>125</ele>
        <time>2022-12-08T10:12:59Z</time>
      </trkpt>
      <trkpt lat="48.08205" lon="-3.8565">
        <ele>124.9</ele>
        <time>2022-12-08T10:13:00Z</time>
      </trkpt>
      <trkpt lat="48.08206" lon="-3.85652">
        <ele>124.7</ele>
        <time>2022-12-08T10:13:01Z</time>
      </trkpt>
      <trkpt lat="48.08207" lon="-3.85654">
        <ele>124.5</ele>
        <time>2022-12-08T10:13:02Z</time>
      </trkpt>
      <trkpt lat="48.08208" lon="-3.85655">
        <ele>124.5</ele>
        <time>2022-12-08T10:13:03Z</time>
      </trkpt>
      <trkpt lat="48.08209" lon="-3.85656">
        <ele>124.4</ele>
        <time>2022-12-08T10:13:04Z</time>
      </trkpt>
      <trkpt lat="48.0821" lon="-3.85659">
        <ele>124.2</ele>
        <time>2022-12-08T10:13:05Z</time>
      </trkpt>
      <trkpt lat="48.08211" lon="-3.85661">
        <ele>124.1</ele>
        <time>2022-12-08T10:13:06Z</time>
      </trkpt>
      <trkpt lat="48.08211" lon="-3.85662">
        <ele>124</ele>
        <time>2022-12-08T10:13:07Z</time>
      </trkpt>
      <trkpt lat="48.08212" lon="-3.85667">
        <ele>123.7</ele>
        <time>2022-12-08T10:13:08Z</time>
      </trkpt>
      <trkpt lat="48.08213" lon="-3.85669">
        <ele>123.6</ele>
        <time>2022-12-08T10:13:09Z</time>
      </trkpt>
      <trkpt lat="48.08213" lon="-3.85672">
        <ele>123.4</ele>
        <time>2022-12-08T10:13:10Z</time>
      </trkpt>
      <trkpt lat="48.08214" lon="-3.85673">
        <ele>123.4</ele>
        <time>2022-12-08T10:13:11Z</time>
      </trkpt>
      <trkpt lat="48.08215" lon="-3.85675">
        <ele>123.2</ele>
        <time>2022-12-08T10:13:12Z</time>
      </trkpt>
      <trkpt lat="48.08216" lon="-3.85677">
        <ele>123.1</ele>
        <time>2022-12-08T10:13:13Z</time>
      </trkpt>
      <trkpt lat="48.08217" lon="-3.85679">
        <ele>123</ele>
        <time>2022-12-08T10:13:14Z</time>
      </trkpt>
      <trkpt lat="48.08217" lon="-3.85681">
        <ele>122.9</ele>
        <time>2022-12-08T10:13:15Z</time>
      </trkpt>
      <trkpt lat="48.08218" lon="-3.85685">
        <ele>122.7</ele>
        <time>2022-12-08T10:13:17Z</time>
      </trkpt>
      <trkpt lat="48.08219" lon="-3.85687">
        <ele>122.5</ele>
        <time>2022-12-08T10:13:18Z</time>
      </trkpt>
      <trkpt lat="48.0822" lon="-3.85689">
        <ele>122.4</ele>
        <time>2022-12-08T10:13:19Z</time>
      </trkpt>
      <trkpt lat="48.08222" lon="-3.85689">
        <ele>122.3</ele>
        <time>2022-12-08T10:13:20Z</time>
      </trkpt>
      <trkpt lat="48.08223" lon="-3.8569">
        <ele>122.2</ele>
        <time>2022-12-08T10:13:21Z</time>
      </trkpt>
      <trkpt lat="48.08223" lon="-3.85691">
        <ele>122.2</ele>
        <time>2022-12-08T10:13:22Z</time>
      </trkpt>
      <trkpt lat="48.08223" lon="-3.85692">
        <ele>122.1</ele>
        <time>2022-12-08T10:13:23Z</time>
      </trkpt>
      <trkpt lat="48.08224" lon="-3.85696">
        <ele>121.9</ele>
        <time>2022-12-08T10:13:25Z</time>
      </trkpt>
      <trkpt lat="48.08224" lon="-3.857">
        <ele>121.7</ele>
        <time>2022-12-08T10:13:26Z</time>
      </trkpt>
      <trkpt lat="48.08224" lon="-3.85705">
        <ele>121.4</ele>
        <time>2022-12-08T10:13:27Z</time>
      </trkpt>
      <trkpt lat="48.08225" lon="-3.85707">
        <ele>121.3</ele>
        <time>2022-12-08T10:13:28Z</time>
      </trkpt>
      <trkpt lat="48.08225" lon="-3.85711">
        <ele>121.1</ele>
        <time>2022-12-08T10:13:29Z</time>
      </trkpt>
      <trkpt lat="48.08226" lon="-3.85712">
        <ele>121</ele>
        <time>2022-12-08T10:13:30Z</time>
      </trkpt>
      <trkpt lat="48.08227" lon="-3.85715">
        <ele>120.8</ele>
        <time>2022-12-08T10:13:31Z</time>
      </trkpt>
      <trkpt lat="48.08229" lon="-3.85717">
        <ele>120.7</ele>
        <time>2022-12-08T10:13:32Z</time>
      </trkpt>
      <trkpt lat="48.08232" lon="-3.85721">
        <ele>120.4</ele>
        <time>2022-12-08T10:13:34Z</time>
      </trkpt>
      <trkpt lat="48.08233" lon="-3.85725">
        <ele>120.1</ele>
        <time>2022-12-08T10:13:35Z</time>
      </trkpt>
      <trkpt lat="48.08234" lon="-3.8573">
        <ele>119.9</ele>
        <time>2022-12-08T10:13:36Z</time>
      </trkpt>
      <trkpt lat="48.08234" lon="-3.85732">
        <ele>119.8</ele>
        <time>2022-12-08T10:13:37Z</time>
      </trkpt>
      <trkpt lat="48.08235" lon="-3.85737">
        <ele>119.6</ele>
        <time>2022-12-08T10:13:39Z</time>
      </trkpt>
      <trkpt lat="48.08235" lon="-3.85738">
        <ele>119.5</ele>
        <time>2022-12-08T10:13:40Z</time>
      </trkpt>
      <trkpt lat="48.08237" lon="-3.85744">
        <ele>119.2</ele>
        <time>2022-12-08T10:13:41Z</time>
      </trkpt>
      <trkpt lat="48.08237" lon="-3.85747">
        <ele>119.1</ele>
        <time>2022-12-08T10:13:42Z</time>
      </trkpt>
      <trkpt lat="48.08238" lon="-3.8575">
        <ele>119</ele>
        <time>2022-12-08T10:13:43Z</time>
      </trkpt>
      <trkpt lat="48.08238" lon="-3.85751">
        <ele>118.9</ele>
        <time>2022-12-08T10:13:44Z</time>
      </trkpt>
      <trkpt lat="48.08239" lon="-3.85754">
        <ele>118.8</ele>
        <time>2022-12-08T10:13:45Z</time>
      </trkpt>
      <trkpt lat="48.0824" lon="-3.85756">
        <ele>118.7</ele>
        <time>2022-12-08T10:13:46Z</time>
      </trkpt>
      <trkpt lat="48.0824" lon="-3.85757">
        <ele>118.6</ele>
        <time>2022-12-08T10:13:47Z</time>
      </trkpt>
      <trkpt lat="48.0824" lon="-3.85763">
        <ele>118.4</ele>
        <time>2022-12-08T10:13:49Z</time>
      </trkpt>
      <trkpt lat="48.08242" lon="-3.85769">
        <ele>118.2</ele>
        <time>2022-12-08T10:13:50Z</time>
      </trkpt>
      <trkpt lat="48.08243" lon="-3.85772">
        <ele>118</ele>
        <time>2022-12-08T10:13:51Z</time>
      </trkpt>
      <trkpt lat="48.08244" lon="-3.85776">
        <ele>117.8</ele>
        <time>2022-12-08T10:13:52Z</time>
      </trkpt>
      <trkpt lat="48.08245" lon="-3.85781">
        <ele>117.6</ele>
        <time>2022-12-08T10:13:53Z</time>
      </trkpt>
      <trkpt lat="48.08245" lon="-3.85783">
        <ele>117.5</ele>
        <time>2022-12-08T10:13:54Z</time>
      </trkpt>
      <trkpt lat="48.08246" lon="-3.85787">
        <ele>117.3</ele>
        <time>2022-12-08T10:13:55Z</time>
      </trkpt>
      <trkpt lat="48.08247" lon="-3.85789">
        <ele>117.2</ele>
        <time>2022-12-08T10:13:56Z</time>
      </trkpt>
      <trkpt lat="48.08247" lon="-3.85793">
        <ele>117.1</ele>
        <time>2022-12-08T10:13:57Z</time>
      </trkpt>
      <trkpt lat="48.08247" lon="-3.85794">
        <ele>117</ele>
        <time>2022-12-08T10:13:58Z</time>
      </trkpt>
      <trkpt lat="48.08247" lon="-3.85798">
        <ele>116.8</ele>
        <time>2022-12-08T10:13:59Z</time>
      </trkpt>
      <trkpt lat="48.08247" lon="-3.85801">
        <ele>116.7</ele>
        <time>2022-12-08T10:14:01Z</time>
      </trkpt>
      <trkpt lat="48.08247" lon="-3.85803">
        <ele>116.6</ele>
        <time>2022-12-08T10:14:02Z</time>
      </trkpt>
      <trkpt lat="48.08249" lon="-3.85807">
        <ele>116.5</ele>
        <time>2022-12-08T10:14:03Z</time>
      </trkpt>
      <trkpt lat="48.0825" lon="-3.85811">
        <ele>116.3</ele>
        <time>2022-12-08T10:14:04Z</time>
      </trkpt>
      <trkpt lat="48.0825" lon="-3.85813">
        <ele>116.3</ele>
        <time>2022-12-08T10:14:05Z</time>
      </trkpt>
      <trkpt lat="48.08251" lon="-3.85819">
        <ele>116</ele>
        <time>2022-12-08T10:14:06Z</time>
      </trkpt>
      <trkpt lat="48.08251" lon="-3.85821">
        <ele>116</ele>
        <time>2022-12-08T10:14:07Z</time>
      </trkpt>
      <trkpt lat="48.08252" lon="-3.85826">
        <ele>115.8</ele>
        <time>2022-12-08T10:14:08Z</time>
      </trkpt>
      <trkpt lat="48.08251" lon="-3.85827">
        <ele>115.7</ele>
        <time>2022-12-08T10:14:09Z</time>
      </trkpt>
      <trkpt lat="48.08253" lon="-3.85832">
        <ele>115.6</ele>
        <time>2022-12-08T10:14:10Z</time>
      </trkpt>
      <trkpt lat="48.08253" lon="-3.85834">
        <ele>115.5</ele>
        <time>2022-12-08T10:14:11Z</time>
      </trkpt>
      <trkpt lat="48.08255" lon="-3.85838">
        <ele>115.3</ele>
        <time>2022-12-08T10:14:12Z</time>
      </trkpt>
      <trkpt lat="48.08256" lon="-3.85842">
        <ele>115.1</ele>
        <time>2022-12-08T10:14:13Z</time>
      </trkpt>
      <trkpt lat="48.08257" lon="-3.85844">
        <ele>115</ele>
        <time>2022-12-08T10:14:14Z</time>
      </trkpt>
      <trkpt lat="48.08258" lon="-3.85848">
        <ele>114.9</ele>
        <time>2022-12-08T10:14:15Z</time>
      </trkpt>
      <trkpt lat="48.08257" lon="-3.85851">
        <ele>114.7</ele>
        <time>2022-12-08T10:14:16Z</time>
      </trkpt>
      <trkpt lat="48.08258" lon="-3.85858">
        <ele>114.4</ele>
        <time>2022-12-08T10:14:18Z</time>
      </trkpt>
      <trkpt lat="48.08261" lon="-3.85864">
        <ele>114.1</ele>
        <time>2022-12-08T10:14:19Z</time>
      </trkpt>
      <trkpt lat="48.08262" lon="-3.85866">
        <ele>114</ele>
        <time>2022-12-08T10:14:20Z</time>
      </trkpt>
      <trkpt lat="48.08264" lon="-3.8587">
        <ele>113.9</ele>
        <time>2022-12-08T10:14:22Z</time>
      </trkpt>
      <trkpt lat="48.08267" lon="-3.85873">
        <ele>113.7</ele>
        <time>2022-12-08T10:14:23Z</time>
      </trkpt>
      <trkpt lat="48.08271" lon="-3.85875">
        <ele>113.5</ele>
        <time>2022-12-08T10:14:24Z</time>
      </trkpt>
      <trkpt lat="48.08272" lon="-3.85875">
        <ele>113.4</ele>
        <time>2022-12-08T10:14:25Z</time>
      </trkpt>
      <trkpt lat="48.08275" lon="-3.85875">
        <ele>113.3</ele>
        <time>2022-12-08T10:14:26Z</time>
      </trkpt>
      <trkpt lat="48.0828" lon="-3.85878">
        <ele>113</ele>
        <time>2022-12-08T10:14:28Z</time>
      </trkpt>
      <trkpt lat="48.08282" lon="-3.85879">
        <ele>112.9</ele>
        <time>2022-12-08T10:14:29Z</time>
      </trkpt>
      <trkpt lat="48.08284" lon="-3.8588">
        <ele>112.8</ele>
        <time>2022-12-08T10:14:30Z</time>
      </trkpt>
      <trkpt lat="48.08287" lon="-3.85881">
        <ele>112.7</ele>
        <time>2022-12-08T10:14:31Z</time>
      </trkpt>
      <trkpt lat="48.0829" lon="-3.85883">
        <ele>112.5</ele>
        <time>2022-12-08T10:14:32Z</time>
      </trkpt>
      <trkpt lat="48.08291" lon="-3.85885">
        <ele>112.4</ele>
        <time>2022-12-08T10:14:33Z</time>
      </trkpt>
      <trkpt lat="48.08292" lon="-3.85887">
        <ele>112.3</ele>
        <time>2022-12-08T10:14:34Z</time>
      </trkpt>
      <trkpt lat="48.08295" lon="-3.8589">
        <ele>112.2</ele>
        <time>2022-12-08T10:14:35Z</time>
      </trkpt>
      <trkpt lat="48.08296" lon="-3.85891">
        <ele>112.1</ele>
        <time>2022-12-08T10:14:36Z</time>
      </trkpt>
      <trkpt lat="48.08298" lon="-3.85895">
        <ele>112</ele>
        <time>2022-12-08T10:14:37Z</time>
      </trkpt>
      <trkpt lat="48.083" lon="-3.85899">
        <ele>111.8</ele>
        <time>2022-12-08T10:14:38Z</time>
      </trkpt>
      <trkpt lat="48.083" lon="-3.859">
        <ele>111.8</ele>
        <time>2022-12-08T10:14:39Z</time>
      </trkpt>
      <trkpt lat="48.08303" lon="-3.85901">
        <ele>111.6</ele>
        <time>2022-12-08T10:14:40Z</time>
      </trkpt>
      <trkpt lat="48.08303" lon="-3.85902">
        <ele>111.5</ele>
        <time>2022-12-08T10:14:41Z</time>
      </trkpt>
      <trkpt lat="48.08305" lon="-3.85905">
        <ele>111.4</ele>
        <time>2022-12-08T10:14:42Z</time>
      </trkpt>
      <trkpt lat="48.08307" lon="-3.85906">
        <ele>111.3</ele>
        <time>2022-12-08T10:14:43Z</time>
      </trkpt>
      <trkpt lat="48.08308" lon="-3.85907">
        <ele>111.2</ele>
        <time>2022-12-08T10:14:44Z</time>
      </trkpt>
      <trkpt lat="48.0831" lon="-3.85909">
        <ele>111.1</ele>
        <time>2022-12-08T10:14:45Z</time>
      </trkpt>
      <trkpt lat="48.0831" lon="-3.85911">
        <ele>111</ele>
        <time>2022-12-08T10:14:46Z</time>
      </trkpt>
      <trkpt lat="48.08311" lon="-3.85912">
        <ele>110.9</ele>
        <time>2022-12-08T10:14:47Z</time>
      </trkpt>
      <trkpt lat="48.08313" lon="-3.85915">
        <ele>110.7</ele>
        <time>2022-12-08T10:14:49Z</time>
      </trkpt>
      <trkpt lat="48.08315" lon="-3.85918">
        <ele>110.4</ele>
        <time>2022-12-08T10:14:50Z</time>
      </trkpt>
      <trkpt lat="48.08316" lon="-3.85919">
        <ele>110.3</ele>
        <time>2022-12-08T10:14:51Z</time>
      </trkpt>
      <trkpt lat="48.08318" lon="-3.85924">
        <ele>110</ele>
        <time>2022-12-08T10:14:53Z</time>
      </trkpt>
      <trkpt lat="48.08322" lon="-3.85928">
        <ele>109.6</ele>
        <time>2022-12-08T10:14:54Z</time>
      </trkpt>
      <trkpt lat="48.08323" lon="-3.85929">
        <ele>109.4</ele>
        <time>2022-12-08T10:14:55Z</time>
      </trkpt>
      <trkpt lat="48.08326" lon="-3.85934">
        <ele>108.9</ele>
        <time>2022-12-08T10:14:56Z</time>
      </trkpt>
      <trkpt lat="48.08327" lon="-3.85936">
        <ele>108.7</ele>
        <time>2022-12-08T10:14:57Z</time>
      </trkpt>
      <trkpt lat="48.08331" lon="-3.85943">
        <ele>108.1</ele>
        <time>2022-12-08T10:14:58Z</time>
      </trkpt>
      <trkpt lat="48.08335" lon="-3.85951">
        <ele>107.4</ele>
        <time>2022-12-08T10:14:59Z</time>
      </trkpt>
      <trkpt lat="48.08338" lon="-3.85957">
        <ele>106.9</ele>
        <time>2022-12-08T10:15:00Z</time>
      </trkpt>
      <trkpt lat="48.08342" lon="-3.85964">
        <ele>106.5</ele>
        <time>2022-12-08T10:15:01Z</time>
      </trkpt>
      <trkpt lat="48.08346" lon="-3.85973">
        <ele>105.9</ele>
        <time>2022-12-08T10:15:02Z</time>
      </trkpt>
      <trkpt lat="48.0835" lon="-3.8598">
        <ele>105.4</ele>
        <time>2022-12-08T10:15:03Z</time>
      </trkpt>
      <trkpt lat="48.0835" lon="-3.85981">
        <ele>105.4</ele>
        <time>2022-12-08T10:15:04Z</time>
      </trkpt>
      <trkpt lat="48.08349" lon="-3.85981">
        <ele>105.3</ele>
        <time>2022-12-08T10:15:05Z</time>
      </trkpt>
      <trkpt lat="48.08351" lon="-3.85982">
        <ele>105.1</ele>
        <time>2022-12-08T10:15:06Z</time>
      </trkpt>
      <trkpt lat="48.08353" lon="-3.85986">
        <ele>104.9</ele>
        <time>2022-12-08T10:15:08Z</time>
      </trkpt>
      <trkpt lat="48.08355" lon="-3.8599">
        <ele>104.6</ele>
        <time>2022-12-08T10:15:09Z</time>
      </trkpt>
      <trkpt lat="48.08356" lon="-3.85993">
        <ele>104.4</ele>
        <time>2022-12-08T10:15:10Z</time>
      </trkpt>
      <trkpt lat="48.08359" lon="-3.85997">
        <ele>104.1</ele>
        <time>2022-12-08T10:15:11Z</time>
      </trkpt>
      <trkpt lat="48.0836" lon="-3.86002">
        <ele>103.9</ele>
        <time>2022-12-08T10:15:12Z</time>
      </trkpt>
      <trkpt lat="48.08361" lon="-3.86004">
        <ele>103.8</ele>
        <time>2022-12-08T10:15:13Z</time>
      </trkpt>
      <trkpt lat="48.08365" lon="-3.86011">
        <ele>103.4</ele>
        <time>2022-12-08T10:15:15Z</time>
      </trkpt>
      <trkpt lat="48.08367" lon="-3.86016">
        <ele>103.2</ele>
        <time>2022-12-08T10:15:16Z</time>
      </trkpt>
      <trkpt lat="48.0837" lon="-3.86022">
        <ele>103</ele>
        <time>2022-12-08T10:15:17Z</time>
      </trkpt>
      <trkpt lat="48.08373" lon="-3.86027">
        <ele>102.9</ele>
        <time>2022-12-08T10:15:18Z</time>
      </trkpt>
      <trkpt lat="48.08375" lon="-3.8603">
        <ele>102.9</ele>
        <time>2022-12-08T10:15:19Z</time>
      </trkpt>
      <trkpt lat="48.08378" lon="-3.86034">
        <ele>102.9</ele>
        <time>2022-12-08T10:15:20Z</time>
      </trkpt>
      <trkpt lat="48.08381" lon="-3.86039">
        <ele>103</ele>
        <time>2022-12-08T10:15:21Z</time>
      </trkpt>
      <trkpt lat="48.08384" lon="-3.86043">
        <ele>103.2</ele>
        <time>2022-12-08T10:15:22Z</time>
      </trkpt>
      <trkpt lat="48.08386" lon="-3.86045">
        <ele>103.3</ele>
        <time>2022-12-08T10:15:23Z</time>
      </trkpt>
      <trkpt lat="48.08389" lon="-3.86049">
        <ele>103.6</ele>
        <time>2022-12-08T10:15:25Z</time>
      </trkpt>
      <trkpt lat="48.08392" lon="-3.8605">
        <ele>104.1</ele>
        <time>2022-12-08T10:15:26Z</time>
      </trkpt>
      <trkpt lat="48.08398" lon="-3.8605">
        <ele>104</ele>
        <time>2022-12-08T10:15:27Z</time>
      </trkpt>
      <trkpt lat="48.08403" lon="-3.86047">
        <ele>103.9</ele>
        <time>2022-12-08T10:15:28Z</time>
      </trkpt>
      <trkpt lat="48.08408" lon="-3.86044">
        <ele>103.8</ele>
        <time>2022-12-08T10:15:30Z</time>
      </trkpt>
      <trkpt lat="48.08415" lon="-3.8604">
        <ele>103.6</ele>
        <time>2022-12-08T10:15:31Z</time>
      </trkpt>
      <trkpt lat="48.08421" lon="-3.86038">
        <ele>103.5</ele>
        <time>2022-12-08T10:15:32Z</time>
      </trkpt>
      <trkpt lat="48.08426" lon="-3.86036">
        <ele>103.4</ele>
        <time>2022-12-08T10:15:33Z</time>
      </trkpt>
      <trkpt lat="48.08431" lon="-3.86034">
        <ele>103.4</ele>
        <time>2022-12-08T10:15:34Z</time>
      </trkpt>
      <trkpt lat="48.08436" lon="-3.86031">
        <ele>103.4</ele>
        <time>2022-12-08T10:15:35Z</time>
      </trkpt>
      <trkpt lat="48.08441" lon="-3.86029">
        <ele>103.4</ele>
        <time>2022-12-08T10:15:36Z</time>
      </trkpt>
      <trkpt lat="48.08445" lon="-3.86027">
        <ele>103.4</ele>
        <time>2022-12-08T10:15:37Z</time>
      </trkpt>
      <trkpt lat="48.08449" lon="-3.86025">
        <ele>103.3</ele>
        <time>2022-12-08T10:15:38Z</time>
      </trkpt>
      <trkpt lat="48.08454" lon="-3.86022">
        <ele>103.3</ele>
        <time>2022-12-08T10:15:39Z</time>
      </trkpt>
      <trkpt lat="48.08458" lon="-3.8602">
        <ele>103.2</ele>
        <time>2022-12-08T10:15:40Z</time>
      </trkpt>
      <trkpt lat="48.08463" lon="-3.86017">
        <ele>103.2</ele>
        <time>2022-12-08T10:15:41Z</time>
      </trkpt>
      <trkpt lat="48.08467" lon="-3.86014">
        <ele>103.2</ele>
        <time>2022-12-08T10:15:42Z</time>
      </trkpt>
      <trkpt lat="48.08472" lon="-3.8601">
        <ele>103.1</ele>
        <time>2022-12-08T10:15:43Z</time>
      </trkpt>
      <trkpt lat="48.08477" lon="-3.86007">
        <ele>103.1</ele>
        <time>2022-12-08T10:15:44Z</time>
      </trkpt>
      <trkpt lat="48.08481" lon="-3.86003">
        <ele>103</ele>
        <time>2022-12-08T10:15:45Z</time>
      </trkpt>
      <trkpt lat="48.08486" lon="-3.85998">
        <ele>103</ele>
        <time>2022-12-08T10:15:46Z</time>
      </trkpt>
      <trkpt lat="48.0849" lon="-3.85994">
        <ele>102.9</ele>
        <time>2022-12-08T10:15:47Z</time>
      </trkpt>
      <trkpt lat="48.08495" lon="-3.85989">
        <ele>102.9</ele>
        <time>2022-12-08T10:15:48Z</time>
      </trkpt>
      <trkpt lat="48.08499" lon="-3.85984">
        <ele>103</ele>
        <time>2022-12-08T10:15:49Z</time>
      </trkpt>
      <trkpt lat="48.08503" lon="-3.8598">
        <ele>103</ele>
        <time>2022-12-08T10:15:50Z</time>
      </trkpt>
      <trkpt lat="48.08507" lon="-3.85975">
        <ele>103.1</ele>
        <time>2022-12-08T10:15:51Z</time>
      </trkpt>
      <trkpt lat="48.08511" lon="-3.85971">
        <ele>103.1</ele>
        <time>2022-12-08T10:15:52Z</time>
      </trkpt>
      <trkpt lat="48.08515" lon="-3.85967">
        <ele>103.2</ele>
        <time>2022-12-08T10:15:53Z</time>
      </trkpt>
      <trkpt lat="48.08519" lon="-3.85963">
        <ele>103.2</ele>
        <time>2022-12-08T10:15:54Z</time>
      </trkpt>
      <trkpt lat="48.08523" lon="-3.85959">
        <ele>103.3</ele>
        <time>2022-12-08T10:15:55Z</time>
      </trkpt>
      <trkpt lat="48.08527" lon="-3.85955">
        <ele>103.3</ele>
        <time>2022-12-08T10:15:56Z</time>
      </trkpt>
      <trkpt lat="48.08531" lon="-3.85952">
        <ele>103.4</ele>
        <time>2022-12-08T10:15:57Z</time>
      </trkpt>
      <trkpt lat="48.08534" lon="-3.85948">
        <ele>103.4</ele>
        <time>2022-12-08T10:15:58Z</time>
      </trkpt>
      <trkpt lat="48.08538" lon="-3.85944">
        <ele>103.4</ele>
        <time>2022-12-08T10:15:59Z</time>
      </trkpt>
      <trkpt lat="48.08543" lon="-3.85941">
        <ele>103.4</ele>
        <time>2022-12-08T10:16:00Z</time>
      </trkpt>
      <trkpt lat="48.08547" lon="-3.85937">
        <ele>103.4</ele>
        <time>2022-12-08T10:16:01Z</time>
      </trkpt>
      <trkpt lat="48.08551" lon="-3.85934">
        <ele>103.4</ele>
        <time>2022-12-08T10:16:02Z</time>
      </trkpt>
      <trkpt lat="48.08554" lon="-3.85931">
        <ele>103.4</ele>
        <time>2022-12-08T10:16:03Z</time>
      </trkpt>
      <trkpt lat="48.08558" lon="-3.85928">
        <ele>103.4</ele>
        <time>2022-12-08T10:16:04Z</time>
      </trkpt>
      <trkpt lat="48.08562" lon="-3.85924">
        <ele>103.5</ele>
        <time>2022-12-08T10:16:05Z</time>
      </trkpt>
      <trkpt lat="48.08567" lon="-3.85921">
        <ele>103.5</ele>
        <time>2022-12-08T10:16:06Z</time>
      </trkpt>
      <trkpt lat="48.08571" lon="-3.85917">
        <ele>103.5</ele>
        <time>2022-12-08T10:16:07Z</time>
      </trkpt>
      <trkpt lat="48.08575" lon="-3.85913">
        <ele>103.6</ele>
        <time>2022-12-08T10:16:08Z</time>
      </trkpt>
      <trkpt lat="48.08579" lon="-3.8591">
        <ele>103.6</ele>
        <time>2022-12-08T10:16:09Z</time>
      </trkpt>
      <trkpt lat="48.08583" lon="-3.85906">
        <ele>103.6</ele>
        <time>2022-12-08T10:16:10Z</time>
      </trkpt>
      <trkpt lat="48.08587" lon="-3.85901">
        <ele>103.6</ele>
        <time>2022-12-08T10:16:11Z</time>
      </trkpt>
      <trkpt lat="48.08591" lon="-3.85898">
        <ele>103.6</ele>
        <time>2022-12-08T10:16:12Z</time>
      </trkpt>
      <trkpt lat="48.08595" lon="-3.85895">
        <ele>103.6</ele>
        <time>2022-12-08T10:16:13Z</time>
      </trkpt>
      <trkpt lat="48.08599" lon="-3.85892">
        <ele>103.5</ele>
        <time>2022-12-08T10:16:14Z</time>
      </trkpt>
      <trkpt lat="48.08603" lon="-3.85888">
        <ele>103.4</ele>
        <time>2022-12-08T10:16:15Z</time>
      </trkpt>
      <trkpt lat="48.08607" lon="-3.85884">
        <ele>103.3</ele>
        <time>2022-12-08T10:16:16Z</time>
      </trkpt>
      <trkpt lat="48.08611" lon="-3.8588">
        <ele>103.2</ele>
        <time>2022-12-08T10:16:17Z</time>
      </trkpt>
      <trkpt lat="48.08616" lon="-3.85877">
        <ele>103.1</ele>
        <time>2022-12-08T10:16:18Z</time>
      </trkpt>
      <trkpt lat="48.0862" lon="-3.85872">
        <ele>102.9</ele>
        <time>2022-12-08T10:16:19Z</time>
      </trkpt>
      <trkpt lat="48.08624" lon="-3.85867">
        <ele>102.8</ele>
        <time>2022-12-08T10:16:20Z</time>
      </trkpt>
      <trkpt lat="48.08628" lon="-3.85863">
        <ele>102.6</ele>
        <time>2022-12-08T10:16:21Z</time>
      </trkpt>
      <trkpt lat="48.08632" lon="-3.85857">
        <ele>102.4</ele>
        <time>2022-12-08T10:16:22Z</time>
      </trkpt>
      <trkpt lat="48.08636" lon="-3.85852">
        <ele>102.3</ele>
        <time>2022-12-08T10:16:23Z</time>
      </trkpt>
      <trkpt lat="48.0864" lon="-3.85847">
        <ele>102.1</ele>
        <time>2022-12-08T10:16:24Z</time>
      </trkpt>
      <trkpt lat="48.08644" lon="-3.85841">
        <ele>102</ele>
        <time>2022-12-08T10:16:25Z</time>
      </trkpt>
      <trkpt lat="48.08648" lon="-3.85836">
        <ele>101.9</ele>
        <time>2022-12-08T10:16:26Z</time>
      </trkpt>
      <trkpt lat="48.08653" lon="-3.85831">
        <ele>101.8</ele>
        <time>2022-12-08T10:16:27Z</time>
      </trkpt>
      <trkpt lat="48.08657" lon="-3.85825">
        <ele>101.7</ele>
        <time>2022-12-08T10:16:28Z</time>
      </trkpt>
      <trkpt lat="48.0866" lon="-3.85819">
        <ele>101.6</ele>
        <time>2022-12-08T10:16:29Z</time>
      </trkpt>
      <trkpt lat="48.08664" lon="-3.85813">
        <ele>101.5</ele>
        <time>2022-12-08T10:16:30Z</time>
      </trkpt>
      <trkpt lat="48.08667" lon="-3.85807">
        <ele>101.4</ele>
        <time>2022-12-08T10:16:31Z</time>
      </trkpt>
      <trkpt lat="48.08671" lon="-3.85801">
        <ele>101.3</ele>
        <time>2022-12-08T10:16:32Z</time>
      </trkpt>
      <trkpt lat="48.08675" lon="-3.85795">
        <ele>101.3</ele>
        <time>2022-12-08T10:16:33Z</time>
      </trkpt>
      <trkpt lat="48.08678" lon="-3.85789">
        <ele>101.2</ele>
        <time>2022-12-08T10:16:34Z</time>
      </trkpt>
      <trkpt lat="48.08682" lon="-3.85783">
        <ele>101.2</ele>
        <time>2022-12-08T10:16:35Z</time>
      </trkpt>
      <trkpt lat="48.08685" lon="-3.85778">
        <ele>101.2</ele>
        <time>2022-12-08T10:16:36Z</time>
      </trkpt>
      <trkpt lat="48.08689" lon="-3.85772">
        <ele>101.2</ele>
        <time>2022-12-08T10:16:37Z</time>
      </trkpt>
      <trkpt lat="48.08693" lon="-3.85766">
        <ele>101.2</ele>
        <time>2022-12-08T10:16:38Z</time>
      </trkpt>
      <trkpt lat="48.08696" lon="-3.8576">
        <ele>101.2</ele>
        <time>2022-12-08T10:16:39Z</time>
      </trkpt>
      <trkpt lat="48.087" lon="-3.85755">
        <ele>101.2</ele>
        <time>2022-12-08T10:16:40Z</time>
      </trkpt>
      <trkpt lat="48.08703" lon="-3.85749">
        <ele>101.2</ele>
        <time>2022-12-08T10:16:41Z</time>
      </trkpt>
      <trkpt lat="48.08707" lon="-3.85744">
        <ele>101.2</ele>
        <time>2022-12-08T10:16:42Z</time>
      </trkpt>
      <trkpt lat="48.08711" lon="-3.85738">
        <ele>101.2</ele>
        <time>2022-12-08T10:16:43Z</time>
      </trkpt>
      <trkpt lat="48.08714" lon="-3.85733">
        <ele>101.2</ele>
        <time>2022-12-08T10:16:44Z</time>
      </trkpt>
      <trkpt lat="48.08718" lon="-3.85727">
        <ele>101.2</ele>
        <time>2022-12-08T10:16:45Z</time>
      </trkpt>
      <trkpt lat="48.08722" lon="-3.85722">
        <ele>101.2</ele>
        <time>2022-12-08T10:16:46Z</time>
      </trkpt>
      <trkpt lat="48.08725" lon="-3.85716">
        <ele>101.3</ele>
        <time>2022-12-08T10:16:47Z</time>
      </trkpt>
      <trkpt lat="48.08729" lon="-3.85711">
        <ele>101.3</ele>
        <time>2022-12-08T10:16:48Z</time>
      </trkpt>
      <trkpt lat="48.08733" lon="-3.85705">
        <ele>101.3</ele>
        <time>2022-12-08T10:16:49Z</time>
      </trkpt>
      <trkpt lat="48.08737" lon="-3.85699">
        <ele>101.4</ele>
        <time>2022-12-08T10:16:50Z</time>
      </trkpt>
      <trkpt lat="48.08741" lon="-3.85693">
        <ele>101.4</ele>
        <time>2022-12-08T10:16:51Z</time>
      </trkpt>
      <trkpt lat="48.08744" lon="-3.85688">
        <ele>101.5</ele>
        <time>2022-12-08T10:16:52Z</time>
      </trkpt>
      <trkpt lat="48.08748" lon="-3.85682">
        <ele>101.5</ele>
        <time>2022-12-08T10:16:53Z</time>
      </trkpt>
      <trkpt lat="48.08752" lon="-3.85677">
        <ele>101.6</ele>
        <time>2022-12-08T10:16:54Z</time>
      </trkpt>
      <trkpt lat="48.08755" lon="-3.85671">
        <ele>101.6</ele>
        <time>2022-12-08T10:16:55Z</time>
      </trkpt>
      <trkpt lat="48.08759" lon="-3.85666">
        <ele>101.7</ele>
        <time>2022-12-08T10:16:56Z</time>
      </trkpt>
      <trkpt lat="48.08762" lon="-3.8566">
        <ele>101.7</ele>
        <time>2022-12-08T10:16:57Z</time>
      </trkpt>
      <trkpt lat="48.08766" lon="-3.85654">
        <ele>101.7</ele>
        <time>2022-12-08T10:16:58Z</time>
      </trkpt>
      <trkpt lat="48.08769" lon="-3.85647">
        <ele>101.8</ele>
        <time>2022-12-08T10:16:59Z</time>
      </trkpt>
      <trkpt lat="48.08772" lon="-3.85642">
        <ele>101.9</ele>
        <time>2022-12-08T10:17:00Z</time>
      </trkpt>
      <trkpt lat="48.08775" lon="-3.85635">
        <ele>102</ele>
        <time>2022-12-08T10:17:01Z</time>
      </trkpt>
      <trkpt lat="48.08778" lon="-3.85628">
        <ele>102.1</ele>
        <time>2022-12-08T10:17:02Z</time>
      </trkpt>
      <trkpt lat="48.08781" lon="-3.85622">
        <ele>102.3</ele>
        <time>2022-12-08T10:17:03Z</time>
      </trkpt>
      <trkpt lat="48.08784" lon="-3.85616">
        <ele>102.4</ele>
        <time>2022-12-08T10:17:04Z</time>
      </trkpt>
      <trkpt lat="48.08787" lon="-3.85609">
        <ele>102.6</ele>
        <time>2022-12-08T10:17:05Z</time>
      </trkpt>
      <trkpt lat="48.0879" lon="-3.85603">
        <ele>102.7</ele>
        <time>2022-12-08T10:17:06Z</time>
      </trkpt>
      <trkpt lat="48.08793" lon="-3.85598">
        <ele>102.9</ele>
        <time>2022-12-08T10:17:07Z</time>
      </trkpt>
      <trkpt lat="48.08796" lon="-3.85592">
        <ele>103.1</ele>
        <time>2022-12-08T10:17:08Z</time>
      </trkpt>
      <trkpt lat="48.08799" lon="-3.85587">
        <ele>103.3</ele>
        <time>2022-12-08T10:17:09Z</time>
      </trkpt>
      <trkpt lat="48.08802" lon="-3.85582">
        <ele>103.5</ele>
        <time>2022-12-08T10:17:10Z</time>
      </trkpt>
      <trkpt lat="48.08804" lon="-3.85578">
        <ele>103.8</ele>
        <time>2022-12-08T10:17:11Z</time>
      </trkpt>
      <trkpt lat="48.08808" lon="-3.85573">
        <ele>104</ele>
        <time>2022-12-08T10:17:12Z</time>
      </trkpt>
      <trkpt lat="48.08811" lon="-3.85567">
        <ele>104.3</ele>
        <time>2022-12-08T10:17:13Z</time>
      </trkpt>
      <trkpt lat="48.08814" lon="-3.85562">
        <ele>104.6</ele>
        <time>2022-12-08T10:17:14Z</time>
      </trkpt>
      <trkpt lat="48.08817" lon="-3.85557">
        <ele>104.8</ele>
        <time>2022-12-08T10:17:15Z</time>
      </trkpt>
      <trkpt lat="48.0882" lon="-3.85553">
        <ele>105.1</ele>
        <time>2022-12-08T10:17:16Z</time>
      </trkpt>
      <trkpt lat="48.08823" lon="-3.85548">
        <ele>105.3</ele>
        <time>2022-12-08T10:17:17Z</time>
      </trkpt>
      <trkpt lat="48.08826" lon="-3.85543">
        <ele>105.6</ele>
        <time>2022-12-08T10:17:18Z</time>
      </trkpt>
      <trkpt lat="48.0883" lon="-3.85539">
        <ele>105.8</ele>
        <time>2022-12-08T10:17:19Z</time>
      </trkpt>
      <trkpt lat="48.08833" lon="-3.85534">
        <ele>106</ele>
        <time>2022-12-08T10:17:20Z</time>
      </trkpt>
      <trkpt lat="48.08836" lon="-3.8553">
        <ele>106.3</ele>
        <time>2022-12-08T10:17:21Z</time>
      </trkpt>
      <trkpt lat="48.08839" lon="-3.85527">
        <ele>106.5</ele>
        <time>2022-12-08T10:17:22Z</time>
      </trkpt>
      <trkpt lat="48.08842" lon="-3.85522">
        <ele>106.7</ele>
        <time>2022-12-08T10:17:23Z</time>
      </trkpt>
      <trkpt lat="48.08845" lon="-3.85518">
        <ele>107</ele>
        <time>2022-12-08T10:17:24Z</time>
      </trkpt>
      <trkpt lat="48.08848" lon="-3.85514">
        <ele>107.2</ele>
        <time>2022-12-08T10:17:25Z</time>
      </trkpt>
      <trkpt lat="48.0885" lon="-3.8551">
        <ele>107.4</ele>
        <time>2022-12-08T10:17:26Z</time>
      </trkpt>
      <trkpt lat="48.08853" lon="-3.85506">
        <ele>107.7</ele>
        <time>2022-12-08T10:17:27Z</time>
      </trkpt>
      <trkpt lat="48.08856" lon="-3.85503">
        <ele>107.9</ele>
        <time>2022-12-08T10:17:28Z</time>
      </trkpt>
      <trkpt lat="48.08859" lon="-3.85499">
        <ele>108.1</ele>
        <time>2022-12-08T10:17:29Z</time>
      </trkpt>
      <trkpt lat="48.08862" lon="-3.85495">
        <ele>108.3</ele>
        <time>2022-12-08T10:17:30Z</time>
      </trkpt>
      <trkpt lat="48.08865" lon="-3.85492">
        <ele>108.5</ele>
        <time>2022-12-08T10:17:31Z</time>
      </trkpt>
      <trkpt lat="48.08867" lon="-3.85488">
        <ele>108.7</ele>
        <time>2022-12-08T10:17:32Z</time>
      </trkpt>
      <trkpt lat="48.0887" lon="-3.85484">
        <ele>108.9</ele>
        <time>2022-12-08T10:17:33Z</time>
      </trkpt>
      <trkpt lat="48.08873" lon="-3.85481">
        <ele>109</ele>
        <time>2022-12-08T10:17:34Z</time>
      </trkpt>
      <trkpt lat="48.08876" lon="-3.85478">
        <ele>109.2</ele>
        <time>2022-12-08T10:17:35Z</time>
      </trkpt>
      <trkpt lat="48.08879" lon="-3.85475">
        <ele>109.3</ele>
        <time>2022-12-08T10:17:36Z</time>
      </trkpt>
      <trkpt lat="48.08882" lon="-3.85472">
        <ele>109.4</ele>
        <time>2022-12-08T10:17:37Z</time>
      </trkpt>
      <trkpt lat="48.08886" lon="-3.85469">
        <ele>109.5</ele>
        <time>2022-12-08T10:17:38Z</time>
      </trkpt>
      <trkpt lat="48.0889" lon="-3.85467">
        <ele>109.6</ele>
        <time>2022-12-08T10:17:39Z</time>
      </trkpt>
      <trkpt lat="48.08894" lon="-3.85465">
        <ele>109.7</ele>
        <time>2022-12-08T10:17:40Z</time>
      </trkpt>
      <trkpt lat="48.08898" lon="-3.85463">
        <ele>109.7</ele>
        <time>2022-12-08T10:17:41Z</time>
      </trkpt>
      <trkpt lat="48.08901" lon="-3.85462">
        <ele>109.7</ele>
        <time>2022-12-08T10:17:42Z</time>
      </trkpt>
      <trkpt lat="48.08906" lon="-3.85461">
        <ele>109.8</ele>
        <time>2022-12-08T10:17:43Z</time>
      </trkpt>
      <trkpt lat="48.08911" lon="-3.85459">
        <ele>109.8</ele>
        <time>2022-12-08T10:17:44Z</time>
      </trkpt>
      <trkpt lat="48.08916" lon="-3.85458">
        <ele>109.8</ele>
        <time>2022-12-08T10:17:45Z</time>
      </trkpt>
      <trkpt lat="48.08921" lon="-3.85456">
        <ele>109.8</ele>
        <time>2022-12-08T10:17:46Z</time>
      </trkpt>
      <trkpt lat="48.08925" lon="-3.85454">
        <ele>109.8</ele>
        <time>2022-12-08T10:17:47Z</time>
      </trkpt>
      <trkpt lat="48.0893" lon="-3.85453">
        <ele>109.7</ele>
        <time>2022-12-08T10:17:48Z</time>
      </trkpt>
      <trkpt lat="48.08935" lon="-3.85452">
        <ele>109.7</ele>
        <time>2022-12-08T10:17:49Z</time>
      </trkpt>
      <trkpt lat="48.08939" lon="-3.8545">
        <ele>109.6</ele>
        <time>2022-12-08T10:17:50Z</time>
      </trkpt>
      <trkpt lat="48.08944" lon="-3.85448">
        <ele>109.5</ele>
        <time>2022-12-08T10:17:51Z</time>
      </trkpt>
      <trkpt lat="48.08949" lon="-3.85446">
        <ele>109.4</ele>
        <time>2022-12-08T10:17:52Z</time>
      </trkpt>
      <trkpt lat="48.08954" lon="-3.85444">
        <ele>109.4</ele>
        <time>2022-12-08T10:17:53Z</time>
      </trkpt>
      <trkpt lat="48.08959" lon="-3.85442">
        <ele>109.3</ele>
        <time>2022-12-08T10:17:54Z</time>
      </trkpt>
      <trkpt lat="48.08965" lon="-3.8544">
        <ele>109.1</ele>
        <time>2022-12-08T10:17:55Z</time>
      </trkpt>
      <trkpt lat="48.0897" lon="-3.85439">
        <ele>109</ele>
        <time>2022-12-08T10:17:56Z</time>
      </trkpt>
      <trkpt lat="48.08975" lon="-3.85436">
        <ele>108.8</ele>
        <time>2022-12-08T10:17:57Z</time>
      </trkpt>
      <trkpt lat="48.0898" lon="-3.85434">
        <ele>108.7</ele>
        <time>2022-12-08T10:17:58Z</time>
      </trkpt>
      <trkpt lat="48.08985" lon="-3.85432">
        <ele>108.5</ele>
        <time>2022-12-08T10:17:59Z</time>
      </trkpt>
      <trkpt lat="48.08991" lon="-3.8543">
        <ele>108.3</ele>
        <time>2022-12-08T10:18:00Z</time>
      </trkpt>
      <trkpt lat="48.08997" lon="-3.85428">
        <ele>108</ele>
        <time>2022-12-08T10:18:01Z</time>
      </trkpt>
      <trkpt lat="48.09002" lon="-3.85426">
        <ele>107.8</ele>
        <time>2022-12-08T10:18:02Z</time>
      </trkpt>
      <trkpt lat="48.09008" lon="-3.85424">
        <ele>107.5</ele>
        <time>2022-12-08T10:18:03Z</time>
      </trkpt>
      <trkpt lat="48.09014" lon="-3.85421">
        <ele>107.2</ele>
        <time>2022-12-08T10:18:04Z</time>
      </trkpt>
      <trkpt lat="48.09021" lon="-3.85419">
        <ele>106.8</ele>
        <time>2022-12-08T10:18:05Z</time>
      </trkpt>
      <trkpt lat="48.09027" lon="-3.85416">
        <ele>106.4</ele>
        <time>2022-12-08T10:18:06Z</time>
      </trkpt>
      <trkpt lat="48.09034" lon="-3.85413">
        <ele>106</ele>
        <time>2022-12-08T10:18:07Z</time>
      </trkpt>
      <trkpt lat="48.09041" lon="-3.85411">
        <ele>105.4</ele>
        <time>2022-12-08T10:18:08Z</time>
      </trkpt>
      <trkpt lat="48.09048" lon="-3.85408">
        <ele>104.8</ele>
        <time>2022-12-08T10:18:09Z</time>
      </trkpt>
      <trkpt lat="48.09056" lon="-3.85405">
        <ele>104.2</ele>
        <time>2022-12-08T10:18:10Z</time>
      </trkpt>
      <trkpt lat="48.09063" lon="-3.85402">
        <ele>103.5</ele>
        <time>2022-12-08T10:18:11Z</time>
      </trkpt>
      <trkpt lat="48.09071" lon="-3.85398">
        <ele>102.8</ele>
        <time>2022-12-08T10:18:12Z</time>
      </trkpt>
      <trkpt lat="48.0908" lon="-3.85395">
        <ele>102.1</ele>
        <time>2022-12-08T10:18:13Z</time>
      </trkpt>
      <trkpt lat="48.09088" lon="-3.85391">
        <ele>101.4</ele>
        <time>2022-12-08T10:18:14Z</time>
      </trkpt>
      <trkpt lat="48.09096" lon="-3.85388">
        <ele>100.8</ele>
        <time>2022-12-08T10:18:15Z</time>
      </trkpt>
      <trkpt lat="48.09104" lon="-3.85384">
        <ele>100.2</ele>
        <time>2022-12-08T10:18:16Z</time>
      </trkpt>
      <trkpt lat="48.09113" lon="-3.8538">
        <ele>99.7</ele>
        <time>2022-12-08T10:18:17Z</time>
      </trkpt>
      <trkpt lat="48.09122" lon="-3.85377">
        <ele>99.3</ele>
        <time>2022-12-08T10:18:18Z</time>
      </trkpt>
      <trkpt lat="48.0913" lon="-3.85375">
        <ele>98.9</ele>
        <time>2022-12-08T10:18:19Z</time>
      </trkpt>
      <trkpt lat="48.09139" lon="-3.85373">
        <ele>98.6</ele>
        <time>2022-12-08T10:18:20Z</time>
      </trkpt>
      <trkpt lat="48.09148" lon="-3.85372">
        <ele>98.3</ele>
        <time>2022-12-08T10:18:21Z</time>
      </trkpt>
      <trkpt lat="48.09157" lon="-3.8537">
        <ele>98.1</ele>
        <time>2022-12-08T10:18:22Z</time>
      </trkpt>
      <trkpt lat="48.09165" lon="-3.85369">
        <ele>98</ele>
        <time>2022-12-08T10:18:23Z</time>
      </trkpt>
      <trkpt lat="48.09173" lon="-3.85368">
        <ele>97.9</ele>
        <time>2022-12-08T10:18:24Z</time>
      </trkpt>
      <trkpt lat="48.09181" lon="-3.85366">
        <ele>97.7</ele>
        <time>2022-12-08T10:18:25Z</time>
      </trkpt>
      <trkpt lat="48.09189" lon="-3.85364">
        <ele>97.6</ele>
        <time>2022-12-08T10:18:26Z</time>
      </trkpt>
      <trkpt lat="48.09196" lon="-3.85361">
        <ele>97.5</ele>
        <time>2022-12-08T10:18:27Z</time>
      </trkpt>
      <trkpt lat="48.09203" lon="-3.85357">
        <ele>97.6</ele>
        <time>2022-12-08T10:18:28Z</time>
      </trkpt>
      <trkpt lat="48.09209" lon="-3.85353">
        <ele>97.6</ele>
        <time>2022-12-08T10:18:29Z</time>
      </trkpt>
      <trkpt lat="48.09215" lon="-3.85347">
        <ele>97.8</ele>
        <time>2022-12-08T10:18:30Z</time>
      </trkpt>
      <trkpt lat="48.09221" lon="-3.85343">
        <ele>97.9</ele>
        <time>2022-12-08T10:18:31Z</time>
      </trkpt>
      <trkpt lat="48.09226" lon="-3.85338">
        <ele>98.1</ele>
        <time>2022-12-08T10:18:32Z</time>
      </trkpt>
      <trkpt lat="48.09232" lon="-3.85334">
        <ele>98.4</ele>
        <time>2022-12-08T10:18:33Z</time>
      </trkpt>
      <trkpt lat="48.09238" lon="-3.85329">
        <ele>98.7</ele>
        <time>2022-12-08T10:18:34Z</time>
      </trkpt>
      <trkpt lat="48.09243" lon="-3.85325">
        <ele>98.9</ele>
        <time>2022-12-08T10:18:35Z</time>
      </trkpt>
      <trkpt lat="48.09249" lon="-3.85321">
        <ele>99.2</ele>
        <time>2022-12-08T10:18:36Z</time>
      </trkpt>
      <trkpt lat="48.09255" lon="-3.85317">
        <ele>99.5</ele>
        <time>2022-12-08T10:18:37Z</time>
      </trkpt>
      <trkpt lat="48.0926" lon="-3.85314">
        <ele>99.8</ele>
        <time>2022-12-08T10:18:38Z</time>
      </trkpt>
      <trkpt lat="48.09265" lon="-3.8531">
        <ele>100.2</ele>
        <time>2022-12-08T10:18:39Z</time>
      </trkpt>
      <trkpt lat="48.09269" lon="-3.85307">
        <ele>100.6</ele>
        <time>2022-12-08T10:18:40Z</time>
      </trkpt>
      <trkpt lat="48.09274" lon="-3.85304">
        <ele>100.9</ele>
        <time>2022-12-08T10:18:41Z</time>
      </trkpt>
      <trkpt lat="48.09278" lon="-3.85301">
        <ele>101.3</ele>
        <time>2022-12-08T10:18:42Z</time>
      </trkpt>
      <trkpt lat="48.09281" lon="-3.85299">
        <ele>101.6</ele>
        <time>2022-12-08T10:18:43Z</time>
      </trkpt>
      <trkpt lat="48.09283" lon="-3.85298">
        <ele>101.7</ele>
        <time>2022-12-08T10:18:44Z</time>
      </trkpt>
      <trkpt lat="48.09286" lon="-3.85296">
        <ele>101.9</ele>
        <time>2022-12-08T10:18:45Z</time>
      </trkpt>
      <trkpt lat="48.09288" lon="-3.85294">
        <ele>102.1</ele>
        <time>2022-12-08T10:18:46Z</time>
      </trkpt>
      <trkpt lat="48.09289" lon="-3.85294">
        <ele>102.2</ele>
        <time>2022-12-08T10:18:47Z</time>
      </trkpt>
      <trkpt lat="48.09293" lon="-3.85292">
        <ele>102.3</ele>
        <time>2022-12-08T10:18:48Z</time>
      </trkpt>
      <trkpt lat="48.09294" lon="-3.85291">
        <ele>102.3</ele>
        <time>2022-12-08T10:18:49Z</time>
      </trkpt>
      <trkpt lat="48.09299" lon="-3.85285">
        <ele>102.5</ele>
        <time>2022-12-08T10:18:51Z</time>
      </trkpt>
      <trkpt lat="48.09304" lon="-3.85283">
        <ele>102.6</ele>
        <time>2022-12-08T10:18:52Z</time>
      </trkpt>
      <trkpt lat="48.09308" lon="-3.85282">
        <ele>102.7</ele>
        <time>2022-12-08T10:18:53Z</time>
      </trkpt>
      <trkpt lat="48.09313" lon="-3.8528">
        <ele>102.8</ele>
        <time>2022-12-08T10:18:54Z</time>
      </trkpt>
      <trkpt lat="48.09317" lon="-3.85278">
        <ele>102.9</ele>
        <time>2022-12-08T10:18:55Z</time>
      </trkpt>
      <trkpt lat="48.09321" lon="-3.85276">
        <ele>103</ele>
        <time>2022-12-08T10:18:56Z</time>
      </trkpt>
      <trkpt lat="48.09325" lon="-3.85273">
        <ele>103</ele>
        <time>2022-12-08T10:18:57Z</time>
      </trkpt>
      <trkpt lat="48.09329" lon="-3.85271">
        <ele>103.1</ele>
        <time>2022-12-08T10:18:58Z</time>
      </trkpt>
      <trkpt lat="48.09333" lon="-3.85269">
        <ele>103.2</ele>
        <time>2022-12-08T10:18:59Z</time>
      </trkpt>
      <trkpt lat="48.09337" lon="-3.85267">
        <ele>103.2</ele>
        <time>2022-12-08T10:19:00Z</time>
      </trkpt>
      <trkpt lat="48.09342" lon="-3.85264">
        <ele>103.3</ele>
        <time>2022-12-08T10:19:01Z</time>
      </trkpt>
      <trkpt lat="48.09347" lon="-3.85261">
        <ele>103.4</ele>
        <time>2022-12-08T10:19:02Z</time>
      </trkpt>
      <trkpt lat="48.09351" lon="-3.85258">
        <ele>103.5</ele>
        <time>2022-12-08T10:19:03Z</time>
      </trkpt>
      <trkpt lat="48.09355" lon="-3.85256">
        <ele>103.6</ele>
        <time>2022-12-08T10:19:04Z</time>
      </trkpt>
      <trkpt lat="48.0936" lon="-3.85254">
        <ele>103.7</ele>
        <time>2022-12-08T10:19:05Z</time>
      </trkpt>
      <trkpt lat="48.09365" lon="-3.85251">
        <ele>103.8</ele>
        <time>2022-12-08T10:19:06Z</time>
      </trkpt>
      <trkpt lat="48.0937" lon="-3.85249">
        <ele>103.9</ele>
        <time>2022-12-08T10:19:07Z</time>
      </trkpt>
      <trkpt lat="48.09374" lon="-3.85246">
        <ele>104.1</ele>
        <time>2022-12-08T10:19:08Z</time>
      </trkpt>
      <trkpt lat="48.09378" lon="-3.85243">
        <ele>104.2</ele>
        <time>2022-12-08T10:19:09Z</time>
      </trkpt>
      <trkpt lat="48.09382" lon="-3.85239">
        <ele>104.3</ele>
        <time>2022-12-08T10:19:10Z</time>
      </trkpt>
      <trkpt lat="48.09387" lon="-3.85235">
        <ele>104.5</ele>
        <time>2022-12-08T10:19:11Z</time>
      </trkpt>
      <trkpt lat="48.09391" lon="-3.8523">
        <ele>104.7</ele>
        <time>2022-12-08T10:19:12Z</time>
      </trkpt>
      <trkpt lat="48.09394" lon="-3.85225">
        <ele>104.9</ele>
        <time>2022-12-08T10:19:13Z</time>
      </trkpt>
      <trkpt lat="48.09397" lon="-3.8522">
        <ele>105.1</ele>
        <time>2022-12-08T10:19:14Z</time>
      </trkpt>
      <trkpt lat="48.094" lon="-3.85214">
        <ele>105.3</ele>
        <time>2022-12-08T10:19:15Z</time>
      </trkpt>
      <trkpt lat="48.09403" lon="-3.85209">
        <ele>105.5</ele>
        <time>2022-12-08T10:19:16Z</time>
      </trkpt>
      <trkpt lat="48.09407" lon="-3.85204">
        <ele>105.7</ele>
        <time>2022-12-08T10:19:17Z</time>
      </trkpt>
      <trkpt lat="48.0941" lon="-3.852">
        <ele>105.9</ele>
        <time>2022-12-08T10:19:18Z</time>
      </trkpt>
      <trkpt lat="48.09414" lon="-3.85196">
        <ele>106.1</ele>
        <time>2022-12-08T10:19:19Z</time>
      </trkpt>
      <trkpt lat="48.09418" lon="-3.85192">
        <ele>106.2</ele>
        <time>2022-12-08T10:19:20Z</time>
      </trkpt>
      <trkpt lat="48.09423" lon="-3.85189">
        <ele>106.2</ele>
        <time>2022-12-08T10:19:21Z</time>
      </trkpt>
      <trkpt lat="48.09427" lon="-3.85187">
        <ele>106.2</ele>
        <time>2022-12-08T10:19:22Z</time>
      </trkpt>
      <trkpt lat="48.09432" lon="-3.85184">
        <ele>106.1</ele>
        <time>2022-12-08T10:19:23Z</time>
      </trkpt>
      <trkpt lat="48.09437" lon="-3.85182">
        <ele>106.1</ele>
        <time>2022-12-08T10:19:24Z</time>
      </trkpt>
      <trkpt lat="48.09442" lon="-3.85179">
        <ele>106</ele>
        <time>2022-12-08T10:19:25Z</time>
      </trkpt>
      <trkpt lat="48.09447" lon="-3.85176">
        <ele>105.9</ele>
        <time>2022-12-08T10:19:26Z</time>
      </trkpt>
      <trkpt lat="48.09452" lon="-3.85173">
        <ele>105.9</ele>
        <time>2022-12-08T10:19:27Z</time>
      </trkpt>
      <trkpt lat="48.09457" lon="-3.85169">
        <ele>105.8</ele>
        <time>2022-12-08T10:19:28Z</time>
      </trkpt>
      <trkpt lat="48.09462" lon="-3.85166">
        <ele>105.7</ele>
        <time>2022-12-08T10:19:29Z</time>
      </trkpt>
      <trkpt lat="48.09467" lon="-3.85163">
        <ele>105.6</ele>
        <time>2022-12-08T10:19:30Z</time>
      </trkpt>
      <trkpt lat="48.09471" lon="-3.8516">
        <ele>105.6</ele>
        <time>2022-12-08T10:19:31Z</time>
      </trkpt>
      <trkpt lat="48.09476" lon="-3.85157">
        <ele>105.5</ele>
        <time>2022-12-08T10:19:32Z</time>
      </trkpt>
      <trkpt lat="48.09481" lon="-3.85154">
        <ele>105.4</ele>
        <time>2022-12-08T10:19:33Z</time>
      </trkpt>
      <trkpt lat="48.09486" lon="-3.85151">
        <ele>105.3</ele>
        <time>2022-12-08T10:19:34Z</time>
      </trkpt>
      <trkpt lat="48.09491" lon="-3.85147">
        <ele>105.3</ele>
        <time>2022-12-08T10:19:35Z</time>
      </trkpt>
      <trkpt lat="48.09496" lon="-3.85144">
        <ele>105.3</ele>
        <time>2022-12-08T10:19:36Z</time>
      </trkpt>
      <trkpt lat="48.09501" lon="-3.8514">
        <ele>105.2</ele>
        <time>2022-12-08T10:19:37Z</time>
      </trkpt>
      <trkpt lat="48.09506" lon="-3.85137">
        <ele>105.1</ele>
        <time>2022-12-08T10:19:38Z</time>
      </trkpt>
      <trkpt lat="48.09511" lon="-3.85134">
        <ele>105</ele>
        <time>2022-12-08T10:19:39Z</time>
      </trkpt>
      <trkpt lat="48.09516" lon="-3.85131">
        <ele>105</ele>
        <time>2022-12-08T10:19:40Z</time>
      </trkpt>
      <trkpt lat="48.09521" lon="-3.85128">
        <ele>104.9</ele>
        <time>2022-12-08T10:19:41Z</time>
      </trkpt>
      <trkpt lat="48.09526" lon="-3.85125">
        <ele>104.8</ele>
        <time>2022-12-08T10:19:42Z</time>
      </trkpt>
      <trkpt lat="48.09531" lon="-3.85121">
        <ele>104.8</ele>
        <time>2022-12-08T10:19:43Z</time>
      </trkpt>
      <trkpt lat="48.09536" lon="-3.85118">
        <ele>104.8</ele>
        <time>2022-12-08T10:19:44Z</time>
      </trkpt>
      <trkpt lat="48.09541" lon="-3.85115">
        <ele>104.8</ele>
        <time>2022-12-08T10:19:45Z</time>
      </trkpt>
      <trkpt lat="48.09547" lon="-3.85111">
        <ele>104.8</ele>
        <time>2022-12-08T10:19:46Z</time>
      </trkpt>
      <trkpt lat="48.09552" lon="-3.85108">
        <ele>104.7</ele>
        <time>2022-12-08T10:19:47Z</time>
      </trkpt>
      <trkpt lat="48.09557" lon="-3.85105">
        <ele>104.7</ele>
        <time>2022-12-08T10:19:48Z</time>
      </trkpt>
      <trkpt lat="48.09562" lon="-3.85102">
        <ele>104.6</ele>
        <time>2022-12-08T10:19:49Z</time>
      </trkpt>
      <trkpt lat="48.09567" lon="-3.85099">
        <ele>104.6</ele>
        <time>2022-12-08T10:19:50Z</time>
      </trkpt>
      <trkpt lat="48.09572" lon="-3.85096">
        <ele>104.5</ele>
        <time>2022-12-08T10:19:51Z</time>
      </trkpt>
      <trkpt lat="48.09577" lon="-3.85093">
        <ele>104.4</ele>
        <time>2022-12-08T10:19:52Z</time>
      </trkpt>
      <trkpt lat="48.09583" lon="-3.8509">
        <ele>104.3</ele>
        <time>2022-12-08T10:19:53Z</time>
      </trkpt>
      <trkpt lat="48.09588" lon="-3.85086">
        <ele>104.3</ele>
        <time>2022-12-08T10:19:54Z</time>
      </trkpt>
      <trkpt lat="48.09593" lon="-3.85084">
        <ele>104.2</ele>
        <time>2022-12-08T10:19:55Z</time>
      </trkpt>
      <trkpt lat="48.09598" lon="-3.85081">
        <ele>104.2</ele>
        <time>2022-12-08T10:19:56Z</time>
      </trkpt>
      <trkpt lat="48.09603" lon="-3.85078">
        <ele>104.2</ele>
        <time>2022-12-08T10:19:57Z</time>
      </trkpt>
      <trkpt lat="48.09608" lon="-3.85075">
        <ele>104.1</ele>
        <time>2022-12-08T10:19:58Z</time>
      </trkpt>
      <trkpt lat="48.09613" lon="-3.85071">
        <ele>104.1</ele>
        <time>2022-12-08T10:19:59Z</time>
      </trkpt>
      <trkpt lat="48.09618" lon="-3.85068">
        <ele>104</ele>
        <time>2022-12-08T10:20:00Z</time>
      </trkpt>
      <trkpt lat="48.09624" lon="-3.85065">
        <ele>103.9</ele>
        <time>2022-12-08T10:20:01Z</time>
      </trkpt>
      <trkpt lat="48.09629" lon="-3.85063">
        <ele>103.9</ele>
        <time>2022-12-08T10:20:02Z</time>
      </trkpt>
      <trkpt lat="48.09634" lon="-3.8506">
        <ele>104</ele>
        <time>2022-12-08T10:20:03Z</time>
      </trkpt>
      <trkpt lat="48.09639" lon="-3.85056">
        <ele>104</ele>
        <time>2022-12-08T10:20:04Z</time>
      </trkpt>
      <trkpt lat="48.09644" lon="-3.85053">
        <ele>104</ele>
        <time>2022-12-08T10:20:05Z</time>
      </trkpt>
      <trkpt lat="48.0965" lon="-3.85049">
        <ele>104</ele>
        <time>2022-12-08T10:20:06Z</time>
      </trkpt>
      <trkpt lat="48.09656" lon="-3.85045">
        <ele>103.9</ele>
        <time>2022-12-08T10:20:07Z</time>
      </trkpt>
      <trkpt lat="48.09661" lon="-3.85041">
        <ele>103.8</ele>
        <time>2022-12-08T10:20:08Z</time>
      </trkpt>
      <trkpt lat="48.09666" lon="-3.85038">
        <ele>103.8</ele>
        <time>2022-12-08T10:20:09Z</time>
      </trkpt>
      <trkpt lat="48.09672" lon="-3.85036">
        <ele>103.7</ele>
        <time>2022-12-08T10:20:10Z</time>
      </trkpt>
      <trkpt lat="48.09677" lon="-3.85033">
        <ele>103.6</ele>
        <time>2022-12-08T10:20:11Z</time>
      </trkpt>
      <trkpt lat="48.09682" lon="-3.8503">
        <ele>103.6</ele>
        <time>2022-12-08T10:20:12Z</time>
      </trkpt>
      <trkpt lat="48.09687" lon="-3.85026">
        <ele>103.5</ele>
        <time>2022-12-08T10:20:13Z</time>
      </trkpt>
      <trkpt lat="48.09692" lon="-3.85022">
        <ele>103.4</ele>
        <time>2022-12-08T10:20:14Z</time>
      </trkpt>
      <trkpt lat="48.09698" lon="-3.85019">
        <ele>103.3</ele>
        <time>2022-12-08T10:20:15Z</time>
      </trkpt>
      <trkpt lat="48.09703" lon="-3.85015">
        <ele>103.2</ele>
        <time>2022-12-08T10:20:16Z</time>
      </trkpt>
      <trkpt lat="48.09708" lon="-3.85012">
        <ele>103.2</ele>
        <time>2022-12-08T10:20:17Z</time>
      </trkpt>
      <trkpt lat="48.09713" lon="-3.85008">
        <ele>103.1</ele>
        <time>2022-12-08T10:20:18Z</time>
      </trkpt>
      <trkpt lat="48.09718" lon="-3.85005">
        <ele>103.1</ele>
        <time>2022-12-08T10:20:19Z</time>
      </trkpt>
      <trkpt lat="48.09723" lon="-3.85003">
        <ele>103.1</ele>
        <time>2022-12-08T10:20:20Z</time>
      </trkpt>
      <trkpt lat="48.09728" lon="-3.84999">
        <ele>103.1</ele>
        <time>2022-12-08T10:20:21Z</time>
      </trkpt>
      <trkpt lat="48.09733" lon="-3.84996">
        <ele>103</ele>
        <time>2022-12-08T10:20:22Z</time>
      </trkpt>
      <trkpt lat="48.09739" lon="-3.84994">
        <ele>103</ele>
        <time>2022-12-08T10:20:23Z</time>
      </trkpt>
      <trkpt lat="48.09745" lon="-3.8499">
        <ele>103</ele>
        <time>2022-12-08T10:20:24Z</time>
      </trkpt>
      <trkpt lat="48.09751" lon="-3.84986">
        <ele>102.8</ele>
        <time>2022-12-08T10:20:25Z</time>
      </trkpt>
      <trkpt lat="48.09756" lon="-3.84983">
        <ele>102.7</ele>
        <time>2022-12-08T10:20:26Z</time>
      </trkpt>
      <trkpt lat="48.09762" lon="-3.84979">
        <ele>102.6</ele>
        <time>2022-12-08T10:20:27Z</time>
      </trkpt>
      <trkpt lat="48.09768" lon="-3.84975">
        <ele>102.3</ele>
        <time>2022-12-08T10:20:28Z</time>
      </trkpt>
      <trkpt lat="48.09775" lon="-3.84971">
        <ele>102.1</ele>
        <time>2022-12-08T10:20:29Z</time>
      </trkpt>
      <trkpt lat="48.09781" lon="-3.84968">
        <ele>101.9</ele>
        <time>2022-12-08T10:20:30Z</time>
      </trkpt>
      <trkpt lat="48.09787" lon="-3.84965">
        <ele>101.7</ele>
        <time>2022-12-08T10:20:31Z</time>
      </trkpt>
      <trkpt lat="48.09793" lon="-3.84963">
        <ele>101.5</ele>
        <time>2022-12-08T10:20:32Z</time>
      </trkpt>
      <trkpt lat="48.09799" lon="-3.8496">
        <ele>101.3</ele>
        <time>2022-12-08T10:20:33Z</time>
      </trkpt>
      <trkpt lat="48.09804" lon="-3.84958">
        <ele>101</ele>
        <time>2022-12-08T10:20:34Z</time>
      </trkpt>
      <trkpt lat="48.09809" lon="-3.84956">
        <ele>100.8</ele>
        <time>2022-12-08T10:20:35Z</time>
      </trkpt>
      <trkpt lat="48.09814" lon="-3.84954">
        <ele>100.6</ele>
        <time>2022-12-08T10:20:36Z</time>
      </trkpt>
      <trkpt lat="48.0982" lon="-3.84952">
        <ele>100.4</ele>
        <time>2022-12-08T10:20:37Z</time>
      </trkpt>
      <trkpt lat="48.09826" lon="-3.84949">
        <ele>100.2</ele>
        <time>2022-12-08T10:20:38Z</time>
      </trkpt>
      <trkpt lat="48.09833" lon="-3.84947">
        <ele>100</ele>
        <time>2022-12-08T10:20:39Z</time>
      </trkpt>
      <trkpt lat="48.09839" lon="-3.84945">
        <ele>99.8</ele>
        <time>2022-12-08T10:20:40Z</time>
      </trkpt>
      <trkpt lat="48.09846" lon="-3.84943">
        <ele>99.6</ele>
        <time>2022-12-08T10:20:41Z</time>
      </trkpt>
      <trkpt lat="48.09852" lon="-3.84941">
        <ele>99.2</ele>
        <time>2022-12-08T10:20:42Z</time>
      </trkpt>
      <trkpt lat="48.09858" lon="-3.8494">
        <ele>98.9</ele>
        <time>2022-12-08T10:20:43Z</time>
      </trkpt>
      <trkpt lat="48.09865" lon="-3.84938">
        <ele>98.6</ele>
        <time>2022-12-08T10:20:44Z</time>
      </trkpt>
      <trkpt lat="48.09871" lon="-3.84937">
        <ele>98.4</ele>
        <time>2022-12-08T10:20:45Z</time>
      </trkpt>
      <trkpt lat="48.09877" lon="-3.84935">
        <ele>98.2</ele>
        <time>2022-12-08T10:20:46Z</time>
      </trkpt>
      <trkpt lat="48.09883" lon="-3.84934">
        <ele>98.1</ele>
        <time>2022-12-08T10:20:47Z</time>
      </trkpt>
      <trkpt lat="48.09889" lon="-3.84933">
        <ele>97.9</ele>
        <time>2022-12-08T10:20:48Z</time>
      </trkpt>
      <trkpt lat="48.09895" lon="-3.84932">
        <ele>97.8</ele>
        <time>2022-12-08T10:20:49Z</time>
      </trkpt>
      <trkpt lat="48.09902" lon="-3.8493">
        <ele>97.8</ele>
        <time>2022-12-08T10:20:50Z</time>
      </trkpt>
      <trkpt lat="48.09908" lon="-3.8493">
        <ele>97.7</ele>
        <time>2022-12-08T10:20:51Z</time>
      </trkpt>
      <trkpt lat="48.09914" lon="-3.8493">
        <ele>97.6</ele>
        <time>2022-12-08T10:20:52Z</time>
      </trkpt>
      <trkpt lat="48.0992" lon="-3.8493">
        <ele>97.6</ele>
        <time>2022-12-08T10:20:53Z</time>
      </trkpt>
      <trkpt lat="48.09926" lon="-3.8493">
        <ele>97.5</ele>
        <time>2022-12-08T10:20:54Z</time>
      </trkpt>
      <trkpt lat="48.09931" lon="-3.8493">
        <ele>97.5</ele>
        <time>2022-12-08T10:20:55Z</time>
      </trkpt>
      <trkpt lat="48.09937" lon="-3.8493">
        <ele>97.4</ele>
        <time>2022-12-08T10:20:56Z</time>
      </trkpt>
      <trkpt lat="48.09941" lon="-3.8493">
        <ele>97.4</ele>
        <time>2022-12-08T10:20:57Z</time>
      </trkpt>
      <trkpt lat="48.09946" lon="-3.8493">
        <ele>97.4</ele>
        <time>2022-12-08T10:20:58Z</time>
      </trkpt>
      <trkpt lat="48.09951" lon="-3.8493">
        <ele>97.4</ele>
        <time>2022-12-08T10:20:59Z</time>
      </trkpt>
      <trkpt lat="48.09955" lon="-3.8493">
        <ele>97.4</ele>
        <time>2022-12-08T10:21:00Z</time>
      </trkpt>
      <trkpt lat="48.09958" lon="-3.84931">
        <ele>97.3</ele>
        <time>2022-12-08T10:21:01Z</time>
      </trkpt>
      <trkpt lat="48.09967" lon="-3.84933">
        <ele>97</ele>
        <time>2022-12-08T10:21:03Z</time>
      </trkpt>
      <trkpt lat="48.0997" lon="-3.84933">
        <ele>96.9</ele>
        <time>2022-12-08T10:21:04Z</time>
      </trkpt>
      <trkpt lat="48.09974" lon="-3.84935">
        <ele>96.9</ele>
        <time>2022-12-08T10:21:05Z</time>
      </trkpt>
      <trkpt lat="48.09979" lon="-3.84936">
        <ele>96.9</ele>
        <time>2022-12-08T10:21:06Z</time>
      </trkpt>
      <trkpt lat="48.09982" lon="-3.84937">
        <ele>96.9</ele>
        <time>2022-12-08T10:21:07Z</time>
      </trkpt>
      <trkpt lat="48.09986" lon="-3.84938">
        <ele>96.9</ele>
        <time>2022-12-08T10:21:08Z</time>
      </trkpt>
      <trkpt lat="48.09992" lon="-3.84939">
        <ele>96.9</ele>
        <time>2022-12-08T10:21:10Z</time>
      </trkpt>
      <trkpt lat="48.09998" lon="-3.84939">
        <ele>96.9</ele>
        <time>2022-12-08T10:21:11Z</time>
      </trkpt>
      <trkpt lat="48.10003" lon="-3.8494">
        <ele>96.9</ele>
        <time>2022-12-08T10:21:12Z</time>
      </trkpt>
      <trkpt lat="48.10007" lon="-3.84942">
        <ele>97</ele>
        <time>2022-12-08T10:21:13Z</time>
      </trkpt>
      <trkpt lat="48.10011" lon="-3.84943">
        <ele>97</ele>
        <time>2022-12-08T10:21:14Z</time>
      </trkpt>
      <trkpt lat="48.10015" lon="-3.84943">
        <ele>97</ele>
        <time>2022-12-08T10:21:15Z</time>
      </trkpt>
      <trkpt lat="48.10019" lon="-3.84944">
        <ele>97</ele>
        <time>2022-12-08T10:21:16Z</time>
      </trkpt>
      <trkpt lat="48.10023" lon="-3.84946">
        <ele>97</ele>
        <time>2022-12-08T10:21:17Z</time>
      </trkpt>
      <trkpt lat="48.10027" lon="-3.84947">
        <ele>97</ele>
        <time>2022-12-08T10:21:18Z</time>
      </trkpt>
      <trkpt lat="48.1003" lon="-3.84948">
        <ele>97</ele>
        <time>2022-12-08T10:21:19Z</time>
      </trkpt>
      <trkpt lat="48.10035" lon="-3.8495">
        <ele>97</ele>
        <time>2022-12-08T10:21:20Z</time>
      </trkpt>
      <trkpt lat="48.10038" lon="-3.84951">
        <ele>97.1</ele>
        <time>2022-12-08T10:21:21Z</time>
      </trkpt>
      <trkpt lat="48.10045" lon="-3.84954">
        <ele>97.1</ele>
        <time>2022-12-08T10:21:23Z</time>
      </trkpt>
      <trkpt lat="48.10049" lon="-3.84955">
        <ele>97.2</ele>
        <time>2022-12-08T10:21:24Z</time>
      </trkpt>
      <trkpt lat="48.10055" lon="-3.84957">
        <ele>97.3</ele>
        <time>2022-12-08T10:21:26Z</time>
      </trkpt>
      <trkpt lat="48.1006" lon="-3.84959">
        <ele>97.3</ele>
        <time>2022-12-08T10:21:27Z</time>
      </trkpt>
      <trkpt lat="48.10064" lon="-3.8496">
        <ele>97.4</ele>
        <time>2022-12-08T10:21:28Z</time>
      </trkpt>
      <trkpt lat="48.10068" lon="-3.84962">
        <ele>97.5</ele>
        <time>2022-12-08T10:21:29Z</time>
      </trkpt>
      <trkpt lat="48.10071" lon="-3.84964">
        <ele>97.6</ele>
        <time>2022-12-08T10:21:30Z</time>
      </trkpt>
      <trkpt lat="48.10072" lon="-3.84964">
        <ele>97.6</ele>
        <time>2022-12-08T10:21:31Z</time>
      </trkpt>
      <trkpt lat="48.10074" lon="-3.84965">
        <ele>97.6</ele>
        <time>2022-12-08T10:21:32Z</time>
      </trkpt>
      <trkpt lat="48.10078" lon="-3.84967">
        <ele>97.7</ele>
        <time>2022-12-08T10:21:34Z</time>
      </trkpt>
      <trkpt lat="48.1008" lon="-3.84969">
        <ele>97.7</ele>
        <time>2022-12-08T10:21:35Z</time>
      </trkpt>
      <trkpt lat="48.10084" lon="-3.84972">
        <ele>97.8</ele>
        <time>2022-12-08T10:21:36Z</time>
      </trkpt>
      <trkpt lat="48.10087" lon="-3.84973">
        <ele>97.9</ele>
        <time>2022-12-08T10:21:37Z</time>
      </trkpt>
      <trkpt lat="48.1009" lon="-3.84974">
        <ele>97.9</ele>
        <time>2022-12-08T10:21:38Z</time>
      </trkpt>
      <trkpt lat="48.10094" lon="-3.84976">
        <ele>98</ele>
        <time>2022-12-08T10:21:39Z</time>
      </trkpt>
      <trkpt lat="48.10097" lon="-3.84978">
        <ele>98.1</ele>
        <time>2022-12-08T10:21:40Z</time>
      </trkpt>
      <trkpt lat="48.101" lon="-3.84981">
        <ele>98.1</ele>
        <time>2022-12-08T10:21:41Z</time>
      </trkpt>
      <trkpt lat="48.10103" lon="-3.84983">
        <ele>98.2</ele>
        <time>2022-12-08T10:21:42Z</time>
      </trkpt>
      <trkpt lat="48.10106" lon="-3.84985">
        <ele>98.2</ele>
        <time>2022-12-08T10:21:43Z</time>
      </trkpt>
      <trkpt lat="48.1011" lon="-3.84988">
        <ele>98.3</ele>
        <time>2022-12-08T10:21:44Z</time>
      </trkpt>
      <trkpt lat="48.10112" lon="-3.84989">
        <ele>98.3</ele>
        <time>2022-12-08T10:21:45Z</time>
      </trkpt>
      <trkpt lat="48.10116" lon="-3.84992">
        <ele>98.4</ele>
        <time>2022-12-08T10:21:47Z</time>
      </trkpt>
      <trkpt lat="48.10119" lon="-3.84995">
        <ele>98.4</ele>
        <time>2022-12-08T10:21:48Z</time>
      </trkpt>
      <trkpt lat="48.10122" lon="-3.84998">
        <ele>98.5</ele>
        <time>2022-12-08T10:21:49Z</time>
      </trkpt>
      <trkpt lat="48.10123" lon="-3.84998">
        <ele>98.5</ele>
        <time>2022-12-08T10:21:50Z</time>
      </trkpt>
      <trkpt lat="48.10122" lon="-3.84997">
        <ele>98.5</ele>
        <time>2022-12-08T10:21:51Z</time>
      </trkpt>
      <trkpt lat="48.10121" lon="-3.84996">
        <ele>98.5</ele>
        <time>2022-12-08T10:21:52Z</time>
      </trkpt>
      <trkpt lat="48.10121" lon="-3.84996">
        <ele>98.5</ele>
        <time>2022-12-08T10:21:53Z</time>
      </trkpt>
      <trkpt lat="48.10121" lon="-3.84996">
        <ele>98.5</ele>
        <time>2022-12-08T10:21:54Z</time>
      </trkpt>
      <trkpt lat="48.10121" lon="-3.84996">
        <ele>98.5</ele>
        <time>2022-12-08T10:21:55Z</time>
      </trkpt>
      <trkpt lat="48.1012" lon="-3.84996">
        <ele>98.5</ele>
        <time>2022-12-08T10:21:57Z</time>
      </trkpt>
      <trkpt lat="48.1012" lon="-3.84996">
        <ele>98.5</ele>
        <time>2022-12-08T10:21:58Z</time>
      </trkpt>
      <trkpt lat="48.1012" lon="-3.84996">
        <ele>98.5</ele>
        <time>2022-12-08T10:21:59Z</time>
      </trkpt>
      <trkpt lat="48.1012" lon="-3.84996">
        <ele>98.5</ele>
        <time>2022-12-08T10:22:00Z</time>
      </trkpt>
      <trkpt lat="48.10126" lon="-3.85001">
        <ele>98.6</ele>
        <time>2022-12-08T10:22:22Z</time>
      </trkpt>
      <trkpt lat="48.10127" lon="-3.85001">
        <ele>98.6</ele>
        <time>2022-12-08T10:22:23Z</time>
      </trkpt>
      <trkpt lat="48.10128" lon="-3.85003">
        <ele>98.7</ele>
        <time>2022-12-08T10:22:24Z</time>
      </trkpt>
      <trkpt lat="48.10131" lon="-3.85005">
        <ele>98.7</ele>
        <time>2022-12-08T10:22:25Z</time>
      </trkpt>
      <trkpt lat="48.10132" lon="-3.85006">
        <ele>98.7</ele>
        <time>2022-12-08T10:22:26Z</time>
      </trkpt>
      <trkpt lat="48.10135" lon="-3.85007">
        <ele>98.8</ele>
        <time>2022-12-08T10:22:27Z</time>
      </trkpt>
      <trkpt lat="48.10137" lon="-3.85007">
        <ele>98.8</ele>
        <time>2022-12-08T10:22:28Z</time>
      </trkpt>
      <trkpt lat="48.10139" lon="-3.85009">
        <ele>98.9</ele>
        <time>2022-12-08T10:22:29Z</time>
      </trkpt>
      <trkpt lat="48.10143" lon="-3.85012">
        <ele>98.9</ele>
        <time>2022-12-08T10:22:30Z</time>
      </trkpt>
      <trkpt lat="48.10145" lon="-3.85013">
        <ele>98.9</ele>
        <time>2022-12-08T10:22:31Z</time>
      </trkpt>
      <trkpt lat="48.1015" lon="-3.85016">
        <ele>99</ele>
        <time>2022-12-08T10:22:33Z</time>
      </trkpt>
      <trkpt lat="48.10154" lon="-3.85019">
        <ele>99.1</ele>
        <time>2022-12-08T10:22:34Z</time>
      </trkpt>
      <trkpt lat="48.10157" lon="-3.8502">
        <ele>99.1</ele>
        <time>2022-12-08T10:22:35Z</time>
      </trkpt>
      <trkpt lat="48.10161" lon="-3.85023">
        <ele>99.2</ele>
        <time>2022-12-08T10:22:36Z</time>
      </trkpt>
      <trkpt lat="48.10167" lon="-3.85026">
        <ele>99.2</ele>
        <time>2022-12-08T10:22:38Z</time>
      </trkpt>
      <trkpt lat="48.10171" lon="-3.85029">
        <ele>99.3</ele>
        <time>2022-12-08T10:22:39Z</time>
      </trkpt>
      <trkpt lat="48.10176" lon="-3.85033">
        <ele>99.3</ele>
        <time>2022-12-08T10:22:40Z</time>
      </trkpt>
      <trkpt lat="48.1018" lon="-3.85035">
        <ele>99.3</ele>
        <time>2022-12-08T10:22:41Z</time>
      </trkpt>
      <trkpt lat="48.10183" lon="-3.85038">
        <ele>99.3</ele>
        <time>2022-12-08T10:22:42Z</time>
      </trkpt>
      <trkpt lat="48.10186" lon="-3.8504">
        <ele>99.4</ele>
        <time>2022-12-08T10:22:43Z</time>
      </trkpt>
      <trkpt lat="48.1019" lon="-3.85043">
        <ele>99.4</ele>
        <time>2022-12-08T10:22:44Z</time>
      </trkpt>
      <trkpt lat="48.10193" lon="-3.85045">
        <ele>99.4</ele>
        <time>2022-12-08T10:22:45Z</time>
      </trkpt>
      <trkpt lat="48.10198" lon="-3.8505">
        <ele>99.4</ele>
        <time>2022-12-08T10:22:47Z</time>
      </trkpt>
      <trkpt lat="48.10202" lon="-3.85053">
        <ele>99.5</ele>
        <time>2022-12-08T10:22:48Z</time>
      </trkpt>
      <trkpt lat="48.10207" lon="-3.85055">
        <ele>99.5</ele>
        <time>2022-12-08T10:22:49Z</time>
      </trkpt>
      <trkpt lat="48.10211" lon="-3.85058">
        <ele>99.5</ele>
        <time>2022-12-08T10:22:50Z</time>
      </trkpt>
      <trkpt lat="48.10216" lon="-3.85062">
        <ele>99.6</ele>
        <time>2022-12-08T10:22:51Z</time>
      </trkpt>
      <trkpt lat="48.10221" lon="-3.85064">
        <ele>99.6</ele>
        <time>2022-12-08T10:22:52Z</time>
      </trkpt>
      <trkpt lat="48.10225" lon="-3.85067">
        <ele>99.7</ele>
        <time>2022-12-08T10:22:53Z</time>
      </trkpt>
      <trkpt lat="48.10228" lon="-3.8507">
        <ele>99.8</ele>
        <time>2022-12-08T10:22:54Z</time>
      </trkpt>
      <trkpt lat="48.10232" lon="-3.85072">
        <ele>99.8</ele>
        <time>2022-12-08T10:22:55Z</time>
      </trkpt>
      <trkpt lat="48.10236" lon="-3.85074">
        <ele>99.9</ele>
        <time>2022-12-08T10:22:56Z</time>
      </trkpt>
      <trkpt lat="48.1024" lon="-3.85077">
        <ele>99.9</ele>
        <time>2022-12-08T10:22:58Z</time>
      </trkpt>
      <trkpt lat="48.10245" lon="-3.8508">
        <ele>100</ele>
        <time>2022-12-08T10:22:59Z</time>
      </trkpt>
      <trkpt lat="48.10248" lon="-3.85083">
        <ele>100.1</ele>
        <time>2022-12-08T10:23:00Z</time>
      </trkpt>
      <trkpt lat="48.10251" lon="-3.85085">
        <ele>100.1</ele>
        <time>2022-12-08T10:23:01Z</time>
      </trkpt>
      <trkpt lat="48.10256" lon="-3.85088">
        <ele>100.2</ele>
        <time>2022-12-08T10:23:03Z</time>
      </trkpt>
      <trkpt lat="48.1026" lon="-3.85091">
        <ele>100.2</ele>
        <time>2022-12-08T10:23:04Z</time>
      </trkpt>
      <trkpt lat="48.10265" lon="-3.85095">
        <ele>100.3</ele>
        <time>2022-12-08T10:23:05Z</time>
      </trkpt>
      <trkpt lat="48.10268" lon="-3.85097">
        <ele>100.3</ele>
        <time>2022-12-08T10:23:06Z</time>
      </trkpt>
      <trkpt lat="48.10272" lon="-3.85099">
        <ele>100.3</ele>
        <time>2022-12-08T10:23:07Z</time>
      </trkpt>
      <trkpt lat="48.10277" lon="-3.85103">
        <ele>100.4</ele>
        <time>2022-12-08T10:23:09Z</time>
      </trkpt>
      <trkpt lat="48.10282" lon="-3.85107">
        <ele>100.4</ele>
        <time>2022-12-08T10:23:10Z</time>
      </trkpt>
      <trkpt lat="48.10285" lon="-3.8511">
        <ele>100.5</ele>
        <time>2022-12-08T10:23:11Z</time>
      </trkpt>
      <trkpt lat="48.10291" lon="-3.85113">
        <ele>100.5</ele>
        <time>2022-12-08T10:23:13Z</time>
      </trkpt>
      <trkpt lat="48.10294" lon="-3.85115">
        <ele>100.6</ele>
        <time>2022-12-08T10:23:14Z</time>
      </trkpt>
      <trkpt lat="48.10298" lon="-3.85118">
        <ele>100.7</ele>
        <time>2022-12-08T10:23:15Z</time>
      </trkpt>
      <trkpt lat="48.10302" lon="-3.85121">
        <ele>100.7</ele>
        <time>2022-12-08T10:23:16Z</time>
      </trkpt>
      <trkpt lat="48.10306" lon="-3.85123">
        <ele>100.8</ele>
        <time>2022-12-08T10:23:17Z</time>
      </trkpt>
      <trkpt lat="48.10309" lon="-3.85126">
        <ele>100.9</ele>
        <time>2022-12-08T10:23:18Z</time>
      </trkpt>
      <trkpt lat="48.10313" lon="-3.85127">
        <ele>100.9</ele>
        <time>2022-12-08T10:23:19Z</time>
      </trkpt>
      <trkpt lat="48.10317" lon="-3.8513">
        <ele>101</ele>
        <time>2022-12-08T10:23:20Z</time>
      </trkpt>
      <trkpt lat="48.1032" lon="-3.85132">
        <ele>101.1</ele>
        <time>2022-12-08T10:23:21Z</time>
      </trkpt>
      <trkpt lat="48.10323" lon="-3.85134">
        <ele>101.1</ele>
        <time>2022-12-08T10:23:22Z</time>
      </trkpt>
      <trkpt lat="48.10327" lon="-3.85137">
        <ele>101.2</ele>
        <time>2022-12-08T10:23:23Z</time>
      </trkpt>
      <trkpt lat="48.1033" lon="-3.8514">
        <ele>101.2</ele>
        <time>2022-12-08T10:23:24Z</time>
      </trkpt>
      <trkpt lat="48.10333" lon="-3.85143">
        <ele>101.3</ele>
        <time>2022-12-08T10:23:25Z</time>
      </trkpt>
      <trkpt lat="48.1034" lon="-3.85148">
        <ele>101.4</ele>
        <time>2022-12-08T10:23:27Z</time>
      </trkpt>
      <trkpt lat="48.10344" lon="-3.8515">
        <ele>101.5</ele>
        <time>2022-12-08T10:23:29Z</time>
      </trkpt>
      <trkpt lat="48.10347" lon="-3.85153">
        <ele>101.6</ele>
        <time>2022-12-08T10:23:30Z</time>
      </trkpt>
      <trkpt lat="48.1035" lon="-3.85155">
        <ele>101.6</ele>
        <time>2022-12-08T10:23:31Z</time>
      </trkpt>
      <trkpt lat="48.10353" lon="-3.85157">
        <ele>101.7</ele>
        <time>2022-12-08T10:23:32Z</time>
      </trkpt>
      <trkpt lat="48.10358" lon="-3.8516">
        <ele>101.9</ele>
        <time>2022-12-08T10:23:33Z</time>
      </trkpt>
      <trkpt lat="48.10363" lon="-3.85164">
        <ele>102.1</ele>
        <time>2022-12-08T10:23:35Z</time>
      </trkpt>
      <trkpt lat="48.10367" lon="-3.85166">
        <ele>102.3</ele>
        <time>2022-12-08T10:23:36Z</time>
      </trkpt>
      <trkpt lat="48.10371" lon="-3.85169">
        <ele>102.5</ele>
        <time>2022-12-08T10:23:37Z</time>
      </trkpt>
      <trkpt lat="48.10375" lon="-3.85172">
        <ele>102.7</ele>
        <time>2022-12-08T10:23:38Z</time>
      </trkpt>
      <trkpt lat="48.10378" lon="-3.85174">
        <ele>102.9</ele>
        <time>2022-12-08T10:23:39Z</time>
      </trkpt>
      <trkpt lat="48.10381" lon="-3.85176">
        <ele>103</ele>
        <time>2022-12-08T10:23:40Z</time>
      </trkpt>
      <trkpt lat="48.10384" lon="-3.85178">
        <ele>103.2</ele>
        <time>2022-12-08T10:23:41Z</time>
      </trkpt>
      <trkpt lat="48.10387" lon="-3.8518">
        <ele>103.3</ele>
        <time>2022-12-08T10:23:42Z</time>
      </trkpt>
      <trkpt lat="48.1039" lon="-3.85183">
        <ele>103.5</ele>
        <time>2022-12-08T10:23:43Z</time>
      </trkpt>
      <trkpt lat="48.10392" lon="-3.85186">
        <ele>103.6</ele>
        <time>2022-12-08T10:23:44Z</time>
      </trkpt>
      <trkpt lat="48.10395" lon="-3.85189">
        <ele>103.7</ele>
        <time>2022-12-08T10:23:45Z</time>
      </trkpt>
      <trkpt lat="48.10398" lon="-3.85192">
        <ele>103.8</ele>
        <time>2022-12-08T10:23:46Z</time>
      </trkpt>
      <trkpt lat="48.10401" lon="-3.85196">
        <ele>103.9</ele>
        <time>2022-12-08T10:23:47Z</time>
      </trkpt>
      <trkpt lat="48.10404" lon="-3.852">
        <ele>103.9</ele>
        <time>2022-12-08T10:23:48Z</time>
      </trkpt>
      <trkpt lat="48.10406" lon="-3.85203">
        <ele>104</ele>
        <time>2022-12-08T10:23:49Z</time>
      </trkpt>
      <trkpt lat="48.10408" lon="-3.85207">
        <ele>104</ele>
        <time>2022-12-08T10:23:50Z</time>
      </trkpt>
      <trkpt lat="48.10411" lon="-3.85211">
        <ele>104.1</ele>
        <time>2022-12-08T10:23:51Z</time>
      </trkpt>
      <trkpt lat="48.10413" lon="-3.85215">
        <ele>104.1</ele>
        <time>2022-12-08T10:23:52Z</time>
      </trkpt>
      <trkpt lat="48.10415" lon="-3.85219">
        <ele>104.1</ele>
        <time>2022-12-08T10:23:53Z</time>
      </trkpt>
      <trkpt lat="48.10418" lon="-3.85223">
        <ele>104.1</ele>
        <time>2022-12-08T10:23:54Z</time>
      </trkpt>
      <trkpt lat="48.1042" lon="-3.85226">
        <ele>104.1</ele>
        <time>2022-12-08T10:23:55Z</time>
      </trkpt>
      <trkpt lat="48.10423" lon="-3.8523">
        <ele>104.1</ele>
        <time>2022-12-08T10:23:56Z</time>
      </trkpt>
      <trkpt lat="48.10425" lon="-3.85235">
        <ele>104.3</ele>
        <time>2022-12-08T10:23:57Z</time>
      </trkpt>
      <trkpt lat="48.10427" lon="-3.85239">
        <ele>104.4</ele>
        <time>2022-12-08T10:23:58Z</time>
      </trkpt>
      <trkpt lat="48.10429" lon="-3.85243">
        <ele>104.5</ele>
        <time>2022-12-08T10:23:59Z</time>
      </trkpt>
      <trkpt lat="48.10431" lon="-3.85248">
        <ele>104.6</ele>
        <time>2022-12-08T10:24:00Z</time>
      </trkpt>
      <trkpt lat="48.10432" lon="-3.8525">
        <ele>104.6</ele>
        <time>2022-12-08T10:24:01Z</time>
      </trkpt>
      <trkpt lat="48.10434" lon="-3.85255">
        <ele>104.8</ele>
        <time>2022-12-08T10:24:02Z</time>
      </trkpt>
      <trkpt lat="48.10436" lon="-3.8526">
        <ele>104.9</ele>
        <time>2022-12-08T10:24:03Z</time>
      </trkpt>
      <trkpt lat="48.10438" lon="-3.85266">
        <ele>105</ele>
        <time>2022-12-08T10:24:04Z</time>
      </trkpt>
      <trkpt lat="48.10439" lon="-3.85271">
        <ele>105.1</ele>
        <time>2022-12-08T10:24:05Z</time>
      </trkpt>
      <trkpt lat="48.10441" lon="-3.85277">
        <ele>105.3</ele>
        <time>2022-12-08T10:24:06Z</time>
      </trkpt>
      <trkpt lat="48.10442" lon="-3.85282">
        <ele>105.4</ele>
        <time>2022-12-08T10:24:07Z</time>
      </trkpt>
      <trkpt lat="48.10443" lon="-3.85288">
        <ele>105.5</ele>
        <time>2022-12-08T10:24:08Z</time>
      </trkpt>
      <trkpt lat="48.10445" lon="-3.85293">
        <ele>105.6</ele>
        <time>2022-12-08T10:24:09Z</time>
      </trkpt>
      <trkpt lat="48.10446" lon="-3.85299">
        <ele>105.7</ele>
        <time>2022-12-08T10:24:10Z</time>
      </trkpt>
      <trkpt lat="48.10448" lon="-3.85305">
        <ele>105.8</ele>
        <time>2022-12-08T10:24:11Z</time>
      </trkpt>
      <trkpt lat="48.10449" lon="-3.8531">
        <ele>105.9</ele>
        <time>2022-12-08T10:24:12Z</time>
      </trkpt>
      <trkpt lat="48.10451" lon="-3.85316">
        <ele>106</ele>
        <time>2022-12-08T10:24:13Z</time>
      </trkpt>
      <trkpt lat="48.10452" lon="-3.85322">
        <ele>106.1</ele>
        <time>2022-12-08T10:24:14Z</time>
      </trkpt>
      <trkpt lat="48.10454" lon="-3.85327">
        <ele>106.3</ele>
        <time>2022-12-08T10:24:15Z</time>
      </trkpt>
      <trkpt lat="48.10455" lon="-3.85334">
        <ele>106.4</ele>
        <time>2022-12-08T10:24:16Z</time>
      </trkpt>
      <trkpt lat="48.10456" lon="-3.85339">
        <ele>106.6</ele>
        <time>2022-12-08T10:24:17Z</time>
      </trkpt>
      <trkpt lat="48.10458" lon="-3.85345">
        <ele>106.7</ele>
        <time>2022-12-08T10:24:18Z</time>
      </trkpt>
      <trkpt lat="48.1046" lon="-3.8535">
        <ele>106.8</ele>
        <time>2022-12-08T10:24:19Z</time>
      </trkpt>
      <trkpt lat="48.10461" lon="-3.85356">
        <ele>107</ele>
        <time>2022-12-08T10:24:20Z</time>
      </trkpt>
      <trkpt lat="48.10463" lon="-3.85362">
        <ele>107.1</ele>
        <time>2022-12-08T10:24:21Z</time>
      </trkpt>
      <trkpt lat="48.10465" lon="-3.85368">
        <ele>107.3</ele>
        <time>2022-12-08T10:24:22Z</time>
      </trkpt>
      <trkpt lat="48.10466" lon="-3.85373">
        <ele>107.4</ele>
        <time>2022-12-08T10:24:23Z</time>
      </trkpt>
      <trkpt lat="48.10468" lon="-3.85379">
        <ele>107.6</ele>
        <time>2022-12-08T10:24:24Z</time>
      </trkpt>
      <trkpt lat="48.10469" lon="-3.85384">
        <ele>107.8</ele>
        <time>2022-12-08T10:24:25Z</time>
      </trkpt>
      <trkpt lat="48.10471" lon="-3.8539">
        <ele>107.9</ele>
        <time>2022-12-08T10:24:26Z</time>
      </trkpt>
      <trkpt lat="48.10473" lon="-3.85396">
        <ele>108.1</ele>
        <time>2022-12-08T10:24:27Z</time>
      </trkpt>
      <trkpt lat="48.10475" lon="-3.85401">
        <ele>108.2</ele>
        <time>2022-12-08T10:24:28Z</time>
      </trkpt>
      <trkpt lat="48.10477" lon="-3.85407">
        <ele>108.3</ele>
        <time>2022-12-08T10:24:29Z</time>
      </trkpt>
      <trkpt lat="48.10478" lon="-3.85412">
        <ele>108.3</ele>
        <time>2022-12-08T10:24:30Z</time>
      </trkpt>
      <trkpt lat="48.10481" lon="-3.85417">
        <ele>108.3</ele>
        <time>2022-12-08T10:24:31Z</time>
      </trkpt>
      <trkpt lat="48.10482" lon="-3.85423">
        <ele>108.3</ele>
        <time>2022-12-08T10:24:32Z</time>
      </trkpt>
      <trkpt lat="48.10484" lon="-3.85428">
        <ele>108.3</ele>
        <time>2022-12-08T10:24:33Z</time>
      </trkpt>
      <trkpt lat="48.10487" lon="-3.85433">
        <ele>108.3</ele>
        <time>2022-12-08T10:24:34Z</time>
      </trkpt>
      <trkpt lat="48.10489" lon="-3.85439">
        <ele>108.4</ele>
        <time>2022-12-08T10:24:35Z</time>
      </trkpt>
      <trkpt lat="48.10491" lon="-3.85444">
        <ele>108.6</ele>
        <time>2022-12-08T10:24:36Z</time>
      </trkpt>
      <trkpt lat="48.10494" lon="-3.85449">
        <ele>108.7</ele>
        <time>2022-12-08T10:24:37Z</time>
      </trkpt>
      <trkpt lat="48.10496" lon="-3.85454">
        <ele>108.9</ele>
        <time>2022-12-08T10:24:38Z</time>
      </trkpt>
      <trkpt lat="48.10498" lon="-3.85459">
        <ele>109.1</ele>
        <time>2022-12-08T10:24:39Z</time>
      </trkpt>
      <trkpt lat="48.10501" lon="-3.85464">
        <ele>109.3</ele>
        <time>2022-12-08T10:24:40Z</time>
      </trkpt>
      <trkpt lat="48.10504" lon="-3.85469">
        <ele>109.5</ele>
        <time>2022-12-08T10:24:41Z</time>
      </trkpt>
      <trkpt lat="48.10507" lon="-3.85473">
        <ele>109.7</ele>
        <time>2022-12-08T10:24:42Z</time>
      </trkpt>
      <trkpt lat="48.10509" lon="-3.85478">
        <ele>109.9</ele>
        <time>2022-12-08T10:24:43Z</time>
      </trkpt>
      <trkpt lat="48.10512" lon="-3.85483">
        <ele>110.1</ele>
        <time>2022-12-08T10:24:44Z</time>
      </trkpt>
      <trkpt lat="48.10515" lon="-3.85487">
        <ele>110.2</ele>
        <time>2022-12-08T10:24:45Z</time>
      </trkpt>
      <trkpt lat="48.10518" lon="-3.85492">
        <ele>110.3</ele>
        <time>2022-12-08T10:24:46Z</time>
      </trkpt>
      <trkpt lat="48.10521" lon="-3.85496">
        <ele>110.3</ele>
        <time>2022-12-08T10:24:47Z</time>
      </trkpt>
      <trkpt lat="48.10524" lon="-3.855">
        <ele>110.4</ele>
        <time>2022-12-08T10:24:48Z</time>
      </trkpt>
      <trkpt lat="48.10527" lon="-3.85504">
        <ele>110.4</ele>
        <time>2022-12-08T10:24:49Z</time>
      </trkpt>
      <trkpt lat="48.1053" lon="-3.85508">
        <ele>110.5</ele>
        <time>2022-12-08T10:24:50Z</time>
      </trkpt>
      <trkpt lat="48.10533" lon="-3.85511">
        <ele>110.6</ele>
        <time>2022-12-08T10:24:51Z</time>
      </trkpt>
      <trkpt lat="48.10537" lon="-3.85515">
        <ele>110.7</ele>
        <time>2022-12-08T10:24:52Z</time>
      </trkpt>
      <trkpt lat="48.1054" lon="-3.85519">
        <ele>110.8</ele>
        <time>2022-12-08T10:24:53Z</time>
      </trkpt>
      <trkpt lat="48.10543" lon="-3.85522">
        <ele>110.9</ele>
        <time>2022-12-08T10:24:54Z</time>
      </trkpt>
      <trkpt lat="48.10546" lon="-3.85526">
        <ele>111</ele>
        <time>2022-12-08T10:24:55Z</time>
      </trkpt>
      <trkpt lat="48.10549" lon="-3.8553">
        <ele>111.1</ele>
        <time>2022-12-08T10:24:56Z</time>
      </trkpt>
      <trkpt lat="48.10552" lon="-3.85533">
        <ele>111.2</ele>
        <time>2022-12-08T10:24:57Z</time>
      </trkpt>
      <trkpt lat="48.10556" lon="-3.85536">
        <ele>111.4</ele>
        <time>2022-12-08T10:24:58Z</time>
      </trkpt>
      <trkpt lat="48.10559" lon="-3.85538">
        <ele>111.5</ele>
        <time>2022-12-08T10:24:59Z</time>
      </trkpt>
      <trkpt lat="48.10562" lon="-3.85541">
        <ele>111.7</ele>
        <time>2022-12-08T10:25:00Z</time>
      </trkpt>
      <trkpt lat="48.10566" lon="-3.85544">
        <ele>111.9</ele>
        <time>2022-12-08T10:25:01Z</time>
      </trkpt>
      <trkpt lat="48.10569" lon="-3.85547">
        <ele>112.1</ele>
        <time>2022-12-08T10:25:02Z</time>
      </trkpt>
      <trkpt lat="48.10572" lon="-3.85549">
        <ele>112.2</ele>
        <time>2022-12-08T10:25:03Z</time>
      </trkpt>
      <trkpt lat="48.10576" lon="-3.85552">
        <ele>112.4</ele>
        <time>2022-12-08T10:25:04Z</time>
      </trkpt>
      <trkpt lat="48.10579" lon="-3.85554">
        <ele>112.5</ele>
        <time>2022-12-08T10:25:05Z</time>
      </trkpt>
      <trkpt lat="48.10583" lon="-3.85556">
        <ele>112.6</ele>
        <time>2022-12-08T10:25:06Z</time>
      </trkpt>
      <trkpt lat="48.10586" lon="-3.85558">
        <ele>112.7</ele>
        <time>2022-12-08T10:25:07Z</time>
      </trkpt>
      <trkpt lat="48.1059" lon="-3.85561">
        <ele>112.7</ele>
        <time>2022-12-08T10:25:08Z</time>
      </trkpt>
      <trkpt lat="48.10593" lon="-3.85563">
        <ele>112.8</ele>
        <time>2022-12-08T10:25:09Z</time>
      </trkpt>
      <trkpt lat="48.10597" lon="-3.85565">
        <ele>112.8</ele>
        <time>2022-12-08T10:25:10Z</time>
      </trkpt>
      <trkpt lat="48.10601" lon="-3.85567">
        <ele>112.9</ele>
        <time>2022-12-08T10:25:11Z</time>
      </trkpt>
      <trkpt lat="48.10605" lon="-3.85569">
        <ele>113</ele>
        <time>2022-12-08T10:25:12Z</time>
      </trkpt>
      <trkpt lat="48.10608" lon="-3.85571">
        <ele>113.1</ele>
        <time>2022-12-08T10:25:13Z</time>
      </trkpt>
      <trkpt lat="48.10612" lon="-3.85573">
        <ele>113.2</ele>
        <time>2022-12-08T10:25:14Z</time>
      </trkpt>
      <trkpt lat="48.10616" lon="-3.85574">
        <ele>113.3</ele>
        <time>2022-12-08T10:25:15Z</time>
      </trkpt>
      <trkpt lat="48.10619" lon="-3.85576">
        <ele>113.4</ele>
        <time>2022-12-08T10:25:16Z</time>
      </trkpt>
      <trkpt lat="48.10623" lon="-3.85577">
        <ele>113.5</ele>
        <time>2022-12-08T10:25:17Z</time>
      </trkpt>
      <trkpt lat="48.10627" lon="-3.85578">
        <ele>113.6</ele>
        <time>2022-12-08T10:25:18Z</time>
      </trkpt>
      <trkpt lat="48.1063" lon="-3.8558">
        <ele>113.7</ele>
        <time>2022-12-08T10:25:19Z</time>
      </trkpt>
      <trkpt lat="48.10634" lon="-3.85581">
        <ele>113.9</ele>
        <time>2022-12-08T10:25:20Z</time>
      </trkpt>
      <trkpt lat="48.10638" lon="-3.85582">
        <ele>114</ele>
        <time>2022-12-08T10:25:21Z</time>
      </trkpt>
      <trkpt lat="48.10641" lon="-3.85582">
        <ele>114</ele>
        <time>2022-12-08T10:25:22Z</time>
      </trkpt>
      <trkpt lat="48.10645" lon="-3.8558">
        <ele>113.8</ele>
        <time>2022-12-08T10:25:23Z</time>
      </trkpt>
      <trkpt lat="48.10648" lon="-3.85576">
        <ele>113.4</ele>
        <time>2022-12-08T10:25:24Z</time>
      </trkpt>
      <trkpt lat="48.1065" lon="-3.85571">
        <ele>113.2</ele>
        <time>2022-12-08T10:25:25Z</time>
      </trkpt>
      <trkpt lat="48.10651" lon="-3.85565">
        <ele>112.8</ele>
        <time>2022-12-08T10:25:26Z</time>
      </trkpt>
      <trkpt lat="48.10653" lon="-3.85554">
        <ele>112.2</ele>
        <time>2022-12-08T10:25:27Z</time>
      </trkpt>
      <trkpt lat="48.10655" lon="-3.85544">
        <ele>111.7</ele>
        <time>2022-12-08T10:25:28Z</time>
      </trkpt>
      <trkpt lat="48.10656" lon="-3.85534">
        <ele>111.1</ele>
        <time>2022-12-08T10:25:29Z</time>
      </trkpt>
      <trkpt lat="48.10657" lon="-3.85523">
        <ele>110.6</ele>
        <time>2022-12-08T10:25:30Z</time>
      </trkpt>
      <trkpt lat="48.10659" lon="-3.85512">
        <ele>110</ele>
        <time>2022-12-08T10:25:31Z</time>
      </trkpt>
      <trkpt lat="48.10661" lon="-3.85501">
        <ele>109.4</ele>
        <time>2022-12-08T10:25:32Z</time>
      </trkpt>
      <trkpt lat="48.10662" lon="-3.8549">
        <ele>108.8</ele>
        <time>2022-12-08T10:25:33Z</time>
      </trkpt>
      <trkpt lat="48.10664" lon="-3.85478">
        <ele>108.1</ele>
        <time>2022-12-08T10:25:34Z</time>
      </trkpt>
      <trkpt lat="48.10666" lon="-3.85467">
        <ele>107.4</ele>
        <time>2022-12-08T10:25:35Z</time>
      </trkpt>
      <trkpt lat="48.10668" lon="-3.85455">
        <ele>106.8</ele>
        <time>2022-12-08T10:25:36Z</time>
      </trkpt>
      <trkpt lat="48.10671" lon="-3.85443">
        <ele>106.2</ele>
        <time>2022-12-08T10:25:37Z</time>
      </trkpt>
      <trkpt lat="48.10673" lon="-3.8543">
        <ele>105.6</ele>
        <time>2022-12-08T10:25:38Z</time>
      </trkpt>
      <trkpt lat="48.10675" lon="-3.85417">
        <ele>105</ele>
        <time>2022-12-08T10:25:39Z</time>
      </trkpt>
      <trkpt lat="48.10677" lon="-3.85405">
        <ele>104.4</ele>
        <time>2022-12-08T10:25:40Z</time>
      </trkpt>
      <trkpt lat="48.10678" lon="-3.85392">
        <ele>103.9</ele>
        <time>2022-12-08T10:25:41Z</time>
      </trkpt>
      <trkpt lat="48.10679" lon="-3.85379">
        <ele>103.4</ele>
        <time>2022-12-08T10:25:42Z</time>
      </trkpt>
      <trkpt lat="48.10679" lon="-3.85366">
        <ele>102.9</ele>
        <time>2022-12-08T10:25:43Z</time>
      </trkpt>
      <trkpt lat="48.1068" lon="-3.85353">
        <ele>102.5</ele>
        <time>2022-12-08T10:25:44Z</time>
      </trkpt>
      <trkpt lat="48.10682" lon="-3.8534">
        <ele>102.1</ele>
        <time>2022-12-08T10:25:45Z</time>
      </trkpt>
      <trkpt lat="48.10683" lon="-3.85327">
        <ele>101.8</ele>
        <time>2022-12-08T10:25:46Z</time>
      </trkpt>
      <trkpt lat="48.10684" lon="-3.85315">
        <ele>101.6</ele>
        <time>2022-12-08T10:25:47Z</time>
      </trkpt>
      <trkpt lat="48.10686" lon="-3.85302">
        <ele>101.5</ele>
        <time>2022-12-08T10:25:48Z</time>
      </trkpt>
      <trkpt lat="48.10687" lon="-3.8529">
        <ele>101.4</ele>
        <time>2022-12-08T10:25:49Z</time>
      </trkpt>
      <trkpt lat="48.10689" lon="-3.85278">
        <ele>101.3</ele>
        <time>2022-12-08T10:25:50Z</time>
      </trkpt>
      <trkpt lat="48.10691" lon="-3.85267">
        <ele>101.3</ele>
        <time>2022-12-08T10:25:51Z</time>
      </trkpt>
      <trkpt lat="48.10693" lon="-3.85256">
        <ele>101.3</ele>
        <time>2022-12-08T10:25:52Z</time>
      </trkpt>
      <trkpt lat="48.10696" lon="-3.85247">
        <ele>101.3</ele>
        <time>2022-12-08T10:25:53Z</time>
      </trkpt>
      <trkpt lat="48.10699" lon="-3.85238">
        <ele>101.4</ele>
        <time>2022-12-08T10:25:54Z</time>
      </trkpt>
      <trkpt lat="48.10701" lon="-3.85229">
        <ele>101.5</ele>
        <time>2022-12-08T10:25:55Z</time>
      </trkpt>
      <trkpt lat="48.10703" lon="-3.8522">
        <ele>101.7</ele>
        <time>2022-12-08T10:25:56Z</time>
      </trkpt>
      <trkpt lat="48.10705" lon="-3.85211">
        <ele>101.8</ele>
        <time>2022-12-08T10:25:57Z</time>
      </trkpt>
      <trkpt lat="48.10707" lon="-3.85203">
        <ele>102</ele>
        <time>2022-12-08T10:25:58Z</time>
      </trkpt>
      <trkpt lat="48.1071" lon="-3.85196">
        <ele>102.2</ele>
        <time>2022-12-08T10:25:59Z</time>
      </trkpt>
      <trkpt lat="48.10712" lon="-3.85188">
        <ele>102.5</ele>
        <time>2022-12-08T10:26:00Z</time>
      </trkpt>
      <trkpt lat="48.10714" lon="-3.85181">
        <ele>102.7</ele>
        <time>2022-12-08T10:26:01Z</time>
      </trkpt>
      <trkpt lat="48.10716" lon="-3.85174">
        <ele>103</ele>
        <time>2022-12-08T10:26:02Z</time>
      </trkpt>
      <trkpt lat="48.10719" lon="-3.85167">
        <ele>103.2</ele>
        <time>2022-12-08T10:26:03Z</time>
      </trkpt>
      <trkpt lat="48.10721" lon="-3.8516">
        <ele>103.5</ele>
        <time>2022-12-08T10:26:04Z</time>
      </trkpt>
      <trkpt lat="48.10722" lon="-3.85153">
        <ele>103.8</ele>
        <time>2022-12-08T10:26:05Z</time>
      </trkpt>
      <trkpt lat="48.10724" lon="-3.85147">
        <ele>104</ele>
        <time>2022-12-08T10:26:06Z</time>
      </trkpt>
      <trkpt lat="48.10725" lon="-3.8514">
        <ele>104.3</ele>
        <time>2022-12-08T10:26:07Z</time>
      </trkpt>
      <trkpt lat="48.10727" lon="-3.85134">
        <ele>104.5</ele>
        <time>2022-12-08T10:26:08Z</time>
      </trkpt>
      <trkpt lat="48.10729" lon="-3.85128">
        <ele>104.8</ele>
        <time>2022-12-08T10:26:09Z</time>
      </trkpt>
      <trkpt lat="48.1073" lon="-3.85123">
        <ele>104.9</ele>
        <time>2022-12-08T10:26:10Z</time>
      </trkpt>
      <trkpt lat="48.10732" lon="-3.85116">
        <ele>105.2</ele>
        <time>2022-12-08T10:26:11Z</time>
      </trkpt>
      <trkpt lat="48.10734" lon="-3.85111">
        <ele>105.4</ele>
        <time>2022-12-08T10:26:12Z</time>
      </trkpt>
      <trkpt lat="48.10735" lon="-3.85104">
        <ele>105.7</ele>
        <time>2022-12-08T10:26:13Z</time>
      </trkpt>
      <trkpt lat="48.10737" lon="-3.85098">
        <ele>106</ele>
        <time>2022-12-08T10:26:14Z</time>
      </trkpt>
      <trkpt lat="48.10739" lon="-3.85093">
        <ele>106.2</ele>
        <time>2022-12-08T10:26:15Z</time>
      </trkpt>
      <trkpt lat="48.1074" lon="-3.85087">
        <ele>106.5</ele>
        <time>2022-12-08T10:26:16Z</time>
      </trkpt>
      <trkpt lat="48.10742" lon="-3.85082">
        <ele>106.7</ele>
        <time>2022-12-08T10:26:17Z</time>
      </trkpt>
      <trkpt lat="48.10742" lon="-3.85077">
        <ele>106.9</ele>
        <time>2022-12-08T10:26:18Z</time>
      </trkpt>
      <trkpt lat="48.10743" lon="-3.85074">
        <ele>107</ele>
        <time>2022-12-08T10:26:19Z</time>
      </trkpt>
      <trkpt lat="48.10746" lon="-3.85065">
        <ele>107.4</ele>
        <time>2022-12-08T10:26:20Z</time>
      </trkpt>
      <trkpt lat="48.10749" lon="-3.85057">
        <ele>107.8</ele>
        <time>2022-12-08T10:26:22Z</time>
      </trkpt>
      <trkpt lat="48.10751" lon="-3.85051">
        <ele>108.1</ele>
        <time>2022-12-08T10:26:23Z</time>
      </trkpt>
      <trkpt lat="48.10753" lon="-3.85044">
        <ele>108.4</ele>
        <time>2022-12-08T10:26:24Z</time>
      </trkpt>
      <trkpt lat="48.10755" lon="-3.85036">
        <ele>108.7</ele>
        <time>2022-12-08T10:26:25Z</time>
      </trkpt>
      <trkpt lat="48.10757" lon="-3.85029">
        <ele>109</ele>
        <time>2022-12-08T10:26:26Z</time>
      </trkpt>
      <trkpt lat="48.10758" lon="-3.85024">
        <ele>109.3</ele>
        <time>2022-12-08T10:26:27Z</time>
      </trkpt>
      <trkpt lat="48.10761" lon="-3.85015">
        <ele>109.7</ele>
        <time>2022-12-08T10:26:29Z</time>
      </trkpt>
      <trkpt lat="48.10764" lon="-3.85006">
        <ele>110.1</ele>
        <time>2022-12-08T10:26:30Z</time>
      </trkpt>
      <trkpt lat="48.10765" lon="-3.85001">
        <ele>110.3</ele>
        <time>2022-12-08T10:26:31Z</time>
      </trkpt>
      <trkpt lat="48.10767" lon="-3.84996">
        <ele>110.6</ele>
        <time>2022-12-08T10:26:32Z</time>
      </trkpt>
      <trkpt lat="48.10768" lon="-3.8499">
        <ele>110.8</ele>
        <time>2022-12-08T10:26:33Z</time>
      </trkpt>
      <trkpt lat="48.1077" lon="-3.84985">
        <ele>111.1</ele>
        <time>2022-12-08T10:26:34Z</time>
      </trkpt>
      <trkpt lat="48.10771" lon="-3.84979">
        <ele>111.3</ele>
        <time>2022-12-08T10:26:35Z</time>
      </trkpt>
      <trkpt lat="48.10773" lon="-3.84972">
        <ele>111.7</ele>
        <time>2022-12-08T10:26:36Z</time>
      </trkpt>
      <trkpt lat="48.10774" lon="-3.84969">
        <ele>111.8</ele>
        <time>2022-12-08T10:26:37Z</time>
      </trkpt>
      <trkpt lat="48.10776" lon="-3.84964">
        <ele>112.1</ele>
        <time>2022-12-08T10:26:38Z</time>
      </trkpt>
      <trkpt lat="48.10778" lon="-3.84957">
        <ele>112.4</ele>
        <time>2022-12-08T10:26:40Z</time>
      </trkpt>
      <trkpt lat="48.1078" lon="-3.8495">
        <ele>112.7</ele>
        <time>2022-12-08T10:26:41Z</time>
      </trkpt>
      <trkpt lat="48.10781" lon="-3.84945">
        <ele>113</ele>
        <time>2022-12-08T10:26:42Z</time>
      </trkpt>
      <trkpt lat="48.10783" lon="-3.8494">
        <ele>113.2</ele>
        <time>2022-12-08T10:26:43Z</time>
      </trkpt>
      <trkpt lat="48.10784" lon="-3.84934">
        <ele>113.5</ele>
        <time>2022-12-08T10:26:44Z</time>
      </trkpt>
      <trkpt lat="48.10785" lon="-3.8493">
        <ele>113.7</ele>
        <time>2022-12-08T10:26:45Z</time>
      </trkpt>
      <trkpt lat="48.10787" lon="-3.84925">
        <ele>114</ele>
        <time>2022-12-08T10:26:46Z</time>
      </trkpt>
      <trkpt lat="48.10788" lon="-3.84919">
        <ele>114.2</ele>
        <time>2022-12-08T10:26:47Z</time>
      </trkpt>
      <trkpt lat="48.1079" lon="-3.84915">
        <ele>114.5</ele>
        <time>2022-12-08T10:26:48Z</time>
      </trkpt>
      <trkpt lat="48.10792" lon="-3.8491">
        <ele>114.7</ele>
        <time>2022-12-08T10:26:49Z</time>
      </trkpt>
      <trkpt lat="48.10793" lon="-3.84905">
        <ele>115</ele>
        <time>2022-12-08T10:26:50Z</time>
      </trkpt>
      <trkpt lat="48.10794" lon="-3.849">
        <ele>115.2</ele>
        <time>2022-12-08T10:26:51Z</time>
      </trkpt>
      <trkpt lat="48.10796" lon="-3.84895">
        <ele>115.5</ele>
        <time>2022-12-08T10:26:52Z</time>
      </trkpt>
      <trkpt lat="48.10798" lon="-3.84888">
        <ele>115.9</ele>
        <time>2022-12-08T10:26:54Z</time>
      </trkpt>
      <trkpt lat="48.108" lon="-3.8488">
        <ele>116.2</ele>
        <time>2022-12-08T10:26:55Z</time>
      </trkpt>
      <trkpt lat="48.10801" lon="-3.84875">
        <ele>116.4</ele>
        <time>2022-12-08T10:26:56Z</time>
      </trkpt>
      <trkpt lat="48.10804" lon="-3.84864">
        <ele>117</ele>
        <time>2022-12-08T10:26:58Z</time>
      </trkpt>
      <trkpt lat="48.10806" lon="-3.8486">
        <ele>117.2</ele>
        <time>2022-12-08T10:26:59Z</time>
      </trkpt>
      <trkpt lat="48.10808" lon="-3.84854">
        <ele>117.4</ele>
        <time>2022-12-08T10:27:00Z</time>
      </trkpt>
      <trkpt lat="48.1081" lon="-3.84843">
        <ele>117.9</ele>
        <time>2022-12-08T10:27:02Z</time>
      </trkpt>
      <trkpt lat="48.10811" lon="-3.84838">
        <ele>118.2</ele>
        <time>2022-12-08T10:27:03Z</time>
      </trkpt>
      <trkpt lat="48.10812" lon="-3.84834">
        <ele>118.4</ele>
        <time>2022-12-08T10:27:04Z</time>
      </trkpt>
      <trkpt lat="48.10813" lon="-3.84829">
        <ele>118.6</ele>
        <time>2022-12-08T10:27:05Z</time>
      </trkpt>
      <trkpt lat="48.10814" lon="-3.84823">
        <ele>118.8</ele>
        <time>2022-12-08T10:27:06Z</time>
      </trkpt>
      <trkpt lat="48.10816" lon="-3.84815">
        <ele>119.1</ele>
        <time>2022-12-08T10:27:08Z</time>
      </trkpt>
      <trkpt lat="48.10817" lon="-3.84811">
        <ele>119.3</ele>
        <time>2022-12-08T10:27:09Z</time>
      </trkpt>
      <trkpt lat="48.10817" lon="-3.84806">
        <ele>119.5</ele>
        <time>2022-12-08T10:27:10Z</time>
      </trkpt>
      <trkpt lat="48.10819" lon="-3.848">
        <ele>119.8</ele>
        <time>2022-12-08T10:27:11Z</time>
      </trkpt>
      <trkpt lat="48.10819" lon="-3.84796">
        <ele>120</ele>
        <time>2022-12-08T10:27:12Z</time>
      </trkpt>
      <trkpt lat="48.1082" lon="-3.84791">
        <ele>120.2</ele>
        <time>2022-12-08T10:27:13Z</time>
      </trkpt>
      <trkpt lat="48.1082" lon="-3.84786">
        <ele>120.4</ele>
        <time>2022-12-08T10:27:14Z</time>
      </trkpt>
      <trkpt lat="48.10821" lon="-3.84781">
        <ele>120.6</ele>
        <time>2022-12-08T10:27:15Z</time>
      </trkpt>
      <trkpt lat="48.10821" lon="-3.84777">
        <ele>120.7</ele>
        <time>2022-12-08T10:27:16Z</time>
      </trkpt>
      <trkpt lat="48.10822" lon="-3.84773">
        <ele>120.9</ele>
        <time>2022-12-08T10:27:17Z</time>
      </trkpt>
      <trkpt lat="48.10822" lon="-3.84768">
        <ele>121.1</ele>
        <time>2022-12-08T10:27:18Z</time>
      </trkpt>
      <trkpt lat="48.10823" lon="-3.84764">
        <ele>121.3</ele>
        <time>2022-12-08T10:27:19Z</time>
      </trkpt>
      <trkpt lat="48.10823" lon="-3.84758">
        <ele>121.5</ele>
        <time>2022-12-08T10:27:20Z</time>
      </trkpt>
      <trkpt lat="48.10823" lon="-3.84755">
        <ele>121.6</ele>
        <time>2022-12-08T10:27:21Z</time>
      </trkpt>
      <trkpt lat="48.10824" lon="-3.84751">
        <ele>121.8</ele>
        <time>2022-12-08T10:27:22Z</time>
      </trkpt>
      <trkpt lat="48.10824" lon="-3.84747">
        <ele>122</ele>
        <time>2022-12-08T10:27:23Z</time>
      </trkpt>
      <trkpt lat="48.10825" lon="-3.84742">
        <ele>122.2</ele>
        <time>2022-12-08T10:27:24Z</time>
      </trkpt>
      <trkpt lat="48.10826" lon="-3.84738">
        <ele>122.3</ele>
        <time>2022-12-08T10:27:25Z</time>
      </trkpt>
      <trkpt lat="48.10826" lon="-3.84733">
        <ele>122.5</ele>
        <time>2022-12-08T10:27:26Z</time>
      </trkpt>
      <trkpt lat="48.10827" lon="-3.84727">
        <ele>122.7</ele>
        <time>2022-12-08T10:27:28Z</time>
      </trkpt>
      <trkpt lat="48.10829" lon="-3.84721">
        <ele>123</ele>
        <time>2022-12-08T10:27:29Z</time>
      </trkpt>
      <trkpt lat="48.1083" lon="-3.84715">
        <ele>123.2</ele>
        <time>2022-12-08T10:27:30Z</time>
      </trkpt>
      <trkpt lat="48.10831" lon="-3.8471">
        <ele>123.4</ele>
        <time>2022-12-08T10:27:31Z</time>
      </trkpt>
      <trkpt lat="48.10831" lon="-3.84705">
        <ele>123.5</ele>
        <time>2022-12-08T10:27:32Z</time>
      </trkpt>
      <trkpt lat="48.10833" lon="-3.847">
        <ele>123.7</ele>
        <time>2022-12-08T10:27:33Z</time>
      </trkpt>
      <trkpt lat="48.10834" lon="-3.84692">
        <ele>123.9</ele>
        <time>2022-12-08T10:27:35Z</time>
      </trkpt>
      <trkpt lat="48.10835" lon="-3.84685">
        <ele>124.2</ele>
        <time>2022-12-08T10:27:36Z</time>
      </trkpt>
      <trkpt lat="48.10836" lon="-3.8468">
        <ele>124.3</ele>
        <time>2022-12-08T10:27:37Z</time>
      </trkpt>
      <trkpt lat="48.10837" lon="-3.84675">
        <ele>124.4</ele>
        <time>2022-12-08T10:27:38Z</time>
      </trkpt>
      <trkpt lat="48.10838" lon="-3.8467">
        <ele>124.5</ele>
        <time>2022-12-08T10:27:39Z</time>
      </trkpt>
      <trkpt lat="48.10839" lon="-3.84665">
        <ele>124.6</ele>
        <time>2022-12-08T10:27:40Z</time>
      </trkpt>
      <trkpt lat="48.1084" lon="-3.8466">
        <ele>124.7</ele>
        <time>2022-12-08T10:27:41Z</time>
      </trkpt>
      <trkpt lat="48.10841" lon="-3.84655">
        <ele>124.7</ele>
        <time>2022-12-08T10:27:42Z</time>
      </trkpt>
      <trkpt lat="48.10842" lon="-3.8465">
        <ele>124.8</ele>
        <time>2022-12-08T10:27:43Z</time>
      </trkpt>
      <trkpt lat="48.10843" lon="-3.84645">
        <ele>124.8</ele>
        <time>2022-12-08T10:27:44Z</time>
      </trkpt>
      <trkpt lat="48.10845" lon="-3.8464">
        <ele>124.8</ele>
        <time>2022-12-08T10:27:45Z</time>
      </trkpt>
      <trkpt lat="48.10846" lon="-3.84634">
        <ele>124.8</ele>
        <time>2022-12-08T10:27:46Z</time>
      </trkpt>
      <trkpt lat="48.10847" lon="-3.84628">
        <ele>124.8</ele>
        <time>2022-12-08T10:27:47Z</time>
      </trkpt>
      <trkpt lat="48.10849" lon="-3.84622">
        <ele>124.7</ele>
        <time>2022-12-08T10:27:48Z</time>
      </trkpt>
      <trkpt lat="48.1085" lon="-3.84615">
        <ele>124.6</ele>
        <time>2022-12-08T10:27:49Z</time>
      </trkpt>
      <trkpt lat="48.10851" lon="-3.84608">
        <ele>124.5</ele>
        <time>2022-12-08T10:27:50Z</time>
      </trkpt>
      <trkpt lat="48.10853" lon="-3.84601">
        <ele>124.4</ele>
        <time>2022-12-08T10:27:51Z</time>
      </trkpt>
      <trkpt lat="48.10854" lon="-3.84594">
        <ele>124.3</ele>
        <time>2022-12-08T10:27:52Z</time>
      </trkpt>
      <trkpt lat="48.10856" lon="-3.84586">
        <ele>124.2</ele>
        <time>2022-12-08T10:27:53Z</time>
      </trkpt>
      <trkpt lat="48.10857" lon="-3.84579">
        <ele>124</ele>
        <time>2022-12-08T10:27:54Z</time>
      </trkpt>
      <trkpt lat="48.10858" lon="-3.84571">
        <ele>123.9</ele>
        <time>2022-12-08T10:27:55Z</time>
      </trkpt>
      <trkpt lat="48.1086" lon="-3.84562">
        <ele>123.7</ele>
        <time>2022-12-08T10:27:56Z</time>
      </trkpt>
      <trkpt lat="48.10861" lon="-3.84554">
        <ele>123.5</ele>
        <time>2022-12-08T10:27:57Z</time>
      </trkpt>
      <trkpt lat="48.10863" lon="-3.84545">
        <ele>123.2</ele>
        <time>2022-12-08T10:27:58Z</time>
      </trkpt>
      <trkpt lat="48.10864" lon="-3.84536">
        <ele>123</ele>
        <time>2022-12-08T10:27:59Z</time>
      </trkpt>
      <trkpt lat="48.10865" lon="-3.84527">
        <ele>122.7</ele>
        <time>2022-12-08T10:28:00Z</time>
      </trkpt>
      <trkpt lat="48.10867" lon="-3.84518">
        <ele>122.4</ele>
        <time>2022-12-08T10:28:01Z</time>
      </trkpt>
      <trkpt lat="48.10868" lon="-3.84509">
        <ele>122</ele>
        <time>2022-12-08T10:28:02Z</time>
      </trkpt>
      <trkpt lat="48.10869" lon="-3.84499">
        <ele>121.7</ele>
        <time>2022-12-08T10:28:03Z</time>
      </trkpt>
      <trkpt lat="48.10871" lon="-3.84489">
        <ele>121.4</ele>
        <time>2022-12-08T10:28:04Z</time>
      </trkpt>
      <trkpt lat="48.10872" lon="-3.84479">
        <ele>121.1</ele>
        <time>2022-12-08T10:28:05Z</time>
      </trkpt>
      <trkpt lat="48.10874" lon="-3.84469">
        <ele>120.8</ele>
        <time>2022-12-08T10:28:06Z</time>
      </trkpt>
      <trkpt lat="48.10875" lon="-3.84458">
        <ele>120.5</ele>
        <time>2022-12-08T10:28:07Z</time>
      </trkpt>
      <trkpt lat="48.10877" lon="-3.84447">
        <ele>120.2</ele>
        <time>2022-12-08T10:28:08Z</time>
      </trkpt>
      <trkpt lat="48.10879" lon="-3.84436">
        <ele>120</ele>
        <time>2022-12-08T10:28:09Z</time>
      </trkpt>
      <trkpt lat="48.10881" lon="-3.84425">
        <ele>119.7</ele>
        <time>2022-12-08T10:28:10Z</time>
      </trkpt>
      <trkpt lat="48.10883" lon="-3.84414">
        <ele>119.5</ele>
        <time>2022-12-08T10:28:11Z</time>
      </trkpt>
      <trkpt lat="48.10885" lon="-3.84404">
        <ele>119.3</ele>
        <time>2022-12-08T10:28:12Z</time>
      </trkpt>
      <trkpt lat="48.10887" lon="-3.84394">
        <ele>119.2</ele>
        <time>2022-12-08T10:28:13Z</time>
      </trkpt>
      <trkpt lat="48.10889" lon="-3.84384">
        <ele>119.1</ele>
        <time>2022-12-08T10:28:14Z</time>
      </trkpt>
      <trkpt lat="48.10891" lon="-3.84374">
        <ele>119</ele>
        <time>2022-12-08T10:28:15Z</time>
      </trkpt>
      <trkpt lat="48.10893" lon="-3.84364">
        <ele>119</ele>
        <time>2022-12-08T10:28:16Z</time>
      </trkpt>
      <trkpt lat="48.10895" lon="-3.84355">
        <ele>119</ele>
        <time>2022-12-08T10:28:17Z</time>
      </trkpt>
      <trkpt lat="48.10897" lon="-3.84345">
        <ele>119</ele>
        <time>2022-12-08T10:28:18Z</time>
      </trkpt>
      <trkpt lat="48.10899" lon="-3.84336">
        <ele>119.1</ele>
        <time>2022-12-08T10:28:19Z</time>
      </trkpt>
      <trkpt lat="48.109" lon="-3.84327">
        <ele>119.2</ele>
        <time>2022-12-08T10:28:20Z</time>
      </trkpt>
      <trkpt lat="48.10902" lon="-3.84318">
        <ele>119.4</ele>
        <time>2022-12-08T10:28:21Z</time>
      </trkpt>
      <trkpt lat="48.10903" lon="-3.8431">
        <ele>119.6</ele>
        <time>2022-12-08T10:28:22Z</time>
      </trkpt>
      <trkpt lat="48.10904" lon="-3.84301">
        <ele>119.8</ele>
        <time>2022-12-08T10:28:23Z</time>
      </trkpt>
      <trkpt lat="48.10906" lon="-3.84293">
        <ele>120</ele>
        <time>2022-12-08T10:28:24Z</time>
      </trkpt>
      <trkpt lat="48.10907" lon="-3.84284">
        <ele>120.2</ele>
        <time>2022-12-08T10:28:25Z</time>
      </trkpt>
      <trkpt lat="48.10908" lon="-3.84277">
        <ele>120.4</ele>
        <time>2022-12-08T10:28:26Z</time>
      </trkpt>
      <trkpt lat="48.10909" lon="-3.84269">
        <ele>120.6</ele>
        <time>2022-12-08T10:28:27Z</time>
      </trkpt>
      <trkpt lat="48.1091" lon="-3.84261">
        <ele>120.7</ele>
        <time>2022-12-08T10:28:28Z</time>
      </trkpt>
      <trkpt lat="48.10912" lon="-3.84254">
        <ele>120.9</ele>
        <time>2022-12-08T10:28:29Z</time>
      </trkpt>
      <trkpt lat="48.10913" lon="-3.84247">
        <ele>121.1</ele>
        <time>2022-12-08T10:28:30Z</time>
      </trkpt>
      <trkpt lat="48.10914" lon="-3.8424">
        <ele>121.2</ele>
        <time>2022-12-08T10:28:31Z</time>
      </trkpt>
      <trkpt lat="48.10915" lon="-3.84233">
        <ele>121.4</ele>
        <time>2022-12-08T10:28:32Z</time>
      </trkpt>
      <trkpt lat="48.10916" lon="-3.84226">
        <ele>121.5</ele>
        <time>2022-12-08T10:28:33Z</time>
      </trkpt>
      <trkpt lat="48.10917" lon="-3.84218">
        <ele>121.7</ele>
        <time>2022-12-08T10:28:34Z</time>
      </trkpt>
      <trkpt lat="48.10917" lon="-3.84211">
        <ele>121.8</ele>
        <time>2022-12-08T10:28:35Z</time>
      </trkpt>
      <trkpt lat="48.10918" lon="-3.84204">
        <ele>121.9</ele>
        <time>2022-12-08T10:28:36Z</time>
      </trkpt>
      <trkpt lat="48.10919" lon="-3.84197">
        <ele>122.1</ele>
        <time>2022-12-08T10:28:37Z</time>
      </trkpt>
      <trkpt lat="48.1092" lon="-3.84189">
        <ele>122.1</ele>
        <time>2022-12-08T10:28:38Z</time>
      </trkpt>
      <trkpt lat="48.10921" lon="-3.84182">
        <ele>122.2</ele>
        <time>2022-12-08T10:28:39Z</time>
      </trkpt>
      <trkpt lat="48.10922" lon="-3.84175">
        <ele>122.3</ele>
        <time>2022-12-08T10:28:40Z</time>
      </trkpt>
      <trkpt lat="48.10923" lon="-3.84168">
        <ele>122.3</ele>
        <time>2022-12-08T10:28:41Z</time>
      </trkpt>
      <trkpt lat="48.10924" lon="-3.84161">
        <ele>122.4</ele>
        <time>2022-12-08T10:28:42Z</time>
      </trkpt>
      <trkpt lat="48.10925" lon="-3.84154">
        <ele>122.4</ele>
        <time>2022-12-08T10:28:43Z</time>
      </trkpt>
      <trkpt lat="48.10926" lon="-3.84146">
        <ele>122.5</ele>
        <time>2022-12-08T10:28:44Z</time>
      </trkpt>
      <trkpt lat="48.10927" lon="-3.84138">
        <ele>122.5</ele>
        <time>2022-12-08T10:28:45Z</time>
      </trkpt>
      <trkpt lat="48.10928" lon="-3.84131">
        <ele>122.5</ele>
        <time>2022-12-08T10:28:46Z</time>
      </trkpt>
      <trkpt lat="48.10929" lon="-3.84123">
        <ele>122.5</ele>
        <time>2022-12-08T10:28:47Z</time>
      </trkpt>
      <trkpt lat="48.1093" lon="-3.84115">
        <ele>122.5</ele>
        <time>2022-12-08T10:28:48Z</time>
      </trkpt>
      <trkpt lat="48.10931" lon="-3.84108">
        <ele>122.5</ele>
        <time>2022-12-08T10:28:49Z</time>
      </trkpt>
      <trkpt lat="48.10932" lon="-3.841">
        <ele>122.4</ele>
        <time>2022-12-08T10:28:50Z</time>
      </trkpt>
      <trkpt lat="48.10933" lon="-3.84092">
        <ele>122.4</ele>
        <time>2022-12-08T10:28:51Z</time>
      </trkpt>
      <trkpt lat="48.10934" lon="-3.84084">
        <ele>122.3</ele>
        <time>2022-12-08T10:28:52Z</time>
      </trkpt>
      <trkpt lat="48.10935" lon="-3.84075">
        <ele>122.3</ele>
        <time>2022-12-08T10:28:53Z</time>
      </trkpt>
      <trkpt lat="48.10936" lon="-3.84066">
        <ele>122.2</ele>
        <time>2022-12-08T10:28:54Z</time>
      </trkpt>
      <trkpt lat="48.10937" lon="-3.84058">
        <ele>122.1</ele>
        <time>2022-12-08T10:28:55Z</time>
      </trkpt>
      <trkpt lat="48.10937" lon="-3.8405">
        <ele>122.1</ele>
        <time>2022-12-08T10:28:56Z</time>
      </trkpt>
      <trkpt lat="48.10937" lon="-3.84041">
        <ele>122</ele>
        <time>2022-12-08T10:28:57Z</time>
      </trkpt>
      <trkpt lat="48.10938" lon="-3.84033">
        <ele>122</ele>
        <time>2022-12-08T10:28:58Z</time>
      </trkpt>
      <trkpt lat="48.10939" lon="-3.84025">
        <ele>121.9</ele>
        <time>2022-12-08T10:28:59Z</time>
      </trkpt>
      <trkpt lat="48.1094" lon="-3.84017">
        <ele>121.9</ele>
        <time>2022-12-08T10:29:00Z</time>
      </trkpt>
      <trkpt lat="48.1094" lon="-3.84009">
        <ele>121.9</ele>
        <time>2022-12-08T10:29:01Z</time>
      </trkpt>
      <trkpt lat="48.10941" lon="-3.84">
        <ele>121.8</ele>
        <time>2022-12-08T10:29:02Z</time>
      </trkpt>
      <trkpt lat="48.10942" lon="-3.83992">
        <ele>121.8</ele>
        <time>2022-12-08T10:29:03Z</time>
      </trkpt>
      <trkpt lat="48.10942" lon="-3.83984">
        <ele>121.8</ele>
        <time>2022-12-08T10:29:04Z</time>
      </trkpt>
      <trkpt lat="48.10943" lon="-3.83975">
        <ele>121.8</ele>
        <time>2022-12-08T10:29:05Z</time>
      </trkpt>
      <trkpt lat="48.10944" lon="-3.83966">
        <ele>121.8</ele>
        <time>2022-12-08T10:29:06Z</time>
      </trkpt>
      <trkpt lat="48.10945" lon="-3.83958">
        <ele>121.8</ele>
        <time>2022-12-08T10:29:07Z</time>
      </trkpt>
      <trkpt lat="48.10945" lon="-3.8395">
        <ele>121.9</ele>
        <time>2022-12-08T10:29:08Z</time>
      </trkpt>
      <trkpt lat="48.10946" lon="-3.83942">
        <ele>121.9</ele>
        <time>2022-12-08T10:29:09Z</time>
      </trkpt>
      <trkpt lat="48.10947" lon="-3.83934">
        <ele>122</ele>
        <time>2022-12-08T10:29:10Z</time>
      </trkpt>
      <trkpt lat="48.10947" lon="-3.83926">
        <ele>122.1</ele>
        <time>2022-12-08T10:29:11Z</time>
      </trkpt>
      <trkpt lat="48.10948" lon="-3.83918">
        <ele>122.2</ele>
        <time>2022-12-08T10:29:12Z</time>
      </trkpt>
      <trkpt lat="48.10948" lon="-3.8391">
        <ele>122.3</ele>
        <time>2022-12-08T10:29:13Z</time>
      </trkpt>
      <trkpt lat="48.10949" lon="-3.83902">
        <ele>122.4</ele>
        <time>2022-12-08T10:29:14Z</time>
      </trkpt>
      <trkpt lat="48.10949" lon="-3.83894">
        <ele>122.5</ele>
        <time>2022-12-08T10:29:15Z</time>
      </trkpt>
      <trkpt lat="48.1095" lon="-3.83887">
        <ele>122.6</ele>
        <time>2022-12-08T10:29:16Z</time>
      </trkpt>
      <trkpt lat="48.1095" lon="-3.83879">
        <ele>122.8</ele>
        <time>2022-12-08T10:29:17Z</time>
      </trkpt>
      <trkpt lat="48.10951" lon="-3.83872">
        <ele>122.9</ele>
        <time>2022-12-08T10:29:18Z</time>
      </trkpt>
      <trkpt lat="48.10951" lon="-3.83864">
        <ele>123</ele>
        <time>2022-12-08T10:29:19Z</time>
      </trkpt>
      <trkpt lat="48.10952" lon="-3.83856">
        <ele>123.2</ele>
        <time>2022-12-08T10:29:20Z</time>
      </trkpt>
      <trkpt lat="48.10952" lon="-3.83849">
        <ele>123.3</ele>
        <time>2022-12-08T10:29:21Z</time>
      </trkpt>
      <trkpt lat="48.10953" lon="-3.83842">
        <ele>123.4</ele>
        <time>2022-12-08T10:29:22Z</time>
      </trkpt>
      <trkpt lat="48.10953" lon="-3.83834">
        <ele>123.6</ele>
        <time>2022-12-08T10:29:23Z</time>
      </trkpt>
      <trkpt lat="48.10954" lon="-3.83827">
        <ele>123.7</ele>
        <time>2022-12-08T10:29:24Z</time>
      </trkpt>
      <trkpt lat="48.10954" lon="-3.8382">
        <ele>123.9</ele>
        <time>2022-12-08T10:29:25Z</time>
      </trkpt>
      <trkpt lat="48.10955" lon="-3.83813">
        <ele>124.1</ele>
        <time>2022-12-08T10:29:26Z</time>
      </trkpt>
      <trkpt lat="48.10955" lon="-3.83805">
        <ele>124.2</ele>
        <time>2022-12-08T10:29:27Z</time>
      </trkpt>
      <trkpt lat="48.10956" lon="-3.83798">
        <ele>124.4</ele>
        <time>2022-12-08T10:29:28Z</time>
      </trkpt>
      <trkpt lat="48.10956" lon="-3.83791">
        <ele>124.6</ele>
        <time>2022-12-08T10:29:29Z</time>
      </trkpt>
      <trkpt lat="48.10956" lon="-3.83784">
        <ele>124.7</ele>
        <time>2022-12-08T10:29:30Z</time>
      </trkpt>
      <trkpt lat="48.10957" lon="-3.83777">
        <ele>124.9</ele>
        <time>2022-12-08T10:29:31Z</time>
      </trkpt>
      <trkpt lat="48.10957" lon="-3.8377">
        <ele>125</ele>
        <time>2022-12-08T10:29:32Z</time>
      </trkpt>
      <trkpt lat="48.10958" lon="-3.83762">
        <ele>125.2</ele>
        <time>2022-12-08T10:29:33Z</time>
      </trkpt>
      <trkpt lat="48.10958" lon="-3.83755">
        <ele>125.3</ele>
        <time>2022-12-08T10:29:34Z</time>
      </trkpt>
      <trkpt lat="48.10959" lon="-3.83747">
        <ele>125.5</ele>
        <time>2022-12-08T10:29:35Z</time>
      </trkpt>
      <trkpt lat="48.10959" lon="-3.8374">
        <ele>125.6</ele>
        <time>2022-12-08T10:29:36Z</time>
      </trkpt>
      <trkpt lat="48.1096" lon="-3.83733">
        <ele>125.8</ele>
        <time>2022-12-08T10:29:37Z</time>
      </trkpt>
      <trkpt lat="48.1096" lon="-3.83726">
        <ele>125.9</ele>
        <time>2022-12-08T10:29:38Z</time>
      </trkpt>
      <trkpt lat="48.10961" lon="-3.83719">
        <ele>126.1</ele>
        <time>2022-12-08T10:29:39Z</time>
      </trkpt>
      <trkpt lat="48.10961" lon="-3.83712">
        <ele>126.2</ele>
        <time>2022-12-08T10:29:40Z</time>
      </trkpt>
      <trkpt lat="48.10961" lon="-3.83705">
        <ele>126.3</ele>
        <time>2022-12-08T10:29:41Z</time>
      </trkpt>
      <trkpt lat="48.10961" lon="-3.83698">
        <ele>126.4</ele>
        <time>2022-12-08T10:29:42Z</time>
      </trkpt>
      <trkpt lat="48.10962" lon="-3.83691">
        <ele>126.4</ele>
        <time>2022-12-08T10:29:43Z</time>
      </trkpt>
      <trkpt lat="48.10962" lon="-3.83684">
        <ele>126.4</ele>
        <time>2022-12-08T10:29:44Z</time>
      </trkpt>
      <trkpt lat="48.10963" lon="-3.83677">
        <ele>126.4</ele>
        <time>2022-12-08T10:29:45Z</time>
      </trkpt>
      <trkpt lat="48.10963" lon="-3.83671">
        <ele>126.4</ele>
        <time>2022-12-08T10:29:46Z</time>
      </trkpt>
      <trkpt lat="48.10964" lon="-3.83665">
        <ele>126.4</ele>
        <time>2022-12-08T10:29:47Z</time>
      </trkpt>
      <trkpt lat="48.10964" lon="-3.83658">
        <ele>126.4</ele>
        <time>2022-12-08T10:29:48Z</time>
      </trkpt>
      <trkpt lat="48.10965" lon="-3.83652">
        <ele>126.3</ele>
        <time>2022-12-08T10:29:49Z</time>
      </trkpt>
      <trkpt lat="48.10965" lon="-3.83645">
        <ele>126.2</ele>
        <time>2022-12-08T10:29:50Z</time>
      </trkpt>
      <trkpt lat="48.10966" lon="-3.83638">
        <ele>126.1</ele>
        <time>2022-12-08T10:29:51Z</time>
      </trkpt>
      <trkpt lat="48.10967" lon="-3.8363">
        <ele>125.9</ele>
        <time>2022-12-08T10:29:52Z</time>
      </trkpt>
      <trkpt lat="48.10968" lon="-3.83623">
        <ele>125.7</ele>
        <time>2022-12-08T10:29:53Z</time>
      </trkpt>
      <trkpt lat="48.10969" lon="-3.83616">
        <ele>125.5</ele>
        <time>2022-12-08T10:29:54Z</time>
      </trkpt>
      <trkpt lat="48.10971" lon="-3.83608">
        <ele>125.2</ele>
        <time>2022-12-08T10:29:55Z</time>
      </trkpt>
      <trkpt lat="48.10974" lon="-3.83599">
        <ele>124.9</ele>
        <time>2022-12-08T10:29:56Z</time>
      </trkpt>
      <trkpt lat="48.10976" lon="-3.83591">
        <ele>124.5</ele>
        <time>2022-12-08T10:29:57Z</time>
      </trkpt>
      <trkpt lat="48.10979" lon="-3.83582">
        <ele>124.2</ele>
        <time>2022-12-08T10:29:58Z</time>
      </trkpt>
      <trkpt lat="48.10983" lon="-3.83574">
        <ele>123.8</ele>
        <time>2022-12-08T10:29:59Z</time>
      </trkpt>
      <trkpt lat="48.10986" lon="-3.83566">
        <ele>123.4</ele>
        <time>2022-12-08T10:30:00Z</time>
      </trkpt>
      <trkpt lat="48.1099" lon="-3.83557">
        <ele>123</ele>
        <time>2022-12-08T10:30:01Z</time>
      </trkpt>
      <trkpt lat="48.10994" lon="-3.83548">
        <ele>122.6</ele>
        <time>2022-12-08T10:30:02Z</time>
      </trkpt>
      <trkpt lat="48.10997" lon="-3.83539">
        <ele>122.2</ele>
        <time>2022-12-08T10:30:03Z</time>
      </trkpt>
      <trkpt lat="48.11001" lon="-3.83529">
        <ele>121.7</ele>
        <time>2022-12-08T10:30:04Z</time>
      </trkpt>
      <trkpt lat="48.11006" lon="-3.8352">
        <ele>121.2</ele>
        <time>2022-12-08T10:30:05Z</time>
      </trkpt>
      <trkpt lat="48.1101" lon="-3.8351">
        <ele>120.7</ele>
        <time>2022-12-08T10:30:06Z</time>
      </trkpt>
      <trkpt lat="48.11015" lon="-3.835">
        <ele>120.1</ele>
        <time>2022-12-08T10:30:07Z</time>
      </trkpt>
      <trkpt lat="48.11019" lon="-3.83489">
        <ele>119.5</ele>
        <time>2022-12-08T10:30:08Z</time>
      </trkpt>
      <trkpt lat="48.11023" lon="-3.83479">
        <ele>118.8</ele>
        <time>2022-12-08T10:30:09Z</time>
      </trkpt>
      <trkpt lat="48.11028" lon="-3.83469">
        <ele>118.1</ele>
        <time>2022-12-08T10:30:10Z</time>
      </trkpt>
      <trkpt lat="48.11033" lon="-3.83458">
        <ele>117.5</ele>
        <time>2022-12-08T10:30:11Z</time>
      </trkpt>
      <trkpt lat="48.11037" lon="-3.83447">
        <ele>116.8</ele>
        <time>2022-12-08T10:30:12Z</time>
      </trkpt>
      <trkpt lat="48.11041" lon="-3.83436">
        <ele>116.2</ele>
        <time>2022-12-08T10:30:13Z</time>
      </trkpt>
      <trkpt lat="48.11046" lon="-3.83425">
        <ele>115.5</ele>
        <time>2022-12-08T10:30:14Z</time>
      </trkpt>
      <trkpt lat="48.11051" lon="-3.83413">
        <ele>114.8</ele>
        <time>2022-12-08T10:30:15Z</time>
      </trkpt>
      <trkpt lat="48.11056" lon="-3.83402">
        <ele>114.2</ele>
        <time>2022-12-08T10:30:16Z</time>
      </trkpt>
      <trkpt lat="48.11062" lon="-3.83391">
        <ele>113.6</ele>
        <time>2022-12-08T10:30:17Z</time>
      </trkpt>
      <trkpt lat="48.11067" lon="-3.83381">
        <ele>113</ele>
        <time>2022-12-08T10:30:18Z</time>
      </trkpt>
      <trkpt lat="48.11074" lon="-3.8337">
        <ele>112.5</ele>
        <time>2022-12-08T10:30:19Z</time>
      </trkpt>
      <trkpt lat="48.1108" lon="-3.8336">
        <ele>112</ele>
        <time>2022-12-08T10:30:20Z</time>
      </trkpt>
      <trkpt lat="48.11086" lon="-3.83349">
        <ele>111.6</ele>
        <time>2022-12-08T10:30:21Z</time>
      </trkpt>
      <trkpt lat="48.11093" lon="-3.83339">
        <ele>111.2</ele>
        <time>2022-12-08T10:30:22Z</time>
      </trkpt>
      <trkpt lat="48.11099" lon="-3.83329">
        <ele>110.9</ele>
        <time>2022-12-08T10:30:23Z</time>
      </trkpt>
      <trkpt lat="48.11106" lon="-3.8332">
        <ele>110.7</ele>
        <time>2022-12-08T10:30:24Z</time>
      </trkpt>
      <trkpt lat="48.11112" lon="-3.8331">
        <ele>110.6</ele>
        <time>2022-12-08T10:30:25Z</time>
      </trkpt>
      <trkpt lat="48.11118" lon="-3.83301">
        <ele>110.5</ele>
        <time>2022-12-08T10:30:26Z</time>
      </trkpt>
      <trkpt lat="48.11124" lon="-3.83293">
        <ele>110.4</ele>
        <time>2022-12-08T10:30:27Z</time>
      </trkpt>
      <trkpt lat="48.1113" lon="-3.83284">
        <ele>110.4</ele>
        <time>2022-12-08T10:30:28Z</time>
      </trkpt>
      <trkpt lat="48.11135" lon="-3.83276">
        <ele>110.4</ele>
        <time>2022-12-08T10:30:29Z</time>
      </trkpt>
      <trkpt lat="48.11141" lon="-3.83268">
        <ele>110.4</ele>
        <time>2022-12-08T10:30:30Z</time>
      </trkpt>
      <trkpt lat="48.11146" lon="-3.83259">
        <ele>110.4</ele>
        <time>2022-12-08T10:30:31Z</time>
      </trkpt>
      <trkpt lat="48.1115" lon="-3.8325">
        <ele>110.4</ele>
        <time>2022-12-08T10:30:32Z</time>
      </trkpt>
      <trkpt lat="48.11154" lon="-3.8324">
        <ele>110.5</ele>
        <time>2022-12-08T10:30:33Z</time>
      </trkpt>
      <trkpt lat="48.11157" lon="-3.8323">
        <ele>110.6</ele>
        <time>2022-12-08T10:30:34Z</time>
      </trkpt>
      <trkpt lat="48.11158" lon="-3.8322">
        <ele>110.7</ele>
        <time>2022-12-08T10:30:35Z</time>
      </trkpt>
      <trkpt lat="48.11158" lon="-3.8321">
        <ele>110.9</ele>
        <time>2022-12-08T10:30:36Z</time>
      </trkpt>
      <trkpt lat="48.11158" lon="-3.832">
        <ele>111.1</ele>
        <time>2022-12-08T10:30:37Z</time>
      </trkpt>
      <trkpt lat="48.11158" lon="-3.83191">
        <ele>111.2</ele>
        <time>2022-12-08T10:30:38Z</time>
      </trkpt>
      <trkpt lat="48.11159" lon="-3.83182">
        <ele>111.4</ele>
        <time>2022-12-08T10:30:39Z</time>
      </trkpt>
      <trkpt lat="48.11158" lon="-3.83173">
        <ele>111.7</ele>
        <time>2022-12-08T10:30:40Z</time>
      </trkpt>
      <trkpt lat="48.11158" lon="-3.83165">
        <ele>111.9</ele>
        <time>2022-12-08T10:30:41Z</time>
      </trkpt>
      <trkpt lat="48.11158" lon="-3.83157">
        <ele>112.1</ele>
        <time>2022-12-08T10:30:42Z</time>
      </trkpt>
      <trkpt lat="48.11158" lon="-3.83148">
        <ele>112.3</ele>
        <time>2022-12-08T10:30:43Z</time>
      </trkpt>
      <trkpt lat="48.11158" lon="-3.8314">
        <ele>112.6</ele>
        <time>2022-12-08T10:30:44Z</time>
      </trkpt>
      <trkpt lat="48.11158" lon="-3.83132">
        <ele>112.8</ele>
        <time>2022-12-08T10:30:45Z</time>
      </trkpt>
      <trkpt lat="48.11158" lon="-3.83125">
        <ele>113.1</ele>
        <time>2022-12-08T10:30:46Z</time>
      </trkpt>
      <trkpt lat="48.11158" lon="-3.83118">
        <ele>113.4</ele>
        <time>2022-12-08T10:30:47Z</time>
      </trkpt>
      <trkpt lat="48.11158" lon="-3.8311">
        <ele>113.7</ele>
        <time>2022-12-08T10:30:48Z</time>
      </trkpt>
      <trkpt lat="48.11158" lon="-3.83103">
        <ele>114</ele>
        <time>2022-12-08T10:30:49Z</time>
      </trkpt>
      <trkpt lat="48.11158" lon="-3.83096">
        <ele>114.3</ele>
        <time>2022-12-08T10:30:50Z</time>
      </trkpt>
      <trkpt lat="48.11158" lon="-3.8309">
        <ele>114.6</ele>
        <time>2022-12-08T10:30:51Z</time>
      </trkpt>
      <trkpt lat="48.11158" lon="-3.83083">
        <ele>114.8</ele>
        <time>2022-12-08T10:30:52Z</time>
      </trkpt>
      <trkpt lat="48.11157" lon="-3.83076">
        <ele>115.1</ele>
        <time>2022-12-08T10:30:53Z</time>
      </trkpt>
      <trkpt lat="48.11157" lon="-3.8307">
        <ele>115.4</ele>
        <time>2022-12-08T10:30:54Z</time>
      </trkpt>
      <trkpt lat="48.11158" lon="-3.83063">
        <ele>115.6</ele>
        <time>2022-12-08T10:30:55Z</time>
      </trkpt>
      <trkpt lat="48.11158" lon="-3.83057">
        <ele>115.9</ele>
        <time>2022-12-08T10:30:56Z</time>
      </trkpt>
      <trkpt lat="48.11158" lon="-3.83052">
        <ele>116.1</ele>
        <time>2022-12-08T10:30:57Z</time>
      </trkpt>
      <trkpt lat="48.11158" lon="-3.83046">
        <ele>116.3</ele>
        <time>2022-12-08T10:30:58Z</time>
      </trkpt>
      <trkpt lat="48.11158" lon="-3.83039">
        <ele>116.5</ele>
        <time>2022-12-08T10:30:59Z</time>
      </trkpt>
      <trkpt lat="48.11157" lon="-3.8303">
        <ele>116.9</ele>
        <time>2022-12-08T10:31:00Z</time>
      </trkpt>
      <trkpt lat="48.11157" lon="-3.83024">
        <ele>117.1</ele>
        <time>2022-12-08T10:31:02Z</time>
      </trkpt>
      <trkpt lat="48.11157" lon="-3.8302">
        <ele>117.2</ele>
        <time>2022-12-08T10:31:03Z</time>
      </trkpt>
      <trkpt lat="48.11158" lon="-3.83012">
        <ele>117.5</ele>
        <time>2022-12-08T10:31:04Z</time>
      </trkpt>
      <trkpt lat="48.11158" lon="-3.83006">
        <ele>117.7</ele>
        <time>2022-12-08T10:31:05Z</time>
      </trkpt>
      <trkpt lat="48.11158" lon="-3.82999">
        <ele>117.9</ele>
        <time>2022-12-08T10:31:06Z</time>
      </trkpt>
      <trkpt lat="48.11158" lon="-3.8299">
        <ele>118.1</ele>
        <time>2022-12-08T10:31:08Z</time>
      </trkpt>
      <trkpt lat="48.11157" lon="-3.82985">
        <ele>118.3</ele>
        <time>2022-12-08T10:31:09Z</time>
      </trkpt>
      <trkpt lat="48.11157" lon="-3.82979">
        <ele>118.5</ele>
        <time>2022-12-08T10:31:10Z</time>
      </trkpt>
      <trkpt lat="48.11157" lon="-3.8297">
        <ele>118.7</ele>
        <time>2022-12-08T10:31:11Z</time>
      </trkpt>
      <trkpt lat="48.11157" lon="-3.82962">
        <ele>118.9</ele>
        <time>2022-12-08T10:31:13Z</time>
      </trkpt>
      <trkpt lat="48.11157" lon="-3.82953">
        <ele>119.2</ele>
        <time>2022-12-08T10:31:14Z</time>
      </trkpt>
      <trkpt lat="48.11157" lon="-3.82948">
        <ele>119.3</ele>
        <time>2022-12-08T10:31:15Z</time>
      </trkpt>
      <trkpt lat="48.11157" lon="-3.8294">
        <ele>119.5</ele>
        <time>2022-12-08T10:31:17Z</time>
      </trkpt>
      <trkpt lat="48.11157" lon="-3.82934">
        <ele>119.6</ele>
        <time>2022-12-08T10:31:18Z</time>
      </trkpt>
      <trkpt lat="48.11157" lon="-3.82928">
        <ele>119.8</ele>
        <time>2022-12-08T10:31:19Z</time>
      </trkpt>
      <trkpt lat="48.11157" lon="-3.82919">
        <ele>119.9</ele>
        <time>2022-12-08T10:31:20Z</time>
      </trkpt>
      <trkpt lat="48.11157" lon="-3.82913">
        <ele>120</ele>
        <time>2022-12-08T10:31:21Z</time>
      </trkpt>
      <trkpt lat="48.11157" lon="-3.82907">
        <ele>120</ele>
        <time>2022-12-08T10:31:22Z</time>
      </trkpt>
      <trkpt lat="48.11158" lon="-3.82898">
        <ele>120.1</ele>
        <time>2022-12-08T10:31:24Z</time>
      </trkpt>
      <trkpt lat="48.11158" lon="-3.82891">
        <ele>120.1</ele>
        <time>2022-12-08T10:31:25Z</time>
      </trkpt>
      <trkpt lat="48.11158" lon="-3.82882">
        <ele>120.1</ele>
        <time>2022-12-08T10:31:26Z</time>
      </trkpt>
      <trkpt lat="48.11158" lon="-3.82876">
        <ele>120</ele>
        <time>2022-12-08T10:31:27Z</time>
      </trkpt>
      <trkpt lat="48.11158" lon="-3.82869">
        <ele>120</ele>
        <time>2022-12-08T10:31:28Z</time>
      </trkpt>
      <trkpt lat="48.11158" lon="-3.82859">
        <ele>119.8</ele>
        <time>2022-12-08T10:31:30Z</time>
      </trkpt>
      <trkpt lat="48.11157" lon="-3.82853">
        <ele>119.8</ele>
        <time>2022-12-08T10:31:31Z</time>
      </trkpt>
      <trkpt lat="48.11157" lon="-3.82846">
        <ele>119.6</ele>
        <time>2022-12-08T10:31:32Z</time>
      </trkpt>
      <trkpt lat="48.11157" lon="-3.82837">
        <ele>119.5</ele>
        <time>2022-12-08T10:31:33Z</time>
      </trkpt>
      <trkpt lat="48.11157" lon="-3.82829">
        <ele>119.3</ele>
        <time>2022-12-08T10:31:34Z</time>
      </trkpt>
      <trkpt lat="48.11158" lon="-3.82822">
        <ele>119.1</ele>
        <time>2022-12-08T10:31:35Z</time>
      </trkpt>
      <trkpt lat="48.11157" lon="-3.82814">
        <ele>118.9</ele>
        <time>2022-12-08T10:31:36Z</time>
      </trkpt>
      <trkpt lat="48.11158" lon="-3.82806">
        <ele>118.7</ele>
        <time>2022-12-08T10:31:37Z</time>
      </trkpt>
      <trkpt lat="48.11158" lon="-3.82798">
        <ele>118.5</ele>
        <time>2022-12-08T10:31:38Z</time>
      </trkpt>
      <trkpt lat="48.11158" lon="-3.82789">
        <ele>118.2</ele>
        <time>2022-12-08T10:31:39Z</time>
      </trkpt>
      <trkpt lat="48.11157" lon="-3.8278">
        <ele>118</ele>
        <time>2022-12-08T10:31:40Z</time>
      </trkpt>
      <trkpt lat="48.11157" lon="-3.82772">
        <ele>117.7</ele>
        <time>2022-12-08T10:31:41Z</time>
      </trkpt>
      <trkpt lat="48.11157" lon="-3.82762">
        <ele>117.4</ele>
        <time>2022-12-08T10:31:42Z</time>
      </trkpt>
      <trkpt lat="48.11157" lon="-3.82753">
        <ele>117.1</ele>
        <time>2022-12-08T10:31:43Z</time>
      </trkpt>
      <trkpt lat="48.11157" lon="-3.82743">
        <ele>116.8</ele>
        <time>2022-12-08T10:31:44Z</time>
      </trkpt>
      <trkpt lat="48.11157" lon="-3.82734">
        <ele>116.6</ele>
        <time>2022-12-08T10:31:45Z</time>
      </trkpt>
      <trkpt lat="48.11157" lon="-3.82724">
        <ele>116.3</ele>
        <time>2022-12-08T10:31:46Z</time>
      </trkpt>
      <trkpt lat="48.11157" lon="-3.82714">
        <ele>116</ele>
        <time>2022-12-08T10:31:47Z</time>
      </trkpt>
      <trkpt lat="48.11157" lon="-3.82703">
        <ele>115.6</ele>
        <time>2022-12-08T10:31:48Z</time>
      </trkpt>
      <trkpt lat="48.11157" lon="-3.82692">
        <ele>115</ele>
        <time>2022-12-08T10:31:49Z</time>
      </trkpt>
      <trkpt lat="48.11157" lon="-3.82682">
        <ele>114.5</ele>
        <time>2022-12-08T10:31:50Z</time>
      </trkpt>
      <trkpt lat="48.11157" lon="-3.82671">
        <ele>114</ele>
        <time>2022-12-08T10:31:51Z</time>
      </trkpt>
      <trkpt lat="48.11157" lon="-3.8266">
        <ele>113.5</ele>
        <time>2022-12-08T10:31:52Z</time>
      </trkpt>
      <trkpt lat="48.11158" lon="-3.82649">
        <ele>113.1</ele>
        <time>2022-12-08T10:31:53Z</time>
      </trkpt>
      <trkpt lat="48.11158" lon="-3.82638">
        <ele>112.7</ele>
        <time>2022-12-08T10:31:54Z</time>
      </trkpt>
      <trkpt lat="48.11158" lon="-3.82627">
        <ele>112.4</ele>
        <time>2022-12-08T10:31:55Z</time>
      </trkpt>
      <trkpt lat="48.11157" lon="-3.82616">
        <ele>112.1</ele>
        <time>2022-12-08T10:31:56Z</time>
      </trkpt>
      <trkpt lat="48.11157" lon="-3.82605">
        <ele>111.9</ele>
        <time>2022-12-08T10:31:57Z</time>
      </trkpt>
      <trkpt lat="48.11157" lon="-3.82595">
        <ele>111.7</ele>
        <time>2022-12-08T10:31:58Z</time>
      </trkpt>
      <trkpt lat="48.11157" lon="-3.82585">
        <ele>111.6</ele>
        <time>2022-12-08T10:31:59Z</time>
      </trkpt>
      <trkpt lat="48.11157" lon="-3.82576">
        <ele>111.7</ele>
        <time>2022-12-08T10:32:00Z</time>
      </trkpt>
      <trkpt lat="48.11157" lon="-3.82566">
        <ele>111.7</ele>
        <time>2022-12-08T10:32:01Z</time>
      </trkpt>
      <trkpt lat="48.11157" lon="-3.82558">
        <ele>111.8</ele>
        <time>2022-12-08T10:32:02Z</time>
      </trkpt>
      <trkpt lat="48.11157" lon="-3.82549">
        <ele>112</ele>
        <time>2022-12-08T10:32:03Z</time>
      </trkpt>
      <trkpt lat="48.11157" lon="-3.8254">
        <ele>112.2</ele>
        <time>2022-12-08T10:32:04Z</time>
      </trkpt>
      <trkpt lat="48.11158" lon="-3.82532">
        <ele>112.4</ele>
        <time>2022-12-08T10:32:05Z</time>
      </trkpt>
      <trkpt lat="48.11158" lon="-3.82525">
        <ele>112.7</ele>
        <time>2022-12-08T10:32:06Z</time>
      </trkpt>
      <trkpt lat="48.11159" lon="-3.82518">
        <ele>113</ele>
        <time>2022-12-08T10:32:07Z</time>
      </trkpt>
      <trkpt lat="48.11159" lon="-3.82511">
        <ele>113.2</ele>
        <time>2022-12-08T10:32:08Z</time>
      </trkpt>
      <trkpt lat="48.11161" lon="-3.82505">
        <ele>113.5</ele>
        <time>2022-12-08T10:32:09Z</time>
      </trkpt>
      <trkpt lat="48.11162" lon="-3.82501">
        <ele>113.7</ele>
        <time>2022-12-08T10:32:10Z</time>
      </trkpt>
      <trkpt lat="48.11162" lon="-3.82496">
        <ele>113.9</ele>
        <time>2022-12-08T10:32:11Z</time>
      </trkpt>
      <trkpt lat="48.11164" lon="-3.82491">
        <ele>114.2</ele>
        <time>2022-12-08T10:32:12Z</time>
      </trkpt>
      <trkpt lat="48.11165" lon="-3.82485">
        <ele>114.5</ele>
        <time>2022-12-08T10:32:13Z</time>
      </trkpt>
      <trkpt lat="48.11166" lon="-3.8248">
        <ele>114.8</ele>
        <time>2022-12-08T10:32:14Z</time>
      </trkpt>
      <trkpt lat="48.11167" lon="-3.82475">
        <ele>115</ele>
        <time>2022-12-08T10:32:15Z</time>
      </trkpt>
      <trkpt lat="48.11169" lon="-3.82469">
        <ele>115.4</ele>
        <time>2022-12-08T10:32:16Z</time>
      </trkpt>
      <trkpt lat="48.11169" lon="-3.82463">
        <ele>115.7</ele>
        <time>2022-12-08T10:32:18Z</time>
      </trkpt>
      <trkpt lat="48.11171" lon="-3.82455">
        <ele>116.2</ele>
        <time>2022-12-08T10:32:19Z</time>
      </trkpt>
      <trkpt lat="48.11173" lon="-3.82448">
        <ele>116.6</ele>
        <time>2022-12-08T10:32:20Z</time>
      </trkpt>
      <trkpt lat="48.11174" lon="-3.82442">
        <ele>116.9</ele>
        <time>2022-12-08T10:32:21Z</time>
      </trkpt>
      <trkpt lat="48.11176" lon="-3.82438">
        <ele>117.2</ele>
        <time>2022-12-08T10:32:22Z</time>
      </trkpt>
      <trkpt lat="48.11178" lon="-3.82428">
        <ele>117.8</ele>
        <time>2022-12-08T10:32:24Z</time>
      </trkpt>
      <trkpt lat="48.1118" lon="-3.82421">
        <ele>118.2</ele>
        <time>2022-12-08T10:32:25Z</time>
      </trkpt>
      <trkpt lat="48.11181" lon="-3.82417">
        <ele>118.5</ele>
        <time>2022-12-08T10:32:26Z</time>
      </trkpt>
      <trkpt lat="48.11182" lon="-3.82409">
        <ele>118.9</ele>
        <time>2022-12-08T10:32:28Z</time>
      </trkpt>
      <trkpt lat="48.11183" lon="-3.82402">
        <ele>119.2</ele>
        <time>2022-12-08T10:32:29Z</time>
      </trkpt>
      <trkpt lat="48.11183" lon="-3.824">
        <ele>119.3</ele>
        <time>2022-12-08T10:32:30Z</time>
      </trkpt>
      <trkpt lat="48.11183" lon="-3.82394">
        <ele>119.6</ele>
        <time>2022-12-08T10:32:31Z</time>
      </trkpt>
      <trkpt lat="48.11184" lon="-3.82389">
        <ele>119.8</ele>
        <time>2022-12-08T10:32:32Z</time>
      </trkpt>
      <trkpt lat="48.11186" lon="-3.82383">
        <ele>120.1</ele>
        <time>2022-12-08T10:32:33Z</time>
      </trkpt>
      <trkpt lat="48.11188" lon="-3.82376">
        <ele>120.4</ele>
        <time>2022-12-08T10:32:34Z</time>
      </trkpt>
      <trkpt lat="48.11189" lon="-3.8237">
        <ele>120.6</ele>
        <time>2022-12-08T10:32:35Z</time>
      </trkpt>
      <trkpt lat="48.11189" lon="-3.82366">
        <ele>120.8</ele>
        <time>2022-12-08T10:32:36Z</time>
      </trkpt>
      <trkpt lat="48.1119" lon="-3.82361">
        <ele>121</ele>
        <time>2022-12-08T10:32:37Z</time>
      </trkpt>
      <trkpt lat="48.11191" lon="-3.82355">
        <ele>121.2</ele>
        <time>2022-12-08T10:32:38Z</time>
      </trkpt>
      <trkpt lat="48.11192" lon="-3.8235">
        <ele>121.4</ele>
        <time>2022-12-08T10:32:39Z</time>
      </trkpt>
      <trkpt lat="48.11192" lon="-3.82344">
        <ele>121.7</ele>
        <time>2022-12-08T10:32:40Z</time>
      </trkpt>
      <trkpt lat="48.11193" lon="-3.8234">
        <ele>121.8</ele>
        <time>2022-12-08T10:32:41Z</time>
      </trkpt>
      <trkpt lat="48.11193" lon="-3.82334">
        <ele>122.1</ele>
        <time>2022-12-08T10:32:42Z</time>
      </trkpt>
      <trkpt lat="48.11193" lon="-3.82329">
        <ele>122.3</ele>
        <time>2022-12-08T10:32:43Z</time>
      </trkpt>
      <trkpt lat="48.11194" lon="-3.82322">
        <ele>122.5</ele>
        <time>2022-12-08T10:32:44Z</time>
      </trkpt>
      <trkpt lat="48.11194" lon="-3.82319">
        <ele>122.7</ele>
        <time>2022-12-08T10:32:45Z</time>
      </trkpt>
      <trkpt lat="48.11194" lon="-3.82309">
        <ele>123</ele>
        <time>2022-12-08T10:32:47Z</time>
      </trkpt>
      <trkpt lat="48.11195" lon="-3.82304">
        <ele>123.2</ele>
        <time>2022-12-08T10:32:48Z</time>
      </trkpt>
      <trkpt lat="48.11195" lon="-3.82299">
        <ele>123.4</ele>
        <time>2022-12-08T10:32:49Z</time>
      </trkpt>
      <trkpt lat="48.11195" lon="-3.82294">
        <ele>123.6</ele>
        <time>2022-12-08T10:32:50Z</time>
      </trkpt>
      <trkpt lat="48.11195" lon="-3.82289">
        <ele>123.8</ele>
        <time>2022-12-08T10:32:51Z</time>
      </trkpt>
      <trkpt lat="48.11196" lon="-3.82284">
        <ele>123.9</ele>
        <time>2022-12-08T10:32:52Z</time>
      </trkpt>
      <trkpt lat="48.11196" lon="-3.82278">
        <ele>124.1</ele>
        <time>2022-12-08T10:32:53Z</time>
      </trkpt>
      <trkpt lat="48.11196" lon="-3.82273">
        <ele>124.3</ele>
        <time>2022-12-08T10:32:54Z</time>
      </trkpt>
      <trkpt lat="48.11197" lon="-3.82268">
        <ele>124.5</ele>
        <time>2022-12-08T10:32:55Z</time>
      </trkpt>
      <trkpt lat="48.11197" lon="-3.82262">
        <ele>124.8</ele>
        <time>2022-12-08T10:32:56Z</time>
      </trkpt>
      <trkpt lat="48.11198" lon="-3.82259">
        <ele>124.8</ele>
        <time>2022-12-08T10:32:57Z</time>
      </trkpt>
      <trkpt lat="48.11198" lon="-3.82252">
        <ele>125.1</ele>
        <time>2022-12-08T10:32:59Z</time>
      </trkpt>
      <trkpt lat="48.11199" lon="-3.82244">
        <ele>125.4</ele>
        <time>2022-12-08T10:33:00Z</time>
      </trkpt>
      <trkpt lat="48.11199" lon="-3.82238">
        <ele>125.5</ele>
        <time>2022-12-08T10:33:01Z</time>
      </trkpt>
      <trkpt lat="48.11199" lon="-3.82232">
        <ele>125.7</ele>
        <time>2022-12-08T10:33:02Z</time>
      </trkpt>
      <trkpt lat="48.112" lon="-3.82227">
        <ele>125.9</ele>
        <time>2022-12-08T10:33:03Z</time>
      </trkpt>
      <trkpt lat="48.112" lon="-3.82222">
        <ele>126</ele>
        <time>2022-12-08T10:33:04Z</time>
      </trkpt>
      <trkpt lat="48.11201" lon="-3.82215">
        <ele>126.2</ele>
        <time>2022-12-08T10:33:06Z</time>
      </trkpt>
      <trkpt lat="48.11202" lon="-3.8221">
        <ele>126.4</ele>
        <time>2022-12-08T10:33:07Z</time>
      </trkpt>
      <trkpt lat="48.11203" lon="-3.82202">
        <ele>126.6</ele>
        <time>2022-12-08T10:33:08Z</time>
      </trkpt>
      <trkpt lat="48.11203" lon="-3.82197">
        <ele>126.7</ele>
        <time>2022-12-08T10:33:09Z</time>
      </trkpt>
      <trkpt lat="48.11203" lon="-3.82193">
        <ele>126.8</ele>
        <time>2022-12-08T10:33:10Z</time>
      </trkpt>
      <trkpt lat="48.11203" lon="-3.82188">
        <ele>126.9</ele>
        <time>2022-12-08T10:33:11Z</time>
      </trkpt>
      <trkpt lat="48.11204" lon="-3.82183">
        <ele>127</ele>
        <time>2022-12-08T10:33:12Z</time>
      </trkpt>
      <trkpt lat="48.11204" lon="-3.82177">
        <ele>127.1</ele>
        <time>2022-12-08T10:33:13Z</time>
      </trkpt>
      <trkpt lat="48.11205" lon="-3.82172">
        <ele>127.2</ele>
        <time>2022-12-08T10:33:14Z</time>
      </trkpt>
      <trkpt lat="48.11205" lon="-3.82167">
        <ele>127.2</ele>
        <time>2022-12-08T10:33:15Z</time>
      </trkpt>
      <trkpt lat="48.11205" lon="-3.82162">
        <ele>127.3</ele>
        <time>2022-12-08T10:33:16Z</time>
      </trkpt>
      <trkpt lat="48.11206" lon="-3.82155">
        <ele>127.4</ele>
        <time>2022-12-08T10:33:17Z</time>
      </trkpt>
      <trkpt lat="48.11206" lon="-3.82149">
        <ele>127.5</ele>
        <time>2022-12-08T10:33:18Z</time>
      </trkpt>
      <trkpt lat="48.11206" lon="-3.82143">
        <ele>127.5</ele>
        <time>2022-12-08T10:33:19Z</time>
      </trkpt>
      <trkpt lat="48.11207" lon="-3.82138">
        <ele>127.6</ele>
        <time>2022-12-08T10:33:20Z</time>
      </trkpt>
      <trkpt lat="48.11208" lon="-3.82132">
        <ele>127.6</ele>
        <time>2022-12-08T10:33:21Z</time>
      </trkpt>
      <trkpt lat="48.11208" lon="-3.82126">
        <ele>127.7</ele>
        <time>2022-12-08T10:33:22Z</time>
      </trkpt>
      <trkpt lat="48.11208" lon="-3.82121">
        <ele>127.7</ele>
        <time>2022-12-08T10:33:23Z</time>
      </trkpt>
      <trkpt lat="48.11208" lon="-3.82116">
        <ele>127.7</ele>
        <time>2022-12-08T10:33:24Z</time>
      </trkpt>
      <trkpt lat="48.11208" lon="-3.82111">
        <ele>127.7</ele>
        <time>2022-12-08T10:33:25Z</time>
      </trkpt>
      <trkpt lat="48.11208" lon="-3.82105">
        <ele>127.6</ele>
        <time>2022-12-08T10:33:26Z</time>
      </trkpt>
      <trkpt lat="48.11208" lon="-3.82096">
        <ele>127.6</ele>
        <time>2022-12-08T10:33:28Z</time>
      </trkpt>
      <trkpt lat="48.11209" lon="-3.82089">
        <ele>127.6</ele>
        <time>2022-12-08T10:33:29Z</time>
      </trkpt>
      <trkpt lat="48.11209" lon="-3.8208">
        <ele>127.5</ele>
        <time>2022-12-08T10:33:30Z</time>
      </trkpt>
      <trkpt lat="48.1121" lon="-3.82071">
        <ele>127.5</ele>
        <time>2022-12-08T10:33:31Z</time>
      </trkpt>
      <trkpt lat="48.11211" lon="-3.82064">
        <ele>127.5</ele>
        <time>2022-12-08T10:33:32Z</time>
      </trkpt>
      <trkpt lat="48.11213" lon="-3.82057">
        <ele>127.6</ele>
        <time>2022-12-08T10:33:33Z</time>
      </trkpt>
      <trkpt lat="48.11215" lon="-3.82051">
        <ele>127.7</ele>
        <time>2022-12-08T10:33:34Z</time>
      </trkpt>
      <trkpt lat="48.11218" lon="-3.82045">
        <ele>127.7</ele>
        <time>2022-12-08T10:33:35Z</time>
      </trkpt>
      <trkpt lat="48.1122" lon="-3.82038">
        <ele>127.8</ele>
        <time>2022-12-08T10:33:36Z</time>
      </trkpt>
      <trkpt lat="48.11222" lon="-3.82032">
        <ele>127.9</ele>
        <time>2022-12-08T10:33:37Z</time>
      </trkpt>
      <trkpt lat="48.11225" lon="-3.82026">
        <ele>128</ele>
        <time>2022-12-08T10:33:38Z</time>
      </trkpt>
      <trkpt lat="48.11228" lon="-3.8202">
        <ele>128</ele>
        <time>2022-12-08T10:33:39Z</time>
      </trkpt>
      <trkpt lat="48.11231" lon="-3.82015">
        <ele>128.1</ele>
        <time>2022-12-08T10:33:40Z</time>
      </trkpt>
      <trkpt lat="48.11234" lon="-3.8201">
        <ele>128.2</ele>
        <time>2022-12-08T10:33:41Z</time>
      </trkpt>
      <trkpt lat="48.11237" lon="-3.82004">
        <ele>128.3</ele>
        <time>2022-12-08T10:33:42Z</time>
      </trkpt>
      <trkpt lat="48.1124" lon="-3.81999">
        <ele>128.3</ele>
        <time>2022-12-08T10:33:43Z</time>
      </trkpt>
      <trkpt lat="48.11242" lon="-3.81993">
        <ele>128.4</ele>
        <time>2022-12-08T10:33:44Z</time>
      </trkpt>
      <trkpt lat="48.11245" lon="-3.81987">
        <ele>128.5</ele>
        <time>2022-12-08T10:33:45Z</time>
      </trkpt>
      <trkpt lat="48.11247" lon="-3.81982">
        <ele>128.6</ele>
        <time>2022-12-08T10:33:46Z</time>
      </trkpt>
      <trkpt lat="48.1125" lon="-3.81976">
        <ele>128.7</ele>
        <time>2022-12-08T10:33:47Z</time>
      </trkpt>
      <trkpt lat="48.11253" lon="-3.8197">
        <ele>128.8</ele>
        <time>2022-12-08T10:33:48Z</time>
      </trkpt>
      <trkpt lat="48.11256" lon="-3.81965">
        <ele>128.9</ele>
        <time>2022-12-08T10:33:49Z</time>
      </trkpt>
      <trkpt lat="48.11258" lon="-3.81959">
        <ele>129</ele>
        <time>2022-12-08T10:33:50Z</time>
      </trkpt>
      <trkpt lat="48.11262" lon="-3.81953">
        <ele>129.2</ele>
        <time>2022-12-08T10:33:51Z</time>
      </trkpt>
      <trkpt lat="48.11265" lon="-3.81948">
        <ele>129.3</ele>
        <time>2022-12-08T10:33:52Z</time>
      </trkpt>
      <trkpt lat="48.11267" lon="-3.81942">
        <ele>129.4</ele>
        <time>2022-12-08T10:33:53Z</time>
      </trkpt>
      <trkpt lat="48.1127" lon="-3.81937">
        <ele>129.5</ele>
        <time>2022-12-08T10:33:54Z</time>
      </trkpt>
      <trkpt lat="48.11272" lon="-3.81932">
        <ele>129.6</ele>
        <time>2022-12-08T10:33:55Z</time>
      </trkpt>
      <trkpt lat="48.11275" lon="-3.81927">
        <ele>129.8</ele>
        <time>2022-12-08T10:33:56Z</time>
      </trkpt>
      <trkpt lat="48.11277" lon="-3.81922">
        <ele>129.9</ele>
        <time>2022-12-08T10:33:57Z</time>
      </trkpt>
      <trkpt lat="48.1128" lon="-3.81916">
        <ele>130</ele>
        <time>2022-12-08T10:33:58Z</time>
      </trkpt>
      <trkpt lat="48.11283" lon="-3.81911">
        <ele>130.1</ele>
        <time>2022-12-08T10:33:59Z</time>
      </trkpt>
      <trkpt lat="48.11286" lon="-3.81906">
        <ele>130.3</ele>
        <time>2022-12-08T10:34:00Z</time>
      </trkpt>
      <trkpt lat="48.11289" lon="-3.819">
        <ele>130.4</ele>
        <time>2022-12-08T10:34:01Z</time>
      </trkpt>
      <trkpt lat="48.11291" lon="-3.81895">
        <ele>130.5</ele>
        <time>2022-12-08T10:34:02Z</time>
      </trkpt>
      <trkpt lat="48.11294" lon="-3.8189">
        <ele>130.6</ele>
        <time>2022-12-08T10:34:03Z</time>
      </trkpt>
      <trkpt lat="48.11296" lon="-3.81884">
        <ele>130.7</ele>
        <time>2022-12-08T10:34:04Z</time>
      </trkpt>
      <trkpt lat="48.11299" lon="-3.81879">
        <ele>130.8</ele>
        <time>2022-12-08T10:34:05Z</time>
      </trkpt>
      <trkpt lat="48.11302" lon="-3.81873">
        <ele>130.8</ele>
        <time>2022-12-08T10:34:06Z</time>
      </trkpt>
      <trkpt lat="48.11304" lon="-3.81867">
        <ele>130.9</ele>
        <time>2022-12-08T10:34:07Z</time>
      </trkpt>
      <trkpt lat="48.11306" lon="-3.81862">
        <ele>131</ele>
        <time>2022-12-08T10:34:08Z</time>
      </trkpt>
      <trkpt lat="48.11309" lon="-3.81856">
        <ele>131</ele>
        <time>2022-12-08T10:34:09Z</time>
      </trkpt>
      <trkpt lat="48.11312" lon="-3.8185">
        <ele>131.1</ele>
        <time>2022-12-08T10:34:10Z</time>
      </trkpt>
      <trkpt lat="48.11314" lon="-3.81843">
        <ele>131.1</ele>
        <time>2022-12-08T10:34:11Z</time>
      </trkpt>
      <trkpt lat="48.11316" lon="-3.81837">
        <ele>131.2</ele>
        <time>2022-12-08T10:34:12Z</time>
      </trkpt>
      <trkpt lat="48.11318" lon="-3.8183">
        <ele>131.2</ele>
        <time>2022-12-08T10:34:13Z</time>
      </trkpt>
      <trkpt lat="48.1132" lon="-3.81823">
        <ele>131.3</ele>
        <time>2022-12-08T10:34:14Z</time>
      </trkpt>
      <trkpt lat="48.11322" lon="-3.81816">
        <ele>131.3</ele>
        <time>2022-12-08T10:34:15Z</time>
      </trkpt>
      <trkpt lat="48.11324" lon="-3.8181">
        <ele>131.3</ele>
        <time>2022-12-08T10:34:16Z</time>
      </trkpt>
      <trkpt lat="48.11326" lon="-3.81803">
        <ele>131.3</ele>
        <time>2022-12-08T10:34:17Z</time>
      </trkpt>
      <trkpt lat="48.11327" lon="-3.81796">
        <ele>131.3</ele>
        <time>2022-12-08T10:34:18Z</time>
      </trkpt>
      <trkpt lat="48.11329" lon="-3.81789">
        <ele>131.3</ele>
        <time>2022-12-08T10:34:19Z</time>
      </trkpt>
      <trkpt lat="48.11331" lon="-3.81782">
        <ele>131.2</ele>
        <time>2022-12-08T10:34:20Z</time>
      </trkpt>
      <trkpt lat="48.11333" lon="-3.81774">
        <ele>131.2</ele>
        <time>2022-12-08T10:34:21Z</time>
      </trkpt>
      <trkpt lat="48.11335" lon="-3.81767">
        <ele>131.2</ele>
        <time>2022-12-08T10:34:22Z</time>
      </trkpt>
      <trkpt lat="48.11337" lon="-3.81759">
        <ele>131.1</ele>
        <time>2022-12-08T10:34:23Z</time>
      </trkpt>
      <trkpt lat="48.11339" lon="-3.81752">
        <ele>131.1</ele>
        <time>2022-12-08T10:34:24Z</time>
      </trkpt>
      <trkpt lat="48.11341" lon="-3.81745">
        <ele>131</ele>
        <time>2022-12-08T10:34:25Z</time>
      </trkpt>
      <trkpt lat="48.11343" lon="-3.81737">
        <ele>131</ele>
        <time>2022-12-08T10:34:26Z</time>
      </trkpt>
      <trkpt lat="48.11345" lon="-3.81729">
        <ele>131</ele>
        <time>2022-12-08T10:34:27Z</time>
      </trkpt>
      <trkpt lat="48.11347" lon="-3.81722">
        <ele>130.9</ele>
        <time>2022-12-08T10:34:28Z</time>
      </trkpt>
      <trkpt lat="48.11348" lon="-3.81714">
        <ele>130.8</ele>
        <time>2022-12-08T10:34:29Z</time>
      </trkpt>
      <trkpt lat="48.1135" lon="-3.81706">
        <ele>130.7</ele>
        <time>2022-12-08T10:34:30Z</time>
      </trkpt>
      <trkpt lat="48.11352" lon="-3.81698">
        <ele>130.6</ele>
        <time>2022-12-08T10:34:31Z</time>
      </trkpt>
      <trkpt lat="48.11353" lon="-3.81691">
        <ele>130.6</ele>
        <time>2022-12-08T10:34:32Z</time>
      </trkpt>
      <trkpt lat="48.11356" lon="-3.81683">
        <ele>130.5</ele>
        <time>2022-12-08T10:34:33Z</time>
      </trkpt>
      <trkpt lat="48.11357" lon="-3.81675">
        <ele>130.4</ele>
        <time>2022-12-08T10:34:34Z</time>
      </trkpt>
      <trkpt lat="48.1136" lon="-3.81668">
        <ele>130.3</ele>
        <time>2022-12-08T10:34:35Z</time>
      </trkpt>
      <trkpt lat="48.11362" lon="-3.8166">
        <ele>130.2</ele>
        <time>2022-12-08T10:34:36Z</time>
      </trkpt>
      <trkpt lat="48.11364" lon="-3.81652">
        <ele>130.1</ele>
        <time>2022-12-08T10:34:37Z</time>
      </trkpt>
      <trkpt lat="48.11366" lon="-3.81644">
        <ele>130</ele>
        <time>2022-12-08T10:34:38Z</time>
      </trkpt>
      <trkpt lat="48.11369" lon="-3.81636">
        <ele>129.9</ele>
        <time>2022-12-08T10:34:39Z</time>
      </trkpt>
      <trkpt lat="48.11372" lon="-3.81629">
        <ele>129.8</ele>
        <time>2022-12-08T10:34:40Z</time>
      </trkpt>
      <trkpt lat="48.11375" lon="-3.81622">
        <ele>129.8</ele>
        <time>2022-12-08T10:34:41Z</time>
      </trkpt>
      <trkpt lat="48.11379" lon="-3.81615">
        <ele>129.7</ele>
        <time>2022-12-08T10:34:42Z</time>
      </trkpt>
      <trkpt lat="48.11382" lon="-3.81607">
        <ele>129.7</ele>
        <time>2022-12-08T10:34:43Z</time>
      </trkpt>
      <trkpt lat="48.11385" lon="-3.816">
        <ele>129.7</ele>
        <time>2022-12-08T10:34:44Z</time>
      </trkpt>
      <trkpt lat="48.11389" lon="-3.81592">
        <ele>129.6</ele>
        <time>2022-12-08T10:34:45Z</time>
      </trkpt>
      <trkpt lat="48.11392" lon="-3.81586">
        <ele>129.6</ele>
        <time>2022-12-08T10:34:46Z</time>
      </trkpt>
      <trkpt lat="48.11396" lon="-3.81579">
        <ele>129.5</ele>
        <time>2022-12-08T10:34:47Z</time>
      </trkpt>
      <trkpt lat="48.11399" lon="-3.81572">
        <ele>129.5</ele>
        <time>2022-12-08T10:34:48Z</time>
      </trkpt>
      <trkpt lat="48.11403" lon="-3.81566">
        <ele>129.4</ele>
        <time>2022-12-08T10:34:49Z</time>
      </trkpt>
      <trkpt lat="48.11407" lon="-3.81559">
        <ele>129.3</ele>
        <time>2022-12-08T10:34:50Z</time>
      </trkpt>
      <trkpt lat="48.11411" lon="-3.81553">
        <ele>129.3</ele>
        <time>2022-12-08T10:34:51Z</time>
      </trkpt>
      <trkpt lat="48.11414" lon="-3.81546">
        <ele>129.2</ele>
        <time>2022-12-08T10:34:52Z</time>
      </trkpt>
      <trkpt lat="48.11418" lon="-3.8154">
        <ele>129.1</ele>
        <time>2022-12-08T10:34:53Z</time>
      </trkpt>
      <trkpt lat="48.11421" lon="-3.81533">
        <ele>129.1</ele>
        <time>2022-12-08T10:34:54Z</time>
      </trkpt>
      <trkpt lat="48.11425" lon="-3.81526">
        <ele>129</ele>
        <time>2022-12-08T10:34:55Z</time>
      </trkpt>
      <trkpt lat="48.11429" lon="-3.81519">
        <ele>128.9</ele>
        <time>2022-12-08T10:34:56Z</time>
      </trkpt>
      <trkpt lat="48.11432" lon="-3.81512">
        <ele>128.9</ele>
        <time>2022-12-08T10:34:57Z</time>
      </trkpt>
      <trkpt lat="48.11436" lon="-3.81506">
        <ele>128.8</ele>
        <time>2022-12-08T10:34:58Z</time>
      </trkpt>
      <trkpt lat="48.1144" lon="-3.81499">
        <ele>128.7</ele>
        <time>2022-12-08T10:34:59Z</time>
      </trkpt>
      <trkpt lat="48.11444" lon="-3.81491">
        <ele>128.6</ele>
        <time>2022-12-08T10:35:00Z</time>
      </trkpt>
      <trkpt lat="48.11447" lon="-3.81484">
        <ele>128.5</ele>
        <time>2022-12-08T10:35:01Z</time>
      </trkpt>
      <trkpt lat="48.11451" lon="-3.81476">
        <ele>128.4</ele>
        <time>2022-12-08T10:35:02Z</time>
      </trkpt>
      <trkpt lat="48.11454" lon="-3.81468">
        <ele>128.3</ele>
        <time>2022-12-08T10:35:03Z</time>
      </trkpt>
      <trkpt lat="48.11457" lon="-3.8146">
        <ele>128.2</ele>
        <time>2022-12-08T10:35:04Z</time>
      </trkpt>
      <trkpt lat="48.11461" lon="-3.81453">
        <ele>128.1</ele>
        <time>2022-12-08T10:35:05Z</time>
      </trkpt>
      <trkpt lat="48.11464" lon="-3.81445">
        <ele>128.1</ele>
        <time>2022-12-08T10:35:06Z</time>
      </trkpt>
      <trkpt lat="48.11467" lon="-3.81437">
        <ele>128</ele>
        <time>2022-12-08T10:35:07Z</time>
      </trkpt>
      <trkpt lat="48.1147" lon="-3.81428">
        <ele>127.9</ele>
        <time>2022-12-08T10:35:08Z</time>
      </trkpt>
      <trkpt lat="48.11472" lon="-3.8142">
        <ele>127.9</ele>
        <time>2022-12-08T10:35:09Z</time>
      </trkpt>
      <trkpt lat="48.11475" lon="-3.81412">
        <ele>127.9</ele>
        <time>2022-12-08T10:35:10Z</time>
      </trkpt>
      <trkpt lat="48.11478" lon="-3.81403">
        <ele>127.8</ele>
        <time>2022-12-08T10:35:11Z</time>
      </trkpt>
      <trkpt lat="48.11481" lon="-3.81395">
        <ele>127.8</ele>
        <time>2022-12-08T10:35:12Z</time>
      </trkpt>
      <trkpt lat="48.11483" lon="-3.81386">
        <ele>127.8</ele>
        <time>2022-12-08T10:35:13Z</time>
      </trkpt>
      <trkpt lat="48.11485" lon="-3.81377">
        <ele>127.9</ele>
        <time>2022-12-08T10:35:14Z</time>
      </trkpt>
      <trkpt lat="48.11488" lon="-3.81369">
        <ele>127.9</ele>
        <time>2022-12-08T10:35:15Z</time>
      </trkpt>
      <trkpt lat="48.1149" lon="-3.81361">
        <ele>128</ele>
        <time>2022-12-08T10:35:16Z</time>
      </trkpt>
      <trkpt lat="48.11492" lon="-3.81352">
        <ele>128.1</ele>
        <time>2022-12-08T10:35:17Z</time>
      </trkpt>
      <trkpt lat="48.11494" lon="-3.81344">
        <ele>128.2</ele>
        <time>2022-12-08T10:35:18Z</time>
      </trkpt>
      <trkpt lat="48.11496" lon="-3.81336">
        <ele>128.3</ele>
        <time>2022-12-08T10:35:19Z</time>
      </trkpt>
      <trkpt lat="48.11497" lon="-3.81329">
        <ele>128.4</ele>
        <time>2022-12-08T10:35:20Z</time>
      </trkpt>
      <trkpt lat="48.11499" lon="-3.81321">
        <ele>128.5</ele>
        <time>2022-12-08T10:35:21Z</time>
      </trkpt>
      <trkpt lat="48.11501" lon="-3.81313">
        <ele>128.7</ele>
        <time>2022-12-08T10:35:22Z</time>
      </trkpt>
      <trkpt lat="48.11502" lon="-3.81305">
        <ele>128.9</ele>
        <time>2022-12-08T10:35:23Z</time>
      </trkpt>
      <trkpt lat="48.11503" lon="-3.81297">
        <ele>129.1</ele>
        <time>2022-12-08T10:35:24Z</time>
      </trkpt>
      <trkpt lat="48.11504" lon="-3.81289">
        <ele>129.3</ele>
        <time>2022-12-08T10:35:25Z</time>
      </trkpt>
      <trkpt lat="48.11505" lon="-3.81281">
        <ele>129.6</ele>
        <time>2022-12-08T10:35:26Z</time>
      </trkpt>
      <trkpt lat="48.11506" lon="-3.81274">
        <ele>129.8</ele>
        <time>2022-12-08T10:35:27Z</time>
      </trkpt>
      <trkpt lat="48.11507" lon="-3.81267">
        <ele>130.1</ele>
        <time>2022-12-08T10:35:28Z</time>
      </trkpt>
      <trkpt lat="48.11507" lon="-3.81261">
        <ele>130.4</ele>
        <time>2022-12-08T10:35:29Z</time>
      </trkpt>
      <trkpt lat="48.11507" lon="-3.81254">
        <ele>130.7</ele>
        <time>2022-12-08T10:35:30Z</time>
      </trkpt>
      <trkpt lat="48.11507" lon="-3.81248">
        <ele>130.9</ele>
        <time>2022-12-08T10:35:31Z</time>
      </trkpt>
      <trkpt lat="48.11508" lon="-3.81243">
        <ele>131</ele>
        <time>2022-12-08T10:35:32Z</time>
      </trkpt>
      <trkpt lat="48.11509" lon="-3.81236">
        <ele>131.3</ele>
        <time>2022-12-08T10:35:33Z</time>
      </trkpt>
      <trkpt lat="48.11509" lon="-3.8123">
        <ele>131.5</ele>
        <time>2022-12-08T10:35:34Z</time>
      </trkpt>
      <trkpt lat="48.1151" lon="-3.81224">
        <ele>131.7</ele>
        <time>2022-12-08T10:35:35Z</time>
      </trkpt>
      <trkpt lat="48.1151" lon="-3.81218">
        <ele>131.9</ele>
        <time>2022-12-08T10:35:36Z</time>
      </trkpt>
      <trkpt lat="48.1151" lon="-3.81212">
        <ele>132.2</ele>
        <time>2022-12-08T10:35:37Z</time>
      </trkpt>
      <trkpt lat="48.1151" lon="-3.81206">
        <ele>132.4</ele>
        <time>2022-12-08T10:35:38Z</time>
      </trkpt>
      <trkpt lat="48.1151" lon="-3.81198">
        <ele>132.7</ele>
        <time>2022-12-08T10:35:39Z</time>
      </trkpt>
      <trkpt lat="48.11511" lon="-3.81194">
        <ele>132.9</ele>
        <time>2022-12-08T10:35:40Z</time>
      </trkpt>
      <trkpt lat="48.11512" lon="-3.81188">
        <ele>133.1</ele>
        <time>2022-12-08T10:35:41Z</time>
      </trkpt>
      <trkpt lat="48.11512" lon="-3.81183">
        <ele>133.4</ele>
        <time>2022-12-08T10:35:42Z</time>
      </trkpt>
      <trkpt lat="48.11513" lon="-3.81177">
        <ele>133.6</ele>
        <time>2022-12-08T10:35:43Z</time>
      </trkpt>
      <trkpt lat="48.11514" lon="-3.81171">
        <ele>133.8</ele>
        <time>2022-12-08T10:35:44Z</time>
      </trkpt>
      <trkpt lat="48.11514" lon="-3.81166">
        <ele>134</ele>
        <time>2022-12-08T10:35:45Z</time>
      </trkpt>
      <trkpt lat="48.11515" lon="-3.8116">
        <ele>134.2</ele>
        <time>2022-12-08T10:35:46Z</time>
      </trkpt>
      <trkpt lat="48.11516" lon="-3.81155">
        <ele>134.4</ele>
        <time>2022-12-08T10:35:47Z</time>
      </trkpt>
      <trkpt lat="48.11518" lon="-3.81149">
        <ele>134.7</ele>
        <time>2022-12-08T10:35:48Z</time>
      </trkpt>
      <trkpt lat="48.11519" lon="-3.81144">
        <ele>134.9</ele>
        <time>2022-12-08T10:35:49Z</time>
      </trkpt>
      <trkpt lat="48.1152" lon="-3.81138">
        <ele>135.1</ele>
        <time>2022-12-08T10:35:50Z</time>
      </trkpt>
      <trkpt lat="48.11522" lon="-3.81133">
        <ele>135.3</ele>
        <time>2022-12-08T10:35:51Z</time>
      </trkpt>
      <trkpt lat="48.11523" lon="-3.81128">
        <ele>135.5</ele>
        <time>2022-12-08T10:35:52Z</time>
      </trkpt>
      <trkpt lat="48.11525" lon="-3.81122">
        <ele>135.7</ele>
        <time>2022-12-08T10:35:53Z</time>
      </trkpt>
      <trkpt lat="48.11527" lon="-3.81117">
        <ele>135.9</ele>
        <time>2022-12-08T10:35:54Z</time>
      </trkpt>
      <trkpt lat="48.11528" lon="-3.81112">
        <ele>136.1</ele>
        <time>2022-12-08T10:35:55Z</time>
      </trkpt>
      <trkpt lat="48.1153" lon="-3.81106">
        <ele>136.3</ele>
        <time>2022-12-08T10:35:56Z</time>
      </trkpt>
      <trkpt lat="48.11531" lon="-3.81101">
        <ele>136.4</ele>
        <time>2022-12-08T10:35:57Z</time>
      </trkpt>
      <trkpt lat="48.11533" lon="-3.81095">
        <ele>136.6</ele>
        <time>2022-12-08T10:35:58Z</time>
      </trkpt>
      <trkpt lat="48.11534" lon="-3.8109">
        <ele>136.7</ele>
        <time>2022-12-08T10:35:59Z</time>
      </trkpt>
      <trkpt lat="48.11536" lon="-3.81085">
        <ele>136.9</ele>
        <time>2022-12-08T10:36:00Z</time>
      </trkpt>
      <trkpt lat="48.11538" lon="-3.81079">
        <ele>137</ele>
        <time>2022-12-08T10:36:01Z</time>
      </trkpt>
      <trkpt lat="48.1154" lon="-3.81074">
        <ele>137.1</ele>
        <time>2022-12-08T10:36:02Z</time>
      </trkpt>
      <trkpt lat="48.11541" lon="-3.81068">
        <ele>137.2</ele>
        <time>2022-12-08T10:36:03Z</time>
      </trkpt>
      <trkpt lat="48.11543" lon="-3.81061">
        <ele>137.3</ele>
        <time>2022-12-08T10:36:04Z</time>
      </trkpt>
      <trkpt lat="48.11545" lon="-3.81056">
        <ele>137.4</ele>
        <time>2022-12-08T10:36:05Z</time>
      </trkpt>
      <trkpt lat="48.11546" lon="-3.8105">
        <ele>137.5</ele>
        <time>2022-12-08T10:36:06Z</time>
      </trkpt>
      <trkpt lat="48.11547" lon="-3.81045">
        <ele>137.6</ele>
        <time>2022-12-08T10:36:07Z</time>
      </trkpt>
      <trkpt lat="48.11549" lon="-3.81039">
        <ele>137.7</ele>
        <time>2022-12-08T10:36:08Z</time>
      </trkpt>
      <trkpt lat="48.1155" lon="-3.81032">
        <ele>137.8</ele>
        <time>2022-12-08T10:36:09Z</time>
      </trkpt>
      <trkpt lat="48.11552" lon="-3.81027">
        <ele>137.8</ele>
        <time>2022-12-08T10:36:10Z</time>
      </trkpt>
      <trkpt lat="48.11553" lon="-3.81021">
        <ele>137.9</ele>
        <time>2022-12-08T10:36:11Z</time>
      </trkpt>
      <trkpt lat="48.11556" lon="-3.8101">
        <ele>137.9</ele>
        <time>2022-12-08T10:36:13Z</time>
      </trkpt>
      <trkpt lat="48.1156" lon="-3.81001">
        <ele>137.9</ele>
        <time>2022-12-08T10:36:14Z</time>
      </trkpt>
      <trkpt lat="48.1156" lon="-3.80999">
        <ele>137.9</ele>
        <time>2022-12-08T10:36:15Z</time>
      </trkpt>
      <trkpt lat="48.11562" lon="-3.80992">
        <ele>137.9</ele>
        <time>2022-12-08T10:36:16Z</time>
      </trkpt>
      <trkpt lat="48.11564" lon="-3.80986">
        <ele>137.8</ele>
        <time>2022-12-08T10:36:17Z</time>
      </trkpt>
      <trkpt lat="48.11566" lon="-3.80979">
        <ele>137.8</ele>
        <time>2022-12-08T10:36:18Z</time>
      </trkpt>
      <trkpt lat="48.11567" lon="-3.80972">
        <ele>137.7</ele>
        <time>2022-12-08T10:36:19Z</time>
      </trkpt>
      <trkpt lat="48.11569" lon="-3.80966">
        <ele>137.7</ele>
        <time>2022-12-08T10:36:20Z</time>
      </trkpt>
      <trkpt lat="48.11571" lon="-3.80959">
        <ele>137.6</ele>
        <time>2022-12-08T10:36:21Z</time>
      </trkpt>
      <trkpt lat="48.11573" lon="-3.80952">
        <ele>137.6</ele>
        <time>2022-12-08T10:36:22Z</time>
      </trkpt>
      <trkpt lat="48.11575" lon="-3.80945">
        <ele>137.5</ele>
        <time>2022-12-08T10:36:23Z</time>
      </trkpt>
      <trkpt lat="48.11578" lon="-3.80939">
        <ele>137.3</ele>
        <time>2022-12-08T10:36:24Z</time>
      </trkpt>
      <trkpt lat="48.11582" lon="-3.80935">
        <ele>137.1</ele>
        <time>2022-12-08T10:36:25Z</time>
      </trkpt>
      <trkpt lat="48.11587" lon="-3.80932">
        <ele>136.9</ele>
        <time>2022-12-08T10:36:26Z</time>
      </trkpt>
      <trkpt lat="48.11592" lon="-3.80933">
        <ele>137.1</ele>
        <time>2022-12-08T10:36:27Z</time>
      </trkpt>
      <trkpt lat="48.11596" lon="-3.80935">
        <ele>137.2</ele>
        <time>2022-12-08T10:36:28Z</time>
      </trkpt>
      <trkpt lat="48.11601" lon="-3.80939">
        <ele>137.3</ele>
        <time>2022-12-08T10:36:29Z</time>
      </trkpt>
      <trkpt lat="48.11605" lon="-3.80942">
        <ele>137.4</ele>
        <time>2022-12-08T10:36:30Z</time>
      </trkpt>
      <trkpt lat="48.11609" lon="-3.80946">
        <ele>137.5</ele>
        <time>2022-12-08T10:36:31Z</time>
      </trkpt>
      <trkpt lat="48.11613" lon="-3.8095">
        <ele>137.6</ele>
        <time>2022-12-08T10:36:32Z</time>
      </trkpt>
      <trkpt lat="48.11617" lon="-3.80954">
        <ele>137.7</ele>
        <time>2022-12-08T10:36:33Z</time>
      </trkpt>
      <trkpt lat="48.11621" lon="-3.80958">
        <ele>137.9</ele>
        <time>2022-12-08T10:36:34Z</time>
      </trkpt>
      <trkpt lat="48.11624" lon="-3.80962">
        <ele>138</ele>
        <time>2022-12-08T10:36:35Z</time>
      </trkpt>
      <trkpt lat="48.11628" lon="-3.80965">
        <ele>138.1</ele>
        <time>2022-12-08T10:36:36Z</time>
      </trkpt>
      <trkpt lat="48.11632" lon="-3.80968">
        <ele>138.2</ele>
        <time>2022-12-08T10:36:37Z</time>
      </trkpt>
      <trkpt lat="48.11636" lon="-3.80971">
        <ele>138.3</ele>
        <time>2022-12-08T10:36:38Z</time>
      </trkpt>
      <trkpt lat="48.1164" lon="-3.80972">
        <ele>138.3</ele>
        <time>2022-12-08T10:36:39Z</time>
      </trkpt>
      <trkpt lat="48.11645" lon="-3.80975">
        <ele>138.5</ele>
        <time>2022-12-08T10:36:40Z</time>
      </trkpt>
      <trkpt lat="48.11649" lon="-3.80977">
        <ele>138.6</ele>
        <time>2022-12-08T10:36:41Z</time>
      </trkpt>
      <trkpt lat="48.11653" lon="-3.80979">
        <ele>138.7</ele>
        <time>2022-12-08T10:36:42Z</time>
      </trkpt>
      <trkpt lat="48.11658" lon="-3.80981">
        <ele>138.8</ele>
        <time>2022-12-08T10:36:43Z</time>
      </trkpt>
      <trkpt lat="48.11664" lon="-3.80983">
        <ele>138.9</ele>
        <time>2022-12-08T10:36:44Z</time>
      </trkpt>
      <trkpt lat="48.11668" lon="-3.80986">
        <ele>139.1</ele>
        <time>2022-12-08T10:36:45Z</time>
      </trkpt>
      <trkpt lat="48.11671" lon="-3.80988">
        <ele>139.2</ele>
        <time>2022-12-08T10:36:46Z</time>
      </trkpt>
      <trkpt lat="48.11674" lon="-3.8099">
        <ele>139.3</ele>
        <time>2022-12-08T10:36:47Z</time>
      </trkpt>
      <trkpt lat="48.11679" lon="-3.80992">
        <ele>139.4</ele>
        <time>2022-12-08T10:36:48Z</time>
      </trkpt>
      <trkpt lat="48.11684" lon="-3.80994">
        <ele>139.6</ele>
        <time>2022-12-08T10:36:49Z</time>
      </trkpt>
      <trkpt lat="48.11688" lon="-3.80996">
        <ele>139.7</ele>
        <time>2022-12-08T10:36:50Z</time>
      </trkpt>
      <trkpt lat="48.11692" lon="-3.80998">
        <ele>139.8</ele>
        <time>2022-12-08T10:36:51Z</time>
      </trkpt>
      <trkpt lat="48.11696" lon="-3.80999">
        <ele>140</ele>
        <time>2022-12-08T10:36:53Z</time>
      </trkpt>
      <trkpt lat="48.11701" lon="-3.81003">
        <ele>140.1</ele>
        <time>2022-12-08T10:36:54Z</time>
      </trkpt>
      <trkpt lat="48.11707" lon="-3.81006">
        <ele>140.3</ele>
        <time>2022-12-08T10:36:55Z</time>
      </trkpt>
      <trkpt lat="48.11714" lon="-3.81011">
        <ele>140.6</ele>
        <time>2022-12-08T10:36:57Z</time>
      </trkpt>
      <trkpt lat="48.11719" lon="-3.81014">
        <ele>140.7</ele>
        <time>2022-12-08T10:36:58Z</time>
      </trkpt>
      <trkpt lat="48.11723" lon="-3.81016">
        <ele>140.9</ele>
        <time>2022-12-08T10:36:59Z</time>
      </trkpt>
      <trkpt lat="48.11727" lon="-3.81018">
        <ele>141</ele>
        <time>2022-12-08T10:37:00Z</time>
      </trkpt>
      <trkpt lat="48.11732" lon="-3.81022">
        <ele>141.2</ele>
        <time>2022-12-08T10:37:01Z</time>
      </trkpt>
      <trkpt lat="48.11736" lon="-3.81024">
        <ele>141.3</ele>
        <time>2022-12-08T10:37:02Z</time>
      </trkpt>
      <trkpt lat="48.11741" lon="-3.81026">
        <ele>141.4</ele>
        <time>2022-12-08T10:37:03Z</time>
      </trkpt>
      <trkpt lat="48.11743" lon="-3.81027">
        <ele>141.5</ele>
        <time>2022-12-08T10:37:04Z</time>
      </trkpt>
      <trkpt lat="48.11749" lon="-3.81033">
        <ele>141.8</ele>
        <time>2022-12-08T10:37:06Z</time>
      </trkpt>
      <trkpt lat="48.11757" lon="-3.81039">
        <ele>142</ele>
        <time>2022-12-08T10:37:07Z</time>
      </trkpt>
      <trkpt lat="48.11762" lon="-3.81041">
        <ele>142.2</ele>
        <time>2022-12-08T10:37:08Z</time>
      </trkpt>
      <trkpt lat="48.11766" lon="-3.81044">
        <ele>142.3</ele>
        <time>2022-12-08T10:37:09Z</time>
      </trkpt>
      <trkpt lat="48.11771" lon="-3.81048">
        <ele>142.5</ele>
        <time>2022-12-08T10:37:10Z</time>
      </trkpt>
      <trkpt lat="48.11775" lon="-3.81052">
        <ele>142.6</ele>
        <time>2022-12-08T10:37:11Z</time>
      </trkpt>
      <trkpt lat="48.11779" lon="-3.81055">
        <ele>142.8</ele>
        <time>2022-12-08T10:37:12Z</time>
      </trkpt>
      <trkpt lat="48.11784" lon="-3.81058">
        <ele>142.9</ele>
        <time>2022-12-08T10:37:13Z</time>
      </trkpt>
      <trkpt lat="48.11789" lon="-3.81061">
        <ele>143.1</ele>
        <time>2022-12-08T10:37:14Z</time>
      </trkpt>
      <trkpt lat="48.11793" lon="-3.81063">
        <ele>143.2</ele>
        <time>2022-12-08T10:37:15Z</time>
      </trkpt>
      <trkpt lat="48.11797" lon="-3.81064">
        <ele>143.4</ele>
        <time>2022-12-08T10:37:16Z</time>
      </trkpt>
      <trkpt lat="48.11802" lon="-3.81066">
        <ele>143.5</ele>
        <time>2022-12-08T10:37:17Z</time>
      </trkpt>
      <trkpt lat="48.11807" lon="-3.81068">
        <ele>143.7</ele>
        <time>2022-12-08T10:37:19Z</time>
      </trkpt>
      <trkpt lat="48.1181" lon="-3.81069">
        <ele>143.7</ele>
        <time>2022-12-08T10:37:20Z</time>
      </trkpt>
      <trkpt lat="48.11816" lon="-3.81071">
        <ele>143.9</ele>
        <time>2022-12-08T10:37:21Z</time>
      </trkpt>
      <trkpt lat="48.1182" lon="-3.81072">
        <ele>144.1</ele>
        <time>2022-12-08T10:37:22Z</time>
      </trkpt>
      <trkpt lat="48.11824" lon="-3.81073">
        <ele>144.2</ele>
        <time>2022-12-08T10:37:23Z</time>
      </trkpt>
      <trkpt lat="48.11827" lon="-3.81074">
        <ele>144.3</ele>
        <time>2022-12-08T10:37:24Z</time>
      </trkpt>
      <trkpt lat="48.11831" lon="-3.81075">
        <ele>144.4</ele>
        <time>2022-12-08T10:37:25Z</time>
      </trkpt>
      <trkpt lat="48.11835" lon="-3.81076">
        <ele>144.5</ele>
        <time>2022-12-08T10:37:26Z</time>
      </trkpt>
      <trkpt lat="48.11838" lon="-3.81076">
        <ele>144.6</ele>
        <time>2022-12-08T10:37:27Z</time>
      </trkpt>
      <trkpt lat="48.11844" lon="-3.81078">
        <ele>144.8</ele>
        <time>2022-12-08T10:37:29Z</time>
      </trkpt>
      <trkpt lat="48.11848" lon="-3.81079">
        <ele>144.9</ele>
        <time>2022-12-08T10:37:30Z</time>
      </trkpt>
      <trkpt lat="48.11853" lon="-3.8108">
        <ele>145.1</ele>
        <time>2022-12-08T10:37:31Z</time>
      </trkpt>
      <trkpt lat="48.11857" lon="-3.81081">
        <ele>145.2</ele>
        <time>2022-12-08T10:37:32Z</time>
      </trkpt>
      <trkpt lat="48.1186" lon="-3.81082">
        <ele>145.3</ele>
        <time>2022-12-08T10:37:33Z</time>
      </trkpt>
      <trkpt lat="48.11864" lon="-3.81083">
        <ele>145.4</ele>
        <time>2022-12-08T10:37:34Z</time>
      </trkpt>
      <trkpt lat="48.11868" lon="-3.81083">
        <ele>145.5</ele>
        <time>2022-12-08T10:37:35Z</time>
      </trkpt>
      <trkpt lat="48.11871" lon="-3.81085">
        <ele>145.6</ele>
        <time>2022-12-08T10:37:36Z</time>
      </trkpt>
      <trkpt lat="48.11875" lon="-3.81085">
        <ele>145.8</ele>
        <time>2022-12-08T10:37:37Z</time>
      </trkpt>
      <trkpt lat="48.11879" lon="-3.81087">
        <ele>145.9</ele>
        <time>2022-12-08T10:37:38Z</time>
      </trkpt>
      <trkpt lat="48.11882" lon="-3.81088">
        <ele>146</ele>
        <time>2022-12-08T10:37:39Z</time>
      </trkpt>
      <trkpt lat="48.11886" lon="-3.8109">
        <ele>146.1</ele>
        <time>2022-12-08T10:37:40Z</time>
      </trkpt>
      <trkpt lat="48.11889" lon="-3.81091">
        <ele>146.2</ele>
        <time>2022-12-08T10:37:41Z</time>
      </trkpt>
      <trkpt lat="48.11893" lon="-3.81091">
        <ele>146.3</ele>
        <time>2022-12-08T10:37:42Z</time>
      </trkpt>
      <trkpt lat="48.11896" lon="-3.81092">
        <ele>146.4</ele>
        <time>2022-12-08T10:37:43Z</time>
      </trkpt>
      <trkpt lat="48.11899" lon="-3.81094">
        <ele>146.5</ele>
        <time>2022-12-08T10:37:44Z</time>
      </trkpt>
      <trkpt lat="48.11906" lon="-3.81097">
        <ele>146.7</ele>
        <time>2022-12-08T10:37:46Z</time>
      </trkpt>
      <trkpt lat="48.11909" lon="-3.81099">
        <ele>146.8</ele>
        <time>2022-12-08T10:37:47Z</time>
      </trkpt>
      <trkpt lat="48.11915" lon="-3.81103">
        <ele>147</ele>
        <time>2022-12-08T10:37:49Z</time>
      </trkpt>
      <trkpt lat="48.11919" lon="-3.81107">
        <ele>147.2</ele>
        <time>2022-12-08T10:37:50Z</time>
      </trkpt>
      <trkpt lat="48.11923" lon="-3.8111">
        <ele>147.3</ele>
        <time>2022-12-08T10:37:51Z</time>
      </trkpt>
      <trkpt lat="48.11926" lon="-3.81112">
        <ele>147.4</ele>
        <time>2022-12-08T10:37:52Z</time>
      </trkpt>
      <trkpt lat="48.1193" lon="-3.81116">
        <ele>147.6</ele>
        <time>2022-12-08T10:37:54Z</time>
      </trkpt>
      <trkpt lat="48.11934" lon="-3.81119">
        <ele>147.7</ele>
        <time>2022-12-08T10:37:55Z</time>
      </trkpt>
      <trkpt lat="48.11938" lon="-3.81124">
        <ele>147.9</ele>
        <time>2022-12-08T10:37:56Z</time>
      </trkpt>
      <trkpt lat="48.11942" lon="-3.81128">
        <ele>148</ele>
        <time>2022-12-08T10:37:57Z</time>
      </trkpt>
      <trkpt lat="48.11945" lon="-3.81132">
        <ele>148.1</ele>
        <time>2022-12-08T10:37:58Z</time>
      </trkpt>
      <trkpt lat="48.11948" lon="-3.81135">
        <ele>148.2</ele>
        <time>2022-12-08T10:37:59Z</time>
      </trkpt>
      <trkpt lat="48.11952" lon="-3.81141">
        <ele>148.4</ele>
        <time>2022-12-08T10:38:01Z</time>
      </trkpt>
      <trkpt lat="48.11955" lon="-3.81144">
        <ele>148.5</ele>
        <time>2022-12-08T10:38:02Z</time>
      </trkpt>
      <trkpt lat="48.11958" lon="-3.81148">
        <ele>148.6</ele>
        <time>2022-12-08T10:38:03Z</time>
      </trkpt>
      <trkpt lat="48.11961" lon="-3.81151">
        <ele>148.8</ele>
        <time>2022-12-08T10:38:04Z</time>
      </trkpt>
      <trkpt lat="48.11964" lon="-3.81156">
        <ele>148.9</ele>
        <time>2022-12-08T10:38:06Z</time>
      </trkpt>
      <trkpt lat="48.11968" lon="-3.81162">
        <ele>149</ele>
        <time>2022-12-08T10:38:07Z</time>
      </trkpt>
      <trkpt lat="48.11971" lon="-3.81166">
        <ele>149.2</ele>
        <time>2022-12-08T10:38:08Z</time>
      </trkpt>
      <trkpt lat="48.11975" lon="-3.81173">
        <ele>149.4</ele>
        <time>2022-12-08T10:38:10Z</time>
      </trkpt>
      <trkpt lat="48.11977" lon="-3.81177">
        <ele>149.5</ele>
        <time>2022-12-08T10:38:11Z</time>
      </trkpt>
      <trkpt lat="48.11981" lon="-3.81183">
        <ele>149.6</ele>
        <time>2022-12-08T10:38:12Z</time>
      </trkpt>
      <trkpt lat="48.11984" lon="-3.81187">
        <ele>149.8</ele>
        <time>2022-12-08T10:38:13Z</time>
      </trkpt>
      <trkpt lat="48.11986" lon="-3.8119">
        <ele>149.9</ele>
        <time>2022-12-08T10:38:14Z</time>
      </trkpt>
      <trkpt lat="48.1199" lon="-3.81194">
        <ele>150</ele>
        <time>2022-12-08T10:38:15Z</time>
      </trkpt>
      <trkpt lat="48.11994" lon="-3.812">
        <ele>150.2</ele>
        <time>2022-12-08T10:38:17Z</time>
      </trkpt>
      <trkpt lat="48.11997" lon="-3.81204">
        <ele>150.3</ele>
        <time>2022-12-08T10:38:18Z</time>
      </trkpt>
      <trkpt lat="48.12" lon="-3.81207">
        <ele>150.4</ele>
        <time>2022-12-08T10:38:19Z</time>
      </trkpt>
      <trkpt lat="48.12003" lon="-3.81211">
        <ele>150.5</ele>
        <time>2022-12-08T10:38:20Z</time>
      </trkpt>
      <trkpt lat="48.12007" lon="-3.81215">
        <ele>150.7</ele>
        <time>2022-12-08T10:38:21Z</time>
      </trkpt>
      <trkpt lat="48.1201" lon="-3.81219">
        <ele>150.8</ele>
        <time>2022-12-08T10:38:22Z</time>
      </trkpt>
      <trkpt lat="48.12014" lon="-3.81222">
        <ele>150.9</ele>
        <time>2022-12-08T10:38:23Z</time>
      </trkpt>
      <trkpt lat="48.12017" lon="-3.81225">
        <ele>151</ele>
        <time>2022-12-08T10:38:24Z</time>
      </trkpt>
      <trkpt lat="48.12022" lon="-3.81227">
        <ele>151.2</ele>
        <time>2022-12-08T10:38:26Z</time>
      </trkpt>
      <trkpt lat="48.12026" lon="-3.81229">
        <ele>151.3</ele>
        <time>2022-12-08T10:38:27Z</time>
      </trkpt>
      <trkpt lat="48.1203" lon="-3.81231">
        <ele>151.4</ele>
        <time>2022-12-08T10:38:28Z</time>
      </trkpt>
      <trkpt lat="48.12034" lon="-3.81235">
        <ele>151.6</ele>
        <time>2022-12-08T10:38:29Z</time>
      </trkpt>
      <trkpt lat="48.12038" lon="-3.81237">
        <ele>151.7</ele>
        <time>2022-12-08T10:38:31Z</time>
      </trkpt>
      <trkpt lat="48.12044" lon="-3.81238">
        <ele>151.9</ele>
        <time>2022-12-08T10:38:32Z</time>
      </trkpt>
      <trkpt lat="48.12048" lon="-3.8124">
        <ele>152</ele>
        <time>2022-12-08T10:38:33Z</time>
      </trkpt>
      <trkpt lat="48.12052" lon="-3.81241">
        <ele>152.2</ele>
        <time>2022-12-08T10:38:34Z</time>
      </trkpt>
      <trkpt lat="48.12057" lon="-3.81242">
        <ele>152.3</ele>
        <time>2022-12-08T10:38:36Z</time>
      </trkpt>
      <trkpt lat="48.12061" lon="-3.81243">
        <ele>152.4</ele>
        <time>2022-12-08T10:38:37Z</time>
      </trkpt>
      <trkpt lat="48.12064" lon="-3.81244">
        <ele>152.5</ele>
        <time>2022-12-08T10:38:38Z</time>
      </trkpt>
      <trkpt lat="48.1207" lon="-3.81246">
        <ele>152.7</ele>
        <time>2022-12-08T10:38:39Z</time>
      </trkpt>
      <trkpt lat="48.12073" lon="-3.81247">
        <ele>152.8</ele>
        <time>2022-12-08T10:38:40Z</time>
      </trkpt>
      <trkpt lat="48.12077" lon="-3.81248">
        <ele>152.9</ele>
        <time>2022-12-08T10:38:41Z</time>
      </trkpt>
      <trkpt lat="48.1208" lon="-3.81249">
        <ele>153</ele>
        <time>2022-12-08T10:38:42Z</time>
      </trkpt>
      <trkpt lat="48.12084" lon="-3.81251">
        <ele>153.1</ele>
        <time>2022-12-08T10:38:43Z</time>
      </trkpt>
      <trkpt lat="48.12087" lon="-3.81251">
        <ele>153.2</ele>
        <time>2022-12-08T10:38:44Z</time>
      </trkpt>
      <trkpt lat="48.12092" lon="-3.81252">
        <ele>153.4</ele>
        <time>2022-12-08T10:38:45Z</time>
      </trkpt>
      <trkpt lat="48.12094" lon="-3.81252">
        <ele>153.5</ele>
        <time>2022-12-08T10:38:46Z</time>
      </trkpt>
      <trkpt lat="48.12097" lon="-3.81253">
        <ele>153.6</ele>
        <time>2022-12-08T10:38:47Z</time>
      </trkpt>
      <trkpt lat="48.121" lon="-3.81254">
        <ele>153.6</ele>
        <time>2022-12-08T10:38:48Z</time>
      </trkpt>
      <trkpt lat="48.12104" lon="-3.81255">
        <ele>153.8</ele>
        <time>2022-12-08T10:38:49Z</time>
      </trkpt>
      <trkpt lat="48.12108" lon="-3.81256">
        <ele>153.9</ele>
        <time>2022-12-08T10:38:50Z</time>
      </trkpt>
      <trkpt lat="48.12111" lon="-3.81258">
        <ele>154</ele>
        <time>2022-12-08T10:38:51Z</time>
      </trkpt>
      <trkpt lat="48.12115" lon="-3.81258">
        <ele>154.1</ele>
        <time>2022-12-08T10:38:52Z</time>
      </trkpt>
      <trkpt lat="48.1212" lon="-3.8126">
        <ele>154.3</ele>
        <time>2022-12-08T10:38:54Z</time>
      </trkpt>
      <trkpt lat="48.12125" lon="-3.81262">
        <ele>154.4</ele>
        <time>2022-12-08T10:38:55Z</time>
      </trkpt>
      <trkpt lat="48.12128" lon="-3.81263">
        <ele>154.5</ele>
        <time>2022-12-08T10:38:56Z</time>
      </trkpt>
      <trkpt lat="48.12131" lon="-3.81265">
        <ele>154.6</ele>
        <time>2022-12-08T10:38:57Z</time>
      </trkpt>
      <trkpt lat="48.12136" lon="-3.81267">
        <ele>154.8</ele>
        <time>2022-12-08T10:38:59Z</time>
      </trkpt>
      <trkpt lat="48.12139" lon="-3.81268">
        <ele>154.9</ele>
        <time>2022-12-08T10:39:00Z</time>
      </trkpt>
      <trkpt lat="48.12144" lon="-3.81269">
        <ele>155</ele>
        <time>2022-12-08T10:39:01Z</time>
      </trkpt>
      <trkpt lat="48.12147" lon="-3.81271">
        <ele>155.1</ele>
        <time>2022-12-08T10:39:02Z</time>
      </trkpt>
      <trkpt lat="48.1215" lon="-3.81272">
        <ele>155.2</ele>
        <time>2022-12-08T10:39:03Z</time>
      </trkpt>
      <trkpt lat="48.12153" lon="-3.81274">
        <ele>155.3</ele>
        <time>2022-12-08T10:39:04Z</time>
      </trkpt>
      <trkpt lat="48.12156" lon="-3.81276">
        <ele>155.4</ele>
        <time>2022-12-08T10:39:05Z</time>
      </trkpt>
      <trkpt lat="48.1216" lon="-3.81278">
        <ele>155.5</ele>
        <time>2022-12-08T10:39:06Z</time>
      </trkpt>
      <trkpt lat="48.12163" lon="-3.8128">
        <ele>155.6</ele>
        <time>2022-12-08T10:39:07Z</time>
      </trkpt>
      <trkpt lat="48.12167" lon="-3.81282">
        <ele>155.8</ele>
        <time>2022-12-08T10:39:08Z</time>
      </trkpt>
      <trkpt lat="48.1217" lon="-3.81284">
        <ele>155.9</ele>
        <time>2022-12-08T10:39:09Z</time>
      </trkpt>
      <trkpt lat="48.12174" lon="-3.81285">
        <ele>156</ele>
        <time>2022-12-08T10:39:10Z</time>
      </trkpt>
      <trkpt lat="48.12178" lon="-3.81288">
        <ele>156.1</ele>
        <time>2022-12-08T10:39:11Z</time>
      </trkpt>
      <trkpt lat="48.12181" lon="-3.81289">
        <ele>156.2</ele>
        <time>2022-12-08T10:39:12Z</time>
      </trkpt>
      <trkpt lat="48.12186" lon="-3.81292">
        <ele>156.4</ele>
        <time>2022-12-08T10:39:14Z</time>
      </trkpt>
      <trkpt lat="48.12191" lon="-3.81294">
        <ele>156.5</ele>
        <time>2022-12-08T10:39:15Z</time>
      </trkpt>
      <trkpt lat="48.12195" lon="-3.81296">
        <ele>156.7</ele>
        <time>2022-12-08T10:39:17Z</time>
      </trkpt>
      <trkpt lat="48.12198" lon="-3.81298">
        <ele>156.8</ele>
        <time>2022-12-08T10:39:18Z</time>
      </trkpt>
      <trkpt lat="48.12203" lon="-3.813">
        <ele>156.9</ele>
        <time>2022-12-08T10:39:19Z</time>
      </trkpt>
      <trkpt lat="48.12206" lon="-3.81302">
        <ele>157</ele>
        <time>2022-12-08T10:39:20Z</time>
      </trkpt>
      <trkpt lat="48.1221" lon="-3.81302">
        <ele>157.1</ele>
        <time>2022-12-08T10:39:21Z</time>
      </trkpt>
      <trkpt lat="48.12213" lon="-3.81303">
        <ele>157.2</ele>
        <time>2022-12-08T10:39:22Z</time>
      </trkpt>
      <trkpt lat="48.12216" lon="-3.81304">
        <ele>157.3</ele>
        <time>2022-12-08T10:39:23Z</time>
      </trkpt>
      <trkpt lat="48.12219" lon="-3.81305">
        <ele>157.4</ele>
        <time>2022-12-08T10:39:24Z</time>
      </trkpt>
      <trkpt lat="48.12223" lon="-3.81305">
        <ele>157.5</ele>
        <time>2022-12-08T10:39:25Z</time>
      </trkpt>
      <trkpt lat="48.12226" lon="-3.81305">
        <ele>157.7</ele>
        <time>2022-12-08T10:39:26Z</time>
      </trkpt>
      <trkpt lat="48.12229" lon="-3.81306">
        <ele>157.7</ele>
        <time>2022-12-08T10:39:27Z</time>
      </trkpt>
      <trkpt lat="48.12235" lon="-3.81307">
        <ele>157.9</ele>
        <time>2022-12-08T10:39:29Z</time>
      </trkpt>
      <trkpt lat="48.12238" lon="-3.81308">
        <ele>158</ele>
        <time>2022-12-08T10:39:30Z</time>
      </trkpt>
      <trkpt lat="48.12241" lon="-3.81308">
        <ele>158.1</ele>
        <time>2022-12-08T10:39:31Z</time>
      </trkpt>
      <trkpt lat="48.12244" lon="-3.81309">
        <ele>158.2</ele>
        <time>2022-12-08T10:39:32Z</time>
      </trkpt>
      <trkpt lat="48.12247" lon="-3.81309">
        <ele>158.3</ele>
        <time>2022-12-08T10:39:33Z</time>
      </trkpt>
      <trkpt lat="48.1225" lon="-3.8131">
        <ele>158.4</ele>
        <time>2022-12-08T10:39:34Z</time>
      </trkpt>
      <trkpt lat="48.12254" lon="-3.8131">
        <ele>158.5</ele>
        <time>2022-12-08T10:39:35Z</time>
      </trkpt>
      <trkpt lat="48.12258" lon="-3.81311">
        <ele>158.6</ele>
        <time>2022-12-08T10:39:36Z</time>
      </trkpt>
      <trkpt lat="48.1226" lon="-3.81311">
        <ele>158.7</ele>
        <time>2022-12-08T10:39:37Z</time>
      </trkpt>
      <trkpt lat="48.12264" lon="-3.81311">
        <ele>158.8</ele>
        <time>2022-12-08T10:39:38Z</time>
      </trkpt>
      <trkpt lat="48.12267" lon="-3.8131">
        <ele>158.9</ele>
        <time>2022-12-08T10:39:40Z</time>
      </trkpt>
      <trkpt lat="48.12272" lon="-3.81311">
        <ele>159.1</ele>
        <time>2022-12-08T10:39:41Z</time>
      </trkpt>
      <trkpt lat="48.12276" lon="-3.81311">
        <ele>159.2</ele>
        <time>2022-12-08T10:39:42Z</time>
      </trkpt>
      <trkpt lat="48.12281" lon="-3.81311">
        <ele>159.3</ele>
        <time>2022-12-08T10:39:44Z</time>
      </trkpt>
      <trkpt lat="48.12284" lon="-3.81311">
        <ele>159.4</ele>
        <time>2022-12-08T10:39:45Z</time>
      </trkpt>
      <trkpt lat="48.12288" lon="-3.81311">
        <ele>159.5</ele>
        <time>2022-12-08T10:39:46Z</time>
      </trkpt>
      <trkpt lat="48.12292" lon="-3.81312">
        <ele>159.7</ele>
        <time>2022-12-08T10:39:47Z</time>
      </trkpt>
      <trkpt lat="48.12294" lon="-3.81312">
        <ele>159.7</ele>
        <time>2022-12-08T10:39:48Z</time>
      </trkpt>
      <trkpt lat="48.12299" lon="-3.81312">
        <ele>159.9</ele>
        <time>2022-12-08T10:39:49Z</time>
      </trkpt>
      <trkpt lat="48.12302" lon="-3.81312">
        <ele>160</ele>
        <time>2022-12-08T10:39:50Z</time>
      </trkpt>
      <trkpt lat="48.12306" lon="-3.81312">
        <ele>160.1</ele>
        <time>2022-12-08T10:39:51Z</time>
      </trkpt>
      <trkpt lat="48.12309" lon="-3.81311">
        <ele>160.2</ele>
        <time>2022-12-08T10:39:52Z</time>
      </trkpt>
      <trkpt lat="48.12312" lon="-3.81311">
        <ele>160.3</ele>
        <time>2022-12-08T10:39:53Z</time>
      </trkpt>
      <trkpt lat="48.12315" lon="-3.81311">
        <ele>160.4</ele>
        <time>2022-12-08T10:39:55Z</time>
      </trkpt>
      <trkpt lat="48.12319" lon="-3.81311">
        <ele>160.5</ele>
        <time>2022-12-08T10:39:56Z</time>
      </trkpt>
      <trkpt lat="48.12323" lon="-3.8131">
        <ele>160.6</ele>
        <time>2022-12-08T10:39:57Z</time>
      </trkpt>
      <trkpt lat="48.12327" lon="-3.8131">
        <ele>160.7</ele>
        <time>2022-12-08T10:39:58Z</time>
      </trkpt>
      <trkpt lat="48.12331" lon="-3.8131">
        <ele>160.8</ele>
        <time>2022-12-08T10:40:00Z</time>
      </trkpt>
      <trkpt lat="48.12334" lon="-3.81311">
        <ele>160.9</ele>
        <time>2022-12-08T10:40:01Z</time>
      </trkpt>
      <trkpt lat="48.12337" lon="-3.81311">
        <ele>161</ele>
        <time>2022-12-08T10:40:02Z</time>
      </trkpt>
      <trkpt lat="48.12341" lon="-3.81312">
        <ele>161.2</ele>
        <time>2022-12-08T10:40:03Z</time>
      </trkpt>
      <trkpt lat="48.12344" lon="-3.81312">
        <ele>161.3</ele>
        <time>2022-12-08T10:40:04Z</time>
      </trkpt>
      <trkpt lat="48.12345" lon="-3.81312">
        <ele>161.3</ele>
        <time>2022-12-08T10:40:05Z</time>
      </trkpt>
      <trkpt lat="48.12348" lon="-3.81312">
        <ele>161.4</ele>
        <time>2022-12-08T10:40:06Z</time>
      </trkpt>
      <trkpt lat="48.12351" lon="-3.81313">
        <ele>161.5</ele>
        <time>2022-12-08T10:40:07Z</time>
      </trkpt>
      <trkpt lat="48.12352" lon="-3.81313">
        <ele>161.5</ele>
        <time>2022-12-08T10:40:08Z</time>
      </trkpt>
      <trkpt lat="48.12355" lon="-3.81313">
        <ele>161.6</ele>
        <time>2022-12-08T10:40:09Z</time>
      </trkpt>
      <trkpt lat="48.12358" lon="-3.81313">
        <ele>161.7</ele>
        <time>2022-12-08T10:40:10Z</time>
      </trkpt>
      <trkpt lat="48.12362" lon="-3.81314">
        <ele>161.8</ele>
        <time>2022-12-08T10:40:11Z</time>
      </trkpt>
      <trkpt lat="48.12362" lon="-3.81314">
        <ele>161.8</ele>
        <time>2022-12-08T10:40:12Z</time>
      </trkpt>
      <trkpt lat="48.12368" lon="-3.81315">
        <ele>162</ele>
        <time>2022-12-08T10:40:14Z</time>
      </trkpt>
      <trkpt lat="48.1237" lon="-3.81316">
        <ele>162</ele>
        <time>2022-12-08T10:40:15Z</time>
      </trkpt>
      <trkpt lat="48.12372" lon="-3.81316">
        <ele>162.1</ele>
        <time>2022-12-08T10:40:16Z</time>
      </trkpt>
      <trkpt lat="48.12375" lon="-3.81317">
        <ele>162.2</ele>
        <time>2022-12-08T10:40:17Z</time>
      </trkpt>
      <trkpt lat="48.12378" lon="-3.81317">
        <ele>162.3</ele>
        <time>2022-12-08T10:40:18Z</time>
      </trkpt>
      <trkpt lat="48.12379" lon="-3.81318">
        <ele>162.3</ele>
        <time>2022-12-08T10:40:19Z</time>
      </trkpt>
      <trkpt lat="48.12383" lon="-3.81319">
        <ele>162.5</ele>
        <time>2022-12-08T10:40:20Z</time>
      </trkpt>
      <trkpt lat="48.12384" lon="-3.81319">
        <ele>162.5</ele>
        <time>2022-12-08T10:40:21Z</time>
      </trkpt>
      <trkpt lat="48.12388" lon="-3.8132">
        <ele>162.6</ele>
        <time>2022-12-08T10:40:22Z</time>
      </trkpt>
      <trkpt lat="48.12389" lon="-3.8132">
        <ele>162.6</ele>
        <time>2022-12-08T10:40:23Z</time>
      </trkpt>
      <trkpt lat="48.12394" lon="-3.81321">
        <ele>162.8</ele>
        <time>2022-12-08T10:40:25Z</time>
      </trkpt>
      <trkpt lat="48.12395" lon="-3.81321">
        <ele>162.8</ele>
        <time>2022-12-08T10:40:26Z</time>
      </trkpt>
      <trkpt lat="48.12397" lon="-3.81321">
        <ele>162.9</ele>
        <time>2022-12-08T10:40:27Z</time>
      </trkpt>
      <trkpt lat="48.124" lon="-3.81321">
        <ele>163</ele>
        <time>2022-12-08T10:40:28Z</time>
      </trkpt>
      <trkpt lat="48.12404" lon="-3.81322">
        <ele>163.1</ele>
        <time>2022-12-08T10:40:29Z</time>
      </trkpt>
      <trkpt lat="48.12405" lon="-3.81321">
        <ele>163.1</ele>
        <time>2022-12-08T10:40:30Z</time>
      </trkpt>
      <trkpt lat="48.12409" lon="-3.81321">
        <ele>163.3</ele>
        <time>2022-12-08T10:40:31Z</time>
      </trkpt>
      <trkpt lat="48.1241" lon="-3.81321">
        <ele>163.3</ele>
        <time>2022-12-08T10:40:32Z</time>
      </trkpt>
      <trkpt lat="48.12414" lon="-3.8132">
        <ele>163.4</ele>
        <time>2022-12-08T10:40:33Z</time>
      </trkpt>
      <trkpt lat="48.12415" lon="-3.8132">
        <ele>163.4</ele>
        <time>2022-12-08T10:40:34Z</time>
      </trkpt>
      <trkpt lat="48.12419" lon="-3.81318">
        <ele>163.6</ele>
        <time>2022-12-08T10:40:35Z</time>
      </trkpt>
      <trkpt lat="48.1242" lon="-3.81318">
        <ele>163.6</ele>
        <time>2022-12-08T10:40:36Z</time>
      </trkpt>
      <trkpt lat="48.12423" lon="-3.81316">
        <ele>163.7</ele>
        <time>2022-12-08T10:40:37Z</time>
      </trkpt>
      <trkpt lat="48.12425" lon="-3.81315">
        <ele>163.7</ele>
        <time>2022-12-08T10:40:38Z</time>
      </trkpt>
      <trkpt lat="48.12428" lon="-3.81312">
        <ele>163.9</ele>
        <time>2022-12-08T10:40:39Z</time>
      </trkpt>
      <trkpt lat="48.12429" lon="-3.81311">
        <ele>163.9</ele>
        <time>2022-12-08T10:40:40Z</time>
      </trkpt>
      <trkpt lat="48.12433" lon="-3.81309">
        <ele>164</ele>
        <time>2022-12-08T10:40:41Z</time>
      </trkpt>
      <trkpt lat="48.12434" lon="-3.81308">
        <ele>164.1</ele>
        <time>2022-12-08T10:40:42Z</time>
      </trkpt>
      <trkpt lat="48.12436" lon="-3.81304">
        <ele>164.2</ele>
        <time>2022-12-08T10:40:43Z</time>
      </trkpt>
      <trkpt lat="48.12437" lon="-3.81303">
        <ele>164.2</ele>
        <time>2022-12-08T10:40:44Z</time>
      </trkpt>
      <trkpt lat="48.12438" lon="-3.813">
        <ele>164.3</ele>
        <time>2022-12-08T10:40:45Z</time>
      </trkpt>
      <trkpt lat="48.12441" lon="-3.81296">
        <ele>164.4</ele>
        <time>2022-12-08T10:40:47Z</time>
      </trkpt>
      <trkpt lat="48.12443" lon="-3.81292">
        <ele>164.5</ele>
        <time>2022-12-08T10:40:48Z</time>
      </trkpt>
      <trkpt lat="48.12445" lon="-3.81288">
        <ele>164.6</ele>
        <time>2022-12-08T10:40:49Z</time>
      </trkpt>
      <trkpt lat="48.12447" lon="-3.81284">
        <ele>164.7</ele>
        <time>2022-12-08T10:40:50Z</time>
      </trkpt>
      <trkpt lat="48.12448" lon="-3.8128">
        <ele>164.8</ele>
        <time>2022-12-08T10:40:51Z</time>
      </trkpt>
      <trkpt lat="48.1245" lon="-3.81277">
        <ele>164.9</ele>
        <time>2022-12-08T10:40:52Z</time>
      </trkpt>
      <trkpt lat="48.12451" lon="-3.81273">
        <ele>165</ele>
        <time>2022-12-08T10:40:53Z</time>
      </trkpt>
      <trkpt lat="48.12454" lon="-3.81266">
        <ele>165.1</ele>
        <time>2022-12-08T10:40:55Z</time>
      </trkpt>
      <trkpt lat="48.12455" lon="-3.81262">
        <ele>165.2</ele>
        <time>2022-12-08T10:40:56Z</time>
      </trkpt>
      <trkpt lat="48.12457" lon="-3.81256">
        <ele>165.3</ele>
        <time>2022-12-08T10:40:57Z</time>
      </trkpt>
      <trkpt lat="48.12459" lon="-3.81252">
        <ele>165.4</ele>
        <time>2022-12-08T10:40:58Z</time>
      </trkpt>
      <trkpt lat="48.1246" lon="-3.81248">
        <ele>165.5</ele>
        <time>2022-12-08T10:40:59Z</time>
      </trkpt>
      <trkpt lat="48.12462" lon="-3.81244">
        <ele>165.6</ele>
        <time>2022-12-08T10:41:00Z</time>
      </trkpt>
      <trkpt lat="48.12463" lon="-3.8124">
        <ele>165.7</ele>
        <time>2022-12-08T10:41:01Z</time>
      </trkpt>
      <trkpt lat="48.12465" lon="-3.81236">
        <ele>165.8</ele>
        <time>2022-12-08T10:41:02Z</time>
      </trkpt>
      <trkpt lat="48.1247" lon="-3.81229">
        <ele>166</ele>
        <time>2022-12-08T10:41:04Z</time>
      </trkpt>
      <trkpt lat="48.12472" lon="-3.81225">
        <ele>166.1</ele>
        <time>2022-12-08T10:41:05Z</time>
      </trkpt>
      <trkpt lat="48.12474" lon="-3.81222">
        <ele>166.1</ele>
        <time>2022-12-08T10:41:06Z</time>
      </trkpt>
      <trkpt lat="48.12476" lon="-3.81218">
        <ele>166.1</ele>
        <time>2022-12-08T10:41:07Z</time>
      </trkpt>
      <trkpt lat="48.12478" lon="-3.81214">
        <ele>166.1</ele>
        <time>2022-12-08T10:41:08Z</time>
      </trkpt>
      <trkpt lat="48.1248" lon="-3.81211">
        <ele>166.1</ele>
        <time>2022-12-08T10:41:09Z</time>
      </trkpt>
      <trkpt lat="48.12483" lon="-3.81206">
        <ele>166.1</ele>
        <time>2022-12-08T10:41:10Z</time>
      </trkpt>
      <trkpt lat="48.12485" lon="-3.81202">
        <ele>166.1</ele>
        <time>2022-12-08T10:41:11Z</time>
      </trkpt>
      <trkpt lat="48.12487" lon="-3.81198">
        <ele>166.2</ele>
        <time>2022-12-08T10:41:12Z</time>
      </trkpt>
      <trkpt lat="48.1249" lon="-3.81194">
        <ele>166.2</ele>
        <time>2022-12-08T10:41:13Z</time>
      </trkpt>
      <trkpt lat="48.12491" lon="-3.81192">
        <ele>166.2</ele>
        <time>2022-12-08T10:41:14Z</time>
      </trkpt>
      <trkpt lat="48.12493" lon="-3.81188">
        <ele>166.2</ele>
        <time>2022-12-08T10:41:15Z</time>
      </trkpt>
      <trkpt lat="48.12494" lon="-3.81183">
        <ele>166.2</ele>
        <time>2022-12-08T10:41:16Z</time>
      </trkpt>
      <trkpt lat="48.12497" lon="-3.81176">
        <ele>166.2</ele>
        <time>2022-12-08T10:41:18Z</time>
      </trkpt>
      <trkpt lat="48.12499" lon="-3.81171">
        <ele>166.2</ele>
        <time>2022-12-08T10:41:19Z</time>
      </trkpt>
      <trkpt lat="48.12501" lon="-3.81166">
        <ele>166.3</ele>
        <time>2022-12-08T10:41:20Z</time>
      </trkpt>
      <trkpt lat="48.12503" lon="-3.81159">
        <ele>166.3</ele>
        <time>2022-12-08T10:41:21Z</time>
      </trkpt>
      <trkpt lat="48.12504" lon="-3.81153">
        <ele>166.3</ele>
        <time>2022-12-08T10:41:22Z</time>
      </trkpt>
      <trkpt lat="48.12505" lon="-3.81147">
        <ele>166.3</ele>
        <time>2022-12-08T10:41:23Z</time>
      </trkpt>
      <trkpt lat="48.12506" lon="-3.81141">
        <ele>166.3</ele>
        <time>2022-12-08T10:41:24Z</time>
      </trkpt>
      <trkpt lat="48.12506" lon="-3.81134">
        <ele>166.3</ele>
        <time>2022-12-08T10:41:25Z</time>
      </trkpt>
      <trkpt lat="48.12506" lon="-3.81128">
        <ele>166.3</ele>
        <time>2022-12-08T10:41:26Z</time>
      </trkpt>
      <trkpt lat="48.12506" lon="-3.81123">
        <ele>166.4</ele>
        <time>2022-12-08T10:41:27Z</time>
      </trkpt>
      <trkpt lat="48.12507" lon="-3.81117">
        <ele>166.4</ele>
        <time>2022-12-08T10:41:28Z</time>
      </trkpt>
      <trkpt lat="48.12508" lon="-3.81111">
        <ele>166.4</ele>
        <time>2022-12-08T10:41:29Z</time>
      </trkpt>
      <trkpt lat="48.1251" lon="-3.81105">
        <ele>166.4</ele>
        <time>2022-12-08T10:41:31Z</time>
      </trkpt>
      <trkpt lat="48.12513" lon="-3.81098">
        <ele>167.3</ele>
        <time>2022-12-08T10:41:32Z</time>
      </trkpt>
      <trkpt lat="48.12516" lon="-3.81095">
        <ele>167.8</ele>
        <time>2022-12-08T10:41:33Z</time>
      </trkpt>
      <trkpt lat="48.12519" lon="-3.81093">
        <ele>168.1</ele>
        <time>2022-12-08T10:41:34Z</time>
      </trkpt>
      <trkpt lat="48.12523" lon="-3.81091">
        <ele>168.6</ele>
        <time>2022-12-08T10:41:35Z</time>
      </trkpt>
      <trkpt lat="48.12526" lon="-3.8109">
        <ele>168.9</ele>
        <time>2022-12-08T10:41:36Z</time>
      </trkpt>
      <trkpt lat="48.1253" lon="-3.81087">
        <ele>169.5</ele>
        <time>2022-12-08T10:41:38Z</time>
      </trkpt>
      <trkpt lat="48.12534" lon="-3.81085">
        <ele>170</ele>
        <time>2022-12-08T10:41:39Z</time>
      </trkpt>
      <trkpt lat="48.12536" lon="-3.81085">
        <ele>170.1</ele>
        <time>2022-12-08T10:41:40Z</time>
      </trkpt>
      <trkpt lat="48.12539" lon="-3.81083">
        <ele>170.5</ele>
        <time>2022-12-08T10:41:42Z</time>
      </trkpt>
      <trkpt lat="48.12542" lon="-3.81081">
        <ele>170.9</ele>
        <time>2022-12-08T10:41:43Z</time>
      </trkpt>
      <trkpt lat="48.12545" lon="-3.81079">
        <ele>171.3</ele>
        <time>2022-12-08T10:41:44Z</time>
      </trkpt>
      <trkpt lat="48.12548" lon="-3.81078">
        <ele>171.6</ele>
        <time>2022-12-08T10:41:45Z</time>
      </trkpt>
      <trkpt lat="48.12551" lon="-3.81075">
        <ele>172</ele>
        <time>2022-12-08T10:41:46Z</time>
      </trkpt>
      <trkpt lat="48.12552" lon="-3.81075">
        <ele>172.1</ele>
        <time>2022-12-08T10:41:47Z</time>
      </trkpt>
      <trkpt lat="48.12555" lon="-3.81073">
        <ele>172.5</ele>
        <time>2022-12-08T10:41:48Z</time>
      </trkpt>
      <trkpt lat="48.12556" lon="-3.81072">
        <ele>172.6</ele>
        <time>2022-12-08T10:41:49Z</time>
      </trkpt>
      <trkpt lat="48.12557" lon="-3.81072">
        <ele>172.8</ele>
        <time>2022-12-08T10:41:50Z</time>
      </trkpt>
      <trkpt lat="48.1256" lon="-3.81071">
        <ele>173.1</ele>
        <time>2022-12-08T10:41:52Z</time>
      </trkpt>
      <trkpt lat="48.12563" lon="-3.81068">
        <ele>173.5</ele>
        <time>2022-12-08T10:41:53Z</time>
      </trkpt>
      <trkpt lat="48.12564" lon="-3.81068">
        <ele>173.6</ele>
        <time>2022-12-08T10:41:54Z</time>
      </trkpt>
      <trkpt lat="48.12566" lon="-3.81065">
        <ele>174</ele>
        <time>2022-12-08T10:41:55Z</time>
      </trkpt>
      <trkpt lat="48.12567" lon="-3.81064">
        <ele>174.1</ele>
        <time>2022-12-08T10:41:56Z</time>
      </trkpt>
      <trkpt lat="48.12571" lon="-3.81063">
        <ele>174.5</ele>
        <time>2022-12-08T10:41:57Z</time>
      </trkpt>
      <trkpt lat="48.12574" lon="-3.81062">
        <ele>174.8</ele>
        <time>2022-12-08T10:41:58Z</time>
      </trkpt>
      <trkpt lat="48.12577" lon="-3.81059">
        <ele>175.3</ele>
        <time>2022-12-08T10:41:59Z</time>
      </trkpt>
      <trkpt lat="48.12579" lon="-3.81058">
        <ele>175.5</ele>
        <time>2022-12-08T10:42:00Z</time>
      </trkpt>
      <trkpt lat="48.12583" lon="-3.81056">
        <ele>176</ele>
        <time>2022-12-08T10:42:02Z</time>
      </trkpt>
      <trkpt lat="48.12587" lon="-3.81056">
        <ele>176.4</ele>
        <time>2022-12-08T10:42:03Z</time>
      </trkpt>
      <trkpt lat="48.12588" lon="-3.81055">
        <ele>176.5</ele>
        <time>2022-12-08T10:42:04Z</time>
      </trkpt>
      <trkpt lat="48.12591" lon="-3.81054">
        <ele>176.9</ele>
        <time>2022-12-08T10:42:05Z</time>
      </trkpt>
      <trkpt lat="48.12594" lon="-3.81054">
        <ele>177.3</ele>
        <time>2022-12-08T10:42:06Z</time>
      </trkpt>
      <trkpt lat="48.12595" lon="-3.81053">
        <ele>177.4</ele>
        <time>2022-12-08T10:42:07Z</time>
      </trkpt>
      <trkpt lat="48.12599" lon="-3.81053">
        <ele>177.8</ele>
        <time>2022-12-08T10:42:08Z</time>
      </trkpt>
      <trkpt lat="48.126" lon="-3.81053">
        <ele>178</ele>
        <time>2022-12-08T10:42:09Z</time>
      </trkpt>
      <trkpt lat="48.12602" lon="-3.81052">
        <ele>178.2</ele>
        <time>2022-12-08T10:42:10Z</time>
      </trkpt>
      <trkpt lat="48.12604" lon="-3.81052">
        <ele>178.4</ele>
        <time>2022-12-08T10:42:11Z</time>
      </trkpt>
      <trkpt lat="48.12607" lon="-3.81053">
        <ele>178.7</ele>
        <time>2022-12-08T10:42:12Z</time>
      </trkpt>
      <trkpt lat="48.12608" lon="-3.81054">
        <ele>178.8</ele>
        <time>2022-12-08T10:42:13Z</time>
      </trkpt>
      <trkpt lat="48.12609" lon="-3.81054">
        <ele>179</ele>
        <time>2022-12-08T10:42:14Z</time>
      </trkpt>
      <trkpt lat="48.12611" lon="-3.81055">
        <ele>179.2</ele>
        <time>2022-12-08T10:42:15Z</time>
      </trkpt>
      <trkpt lat="48.12615" lon="-3.81056">
        <ele>179.6</ele>
        <time>2022-12-08T10:42:17Z</time>
      </trkpt>
      <trkpt lat="48.12616" lon="-3.81056">
        <ele>179.8</ele>
        <time>2022-12-08T10:42:18Z</time>
      </trkpt>
      <trkpt lat="48.12618" lon="-3.81056">
        <ele>180.1</ele>
        <time>2022-12-08T10:42:19Z</time>
      </trkpt>
      <trkpt lat="48.12622" lon="-3.81057">
        <ele>180.5</ele>
        <time>2022-12-08T10:42:21Z</time>
      </trkpt>
      <trkpt lat="48.12625" lon="-3.81058">
        <ele>180.9</ele>
        <time>2022-12-08T10:42:22Z</time>
      </trkpt>
      <trkpt lat="48.12629" lon="-3.81059">
        <ele>181.3</ele>
        <time>2022-12-08T10:42:23Z</time>
      </trkpt>
      <trkpt lat="48.1263" lon="-3.81059">
        <ele>181.4</ele>
        <time>2022-12-08T10:42:24Z</time>
      </trkpt>
      <trkpt lat="48.12631" lon="-3.81059">
        <ele>181.6</ele>
        <time>2022-12-08T10:42:25Z</time>
      </trkpt>
      <trkpt lat="48.12634" lon="-3.81061">
        <ele>181.9</ele>
        <time>2022-12-08T10:42:27Z</time>
      </trkpt>
      <trkpt lat="48.12637" lon="-3.81063">
        <ele>182.3</ele>
        <time>2022-12-08T10:42:28Z</time>
      </trkpt>
      <trkpt lat="48.12638" lon="-3.81064">
        <ele>182.5</ele>
        <time>2022-12-08T10:42:29Z</time>
      </trkpt>
      <trkpt lat="48.1264" lon="-3.81064">
        <ele>182.8</ele>
        <time>2022-12-08T10:42:30Z</time>
      </trkpt>
      <trkpt lat="48.12642" lon="-3.81065">
        <ele>183</ele>
        <time>2022-12-08T10:42:31Z</time>
      </trkpt>
      <trkpt lat="48.12644" lon="-3.81066">
        <ele>183.4</ele>
        <time>2022-12-08T10:42:32Z</time>
      </trkpt>
      <trkpt lat="48.12646" lon="-3.81067">
        <ele>183.6</ele>
        <time>2022-12-08T10:42:33Z</time>
      </trkpt>
      <trkpt lat="48.12647" lon="-3.81067">
        <ele>183.8</ele>
        <time>2022-12-08T10:42:34Z</time>
      </trkpt>
      <trkpt lat="48.12648" lon="-3.81068">
        <ele>184</ele>
        <time>2022-12-08T10:42:35Z</time>
      </trkpt>
      <trkpt lat="48.1265" lon="-3.8107">
        <ele>184.4</ele>
        <time>2022-12-08T10:42:36Z</time>
      </trkpt>
      <trkpt lat="48.12652" lon="-3.81071">
        <ele>184.7</ele>
        <time>2022-12-08T10:42:38Z</time>
      </trkpt>
      <trkpt lat="48.12655" lon="-3.81072">
        <ele>185.1</ele>
        <time>2022-12-08T10:42:39Z</time>
      </trkpt>
      <trkpt lat="48.12659" lon="-3.81073">
        <ele>185.7</ele>
        <time>2022-12-08T10:42:41Z</time>
      </trkpt>
      <trkpt lat="48.1266" lon="-3.81074">
        <ele>185.9</ele>
        <time>2022-12-08T10:42:42Z</time>
      </trkpt>
      <trkpt lat="48.12662" lon="-3.81075">
        <ele>186.1</ele>
        <time>2022-12-08T10:42:43Z</time>
      </trkpt>
      <trkpt lat="48.12664" lon="-3.81076">
        <ele>186.4</ele>
        <time>2022-12-08T10:42:44Z</time>
      </trkpt>
      <trkpt lat="48.12664" lon="-3.81076">
        <ele>186.5</ele>
        <time>2022-12-08T10:42:45Z</time>
      </trkpt>
      <trkpt lat="48.12665" lon="-3.81077">
        <ele>186.6</ele>
        <time>2022-12-08T10:42:46Z</time>
      </trkpt>
      <trkpt lat="48.12666" lon="-3.81078">
        <ele>186.8</ele>
        <time>2022-12-08T10:42:47Z</time>
      </trkpt>
      <trkpt lat="48.12667" lon="-3.81079">
        <ele>187</ele>
        <time>2022-12-08T10:42:48Z</time>
      </trkpt>
      <trkpt lat="48.12669" lon="-3.8108">
        <ele>187.3</ele>
        <time>2022-12-08T10:42:49Z</time>
      </trkpt>
      <trkpt lat="48.1267" lon="-3.8108">
        <ele>187.4</ele>
        <time>2022-12-08T10:42:50Z</time>
      </trkpt>
      <trkpt lat="48.12671" lon="-3.8108">
        <ele>187.6</ele>
        <time>2022-12-08T10:42:51Z</time>
      </trkpt>
      <trkpt lat="48.12673" lon="-3.81082">
        <ele>187.9</ele>
        <time>2022-12-08T10:42:52Z</time>
      </trkpt>
      <trkpt lat="48.12675" lon="-3.81084">
        <ele>188.3</ele>
        <time>2022-12-08T10:42:53Z</time>
      </trkpt>
      <trkpt lat="48.12676" lon="-3.81085">
        <ele>188.4</ele>
        <time>2022-12-08T10:42:54Z</time>
      </trkpt>
      <trkpt lat="48.12678" lon="-3.81085">
        <ele>188.6</ele>
        <time>2022-12-08T10:42:55Z</time>
      </trkpt>
      <trkpt lat="48.12679" lon="-3.81086">
        <ele>188.8</ele>
        <time>2022-12-08T10:42:56Z</time>
      </trkpt>
      <trkpt lat="48.1268" lon="-3.81087">
        <ele>189.1</ele>
        <time>2022-12-08T10:42:57Z</time>
      </trkpt>
      <trkpt lat="48.12681" lon="-3.81087">
        <ele>189.2</ele>
        <time>2022-12-08T10:42:58Z</time>
      </trkpt>
      <trkpt lat="48.12682" lon="-3.81088">
        <ele>189.4</ele>
        <time>2022-12-08T10:42:59Z</time>
      </trkpt>
      <trkpt lat="48.12684" lon="-3.81088">
        <ele>189.5</ele>
        <time>2022-12-08T10:43:00Z</time>
      </trkpt>
      <trkpt lat="48.12684" lon="-3.81088">
        <ele>189.7</ele>
        <time>2022-12-08T10:43:01Z</time>
      </trkpt>
      <trkpt lat="48.12686" lon="-3.81089">
        <ele>189.9</ele>
        <time>2022-12-08T10:43:03Z</time>
      </trkpt>
      <trkpt lat="48.12689" lon="-3.81089">
        <ele>190.7</ele>
        <time>2022-12-08T10:43:04Z</time>
      </trkpt>
      <trkpt lat="48.1269" lon="-3.81089">
        <ele>190.5</ele>
        <time>2022-12-08T10:43:05Z</time>
      </trkpt>
      <trkpt lat="48.12691" lon="-3.81088">
        <ele>190.3</ele>
        <time>2022-12-08T10:43:06Z</time>
      </trkpt>
      <trkpt lat="48.12692" lon="-3.81086">
        <ele>190.1</ele>
        <time>2022-12-08T10:43:07Z</time>
      </trkpt>
      <trkpt lat="48.12693" lon="-3.81084">
        <ele>189.8</ele>
        <time>2022-12-08T10:43:08Z</time>
      </trkpt>
      <trkpt lat="48.12694" lon="-3.81082">
        <ele>189.6</ele>
        <time>2022-12-08T10:43:09Z</time>
      </trkpt>
      <trkpt lat="48.12695" lon="-3.8108">
        <ele>189.3</ele>
        <time>2022-12-08T10:43:10Z</time>
      </trkpt>
      <trkpt lat="48.12696" lon="-3.81079">
        <ele>188.9</ele>
        <time>2022-12-08T10:43:11Z</time>
      </trkpt>
      <trkpt lat="48.12697" lon="-3.81076">
        <ele>188.5</ele>
        <time>2022-12-08T10:43:12Z</time>
      </trkpt>
      <trkpt lat="48.12697" lon="-3.81075">
        <ele>188.3</ele>
        <time>2022-12-08T10:43:13Z</time>
      </trkpt>
      <trkpt lat="48.12697" lon="-3.81074">
        <ele>188</ele>
        <time>2022-12-08T10:43:14Z</time>
      </trkpt>
      <trkpt lat="48.12698" lon="-3.81072">
        <ele>187.8</ele>
        <time>2022-12-08T10:43:15Z</time>
      </trkpt>
      <trkpt lat="48.12698" lon="-3.81072">
        <ele>187.7</ele>
        <time>2022-12-08T10:43:16Z</time>
      </trkpt>
      <trkpt lat="48.12698" lon="-3.81071">
        <ele>187.5</ele>
        <time>2022-12-08T10:43:17Z</time>
      </trkpt>
      <trkpt lat="48.12699" lon="-3.8107">
        <ele>187.3</ele>
        <time>2022-12-08T10:43:18Z</time>
      </trkpt>
      <trkpt lat="48.12699" lon="-3.81069">
        <ele>187.2</ele>
        <time>2022-12-08T10:43:19Z</time>
      </trkpt>
      <trkpt lat="48.12699" lon="-3.81069">
        <ele>187</ele>
        <time>2022-12-08T10:43:20Z</time>
      </trkpt>
      <trkpt lat="48.127" lon="-3.81068">
        <ele>186.9</ele>
        <time>2022-12-08T10:43:21Z</time>
      </trkpt>
      <trkpt lat="48.127" lon="-3.81067">
        <ele>186.8</ele>
        <time>2022-12-08T10:43:22Z</time>
      </trkpt>
      <trkpt lat="48.127" lon="-3.81067">
        <ele>186.6</ele>
        <time>2022-12-08T10:43:23Z</time>
      </trkpt>
      <trkpt lat="48.12701" lon="-3.81066">
        <ele>186.5</ele>
        <time>2022-12-08T10:43:24Z</time>
      </trkpt>
      <trkpt lat="48.12701" lon="-3.81065">
        <ele>186.3</ele>
        <time>2022-12-08T10:43:36Z</time>
      </trkpt>
      <trkpt lat="48.12701" lon="-3.81064">
        <ele>186.2</ele>
        <time>2022-12-08T10:43:37Z</time>
      </trkpt>
      <trkpt lat="48.12702" lon="-3.81064">
        <ele>186.1</ele>
        <time>2022-12-08T10:43:38Z</time>
      </trkpt>
      <trkpt lat="48.12703" lon="-3.81062">
        <ele>185.7</ele>
        <time>2022-12-08T10:43:39Z</time>
      </trkpt>
      <trkpt lat="48.12704" lon="-3.8106">
        <ele>185.5</ele>
        <time>2022-12-08T10:43:40Z</time>
      </trkpt>
      <trkpt lat="48.12705" lon="-3.81057">
        <ele>185.2</ele>
        <time>2022-12-08T10:43:41Z</time>
      </trkpt>
      <trkpt lat="48.12706" lon="-3.81055">
        <ele>185.1</ele>
        <time>2022-12-08T10:43:42Z</time>
      </trkpt>
      <trkpt lat="48.12708" lon="-3.81053">
        <ele>184.9</ele>
        <time>2022-12-08T10:43:44Z</time>
      </trkpt>
      <trkpt lat="48.12709" lon="-3.81051">
        <ele>184.9</ele>
        <time>2022-12-08T10:43:45Z</time>
      </trkpt>
      <trkpt lat="48.1271" lon="-3.81048">
        <ele>184.9</ele>
        <time>2022-12-08T10:43:47Z</time>
      </trkpt>
      <trkpt lat="48.12711" lon="-3.81045">
        <ele>185</ele>
        <time>2022-12-08T10:43:48Z</time>
      </trkpt>
      <trkpt lat="48.12712" lon="-3.81044">
        <ele>185</ele>
        <time>2022-12-08T10:43:49Z</time>
      </trkpt>
      <trkpt lat="48.12714" lon="-3.81042">
        <ele>185.1</ele>
        <time>2022-12-08T10:43:50Z</time>
      </trkpt>
      <trkpt lat="48.12715" lon="-3.81041">
        <ele>185.2</ele>
        <time>2022-12-08T10:43:51Z</time>
      </trkpt>
      <trkpt lat="48.12716" lon="-3.81041">
        <ele>185.3</ele>
        <time>2022-12-08T10:43:52Z</time>
      </trkpt>
      <trkpt lat="48.12717" lon="-3.81039">
        <ele>185.5</ele>
        <time>2022-12-08T10:43:53Z</time>
      </trkpt>
      <trkpt lat="48.12717" lon="-3.81036">
        <ele>185.7</ele>
        <time>2022-12-08T10:43:54Z</time>
      </trkpt>
      <trkpt lat="48.12719" lon="-3.81033">
        <ele>186</ele>
        <time>2022-12-08T10:43:55Z</time>
      </trkpt>
      <trkpt lat="48.12719" lon="-3.81032">
        <ele>186.1</ele>
        <time>2022-12-08T10:43:56Z</time>
      </trkpt>
      <trkpt lat="48.12721" lon="-3.8103">
        <ele>186.4</ele>
        <time>2022-12-08T10:43:57Z</time>
      </trkpt>
      <trkpt lat="48.12722" lon="-3.81029">
        <ele>186.5</ele>
        <time>2022-12-08T10:43:58Z</time>
      </trkpt>
      <trkpt lat="48.12722" lon="-3.81028">
        <ele>186.6</ele>
        <time>2022-12-08T10:43:59Z</time>
      </trkpt>
      <trkpt lat="48.12724" lon="-3.81026">
        <ele>186.9</ele>
        <time>2022-12-08T10:44:00Z</time>
      </trkpt>
      <trkpt lat="48.12724" lon="-3.81026">
        <ele>186.9</ele>
        <time>2022-12-08T10:44:01Z</time>
      </trkpt>
      <trkpt lat="48.12725" lon="-3.81025">
        <ele>187.1</ele>
        <time>2022-12-08T10:44:02Z</time>
      </trkpt>
      <trkpt lat="48.12726" lon="-3.81023">
        <ele>187.4</ele>
        <time>2022-12-08T10:44:03Z</time>
      </trkpt>
      <trkpt lat="48.12728" lon="-3.8102">
        <ele>187.8</ele>
        <time>2022-12-08T10:44:05Z</time>
      </trkpt>
      <trkpt lat="48.12731" lon="-3.81017">
        <ele>188.2</ele>
        <time>2022-12-08T10:44:06Z</time>
      </trkpt>
      <trkpt lat="48.12731" lon="-3.81017">
        <ele>188.3</ele>
        <time>2022-12-08T10:44:07Z</time>
      </trkpt>
      <trkpt lat="48.12734" lon="-3.81014">
        <ele>188.8</ele>
        <time>2022-12-08T10:44:09Z</time>
      </trkpt>
      <trkpt lat="48.12735" lon="-3.81012">
        <ele>189</ele>
        <time>2022-12-08T10:44:10Z</time>
      </trkpt>
      <trkpt lat="48.12736" lon="-3.81009">
        <ele>189.4</ele>
        <time>2022-12-08T10:44:11Z</time>
      </trkpt>
      <trkpt lat="48.12737" lon="-3.81008">
        <ele>189.6</ele>
        <time>2022-12-08T10:44:12Z</time>
      </trkpt>
      <trkpt lat="48.12738" lon="-3.81005">
        <ele>189.8</ele>
        <time>2022-12-08T10:44:13Z</time>
      </trkpt>
      <trkpt lat="48.12739" lon="-3.81004">
        <ele>190.1</ele>
        <time>2022-12-08T10:44:14Z</time>
      </trkpt>
      <trkpt lat="48.12741" lon="-3.81001">
        <ele>190.6</ele>
        <time>2022-12-08T10:44:16Z</time>
      </trkpt>
      <trkpt lat="48.12742" lon="-3.80999">
        <ele>190.8</ele>
        <time>2022-12-08T10:44:17Z</time>
      </trkpt>
      <trkpt lat="48.12744" lon="-3.80998">
        <ele>191.1</ele>
        <time>2022-12-08T10:44:18Z</time>
      </trkpt>
      <trkpt lat="48.12745" lon="-3.80996">
        <ele>191.3</ele>
        <time>2022-12-08T10:44:19Z</time>
      </trkpt>
      <trkpt lat="48.12746" lon="-3.80995">
        <ele>191.5</ele>
        <time>2022-12-08T10:44:20Z</time>
      </trkpt>
      <trkpt lat="48.12747" lon="-3.80992">
        <ele>191.9</ele>
        <time>2022-12-08T10:44:21Z</time>
      </trkpt>
      <trkpt lat="48.12748" lon="-3.80991">
        <ele>192.1</ele>
        <time>2022-12-08T10:44:22Z</time>
      </trkpt>
      <trkpt lat="48.12749" lon="-3.80989">
        <ele>192.3</ele>
        <time>2022-12-08T10:44:23Z</time>
      </trkpt>
      <trkpt lat="48.12749" lon="-3.80988">
        <ele>192.5</ele>
        <time>2022-12-08T10:44:24Z</time>
      </trkpt>
      <trkpt lat="48.12751" lon="-3.80987">
        <ele>192.8</ele>
        <time>2022-12-08T10:44:25Z</time>
      </trkpt>
      <trkpt lat="48.12753" lon="-3.80985">
        <ele>193.1</ele>
        <time>2022-12-08T10:44:26Z</time>
      </trkpt>
      <trkpt lat="48.12753" lon="-3.80984">
        <ele>193.3</ele>
        <time>2022-12-08T10:44:27Z</time>
      </trkpt>
      <trkpt lat="48.12754" lon="-3.80983">
        <ele>193.4</ele>
        <time>2022-12-08T10:44:28Z</time>
      </trkpt>
      <trkpt lat="48.12755" lon="-3.80982">
        <ele>193.6</ele>
        <time>2022-12-08T10:44:29Z</time>
      </trkpt>
      <trkpt lat="48.12756" lon="-3.8098">
        <ele>193.8</ele>
        <time>2022-12-08T10:44:30Z</time>
      </trkpt>
      <trkpt lat="48.12757" lon="-3.80979">
        <ele>194.1</ele>
        <time>2022-12-08T10:44:31Z</time>
      </trkpt>
      <trkpt lat="48.12758" lon="-3.80977">
        <ele>194.3</ele>
        <time>2022-12-08T10:44:32Z</time>
      </trkpt>
      <trkpt lat="48.12759" lon="-3.80976">
        <ele>194.6</ele>
        <time>2022-12-08T10:44:33Z</time>
      </trkpt>
      <trkpt lat="48.1276" lon="-3.80974">
        <ele>194.9</ele>
        <time>2022-12-08T10:44:34Z</time>
      </trkpt>
      <trkpt lat="48.12762" lon="-3.80971">
        <ele>195.3</ele>
        <time>2022-12-08T10:44:36Z</time>
      </trkpt>
      <trkpt lat="48.12763" lon="-3.8097">
        <ele>195.5</ele>
        <time>2022-12-08T10:44:37Z</time>
      </trkpt>
      <trkpt lat="48.12765" lon="-3.80969">
        <ele>195.7</ele>
        <time>2022-12-08T10:44:38Z</time>
      </trkpt>
      <trkpt lat="48.12767" lon="-3.80967">
        <ele>196.2</ele>
        <time>2022-12-08T10:44:40Z</time>
      </trkpt>
      <trkpt lat="48.12769" lon="-3.80964">
        <ele>196.7</ele>
        <time>2022-12-08T10:44:41Z</time>
      </trkpt>
      <trkpt lat="48.1277" lon="-3.80963">
        <ele>196.8</ele>
        <time>2022-12-08T10:44:42Z</time>
      </trkpt>
      <trkpt lat="48.12771" lon="-3.80962">
        <ele>197</ele>
        <time>2022-12-08T10:44:43Z</time>
      </trkpt>
      <trkpt lat="48.12772" lon="-3.8096">
        <ele>197.3</ele>
        <time>2022-12-08T10:44:44Z</time>
      </trkpt>
      <trkpt lat="48.12773" lon="-3.80958">
        <ele>197.6</ele>
        <time>2022-12-08T10:44:45Z</time>
      </trkpt>
      <trkpt lat="48.12774" lon="-3.80957">
        <ele>197.7</ele>
        <time>2022-12-08T10:44:46Z</time>
      </trkpt>
      <trkpt lat="48.12774" lon="-3.80956">
        <ele>197.9</ele>
        <time>2022-12-08T10:44:47Z</time>
      </trkpt>
      <trkpt lat="48.12775" lon="-3.80954">
        <ele>198.1</ele>
        <time>2022-12-08T10:44:48Z</time>
      </trkpt>
      <trkpt lat="48.12775" lon="-3.80952">
        <ele>198.3</ele>
        <time>2022-12-08T10:44:49Z</time>
      </trkpt>
      <trkpt lat="48.12775" lon="-3.8095">
        <ele>198.6</ele>
        <time>2022-12-08T10:44:51Z</time>
      </trkpt>
      <trkpt lat="48.12776" lon="-3.80948">
        <ele>198.8</ele>
        <time>2022-12-08T10:44:52Z</time>
      </trkpt>
      <trkpt lat="48.12777" lon="-3.80946">
        <ele>199.1</ele>
        <time>2022-12-08T10:44:53Z</time>
      </trkpt>
      <trkpt lat="48.12778" lon="-3.80944">
        <ele>199.3</ele>
        <time>2022-12-08T10:44:54Z</time>
      </trkpt>
      <trkpt lat="48.12779" lon="-3.80943">
        <ele>199.5</ele>
        <time>2022-12-08T10:44:55Z</time>
      </trkpt>
      <trkpt lat="48.12781" lon="-3.8094">
        <ele>199.9</ele>
        <time>2022-12-08T10:44:56Z</time>
      </trkpt>
      <trkpt lat="48.12782" lon="-3.80939">
        <ele>200.1</ele>
        <time>2022-12-08T10:44:57Z</time>
      </trkpt>
      <trkpt lat="48.12783" lon="-3.80937">
        <ele>200.4</ele>
        <time>2022-12-08T10:44:58Z</time>
      </trkpt>
      <trkpt lat="48.12784" lon="-3.80935">
        <ele>200.6</ele>
        <time>2022-12-08T10:44:59Z</time>
      </trkpt>
      <trkpt lat="48.12785" lon="-3.80933">
        <ele>200.8</ele>
        <time>2022-12-08T10:45:00Z</time>
      </trkpt>
      <trkpt lat="48.12786" lon="-3.80933">
        <ele>201</ele>
        <time>2022-12-08T10:45:01Z</time>
      </trkpt>
      <trkpt lat="48.12787" lon="-3.80932">
        <ele>201.1</ele>
        <time>2022-12-08T10:45:02Z</time>
      </trkpt>
      <trkpt lat="48.12788" lon="-3.8093">
        <ele>201.3</ele>
        <time>2022-12-08T10:45:03Z</time>
      </trkpt>
      <trkpt lat="48.12789" lon="-3.80928">
        <ele>201.7</ele>
        <time>2022-12-08T10:45:05Z</time>
      </trkpt>
      <trkpt lat="48.12792" lon="-3.80925">
        <ele>202.1</ele>
        <time>2022-12-08T10:45:07Z</time>
      </trkpt>
      <trkpt lat="48.12792" lon="-3.80924">
        <ele>202.2</ele>
        <time>2022-12-08T10:45:08Z</time>
      </trkpt>
      <trkpt lat="48.12793" lon="-3.80921">
        <ele>202.5</ele>
        <time>2022-12-08T10:45:09Z</time>
      </trkpt>
      <trkpt lat="48.12794" lon="-3.80915">
        <ele>203.2</ele>
        <time>2022-12-08T10:45:11Z</time>
      </trkpt>
      <trkpt lat="48.12796" lon="-3.80911">
        <ele>203.6</ele>
        <time>2022-12-08T10:45:12Z</time>
      </trkpt>
      <trkpt lat="48.12797" lon="-3.8091">
        <ele>203.7</ele>
        <time>2022-12-08T10:45:13Z</time>
      </trkpt>
      <trkpt lat="48.12799" lon="-3.80908">
        <ele>204</ele>
        <time>2022-12-08T10:45:14Z</time>
      </trkpt>
      <trkpt lat="48.128" lon="-3.80907">
        <ele>204.2</ele>
        <time>2022-12-08T10:45:15Z</time>
      </trkpt>
      <trkpt lat="48.12801" lon="-3.80905">
        <ele>204.4</ele>
        <time>2022-12-08T10:45:16Z</time>
      </trkpt>
      <trkpt lat="48.12802" lon="-3.80904">
        <ele>204.5</ele>
        <time>2022-12-08T10:45:17Z</time>
      </trkpt>
      <trkpt lat="48.12803" lon="-3.80903">
        <ele>204.7</ele>
        <time>2022-12-08T10:45:18Z</time>
      </trkpt>
      <trkpt lat="48.12806" lon="-3.80901">
        <ele>205</ele>
        <time>2022-12-08T10:45:20Z</time>
      </trkpt>
      <trkpt lat="48.12807" lon="-3.80901">
        <ele>205.2</ele>
        <time>2022-12-08T10:45:21Z</time>
      </trkpt>
      <trkpt lat="48.12809" lon="-3.80899">
        <ele>205.5</ele>
        <time>2022-12-08T10:45:23Z</time>
      </trkpt>
      <trkpt lat="48.12811" lon="-3.80899">
        <ele>205.7</ele>
        <time>2022-12-08T10:45:24Z</time>
      </trkpt>
      <trkpt lat="48.12812" lon="-3.80898">
        <ele>205.8</ele>
        <time>2022-12-08T10:45:25Z</time>
      </trkpt>
      <trkpt lat="48.12814" lon="-3.80897">
        <ele>205.9</ele>
        <time>2022-12-08T10:45:26Z</time>
      </trkpt>
      <trkpt lat="48.12815" lon="-3.80896">
        <ele>206.1</ele>
        <time>2022-12-08T10:45:27Z</time>
      </trkpt>
      <trkpt lat="48.12817" lon="-3.80895">
        <ele>206.2</ele>
        <time>2022-12-08T10:45:28Z</time>
      </trkpt>
      <trkpt lat="48.12818" lon="-3.80894">
        <ele>206.4</ele>
        <time>2022-12-08T10:45:29Z</time>
      </trkpt>
      <trkpt lat="48.12819" lon="-3.80892">
        <ele>206.6</ele>
        <time>2022-12-08T10:45:30Z</time>
      </trkpt>
      <trkpt lat="48.1282" lon="-3.80891">
        <ele>206.7</ele>
        <time>2022-12-08T10:45:31Z</time>
      </trkpt>
      <trkpt lat="48.12822" lon="-3.80889">
        <ele>206.9</ele>
        <time>2022-12-08T10:45:32Z</time>
      </trkpt>
      <trkpt lat="48.12823" lon="-3.80888">
        <ele>207</ele>
        <time>2022-12-08T10:45:34Z</time>
      </trkpt>
      <trkpt lat="48.12825" lon="-3.80884">
        <ele>207.4</ele>
        <time>2022-12-08T10:45:35Z</time>
      </trkpt>
      <trkpt lat="48.12826" lon="-3.80883">
        <ele>207.5</ele>
        <time>2022-12-08T10:45:36Z</time>
      </trkpt>
      <trkpt lat="48.12827" lon="-3.8088">
        <ele>207.7</ele>
        <time>2022-12-08T10:45:37Z</time>
      </trkpt>
      <trkpt lat="48.12828" lon="-3.80879">
        <ele>207.8</ele>
        <time>2022-12-08T10:45:38Z</time>
      </trkpt>
      <trkpt lat="48.12828" lon="-3.80878">
        <ele>207.9</ele>
        <time>2022-12-08T10:45:39Z</time>
      </trkpt>
      <trkpt lat="48.12829" lon="-3.80876">
        <ele>208</ele>
        <time>2022-12-08T10:45:40Z</time>
      </trkpt>
      <trkpt lat="48.1283" lon="-3.80872">
        <ele>208.3</ele>
        <time>2022-12-08T10:45:42Z</time>
      </trkpt>
      <trkpt lat="48.12832" lon="-3.80866">
        <ele>208.8</ele>
        <time>2022-12-08T10:45:43Z</time>
      </trkpt>
      <trkpt lat="48.12833" lon="-3.80865">
        <ele>209</ele>
        <time>2022-12-08T10:45:44Z</time>
      </trkpt>
      <trkpt lat="48.12833" lon="-3.80862">
        <ele>209.1</ele>
        <time>2022-12-08T10:45:45Z</time>
      </trkpt>
      <trkpt lat="48.12834" lon="-3.8086">
        <ele>209.3</ele>
        <time>2022-12-08T10:45:46Z</time>
      </trkpt>
      <trkpt lat="48.12835" lon="-3.80856">
        <ele>209.6</ele>
        <time>2022-12-08T10:45:47Z</time>
      </trkpt>
      <trkpt lat="48.12836" lon="-3.80855">
        <ele>209.7</ele>
        <time>2022-12-08T10:45:48Z</time>
      </trkpt>
      <trkpt lat="48.12837" lon="-3.8085">
        <ele>210.1</ele>
        <time>2022-12-08T10:45:49Z</time>
      </trkpt>
      <trkpt lat="48.12837" lon="-3.80849">
        <ele>210.2</ele>
        <time>2022-12-08T10:45:50Z</time>
      </trkpt>
      <trkpt lat="48.12838" lon="-3.80844">
        <ele>210.5</ele>
        <time>2022-12-08T10:45:51Z</time>
      </trkpt>
      <trkpt lat="48.12839" lon="-3.80842">
        <ele>210.6</ele>
        <time>2022-12-08T10:45:52Z</time>
      </trkpt>
      <trkpt lat="48.12841" lon="-3.80838">
        <ele>210.9</ele>
        <time>2022-12-08T10:45:53Z</time>
      </trkpt>
      <trkpt lat="48.12841" lon="-3.80836">
        <ele>210.9</ele>
        <time>2022-12-08T10:45:54Z</time>
      </trkpt>
      <trkpt lat="48.12843" lon="-3.80833">
        <ele>211.1</ele>
        <time>2022-12-08T10:45:55Z</time>
      </trkpt>
      <trkpt lat="48.12843" lon="-3.80831">
        <ele>211.2</ele>
        <time>2022-12-08T10:45:56Z</time>
      </trkpt>
      <trkpt lat="48.12842" lon="-3.80829">
        <ele>211.3</ele>
        <time>2022-12-08T10:45:57Z</time>
      </trkpt>
      <trkpt lat="48.12843" lon="-3.80826">
        <ele>211.4</ele>
        <time>2022-12-08T10:45:58Z</time>
      </trkpt>
      <trkpt lat="48.12844" lon="-3.80822">
        <ele>211.6</ele>
        <time>2022-12-08T10:45:59Z</time>
      </trkpt>
      <trkpt lat="48.12844" lon="-3.80821">
        <ele>211.6</ele>
        <time>2022-12-08T10:46:00Z</time>
      </trkpt>
      <trkpt lat="48.12846" lon="-3.80817">
        <ele>211.8</ele>
        <time>2022-12-08T10:46:01Z</time>
      </trkpt>
      <trkpt lat="48.12846" lon="-3.80816">
        <ele>211.8</ele>
        <time>2022-12-08T10:46:02Z</time>
      </trkpt>
      <trkpt lat="48.12847" lon="-3.80811">
        <ele>212</ele>
        <time>2022-12-08T10:46:03Z</time>
      </trkpt>
      <trkpt lat="48.12848" lon="-3.80809">
        <ele>212.1</ele>
        <time>2022-12-08T10:46:04Z</time>
      </trkpt>
      <trkpt lat="48.12849" lon="-3.80805">
        <ele>212.2</ele>
        <time>2022-12-08T10:46:05Z</time>
      </trkpt>
      <trkpt lat="48.1285" lon="-3.808">
        <ele>212.3</ele>
        <time>2022-12-08T10:46:07Z</time>
      </trkpt>
      <trkpt lat="48.12851" lon="-3.80798">
        <ele>212.4</ele>
        <time>2022-12-08T10:46:08Z</time>
      </trkpt>
      <trkpt lat="48.12853" lon="-3.80794">
        <ele>212.5</ele>
        <time>2022-12-08T10:46:09Z</time>
      </trkpt>
      <trkpt lat="48.12854" lon="-3.80789">
        <ele>212.7</ele>
        <time>2022-12-08T10:46:10Z</time>
      </trkpt>
      <trkpt lat="48.12856" lon="-3.80786">
        <ele>212.8</ele>
        <time>2022-12-08T10:46:11Z</time>
      </trkpt>
      <trkpt lat="48.12857" lon="-3.80781">
        <ele>212.9</ele>
        <time>2022-12-08T10:46:12Z</time>
      </trkpt>
      <trkpt lat="48.12858" lon="-3.80778">
        <ele>213</ele>
        <time>2022-12-08T10:46:13Z</time>
      </trkpt>
      <trkpt lat="48.1286" lon="-3.80774">
        <ele>213.1</ele>
        <time>2022-12-08T10:46:14Z</time>
      </trkpt>
      <trkpt lat="48.12862" lon="-3.80769">
        <ele>213.2</ele>
        <time>2022-12-08T10:46:15Z</time>
      </trkpt>
      <trkpt lat="48.12863" lon="-3.80768">
        <ele>213.3</ele>
        <time>2022-12-08T10:46:16Z</time>
      </trkpt>
      <trkpt lat="48.12865" lon="-3.80764">
        <ele>213.4</ele>
        <time>2022-12-08T10:46:17Z</time>
      </trkpt>
      <trkpt lat="48.12866" lon="-3.80763">
        <ele>213.4</ele>
        <time>2022-12-08T10:46:18Z</time>
      </trkpt>
      <trkpt lat="48.12867" lon="-3.8076">
        <ele>213.5</ele>
        <time>2022-12-08T10:46:19Z</time>
      </trkpt>
      <trkpt lat="48.12868" lon="-3.80759">
        <ele>213.5</ele>
        <time>2022-12-08T10:46:20Z</time>
      </trkpt>
      <trkpt lat="48.1287" lon="-3.80756">
        <ele>213.6</ele>
        <time>2022-12-08T10:46:21Z</time>
      </trkpt>
      <trkpt lat="48.12871" lon="-3.80755">
        <ele>213.6</ele>
        <time>2022-12-08T10:46:22Z</time>
      </trkpt>
      <trkpt lat="48.12873" lon="-3.80751">
        <ele>213.6</ele>
        <time>2022-12-08T10:46:23Z</time>
      </trkpt>
      <trkpt lat="48.12873" lon="-3.8075">
        <ele>213.7</ele>
        <time>2022-12-08T10:46:24Z</time>
      </trkpt>
      <trkpt lat="48.12875" lon="-3.80747">
        <ele>213.7</ele>
        <time>2022-12-08T10:46:25Z</time>
      </trkpt>
      <trkpt lat="48.12876" lon="-3.80746">
        <ele>213.7</ele>
        <time>2022-12-08T10:46:26Z</time>
      </trkpt>
      <trkpt lat="48.12877" lon="-3.80744">
        <ele>213.8</ele>
        <time>2022-12-08T10:46:27Z</time>
      </trkpt>
      <trkpt lat="48.12878" lon="-3.80741">
        <ele>213.8</ele>
        <time>2022-12-08T10:46:28Z</time>
      </trkpt>
      <trkpt lat="48.1288" lon="-3.80738">
        <ele>213.9</ele>
        <time>2022-12-08T10:46:29Z</time>
      </trkpt>
      <trkpt lat="48.12881" lon="-3.80737">
        <ele>213.9</ele>
        <time>2022-12-08T10:46:30Z</time>
      </trkpt>
      <trkpt lat="48.12883" lon="-3.80734">
        <ele>214</ele>
        <time>2022-12-08T10:46:31Z</time>
      </trkpt>
      <trkpt lat="48.12883" lon="-3.80733">
        <ele>214</ele>
        <time>2022-12-08T10:46:32Z</time>
      </trkpt>
      <trkpt lat="48.12884" lon="-3.80731">
        <ele>214.1</ele>
        <time>2022-12-08T10:46:33Z</time>
      </trkpt>
      <trkpt lat="48.12886" lon="-3.80729">
        <ele>214.2</ele>
        <time>2022-12-08T10:46:34Z</time>
      </trkpt>
      <trkpt lat="48.12888" lon="-3.80726">
        <ele>214.4</ele>
        <time>2022-12-08T10:46:36Z</time>
      </trkpt>
      <trkpt lat="48.12889" lon="-3.80725">
        <ele>214.4</ele>
        <time>2022-12-08T10:46:37Z</time>
      </trkpt>
      <trkpt lat="48.12891" lon="-3.80721">
        <ele>214.6</ele>
        <time>2022-12-08T10:46:38Z</time>
      </trkpt>
      <trkpt lat="48.12892" lon="-3.8072">
        <ele>214.7</ele>
        <time>2022-12-08T10:46:39Z</time>
      </trkpt>
      <trkpt lat="48.12895" lon="-3.80716">
        <ele>215</ele>
        <time>2022-12-08T10:46:41Z</time>
      </trkpt>
      <trkpt lat="48.12897" lon="-3.80713">
        <ele>215.2</ele>
        <time>2022-12-08T10:46:42Z</time>
      </trkpt>
      <trkpt lat="48.12898" lon="-3.80712">
        <ele>215.3</ele>
        <time>2022-12-08T10:46:43Z</time>
      </trkpt>
      <trkpt lat="48.12899" lon="-3.8071">
        <ele>215.4</ele>
        <time>2022-12-08T10:46:44Z</time>
      </trkpt>
      <trkpt lat="48.129" lon="-3.80708">
        <ele>215.5</ele>
        <time>2022-12-08T10:46:45Z</time>
      </trkpt>
      <trkpt lat="48.12901" lon="-3.80706">
        <ele>215.7</ele>
        <time>2022-12-08T10:46:46Z</time>
      </trkpt>
      <trkpt lat="48.12903" lon="-3.80704">
        <ele>215.8</ele>
        <time>2022-12-08T10:46:47Z</time>
      </trkpt>
      <trkpt lat="48.12904" lon="-3.80701">
        <ele>216.1</ele>
        <time>2022-12-08T10:46:48Z</time>
      </trkpt>
      <trkpt lat="48.12905" lon="-3.807">
        <ele>216.1</ele>
        <time>2022-12-08T10:46:49Z</time>
      </trkpt>
      <trkpt lat="48.12906" lon="-3.80698">
        <ele>216.3</ele>
        <time>2022-12-08T10:46:50Z</time>
      </trkpt>
      <trkpt lat="48.12907" lon="-3.80696">
        <ele>216.4</ele>
        <time>2022-12-08T10:46:51Z</time>
      </trkpt>
      <trkpt lat="48.12909" lon="-3.80692">
        <ele>216.7</ele>
        <time>2022-12-08T10:46:52Z</time>
      </trkpt>
      <trkpt lat="48.1291" lon="-3.80691">
        <ele>216.8</ele>
        <time>2022-12-08T10:46:53Z</time>
      </trkpt>
      <trkpt lat="48.12912" lon="-3.80688">
        <ele>217</ele>
        <time>2022-12-08T10:46:54Z</time>
      </trkpt>
      <trkpt lat="48.12913" lon="-3.80687">
        <ele>217.1</ele>
        <time>2022-12-08T10:46:55Z</time>
      </trkpt>
      <trkpt lat="48.12914" lon="-3.80685">
        <ele>217.3</ele>
        <time>2022-12-08T10:46:56Z</time>
      </trkpt>
      <trkpt lat="48.12915" lon="-3.80684">
        <ele>217.4</ele>
        <time>2022-12-08T10:46:57Z</time>
      </trkpt>
      <trkpt lat="48.12917" lon="-3.80683">
        <ele>217.6</ele>
        <time>2022-12-08T10:46:58Z</time>
      </trkpt>
      <trkpt lat="48.12918" lon="-3.80682">
        <ele>217.7</ele>
        <time>2022-12-08T10:46:59Z</time>
      </trkpt>
      <trkpt lat="48.12919" lon="-3.80681">
        <ele>217.8</ele>
        <time>2022-12-08T10:47:00Z</time>
      </trkpt>
      <trkpt lat="48.12919" lon="-3.80679">
        <ele>217.9</ele>
        <time>2022-12-08T10:47:01Z</time>
      </trkpt>
      <trkpt lat="48.1292" lon="-3.80676">
        <ele>218.2</ele>
        <time>2022-12-08T10:47:03Z</time>
      </trkpt>
      <trkpt lat="48.12922" lon="-3.80673">
        <ele>218.5</ele>
        <time>2022-12-08T10:47:04Z</time>
      </trkpt>
      <trkpt lat="48.12923" lon="-3.80672">
        <ele>218.5</ele>
        <time>2022-12-08T10:47:05Z</time>
      </trkpt>
      <trkpt lat="48.12924" lon="-3.8067">
        <ele>218.7</ele>
        <time>2022-12-08T10:47:06Z</time>
      </trkpt>
      <trkpt lat="48.12925" lon="-3.80669">
        <ele>218.8</ele>
        <time>2022-12-08T10:47:07Z</time>
      </trkpt>
      <trkpt lat="48.12926" lon="-3.80667">
        <ele>219</ele>
        <time>2022-12-08T10:47:08Z</time>
      </trkpt>
      <trkpt lat="48.12928" lon="-3.80663">
        <ele>219.4</ele>
        <time>2022-12-08T10:47:10Z</time>
      </trkpt>
      <trkpt lat="48.12929" lon="-3.80661">
        <ele>219.6</ele>
        <time>2022-12-08T10:47:11Z</time>
      </trkpt>
      <trkpt lat="48.1293" lon="-3.8066">
        <ele>219.8</ele>
        <time>2022-12-08T10:47:12Z</time>
      </trkpt>
      <trkpt lat="48.12932" lon="-3.80658">
        <ele>220</ele>
        <time>2022-12-08T10:47:13Z</time>
      </trkpt>
      <trkpt lat="48.12932" lon="-3.80656">
        <ele>220.1</ele>
        <time>2022-12-08T10:47:14Z</time>
      </trkpt>
      <trkpt lat="48.12934" lon="-3.80652">
        <ele>220.5</ele>
        <time>2022-12-08T10:47:15Z</time>
      </trkpt>
      <trkpt lat="48.12935" lon="-3.80651">
        <ele>220.6</ele>
        <time>2022-12-08T10:47:16Z</time>
      </trkpt>
      <trkpt lat="48.12936" lon="-3.80649">
        <ele>220.8</ele>
        <time>2022-12-08T10:47:17Z</time>
      </trkpt>
      <trkpt lat="48.12937" lon="-3.80648">
        <ele>220.9</ele>
        <time>2022-12-08T10:47:18Z</time>
      </trkpt>
      <trkpt lat="48.12939" lon="-3.80645">
        <ele>221.3</ele>
        <time>2022-12-08T10:47:19Z</time>
      </trkpt>
      <trkpt lat="48.12939" lon="-3.80644">
        <ele>221.4</ele>
        <time>2022-12-08T10:47:20Z</time>
      </trkpt>
      <trkpt lat="48.12941" lon="-3.8064">
        <ele>221.7</ele>
        <time>2022-12-08T10:47:21Z</time>
      </trkpt>
      <trkpt lat="48.12942" lon="-3.8064">
        <ele>221.8</ele>
        <time>2022-12-08T10:47:22Z</time>
      </trkpt>
      <trkpt lat="48.12943" lon="-3.80639">
        <ele>222</ele>
        <time>2022-12-08T10:47:23Z</time>
      </trkpt>
      <trkpt lat="48.12944" lon="-3.80637">
        <ele>222.2</ele>
        <time>2022-12-08T10:47:24Z</time>
      </trkpt>
      <trkpt lat="48.12946" lon="-3.80636">
        <ele>222.4</ele>
        <time>2022-12-08T10:47:25Z</time>
      </trkpt>
      <trkpt lat="48.12947" lon="-3.80634">
        <ele>222.6</ele>
        <time>2022-12-08T10:47:26Z</time>
      </trkpt>
      <trkpt lat="48.12949" lon="-3.80631">
        <ele>222.9</ele>
        <time>2022-12-08T10:47:28Z</time>
      </trkpt>
      <trkpt lat="48.1295" lon="-3.80629">
        <ele>223.1</ele>
        <time>2022-12-08T10:47:29Z</time>
      </trkpt>
      <trkpt lat="48.12951" lon="-3.80627">
        <ele>223.2</ele>
        <time>2022-12-08T10:47:30Z</time>
      </trkpt>
      <trkpt lat="48.12953" lon="-3.80626">
        <ele>223.4</ele>
        <time>2022-12-08T10:47:31Z</time>
      </trkpt>
      <trkpt lat="48.12954" lon="-3.80624">
        <ele>223.5</ele>
        <time>2022-12-08T10:47:32Z</time>
      </trkpt>
      <trkpt lat="48.12955" lon="-3.80622">
        <ele>223.7</ele>
        <time>2022-12-08T10:47:33Z</time>
      </trkpt>
      <trkpt lat="48.12956" lon="-3.8062">
        <ele>223.9</ele>
        <time>2022-12-08T10:47:34Z</time>
      </trkpt>
      <trkpt lat="48.12957" lon="-3.80619">
        <ele>224</ele>
        <time>2022-12-08T10:47:35Z</time>
      </trkpt>
      <trkpt lat="48.12959" lon="-3.80617">
        <ele>224.2</ele>
        <time>2022-12-08T10:47:36Z</time>
      </trkpt>
      <trkpt lat="48.1296" lon="-3.80615">
        <ele>224.3</ele>
        <time>2022-12-08T10:47:37Z</time>
      </trkpt>
      <trkpt lat="48.12961" lon="-3.80614">
        <ele>224.4</ele>
        <time>2022-12-08T10:47:38Z</time>
      </trkpt>
      <trkpt lat="48.12962" lon="-3.80613">
        <ele>224.6</ele>
        <time>2022-12-08T10:47:39Z</time>
      </trkpt>
      <trkpt lat="48.12963" lon="-3.80611">
        <ele>224.8</ele>
        <time>2022-12-08T10:47:40Z</time>
      </trkpt>
      <trkpt lat="48.12965" lon="-3.80607">
        <ele>225.1</ele>
        <time>2022-12-08T10:47:41Z</time>
      </trkpt>
      <trkpt lat="48.12965" lon="-3.80606">
        <ele>225.2</ele>
        <time>2022-12-08T10:47:42Z</time>
      </trkpt>
      <trkpt lat="48.12966" lon="-3.80605">
        <ele>225.3</ele>
        <time>2022-12-08T10:47:43Z</time>
      </trkpt>
      <trkpt lat="48.1297" lon="-3.80602">
        <ele>225.7</ele>
        <time>2022-12-08T10:47:45Z</time>
      </trkpt>
      <trkpt lat="48.12972" lon="-3.80599">
        <ele>226.1</ele>
        <time>2022-12-08T10:47:47Z</time>
      </trkpt>
      <trkpt lat="48.12973" lon="-3.80598">
        <ele>226.1</ele>
        <time>2022-12-08T10:47:48Z</time>
      </trkpt>
      <trkpt lat="48.12975" lon="-3.80595">
        <ele>226.4</ele>
        <time>2022-12-08T10:47:49Z</time>
      </trkpt>
      <trkpt lat="48.12976" lon="-3.80594">
        <ele>226.5</ele>
        <time>2022-12-08T10:47:50Z</time>
      </trkpt>
      <trkpt lat="48.12977" lon="-3.80592">
        <ele>226.7</ele>
        <time>2022-12-08T10:47:51Z</time>
      </trkpt>
      <trkpt lat="48.1298" lon="-3.80591">
        <ele>227</ele>
        <time>2022-12-08T10:47:53Z</time>
      </trkpt>
      <trkpt lat="48.12983" lon="-3.80589">
        <ele>227.4</ele>
        <time>2022-12-08T10:47:54Z</time>
      </trkpt>
      <trkpt lat="48.12984" lon="-3.80588">
        <ele>227.5</ele>
        <time>2022-12-08T10:47:55Z</time>
      </trkpt>
      <trkpt lat="48.12985" lon="-3.80587">
        <ele>227.6</ele>
        <time>2022-12-08T10:47:56Z</time>
      </trkpt>
      <trkpt lat="48.12987" lon="-3.80586">
        <ele>227.8</ele>
        <time>2022-12-08T10:47:57Z</time>
      </trkpt>
      <trkpt lat="48.12988" lon="-3.80585">
        <ele>228</ele>
        <time>2022-12-08T10:47:58Z</time>
      </trkpt>
      <trkpt lat="48.1299" lon="-3.80583">
        <ele>228.2</ele>
        <time>2022-12-08T10:48:00Z</time>
      </trkpt>
      <trkpt lat="48.12992" lon="-3.8058">
        <ele>228.5</ele>
        <time>2022-12-08T10:48:01Z</time>
      </trkpt>
      <trkpt lat="48.12993" lon="-3.80579">
        <ele>228.7</ele>
        <time>2022-12-08T10:48:02Z</time>
      </trkpt>
      <trkpt lat="48.12996" lon="-3.80577">
        <ele>229</ele>
        <time>2022-12-08T10:48:04Z</time>
      </trkpt>
      <trkpt lat="48.12998" lon="-3.80576">
        <ele>229.2</ele>
        <time>2022-12-08T10:48:05Z</time>
      </trkpt>
      <trkpt lat="48.12999" lon="-3.80574">
        <ele>229.3</ele>
        <time>2022-12-08T10:48:06Z</time>
      </trkpt>
      <trkpt lat="48.13002" lon="-3.80571">
        <ele>229.7</ele>
        <time>2022-12-08T10:48:07Z</time>
      </trkpt>
      <trkpt lat="48.13002" lon="-3.8057">
        <ele>229.8</ele>
        <time>2022-12-08T10:48:08Z</time>
      </trkpt>
      <trkpt lat="48.13004" lon="-3.80569">
        <ele>229.9</ele>
        <time>2022-12-08T10:48:09Z</time>
      </trkpt>
      <trkpt lat="48.13005" lon="-3.80568">
        <ele>230.1</ele>
        <time>2022-12-08T10:48:10Z</time>
      </trkpt>
      <trkpt lat="48.13008" lon="-3.80566">
        <ele>230.4</ele>
        <time>2022-12-08T10:48:11Z</time>
      </trkpt>
      <trkpt lat="48.13009" lon="-3.80565">
        <ele>230.5</ele>
        <time>2022-12-08T10:48:12Z</time>
      </trkpt>
      <trkpt lat="48.1301" lon="-3.80564">
        <ele>230.6</ele>
        <time>2022-12-08T10:48:13Z</time>
      </trkpt>
      <trkpt lat="48.13011" lon="-3.80562">
        <ele>230.8</ele>
        <time>2022-12-08T10:48:14Z</time>
      </trkpt>
      <trkpt lat="48.13014" lon="-3.8056">
        <ele>231.1</ele>
        <time>2022-12-08T10:48:15Z</time>
      </trkpt>
      <trkpt lat="48.13015" lon="-3.80559">
        <ele>231.2</ele>
        <time>2022-12-08T10:48:16Z</time>
      </trkpt>
      <trkpt lat="48.13018" lon="-3.80557">
        <ele>231.5</ele>
        <time>2022-12-08T10:48:17Z</time>
      </trkpt>
      <trkpt lat="48.13018" lon="-3.80556">
        <ele>231.6</ele>
        <time>2022-12-08T10:48:18Z</time>
      </trkpt>
      <trkpt lat="48.13021" lon="-3.80553">
        <ele>231.9</ele>
        <time>2022-12-08T10:48:20Z</time>
      </trkpt>
      <trkpt lat="48.13022" lon="-3.80552">
        <ele>232</ele>
        <time>2022-12-08T10:48:21Z</time>
      </trkpt>
      <trkpt lat="48.13024" lon="-3.8055">
        <ele>232.3</ele>
        <time>2022-12-08T10:48:22Z</time>
      </trkpt>
      <trkpt lat="48.13026" lon="-3.80548">
        <ele>232.5</ele>
        <time>2022-12-08T10:48:23Z</time>
      </trkpt>
      <trkpt lat="48.13029" lon="-3.80546">
        <ele>232.8</ele>
        <time>2022-12-08T10:48:25Z</time>
      </trkpt>
      <trkpt lat="48.13032" lon="-3.80543">
        <ele>233.1</ele>
        <time>2022-12-08T10:48:26Z</time>
      </trkpt>
      <trkpt lat="48.13034" lon="-3.80541">
        <ele>233.3</ele>
        <time>2022-12-08T10:48:27Z</time>
      </trkpt>
      <trkpt lat="48.13035" lon="-3.8054">
        <ele>233.4</ele>
        <time>2022-12-08T10:48:28Z</time>
      </trkpt>
      <trkpt lat="48.13038" lon="-3.80537">
        <ele>233.6</ele>
        <time>2022-12-08T10:48:30Z</time>
      </trkpt>
      <trkpt lat="48.13041" lon="-3.80535">
        <ele>233.8</ele>
        <time>2022-12-08T10:48:31Z</time>
      </trkpt>
      <trkpt lat="48.13044" lon="-3.80532">
        <ele>234</ele>
        <time>2022-12-08T10:48:32Z</time>
      </trkpt>
      <trkpt lat="48.13045" lon="-3.80531">
        <ele>234.1</ele>
        <time>2022-12-08T10:48:33Z</time>
      </trkpt>
      <trkpt lat="48.13048" lon="-3.80528">
        <ele>234.3</ele>
        <time>2022-12-08T10:48:34Z</time>
      </trkpt>
      <trkpt lat="48.13049" lon="-3.80527">
        <ele>234.4</ele>
        <time>2022-12-08T10:48:35Z</time>
      </trkpt>
      <trkpt lat="48.13052" lon="-3.80524">
        <ele>234.6</ele>
        <time>2022-12-08T10:48:36Z</time>
      </trkpt>
      <trkpt lat="48.13053" lon="-3.80523">
        <ele>234.6</ele>
        <time>2022-12-08T10:48:37Z</time>
      </trkpt>
      <trkpt lat="48.13056" lon="-3.80521">
        <ele>234.8</ele>
        <time>2022-12-08T10:48:38Z</time>
      </trkpt>
      <trkpt lat="48.13057" lon="-3.8052">
        <ele>234.9</ele>
        <time>2022-12-08T10:48:39Z</time>
      </trkpt>
      <trkpt lat="48.1306" lon="-3.80517">
        <ele>235.1</ele>
        <time>2022-12-08T10:48:40Z</time>
      </trkpt>
      <trkpt lat="48.13061" lon="-3.80516">
        <ele>235.1</ele>
        <time>2022-12-08T10:48:41Z</time>
      </trkpt>
      <trkpt lat="48.13064" lon="-3.80513">
        <ele>235.4</ele>
        <time>2022-12-08T10:48:42Z</time>
      </trkpt>
      <trkpt lat="48.13065" lon="-3.80512">
        <ele>235.5</ele>
        <time>2022-12-08T10:48:43Z</time>
      </trkpt>
      <trkpt lat="48.13067" lon="-3.8051">
        <ele>235.7</ele>
        <time>2022-12-08T10:48:44Z</time>
      </trkpt>
      <trkpt lat="48.13068" lon="-3.80509">
        <ele>235.7</ele>
        <time>2022-12-08T10:48:45Z</time>
      </trkpt>
      <trkpt lat="48.13072" lon="-3.80508">
        <ele>236</ele>
        <time>2022-12-08T10:48:47Z</time>
      </trkpt>
      <trkpt lat="48.13075" lon="-3.80507">
        <ele>236.2</ele>
        <time>2022-12-08T10:48:48Z</time>
      </trkpt>
      <trkpt lat="48.13078" lon="-3.80508">
        <ele>236.5</ele>
        <time>2022-12-08T10:48:50Z</time>
      </trkpt>
      <trkpt lat="48.13081" lon="-3.80509">
        <ele>236.7</ele>
        <time>2022-12-08T10:48:51Z</time>
      </trkpt>
      <trkpt lat="48.13084" lon="-3.80511">
        <ele>237</ele>
        <time>2022-12-08T10:48:52Z</time>
      </trkpt>
      <trkpt lat="48.13085" lon="-3.80512">
        <ele>237.1</ele>
        <time>2022-12-08T10:48:53Z</time>
      </trkpt>
      <trkpt lat="48.13087" lon="-3.80514">
        <ele>237.2</ele>
        <time>2022-12-08T10:48:54Z</time>
      </trkpt>
      <trkpt lat="48.13088" lon="-3.80515">
        <ele>237.3</ele>
        <time>2022-12-08T10:48:55Z</time>
      </trkpt>
      <trkpt lat="48.1309" lon="-3.80516">
        <ele>237.4</ele>
        <time>2022-12-08T10:48:56Z</time>
      </trkpt>
      <trkpt lat="48.13092" lon="-3.80517">
        <ele>237.5</ele>
        <time>2022-12-08T10:48:57Z</time>
      </trkpt>
      <trkpt lat="48.13093" lon="-3.80519">
        <ele>237.7</ele>
        <time>2022-12-08T10:48:58Z</time>
      </trkpt>
      <trkpt lat="48.13094" lon="-3.80519">
        <ele>237.7</ele>
        <time>2022-12-08T10:48:59Z</time>
      </trkpt>
      <trkpt lat="48.13094" lon="-3.8052">
        <ele>237.7</ele>
        <time>2022-12-08T10:49:00Z</time>
      </trkpt>
      <trkpt lat="48.13093" lon="-3.80519">
        <ele>237.8</ele>
        <time>2022-12-08T10:49:01Z</time>
      </trkpt>
      <trkpt lat="48.13093" lon="-3.8052">
        <ele>237.8</ele>
        <time>2022-12-08T10:49:02Z</time>
      </trkpt>
      <trkpt lat="48.13093" lon="-3.80521">
        <ele>237.8</ele>
        <time>2022-12-08T10:49:03Z</time>
      </trkpt>
      <trkpt lat="48.13093" lon="-3.80521">
        <ele>237.8</ele>
        <time>2022-12-08T10:49:04Z</time>
      </trkpt>
      <trkpt lat="48.13093" lon="-3.80521">
        <ele>237.8</ele>
        <time>2022-12-08T10:49:05Z</time>
      </trkpt>
      <trkpt lat="48.13093" lon="-3.80521">
        <ele>237.8</ele>
        <time>2022-12-08T10:49:06Z</time>
      </trkpt>
      <trkpt lat="48.13093" lon="-3.80521">
        <ele>237.8</ele>
        <time>2022-12-08T10:49:08Z</time>
      </trkpt>
      <trkpt lat="48.13093" lon="-3.80521">
        <ele>237.8</ele>
        <time>2022-12-08T10:49:09Z</time>
      </trkpt>
      <trkpt lat="48.13093" lon="-3.80521">
        <ele>237.8</ele>
        <time>2022-12-08T10:49:10Z</time>
      </trkpt>
      <trkpt lat="48.13093" lon="-3.80521">
        <ele>237.9</ele>
        <time>2022-12-08T10:49:11Z</time>
      </trkpt>
      <trkpt lat="48.13093" lon="-3.80521">
        <ele>237.9</ele>
        <time>2022-12-08T10:49:12Z</time>
      </trkpt>
      <trkpt lat="48.13092" lon="-3.80521">
        <ele>237.9</ele>
        <time>2022-12-08T10:49:13Z</time>
      </trkpt>
      <trkpt lat="48.13097" lon="-3.80522">
        <ele>238.2</ele>
        <time>2022-12-08T10:51:00Z</time>
      </trkpt>
      <trkpt lat="48.13099" lon="-3.80524">
        <ele>238.3</ele>
        <time>2022-12-08T10:51:01Z</time>
      </trkpt>
      <trkpt lat="48.131" lon="-3.80525">
        <ele>238.4</ele>
        <time>2022-12-08T10:51:02Z</time>
      </trkpt>
      <trkpt lat="48.131" lon="-3.80527">
        <ele>238.5</ele>
        <time>2022-12-08T10:51:03Z</time>
      </trkpt>
      <trkpt lat="48.13102" lon="-3.80529">
        <ele>238.7</ele>
        <time>2022-12-08T10:51:04Z</time>
      </trkpt>
      <trkpt lat="48.13105" lon="-3.80531">
        <ele>238.9</ele>
        <time>2022-12-08T10:51:06Z</time>
      </trkpt>
      <trkpt lat="48.13105" lon="-3.80532">
        <ele>239</ele>
        <time>2022-12-08T10:51:07Z</time>
      </trkpt>
      <trkpt lat="48.13108" lon="-3.80534">
        <ele>239.3</ele>
        <time>2022-12-08T10:51:08Z</time>
      </trkpt>
      <trkpt lat="48.13109" lon="-3.80535">
        <ele>239.3</ele>
        <time>2022-12-08T10:51:09Z</time>
      </trkpt>
      <trkpt lat="48.13111" lon="-3.80537">
        <ele>239.5</ele>
        <time>2022-12-08T10:51:10Z</time>
      </trkpt>
      <trkpt lat="48.13115" lon="-3.80539">
        <ele>239.8</ele>
        <time>2022-12-08T10:51:12Z</time>
      </trkpt>
      <trkpt lat="48.13119" lon="-3.80542">
        <ele>240.2</ele>
        <time>2022-12-08T10:51:14Z</time>
      </trkpt>
      <trkpt lat="48.1312" lon="-3.80543">
        <ele>240.3</ele>
        <time>2022-12-08T10:51:15Z</time>
      </trkpt>
      <trkpt lat="48.13121" lon="-3.80544">
        <ele>240.4</ele>
        <time>2022-12-08T10:51:16Z</time>
      </trkpt>
      <trkpt lat="48.13123" lon="-3.80545">
        <ele>240.6</ele>
        <time>2022-12-08T10:51:18Z</time>
      </trkpt>
      <trkpt lat="48.13126" lon="-3.80548">
        <ele>240.9</ele>
        <time>2022-12-08T10:51:19Z</time>
      </trkpt>
      <trkpt lat="48.13127" lon="-3.80549">
        <ele>241</ele>
        <time>2022-12-08T10:51:20Z</time>
      </trkpt>
      <trkpt lat="48.13129" lon="-3.80551">
        <ele>241.2</ele>
        <time>2022-12-08T10:51:21Z</time>
      </trkpt>
      <trkpt lat="48.1313" lon="-3.80552">
        <ele>241.3</ele>
        <time>2022-12-08T10:51:22Z</time>
      </trkpt>
      <trkpt lat="48.13134" lon="-3.80555">
        <ele>241.7</ele>
        <time>2022-12-08T10:51:24Z</time>
      </trkpt>
      <trkpt lat="48.13136" lon="-3.80556">
        <ele>241.8</ele>
        <time>2022-12-08T10:51:25Z</time>
      </trkpt>
      <trkpt lat="48.13137" lon="-3.80558">
        <ele>242</ele>
        <time>2022-12-08T10:51:26Z</time>
      </trkpt>
      <trkpt lat="48.1314" lon="-3.80561">
        <ele>242.3</ele>
        <time>2022-12-08T10:51:28Z</time>
      </trkpt>
      <trkpt lat="48.13142" lon="-3.80562">
        <ele>242.6</ele>
        <time>2022-12-08T10:51:29Z</time>
      </trkpt>
      <trkpt lat="48.13145" lon="-3.80564">
        <ele>242.9</ele>
        <time>2022-12-08T10:51:31Z</time>
      </trkpt>
      <trkpt lat="48.13146" lon="-3.80565">
        <ele>243</ele>
        <time>2022-12-08T10:51:32Z</time>
      </trkpt>
      <trkpt lat="48.13148" lon="-3.80567">
        <ele>243.2</ele>
        <time>2022-12-08T10:51:33Z</time>
      </trkpt>
      <trkpt lat="48.1315" lon="-3.80569">
        <ele>243.5</ele>
        <time>2022-12-08T10:51:34Z</time>
      </trkpt>
      <trkpt lat="48.13151" lon="-3.8057">
        <ele>243.6</ele>
        <time>2022-12-08T10:51:35Z</time>
      </trkpt>
      <trkpt lat="48.13154" lon="-3.80572">
        <ele>243.9</ele>
        <time>2022-12-08T10:51:37Z</time>
      </trkpt>
      <trkpt lat="48.13155" lon="-3.80573">
        <ele>244</ele>
        <time>2022-12-08T10:51:38Z</time>
      </trkpt>
      <trkpt lat="48.13157" lon="-3.80574">
        <ele>244.1</ele>
        <time>2022-12-08T10:51:39Z</time>
      </trkpt>
      <trkpt lat="48.13158" lon="-3.80575">
        <ele>244.3</ele>
        <time>2022-12-08T10:51:40Z</time>
      </trkpt>
      <trkpt lat="48.1316" lon="-3.80577">
        <ele>244.4</ele>
        <time>2022-12-08T10:51:41Z</time>
      </trkpt>
      <trkpt lat="48.13162" lon="-3.80579">
        <ele>244.6</ele>
        <time>2022-12-08T10:51:42Z</time>
      </trkpt>
      <trkpt lat="48.13163" lon="-3.8058">
        <ele>244.7</ele>
        <time>2022-12-08T10:51:43Z</time>
      </trkpt>
      <trkpt lat="48.13164" lon="-3.80581">
        <ele>244.8</ele>
        <time>2022-12-08T10:51:44Z</time>
      </trkpt>
      <trkpt lat="48.13166" lon="-3.80582">
        <ele>244.9</ele>
        <time>2022-12-08T10:51:45Z</time>
      </trkpt>
      <trkpt lat="48.13169" lon="-3.80586">
        <ele>245.2</ele>
        <time>2022-12-08T10:51:46Z</time>
      </trkpt>
      <trkpt lat="48.1317" lon="-3.80586">
        <ele>245.2</ele>
        <time>2022-12-08T10:51:47Z</time>
      </trkpt>
      <trkpt lat="48.13173" lon="-3.80589">
        <ele>245.5</ele>
        <time>2022-12-08T10:51:48Z</time>
      </trkpt>
      <trkpt lat="48.13174" lon="-3.80589">
        <ele>245.6</ele>
        <time>2022-12-08T10:51:49Z</time>
      </trkpt>
      <trkpt lat="48.13177" lon="-3.80591">
        <ele>245.8</ele>
        <time>2022-12-08T10:51:50Z</time>
      </trkpt>
      <trkpt lat="48.13178" lon="-3.80591">
        <ele>245.9</ele>
        <time>2022-12-08T10:51:51Z</time>
      </trkpt>
      <trkpt lat="48.13181" lon="-3.8059">
        <ele>246</ele>
        <time>2022-12-08T10:51:52Z</time>
      </trkpt>
      <trkpt lat="48.13183" lon="-3.80587">
        <ele>246.2</ele>
        <time>2022-12-08T10:51:53Z</time>
      </trkpt>
      <trkpt lat="48.13184" lon="-3.80583">
        <ele>246.4</ele>
        <time>2022-12-08T10:51:54Z</time>
      </trkpt>
      <trkpt lat="48.13186" lon="-3.80579">
        <ele>246.5</ele>
        <time>2022-12-08T10:51:55Z</time>
      </trkpt>
      <trkpt lat="48.13187" lon="-3.80577">
        <ele>246.6</ele>
        <time>2022-12-08T10:51:56Z</time>
      </trkpt>
      <trkpt lat="48.13188" lon="-3.80573">
        <ele>246.7</ele>
        <time>2022-12-08T10:51:57Z</time>
      </trkpt>
      <trkpt lat="48.13189" lon="-3.80571">
        <ele>246.7</ele>
        <time>2022-12-08T10:51:58Z</time>
      </trkpt>
      <trkpt lat="48.13191" lon="-3.80566">
        <ele>246.8</ele>
        <time>2022-12-08T10:51:59Z</time>
      </trkpt>
      <trkpt lat="48.13191" lon="-3.80565">
        <ele>246.9</ele>
        <time>2022-12-08T10:52:00Z</time>
      </trkpt>
      <trkpt lat="48.13193" lon="-3.80561">
        <ele>247</ele>
        <time>2022-12-08T10:52:01Z</time>
      </trkpt>
      <trkpt lat="48.13194" lon="-3.80559">
        <ele>247</ele>
        <time>2022-12-08T10:52:02Z</time>
      </trkpt>
      <trkpt lat="48.13195" lon="-3.80554">
        <ele>247.1</ele>
        <time>2022-12-08T10:52:03Z</time>
      </trkpt>
      <trkpt lat="48.13196" lon="-3.80553">
        <ele>247.1</ele>
        <time>2022-12-08T10:52:04Z</time>
      </trkpt>
      <trkpt lat="48.13198" lon="-3.80549">
        <ele>247.2</ele>
        <time>2022-12-08T10:52:05Z</time>
      </trkpt>
      <trkpt lat="48.13198" lon="-3.80547">
        <ele>247.2</ele>
        <time>2022-12-08T10:52:06Z</time>
      </trkpt>
      <trkpt lat="48.13199" lon="-3.80545">
        <ele>247.3</ele>
        <time>2022-12-08T10:52:07Z</time>
      </trkpt>
      <trkpt lat="48.13201" lon="-3.80541">
        <ele>247.4</ele>
        <time>2022-12-08T10:52:09Z</time>
      </trkpt>
      <trkpt lat="48.13203" lon="-3.80536">
        <ele>247.5</ele>
        <time>2022-12-08T10:52:10Z</time>
      </trkpt>
      <trkpt lat="48.13206" lon="-3.80532">
        <ele>247.6</ele>
        <time>2022-12-08T10:52:11Z</time>
      </trkpt>
      <trkpt lat="48.13206" lon="-3.8053">
        <ele>247.6</ele>
        <time>2022-12-08T10:52:12Z</time>
      </trkpt>
      <trkpt lat="48.13208" lon="-3.80525">
        <ele>247.7</ele>
        <time>2022-12-08T10:52:13Z</time>
      </trkpt>
      <trkpt lat="48.13209" lon="-3.80523">
        <ele>247.7</ele>
        <time>2022-12-08T10:52:14Z</time>
      </trkpt>
      <trkpt lat="48.13212" lon="-3.80517">
        <ele>247.9</ele>
        <time>2022-12-08T10:52:16Z</time>
      </trkpt>
      <trkpt lat="48.13214" lon="-3.80511">
        <ele>248</ele>
        <time>2022-12-08T10:52:18Z</time>
      </trkpt>
      <trkpt lat="48.13217" lon="-3.80506">
        <ele>248.1</ele>
        <time>2022-12-08T10:52:20Z</time>
      </trkpt>
      <trkpt lat="48.13217" lon="-3.80502">
        <ele>248.2</ele>
        <time>2022-12-08T10:52:21Z</time>
      </trkpt>
      <trkpt lat="48.13218" lon="-3.805">
        <ele>248.2</ele>
        <time>2022-12-08T10:52:22Z</time>
      </trkpt>
      <trkpt lat="48.13219" lon="-3.80495">
        <ele>248.4</ele>
        <time>2022-12-08T10:52:23Z</time>
      </trkpt>
      <trkpt lat="48.1322" lon="-3.80491">
        <ele>248.5</ele>
        <time>2022-12-08T10:52:24Z</time>
      </trkpt>
      <trkpt lat="48.13223" lon="-3.80487">
        <ele>248.6</ele>
        <time>2022-12-08T10:52:25Z</time>
      </trkpt>
      <trkpt lat="48.13224" lon="-3.80485">
        <ele>248.7</ele>
        <time>2022-12-08T10:52:26Z</time>
      </trkpt>
      <trkpt lat="48.13225" lon="-3.80484">
        <ele>248.7</ele>
        <time>2022-12-08T10:52:27Z</time>
      </trkpt>
      <trkpt lat="48.13226" lon="-3.80484">
        <ele>248.7</ele>
        <time>2022-12-08T10:52:28Z</time>
      </trkpt>
      <trkpt lat="48.13227" lon="-3.80486">
        <ele>248.8</ele>
        <time>2022-12-08T10:52:29Z</time>
      </trkpt>
      <trkpt lat="48.1323" lon="-3.80489">
        <ele>248.8</ele>
        <time>2022-12-08T10:52:30Z</time>
      </trkpt>
      <trkpt lat="48.13231" lon="-3.8049">
        <ele>248.8</ele>
        <time>2022-12-08T10:52:31Z</time>
      </trkpt>
      <trkpt lat="48.13234" lon="-3.80494">
        <ele>248.8</ele>
        <time>2022-12-08T10:52:32Z</time>
      </trkpt>
      <trkpt lat="48.13235" lon="-3.80496">
        <ele>248.9</ele>
        <time>2022-12-08T10:52:33Z</time>
      </trkpt>
      <trkpt lat="48.13238" lon="-3.80498">
        <ele>248.9</ele>
        <time>2022-12-08T10:52:34Z</time>
      </trkpt>
      <trkpt lat="48.13239" lon="-3.80499">
        <ele>249</ele>
        <time>2022-12-08T10:52:35Z</time>
      </trkpt>
      <trkpt lat="48.13242" lon="-3.80502">
        <ele>249</ele>
        <time>2022-12-08T10:52:36Z</time>
      </trkpt>
      <trkpt lat="48.13243" lon="-3.80502">
        <ele>249.1</ele>
        <time>2022-12-08T10:52:37Z</time>
      </trkpt>
      <trkpt lat="48.13246" lon="-3.80503">
        <ele>249.1</ele>
        <time>2022-12-08T10:52:38Z</time>
      </trkpt>
      <trkpt lat="48.1325" lon="-3.80506">
        <ele>249.2</ele>
        <time>2022-12-08T10:52:40Z</time>
      </trkpt>
      <trkpt lat="48.13253" lon="-3.80507">
        <ele>249.2</ele>
        <time>2022-12-08T10:52:41Z</time>
      </trkpt>
      <trkpt lat="48.13257" lon="-3.80508">
        <ele>249.3</ele>
        <time>2022-12-08T10:52:42Z</time>
      </trkpt>
      <trkpt lat="48.13261" lon="-3.80509">
        <ele>249.4</ele>
        <time>2022-12-08T10:52:43Z</time>
      </trkpt>
      <trkpt lat="48.13262" lon="-3.8051">
        <ele>249.4</ele>
        <time>2022-12-08T10:52:44Z</time>
      </trkpt>
      <trkpt lat="48.13266" lon="-3.80512">
        <ele>249.4</ele>
        <time>2022-12-08T10:52:46Z</time>
      </trkpt>
      <trkpt lat="48.13269" lon="-3.80513">
        <ele>249.4</ele>
        <time>2022-12-08T10:52:47Z</time>
      </trkpt>
      <trkpt lat="48.13273" lon="-3.80515">
        <ele>249.4</ele>
        <time>2022-12-08T10:52:48Z</time>
      </trkpt>
      <trkpt lat="48.13277" lon="-3.80515">
        <ele>249.4</ele>
        <time>2022-12-08T10:52:49Z</time>
      </trkpt>
      <trkpt lat="48.13281" lon="-3.80516">
        <ele>249.4</ele>
        <time>2022-12-08T10:52:51Z</time>
      </trkpt>
      <trkpt lat="48.13284" lon="-3.80516">
        <ele>249.3</ele>
        <time>2022-12-08T10:52:52Z</time>
      </trkpt>
      <trkpt lat="48.13287" lon="-3.80517">
        <ele>249.3</ele>
        <time>2022-12-08T10:52:53Z</time>
      </trkpt>
      <trkpt lat="48.13291" lon="-3.80518">
        <ele>249.2</ele>
        <time>2022-12-08T10:52:54Z</time>
      </trkpt>
      <trkpt lat="48.13294" lon="-3.80519">
        <ele>249.2</ele>
        <time>2022-12-08T10:52:55Z</time>
      </trkpt>
      <trkpt lat="48.13298" lon="-3.8052">
        <ele>249.1</ele>
        <time>2022-12-08T10:52:56Z</time>
      </trkpt>
      <trkpt lat="48.13299" lon="-3.80521">
        <ele>249.1</ele>
        <time>2022-12-08T10:52:57Z</time>
      </trkpt>
      <trkpt lat="48.13303" lon="-3.80522">
        <ele>249</ele>
        <time>2022-12-08T10:52:58Z</time>
      </trkpt>
      <trkpt lat="48.13305" lon="-3.80522">
        <ele>249</ele>
        <time>2022-12-08T10:52:59Z</time>
      </trkpt>
      <trkpt lat="48.13307" lon="-3.80523">
        <ele>248.9</ele>
        <time>2022-12-08T10:53:00Z</time>
      </trkpt>
      <trkpt lat="48.13311" lon="-3.80524">
        <ele>248.9</ele>
        <time>2022-12-08T10:53:01Z</time>
      </trkpt>
      <trkpt lat="48.13314" lon="-3.80525">
        <ele>248.8</ele>
        <time>2022-12-08T10:53:02Z</time>
      </trkpt>
      <trkpt lat="48.13317" lon="-3.80526">
        <ele>248.7</ele>
        <time>2022-12-08T10:53:03Z</time>
      </trkpt>
      <trkpt lat="48.1332" lon="-3.80527">
        <ele>248.6</ele>
        <time>2022-12-08T10:53:04Z</time>
      </trkpt>
      <trkpt lat="48.13323" lon="-3.80527">
        <ele>248.5</ele>
        <time>2022-12-08T10:53:05Z</time>
      </trkpt>
      <trkpt lat="48.13326" lon="-3.80528">
        <ele>248.5</ele>
        <time>2022-12-08T10:53:06Z</time>
      </trkpt>
      <trkpt lat="48.1333" lon="-3.80529">
        <ele>248.3</ele>
        <time>2022-12-08T10:53:07Z</time>
      </trkpt>
      <trkpt lat="48.13331" lon="-3.8053">
        <ele>248.3</ele>
        <time>2022-12-08T10:53:08Z</time>
      </trkpt>
      <trkpt lat="48.13334" lon="-3.80531">
        <ele>248.2</ele>
        <time>2022-12-08T10:53:09Z</time>
      </trkpt>
      <trkpt lat="48.13337" lon="-3.80531">
        <ele>248.1</ele>
        <time>2022-12-08T10:53:10Z</time>
      </trkpt>
      <trkpt lat="48.13341" lon="-3.80532">
        <ele>248</ele>
        <time>2022-12-08T10:53:11Z</time>
      </trkpt>
      <trkpt lat="48.13343" lon="-3.80532">
        <ele>248</ele>
        <time>2022-12-08T10:53:12Z</time>
      </trkpt>
      <trkpt lat="48.13346" lon="-3.80534">
        <ele>247.9</ele>
        <time>2022-12-08T10:53:13Z</time>
      </trkpt>
      <trkpt lat="48.13347" lon="-3.80534">
        <ele>247.9</ele>
        <time>2022-12-08T10:53:14Z</time>
      </trkpt>
      <trkpt lat="48.1335" lon="-3.80535">
        <ele>247.9</ele>
        <time>2022-12-08T10:53:15Z</time>
      </trkpt>
      <trkpt lat="48.13353" lon="-3.80536">
        <ele>247.8</ele>
        <time>2022-12-08T10:53:16Z</time>
      </trkpt>
      <trkpt lat="48.13356" lon="-3.80536">
        <ele>247.8</ele>
        <time>2022-12-08T10:53:17Z</time>
      </trkpt>
      <trkpt lat="48.1336" lon="-3.80538">
        <ele>247.7</ele>
        <time>2022-12-08T10:53:18Z</time>
      </trkpt>
      <trkpt lat="48.13361" lon="-3.80538">
        <ele>247.7</ele>
        <time>2022-12-08T10:53:19Z</time>
      </trkpt>
      <trkpt lat="48.13364" lon="-3.80539">
        <ele>247.7</ele>
        <time>2022-12-08T10:53:20Z</time>
      </trkpt>
      <trkpt lat="48.13365" lon="-3.8054">
        <ele>247.7</ele>
        <time>2022-12-08T10:53:21Z</time>
      </trkpt>
      <trkpt lat="48.1337" lon="-3.80542">
        <ele>247.6</ele>
        <time>2022-12-08T10:53:23Z</time>
      </trkpt>
      <trkpt lat="48.13371" lon="-3.80543">
        <ele>247.5</ele>
        <time>2022-12-08T10:53:24Z</time>
      </trkpt>
      <trkpt lat="48.13373" lon="-3.80543">
        <ele>247.5</ele>
        <time>2022-12-08T10:53:25Z</time>
      </trkpt>
      <trkpt lat="48.13376" lon="-3.80542">
        <ele>247.4</ele>
        <time>2022-12-08T10:53:27Z</time>
      </trkpt>
      <trkpt lat="48.13381" lon="-3.80543">
        <ele>247.2</ele>
        <time>2022-12-08T10:53:28Z</time>
      </trkpt>
      <trkpt lat="48.13383" lon="-3.80544">
        <ele>247.1</ele>
        <time>2022-12-08T10:53:29Z</time>
      </trkpt>
      <trkpt lat="48.13387" lon="-3.80546">
        <ele>246.9</ele>
        <time>2022-12-08T10:53:30Z</time>
      </trkpt>
      <trkpt lat="48.13389" lon="-3.80546">
        <ele>246.8</ele>
        <time>2022-12-08T10:53:31Z</time>
      </trkpt>
      <trkpt lat="48.13393" lon="-3.80545">
        <ele>246.7</ele>
        <time>2022-12-08T10:53:32Z</time>
      </trkpt>
      <trkpt lat="48.13396" lon="-3.80545">
        <ele>246.5</ele>
        <time>2022-12-08T10:53:33Z</time>
      </trkpt>
      <trkpt lat="48.134" lon="-3.80542">
        <ele>246.4</ele>
        <time>2022-12-08T10:53:34Z</time>
      </trkpt>
      <trkpt lat="48.134" lon="-3.80541">
        <ele>246.3</ele>
        <time>2022-12-08T10:53:35Z</time>
      </trkpt>
      <trkpt lat="48.13404" lon="-3.80537">
        <ele>246.1</ele>
        <time>2022-12-08T10:53:36Z</time>
      </trkpt>
      <trkpt lat="48.13405" lon="-3.80536">
        <ele>246</ele>
        <time>2022-12-08T10:53:37Z</time>
      </trkpt>
      <trkpt lat="48.13409" lon="-3.80534">
        <ele>245.8</ele>
        <time>2022-12-08T10:53:38Z</time>
      </trkpt>
      <trkpt lat="48.13411" lon="-3.80533">
        <ele>245.7</ele>
        <time>2022-12-08T10:53:39Z</time>
      </trkpt>
      <trkpt lat="48.13416" lon="-3.80531">
        <ele>245.4</ele>
        <time>2022-12-08T10:53:40Z</time>
      </trkpt>
      <trkpt lat="48.1342" lon="-3.8053">
        <ele>245.2</ele>
        <time>2022-12-08T10:53:41Z</time>
      </trkpt>
      <trkpt lat="48.13423" lon="-3.80529">
        <ele>245</ele>
        <time>2022-12-08T10:53:43Z</time>
      </trkpt>
      <trkpt lat="48.13427" lon="-3.80527">
        <ele>244.7</ele>
        <time>2022-12-08T10:53:44Z</time>
      </trkpt>
      <trkpt lat="48.1343" lon="-3.80525">
        <ele>244.5</ele>
        <time>2022-12-08T10:53:45Z</time>
      </trkpt>
      <trkpt lat="48.13434" lon="-3.80521">
        <ele>244.2</ele>
        <time>2022-12-08T10:53:47Z</time>
      </trkpt>
      <trkpt lat="48.13438" lon="-3.80518">
        <ele>244</ele>
        <time>2022-12-08T10:53:48Z</time>
      </trkpt>
      <trkpt lat="48.13442" lon="-3.80516">
        <ele>243.7</ele>
        <time>2022-12-08T10:53:49Z</time>
      </trkpt>
      <trkpt lat="48.13446" lon="-3.80515">
        <ele>243.3</ele>
        <time>2022-12-08T10:53:50Z</time>
      </trkpt>
      <trkpt lat="48.13449" lon="-3.80514">
        <ele>243.1</ele>
        <time>2022-12-08T10:53:51Z</time>
      </trkpt>
      <trkpt lat="48.13453" lon="-3.80513">
        <ele>242.9</ele>
        <time>2022-12-08T10:53:52Z</time>
      </trkpt>
      <trkpt lat="48.13456" lon="-3.80509">
        <ele>242.6</ele>
        <time>2022-12-08T10:53:53Z</time>
      </trkpt>
      <trkpt lat="48.13459" lon="-3.80508">
        <ele>242.4</ele>
        <time>2022-12-08T10:53:54Z</time>
      </trkpt>
      <trkpt lat="48.1346" lon="-3.80508">
        <ele>242.4</ele>
        <time>2022-12-08T10:53:55Z</time>
      </trkpt>
      <trkpt lat="48.13461" lon="-3.80508">
        <ele>242.3</ele>
        <time>2022-12-08T10:53:56Z</time>
      </trkpt>
      <trkpt lat="48.13463" lon="-3.80508">
        <ele>242.2</ele>
        <time>2022-12-08T10:53:57Z</time>
      </trkpt>
      <trkpt lat="48.13464" lon="-3.80508">
        <ele>242.2</ele>
        <time>2022-12-08T10:53:58Z</time>
      </trkpt>
      <trkpt lat="48.13465" lon="-3.80507">
        <ele>242.1</ele>
        <time>2022-12-08T10:53:59Z</time>
      </trkpt>
      <trkpt lat="48.13465" lon="-3.80504">
        <ele>242.1</ele>
        <time>2022-12-08T10:54:00Z</time>
      </trkpt>
      <trkpt lat="48.13467" lon="-3.80503">
        <ele>242</ele>
        <time>2022-12-08T10:54:01Z</time>
      </trkpt>
      <trkpt lat="48.13469" lon="-3.80503">
        <ele>242</ele>
        <time>2022-12-08T10:54:03Z</time>
      </trkpt>
      <trkpt lat="48.1347" lon="-3.80503">
        <ele>241.9</ele>
        <time>2022-12-08T10:54:04Z</time>
      </trkpt>
      <trkpt lat="48.13471" lon="-3.80503">
        <ele>241.9</ele>
        <time>2022-12-08T10:54:05Z</time>
      </trkpt>
      <trkpt lat="48.13472" lon="-3.80503">
        <ele>241.9</ele>
        <time>2022-12-08T10:54:06Z</time>
      </trkpt>
      <trkpt lat="48.13476" lon="-3.80504">
        <ele>241.8</ele>
        <time>2022-12-08T10:54:07Z</time>
      </trkpt>
      <trkpt lat="48.13479" lon="-3.80504">
        <ele>241.7</ele>
        <time>2022-12-08T10:54:08Z</time>
      </trkpt>
      <trkpt lat="48.13482" lon="-3.80503">
        <ele>241.6</ele>
        <time>2022-12-08T10:54:09Z</time>
      </trkpt>
      <trkpt lat="48.13486" lon="-3.80503">
        <ele>241.5</ele>
        <time>2022-12-08T10:54:10Z</time>
      </trkpt>
      <trkpt lat="48.1349" lon="-3.80502">
        <ele>241.4</ele>
        <time>2022-12-08T10:54:11Z</time>
      </trkpt>
      <trkpt lat="48.13493" lon="-3.80501">
        <ele>241.3</ele>
        <time>2022-12-08T10:54:12Z</time>
      </trkpt>
      <trkpt lat="48.13496" lon="-3.805">
        <ele>241.2</ele>
        <time>2022-12-08T10:54:13Z</time>
      </trkpt>
      <trkpt lat="48.13499" lon="-3.80499">
        <ele>241.1</ele>
        <time>2022-12-08T10:54:14Z</time>
      </trkpt>
      <trkpt lat="48.13502" lon="-3.80497">
        <ele>241</ele>
        <time>2022-12-08T10:54:15Z</time>
      </trkpt>
      <trkpt lat="48.13506" lon="-3.80495">
        <ele>240.9</ele>
        <time>2022-12-08T10:54:16Z</time>
      </trkpt>
      <trkpt lat="48.13509" lon="-3.80493">
        <ele>240.8</ele>
        <time>2022-12-08T10:54:17Z</time>
      </trkpt>
      <trkpt lat="48.13513" lon="-3.8049">
        <ele>240.7</ele>
        <time>2022-12-08T10:54:18Z</time>
      </trkpt>
      <trkpt lat="48.13516" lon="-3.80488">
        <ele>240.6</ele>
        <time>2022-12-08T10:54:19Z</time>
      </trkpt>
      <trkpt lat="48.13519" lon="-3.80485">
        <ele>240.5</ele>
        <time>2022-12-08T10:54:20Z</time>
      </trkpt>
      <trkpt lat="48.1352" lon="-3.80483">
        <ele>240.4</ele>
        <time>2022-12-08T10:54:21Z</time>
      </trkpt>
      <trkpt lat="48.13524" lon="-3.80481">
        <ele>240.3</ele>
        <time>2022-12-08T10:54:22Z</time>
      </trkpt>
      <trkpt lat="48.13527" lon="-3.80479">
        <ele>240.2</ele>
        <time>2022-12-08T10:54:23Z</time>
      </trkpt>
      <trkpt lat="48.1353" lon="-3.80476">
        <ele>240.2</ele>
        <time>2022-12-08T10:54:24Z</time>
      </trkpt>
      <trkpt lat="48.13532" lon="-3.80473">
        <ele>240.1</ele>
        <time>2022-12-08T10:54:25Z</time>
      </trkpt>
      <trkpt lat="48.13536" lon="-3.8047">
        <ele>240</ele>
        <time>2022-12-08T10:54:27Z</time>
      </trkpt>
      <trkpt lat="48.1354" lon="-3.80467">
        <ele>239.8</ele>
        <time>2022-12-08T10:54:28Z</time>
      </trkpt>
      <trkpt lat="48.13544" lon="-3.80463">
        <ele>239.7</ele>
        <time>2022-12-08T10:54:29Z</time>
      </trkpt>
      <trkpt lat="48.13547" lon="-3.8046">
        <ele>239.6</ele>
        <time>2022-12-08T10:54:30Z</time>
      </trkpt>
      <trkpt lat="48.13549" lon="-3.80456">
        <ele>239.5</ele>
        <time>2022-12-08T10:54:31Z</time>
      </trkpt>
      <trkpt lat="48.13551" lon="-3.80453">
        <ele>239.4</ele>
        <time>2022-12-08T10:54:32Z</time>
      </trkpt>
      <trkpt lat="48.13554" lon="-3.8045">
        <ele>239.3</ele>
        <time>2022-12-08T10:54:33Z</time>
      </trkpt>
      <trkpt lat="48.13556" lon="-3.80447">
        <ele>239.2</ele>
        <time>2022-12-08T10:54:34Z</time>
      </trkpt>
      <trkpt lat="48.13559" lon="-3.80444">
        <ele>239.2</ele>
        <time>2022-12-08T10:54:35Z</time>
      </trkpt>
      <trkpt lat="48.13561" lon="-3.8044">
        <ele>239.1</ele>
        <time>2022-12-08T10:54:36Z</time>
      </trkpt>
      <trkpt lat="48.13563" lon="-3.80436">
        <ele>239</ele>
        <time>2022-12-08T10:54:37Z</time>
      </trkpt>
      <trkpt lat="48.13564" lon="-3.80431">
        <ele>239</ele>
        <time>2022-12-08T10:54:38Z</time>
      </trkpt>
      <trkpt lat="48.13566" lon="-3.80427">
        <ele>238.9</ele>
        <time>2022-12-08T10:54:39Z</time>
      </trkpt>
      <trkpt lat="48.13569" lon="-3.80424">
        <ele>238.9</ele>
        <time>2022-12-08T10:54:40Z</time>
      </trkpt>
      <trkpt lat="48.13571" lon="-3.80421">
        <ele>238.8</ele>
        <time>2022-12-08T10:54:41Z</time>
      </trkpt>
      <trkpt lat="48.13573" lon="-3.80417">
        <ele>238.7</ele>
        <time>2022-12-08T10:54:42Z</time>
      </trkpt>
      <trkpt lat="48.13575" lon="-3.80414">
        <ele>238.7</ele>
        <time>2022-12-08T10:54:43Z</time>
      </trkpt>
      <trkpt lat="48.13577" lon="-3.8041">
        <ele>238.6</ele>
        <time>2022-12-08T10:54:44Z</time>
      </trkpt>
      <trkpt lat="48.13579" lon="-3.80407">
        <ele>238.6</ele>
        <time>2022-12-08T10:54:45Z</time>
      </trkpt>
      <trkpt lat="48.13581" lon="-3.80403">
        <ele>238.5</ele>
        <time>2022-12-08T10:54:46Z</time>
      </trkpt>
      <trkpt lat="48.13583" lon="-3.80399">
        <ele>238.4</ele>
        <time>2022-12-08T10:54:47Z</time>
      </trkpt>
      <trkpt lat="48.13585" lon="-3.80395">
        <ele>238.4</ele>
        <time>2022-12-08T10:54:48Z</time>
      </trkpt>
      <trkpt lat="48.13587" lon="-3.80392">
        <ele>238.3</ele>
        <time>2022-12-08T10:54:49Z</time>
      </trkpt>
      <trkpt lat="48.1359" lon="-3.80388">
        <ele>238.2</ele>
        <time>2022-12-08T10:54:50Z</time>
      </trkpt>
      <trkpt lat="48.13592" lon="-3.80384">
        <ele>238.2</ele>
        <time>2022-12-08T10:54:51Z</time>
      </trkpt>
      <trkpt lat="48.13594" lon="-3.80381">
        <ele>238.1</ele>
        <time>2022-12-08T10:54:52Z</time>
      </trkpt>
      <trkpt lat="48.13597" lon="-3.80377">
        <ele>238</ele>
        <time>2022-12-08T10:54:53Z</time>
      </trkpt>
      <trkpt lat="48.136" lon="-3.80375">
        <ele>237.9</ele>
        <time>2022-12-08T10:54:54Z</time>
      </trkpt>
      <trkpt lat="48.13602" lon="-3.80372">
        <ele>237.9</ele>
        <time>2022-12-08T10:54:55Z</time>
      </trkpt>
      <trkpt lat="48.13605" lon="-3.80368">
        <ele>237.8</ele>
        <time>2022-12-08T10:54:56Z</time>
      </trkpt>
      <trkpt lat="48.13608" lon="-3.80365">
        <ele>237.7</ele>
        <time>2022-12-08T10:54:57Z</time>
      </trkpt>
      <trkpt lat="48.13611" lon="-3.80363">
        <ele>237.6</ele>
        <time>2022-12-08T10:54:58Z</time>
      </trkpt>
      <trkpt lat="48.13613" lon="-3.80362">
        <ele>237.6</ele>
        <time>2022-12-08T10:54:59Z</time>
      </trkpt>
      <trkpt lat="48.13617" lon="-3.80358">
        <ele>237.5</ele>
        <time>2022-12-08T10:55:00Z</time>
      </trkpt>
      <trkpt lat="48.13619" lon="-3.80356">
        <ele>237.4</ele>
        <time>2022-12-08T10:55:01Z</time>
      </trkpt>
      <trkpt lat="48.13622" lon="-3.80353">
        <ele>237.3</ele>
        <time>2022-12-08T10:55:02Z</time>
      </trkpt>
      <trkpt lat="48.13625" lon="-3.80351">
        <ele>237.2</ele>
        <time>2022-12-08T10:55:03Z</time>
      </trkpt>
      <trkpt lat="48.13628" lon="-3.80349">
        <ele>237.1</ele>
        <time>2022-12-08T10:55:04Z</time>
      </trkpt>
      <trkpt lat="48.13631" lon="-3.80347">
        <ele>237.1</ele>
        <time>2022-12-08T10:55:05Z</time>
      </trkpt>
      <trkpt lat="48.13634" lon="-3.80345">
        <ele>237</ele>
        <time>2022-12-08T10:55:06Z</time>
      </trkpt>
      <trkpt lat="48.13635" lon="-3.80345">
        <ele>237</ele>
        <time>2022-12-08T10:55:07Z</time>
      </trkpt>
      <trkpt lat="48.13638" lon="-3.80343">
        <ele>236.9</ele>
        <time>2022-12-08T10:55:08Z</time>
      </trkpt>
      <trkpt lat="48.13642" lon="-3.8034">
        <ele>236.8</ele>
        <time>2022-12-08T10:55:09Z</time>
      </trkpt>
      <trkpt lat="48.13644" lon="-3.80337">
        <ele>236.8</ele>
        <time>2022-12-08T10:55:10Z</time>
      </trkpt>
      <trkpt lat="48.13646" lon="-3.80334">
        <ele>236.7</ele>
        <time>2022-12-08T10:55:11Z</time>
      </trkpt>
      <trkpt lat="48.13648" lon="-3.80331">
        <ele>236.7</ele>
        <time>2022-12-08T10:55:12Z</time>
      </trkpt>
      <trkpt lat="48.1365" lon="-3.80327">
        <ele>236.6</ele>
        <time>2022-12-08T10:55:13Z</time>
      </trkpt>
      <trkpt lat="48.13653" lon="-3.80323">
        <ele>236.6</ele>
        <time>2022-12-08T10:55:14Z</time>
      </trkpt>
      <trkpt lat="48.13654" lon="-3.80322">
        <ele>236.6</ele>
        <time>2022-12-08T10:55:15Z</time>
      </trkpt>
      <trkpt lat="48.13657" lon="-3.80318">
        <ele>236.6</ele>
        <time>2022-12-08T10:55:16Z</time>
      </trkpt>
      <trkpt lat="48.13661" lon="-3.80313">
        <ele>236.5</ele>
        <time>2022-12-08T10:55:17Z</time>
      </trkpt>
      <trkpt lat="48.13665" lon="-3.80311">
        <ele>236.4</ele>
        <time>2022-12-08T10:55:18Z</time>
      </trkpt>
      <trkpt lat="48.13671" lon="-3.80309">
        <ele>236.4</ele>
        <time>2022-12-08T10:55:20Z</time>
      </trkpt>
      <trkpt lat="48.13675" lon="-3.80308">
        <ele>236.3</ele>
        <time>2022-12-08T10:55:21Z</time>
      </trkpt>
      <trkpt lat="48.13679" lon="-3.80308">
        <ele>236.3</ele>
        <time>2022-12-08T10:55:22Z</time>
      </trkpt>
      <trkpt lat="48.13682" lon="-3.80307">
        <ele>236.2</ele>
        <time>2022-12-08T10:55:23Z</time>
      </trkpt>
      <trkpt lat="48.1369" lon="-3.80305">
        <ele>236.2</ele>
        <time>2022-12-08T10:55:25Z</time>
      </trkpt>
      <trkpt lat="48.13693" lon="-3.80304">
        <ele>236.2</ele>
        <time>2022-12-08T10:55:26Z</time>
      </trkpt>
      <trkpt lat="48.13696" lon="-3.80305">
        <ele>236.3</ele>
        <time>2022-12-08T10:55:27Z</time>
      </trkpt>
      <trkpt lat="48.13701" lon="-3.80303">
        <ele>236.3</ele>
        <time>2022-12-08T10:55:28Z</time>
      </trkpt>
      <trkpt lat="48.13705" lon="-3.80302">
        <ele>236.4</ele>
        <time>2022-12-08T10:55:29Z</time>
      </trkpt>
      <trkpt lat="48.13709" lon="-3.80302">
        <ele>236.5</ele>
        <time>2022-12-08T10:55:30Z</time>
      </trkpt>
      <trkpt lat="48.13713" lon="-3.80302">
        <ele>236.5</ele>
        <time>2022-12-08T10:55:31Z</time>
      </trkpt>
      <trkpt lat="48.13717" lon="-3.80302">
        <ele>236.6</ele>
        <time>2022-12-08T10:55:32Z</time>
      </trkpt>
      <trkpt lat="48.1372" lon="-3.80302">
        <ele>236.6</ele>
        <time>2022-12-08T10:55:33Z</time>
      </trkpt>
      <trkpt lat="48.13723" lon="-3.80301">
        <ele>236.6</ele>
        <time>2022-12-08T10:55:34Z</time>
      </trkpt>
      <trkpt lat="48.13727" lon="-3.80301">
        <ele>236.6</ele>
        <time>2022-12-08T10:55:35Z</time>
      </trkpt>
      <trkpt lat="48.1373" lon="-3.80301">
        <ele>236.6</ele>
        <time>2022-12-08T10:55:36Z</time>
      </trkpt>
      <trkpt lat="48.13734" lon="-3.80301">
        <ele>236.5</ele>
        <time>2022-12-08T10:55:37Z</time>
      </trkpt>
      <trkpt lat="48.1374" lon="-3.803">
        <ele>236.4</ele>
        <time>2022-12-08T10:55:39Z</time>
      </trkpt>
      <trkpt lat="48.13745" lon="-3.803">
        <ele>236.2</ele>
        <time>2022-12-08T10:55:40Z</time>
      </trkpt>
      <trkpt lat="48.13748" lon="-3.803">
        <ele>236.1</ele>
        <time>2022-12-08T10:55:41Z</time>
      </trkpt>
      <trkpt lat="48.13752" lon="-3.803">
        <ele>236</ele>
        <time>2022-12-08T10:55:42Z</time>
      </trkpt>
      <trkpt lat="48.13757" lon="-3.80299">
        <ele>235.9</ele>
        <time>2022-12-08T10:55:44Z</time>
      </trkpt>
      <trkpt lat="48.13762" lon="-3.80299">
        <ele>235.8</ele>
        <time>2022-12-08T10:55:45Z</time>
      </trkpt>
      <trkpt lat="48.13765" lon="-3.80298">
        <ele>235.6</ele>
        <time>2022-12-08T10:55:46Z</time>
      </trkpt>
      <trkpt lat="48.13769" lon="-3.80297">
        <ele>235.5</ele>
        <time>2022-12-08T10:55:47Z</time>
      </trkpt>
      <trkpt lat="48.13772" lon="-3.80297">
        <ele>235.5</ele>
        <time>2022-12-08T10:55:48Z</time>
      </trkpt>
      <trkpt lat="48.13774" lon="-3.80296">
        <ele>235.5</ele>
        <time>2022-12-08T10:55:49Z</time>
      </trkpt>
      <trkpt lat="48.13774" lon="-3.80296">
        <ele>235.5</ele>
        <time>2022-12-08T10:55:50Z</time>
      </trkpt>
      <trkpt lat="48.13774" lon="-3.80296">
        <ele>235.5</ele>
        <time>2022-12-08T10:55:51Z</time>
      </trkpt>
      <trkpt lat="48.13774" lon="-3.80296">
        <ele>235.5</ele>
        <time>2022-12-08T10:55:52Z</time>
      </trkpt>
      <trkpt lat="48.13774" lon="-3.80296">
        <ele>235.5</ele>
        <time>2022-12-08T10:55:53Z</time>
      </trkpt>
      <trkpt lat="48.13774" lon="-3.80296">
        <ele>235.5</ele>
        <time>2022-12-08T10:55:54Z</time>
      </trkpt>
      <trkpt lat="48.13775" lon="-3.80296">
        <ele>235.4</ele>
        <time>2022-12-08T10:55:55Z</time>
      </trkpt>
      <trkpt lat="48.13775" lon="-3.80295">
        <ele>235.4</ele>
        <time>2022-12-08T10:55:56Z</time>
      </trkpt>
      <trkpt lat="48.13775" lon="-3.80295">
        <ele>235.4</ele>
        <time>2022-12-08T10:55:57Z</time>
      </trkpt>
      <trkpt lat="48.13775" lon="-3.80295">
        <ele>235.4</ele>
        <time>2022-12-08T10:55:58Z</time>
      </trkpt>
      <trkpt lat="48.13776" lon="-3.80295">
        <ele>235.4</ele>
        <time>2022-12-08T10:55:59Z</time>
      </trkpt>
      <trkpt lat="48.13777" lon="-3.80295">
        <ele>235.4</ele>
        <time>2022-12-08T10:56:01Z</time>
      </trkpt>
      <trkpt lat="48.13777" lon="-3.80294">
        <ele>235.4</ele>
        <time>2022-12-08T10:56:02Z</time>
      </trkpt>
      <trkpt lat="48.13777" lon="-3.80294">
        <ele>235.4</ele>
        <time>2022-12-08T10:56:03Z</time>
      </trkpt>
      <trkpt lat="48.13778" lon="-3.80294">
        <ele>235.4</ele>
        <time>2022-12-08T10:56:04Z</time>
      </trkpt>
      <trkpt lat="48.13779" lon="-3.80294">
        <ele>235.4</ele>
        <time>2022-12-08T10:56:05Z</time>
      </trkpt>
      <trkpt lat="48.1378" lon="-3.80294">
        <ele>235.4</ele>
        <time>2022-12-08T10:56:06Z</time>
      </trkpt>
      <trkpt lat="48.13781" lon="-3.80294">
        <ele>235.3</ele>
        <time>2022-12-08T10:56:07Z</time>
      </trkpt>
      <trkpt lat="48.13782" lon="-3.80293">
        <ele>235.3</ele>
        <time>2022-12-08T10:56:08Z</time>
      </trkpt>
      <trkpt lat="48.13783" lon="-3.80293">
        <ele>235.3</ele>
        <time>2022-12-08T10:56:09Z</time>
      </trkpt>
      <trkpt lat="48.13784" lon="-3.80293">
        <ele>235.3</ele>
        <time>2022-12-08T10:56:11Z</time>
      </trkpt>
      <trkpt lat="48.13784" lon="-3.80293">
        <ele>235.3</ele>
        <time>2022-12-08T10:56:12Z</time>
      </trkpt>
      <trkpt lat="48.13784" lon="-3.80293">
        <ele>235.3</ele>
        <time>2022-12-08T10:56:13Z</time>
      </trkpt>
      <trkpt lat="48.13785" lon="-3.80293">
        <ele>235.3</ele>
        <time>2022-12-08T10:56:14Z</time>
      </trkpt>
      <trkpt lat="48.13786" lon="-3.80293">
        <ele>235.3</ele>
        <time>2022-12-08T10:56:15Z</time>
      </trkpt>
      <trkpt lat="48.13787" lon="-3.80293">
        <ele>235.2</ele>
        <time>2022-12-08T10:56:16Z</time>
      </trkpt>
      <trkpt lat="48.13787" lon="-3.80293">
        <ele>235.2</ele>
        <time>2022-12-08T10:56:17Z</time>
      </trkpt>
      <trkpt lat="48.13788" lon="-3.80293">
        <ele>235.2</ele>
        <time>2022-12-08T10:56:18Z</time>
      </trkpt>
      <trkpt lat="48.13789" lon="-3.80293">
        <ele>235.2</ele>
        <time>2022-12-08T10:56:57Z</time>
      </trkpt>
      <trkpt lat="48.1379" lon="-3.80292">
        <ele>235.2</ele>
        <time>2022-12-08T10:56:58Z</time>
      </trkpt>
      <trkpt lat="48.13791" lon="-3.80292">
        <ele>235.2</ele>
        <time>2022-12-08T10:56:59Z</time>
      </trkpt>
      <trkpt lat="48.13792" lon="-3.80292">
        <ele>235.1</ele>
        <time>2022-12-08T10:57:00Z</time>
      </trkpt>
      <trkpt lat="48.13794" lon="-3.80292">
        <ele>235.1</ele>
        <time>2022-12-08T10:57:01Z</time>
      </trkpt>
      <trkpt lat="48.13796" lon="-3.80291">
        <ele>235.1</ele>
        <time>2022-12-08T10:57:02Z</time>
      </trkpt>
      <trkpt lat="48.13802" lon="-3.80291">
        <ele>235</ele>
        <time>2022-12-08T10:57:04Z</time>
      </trkpt>
      <trkpt lat="48.13807" lon="-3.80289">
        <ele>235</ele>
        <time>2022-12-08T10:57:05Z</time>
      </trkpt>
      <trkpt lat="48.1381" lon="-3.80289">
        <ele>234.9</ele>
        <time>2022-12-08T10:57:06Z</time>
      </trkpt>
      <trkpt lat="48.13814" lon="-3.80289">
        <ele>234.9</ele>
        <time>2022-12-08T10:57:07Z</time>
      </trkpt>
      <trkpt lat="48.13817" lon="-3.80289">
        <ele>234.9</ele>
        <time>2022-12-08T10:57:08Z</time>
      </trkpt>
      <trkpt lat="48.13821" lon="-3.80288">
        <ele>234.9</ele>
        <time>2022-12-08T10:57:09Z</time>
      </trkpt>
      <trkpt lat="48.13823" lon="-3.80288">
        <ele>234.9</ele>
        <time>2022-12-08T10:57:10Z</time>
      </trkpt>
      <trkpt lat="48.13827" lon="-3.80287">
        <ele>234.9</ele>
        <time>2022-12-08T10:57:11Z</time>
      </trkpt>
      <trkpt lat="48.13831" lon="-3.80287">
        <ele>234.9</ele>
        <time>2022-12-08T10:57:12Z</time>
      </trkpt>
      <trkpt lat="48.13833" lon="-3.80288">
        <ele>234.9</ele>
        <time>2022-12-08T10:57:13Z</time>
      </trkpt>
      <trkpt lat="48.13838" lon="-3.80288">
        <ele>234.9</ele>
        <time>2022-12-08T10:57:15Z</time>
      </trkpt>
      <trkpt lat="48.13842" lon="-3.80287">
        <ele>234.8</ele>
        <time>2022-12-08T10:57:16Z</time>
      </trkpt>
      <trkpt lat="48.13845" lon="-3.80287">
        <ele>234.8</ele>
        <time>2022-12-08T10:57:17Z</time>
      </trkpt>
      <trkpt lat="48.13849" lon="-3.80287">
        <ele>234.8</ele>
        <time>2022-12-08T10:57:18Z</time>
      </trkpt>
      <trkpt lat="48.13853" lon="-3.80286">
        <ele>234.8</ele>
        <time>2022-12-08T10:57:19Z</time>
      </trkpt>
      <trkpt lat="48.13855" lon="-3.80285">
        <ele>234.8</ele>
        <time>2022-12-08T10:57:20Z</time>
      </trkpt>
      <trkpt lat="48.13859" lon="-3.80283">
        <ele>234.7</ele>
        <time>2022-12-08T10:57:21Z</time>
      </trkpt>
      <trkpt lat="48.13862" lon="-3.80283">
        <ele>234.7</ele>
        <time>2022-12-08T10:57:22Z</time>
      </trkpt>
      <trkpt lat="48.13865" lon="-3.80284">
        <ele>234.7</ele>
        <time>2022-12-08T10:57:23Z</time>
      </trkpt>
      <trkpt lat="48.13869" lon="-3.80284">
        <ele>234.7</ele>
        <time>2022-12-08T10:57:24Z</time>
      </trkpt>
      <trkpt lat="48.13872" lon="-3.80283">
        <ele>234.7</ele>
        <time>2022-12-08T10:57:25Z</time>
      </trkpt>
      <trkpt lat="48.13879" lon="-3.80282">
        <ele>234.7</ele>
        <time>2022-12-08T10:57:27Z</time>
      </trkpt>
      <trkpt lat="48.13883" lon="-3.8028">
        <ele>234.7</ele>
        <time>2022-12-08T10:57:28Z</time>
      </trkpt>
      <trkpt lat="48.13886" lon="-3.8028">
        <ele>234.7</ele>
        <time>2022-12-08T10:57:29Z</time>
      </trkpt>
      <trkpt lat="48.13891" lon="-3.80278">
        <ele>234.8</ele>
        <time>2022-12-08T10:57:31Z</time>
      </trkpt>
      <trkpt lat="48.13893" lon="-3.80277">
        <ele>234.8</ele>
        <time>2022-12-08T10:57:32Z</time>
      </trkpt>
      <trkpt lat="48.13897" lon="-3.80274">
        <ele>234.8</ele>
        <time>2022-12-08T10:57:33Z</time>
      </trkpt>
      <trkpt lat="48.13898" lon="-3.80273">
        <ele>234.8</ele>
        <time>2022-12-08T10:57:34Z</time>
      </trkpt>
      <trkpt lat="48.13898" lon="-3.80267">
        <ele>234.7</ele>
        <time>2022-12-08T10:57:35Z</time>
      </trkpt>
      <trkpt lat="48.13898" lon="-3.80264">
        <ele>234.7</ele>
        <time>2022-12-08T10:57:36Z</time>
      </trkpt>
      <trkpt lat="48.13896" lon="-3.8026">
        <ele>234.6</ele>
        <time>2022-12-08T10:57:37Z</time>
      </trkpt>
      <trkpt lat="48.13893" lon="-3.8025">
        <ele>234.5</ele>
        <time>2022-12-08T10:57:39Z</time>
      </trkpt>
      <trkpt lat="48.13891" lon="-3.80244">
        <ele>234.5</ele>
        <time>2022-12-08T10:57:40Z</time>
      </trkpt>
      <trkpt lat="48.13889" lon="-3.80236">
        <ele>234.4</ele>
        <time>2022-12-08T10:57:41Z</time>
      </trkpt>
      <trkpt lat="48.13886" lon="-3.80231">
        <ele>234.3</ele>
        <time>2022-12-08T10:57:42Z</time>
      </trkpt>
      <trkpt lat="48.13885" lon="-3.80225">
        <ele>234.2</ele>
        <time>2022-12-08T10:57:43Z</time>
      </trkpt>
      <trkpt lat="48.13883" lon="-3.80219">
        <ele>234.2</ele>
        <time>2022-12-08T10:57:44Z</time>
      </trkpt>
      <trkpt lat="48.1388" lon="-3.80211">
        <ele>234.1</ele>
        <time>2022-12-08T10:57:45Z</time>
      </trkpt>
      <trkpt lat="48.13878" lon="-3.80204">
        <ele>234</ele>
        <time>2022-12-08T10:57:46Z</time>
      </trkpt>
      <trkpt lat="48.13875" lon="-3.80197">
        <ele>233.9</ele>
        <time>2022-12-08T10:57:47Z</time>
      </trkpt>
      <trkpt lat="48.13873" lon="-3.8019">
        <ele>233.9</ele>
        <time>2022-12-08T10:57:48Z</time>
      </trkpt>
      <trkpt lat="48.13871" lon="-3.80182">
        <ele>233.8</ele>
        <time>2022-12-08T10:57:49Z</time>
      </trkpt>
      <trkpt lat="48.13869" lon="-3.80175">
        <ele>233.7</ele>
        <time>2022-12-08T10:57:50Z</time>
      </trkpt>
      <trkpt lat="48.13866" lon="-3.80167">
        <ele>233.6</ele>
        <time>2022-12-08T10:57:51Z</time>
      </trkpt>
      <trkpt lat="48.13864" lon="-3.80159">
        <ele>233.6</ele>
        <time>2022-12-08T10:57:52Z</time>
      </trkpt>
      <trkpt lat="48.13862" lon="-3.80152">
        <ele>233.5</ele>
        <time>2022-12-08T10:57:53Z</time>
      </trkpt>
      <trkpt lat="48.1386" lon="-3.80144">
        <ele>233.5</ele>
        <time>2022-12-08T10:57:54Z</time>
      </trkpt>
      <trkpt lat="48.13857" lon="-3.80136">
        <ele>233.4</ele>
        <time>2022-12-08T10:57:55Z</time>
      </trkpt>
      <trkpt lat="48.13855" lon="-3.80128">
        <ele>233.4</ele>
        <time>2022-12-08T10:57:56Z</time>
      </trkpt>
      <trkpt lat="48.13853" lon="-3.8012">
        <ele>233.3</ele>
        <time>2022-12-08T10:57:57Z</time>
      </trkpt>
      <trkpt lat="48.1385" lon="-3.80112">
        <ele>233.3</ele>
        <time>2022-12-08T10:57:58Z</time>
      </trkpt>
      <trkpt lat="48.13848" lon="-3.80104">
        <ele>233.2</ele>
        <time>2022-12-08T10:57:59Z</time>
      </trkpt>
      <trkpt lat="48.13846" lon="-3.80095">
        <ele>233.1</ele>
        <time>2022-12-08T10:58:00Z</time>
      </trkpt>
      <trkpt lat="48.13843" lon="-3.80087">
        <ele>233.1</ele>
        <time>2022-12-08T10:58:01Z</time>
      </trkpt>
      <trkpt lat="48.13841" lon="-3.80078">
        <ele>233</ele>
        <time>2022-12-08T10:58:02Z</time>
      </trkpt>
      <trkpt lat="48.13839" lon="-3.8007">
        <ele>232.9</ele>
        <time>2022-12-08T10:58:03Z</time>
      </trkpt>
      <trkpt lat="48.13837" lon="-3.80061">
        <ele>232.9</ele>
        <time>2022-12-08T10:58:04Z</time>
      </trkpt>
      <trkpt lat="48.13835" lon="-3.80052">
        <ele>232.8</ele>
        <time>2022-12-08T10:58:05Z</time>
      </trkpt>
      <trkpt lat="48.13833" lon="-3.80044">
        <ele>232.7</ele>
        <time>2022-12-08T10:58:06Z</time>
      </trkpt>
      <trkpt lat="48.13831" lon="-3.80035">
        <ele>232.7</ele>
        <time>2022-12-08T10:58:07Z</time>
      </trkpt>
      <trkpt lat="48.13829" lon="-3.80027">
        <ele>232.6</ele>
        <time>2022-12-08T10:58:08Z</time>
      </trkpt>
      <trkpt lat="48.13827" lon="-3.80018">
        <ele>232.6</ele>
        <time>2022-12-08T10:58:09Z</time>
      </trkpt>
      <trkpt lat="48.13826" lon="-3.80009">
        <ele>232.5</ele>
        <time>2022-12-08T10:58:10Z</time>
      </trkpt>
      <trkpt lat="48.13824" lon="-3.79999">
        <ele>232.5</ele>
        <time>2022-12-08T10:58:11Z</time>
      </trkpt>
      <trkpt lat="48.13823" lon="-3.7999">
        <ele>232.4</ele>
        <time>2022-12-08T10:58:12Z</time>
      </trkpt>
      <trkpt lat="48.13821" lon="-3.7998">
        <ele>232.4</ele>
        <time>2022-12-08T10:58:13Z</time>
      </trkpt>
      <trkpt lat="48.13819" lon="-3.79971">
        <ele>232.3</ele>
        <time>2022-12-08T10:58:14Z</time>
      </trkpt>
      <trkpt lat="48.13818" lon="-3.79962">
        <ele>232.3</ele>
        <time>2022-12-08T10:58:15Z</time>
      </trkpt>
      <trkpt lat="48.13816" lon="-3.79952">
        <ele>232.3</ele>
        <time>2022-12-08T10:58:16Z</time>
      </trkpt>
      <trkpt lat="48.13814" lon="-3.79943">
        <ele>232.2</ele>
        <time>2022-12-08T10:58:17Z</time>
      </trkpt>
      <trkpt lat="48.13813" lon="-3.79934">
        <ele>232.2</ele>
        <time>2022-12-08T10:58:18Z</time>
      </trkpt>
      <trkpt lat="48.13811" lon="-3.79924">
        <ele>232.2</ele>
        <time>2022-12-08T10:58:19Z</time>
      </trkpt>
      <trkpt lat="48.13809" lon="-3.79915">
        <ele>232.2</ele>
        <time>2022-12-08T10:58:20Z</time>
      </trkpt>
      <trkpt lat="48.13807" lon="-3.79906">
        <ele>232.2</ele>
        <time>2022-12-08T10:58:21Z</time>
      </trkpt>
      <trkpt lat="48.13805" lon="-3.79897">
        <ele>232.2</ele>
        <time>2022-12-08T10:58:22Z</time>
      </trkpt>
      <trkpt lat="48.13803" lon="-3.79889">
        <ele>232.2</ele>
        <time>2022-12-08T10:58:23Z</time>
      </trkpt>
      <trkpt lat="48.13801" lon="-3.7988">
        <ele>232.2</ele>
        <time>2022-12-08T10:58:24Z</time>
      </trkpt>
      <trkpt lat="48.13799" lon="-3.79871">
        <ele>232.2</ele>
        <time>2022-12-08T10:58:25Z</time>
      </trkpt>
      <trkpt lat="48.13798" lon="-3.79863">
        <ele>232.2</ele>
        <time>2022-12-08T10:58:26Z</time>
      </trkpt>
      <trkpt lat="48.13796" lon="-3.79854">
        <ele>232.2</ele>
        <time>2022-12-08T10:58:27Z</time>
      </trkpt>
      <trkpt lat="48.13795" lon="-3.79845">
        <ele>232.2</ele>
        <time>2022-12-08T10:58:28Z</time>
      </trkpt>
      <trkpt lat="48.13793" lon="-3.79836">
        <ele>232.2</ele>
        <time>2022-12-08T10:58:29Z</time>
      </trkpt>
      <trkpt lat="48.13791" lon="-3.79828">
        <ele>232.2</ele>
        <time>2022-12-08T10:58:30Z</time>
      </trkpt>
      <trkpt lat="48.1379" lon="-3.79819">
        <ele>232.3</ele>
        <time>2022-12-08T10:58:31Z</time>
      </trkpt>
      <trkpt lat="48.13789" lon="-3.7981">
        <ele>232.3</ele>
        <time>2022-12-08T10:58:32Z</time>
      </trkpt>
      <trkpt lat="48.13787" lon="-3.79801">
        <ele>232.3</ele>
        <time>2022-12-08T10:58:33Z</time>
      </trkpt>
      <trkpt lat="48.13786" lon="-3.79793">
        <ele>232.3</ele>
        <time>2022-12-08T10:58:34Z</time>
      </trkpt>
      <trkpt lat="48.13785" lon="-3.79784">
        <ele>232.3</ele>
        <time>2022-12-08T10:58:35Z</time>
      </trkpt>
      <trkpt lat="48.13785" lon="-3.79775">
        <ele>232.3</ele>
        <time>2022-12-08T10:58:36Z</time>
      </trkpt>
      <trkpt lat="48.13784" lon="-3.79767">
        <ele>232.3</ele>
        <time>2022-12-08T10:58:37Z</time>
      </trkpt>
      <trkpt lat="48.13783" lon="-3.79758">
        <ele>232.3</ele>
        <time>2022-12-08T10:58:38Z</time>
      </trkpt>
      <trkpt lat="48.13782" lon="-3.79749">
        <ele>232.3</ele>
        <time>2022-12-08T10:58:39Z</time>
      </trkpt>
      <trkpt lat="48.13781" lon="-3.7974">
        <ele>232.3</ele>
        <time>2022-12-08T10:58:40Z</time>
      </trkpt>
      <trkpt lat="48.1378" lon="-3.79731">
        <ele>232.3</ele>
        <time>2022-12-08T10:58:41Z</time>
      </trkpt>
      <trkpt lat="48.1378" lon="-3.79723">
        <ele>232.2</ele>
        <time>2022-12-08T10:58:42Z</time>
      </trkpt>
      <trkpt lat="48.1378" lon="-3.79714">
        <ele>232.2</ele>
        <time>2022-12-08T10:58:43Z</time>
      </trkpt>
      <trkpt lat="48.13781" lon="-3.79705">
        <ele>232.2</ele>
        <time>2022-12-08T10:58:44Z</time>
      </trkpt>
      <trkpt lat="48.13781" lon="-3.79696">
        <ele>232.2</ele>
        <time>2022-12-08T10:58:45Z</time>
      </trkpt>
      <trkpt lat="48.13781" lon="-3.79687">
        <ele>232.2</ele>
        <time>2022-12-08T10:58:46Z</time>
      </trkpt>
      <trkpt lat="48.13781" lon="-3.79678">
        <ele>232.1</ele>
        <time>2022-12-08T10:58:47Z</time>
      </trkpt>
      <trkpt lat="48.13782" lon="-3.79669">
        <ele>232.1</ele>
        <time>2022-12-08T10:58:48Z</time>
      </trkpt>
      <trkpt lat="48.13783" lon="-3.7966">
        <ele>232.1</ele>
        <time>2022-12-08T10:58:49Z</time>
      </trkpt>
      <trkpt lat="48.13783" lon="-3.79651">
        <ele>232.1</ele>
        <time>2022-12-08T10:58:50Z</time>
      </trkpt>
      <trkpt lat="48.13784" lon="-3.79642">
        <ele>232</ele>
        <time>2022-12-08T10:58:51Z</time>
      </trkpt>
      <trkpt lat="48.13785" lon="-3.79633">
        <ele>232</ele>
        <time>2022-12-08T10:58:52Z</time>
      </trkpt>
      <trkpt lat="48.13786" lon="-3.79624">
        <ele>232</ele>
        <time>2022-12-08T10:58:53Z</time>
      </trkpt>
      <trkpt lat="48.13787" lon="-3.79614">
        <ele>232</ele>
        <time>2022-12-08T10:58:54Z</time>
      </trkpt>
      <trkpt lat="48.13789" lon="-3.79605">
        <ele>232</ele>
        <time>2022-12-08T10:58:55Z</time>
      </trkpt>
      <trkpt lat="48.1379" lon="-3.79596">
        <ele>232</ele>
        <time>2022-12-08T10:58:56Z</time>
      </trkpt>
      <trkpt lat="48.13792" lon="-3.79588">
        <ele>232</ele>
        <time>2022-12-08T10:58:57Z</time>
      </trkpt>
      <trkpt lat="48.13793" lon="-3.79579">
        <ele>232</ele>
        <time>2022-12-08T10:58:58Z</time>
      </trkpt>
      <trkpt lat="48.13795" lon="-3.7957">
        <ele>232</ele>
        <time>2022-12-08T10:58:59Z</time>
      </trkpt>
      <trkpt lat="48.13797" lon="-3.79561">
        <ele>232</ele>
        <time>2022-12-08T10:59:00Z</time>
      </trkpt>
      <trkpt lat="48.13798" lon="-3.79552">
        <ele>232</ele>
        <time>2022-12-08T10:59:01Z</time>
      </trkpt>
      <trkpt lat="48.138" lon="-3.79543">
        <ele>232</ele>
        <time>2022-12-08T10:59:02Z</time>
      </trkpt>
      <trkpt lat="48.13801" lon="-3.79534">
        <ele>232</ele>
        <time>2022-12-08T10:59:03Z</time>
      </trkpt>
      <trkpt lat="48.13803" lon="-3.79525">
        <ele>232</ele>
        <time>2022-12-08T10:59:04Z</time>
      </trkpt>
      <trkpt lat="48.13805" lon="-3.79516">
        <ele>232</ele>
        <time>2022-12-08T10:59:05Z</time>
      </trkpt>
      <trkpt lat="48.13806" lon="-3.79507">
        <ele>232</ele>
        <time>2022-12-08T10:59:06Z</time>
      </trkpt>
      <trkpt lat="48.13808" lon="-3.79499">
        <ele>232</ele>
        <time>2022-12-08T10:59:07Z</time>
      </trkpt>
      <trkpt lat="48.1381" lon="-3.7949">
        <ele>231.9</ele>
        <time>2022-12-08T10:59:08Z</time>
      </trkpt>
      <trkpt lat="48.13812" lon="-3.79481">
        <ele>231.9</ele>
        <time>2022-12-08T10:59:09Z</time>
      </trkpt>
      <trkpt lat="48.13814" lon="-3.79472">
        <ele>231.9</ele>
        <time>2022-12-08T10:59:10Z</time>
      </trkpt>
      <trkpt lat="48.13815" lon="-3.79464">
        <ele>231.9</ele>
        <time>2022-12-08T10:59:11Z</time>
      </trkpt>
      <trkpt lat="48.13817" lon="-3.79455">
        <ele>231.9</ele>
        <time>2022-12-08T10:59:12Z</time>
      </trkpt>
      <trkpt lat="48.13819" lon="-3.79446">
        <ele>231.9</ele>
        <time>2022-12-08T10:59:13Z</time>
      </trkpt>
      <trkpt lat="48.1382" lon="-3.79437">
        <ele>231.8</ele>
        <time>2022-12-08T10:59:14Z</time>
      </trkpt>
      <trkpt lat="48.13822" lon="-3.79429">
        <ele>231.8</ele>
        <time>2022-12-08T10:59:15Z</time>
      </trkpt>
      <trkpt lat="48.13823" lon="-3.7942">
        <ele>231.8</ele>
        <time>2022-12-08T10:59:16Z</time>
      </trkpt>
      <trkpt lat="48.13824" lon="-3.79411">
        <ele>231.8</ele>
        <time>2022-12-08T10:59:17Z</time>
      </trkpt>
      <trkpt lat="48.13826" lon="-3.79403">
        <ele>231.8</ele>
        <time>2022-12-08T10:59:18Z</time>
      </trkpt>
      <trkpt lat="48.13827" lon="-3.79394">
        <ele>231.8</ele>
        <time>2022-12-08T10:59:19Z</time>
      </trkpt>
      <trkpt lat="48.13828" lon="-3.79385">
        <ele>231.8</ele>
        <time>2022-12-08T10:59:20Z</time>
      </trkpt>
      <trkpt lat="48.13829" lon="-3.79376">
        <ele>231.8</ele>
        <time>2022-12-08T10:59:21Z</time>
      </trkpt>
      <trkpt lat="48.1383" lon="-3.79368">
        <ele>231.8</ele>
        <time>2022-12-08T10:59:22Z</time>
      </trkpt>
      <trkpt lat="48.13832" lon="-3.79359">
        <ele>231.9</ele>
        <time>2022-12-08T10:59:23Z</time>
      </trkpt>
      <trkpt lat="48.13833" lon="-3.7935">
        <ele>231.9</ele>
        <time>2022-12-08T10:59:24Z</time>
      </trkpt>
      <trkpt lat="48.13834" lon="-3.79341">
        <ele>231.9</ele>
        <time>2022-12-08T10:59:25Z</time>
      </trkpt>
      <trkpt lat="48.13835" lon="-3.79332">
        <ele>231.9</ele>
        <time>2022-12-08T10:59:26Z</time>
      </trkpt>
      <trkpt lat="48.13835" lon="-3.79323">
        <ele>231.9</ele>
        <time>2022-12-08T10:59:27Z</time>
      </trkpt>
      <trkpt lat="48.13836" lon="-3.79314">
        <ele>231.9</ele>
        <time>2022-12-08T10:59:28Z</time>
      </trkpt>
      <trkpt lat="48.13836" lon="-3.79305">
        <ele>231.9</ele>
        <time>2022-12-08T10:59:29Z</time>
      </trkpt>
      <trkpt lat="48.13836" lon="-3.79296">
        <ele>231.9</ele>
        <time>2022-12-08T10:59:30Z</time>
      </trkpt>
      <trkpt lat="48.13837" lon="-3.79287">
        <ele>232</ele>
        <time>2022-12-08T10:59:31Z</time>
      </trkpt>
      <trkpt lat="48.13837" lon="-3.79279">
        <ele>232</ele>
        <time>2022-12-08T10:59:32Z</time>
      </trkpt>
      <trkpt lat="48.13837" lon="-3.7927">
        <ele>232</ele>
        <time>2022-12-08T10:59:33Z</time>
      </trkpt>
      <trkpt lat="48.13837" lon="-3.79261">
        <ele>232</ele>
        <time>2022-12-08T10:59:34Z</time>
      </trkpt>
      <trkpt lat="48.13837" lon="-3.79253">
        <ele>232</ele>
        <time>2022-12-08T10:59:35Z</time>
      </trkpt>
      <trkpt lat="48.13838" lon="-3.79245">
        <ele>232</ele>
        <time>2022-12-08T10:59:36Z</time>
      </trkpt>
      <trkpt lat="48.13837" lon="-3.79236">
        <ele>232</ele>
        <time>2022-12-08T10:59:37Z</time>
      </trkpt>
      <trkpt lat="48.13838" lon="-3.79228">
        <ele>232</ele>
        <time>2022-12-08T10:59:38Z</time>
      </trkpt>
      <trkpt lat="48.13838" lon="-3.79219">
        <ele>232</ele>
        <time>2022-12-08T10:59:39Z</time>
      </trkpt>
      <trkpt lat="48.13838" lon="-3.7921">
        <ele>232</ele>
        <time>2022-12-08T10:59:40Z</time>
      </trkpt>
      <trkpt lat="48.13838" lon="-3.79201">
        <ele>232.1</ele>
        <time>2022-12-08T10:59:41Z</time>
      </trkpt>
      <trkpt lat="48.13839" lon="-3.79193">
        <ele>232.1</ele>
        <time>2022-12-08T10:59:42Z</time>
      </trkpt>
      <trkpt lat="48.13839" lon="-3.79184">
        <ele>232.1</ele>
        <time>2022-12-08T10:59:43Z</time>
      </trkpt>
      <trkpt lat="48.13839" lon="-3.79175">
        <ele>232.1</ele>
        <time>2022-12-08T10:59:44Z</time>
      </trkpt>
      <trkpt lat="48.13839" lon="-3.79167">
        <ele>232.2</ele>
        <time>2022-12-08T10:59:45Z</time>
      </trkpt>
      <trkpt lat="48.13839" lon="-3.79159">
        <ele>232.2</ele>
        <time>2022-12-08T10:59:46Z</time>
      </trkpt>
      <trkpt lat="48.13839" lon="-3.7915">
        <ele>232.3</ele>
        <time>2022-12-08T10:59:47Z</time>
      </trkpt>
      <trkpt lat="48.13839" lon="-3.79141">
        <ele>232.3</ele>
        <time>2022-12-08T10:59:48Z</time>
      </trkpt>
      <trkpt lat="48.13839" lon="-3.79133">
        <ele>232.3</ele>
        <time>2022-12-08T10:59:49Z</time>
      </trkpt>
      <trkpt lat="48.1384" lon="-3.79124">
        <ele>232.3</ele>
        <time>2022-12-08T10:59:50Z</time>
      </trkpt>
      <trkpt lat="48.1384" lon="-3.79115">
        <ele>232.3</ele>
        <time>2022-12-08T10:59:51Z</time>
      </trkpt>
      <trkpt lat="48.1384" lon="-3.79107">
        <ele>232.2</ele>
        <time>2022-12-08T10:59:52Z</time>
      </trkpt>
      <trkpt lat="48.1384" lon="-3.79098">
        <ele>232.2</ele>
        <time>2022-12-08T10:59:53Z</time>
      </trkpt>
      <trkpt lat="48.1384" lon="-3.79089">
        <ele>232.2</ele>
        <time>2022-12-08T10:59:54Z</time>
      </trkpt>
      <trkpt lat="48.13841" lon="-3.7908">
        <ele>232.1</ele>
        <time>2022-12-08T10:59:55Z</time>
      </trkpt>
      <trkpt lat="48.13841" lon="-3.79072">
        <ele>232.1</ele>
        <time>2022-12-08T10:59:56Z</time>
      </trkpt>
      <trkpt lat="48.13841" lon="-3.79063">
        <ele>232.2</ele>
        <time>2022-12-08T10:59:57Z</time>
      </trkpt>
      <trkpt lat="48.13841" lon="-3.79054">
        <ele>232.2</ele>
        <time>2022-12-08T10:59:58Z</time>
      </trkpt>
      <trkpt lat="48.13842" lon="-3.79045">
        <ele>232.2</ele>
        <time>2022-12-08T10:59:59Z</time>
      </trkpt>
      <trkpt lat="48.13842" lon="-3.79037">
        <ele>232.2</ele>
        <time>2022-12-08T11:00:00Z</time>
      </trkpt>
      <trkpt lat="48.13842" lon="-3.79028">
        <ele>232.2</ele>
        <time>2022-12-08T11:00:01Z</time>
      </trkpt>
      <trkpt lat="48.13842" lon="-3.79019">
        <ele>232.2</ele>
        <time>2022-12-08T11:00:02Z</time>
      </trkpt>
      <trkpt lat="48.13842" lon="-3.79011">
        <ele>232.2</ele>
        <time>2022-12-08T11:00:03Z</time>
      </trkpt>
      <trkpt lat="48.13843" lon="-3.79002">
        <ele>232.2</ele>
        <time>2022-12-08T11:00:04Z</time>
      </trkpt>
      <trkpt lat="48.13843" lon="-3.78993">
        <ele>232.2</ele>
        <time>2022-12-08T11:00:05Z</time>
      </trkpt>
      <trkpt lat="48.13843" lon="-3.78984">
        <ele>232.2</ele>
        <time>2022-12-08T11:00:06Z</time>
      </trkpt>
      <trkpt lat="48.13844" lon="-3.78976">
        <ele>232.2</ele>
        <time>2022-12-08T11:00:07Z</time>
      </trkpt>
      <trkpt lat="48.13844" lon="-3.78967">
        <ele>232.2</ele>
        <time>2022-12-08T11:00:08Z</time>
      </trkpt>
      <trkpt lat="48.13844" lon="-3.78957">
        <ele>232.1</ele>
        <time>2022-12-08T11:00:09Z</time>
      </trkpt>
      <trkpt lat="48.13844" lon="-3.78949">
        <ele>232.1</ele>
        <time>2022-12-08T11:00:10Z</time>
      </trkpt>
      <trkpt lat="48.13844" lon="-3.7894">
        <ele>232.1</ele>
        <time>2022-12-08T11:00:11Z</time>
      </trkpt>
      <trkpt lat="48.13845" lon="-3.78931">
        <ele>232</ele>
        <time>2022-12-08T11:00:12Z</time>
      </trkpt>
      <trkpt lat="48.13845" lon="-3.78921">
        <ele>232</ele>
        <time>2022-12-08T11:00:13Z</time>
      </trkpt>
      <trkpt lat="48.13845" lon="-3.78912">
        <ele>232</ele>
        <time>2022-12-08T11:00:14Z</time>
      </trkpt>
      <trkpt lat="48.13845" lon="-3.78903">
        <ele>231.9</ele>
        <time>2022-12-08T11:00:15Z</time>
      </trkpt>
      <trkpt lat="48.13845" lon="-3.78894">
        <ele>231.8</ele>
        <time>2022-12-08T11:00:16Z</time>
      </trkpt>
      <trkpt lat="48.13845" lon="-3.78884">
        <ele>231.7</ele>
        <time>2022-12-08T11:00:17Z</time>
      </trkpt>
      <trkpt lat="48.13845" lon="-3.78875">
        <ele>231.7</ele>
        <time>2022-12-08T11:00:18Z</time>
      </trkpt>
      <trkpt lat="48.13844" lon="-3.78865">
        <ele>231.6</ele>
        <time>2022-12-08T11:00:19Z</time>
      </trkpt>
      <trkpt lat="48.13844" lon="-3.78856">
        <ele>231.6</ele>
        <time>2022-12-08T11:00:20Z</time>
      </trkpt>
      <trkpt lat="48.13844" lon="-3.78846">
        <ele>231.5</ele>
        <time>2022-12-08T11:00:21Z</time>
      </trkpt>
      <trkpt lat="48.13843" lon="-3.78837">
        <ele>231.5</ele>
        <time>2022-12-08T11:00:22Z</time>
      </trkpt>
      <trkpt lat="48.13842" lon="-3.78827">
        <ele>231.4</ele>
        <time>2022-12-08T11:00:23Z</time>
      </trkpt>
      <trkpt lat="48.13841" lon="-3.78818">
        <ele>231.4</ele>
        <time>2022-12-08T11:00:24Z</time>
      </trkpt>
      <trkpt lat="48.1384" lon="-3.78809">
        <ele>231.4</ele>
        <time>2022-12-08T11:00:25Z</time>
      </trkpt>
      <trkpt lat="48.13839" lon="-3.78799">
        <ele>231.3</ele>
        <time>2022-12-08T11:00:26Z</time>
      </trkpt>
      <trkpt lat="48.13838" lon="-3.78789">
        <ele>231.3</ele>
        <time>2022-12-08T11:00:27Z</time>
      </trkpt>
      <trkpt lat="48.13837" lon="-3.7878">
        <ele>231.3</ele>
        <time>2022-12-08T11:00:28Z</time>
      </trkpt>
      <trkpt lat="48.13835" lon="-3.78771">
        <ele>231.2</ele>
        <time>2022-12-08T11:00:29Z</time>
      </trkpt>
      <trkpt lat="48.13833" lon="-3.78761">
        <ele>231.2</ele>
        <time>2022-12-08T11:00:30Z</time>
      </trkpt>
      <trkpt lat="48.13831" lon="-3.78752">
        <ele>231.2</ele>
        <time>2022-12-08T11:00:31Z</time>
      </trkpt>
      <trkpt lat="48.13829" lon="-3.78743">
        <ele>231.1</ele>
        <time>2022-12-08T11:00:32Z</time>
      </trkpt>
      <trkpt lat="48.13827" lon="-3.78733">
        <ele>231.1</ele>
        <time>2022-12-08T11:00:33Z</time>
      </trkpt>
      <trkpt lat="48.13825" lon="-3.78724">
        <ele>231</ele>
        <time>2022-12-08T11:00:34Z</time>
      </trkpt>
      <trkpt lat="48.13822" lon="-3.78715">
        <ele>231</ele>
        <time>2022-12-08T11:00:35Z</time>
      </trkpt>
      <trkpt lat="48.1382" lon="-3.78707">
        <ele>230.9</ele>
        <time>2022-12-08T11:00:36Z</time>
      </trkpt>
      <trkpt lat="48.13818" lon="-3.78698">
        <ele>230.8</ele>
        <time>2022-12-08T11:00:37Z</time>
      </trkpt>
      <trkpt lat="48.13815" lon="-3.7869">
        <ele>230.7</ele>
        <time>2022-12-08T11:00:38Z</time>
      </trkpt>
      <trkpt lat="48.13813" lon="-3.78681">
        <ele>230.6</ele>
        <time>2022-12-08T11:00:39Z</time>
      </trkpt>
      <trkpt lat="48.1381" lon="-3.78672">
        <ele>230.4</ele>
        <time>2022-12-08T11:00:40Z</time>
      </trkpt>
      <trkpt lat="48.13808" lon="-3.78664">
        <ele>230.3</ele>
        <time>2022-12-08T11:00:41Z</time>
      </trkpt>
      <trkpt lat="48.13804" lon="-3.78655">
        <ele>230.1</ele>
        <time>2022-12-08T11:00:42Z</time>
      </trkpt>
      <trkpt lat="48.13801" lon="-3.78646">
        <ele>229.9</ele>
        <time>2022-12-08T11:00:43Z</time>
      </trkpt>
      <trkpt lat="48.13798" lon="-3.78637">
        <ele>229.7</ele>
        <time>2022-12-08T11:00:44Z</time>
      </trkpt>
      <trkpt lat="48.13795" lon="-3.78627">
        <ele>229.5</ele>
        <time>2022-12-08T11:00:45Z</time>
      </trkpt>
      <trkpt lat="48.13792" lon="-3.78618">
        <ele>229.3</ele>
        <time>2022-12-08T11:00:46Z</time>
      </trkpt>
      <trkpt lat="48.13788" lon="-3.78609">
        <ele>229</ele>
        <time>2022-12-08T11:00:47Z</time>
      </trkpt>
      <trkpt lat="48.13785" lon="-3.78599">
        <ele>228.7</ele>
        <time>2022-12-08T11:00:48Z</time>
      </trkpt>
      <trkpt lat="48.13782" lon="-3.7859">
        <ele>228.5</ele>
        <time>2022-12-08T11:00:49Z</time>
      </trkpt>
      <trkpt lat="48.13779" lon="-3.7858">
        <ele>228.3</ele>
        <time>2022-12-08T11:00:50Z</time>
      </trkpt>
      <trkpt lat="48.13776" lon="-3.7857">
        <ele>228</ele>
        <time>2022-12-08T11:00:51Z</time>
      </trkpt>
      <trkpt lat="48.13773" lon="-3.7856">
        <ele>227.8</ele>
        <time>2022-12-08T11:00:52Z</time>
      </trkpt>
      <trkpt lat="48.1377" lon="-3.7855">
        <ele>227.5</ele>
        <time>2022-12-08T11:00:53Z</time>
      </trkpt>
      <trkpt lat="48.13767" lon="-3.7854">
        <ele>227.2</ele>
        <time>2022-12-08T11:00:54Z</time>
      </trkpt>
      <trkpt lat="48.13764" lon="-3.78529">
        <ele>227</ele>
        <time>2022-12-08T11:00:55Z</time>
      </trkpt>
      <trkpt lat="48.13762" lon="-3.78519">
        <ele>226.7</ele>
        <time>2022-12-08T11:00:56Z</time>
      </trkpt>
      <trkpt lat="48.1376" lon="-3.78508">
        <ele>226.5</ele>
        <time>2022-12-08T11:00:57Z</time>
      </trkpt>
      <trkpt lat="48.13759" lon="-3.78496">
        <ele>226.3</ele>
        <time>2022-12-08T11:00:58Z</time>
      </trkpt>
      <trkpt lat="48.13758" lon="-3.78485">
        <ele>226</ele>
        <time>2022-12-08T11:00:59Z</time>
      </trkpt>
      <trkpt lat="48.13757" lon="-3.78473">
        <ele>225.8</ele>
        <time>2022-12-08T11:01:00Z</time>
      </trkpt>
      <trkpt lat="48.13757" lon="-3.78461">
        <ele>225.6</ele>
        <time>2022-12-08T11:01:01Z</time>
      </trkpt>
      <trkpt lat="48.13758" lon="-3.7845">
        <ele>225.4</ele>
        <time>2022-12-08T11:01:02Z</time>
      </trkpt>
      <trkpt lat="48.13759" lon="-3.78438">
        <ele>225.2</ele>
        <time>2022-12-08T11:01:03Z</time>
      </trkpt>
      <trkpt lat="48.1376" lon="-3.78427">
        <ele>225.1</ele>
        <time>2022-12-08T11:01:04Z</time>
      </trkpt>
      <trkpt lat="48.13762" lon="-3.78415">
        <ele>225</ele>
        <time>2022-12-08T11:01:05Z</time>
      </trkpt>
      <trkpt lat="48.13764" lon="-3.78404">
        <ele>224.9</ele>
        <time>2022-12-08T11:01:06Z</time>
      </trkpt>
      <trkpt lat="48.13767" lon="-3.78394">
        <ele>224.8</ele>
        <time>2022-12-08T11:01:07Z</time>
      </trkpt>
      <trkpt lat="48.13769" lon="-3.78383">
        <ele>224.8</ele>
        <time>2022-12-08T11:01:08Z</time>
      </trkpt>
      <trkpt lat="48.13771" lon="-3.78373">
        <ele>224.7</ele>
        <time>2022-12-08T11:01:09Z</time>
      </trkpt>
      <trkpt lat="48.13774" lon="-3.78362">
        <ele>224.7</ele>
        <time>2022-12-08T11:01:10Z</time>
      </trkpt>
      <trkpt lat="48.13776" lon="-3.78351">
        <ele>224.8</ele>
        <time>2022-12-08T11:01:11Z</time>
      </trkpt>
      <trkpt lat="48.13778" lon="-3.78341">
        <ele>224.8</ele>
        <time>2022-12-08T11:01:12Z</time>
      </trkpt>
      <trkpt lat="48.13781" lon="-3.7833">
        <ele>224.8</ele>
        <time>2022-12-08T11:01:13Z</time>
      </trkpt>
      <trkpt lat="48.13783" lon="-3.7832">
        <ele>224.8</ele>
        <time>2022-12-08T11:01:14Z</time>
      </trkpt>
      <trkpt lat="48.13785" lon="-3.78309">
        <ele>224.8</ele>
        <time>2022-12-08T11:01:15Z</time>
      </trkpt>
      <trkpt lat="48.13787" lon="-3.78298">
        <ele>224.8</ele>
        <time>2022-12-08T11:01:16Z</time>
      </trkpt>
      <trkpt lat="48.13789" lon="-3.78288">
        <ele>224.9</ele>
        <time>2022-12-08T11:01:17Z</time>
      </trkpt>
      <trkpt lat="48.13792" lon="-3.78278">
        <ele>224.9</ele>
        <time>2022-12-08T11:01:18Z</time>
      </trkpt>
      <trkpt lat="48.13794" lon="-3.78268">
        <ele>225</ele>
        <time>2022-12-08T11:01:19Z</time>
      </trkpt>
      <trkpt lat="48.13796" lon="-3.78258">
        <ele>225</ele>
        <time>2022-12-08T11:01:20Z</time>
      </trkpt>
      <trkpt lat="48.13799" lon="-3.78249">
        <ele>225</ele>
        <time>2022-12-08T11:01:21Z</time>
      </trkpt>
      <trkpt lat="48.13801" lon="-3.78239">
        <ele>225</ele>
        <time>2022-12-08T11:01:22Z</time>
      </trkpt>
      <trkpt lat="48.13803" lon="-3.7823">
        <ele>225.1</ele>
        <time>2022-12-08T11:01:23Z</time>
      </trkpt>
      <trkpt lat="48.13806" lon="-3.78221">
        <ele>225.1</ele>
        <time>2022-12-08T11:01:24Z</time>
      </trkpt>
      <trkpt lat="48.13808" lon="-3.78212">
        <ele>225.1</ele>
        <time>2022-12-08T11:01:25Z</time>
      </trkpt>
      <trkpt lat="48.13811" lon="-3.78203">
        <ele>225.1</ele>
        <time>2022-12-08T11:01:26Z</time>
      </trkpt>
      <trkpt lat="48.13813" lon="-3.78194">
        <ele>225.1</ele>
        <time>2022-12-08T11:01:27Z</time>
      </trkpt>
      <trkpt lat="48.13816" lon="-3.78185">
        <ele>225.1</ele>
        <time>2022-12-08T11:01:28Z</time>
      </trkpt>
      <trkpt lat="48.13817" lon="-3.78176">
        <ele>225.1</ele>
        <time>2022-12-08T11:01:29Z</time>
      </trkpt>
      <trkpt lat="48.13819" lon="-3.78167">
        <ele>225.1</ele>
        <time>2022-12-08T11:01:30Z</time>
      </trkpt>
      <trkpt lat="48.13822" lon="-3.78158">
        <ele>225.2</ele>
        <time>2022-12-08T11:01:31Z</time>
      </trkpt>
      <trkpt lat="48.13824" lon="-3.78149">
        <ele>225.2</ele>
        <time>2022-12-08T11:01:32Z</time>
      </trkpt>
      <trkpt lat="48.13826" lon="-3.78141">
        <ele>225.3</ele>
        <time>2022-12-08T11:01:33Z</time>
      </trkpt>
      <trkpt lat="48.13828" lon="-3.78133">
        <ele>225.3</ele>
        <time>2022-12-08T11:01:34Z</time>
      </trkpt>
      <trkpt lat="48.13829" lon="-3.78124">
        <ele>225.3</ele>
        <time>2022-12-08T11:01:35Z</time>
      </trkpt>
      <trkpt lat="48.13831" lon="-3.78116">
        <ele>225.3</ele>
        <time>2022-12-08T11:01:36Z</time>
      </trkpt>
      <trkpt lat="48.13833" lon="-3.78107">
        <ele>225.3</ele>
        <time>2022-12-08T11:01:37Z</time>
      </trkpt>
      <trkpt lat="48.13835" lon="-3.78099">
        <ele>225.3</ele>
        <time>2022-12-08T11:01:38Z</time>
      </trkpt>
      <trkpt lat="48.13837" lon="-3.78091">
        <ele>225.4</ele>
        <time>2022-12-08T11:01:39Z</time>
      </trkpt>
      <trkpt lat="48.13839" lon="-3.78082">
        <ele>225.4</ele>
        <time>2022-12-08T11:01:40Z</time>
      </trkpt>
      <trkpt lat="48.13841" lon="-3.78074">
        <ele>225.5</ele>
        <time>2022-12-08T11:01:41Z</time>
      </trkpt>
      <trkpt lat="48.13843" lon="-3.78065">
        <ele>225.5</ele>
        <time>2022-12-08T11:01:42Z</time>
      </trkpt>
      <trkpt lat="48.13844" lon="-3.78056">
        <ele>225.5</ele>
        <time>2022-12-08T11:01:43Z</time>
      </trkpt>
      <trkpt lat="48.13845" lon="-3.78047">
        <ele>225.6</ele>
        <time>2022-12-08T11:01:44Z</time>
      </trkpt>
      <trkpt lat="48.13847" lon="-3.78038">
        <ele>225.6</ele>
        <time>2022-12-08T11:01:45Z</time>
      </trkpt>
      <trkpt lat="48.13848" lon="-3.78029">
        <ele>225.6</ele>
        <time>2022-12-08T11:01:46Z</time>
      </trkpt>
      <trkpt lat="48.1385" lon="-3.7802">
        <ele>225.6</ele>
        <time>2022-12-08T11:01:47Z</time>
      </trkpt>
      <trkpt lat="48.13851" lon="-3.78011">
        <ele>225.6</ele>
        <time>2022-12-08T11:01:48Z</time>
      </trkpt>
      <trkpt lat="48.13851" lon="-3.78001">
        <ele>225.6</ele>
        <time>2022-12-08T11:01:49Z</time>
      </trkpt>
      <trkpt lat="48.13852" lon="-3.77992">
        <ele>225.6</ele>
        <time>2022-12-08T11:01:50Z</time>
      </trkpt>
      <trkpt lat="48.13853" lon="-3.77983">
        <ele>225.6</ele>
        <time>2022-12-08T11:01:51Z</time>
      </trkpt>
      <trkpt lat="48.13854" lon="-3.77974">
        <ele>225.7</ele>
        <time>2022-12-08T11:01:52Z</time>
      </trkpt>
      <trkpt lat="48.13854" lon="-3.77965">
        <ele>225.7</ele>
        <time>2022-12-08T11:01:53Z</time>
      </trkpt>
      <trkpt lat="48.13855" lon="-3.77956">
        <ele>225.7</ele>
        <time>2022-12-08T11:01:54Z</time>
      </trkpt>
      <trkpt lat="48.13855" lon="-3.77947">
        <ele>225.7</ele>
        <time>2022-12-08T11:01:55Z</time>
      </trkpt>
      <trkpt lat="48.13856" lon="-3.77938">
        <ele>225.8</ele>
        <time>2022-12-08T11:01:56Z</time>
      </trkpt>
      <trkpt lat="48.13856" lon="-3.77929">
        <ele>225.8</ele>
        <time>2022-12-08T11:01:57Z</time>
      </trkpt>
      <trkpt lat="48.13857" lon="-3.7792">
        <ele>225.8</ele>
        <time>2022-12-08T11:01:58Z</time>
      </trkpt>
      <trkpt lat="48.13858" lon="-3.77912">
        <ele>225.8</ele>
        <time>2022-12-08T11:01:59Z</time>
      </trkpt>
      <trkpt lat="48.13858" lon="-3.77903">
        <ele>225.9</ele>
        <time>2022-12-08T11:02:00Z</time>
      </trkpt>
      <trkpt lat="48.13859" lon="-3.77895">
        <ele>225.9</ele>
        <time>2022-12-08T11:02:01Z</time>
      </trkpt>
      <trkpt lat="48.1386" lon="-3.77886">
        <ele>225.9</ele>
        <time>2022-12-08T11:02:02Z</time>
      </trkpt>
      <trkpt lat="48.1386" lon="-3.77878">
        <ele>226</ele>
        <time>2022-12-08T11:02:03Z</time>
      </trkpt>
      <trkpt lat="48.13861" lon="-3.77869">
        <ele>226</ele>
        <time>2022-12-08T11:02:04Z</time>
      </trkpt>
      <trkpt lat="48.13861" lon="-3.77861">
        <ele>226</ele>
        <time>2022-12-08T11:02:05Z</time>
      </trkpt>
      <trkpt lat="48.13861" lon="-3.77852">
        <ele>226.1</ele>
        <time>2022-12-08T11:02:06Z</time>
      </trkpt>
      <trkpt lat="48.13862" lon="-3.77844">
        <ele>226.1</ele>
        <time>2022-12-08T11:02:07Z</time>
      </trkpt>
      <trkpt lat="48.13862" lon="-3.77836">
        <ele>226.1</ele>
        <time>2022-12-08T11:02:08Z</time>
      </trkpt>
      <trkpt lat="48.13863" lon="-3.77827">
        <ele>226.2</ele>
        <time>2022-12-08T11:02:09Z</time>
      </trkpt>
      <trkpt lat="48.13863" lon="-3.77819">
        <ele>226.2</ele>
        <time>2022-12-08T11:02:10Z</time>
      </trkpt>
      <trkpt lat="48.13863" lon="-3.77812">
        <ele>226.3</ele>
        <time>2022-12-08T11:02:11Z</time>
      </trkpt>
      <trkpt lat="48.13864" lon="-3.77804">
        <ele>226.3</ele>
        <time>2022-12-08T11:02:12Z</time>
      </trkpt>
      <trkpt lat="48.13864" lon="-3.77796">
        <ele>226.4</ele>
        <time>2022-12-08T11:02:13Z</time>
      </trkpt>
      <trkpt lat="48.13865" lon="-3.77789">
        <ele>226.4</ele>
        <time>2022-12-08T11:02:14Z</time>
      </trkpt>
      <trkpt lat="48.13865" lon="-3.77781">
        <ele>226.5</ele>
        <time>2022-12-08T11:02:15Z</time>
      </trkpt>
      <trkpt lat="48.13866" lon="-3.77773">
        <ele>226.5</ele>
        <time>2022-12-08T11:02:16Z</time>
      </trkpt>
      <trkpt lat="48.13866" lon="-3.77766">
        <ele>226.6</ele>
        <time>2022-12-08T11:02:17Z</time>
      </trkpt>
      <trkpt lat="48.13866" lon="-3.77758">
        <ele>226.7</ele>
        <time>2022-12-08T11:02:18Z</time>
      </trkpt>
      <trkpt lat="48.13866" lon="-3.7775">
        <ele>226.7</ele>
        <time>2022-12-08T11:02:19Z</time>
      </trkpt>
      <trkpt lat="48.13866" lon="-3.77743">
        <ele>226.8</ele>
        <time>2022-12-08T11:02:20Z</time>
      </trkpt>
      <trkpt lat="48.13866" lon="-3.77735">
        <ele>226.9</ele>
        <time>2022-12-08T11:02:21Z</time>
      </trkpt>
      <trkpt lat="48.13867" lon="-3.77728">
        <ele>226.9</ele>
        <time>2022-12-08T11:02:22Z</time>
      </trkpt>
      <trkpt lat="48.13867" lon="-3.7772">
        <ele>227</ele>
        <time>2022-12-08T11:02:23Z</time>
      </trkpt>
      <trkpt lat="48.13867" lon="-3.77713">
        <ele>227.1</ele>
        <time>2022-12-08T11:02:24Z</time>
      </trkpt>
      <trkpt lat="48.13868" lon="-3.77705">
        <ele>227.2</ele>
        <time>2022-12-08T11:02:25Z</time>
      </trkpt>
      <trkpt lat="48.13868" lon="-3.77698">
        <ele>227.2</ele>
        <time>2022-12-08T11:02:26Z</time>
      </trkpt>
      <trkpt lat="48.13869" lon="-3.77691">
        <ele>227.3</ele>
        <time>2022-12-08T11:02:27Z</time>
      </trkpt>
      <trkpt lat="48.13869" lon="-3.77684">
        <ele>227.4</ele>
        <time>2022-12-08T11:02:28Z</time>
      </trkpt>
      <trkpt lat="48.13871" lon="-3.77678">
        <ele>227.4</ele>
        <time>2022-12-08T11:02:29Z</time>
      </trkpt>
      <trkpt lat="48.13872" lon="-3.77674">
        <ele>227.5</ele>
        <time>2022-12-08T11:02:30Z</time>
      </trkpt>
      <trkpt lat="48.13875" lon="-3.77671">
        <ele>227.5</ele>
        <time>2022-12-08T11:02:31Z</time>
      </trkpt>
      <trkpt lat="48.13876" lon="-3.77671">
        <ele>227.5</ele>
        <time>2022-12-08T11:02:32Z</time>
      </trkpt>
      <trkpt lat="48.13877" lon="-3.77671">
        <ele>227.6</ele>
        <time>2022-12-08T11:02:33Z</time>
      </trkpt>
      <trkpt lat="48.13878" lon="-3.7767">
        <ele>227.6</ele>
        <time>2022-12-08T11:02:34Z</time>
      </trkpt>
      <trkpt lat="48.13878" lon="-3.7767">
        <ele>227.6</ele>
        <time>2022-12-08T11:02:35Z</time>
      </trkpt>
      <trkpt lat="48.13878" lon="-3.7767">
        <ele>227.6</ele>
        <time>2022-12-08T11:02:36Z</time>
      </trkpt>
      <trkpt lat="48.13878" lon="-3.7767">
        <ele>227.6</ele>
        <time>2022-12-08T11:02:37Z</time>
      </trkpt>
      <trkpt lat="48.13878" lon="-3.7767">
        <ele>227.6</ele>
        <time>2022-12-08T11:02:38Z</time>
      </trkpt>
      <trkpt lat="48.13879" lon="-3.7767">
        <ele>227.6</ele>
        <time>2022-12-08T11:02:39Z</time>
      </trkpt>
      <trkpt lat="48.13879" lon="-3.7767">
        <ele>227.6</ele>
        <time>2022-12-08T11:02:40Z</time>
      </trkpt>
      <trkpt lat="48.13879" lon="-3.7767">
        <ele>227.6</ele>
        <time>2022-12-08T11:02:41Z</time>
      </trkpt>
      <trkpt lat="48.13879" lon="-3.77669">
        <ele>227.6</ele>
        <time>2022-12-08T11:02:42Z</time>
      </trkpt>
      <trkpt lat="48.13879" lon="-3.77669">
        <ele>227.6</ele>
        <time>2022-12-08T11:02:43Z</time>
      </trkpt>
      <trkpt lat="48.13879" lon="-3.77669">
        <ele>227.6</ele>
        <time>2022-12-08T11:02:44Z</time>
      </trkpt>
      <trkpt lat="48.13879" lon="-3.77669">
        <ele>227.6</ele>
        <time>2022-12-08T11:02:45Z</time>
      </trkpt>
      <trkpt lat="48.1388" lon="-3.7767">
        <ele>227.6</ele>
        <time>2022-12-08T11:02:46Z</time>
      </trkpt>
      <trkpt lat="48.1388" lon="-3.7767">
        <ele>227.6</ele>
        <time>2022-12-08T11:02:47Z</time>
      </trkpt>
      <trkpt lat="48.13881" lon="-3.7767">
        <ele>227.6</ele>
        <time>2022-12-08T11:02:48Z</time>
      </trkpt>
      <trkpt lat="48.13881" lon="-3.7767">
        <ele>227.6</ele>
        <time>2022-12-08T11:02:49Z</time>
      </trkpt>
      <trkpt lat="48.13881" lon="-3.7767">
        <ele>227.6</ele>
        <time>2022-12-08T11:02:50Z</time>
      </trkpt>
      <trkpt lat="48.13881" lon="-3.7767">
        <ele>227.6</ele>
        <time>2022-12-08T11:02:52Z</time>
      </trkpt>
      <trkpt lat="48.1388" lon="-3.77671">
        <ele>227.6</ele>
        <time>2022-12-08T11:02:53Z</time>
      </trkpt>
      <trkpt lat="48.1388" lon="-3.7767">
        <ele>227.6</ele>
        <time>2022-12-08T11:02:54Z</time>
      </trkpt>
      <trkpt lat="48.1388" lon="-3.7767">
        <ele>227.6</ele>
        <time>2022-12-08T11:02:55Z</time>
      </trkpt>
      <trkpt lat="48.1388" lon="-3.7767">
        <ele>227.6</ele>
        <time>2022-12-08T11:02:56Z</time>
      </trkpt>
      <trkpt lat="48.1388" lon="-3.7767">
        <ele>227.6</ele>
        <time>2022-12-08T11:02:57Z</time>
      </trkpt>
      <trkpt lat="48.1388" lon="-3.7767">
        <ele>227.6</ele>
        <time>2022-12-08T11:02:58Z</time>
      </trkpt>
      <trkpt lat="48.13881" lon="-3.77669">
        <ele>227.7</ele>
        <time>2022-12-08T11:03:03Z</time>
      </trkpt>
      <trkpt lat="48.13882" lon="-3.77669">
        <ele>227.7</ele>
        <time>2022-12-08T11:03:04Z</time>
      </trkpt>
      <trkpt lat="48.13883" lon="-3.77669">
        <ele>227.7</ele>
        <time>2022-12-08T11:03:05Z</time>
      </trkpt>
      <trkpt lat="48.13883" lon="-3.77669">
        <ele>227.7</ele>
        <time>2022-12-08T11:03:06Z</time>
      </trkpt>
      <trkpt lat="48.13883" lon="-3.77669">
        <ele>227.7</ele>
        <time>2022-12-08T11:03:07Z</time>
      </trkpt>
      <trkpt lat="48.13883" lon="-3.77669">
        <ele>227.7</ele>
        <time>2022-12-08T11:03:08Z</time>
      </trkpt>
      <trkpt lat="48.13884" lon="-3.77668">
        <ele>227.7</ele>
        <time>2022-12-08T11:03:09Z</time>
      </trkpt>
      <trkpt lat="48.13884" lon="-3.77668">
        <ele>227.7</ele>
        <time>2022-12-08T11:03:10Z</time>
      </trkpt>
      <trkpt lat="48.13884" lon="-3.77668">
        <ele>227.7</ele>
        <time>2022-12-08T11:03:11Z</time>
      </trkpt>
      <trkpt lat="48.13885" lon="-3.77668">
        <ele>227.7</ele>
        <time>2022-12-08T11:03:12Z</time>
      </trkpt>
      <trkpt lat="48.13885" lon="-3.77669">
        <ele>227.7</ele>
        <time>2022-12-08T11:03:13Z</time>
      </trkpt>
      <trkpt lat="48.13886" lon="-3.7767">
        <ele>227.7</ele>
        <time>2022-12-08T11:03:14Z</time>
      </trkpt>
      <trkpt lat="48.13885" lon="-3.7767">
        <ele>227.7</ele>
        <time>2022-12-08T11:03:15Z</time>
      </trkpt>
      <trkpt lat="48.13885" lon="-3.7767">
        <ele>227.7</ele>
        <time>2022-12-08T11:03:16Z</time>
      </trkpt>
      <trkpt lat="48.13886" lon="-3.7767">
        <ele>227.8</ele>
        <time>2022-12-08T11:03:17Z</time>
      </trkpt>
      <trkpt lat="48.13888" lon="-3.77671">
        <ele>227.8</ele>
        <time>2022-12-08T11:03:19Z</time>
      </trkpt>
      <trkpt lat="48.13891" lon="-3.77674">
        <ele>227.8</ele>
        <time>2022-12-08T11:03:20Z</time>
      </trkpt>
      <trkpt lat="48.13891" lon="-3.77675">
        <ele>227.9</ele>
        <time>2022-12-08T11:03:21Z</time>
      </trkpt>
      <trkpt lat="48.13894" lon="-3.77678">
        <ele>227.9</ele>
        <time>2022-12-08T11:03:22Z</time>
      </trkpt>
      <trkpt lat="48.13896" lon="-3.77679">
        <ele>227.9</ele>
        <time>2022-12-08T11:03:23Z</time>
      </trkpt>
      <trkpt lat="48.13898" lon="-3.77682">
        <ele>228</ele>
        <time>2022-12-08T11:03:24Z</time>
      </trkpt>
      <trkpt lat="48.13899" lon="-3.77683">
        <ele>228</ele>
        <time>2022-12-08T11:03:25Z</time>
      </trkpt>
      <trkpt lat="48.13902" lon="-3.77686">
        <ele>228.1</ele>
        <time>2022-12-08T11:03:27Z</time>
      </trkpt>
      <trkpt lat="48.13905" lon="-3.77689">
        <ele>228.1</ele>
        <time>2022-12-08T11:03:28Z</time>
      </trkpt>
      <trkpt lat="48.13907" lon="-3.77692">
        <ele>228.2</ele>
        <time>2022-12-08T11:03:29Z</time>
      </trkpt>
      <trkpt lat="48.13908" lon="-3.77696">
        <ele>228.2</ele>
        <time>2022-12-08T11:03:31Z</time>
      </trkpt>
      <trkpt lat="48.13911" lon="-3.77701">
        <ele>228.3</ele>
        <time>2022-12-08T11:03:32Z</time>
      </trkpt>
      <trkpt lat="48.13912" lon="-3.77702">
        <ele>228.3</ele>
        <time>2022-12-08T11:03:33Z</time>
      </trkpt>
      <trkpt lat="48.13914" lon="-3.77704">
        <ele>228.3</ele>
        <time>2022-12-08T11:03:34Z</time>
      </trkpt>
      <trkpt lat="48.13918" lon="-3.77704">
        <ele>228.4</ele>
        <time>2022-12-08T11:03:36Z</time>
      </trkpt>
      <trkpt lat="48.13919" lon="-3.77704">
        <ele>228.4</ele>
        <time>2022-12-08T11:03:37Z</time>
      </trkpt>
      <trkpt lat="48.13919" lon="-3.77704">
        <ele>228.4</ele>
        <time>2022-12-08T11:03:38Z</time>
      </trkpt>
      <trkpt lat="48.13919" lon="-3.77704">
        <ele>228.4</ele>
        <time>2022-12-08T11:03:39Z</time>
      </trkpt>
      <trkpt lat="48.13919" lon="-3.77705">
        <ele>228.4</ele>
        <time>2022-12-08T11:03:41Z</time>
      </trkpt>
      <trkpt lat="48.13918" lon="-3.77706">
        <ele>228.4</ele>
        <time>2022-12-08T11:03:42Z</time>
      </trkpt>
      <trkpt lat="48.13918" lon="-3.77706">
        <ele>228.4</ele>
        <time>2022-12-08T11:03:43Z</time>
      </trkpt>
      <trkpt lat="48.13918" lon="-3.77706">
        <ele>228.4</ele>
        <time>2022-12-08T11:03:44Z</time>
      </trkpt>
      <trkpt lat="48.13918" lon="-3.77706">
        <ele>228.4</ele>
        <time>2022-12-08T11:03:46Z</time>
      </trkpt>
      <trkpt lat="48.13918" lon="-3.77706">
        <ele>228.4</ele>
        <time>2022-12-08T11:03:47Z</time>
      </trkpt>
      <trkpt lat="48.13917" lon="-3.77706">
        <ele>228.4</ele>
        <time>2022-12-08T11:03:48Z</time>
      </trkpt>
      <trkpt lat="48.13916" lon="-3.77706">
        <ele>228.4</ele>
        <time>2022-12-08T11:03:49Z</time>
      </trkpt>
      <trkpt lat="48.13914" lon="-3.77707">
        <ele>228.5</ele>
        <time>2022-12-08T11:03:51Z</time>
      </trkpt>
      <trkpt lat="48.13913" lon="-3.77707">
        <ele>228.5</ele>
        <time>2022-12-08T11:03:52Z</time>
      </trkpt>
      <trkpt lat="48.13912" lon="-3.77707">
        <ele>228.5</ele>
        <time>2022-12-08T11:03:53Z</time>
      </trkpt>
      <trkpt lat="48.13911" lon="-3.77707">
        <ele>228.5</ele>
        <time>2022-12-08T11:03:54Z</time>
      </trkpt>
      <trkpt lat="48.1391" lon="-3.77708">
        <ele>228.5</ele>
        <time>2022-12-08T11:03:55Z</time>
      </trkpt>
      <trkpt lat="48.1391" lon="-3.77708">
        <ele>228.5</ele>
        <time>2022-12-08T11:03:56Z</time>
      </trkpt>
      <trkpt lat="48.13909" lon="-3.77709">
        <ele>228.6</ele>
        <time>2022-12-08T11:03:57Z</time>
      </trkpt>
      <trkpt lat="48.13909" lon="-3.7771">
        <ele>228.6</ele>
        <time>2022-12-08T11:03:58Z</time>
      </trkpt>
      <trkpt lat="48.13908" lon="-3.77713">
        <ele>228.6</ele>
        <time>2022-12-08T11:04:00Z</time>
      </trkpt>
      <trkpt lat="48.13908" lon="-3.77713">
        <ele>228.6</ele>
        <time>2022-12-08T11:04:01Z</time>
      </trkpt>
      <trkpt lat="48.13909" lon="-3.77712">
        <ele>228.6</ele>
        <time>2022-12-08T11:04:02Z</time>
      </trkpt>
      <trkpt lat="48.13909" lon="-3.77712">
        <ele>228.6</ele>
        <time>2022-12-08T11:04:03Z</time>
      </trkpt>
      <trkpt lat="48.1391" lon="-3.77711">
        <ele>228.6</ele>
        <time>2022-12-08T11:04:05Z</time>
      </trkpt>
      <trkpt lat="48.13911" lon="-3.77711">
        <ele>228.6</ele>
        <time>2022-12-08T11:04:06Z</time>
      </trkpt>
      <trkpt lat="48.13911" lon="-3.7771">
        <ele>228.6</ele>
        <time>2022-12-08T11:04:07Z</time>
      </trkpt>
      <trkpt lat="48.13912" lon="-3.77709">
        <ele>228.7</ele>
        <time>2022-12-08T11:04:08Z</time>
      </trkpt>
      <trkpt lat="48.13913" lon="-3.77708">
        <ele>228.7</ele>
        <time>2022-12-08T11:04:09Z</time>
      </trkpt>
      <trkpt lat="48.13913" lon="-3.77708">
        <ele>228.7</ele>
        <time>2022-12-08T11:04:10Z</time>
      </trkpt>
      <trkpt lat="48.13914" lon="-3.77708">
        <ele>228.7</ele>
        <time>2022-12-08T11:04:11Z</time>
      </trkpt>
      <trkpt lat="48.13914" lon="-3.77708">
        <ele>228.7</ele>
        <time>2022-12-08T11:04:12Z</time>
      </trkpt>
      <trkpt lat="48.13914" lon="-3.77708">
        <ele>228.7</ele>
        <time>2022-12-08T11:04:13Z</time>
      </trkpt>
      <trkpt lat="48.13914" lon="-3.77709">
        <ele>228.7</ele>
        <time>2022-12-08T11:04:14Z</time>
      </trkpt>
      <trkpt lat="48.13915" lon="-3.77707">
        <ele>228.7</ele>
        <time>2022-12-08T11:04:16Z</time>
      </trkpt>
      <trkpt lat="48.13916" lon="-3.77706">
        <ele>228.7</ele>
        <time>2022-12-08T11:04:18Z</time>
      </trkpt>
      <trkpt lat="48.13916" lon="-3.77705">
        <ele>228.7</ele>
        <time>2022-12-08T11:04:19Z</time>
      </trkpt>
      <trkpt lat="48.13917" lon="-3.77705">
        <ele>228.7</ele>
        <time>2022-12-08T11:04:20Z</time>
      </trkpt>
      <trkpt lat="48.13917" lon="-3.77704">
        <ele>228.8</ele>
        <time>2022-12-08T11:04:21Z</time>
      </trkpt>
      <trkpt lat="48.13918" lon="-3.77704">
        <ele>228.8</ele>
        <time>2022-12-08T11:04:22Z</time>
      </trkpt>
      <trkpt lat="48.13918" lon="-3.77704">
        <ele>228.8</ele>
        <time>2022-12-08T11:04:23Z</time>
      </trkpt>
      <trkpt lat="48.13918" lon="-3.77704">
        <ele>228.8</ele>
        <time>2022-12-08T11:04:24Z</time>
      </trkpt>
      <trkpt lat="48.13918" lon="-3.77704">
        <ele>228.8</ele>
        <time>2022-12-08T11:04:25Z</time>
      </trkpt>
      <trkpt lat="48.13918" lon="-3.77704">
        <ele>228.8</ele>
        <time>2022-12-08T11:04:26Z</time>
      </trkpt>
      <trkpt lat="48.13918" lon="-3.77704">
        <ele>228.8</ele>
        <time>2022-12-08T11:04:27Z</time>
      </trkpt>
      <trkpt lat="48.13918" lon="-3.77704">
        <ele>228.8</ele>
        <time>2022-12-08T11:04:28Z</time>
      </trkpt>
      <trkpt lat="48.13918" lon="-3.77704">
        <ele>228.8</ele>
        <time>2022-12-08T11:04:29Z</time>
      </trkpt>
      <trkpt lat="48.13918" lon="-3.77704">
        <ele>228.8</ele>
        <time>2022-12-08T11:04:30Z</time>
      </trkpt>
      <trkpt lat="48.13918" lon="-3.77704">
        <ele>228.8</ele>
        <time>2022-12-08T11:04:31Z</time>
      </trkpt>
      <trkpt lat="48.13918" lon="-3.77704">
        <ele>228.8</ele>
        <time>2022-12-08T11:04:32Z</time>
      </trkpt>
      <trkpt lat="48.13918" lon="-3.77704">
        <ele>228.8</ele>
        <time>2022-12-08T11:04:33Z</time>
      </trkpt>
      <trkpt lat="48.13918" lon="-3.77704">
        <ele>228.8</ele>
        <time>2022-12-08T11:04:34Z</time>
      </trkpt>
      <trkpt lat="48.13918" lon="-3.77704">
        <ele>228.8</ele>
        <time>2022-12-08T11:04:35Z</time>
      </trkpt>
      <trkpt lat="48.13918" lon="-3.77704">
        <ele>228.8</ele>
        <time>2022-12-08T11:04:36Z</time>
      </trkpt>
      <trkpt lat="48.13917" lon="-3.77704">
        <ele>228.8</ele>
        <time>2022-12-08T11:04:37Z</time>
      </trkpt>
      <trkpt lat="48.13917" lon="-3.77704">
        <ele>228.8</ele>
        <time>2022-12-08T11:04:38Z</time>
      </trkpt>
      <trkpt lat="48.13917" lon="-3.77704">
        <ele>228.8</ele>
        <time>2022-12-08T11:04:39Z</time>
      </trkpt>
      <trkpt lat="48.13917" lon="-3.77704">
        <ele>228.8</ele>
        <time>2022-12-08T11:04:40Z</time>
      </trkpt>
      <trkpt lat="48.13917" lon="-3.77704">
        <ele>228.8</ele>
        <time>2022-12-08T11:04:41Z</time>
      </trkpt>
      <trkpt lat="48.13917" lon="-3.77704">
        <ele>228.8</ele>
        <time>2022-12-08T11:04:42Z</time>
      </trkpt>
      <trkpt lat="48.13917" lon="-3.77704">
        <ele>228.8</ele>
        <time>2022-12-08T11:04:43Z</time>
      </trkpt>
      <trkpt lat="48.13917" lon="-3.77704">
        <ele>228.8</ele>
        <time>2022-12-08T11:04:44Z</time>
      </trkpt>
      <trkpt lat="48.13917" lon="-3.77704">
        <ele>228.8</ele>
        <time>2022-12-08T11:04:45Z</time>
      </trkpt>
      <trkpt lat="48.13913" lon="-3.77702">
        <ele>228.9</ele>
        <time>2022-12-08T11:04:53Z</time>
      </trkpt>
      <trkpt lat="48.13914" lon="-3.77702">
        <ele>228.9</ele>
        <time>2022-12-08T11:04:54Z</time>
      </trkpt>
      <trkpt lat="48.1391" lon="-3.77698">
        <ele>228.9</ele>
        <time>2022-12-08T11:04:56Z</time>
      </trkpt>
      <trkpt lat="48.13908" lon="-3.77695">
        <ele>229</ele>
        <time>2022-12-08T11:04:57Z</time>
      </trkpt>
      <trkpt lat="48.13907" lon="-3.77691">
        <ele>229</ele>
        <time>2022-12-08T11:04:58Z</time>
      </trkpt>
      <trkpt lat="48.13904" lon="-3.77686">
        <ele>229.1</ele>
        <time>2022-12-08T11:05:00Z</time>
      </trkpt>
      <trkpt lat="48.13901" lon="-3.77683">
        <ele>229.1</ele>
        <time>2022-12-08T11:05:01Z</time>
      </trkpt>
      <trkpt lat="48.139" lon="-3.77683">
        <ele>229.1</ele>
        <time>2022-12-08T11:05:02Z</time>
      </trkpt>
      <trkpt lat="48.13898" lon="-3.7768">
        <ele>229.2</ele>
        <time>2022-12-08T11:05:03Z</time>
      </trkpt>
      <trkpt lat="48.13895" lon="-3.77677">
        <ele>229.2</ele>
        <time>2022-12-08T11:05:04Z</time>
      </trkpt>
      <trkpt lat="48.13894" lon="-3.77676">
        <ele>229.2</ele>
        <time>2022-12-08T11:05:05Z</time>
      </trkpt>
      <trkpt lat="48.13891" lon="-3.77674">
        <ele>229.3</ele>
        <time>2022-12-08T11:05:06Z</time>
      </trkpt>
      <trkpt lat="48.1389" lon="-3.77673">
        <ele>229.3</ele>
        <time>2022-12-08T11:05:07Z</time>
      </trkpt>
      <trkpt lat="48.13887" lon="-3.7767">
        <ele>229.3</ele>
        <time>2022-12-08T11:05:08Z</time>
      </trkpt>
      <trkpt lat="48.13886" lon="-3.77669">
        <ele>229.4</ele>
        <time>2022-12-08T11:05:09Z</time>
      </trkpt>
      <trkpt lat="48.13885" lon="-3.77668">
        <ele>229.4</ele>
        <time>2022-12-08T11:05:10Z</time>
      </trkpt>
      <trkpt lat="48.13883" lon="-3.77668">
        <ele>229.4</ele>
        <time>2022-12-08T11:05:11Z</time>
      </trkpt>
      <trkpt lat="48.13883" lon="-3.77668">
        <ele>229.4</ele>
        <time>2022-12-08T11:05:12Z</time>
      </trkpt>
      <trkpt lat="48.13884" lon="-3.77668">
        <ele>229.4</ele>
        <time>2022-12-08T11:05:13Z</time>
      </trkpt>
      <trkpt lat="48.13884" lon="-3.77668">
        <ele>229.4</ele>
        <time>2022-12-08T11:05:14Z</time>
      </trkpt>
      <trkpt lat="48.13884" lon="-3.77667">
        <ele>229.4</ele>
        <time>2022-12-08T11:05:15Z</time>
      </trkpt>
      <trkpt lat="48.13884" lon="-3.77667">
        <ele>229.4</ele>
        <time>2022-12-08T11:05:16Z</time>
      </trkpt>
      <trkpt lat="48.13883" lon="-3.77667">
        <ele>229.5</ele>
        <time>2022-12-08T11:05:17Z</time>
      </trkpt>
      <trkpt lat="48.13883" lon="-3.77667">
        <ele>229.5</ele>
        <time>2022-12-08T11:05:18Z</time>
      </trkpt>
      <trkpt lat="48.13882" lon="-3.77667">
        <ele>229.5</ele>
        <time>2022-12-08T11:05:19Z</time>
      </trkpt>
      <trkpt lat="48.13882" lon="-3.77667">
        <ele>229.5</ele>
        <time>2022-12-08T11:05:20Z</time>
      </trkpt>
      <trkpt lat="48.13882" lon="-3.77667">
        <ele>229.5</ele>
        <time>2022-12-08T11:05:21Z</time>
      </trkpt>
      <trkpt lat="48.13881" lon="-3.77667">
        <ele>229.5</ele>
        <time>2022-12-08T11:05:22Z</time>
      </trkpt>
      <trkpt lat="48.13881" lon="-3.77667">
        <ele>229.5</ele>
        <time>2022-12-08T11:05:23Z</time>
      </trkpt>
      <trkpt lat="48.13881" lon="-3.77668">
        <ele>229.5</ele>
        <time>2022-12-08T11:05:24Z</time>
      </trkpt>
      <trkpt lat="48.1388" lon="-3.77668">
        <ele>229.5</ele>
        <time>2022-12-08T11:05:25Z</time>
      </trkpt>
      <trkpt lat="48.1388" lon="-3.77668">
        <ele>229.5</ele>
        <time>2022-12-08T11:05:26Z</time>
      </trkpt>
      <trkpt lat="48.1388" lon="-3.77668">
        <ele>229.5</ele>
        <time>2022-12-08T11:05:27Z</time>
      </trkpt>
      <trkpt lat="48.13879" lon="-3.77668">
        <ele>229.5</ele>
        <time>2022-12-08T11:05:28Z</time>
      </trkpt>
      <trkpt lat="48.13878" lon="-3.77667">
        <ele>229.5</ele>
        <time>2022-12-08T11:05:29Z</time>
      </trkpt>
      <trkpt lat="48.13877" lon="-3.77667">
        <ele>229.5</ele>
        <time>2022-12-08T11:05:30Z</time>
      </trkpt>
      <trkpt lat="48.13876" lon="-3.77667">
        <ele>229.5</ele>
        <time>2022-12-08T11:05:31Z</time>
      </trkpt>
      <trkpt lat="48.13874" lon="-3.77665">
        <ele>229.5</ele>
        <time>2022-12-08T11:05:33Z</time>
      </trkpt>
      <trkpt lat="48.13873" lon="-3.77665">
        <ele>229.6</ele>
        <time>2022-12-08T11:05:34Z</time>
      </trkpt>
      <trkpt lat="48.13873" lon="-3.77663">
        <ele>229.6</ele>
        <time>2022-12-08T11:05:35Z</time>
      </trkpt>
      <trkpt lat="48.13873" lon="-3.77662">
        <ele>229.6</ele>
        <time>2022-12-08T11:05:36Z</time>
      </trkpt>
      <trkpt lat="48.13873" lon="-3.77658">
        <ele>229.6</ele>
        <time>2022-12-08T11:05:38Z</time>
      </trkpt>
      <trkpt lat="48.13874" lon="-3.77653">
        <ele>229.6</ele>
        <time>2022-12-08T11:05:39Z</time>
      </trkpt>
      <trkpt lat="48.13874" lon="-3.77646">
        <ele>229.7</ele>
        <time>2022-12-08T11:05:40Z</time>
      </trkpt>
      <trkpt lat="48.13873" lon="-3.77641">
        <ele>229.7</ele>
        <time>2022-12-08T11:05:41Z</time>
      </trkpt>
      <trkpt lat="48.13872" lon="-3.77636">
        <ele>229.7</ele>
        <time>2022-12-08T11:05:42Z</time>
      </trkpt>
      <trkpt lat="48.13871" lon="-3.77625">
        <ele>229.8</ele>
        <time>2022-12-08T11:05:44Z</time>
      </trkpt>
      <trkpt lat="48.13872" lon="-3.77619">
        <ele>229.8</ele>
        <time>2022-12-08T11:05:45Z</time>
      </trkpt>
      <trkpt lat="48.13872" lon="-3.77615">
        <ele>229.8</ele>
        <time>2022-12-08T11:05:46Z</time>
      </trkpt>
      <trkpt lat="48.13872" lon="-3.77609">
        <ele>229.8</ele>
        <time>2022-12-08T11:05:47Z</time>
      </trkpt>
      <trkpt lat="48.13873" lon="-3.77604">
        <ele>229.8</ele>
        <time>2022-12-08T11:05:48Z</time>
      </trkpt>
      <trkpt lat="48.13873" lon="-3.77599">
        <ele>229.8</ele>
        <time>2022-12-08T11:05:49Z</time>
      </trkpt>
      <trkpt lat="48.13873" lon="-3.77594">
        <ele>229.9</ele>
        <time>2022-12-08T11:05:50Z</time>
      </trkpt>
      <trkpt lat="48.13872" lon="-3.77589">
        <ele>229.9</ele>
        <time>2022-12-08T11:05:51Z</time>
      </trkpt>
      <trkpt lat="48.13871" lon="-3.77582">
        <ele>229.9</ele>
        <time>2022-12-08T11:05:52Z</time>
      </trkpt>
      <trkpt lat="48.13871" lon="-3.77579">
        <ele>229.9</ele>
        <time>2022-12-08T11:05:53Z</time>
      </trkpt>
      <trkpt lat="48.1387" lon="-3.77574">
        <ele>229.9</ele>
        <time>2022-12-08T11:05:54Z</time>
      </trkpt>
      <trkpt lat="48.13869" lon="-3.77566">
        <ele>229.9</ele>
        <time>2022-12-08T11:05:56Z</time>
      </trkpt>
      <trkpt lat="48.13868" lon="-3.77561">
        <ele>230</ele>
        <time>2022-12-08T11:05:57Z</time>
      </trkpt>
      <trkpt lat="48.13868" lon="-3.77555">
        <ele>230</ele>
        <time>2022-12-08T11:05:58Z</time>
      </trkpt>
      <trkpt lat="48.13868" lon="-3.77549">
        <ele>230</ele>
        <time>2022-12-08T11:05:59Z</time>
      </trkpt>
      <trkpt lat="48.13868" lon="-3.77541">
        <ele>230</ele>
        <time>2022-12-08T11:06:01Z</time>
      </trkpt>
      <trkpt lat="48.13869" lon="-3.77531">
        <ele>230</ele>
        <time>2022-12-08T11:06:02Z</time>
      </trkpt>
      <trkpt lat="48.13874" lon="-3.7752">
        <ele>230.1</ele>
        <time>2022-12-08T11:06:03Z</time>
      </trkpt>
      <trkpt lat="48.13875" lon="-3.77511">
        <ele>230.1</ele>
        <time>2022-12-08T11:06:04Z</time>
      </trkpt>
      <trkpt lat="48.13876" lon="-3.77504">
        <ele>230.1</ele>
        <time>2022-12-08T11:06:05Z</time>
      </trkpt>
      <trkpt lat="48.13877" lon="-3.77496">
        <ele>230.1</ele>
        <time>2022-12-08T11:06:06Z</time>
      </trkpt>
      <trkpt lat="48.13877" lon="-3.77489">
        <ele>230.1</ele>
        <time>2022-12-08T11:06:07Z</time>
      </trkpt>
      <trkpt lat="48.13877" lon="-3.77481">
        <ele>230.1</ele>
        <time>2022-12-08T11:06:08Z</time>
      </trkpt>
      <trkpt lat="48.13878" lon="-3.77474">
        <ele>230.2</ele>
        <time>2022-12-08T11:06:09Z</time>
      </trkpt>
      <trkpt lat="48.13878" lon="-3.77466">
        <ele>230.2</ele>
        <time>2022-12-08T11:06:10Z</time>
      </trkpt>
      <trkpt lat="48.13878" lon="-3.77459">
        <ele>230.2</ele>
        <time>2022-12-08T11:06:11Z</time>
      </trkpt>
      <trkpt lat="48.13878" lon="-3.77452">
        <ele>230.2</ele>
        <time>2022-12-08T11:06:12Z</time>
      </trkpt>
      <trkpt lat="48.13878" lon="-3.77444">
        <ele>230.2</ele>
        <time>2022-12-08T11:06:13Z</time>
      </trkpt>
      <trkpt lat="48.13878" lon="-3.77437">
        <ele>230.2</ele>
        <time>2022-12-08T11:06:14Z</time>
      </trkpt>
      <trkpt lat="48.13879" lon="-3.77429">
        <ele>230.2</ele>
        <time>2022-12-08T11:06:15Z</time>
      </trkpt>
      <trkpt lat="48.13879" lon="-3.77422">
        <ele>230.2</ele>
        <time>2022-12-08T11:06:16Z</time>
      </trkpt>
      <trkpt lat="48.1388" lon="-3.77415">
        <ele>230.2</ele>
        <time>2022-12-08T11:06:17Z</time>
      </trkpt>
      <trkpt lat="48.1388" lon="-3.77407">
        <ele>230.2</ele>
        <time>2022-12-08T11:06:18Z</time>
      </trkpt>
      <trkpt lat="48.1388" lon="-3.774">
        <ele>230.2</ele>
        <time>2022-12-08T11:06:19Z</time>
      </trkpt>
      <trkpt lat="48.1388" lon="-3.77392">
        <ele>230.2</ele>
        <time>2022-12-08T11:06:20Z</time>
      </trkpt>
      <trkpt lat="48.1388" lon="-3.77384">
        <ele>230.2</ele>
        <time>2022-12-08T11:06:21Z</time>
      </trkpt>
      <trkpt lat="48.1388" lon="-3.77377">
        <ele>230.2</ele>
        <time>2022-12-08T11:06:22Z</time>
      </trkpt>
      <trkpt lat="48.1388" lon="-3.77369">
        <ele>230.2</ele>
        <time>2022-12-08T11:06:23Z</time>
      </trkpt>
      <trkpt lat="48.1388" lon="-3.77361">
        <ele>230.2</ele>
        <time>2022-12-08T11:06:24Z</time>
      </trkpt>
      <trkpt lat="48.1388" lon="-3.77353">
        <ele>230.2</ele>
        <time>2022-12-08T11:06:25Z</time>
      </trkpt>
      <trkpt lat="48.1388" lon="-3.77345">
        <ele>230.2</ele>
        <time>2022-12-08T11:06:26Z</time>
      </trkpt>
      <trkpt lat="48.13881" lon="-3.77337">
        <ele>230.2</ele>
        <time>2022-12-08T11:06:27Z</time>
      </trkpt>
      <trkpt lat="48.13881" lon="-3.77329">
        <ele>230.2</ele>
        <time>2022-12-08T11:06:28Z</time>
      </trkpt>
      <trkpt lat="48.13882" lon="-3.77321">
        <ele>230.2</ele>
        <time>2022-12-08T11:06:29Z</time>
      </trkpt>
      <trkpt lat="48.13882" lon="-3.77313">
        <ele>230.2</ele>
        <time>2022-12-08T11:06:30Z</time>
      </trkpt>
      <trkpt lat="48.13883" lon="-3.77305">
        <ele>230.2</ele>
        <time>2022-12-08T11:06:31Z</time>
      </trkpt>
      <trkpt lat="48.13884" lon="-3.77296">
        <ele>230.2</ele>
        <time>2022-12-08T11:06:32Z</time>
      </trkpt>
      <trkpt lat="48.13885" lon="-3.77288">
        <ele>230.2</ele>
        <time>2022-12-08T11:06:33Z</time>
      </trkpt>
      <trkpt lat="48.13885" lon="-3.7728">
        <ele>230.2</ele>
        <time>2022-12-08T11:06:34Z</time>
      </trkpt>
      <trkpt lat="48.13886" lon="-3.77271">
        <ele>230.1</ele>
        <time>2022-12-08T11:06:35Z</time>
      </trkpt>
      <trkpt lat="48.13888" lon="-3.77263">
        <ele>230.1</ele>
        <time>2022-12-08T11:06:36Z</time>
      </trkpt>
      <trkpt lat="48.13889" lon="-3.77254">
        <ele>230</ele>
        <time>2022-12-08T11:06:37Z</time>
      </trkpt>
      <trkpt lat="48.1389" lon="-3.77245">
        <ele>230</ele>
        <time>2022-12-08T11:06:38Z</time>
      </trkpt>
      <trkpt lat="48.13892" lon="-3.77237">
        <ele>229.9</ele>
        <time>2022-12-08T11:06:39Z</time>
      </trkpt>
      <trkpt lat="48.13893" lon="-3.77228">
        <ele>229.8</ele>
        <time>2022-12-08T11:06:40Z</time>
      </trkpt>
      <trkpt lat="48.13895" lon="-3.7722">
        <ele>229.7</ele>
        <time>2022-12-08T11:06:41Z</time>
      </trkpt>
      <trkpt lat="48.13897" lon="-3.77211">
        <ele>229.6</ele>
        <time>2022-12-08T11:06:42Z</time>
      </trkpt>
      <trkpt lat="48.13899" lon="-3.77202">
        <ele>229.5</ele>
        <time>2022-12-08T11:06:43Z</time>
      </trkpt>
      <trkpt lat="48.139" lon="-3.77192">
        <ele>229.4</ele>
        <time>2022-12-08T11:06:44Z</time>
      </trkpt>
      <trkpt lat="48.13902" lon="-3.77183">
        <ele>229.3</ele>
        <time>2022-12-08T11:06:45Z</time>
      </trkpt>
      <trkpt lat="48.13903" lon="-3.77174">
        <ele>229.2</ele>
        <time>2022-12-08T11:06:46Z</time>
      </trkpt>
      <trkpt lat="48.13905" lon="-3.77165">
        <ele>229</ele>
        <time>2022-12-08T11:06:47Z</time>
      </trkpt>
      <trkpt lat="48.13907" lon="-3.77155">
        <ele>228.9</ele>
        <time>2022-12-08T11:06:48Z</time>
      </trkpt>
      <trkpt lat="48.13909" lon="-3.77146">
        <ele>228.7</ele>
        <time>2022-12-08T11:06:49Z</time>
      </trkpt>
      <trkpt lat="48.13911" lon="-3.77137">
        <ele>228.6</ele>
        <time>2022-12-08T11:06:50Z</time>
      </trkpt>
      <trkpt lat="48.13912" lon="-3.77128">
        <ele>228.4</ele>
        <time>2022-12-08T11:06:51Z</time>
      </trkpt>
      <trkpt lat="48.13914" lon="-3.77118">
        <ele>228.2</ele>
        <time>2022-12-08T11:06:52Z</time>
      </trkpt>
      <trkpt lat="48.13915" lon="-3.77108">
        <ele>228.1</ele>
        <time>2022-12-08T11:06:53Z</time>
      </trkpt>
      <trkpt lat="48.13917" lon="-3.77098">
        <ele>227.8</ele>
        <time>2022-12-08T11:06:54Z</time>
      </trkpt>
      <trkpt lat="48.13918" lon="-3.77088">
        <ele>227.7</ele>
        <time>2022-12-08T11:06:55Z</time>
      </trkpt>
      <trkpt lat="48.1392" lon="-3.77078">
        <ele>227.4</ele>
        <time>2022-12-08T11:06:56Z</time>
      </trkpt>
      <trkpt lat="48.13922" lon="-3.77068">
        <ele>227.2</ele>
        <time>2022-12-08T11:06:57Z</time>
      </trkpt>
      <trkpt lat="48.13923" lon="-3.77057">
        <ele>227</ele>
        <time>2022-12-08T11:06:58Z</time>
      </trkpt>
      <trkpt lat="48.13925" lon="-3.77047">
        <ele>226.7</ele>
        <time>2022-12-08T11:06:59Z</time>
      </trkpt>
      <trkpt lat="48.13926" lon="-3.77036">
        <ele>226.4</ele>
        <time>2022-12-08T11:07:00Z</time>
      </trkpt>
      <trkpt lat="48.13928" lon="-3.77025">
        <ele>226</ele>
        <time>2022-12-08T11:07:01Z</time>
      </trkpt>
      <trkpt lat="48.1393" lon="-3.77014">
        <ele>225.7</ele>
        <time>2022-12-08T11:07:02Z</time>
      </trkpt>
      <trkpt lat="48.13932" lon="-3.77003">
        <ele>225.4</ele>
        <time>2022-12-08T11:07:03Z</time>
      </trkpt>
      <trkpt lat="48.13934" lon="-3.76992">
        <ele>225.1</ele>
        <time>2022-12-08T11:07:04Z</time>
      </trkpt>
      <trkpt lat="48.13936" lon="-3.76981">
        <ele>224.8</ele>
        <time>2022-12-08T11:07:05Z</time>
      </trkpt>
      <trkpt lat="48.13939" lon="-3.7697">
        <ele>224.5</ele>
        <time>2022-12-08T11:07:06Z</time>
      </trkpt>
      <trkpt lat="48.13942" lon="-3.7696">
        <ele>224.1</ele>
        <time>2022-12-08T11:07:07Z</time>
      </trkpt>
      <trkpt lat="48.13944" lon="-3.76949">
        <ele>223.7</ele>
        <time>2022-12-08T11:07:08Z</time>
      </trkpt>
      <trkpt lat="48.13947" lon="-3.76938">
        <ele>223.3</ele>
        <time>2022-12-08T11:07:09Z</time>
      </trkpt>
      <trkpt lat="48.13951" lon="-3.76927">
        <ele>222.9</ele>
        <time>2022-12-08T11:07:10Z</time>
      </trkpt>
      <trkpt lat="48.13954" lon="-3.76915">
        <ele>222.4</ele>
        <time>2022-12-08T11:07:11Z</time>
      </trkpt>
      <trkpt lat="48.13958" lon="-3.76904">
        <ele>222</ele>
        <time>2022-12-08T11:07:12Z</time>
      </trkpt>
      <trkpt lat="48.13962" lon="-3.76892">
        <ele>221.5</ele>
        <time>2022-12-08T11:07:13Z</time>
      </trkpt>
      <trkpt lat="48.13966" lon="-3.76881">
        <ele>221</ele>
        <time>2022-12-08T11:07:14Z</time>
      </trkpt>
      <trkpt lat="48.13971" lon="-3.76869">
        <ele>220.4</ele>
        <time>2022-12-08T11:07:15Z</time>
      </trkpt>
      <trkpt lat="48.13975" lon="-3.76858">
        <ele>219.9</ele>
        <time>2022-12-08T11:07:16Z</time>
      </trkpt>
      <trkpt lat="48.13979" lon="-3.76846">
        <ele>219.3</ele>
        <time>2022-12-08T11:07:17Z</time>
      </trkpt>
      <trkpt lat="48.13984" lon="-3.76834">
        <ele>218.8</ele>
        <time>2022-12-08T11:07:18Z</time>
      </trkpt>
      <trkpt lat="48.13989" lon="-3.76822">
        <ele>218.2</ele>
        <time>2022-12-08T11:07:19Z</time>
      </trkpt>
      <trkpt lat="48.13994" lon="-3.7681">
        <ele>217.6</ele>
        <time>2022-12-08T11:07:20Z</time>
      </trkpt>
      <trkpt lat="48.13999" lon="-3.76798">
        <ele>217</ele>
        <time>2022-12-08T11:07:21Z</time>
      </trkpt>
      <trkpt lat="48.14004" lon="-3.76785">
        <ele>216.3</ele>
        <time>2022-12-08T11:07:22Z</time>
      </trkpt>
      <trkpt lat="48.14008" lon="-3.76771">
        <ele>215.6</ele>
        <time>2022-12-08T11:07:23Z</time>
      </trkpt>
      <trkpt lat="48.14012" lon="-3.76758">
        <ele>214.8</ele>
        <time>2022-12-08T11:07:24Z</time>
      </trkpt>
      <trkpt lat="48.14016" lon="-3.76744">
        <ele>214.1</ele>
        <time>2022-12-08T11:07:25Z</time>
      </trkpt>
      <trkpt lat="48.1402" lon="-3.7673">
        <ele>213.4</ele>
        <time>2022-12-08T11:07:26Z</time>
      </trkpt>
      <trkpt lat="48.14024" lon="-3.76715">
        <ele>212.7</ele>
        <time>2022-12-08T11:07:27Z</time>
      </trkpt>
      <trkpt lat="48.14027" lon="-3.767">
        <ele>211.9</ele>
        <time>2022-12-08T11:07:28Z</time>
      </trkpt>
      <trkpt lat="48.1403" lon="-3.76685">
        <ele>211.2</ele>
        <time>2022-12-08T11:07:29Z</time>
      </trkpt>
      <trkpt lat="48.14033" lon="-3.7667">
        <ele>210.4</ele>
        <time>2022-12-08T11:07:30Z</time>
      </trkpt>
      <trkpt lat="48.14036" lon="-3.76654">
        <ele>209.8</ele>
        <time>2022-12-08T11:07:31Z</time>
      </trkpt>
      <trkpt lat="48.14039" lon="-3.76639">
        <ele>209.2</ele>
        <time>2022-12-08T11:07:32Z</time>
      </trkpt>
      <trkpt lat="48.14043" lon="-3.76624">
        <ele>208.5</ele>
        <time>2022-12-08T11:07:33Z</time>
      </trkpt>
      <trkpt lat="48.14047" lon="-3.76611">
        <ele>208</ele>
        <time>2022-12-08T11:07:34Z</time>
      </trkpt>
      <trkpt lat="48.14051" lon="-3.76597">
        <ele>207.5</ele>
        <time>2022-12-08T11:07:35Z</time>
      </trkpt>
      <trkpt lat="48.14056" lon="-3.76584">
        <ele>207</ele>
        <time>2022-12-08T11:07:36Z</time>
      </trkpt>
      <trkpt lat="48.14061" lon="-3.76572">
        <ele>206.6</ele>
        <time>2022-12-08T11:07:37Z</time>
      </trkpt>
      <trkpt lat="48.14067" lon="-3.76559">
        <ele>206.1</ele>
        <time>2022-12-08T11:07:38Z</time>
      </trkpt>
      <trkpt lat="48.14072" lon="-3.76547">
        <ele>205.6</ele>
        <time>2022-12-08T11:07:39Z</time>
      </trkpt>
      <trkpt lat="48.14077" lon="-3.76535">
        <ele>205.3</ele>
        <time>2022-12-08T11:07:40Z</time>
      </trkpt>
      <trkpt lat="48.14082" lon="-3.76522">
        <ele>205.1</ele>
        <time>2022-12-08T11:07:41Z</time>
      </trkpt>
      <trkpt lat="48.14086" lon="-3.7651">
        <ele>204.9</ele>
        <time>2022-12-08T11:07:42Z</time>
      </trkpt>
      <trkpt lat="48.1409" lon="-3.76497">
        <ele>204.8</ele>
        <time>2022-12-08T11:07:43Z</time>
      </trkpt>
      <trkpt lat="48.14093" lon="-3.76486">
        <ele>204.8</ele>
        <time>2022-12-08T11:07:44Z</time>
      </trkpt>
      <trkpt lat="48.14096" lon="-3.76474">
        <ele>204.8</ele>
        <time>2022-12-08T11:07:45Z</time>
      </trkpt>
      <trkpt lat="48.14098" lon="-3.76462">
        <ele>204.8</ele>
        <time>2022-12-08T11:07:46Z</time>
      </trkpt>
      <trkpt lat="48.141" lon="-3.76451">
        <ele>204.9</ele>
        <time>2022-12-08T11:07:47Z</time>
      </trkpt>
      <trkpt lat="48.14102" lon="-3.76439">
        <ele>204.9</ele>
        <time>2022-12-08T11:07:48Z</time>
      </trkpt>
      <trkpt lat="48.14104" lon="-3.76428">
        <ele>205</ele>
        <time>2022-12-08T11:07:49Z</time>
      </trkpt>
      <trkpt lat="48.14105" lon="-3.76418">
        <ele>205</ele>
        <time>2022-12-08T11:07:50Z</time>
      </trkpt>
      <trkpt lat="48.14107" lon="-3.76408">
        <ele>205.1</ele>
        <time>2022-12-08T11:07:51Z</time>
      </trkpt>
      <trkpt lat="48.14107" lon="-3.76398">
        <ele>205.2</ele>
        <time>2022-12-08T11:07:52Z</time>
      </trkpt>
      <trkpt lat="48.14108" lon="-3.76388">
        <ele>205.4</ele>
        <time>2022-12-08T11:07:53Z</time>
      </trkpt>
      <trkpt lat="48.14108" lon="-3.76378">
        <ele>205.5</ele>
        <time>2022-12-08T11:07:54Z</time>
      </trkpt>
      <trkpt lat="48.14108" lon="-3.76369">
        <ele>205.7</ele>
        <time>2022-12-08T11:07:55Z</time>
      </trkpt>
      <trkpt lat="48.14108" lon="-3.7636">
        <ele>205.8</ele>
        <time>2022-12-08T11:07:56Z</time>
      </trkpt>
      <trkpt lat="48.14108" lon="-3.76351">
        <ele>205.9</ele>
        <time>2022-12-08T11:07:57Z</time>
      </trkpt>
      <trkpt lat="48.14108" lon="-3.76342">
        <ele>206.1</ele>
        <time>2022-12-08T11:07:58Z</time>
      </trkpt>
      <trkpt lat="48.14108" lon="-3.76333">
        <ele>206.2</ele>
        <time>2022-12-08T11:07:59Z</time>
      </trkpt>
      <trkpt lat="48.14109" lon="-3.76324">
        <ele>206.3</ele>
        <time>2022-12-08T11:08:00Z</time>
      </trkpt>
      <trkpt lat="48.14109" lon="-3.76316">
        <ele>206.4</ele>
        <time>2022-12-08T11:08:01Z</time>
      </trkpt>
      <trkpt lat="48.14109" lon="-3.76307">
        <ele>206.6</ele>
        <time>2022-12-08T11:08:02Z</time>
      </trkpt>
      <trkpt lat="48.14109" lon="-3.76299">
        <ele>206.7</ele>
        <time>2022-12-08T11:08:03Z</time>
      </trkpt>
      <trkpt lat="48.14109" lon="-3.7629">
        <ele>206.8</ele>
        <time>2022-12-08T11:08:04Z</time>
      </trkpt>
      <trkpt lat="48.14109" lon="-3.76282">
        <ele>207</ele>
        <time>2022-12-08T11:08:05Z</time>
      </trkpt>
      <trkpt lat="48.14109" lon="-3.76274">
        <ele>207.1</ele>
        <time>2022-12-08T11:08:06Z</time>
      </trkpt>
      <trkpt lat="48.1411" lon="-3.76267">
        <ele>207.2</ele>
        <time>2022-12-08T11:08:07Z</time>
      </trkpt>
      <trkpt lat="48.1411" lon="-3.76259">
        <ele>207.3</ele>
        <time>2022-12-08T11:08:08Z</time>
      </trkpt>
      <trkpt lat="48.1411" lon="-3.76251">
        <ele>207.4</ele>
        <time>2022-12-08T11:08:09Z</time>
      </trkpt>
      <trkpt lat="48.1411" lon="-3.76244">
        <ele>207.5</ele>
        <time>2022-12-08T11:08:10Z</time>
      </trkpt>
      <trkpt lat="48.1411" lon="-3.76236">
        <ele>207.6</ele>
        <time>2022-12-08T11:08:11Z</time>
      </trkpt>
      <trkpt lat="48.1411" lon="-3.76228">
        <ele>207.8</ele>
        <time>2022-12-08T11:08:12Z</time>
      </trkpt>
      <trkpt lat="48.14111" lon="-3.7622">
        <ele>207.9</ele>
        <time>2022-12-08T11:08:13Z</time>
      </trkpt>
      <trkpt lat="48.1411" lon="-3.76212">
        <ele>208.1</ele>
        <time>2022-12-08T11:08:14Z</time>
      </trkpt>
      <trkpt lat="48.14111" lon="-3.76205">
        <ele>208.2</ele>
        <time>2022-12-08T11:08:15Z</time>
      </trkpt>
      <trkpt lat="48.14111" lon="-3.76198">
        <ele>208.4</ele>
        <time>2022-12-08T11:08:16Z</time>
      </trkpt>
      <trkpt lat="48.14111" lon="-3.7619">
        <ele>208.5</ele>
        <time>2022-12-08T11:08:17Z</time>
      </trkpt>
      <trkpt lat="48.14111" lon="-3.76182">
        <ele>208.7</ele>
        <time>2022-12-08T11:08:18Z</time>
      </trkpt>
      <trkpt lat="48.14112" lon="-3.76174">
        <ele>208.9</ele>
        <time>2022-12-08T11:08:19Z</time>
      </trkpt>
      <trkpt lat="48.14112" lon="-3.76167">
        <ele>209</ele>
        <time>2022-12-08T11:08:20Z</time>
      </trkpt>
      <trkpt lat="48.14112" lon="-3.7616">
        <ele>209.2</ele>
        <time>2022-12-08T11:08:21Z</time>
      </trkpt>
      <trkpt lat="48.14112" lon="-3.76153">
        <ele>209.4</ele>
        <time>2022-12-08T11:08:22Z</time>
      </trkpt>
      <trkpt lat="48.14112" lon="-3.76146">
        <ele>209.6</ele>
        <time>2022-12-08T11:08:23Z</time>
      </trkpt>
      <trkpt lat="48.14112" lon="-3.76139">
        <ele>209.8</ele>
        <time>2022-12-08T11:08:24Z</time>
      </trkpt>
      <trkpt lat="48.14112" lon="-3.76132">
        <ele>210</ele>
        <time>2022-12-08T11:08:25Z</time>
      </trkpt>
      <trkpt lat="48.14112" lon="-3.76125">
        <ele>210.3</ele>
        <time>2022-12-08T11:08:26Z</time>
      </trkpt>
      <trkpt lat="48.14112" lon="-3.76118">
        <ele>210.5</ele>
        <time>2022-12-08T11:08:27Z</time>
      </trkpt>
      <trkpt lat="48.14112" lon="-3.76112">
        <ele>210.7</ele>
        <time>2022-12-08T11:08:28Z</time>
      </trkpt>
      <trkpt lat="48.14112" lon="-3.76107">
        <ele>210.8</ele>
        <time>2022-12-08T11:08:29Z</time>
      </trkpt>
      <trkpt lat="48.14112" lon="-3.76099">
        <ele>211.1</ele>
        <time>2022-12-08T11:08:30Z</time>
      </trkpt>
      <trkpt lat="48.14112" lon="-3.76095">
        <ele>211.2</ele>
        <time>2022-12-08T11:08:31Z</time>
      </trkpt>
      <trkpt lat="48.14112" lon="-3.76087">
        <ele>211.5</ele>
        <time>2022-12-08T11:08:32Z</time>
      </trkpt>
      <trkpt lat="48.14112" lon="-3.76079">
        <ele>211.7</ele>
        <time>2022-12-08T11:08:33Z</time>
      </trkpt>
      <trkpt lat="48.14112" lon="-3.76073">
        <ele>211.8</ele>
        <time>2022-12-08T11:08:34Z</time>
      </trkpt>
      <trkpt lat="48.14112" lon="-3.76068">
        <ele>212</ele>
        <time>2022-12-08T11:08:35Z</time>
      </trkpt>
      <trkpt lat="48.14114" lon="-3.76062">
        <ele>212.1</ele>
        <time>2022-12-08T11:08:37Z</time>
      </trkpt>
      <trkpt lat="48.14114" lon="-3.76046">
        <ele>212.4</ele>
        <time>2022-12-08T11:08:39Z</time>
      </trkpt>
      <trkpt lat="48.14115" lon="-3.76039">
        <ele>212.6</ele>
        <time>2022-12-08T11:08:40Z</time>
      </trkpt>
      <trkpt lat="48.14116" lon="-3.7603">
        <ele>212.8</ele>
        <time>2022-12-08T11:08:41Z</time>
      </trkpt>
      <trkpt lat="48.14118" lon="-3.76022">
        <ele>213</ele>
        <time>2022-12-08T11:08:42Z</time>
      </trkpt>
      <trkpt lat="48.14119" lon="-3.76016">
        <ele>213.2</ele>
        <time>2022-12-08T11:08:43Z</time>
      </trkpt>
      <trkpt lat="48.1412" lon="-3.7601">
        <ele>213.3</ele>
        <time>2022-12-08T11:08:44Z</time>
      </trkpt>
      <trkpt lat="48.1412" lon="-3.76004">
        <ele>213.5</ele>
        <time>2022-12-08T11:08:45Z</time>
      </trkpt>
      <trkpt lat="48.14122" lon="-3.75992">
        <ele>213.8</ele>
        <time>2022-12-08T11:08:47Z</time>
      </trkpt>
      <trkpt lat="48.14123" lon="-3.75986">
        <ele>214</ele>
        <time>2022-12-08T11:08:48Z</time>
      </trkpt>
      <trkpt lat="48.14124" lon="-3.7598">
        <ele>214.2</ele>
        <time>2022-12-08T11:08:49Z</time>
      </trkpt>
      <trkpt lat="48.14124" lon="-3.75974">
        <ele>214.4</ele>
        <time>2022-12-08T11:08:50Z</time>
      </trkpt>
      <trkpt lat="48.14125" lon="-3.75968">
        <ele>214.5</ele>
        <time>2022-12-08T11:08:51Z</time>
      </trkpt>
      <trkpt lat="48.14126" lon="-3.75963">
        <ele>214.7</ele>
        <time>2022-12-08T11:08:52Z</time>
      </trkpt>
      <trkpt lat="48.14127" lon="-3.75956">
        <ele>214.9</ele>
        <time>2022-12-08T11:08:53Z</time>
      </trkpt>
      <trkpt lat="48.14128" lon="-3.75951">
        <ele>215.1</ele>
        <time>2022-12-08T11:08:54Z</time>
      </trkpt>
      <trkpt lat="48.14129" lon="-3.75944">
        <ele>215.3</ele>
        <time>2022-12-08T11:08:55Z</time>
      </trkpt>
      <trkpt lat="48.1413" lon="-3.75939">
        <ele>215.5</ele>
        <time>2022-12-08T11:08:56Z</time>
      </trkpt>
      <trkpt lat="48.14131" lon="-3.75933">
        <ele>215.8</ele>
        <time>2022-12-08T11:08:57Z</time>
      </trkpt>
      <trkpt lat="48.14132" lon="-3.75927">
        <ele>216</ele>
        <time>2022-12-08T11:08:58Z</time>
      </trkpt>
      <trkpt lat="48.14132" lon="-3.75924">
        <ele>216.1</ele>
        <time>2022-12-08T11:08:59Z</time>
      </trkpt>
      <trkpt lat="48.14133" lon="-3.75913">
        <ele>216.5</ele>
        <time>2022-12-08T11:09:01Z</time>
      </trkpt>
      <trkpt lat="48.14134" lon="-3.75908">
        <ele>216.7</ele>
        <time>2022-12-08T11:09:02Z</time>
      </trkpt>
      <trkpt lat="48.14135" lon="-3.75902">
        <ele>216.9</ele>
        <time>2022-12-08T11:09:03Z</time>
      </trkpt>
      <trkpt lat="48.14136" lon="-3.75898">
        <ele>217.1</ele>
        <time>2022-12-08T11:09:04Z</time>
      </trkpt>
      <trkpt lat="48.14137" lon="-3.7589">
        <ele>217.5</ele>
        <time>2022-12-08T11:09:06Z</time>
      </trkpt>
      <trkpt lat="48.14139" lon="-3.75882">
        <ele>217.8</ele>
        <time>2022-12-08T11:09:07Z</time>
      </trkpt>
      <trkpt lat="48.1414" lon="-3.75878">
        <ele>218</ele>
        <time>2022-12-08T11:09:08Z</time>
      </trkpt>
      <trkpt lat="48.14141" lon="-3.75874">
        <ele>218.2</ele>
        <time>2022-12-08T11:09:09Z</time>
      </trkpt>
      <trkpt lat="48.14142" lon="-3.75869">
        <ele>218.4</ele>
        <time>2022-12-08T11:09:10Z</time>
      </trkpt>
      <trkpt lat="48.14142" lon="-3.75865">
        <ele>218.6</ele>
        <time>2022-12-08T11:09:11Z</time>
      </trkpt>
      <trkpt lat="48.14143" lon="-3.7586">
        <ele>218.8</ele>
        <time>2022-12-08T11:09:12Z</time>
      </trkpt>
      <trkpt lat="48.14143" lon="-3.75855">
        <ele>219</ele>
        <time>2022-12-08T11:09:13Z</time>
      </trkpt>
      <trkpt lat="48.14144" lon="-3.7585">
        <ele>219.2</ele>
        <time>2022-12-08T11:09:14Z</time>
      </trkpt>
      <trkpt lat="48.14144" lon="-3.75846">
        <ele>219.4</ele>
        <time>2022-12-08T11:09:15Z</time>
      </trkpt>
      <trkpt lat="48.14145" lon="-3.75841">
        <ele>219.6</ele>
        <time>2022-12-08T11:09:16Z</time>
      </trkpt>
      <trkpt lat="48.14146" lon="-3.75837">
        <ele>219.8</ele>
        <time>2022-12-08T11:09:17Z</time>
      </trkpt>
      <trkpt lat="48.14147" lon="-3.75832">
        <ele>220</ele>
        <time>2022-12-08T11:09:18Z</time>
      </trkpt>
      <trkpt lat="48.14148" lon="-3.75828">
        <ele>220.2</ele>
        <time>2022-12-08T11:09:19Z</time>
      </trkpt>
      <trkpt lat="48.14148" lon="-3.75824">
        <ele>220.4</ele>
        <time>2022-12-08T11:09:20Z</time>
      </trkpt>
      <trkpt lat="48.14149" lon="-3.75819">
        <ele>220.6</ele>
        <time>2022-12-08T11:09:21Z</time>
      </trkpt>
      <trkpt lat="48.14149" lon="-3.75814">
        <ele>220.8</ele>
        <time>2022-12-08T11:09:22Z</time>
      </trkpt>
      <trkpt lat="48.14151" lon="-3.75809">
        <ele>221</ele>
        <time>2022-12-08T11:09:23Z</time>
      </trkpt>
      <trkpt lat="48.14152" lon="-3.75805">
        <ele>221.2</ele>
        <time>2022-12-08T11:09:24Z</time>
      </trkpt>
      <trkpt lat="48.14152" lon="-3.75799">
        <ele>221.4</ele>
        <time>2022-12-08T11:09:25Z</time>
      </trkpt>
      <trkpt lat="48.14153" lon="-3.75797">
        <ele>221.5</ele>
        <time>2022-12-08T11:09:26Z</time>
      </trkpt>
      <trkpt lat="48.14153" lon="-3.75793">
        <ele>221.7</ele>
        <time>2022-12-08T11:09:27Z</time>
      </trkpt>
      <trkpt lat="48.14154" lon="-3.75789">
        <ele>221.9</ele>
        <time>2022-12-08T11:09:28Z</time>
      </trkpt>
      <trkpt lat="48.14154" lon="-3.75784">
        <ele>222.1</ele>
        <time>2022-12-08T11:09:29Z</time>
      </trkpt>
      <trkpt lat="48.14154" lon="-3.7578">
        <ele>222.3</ele>
        <time>2022-12-08T11:09:30Z</time>
      </trkpt>
      <trkpt lat="48.14155" lon="-3.75778">
        <ele>222.4</ele>
        <time>2022-12-08T11:09:31Z</time>
      </trkpt>
      <trkpt lat="48.14156" lon="-3.75769">
        <ele>222.8</ele>
        <time>2022-12-08T11:09:33Z</time>
      </trkpt>
      <trkpt lat="48.14157" lon="-3.75765">
        <ele>223</ele>
        <time>2022-12-08T11:09:34Z</time>
      </trkpt>
      <trkpt lat="48.14158" lon="-3.75757">
        <ele>223.3</ele>
        <time>2022-12-08T11:09:36Z</time>
      </trkpt>
      <trkpt lat="48.14159" lon="-3.75752">
        <ele>223.5</ele>
        <time>2022-12-08T11:09:37Z</time>
      </trkpt>
      <trkpt lat="48.1416" lon="-3.75748">
        <ele>223.7</ele>
        <time>2022-12-08T11:09:38Z</time>
      </trkpt>
      <trkpt lat="48.1416" lon="-3.75743">
        <ele>223.9</ele>
        <time>2022-12-08T11:09:39Z</time>
      </trkpt>
      <trkpt lat="48.14161" lon="-3.75739">
        <ele>224.1</ele>
        <time>2022-12-08T11:09:40Z</time>
      </trkpt>
      <trkpt lat="48.14162" lon="-3.75735">
        <ele>224.3</ele>
        <time>2022-12-08T11:09:41Z</time>
      </trkpt>
      <trkpt lat="48.14163" lon="-3.7573">
        <ele>224.5</ele>
        <time>2022-12-08T11:09:42Z</time>
      </trkpt>
      <trkpt lat="48.14164" lon="-3.75725">
        <ele>224.7</ele>
        <time>2022-12-08T11:09:43Z</time>
      </trkpt>
      <trkpt lat="48.14165" lon="-3.75721">
        <ele>224.9</ele>
        <time>2022-12-08T11:09:44Z</time>
      </trkpt>
      <trkpt lat="48.14167" lon="-3.75712">
        <ele>225.3</ele>
        <time>2022-12-08T11:09:46Z</time>
      </trkpt>
      <trkpt lat="48.14168" lon="-3.75708">
        <ele>225.5</ele>
        <time>2022-12-08T11:09:47Z</time>
      </trkpt>
      <trkpt lat="48.14169" lon="-3.75704">
        <ele>225.7</ele>
        <time>2022-12-08T11:09:48Z</time>
      </trkpt>
      <trkpt lat="48.14171" lon="-3.75695">
        <ele>226</ele>
        <time>2022-12-08T11:09:50Z</time>
      </trkpt>
      <trkpt lat="48.14172" lon="-3.75691">
        <ele>226.2</ele>
        <time>2022-12-08T11:09:51Z</time>
      </trkpt>
      <trkpt lat="48.14173" lon="-3.75687">
        <ele>226.4</ele>
        <time>2022-12-08T11:09:52Z</time>
      </trkpt>
      <trkpt lat="48.14174" lon="-3.75683">
        <ele>226.6</ele>
        <time>2022-12-08T11:09:53Z</time>
      </trkpt>
      <trkpt lat="48.14176" lon="-3.75679">
        <ele>226.7</ele>
        <time>2022-12-08T11:09:54Z</time>
      </trkpt>
      <trkpt lat="48.14177" lon="-3.75675">
        <ele>226.9</ele>
        <time>2022-12-08T11:09:55Z</time>
      </trkpt>
      <trkpt lat="48.14178" lon="-3.7567">
        <ele>227.1</ele>
        <time>2022-12-08T11:09:56Z</time>
      </trkpt>
      <trkpt lat="48.14179" lon="-3.75666">
        <ele>227.3</ele>
        <time>2022-12-08T11:09:57Z</time>
      </trkpt>
      <trkpt lat="48.1418" lon="-3.75662">
        <ele>227.4</ele>
        <time>2022-12-08T11:09:58Z</time>
      </trkpt>
      <trkpt lat="48.14181" lon="-3.75658">
        <ele>227.6</ele>
        <time>2022-12-08T11:09:59Z</time>
      </trkpt>
      <trkpt lat="48.14182" lon="-3.75654">
        <ele>227.7</ele>
        <time>2022-12-08T11:10:00Z</time>
      </trkpt>
      <trkpt lat="48.14183" lon="-3.7565">
        <ele>227.9</ele>
        <time>2022-12-08T11:10:01Z</time>
      </trkpt>
      <trkpt lat="48.14184" lon="-3.75645">
        <ele>228</ele>
        <time>2022-12-08T11:10:02Z</time>
      </trkpt>
      <trkpt lat="48.14186" lon="-3.75641">
        <ele>228.1</ele>
        <time>2022-12-08T11:10:03Z</time>
      </trkpt>
      <trkpt lat="48.14188" lon="-3.75637">
        <ele>228.3</ele>
        <time>2022-12-08T11:10:04Z</time>
      </trkpt>
      <trkpt lat="48.1419" lon="-3.75632">
        <ele>228.4</ele>
        <time>2022-12-08T11:10:05Z</time>
      </trkpt>
      <trkpt lat="48.1419" lon="-3.7563">
        <ele>228.5</ele>
        <time>2022-12-08T11:10:06Z</time>
      </trkpt>
      <trkpt lat="48.14191" lon="-3.75626">
        <ele>228.6</ele>
        <time>2022-12-08T11:10:07Z</time>
      </trkpt>
      <trkpt lat="48.14193" lon="-3.75622">
        <ele>228.7</ele>
        <time>2022-12-08T11:10:08Z</time>
      </trkpt>
      <trkpt lat="48.14194" lon="-3.75618">
        <ele>228.8</ele>
        <time>2022-12-08T11:10:09Z</time>
      </trkpt>
      <trkpt lat="48.14196" lon="-3.75614">
        <ele>228.9</ele>
        <time>2022-12-08T11:10:10Z</time>
      </trkpt>
      <trkpt lat="48.14197" lon="-3.7561">
        <ele>229.1</ele>
        <time>2022-12-08T11:10:11Z</time>
      </trkpt>
      <trkpt lat="48.14199" lon="-3.75606">
        <ele>229.2</ele>
        <time>2022-12-08T11:10:12Z</time>
      </trkpt>
      <trkpt lat="48.142" lon="-3.75601">
        <ele>229.3</ele>
        <time>2022-12-08T11:10:13Z</time>
      </trkpt>
      <trkpt lat="48.14201" lon="-3.75597">
        <ele>229.4</ele>
        <time>2022-12-08T11:10:14Z</time>
      </trkpt>
      <trkpt lat="48.14202" lon="-3.75593">
        <ele>229.5</ele>
        <time>2022-12-08T11:10:15Z</time>
      </trkpt>
      <trkpt lat="48.14205" lon="-3.75585">
        <ele>229.8</ele>
        <time>2022-12-08T11:10:17Z</time>
      </trkpt>
      <trkpt lat="48.14207" lon="-3.7558">
        <ele>229.9</ele>
        <time>2022-12-08T11:10:18Z</time>
      </trkpt>
      <trkpt lat="48.14208" lon="-3.75576">
        <ele>230</ele>
        <time>2022-12-08T11:10:19Z</time>
      </trkpt>
      <trkpt lat="48.14209" lon="-3.75571">
        <ele>230.1</ele>
        <time>2022-12-08T11:10:20Z</time>
      </trkpt>
      <trkpt lat="48.1421" lon="-3.75567">
        <ele>230.2</ele>
        <time>2022-12-08T11:10:21Z</time>
      </trkpt>
      <trkpt lat="48.14212" lon="-3.75563">
        <ele>230.3</ele>
        <time>2022-12-08T11:10:22Z</time>
      </trkpt>
      <trkpt lat="48.14214" lon="-3.75559">
        <ele>230.4</ele>
        <time>2022-12-08T11:10:23Z</time>
      </trkpt>
      <trkpt lat="48.14216" lon="-3.75555">
        <ele>230.6</ele>
        <time>2022-12-08T11:10:24Z</time>
      </trkpt>
      <trkpt lat="48.14217" lon="-3.75551">
        <ele>230.7</ele>
        <time>2022-12-08T11:10:25Z</time>
      </trkpt>
      <trkpt lat="48.14218" lon="-3.75547">
        <ele>230.8</ele>
        <time>2022-12-08T11:10:26Z</time>
      </trkpt>
      <trkpt lat="48.14219" lon="-3.75543">
        <ele>231</ele>
        <time>2022-12-08T11:10:27Z</time>
      </trkpt>
      <trkpt lat="48.1422" lon="-3.75539">
        <ele>231.1</ele>
        <time>2022-12-08T11:10:28Z</time>
      </trkpt>
      <trkpt lat="48.14222" lon="-3.75534">
        <ele>231.2</ele>
        <time>2022-12-08T11:10:29Z</time>
      </trkpt>
      <trkpt lat="48.14224" lon="-3.75531">
        <ele>231.4</ele>
        <time>2022-12-08T11:10:30Z</time>
      </trkpt>
      <trkpt lat="48.14225" lon="-3.75527">
        <ele>231.5</ele>
        <time>2022-12-08T11:10:31Z</time>
      </trkpt>
      <trkpt lat="48.14227" lon="-3.75523">
        <ele>231.6</ele>
        <time>2022-12-08T11:10:32Z</time>
      </trkpt>
      <trkpt lat="48.14228" lon="-3.75519">
        <ele>231.8</ele>
        <time>2022-12-08T11:10:33Z</time>
      </trkpt>
      <trkpt lat="48.1423" lon="-3.75514">
        <ele>231.9</ele>
        <time>2022-12-08T11:10:34Z</time>
      </trkpt>
      <trkpt lat="48.14231" lon="-3.75511">
        <ele>232</ele>
        <time>2022-12-08T11:10:35Z</time>
      </trkpt>
      <trkpt lat="48.14234" lon="-3.75504">
        <ele>232.2</ele>
        <time>2022-12-08T11:10:37Z</time>
      </trkpt>
      <trkpt lat="48.14235" lon="-3.755">
        <ele>232.3</ele>
        <time>2022-12-08T11:10:38Z</time>
      </trkpt>
      <trkpt lat="48.14236" lon="-3.75496">
        <ele>232.5</ele>
        <time>2022-12-08T11:10:39Z</time>
      </trkpt>
      <trkpt lat="48.14237" lon="-3.75492">
        <ele>232.6</ele>
        <time>2022-12-08T11:10:40Z</time>
      </trkpt>
      <trkpt lat="48.14239" lon="-3.75488">
        <ele>232.7</ele>
        <time>2022-12-08T11:10:41Z</time>
      </trkpt>
      <trkpt lat="48.1424" lon="-3.75483">
        <ele>232.9</ele>
        <time>2022-12-08T11:10:42Z</time>
      </trkpt>
      <trkpt lat="48.14242" lon="-3.75477">
        <ele>233.1</ele>
        <time>2022-12-08T11:10:44Z</time>
      </trkpt>
      <trkpt lat="48.14243" lon="-3.75473">
        <ele>233.2</ele>
        <time>2022-12-08T11:10:45Z</time>
      </trkpt>
      <trkpt lat="48.14246" lon="-3.75466">
        <ele>233.4</ele>
        <time>2022-12-08T11:10:46Z</time>
      </trkpt>
      <trkpt lat="48.14247" lon="-3.75462">
        <ele>233.5</ele>
        <time>2022-12-08T11:10:47Z</time>
      </trkpt>
      <trkpt lat="48.14248" lon="-3.75457">
        <ele>233.6</ele>
        <time>2022-12-08T11:10:48Z</time>
      </trkpt>
      <trkpt lat="48.1425" lon="-3.75453">
        <ele>233.8</ele>
        <time>2022-12-08T11:10:49Z</time>
      </trkpt>
      <trkpt lat="48.14251" lon="-3.75449">
        <ele>233.9</ele>
        <time>2022-12-08T11:10:50Z</time>
      </trkpt>
      <trkpt lat="48.14253" lon="-3.75444">
        <ele>234</ele>
        <time>2022-12-08T11:10:51Z</time>
      </trkpt>
      <trkpt lat="48.14254" lon="-3.7544">
        <ele>234.1</ele>
        <time>2022-12-08T11:10:52Z</time>
      </trkpt>
      <trkpt lat="48.14256" lon="-3.75436">
        <ele>234.2</ele>
        <time>2022-12-08T11:10:53Z</time>
      </trkpt>
      <trkpt lat="48.14257" lon="-3.75432">
        <ele>234.3</ele>
        <time>2022-12-08T11:10:54Z</time>
      </trkpt>
      <trkpt lat="48.14259" lon="-3.75428">
        <ele>234.4</ele>
        <time>2022-12-08T11:10:55Z</time>
      </trkpt>
      <trkpt lat="48.1426" lon="-3.75423">
        <ele>234.6</ele>
        <time>2022-12-08T11:10:56Z</time>
      </trkpt>
      <trkpt lat="48.14262" lon="-3.75418">
        <ele>234.6</ele>
        <time>2022-12-08T11:10:57Z</time>
      </trkpt>
      <trkpt lat="48.14263" lon="-3.75414">
        <ele>234.7</ele>
        <time>2022-12-08T11:10:58Z</time>
      </trkpt>
      <trkpt lat="48.14264" lon="-3.7541">
        <ele>234.8</ele>
        <time>2022-12-08T11:10:59Z</time>
      </trkpt>
      <trkpt lat="48.14266" lon="-3.75405">
        <ele>234.9</ele>
        <time>2022-12-08T11:11:00Z</time>
      </trkpt>
      <trkpt lat="48.14268" lon="-3.754">
        <ele>235</ele>
        <time>2022-12-08T11:11:01Z</time>
      </trkpt>
      <trkpt lat="48.1427" lon="-3.75396">
        <ele>235.1</ele>
        <time>2022-12-08T11:11:02Z</time>
      </trkpt>
      <trkpt lat="48.14271" lon="-3.75391">
        <ele>235.1</ele>
        <time>2022-12-08T11:11:03Z</time>
      </trkpt>
      <trkpt lat="48.14272" lon="-3.75385">
        <ele>235.2</ele>
        <time>2022-12-08T11:11:04Z</time>
      </trkpt>
      <trkpt lat="48.14274" lon="-3.7538">
        <ele>235.3</ele>
        <time>2022-12-08T11:11:05Z</time>
      </trkpt>
      <trkpt lat="48.14276" lon="-3.75375">
        <ele>235.3</ele>
        <time>2022-12-08T11:11:07Z</time>
      </trkpt>
      <trkpt lat="48.14277" lon="-3.7537">
        <ele>235.4</ele>
        <time>2022-12-08T11:11:08Z</time>
      </trkpt>
      <trkpt lat="48.1428" lon="-3.75365">
        <ele>235.5</ele>
        <time>2022-12-08T11:11:09Z</time>
      </trkpt>
      <trkpt lat="48.14282" lon="-3.75358">
        <ele>235.5</ele>
        <time>2022-12-08T11:11:10Z</time>
      </trkpt>
      <trkpt lat="48.14284" lon="-3.75351">
        <ele>235.6</ele>
        <time>2022-12-08T11:11:11Z</time>
      </trkpt>
      <trkpt lat="48.14285" lon="-3.75345">
        <ele>235.7</ele>
        <time>2022-12-08T11:11:13Z</time>
      </trkpt>
      <trkpt lat="48.14288" lon="-3.75338">
        <ele>235.8</ele>
        <time>2022-12-08T11:11:14Z</time>
      </trkpt>
      <trkpt lat="48.1429" lon="-3.75333">
        <ele>235.9</ele>
        <time>2022-12-08T11:11:15Z</time>
      </trkpt>
      <trkpt lat="48.14291" lon="-3.75328">
        <ele>235.9</ele>
        <time>2022-12-08T11:11:16Z</time>
      </trkpt>
      <trkpt lat="48.14294" lon="-3.7532">
        <ele>236</ele>
        <time>2022-12-08T11:11:18Z</time>
      </trkpt>
      <trkpt lat="48.14295" lon="-3.75314">
        <ele>236.1</ele>
        <time>2022-12-08T11:11:19Z</time>
      </trkpt>
      <trkpt lat="48.14296" lon="-3.75309">
        <ele>236.2</ele>
        <time>2022-12-08T11:11:20Z</time>
      </trkpt>
      <trkpt lat="48.14297" lon="-3.75304">
        <ele>236.3</ele>
        <time>2022-12-08T11:11:21Z</time>
      </trkpt>
      <trkpt lat="48.14298" lon="-3.75299">
        <ele>236.4</ele>
        <time>2022-12-08T11:11:22Z</time>
      </trkpt>
      <trkpt lat="48.143" lon="-3.75292">
        <ele>236.5</ele>
        <time>2022-12-08T11:11:23Z</time>
      </trkpt>
      <trkpt lat="48.14301" lon="-3.75287">
        <ele>236.6</ele>
        <time>2022-12-08T11:11:24Z</time>
      </trkpt>
      <trkpt lat="48.14303" lon="-3.75282">
        <ele>236.7</ele>
        <time>2022-12-08T11:11:25Z</time>
      </trkpt>
      <trkpt lat="48.14304" lon="-3.75278">
        <ele>236.7</ele>
        <time>2022-12-08T11:11:26Z</time>
      </trkpt>
      <trkpt lat="48.14305" lon="-3.75273">
        <ele>236.8</ele>
        <time>2022-12-08T11:11:27Z</time>
      </trkpt>
      <trkpt lat="48.14306" lon="-3.75267">
        <ele>236.9</ele>
        <time>2022-12-08T11:11:28Z</time>
      </trkpt>
      <trkpt lat="48.14307" lon="-3.75262">
        <ele>237</ele>
        <time>2022-12-08T11:11:29Z</time>
      </trkpt>
      <trkpt lat="48.14308" lon="-3.75258">
        <ele>237</ele>
        <time>2022-12-08T11:11:30Z</time>
      </trkpt>
      <trkpt lat="48.1431" lon="-3.75251">
        <ele>237.1</ele>
        <time>2022-12-08T11:11:31Z</time>
      </trkpt>
      <trkpt lat="48.14311" lon="-3.75247">
        <ele>237.1</ele>
        <time>2022-12-08T11:11:32Z</time>
      </trkpt>
      <trkpt lat="48.14312" lon="-3.7524">
        <ele>237.1</ele>
        <time>2022-12-08T11:11:34Z</time>
      </trkpt>
      <trkpt lat="48.14314" lon="-3.7523">
        <ele>237.2</ele>
        <time>2022-12-08T11:11:35Z</time>
      </trkpt>
      <trkpt lat="48.14315" lon="-3.75223">
        <ele>237.2</ele>
        <time>2022-12-08T11:11:36Z</time>
      </trkpt>
      <trkpt lat="48.14316" lon="-3.75219">
        <ele>237.2</ele>
        <time>2022-12-08T11:11:37Z</time>
      </trkpt>
      <trkpt lat="48.14317" lon="-3.75213">
        <ele>237.2</ele>
        <time>2022-12-08T11:11:38Z</time>
      </trkpt>
      <trkpt lat="48.14318" lon="-3.75207">
        <ele>237.2</ele>
        <time>2022-12-08T11:11:39Z</time>
      </trkpt>
      <trkpt lat="48.1432" lon="-3.75198">
        <ele>237.2</ele>
        <time>2022-12-08T11:11:41Z</time>
      </trkpt>
      <trkpt lat="48.14321" lon="-3.75192">
        <ele>237.2</ele>
        <time>2022-12-08T11:11:42Z</time>
      </trkpt>
      <trkpt lat="48.14323" lon="-3.75183">
        <ele>237.2</ele>
        <time>2022-12-08T11:11:43Z</time>
      </trkpt>
      <trkpt lat="48.14324" lon="-3.75177">
        <ele>237.2</ele>
        <time>2022-12-08T11:11:44Z</time>
      </trkpt>
      <trkpt lat="48.14326" lon="-3.75167">
        <ele>237.2</ele>
        <time>2022-12-08T11:11:46Z</time>
      </trkpt>
      <trkpt lat="48.14329" lon="-3.75157">
        <ele>237.3</ele>
        <time>2022-12-08T11:11:47Z</time>
      </trkpt>
      <trkpt lat="48.14331" lon="-3.75144">
        <ele>237.3</ele>
        <time>2022-12-08T11:11:49Z</time>
      </trkpt>
      <trkpt lat="48.14332" lon="-3.75139">
        <ele>237.3</ele>
        <time>2022-12-08T11:11:50Z</time>
      </trkpt>
      <trkpt lat="48.14333" lon="-3.75133">
        <ele>237.4</ele>
        <time>2022-12-08T11:11:51Z</time>
      </trkpt>
      <trkpt lat="48.14335" lon="-3.75126">
        <ele>237.4</ele>
        <time>2022-12-08T11:11:52Z</time>
      </trkpt>
      <trkpt lat="48.14336" lon="-3.75122">
        <ele>237.4</ele>
        <time>2022-12-08T11:11:53Z</time>
      </trkpt>
      <trkpt lat="48.14337" lon="-3.75116">
        <ele>237.5</ele>
        <time>2022-12-08T11:11:54Z</time>
      </trkpt>
      <trkpt lat="48.14339" lon="-3.7511">
        <ele>237.5</ele>
        <time>2022-12-08T11:11:55Z</time>
      </trkpt>
      <trkpt lat="48.14339" lon="-3.75104">
        <ele>237.5</ele>
        <time>2022-12-08T11:11:56Z</time>
      </trkpt>
      <trkpt lat="48.14341" lon="-3.75099">
        <ele>237.5</ele>
        <time>2022-12-08T11:11:58Z</time>
      </trkpt>
      <trkpt lat="48.14343" lon="-3.75087">
        <ele>237.5</ele>
        <time>2022-12-08T11:11:59Z</time>
      </trkpt>
      <trkpt lat="48.14344" lon="-3.75084">
        <ele>237.5</ele>
        <time>2022-12-08T11:12:00Z</time>
      </trkpt>
      <trkpt lat="48.14346" lon="-3.75073">
        <ele>237.6</ele>
        <time>2022-12-08T11:12:02Z</time>
      </trkpt>
      <trkpt lat="48.14347" lon="-3.75067">
        <ele>237.6</ele>
        <time>2022-12-08T11:12:03Z</time>
      </trkpt>
      <trkpt lat="48.14348" lon="-3.75061">
        <ele>237.6</ele>
        <time>2022-12-08T11:12:04Z</time>
      </trkpt>
      <trkpt lat="48.14349" lon="-3.75055">
        <ele>237.6</ele>
        <time>2022-12-08T11:12:05Z</time>
      </trkpt>
      <trkpt lat="48.14351" lon="-3.75043">
        <ele>237.6</ele>
        <time>2022-12-08T11:12:07Z</time>
      </trkpt>
      <trkpt lat="48.14353" lon="-3.75037">
        <ele>237.5</ele>
        <time>2022-12-08T11:12:08Z</time>
      </trkpt>
      <trkpt lat="48.14354" lon="-3.75031">
        <ele>237.4</ele>
        <time>2022-12-08T11:12:09Z</time>
      </trkpt>
      <trkpt lat="48.14355" lon="-3.75024">
        <ele>237.4</ele>
        <time>2022-12-08T11:12:10Z</time>
      </trkpt>
      <trkpt lat="48.14356" lon="-3.75016">
        <ele>237.2</ele>
        <time>2022-12-08T11:12:11Z</time>
      </trkpt>
      <trkpt lat="48.14358" lon="-3.75008">
        <ele>237.2</ele>
        <time>2022-12-08T11:12:12Z</time>
      </trkpt>
      <trkpt lat="48.14359" lon="-3.75001">
        <ele>237.1</ele>
        <time>2022-12-08T11:12:13Z</time>
      </trkpt>
      <trkpt lat="48.1436" lon="-3.74993">
        <ele>237</ele>
        <time>2022-12-08T11:12:14Z</time>
      </trkpt>
      <trkpt lat="48.14361" lon="-3.74985">
        <ele>237</ele>
        <time>2022-12-08T11:12:15Z</time>
      </trkpt>
      <trkpt lat="48.14362" lon="-3.74978">
        <ele>237</ele>
        <time>2022-12-08T11:12:16Z</time>
      </trkpt>
      <trkpt lat="48.14363" lon="-3.74971">
        <ele>237</ele>
        <time>2022-12-08T11:12:17Z</time>
      </trkpt>
      <trkpt lat="48.14364" lon="-3.74963">
        <ele>237</ele>
        <time>2022-12-08T11:12:18Z</time>
      </trkpt>
      <trkpt lat="48.14365" lon="-3.74956">
        <ele>236.9</ele>
        <time>2022-12-08T11:12:19Z</time>
      </trkpt>
      <trkpt lat="48.14366" lon="-3.74948">
        <ele>236.9</ele>
        <time>2022-12-08T11:12:20Z</time>
      </trkpt>
      <trkpt lat="48.14366" lon="-3.74941">
        <ele>236.9</ele>
        <time>2022-12-08T11:12:21Z</time>
      </trkpt>
      <trkpt lat="48.14367" lon="-3.74933">
        <ele>236.9</ele>
        <time>2022-12-08T11:12:22Z</time>
      </trkpt>
      <trkpt lat="48.14368" lon="-3.74926">
        <ele>236.9</ele>
        <time>2022-12-08T11:12:23Z</time>
      </trkpt>
      <trkpt lat="48.14369" lon="-3.74919">
        <ele>236.9</ele>
        <time>2022-12-08T11:12:24Z</time>
      </trkpt>
      <trkpt lat="48.1437" lon="-3.74912">
        <ele>236.8</ele>
        <time>2022-12-08T11:12:25Z</time>
      </trkpt>
      <trkpt lat="48.14371" lon="-3.74904">
        <ele>236.8</ele>
        <time>2022-12-08T11:12:26Z</time>
      </trkpt>
      <trkpt lat="48.14371" lon="-3.74897">
        <ele>236.8</ele>
        <time>2022-12-08T11:12:27Z</time>
      </trkpt>
      <trkpt lat="48.14372" lon="-3.7489">
        <ele>236.7</ele>
        <time>2022-12-08T11:12:28Z</time>
      </trkpt>
      <trkpt lat="48.14373" lon="-3.74882">
        <ele>236.7</ele>
        <time>2022-12-08T11:12:29Z</time>
      </trkpt>
      <trkpt lat="48.14373" lon="-3.74875">
        <ele>236.7</ele>
        <time>2022-12-08T11:12:30Z</time>
      </trkpt>
      <trkpt lat="48.14374" lon="-3.74867">
        <ele>236.7</ele>
        <time>2022-12-08T11:12:31Z</time>
      </trkpt>
      <trkpt lat="48.14374" lon="-3.7486">
        <ele>236.7</ele>
        <time>2022-12-08T11:12:32Z</time>
      </trkpt>
      <trkpt lat="48.14375" lon="-3.74852">
        <ele>236.6</ele>
        <time>2022-12-08T11:12:33Z</time>
      </trkpt>
      <trkpt lat="48.14376" lon="-3.74845">
        <ele>236.6</ele>
        <time>2022-12-08T11:12:34Z</time>
      </trkpt>
      <trkpt lat="48.14376" lon="-3.74837">
        <ele>236.5</ele>
        <time>2022-12-08T11:12:35Z</time>
      </trkpt>
      <trkpt lat="48.14377" lon="-3.74829">
        <ele>236.5</ele>
        <time>2022-12-08T11:12:36Z</time>
      </trkpt>
      <trkpt lat="48.14377" lon="-3.74821">
        <ele>236.5</ele>
        <time>2022-12-08T11:12:37Z</time>
      </trkpt>
      <trkpt lat="48.14378" lon="-3.74813">
        <ele>236.4</ele>
        <time>2022-12-08T11:12:38Z</time>
      </trkpt>
      <trkpt lat="48.14378" lon="-3.74805">
        <ele>236.4</ele>
        <time>2022-12-08T11:12:39Z</time>
      </trkpt>
      <trkpt lat="48.14379" lon="-3.74798">
        <ele>236.3</ele>
        <time>2022-12-08T11:12:40Z</time>
      </trkpt>
      <trkpt lat="48.14379" lon="-3.7479">
        <ele>236.3</ele>
        <time>2022-12-08T11:12:41Z</time>
      </trkpt>
      <trkpt lat="48.1438" lon="-3.74782">
        <ele>236.2</ele>
        <time>2022-12-08T11:12:42Z</time>
      </trkpt>
      <trkpt lat="48.1438" lon="-3.74774">
        <ele>236.2</ele>
        <time>2022-12-08T11:12:43Z</time>
      </trkpt>
      <trkpt lat="48.14381" lon="-3.74766">
        <ele>236.1</ele>
        <time>2022-12-08T11:12:44Z</time>
      </trkpt>
      <trkpt lat="48.14381" lon="-3.74758">
        <ele>236</ele>
        <time>2022-12-08T11:12:45Z</time>
      </trkpt>
      <trkpt lat="48.14382" lon="-3.7475">
        <ele>236</ele>
        <time>2022-12-08T11:12:46Z</time>
      </trkpt>
      <trkpt lat="48.14382" lon="-3.74742">
        <ele>235.9</ele>
        <time>2022-12-08T11:12:47Z</time>
      </trkpt>
      <trkpt lat="48.14383" lon="-3.74734">
        <ele>235.8</ele>
        <time>2022-12-08T11:12:48Z</time>
      </trkpt>
      <trkpt lat="48.14383" lon="-3.74726">
        <ele>235.8</ele>
        <time>2022-12-08T11:12:49Z</time>
      </trkpt>
      <trkpt lat="48.14384" lon="-3.74718">
        <ele>235.7</ele>
        <time>2022-12-08T11:12:50Z</time>
      </trkpt>
      <trkpt lat="48.14384" lon="-3.7471">
        <ele>235.7</ele>
        <time>2022-12-08T11:12:51Z</time>
      </trkpt>
      <trkpt lat="48.14384" lon="-3.74702">
        <ele>235.6</ele>
        <time>2022-12-08T11:12:52Z</time>
      </trkpt>
      <trkpt lat="48.14385" lon="-3.74695">
        <ele>235.6</ele>
        <time>2022-12-08T11:12:53Z</time>
      </trkpt>
      <trkpt lat="48.14386" lon="-3.74687">
        <ele>235.6</ele>
        <time>2022-12-08T11:12:54Z</time>
      </trkpt>
      <trkpt lat="48.14386" lon="-3.74679">
        <ele>235.5</ele>
        <time>2022-12-08T11:12:55Z</time>
      </trkpt>
      <trkpt lat="48.14387" lon="-3.74671">
        <ele>235.5</ele>
        <time>2022-12-08T11:12:56Z</time>
      </trkpt>
      <trkpt lat="48.14387" lon="-3.74663">
        <ele>235.5</ele>
        <time>2022-12-08T11:12:57Z</time>
      </trkpt>
      <trkpt lat="48.14388" lon="-3.74655">
        <ele>235.5</ele>
        <time>2022-12-08T11:12:58Z</time>
      </trkpt>
      <trkpt lat="48.14388" lon="-3.74648">
        <ele>235.5</ele>
        <time>2022-12-08T11:12:59Z</time>
      </trkpt>
      <trkpt lat="48.14389" lon="-3.74641">
        <ele>235.5</ele>
        <time>2022-12-08T11:13:00Z</time>
      </trkpt>
      <trkpt lat="48.14389" lon="-3.74633">
        <ele>235.5</ele>
        <time>2022-12-08T11:13:01Z</time>
      </trkpt>
      <trkpt lat="48.1439" lon="-3.74626">
        <ele>235.5</ele>
        <time>2022-12-08T11:13:02Z</time>
      </trkpt>
      <trkpt lat="48.1439" lon="-3.74619">
        <ele>235.5</ele>
        <time>2022-12-08T11:13:03Z</time>
      </trkpt>
      <trkpt lat="48.1439" lon="-3.74611">
        <ele>235.5</ele>
        <time>2022-12-08T11:13:04Z</time>
      </trkpt>
      <trkpt lat="48.14391" lon="-3.74603">
        <ele>235.4</ele>
        <time>2022-12-08T11:13:05Z</time>
      </trkpt>
      <trkpt lat="48.14391" lon="-3.74596">
        <ele>235.4</ele>
        <time>2022-12-08T11:13:06Z</time>
      </trkpt>
      <trkpt lat="48.14392" lon="-3.74588">
        <ele>235.4</ele>
        <time>2022-12-08T11:13:07Z</time>
      </trkpt>
      <trkpt lat="48.14392" lon="-3.74581">
        <ele>235.4</ele>
        <time>2022-12-08T11:13:08Z</time>
      </trkpt>
      <trkpt lat="48.14392" lon="-3.74573">
        <ele>235.3</ele>
        <time>2022-12-08T11:13:09Z</time>
      </trkpt>
      <trkpt lat="48.14392" lon="-3.74565">
        <ele>235.3</ele>
        <time>2022-12-08T11:13:10Z</time>
      </trkpt>
      <trkpt lat="48.14393" lon="-3.74557">
        <ele>235.3</ele>
        <time>2022-12-08T11:13:11Z</time>
      </trkpt>
      <trkpt lat="48.14393" lon="-3.74549">
        <ele>235.2</ele>
        <time>2022-12-08T11:13:12Z</time>
      </trkpt>
      <trkpt lat="48.14394" lon="-3.74541">
        <ele>235.2</ele>
        <time>2022-12-08T11:13:13Z</time>
      </trkpt>
      <trkpt lat="48.14394" lon="-3.74533">
        <ele>235.1</ele>
        <time>2022-12-08T11:13:14Z</time>
      </trkpt>
      <trkpt lat="48.14395" lon="-3.74525">
        <ele>235.1</ele>
        <time>2022-12-08T11:13:15Z</time>
      </trkpt>
      <trkpt lat="48.14395" lon="-3.74517">
        <ele>235.1</ele>
        <time>2022-12-08T11:13:16Z</time>
      </trkpt>
      <trkpt lat="48.14395" lon="-3.74509">
        <ele>235</ele>
        <time>2022-12-08T11:13:17Z</time>
      </trkpt>
      <trkpt lat="48.14395" lon="-3.74501">
        <ele>235</ele>
        <time>2022-12-08T11:13:18Z</time>
      </trkpt>
      <trkpt lat="48.14396" lon="-3.74493">
        <ele>235</ele>
        <time>2022-12-08T11:13:19Z</time>
      </trkpt>
      <trkpt lat="48.14395" lon="-3.74485">
        <ele>234.9</ele>
        <time>2022-12-08T11:13:20Z</time>
      </trkpt>
      <trkpt lat="48.14395" lon="-3.74476">
        <ele>234.9</ele>
        <time>2022-12-08T11:13:21Z</time>
      </trkpt>
      <trkpt lat="48.14395" lon="-3.74468">
        <ele>234.9</ele>
        <time>2022-12-08T11:13:22Z</time>
      </trkpt>
      <trkpt lat="48.14395" lon="-3.7446">
        <ele>234.9</ele>
        <time>2022-12-08T11:13:23Z</time>
      </trkpt>
      <trkpt lat="48.14395" lon="-3.74452">
        <ele>234.9</ele>
        <time>2022-12-08T11:13:24Z</time>
      </trkpt>
      <trkpt lat="48.14394" lon="-3.74444">
        <ele>234.9</ele>
        <time>2022-12-08T11:13:25Z</time>
      </trkpt>
      <trkpt lat="48.14394" lon="-3.74436">
        <ele>234.9</ele>
        <time>2022-12-08T11:13:26Z</time>
      </trkpt>
      <trkpt lat="48.14393" lon="-3.74428">
        <ele>234.9</ele>
        <time>2022-12-08T11:13:27Z</time>
      </trkpt>
      <trkpt lat="48.14392" lon="-3.7442">
        <ele>234.9</ele>
        <time>2022-12-08T11:13:28Z</time>
      </trkpt>
      <trkpt lat="48.14391" lon="-3.74412">
        <ele>234.9</ele>
        <time>2022-12-08T11:13:29Z</time>
      </trkpt>
      <trkpt lat="48.14389" lon="-3.74404">
        <ele>234.9</ele>
        <time>2022-12-08T11:13:30Z</time>
      </trkpt>
      <trkpt lat="48.14388" lon="-3.74397">
        <ele>234.9</ele>
        <time>2022-12-08T11:13:31Z</time>
      </trkpt>
      <trkpt lat="48.14387" lon="-3.74389">
        <ele>234.9</ele>
        <time>2022-12-08T11:13:32Z</time>
      </trkpt>
      <trkpt lat="48.14386" lon="-3.74381">
        <ele>235</ele>
        <time>2022-12-08T11:13:33Z</time>
      </trkpt>
      <trkpt lat="48.14384" lon="-3.74374">
        <ele>235</ele>
        <time>2022-12-08T11:13:34Z</time>
      </trkpt>
      <trkpt lat="48.14383" lon="-3.74366">
        <ele>235.1</ele>
        <time>2022-12-08T11:13:35Z</time>
      </trkpt>
      <trkpt lat="48.14381" lon="-3.74359">
        <ele>235.1</ele>
        <time>2022-12-08T11:13:36Z</time>
      </trkpt>
      <trkpt lat="48.1438" lon="-3.74351">
        <ele>235.2</ele>
        <time>2022-12-08T11:13:37Z</time>
      </trkpt>
      <trkpt lat="48.14379" lon="-3.74344">
        <ele>235.2</ele>
        <time>2022-12-08T11:13:38Z</time>
      </trkpt>
      <trkpt lat="48.14377" lon="-3.74337">
        <ele>235.3</ele>
        <time>2022-12-08T11:13:39Z</time>
      </trkpt>
      <trkpt lat="48.14376" lon="-3.74329">
        <ele>235.4</ele>
        <time>2022-12-08T11:13:40Z</time>
      </trkpt>
      <trkpt lat="48.14374" lon="-3.74322">
        <ele>235.4</ele>
        <time>2022-12-08T11:13:41Z</time>
      </trkpt>
      <trkpt lat="48.14373" lon="-3.74314">
        <ele>235.4</ele>
        <time>2022-12-08T11:13:42Z</time>
      </trkpt>
      <trkpt lat="48.14371" lon="-3.74307">
        <ele>235.4</ele>
        <time>2022-12-08T11:13:43Z</time>
      </trkpt>
      <trkpt lat="48.1437" lon="-3.74299">
        <ele>235.4</ele>
        <time>2022-12-08T11:13:44Z</time>
      </trkpt>
      <trkpt lat="48.14368" lon="-3.74291">
        <ele>235.4</ele>
        <time>2022-12-08T11:13:45Z</time>
      </trkpt>
      <trkpt lat="48.14367" lon="-3.74284">
        <ele>235.4</ele>
        <time>2022-12-08T11:13:46Z</time>
      </trkpt>
      <trkpt lat="48.14366" lon="-3.74276">
        <ele>235.5</ele>
        <time>2022-12-08T11:13:47Z</time>
      </trkpt>
      <trkpt lat="48.14364" lon="-3.74269">
        <ele>235.5</ele>
        <time>2022-12-08T11:13:48Z</time>
      </trkpt>
      <trkpt lat="48.14362" lon="-3.74261">
        <ele>235.6</ele>
        <time>2022-12-08T11:13:49Z</time>
      </trkpt>
      <trkpt lat="48.14361" lon="-3.74254">
        <ele>235.7</ele>
        <time>2022-12-08T11:13:50Z</time>
      </trkpt>
      <trkpt lat="48.14359" lon="-3.74247">
        <ele>235.9</ele>
        <time>2022-12-08T11:13:51Z</time>
      </trkpt>
      <trkpt lat="48.14358" lon="-3.7424">
        <ele>236</ele>
        <time>2022-12-08T11:13:52Z</time>
      </trkpt>
      <trkpt lat="48.14356" lon="-3.74232">
        <ele>236.1</ele>
        <time>2022-12-08T11:13:53Z</time>
      </trkpt>
      <trkpt lat="48.14355" lon="-3.74226">
        <ele>236.3</ele>
        <time>2022-12-08T11:13:54Z</time>
      </trkpt>
      <trkpt lat="48.14354" lon="-3.74218">
        <ele>236.4</ele>
        <time>2022-12-08T11:13:55Z</time>
      </trkpt>
      <trkpt lat="48.14352" lon="-3.74212">
        <ele>236.5</ele>
        <time>2022-12-08T11:13:56Z</time>
      </trkpt>
      <trkpt lat="48.14351" lon="-3.74205">
        <ele>236.7</ele>
        <time>2022-12-08T11:13:57Z</time>
      </trkpt>
      <trkpt lat="48.1435" lon="-3.74198">
        <ele>236.8</ele>
        <time>2022-12-08T11:13:58Z</time>
      </trkpt>
      <trkpt lat="48.14349" lon="-3.74191">
        <ele>237</ele>
        <time>2022-12-08T11:13:59Z</time>
      </trkpt>
      <trkpt lat="48.14348" lon="-3.74185">
        <ele>237.2</ele>
        <time>2022-12-08T11:14:00Z</time>
      </trkpt>
      <trkpt lat="48.14346" lon="-3.74178">
        <ele>237.4</ele>
        <time>2022-12-08T11:14:01Z</time>
      </trkpt>
      <trkpt lat="48.14346" lon="-3.74175">
        <ele>237.5</ele>
        <time>2022-12-08T11:14:02Z</time>
      </trkpt>
      <trkpt lat="48.14344" lon="-3.74167">
        <ele>237.7</ele>
        <time>2022-12-08T11:14:03Z</time>
      </trkpt>
      <trkpt lat="48.14343" lon="-3.74162">
        <ele>237.8</ele>
        <time>2022-12-08T11:14:04Z</time>
      </trkpt>
      <trkpt lat="48.14342" lon="-3.74155">
        <ele>238</ele>
        <time>2022-12-08T11:14:05Z</time>
      </trkpt>
      <trkpt lat="48.14341" lon="-3.7415">
        <ele>238.2</ele>
        <time>2022-12-08T11:14:06Z</time>
      </trkpt>
      <trkpt lat="48.1434" lon="-3.74144">
        <ele>238.4</ele>
        <time>2022-12-08T11:14:07Z</time>
      </trkpt>
      <trkpt lat="48.14338" lon="-3.74138">
        <ele>238.6</ele>
        <time>2022-12-08T11:14:09Z</time>
      </trkpt>
      <trkpt lat="48.14336" lon="-3.74129">
        <ele>238.8</ele>
        <time>2022-12-08T11:14:10Z</time>
      </trkpt>
      <trkpt lat="48.14334" lon="-3.74116">
        <ele>239.2</ele>
        <time>2022-12-08T11:14:12Z</time>
      </trkpt>
      <trkpt lat="48.14333" lon="-3.74109">
        <ele>239.4</ele>
        <time>2022-12-08T11:14:13Z</time>
      </trkpt>
      <trkpt lat="48.14332" lon="-3.74103">
        <ele>239.6</ele>
        <time>2022-12-08T11:14:14Z</time>
      </trkpt>
      <trkpt lat="48.14331" lon="-3.74097">
        <ele>239.7</ele>
        <time>2022-12-08T11:14:15Z</time>
      </trkpt>
      <trkpt lat="48.1433" lon="-3.74091">
        <ele>239.9</ele>
        <time>2022-12-08T11:14:16Z</time>
      </trkpt>
      <trkpt lat="48.14329" lon="-3.74085">
        <ele>240.1</ele>
        <time>2022-12-08T11:14:17Z</time>
      </trkpt>
      <trkpt lat="48.14328" lon="-3.74079">
        <ele>240.3</ele>
        <time>2022-12-08T11:14:18Z</time>
      </trkpt>
      <trkpt lat="48.14326" lon="-3.74073">
        <ele>240.4</ele>
        <time>2022-12-08T11:14:19Z</time>
      </trkpt>
      <trkpt lat="48.14325" lon="-3.74069">
        <ele>240.5</ele>
        <time>2022-12-08T11:14:20Z</time>
      </trkpt>
      <trkpt lat="48.14324" lon="-3.7406">
        <ele>240.7</ele>
        <time>2022-12-08T11:14:22Z</time>
      </trkpt>
      <trkpt lat="48.14322" lon="-3.74052">
        <ele>240.9</ele>
        <time>2022-12-08T11:14:23Z</time>
      </trkpt>
      <trkpt lat="48.14321" lon="-3.74045">
        <ele>241.1</ele>
        <time>2022-12-08T11:14:24Z</time>
      </trkpt>
      <trkpt lat="48.1432" lon="-3.7404">
        <ele>241.2</ele>
        <time>2022-12-08T11:14:25Z</time>
      </trkpt>
      <trkpt lat="48.14317" lon="-3.74028">
        <ele>241.5</ele>
        <time>2022-12-08T11:14:27Z</time>
      </trkpt>
      <trkpt lat="48.14316" lon="-3.74022">
        <ele>241.7</ele>
        <time>2022-12-08T11:14:28Z</time>
      </trkpt>
      <trkpt lat="48.14315" lon="-3.74016">
        <ele>241.8</ele>
        <time>2022-12-08T11:14:29Z</time>
      </trkpt>
      <trkpt lat="48.14314" lon="-3.74009">
        <ele>242</ele>
        <time>2022-12-08T11:14:30Z</time>
      </trkpt>
      <trkpt lat="48.14312" lon="-3.74004">
        <ele>242.1</ele>
        <time>2022-12-08T11:14:31Z</time>
      </trkpt>
      <trkpt lat="48.14311" lon="-3.73998">
        <ele>242.2</ele>
        <time>2022-12-08T11:14:32Z</time>
      </trkpt>
      <trkpt lat="48.1431" lon="-3.73993">
        <ele>242.3</ele>
        <time>2022-12-08T11:14:33Z</time>
      </trkpt>
      <trkpt lat="48.14309" lon="-3.73988">
        <ele>242.4</ele>
        <time>2022-12-08T11:14:34Z</time>
      </trkpt>
      <trkpt lat="48.14308" lon="-3.73982">
        <ele>242.6</ele>
        <time>2022-12-08T11:14:35Z</time>
      </trkpt>
      <trkpt lat="48.14307" lon="-3.73976">
        <ele>242.7</ele>
        <time>2022-12-08T11:14:36Z</time>
      </trkpt>
      <trkpt lat="48.14305" lon="-3.73971">
        <ele>242.8</ele>
        <time>2022-12-08T11:14:37Z</time>
      </trkpt>
      <trkpt lat="48.14304" lon="-3.73965">
        <ele>242.9</ele>
        <time>2022-12-08T11:14:38Z</time>
      </trkpt>
      <trkpt lat="48.14303" lon="-3.73959">
        <ele>243</ele>
        <time>2022-12-08T11:14:39Z</time>
      </trkpt>
      <trkpt lat="48.14302" lon="-3.73953">
        <ele>243.2</ele>
        <time>2022-12-08T11:14:40Z</time>
      </trkpt>
      <trkpt lat="48.14301" lon="-3.73947">
        <ele>243.3</ele>
        <time>2022-12-08T11:14:41Z</time>
      </trkpt>
      <trkpt lat="48.143" lon="-3.73941">
        <ele>243.4</ele>
        <time>2022-12-08T11:14:42Z</time>
      </trkpt>
      <trkpt lat="48.14299" lon="-3.73937">
        <ele>243.5</ele>
        <time>2022-12-08T11:14:43Z</time>
      </trkpt>
      <trkpt lat="48.14299" lon="-3.73931">
        <ele>243.6</ele>
        <time>2022-12-08T11:14:44Z</time>
      </trkpt>
      <trkpt lat="48.14296" lon="-3.73919">
        <ele>243.8</ele>
        <time>2022-12-08T11:14:46Z</time>
      </trkpt>
      <trkpt lat="48.14294" lon="-3.73907">
        <ele>244</ele>
        <time>2022-12-08T11:14:48Z</time>
      </trkpt>
      <trkpt lat="48.14293" lon="-3.73901">
        <ele>244.1</ele>
        <time>2022-12-08T11:14:49Z</time>
      </trkpt>
      <trkpt lat="48.14292" lon="-3.73895">
        <ele>244.2</ele>
        <time>2022-12-08T11:14:50Z</time>
      </trkpt>
      <trkpt lat="48.14291" lon="-3.7389">
        <ele>244.3</ele>
        <time>2022-12-08T11:14:51Z</time>
      </trkpt>
      <trkpt lat="48.1429" lon="-3.73885">
        <ele>244.4</ele>
        <time>2022-12-08T11:14:52Z</time>
      </trkpt>
      <trkpt lat="48.14289" lon="-3.73879">
        <ele>244.5</ele>
        <time>2022-12-08T11:14:53Z</time>
      </trkpt>
      <trkpt lat="48.14289" lon="-3.73875">
        <ele>244.5</ele>
        <time>2022-12-08T11:14:54Z</time>
      </trkpt>
      <trkpt lat="48.14287" lon="-3.7387">
        <ele>244.6</ele>
        <time>2022-12-08T11:14:55Z</time>
      </trkpt>
      <trkpt lat="48.14286" lon="-3.73867">
        <ele>244.7</ele>
        <time>2022-12-08T11:14:56Z</time>
      </trkpt>
      <trkpt lat="48.14285" lon="-3.73861">
        <ele>244.7</ele>
        <time>2022-12-08T11:14:57Z</time>
      </trkpt>
      <trkpt lat="48.14284" lon="-3.73855">
        <ele>244.8</ele>
        <time>2022-12-08T11:14:59Z</time>
      </trkpt>
      <trkpt lat="48.14282" lon="-3.73847">
        <ele>244.9</ele>
        <time>2022-12-08T11:15:00Z</time>
      </trkpt>
      <trkpt lat="48.1428" lon="-3.7384">
        <ele>244.9</ele>
        <time>2022-12-08T11:15:01Z</time>
      </trkpt>
      <trkpt lat="48.14279" lon="-3.73833">
        <ele>245</ele>
        <time>2022-12-08T11:15:02Z</time>
      </trkpt>
      <trkpt lat="48.14278" lon="-3.73827">
        <ele>245</ele>
        <time>2022-12-08T11:15:03Z</time>
      </trkpt>
      <trkpt lat="48.14277" lon="-3.73821">
        <ele>245.1</ele>
        <time>2022-12-08T11:15:04Z</time>
      </trkpt>
      <trkpt lat="48.14275" lon="-3.73814">
        <ele>245.1</ele>
        <time>2022-12-08T11:15:05Z</time>
      </trkpt>
      <trkpt lat="48.14275" lon="-3.73808">
        <ele>245.1</ele>
        <time>2022-12-08T11:15:06Z</time>
      </trkpt>
      <trkpt lat="48.14273" lon="-3.73794">
        <ele>245.1</ele>
        <time>2022-12-08T11:15:08Z</time>
      </trkpt>
      <trkpt lat="48.1427" lon="-3.73781">
        <ele>245.1</ele>
        <time>2022-12-08T11:15:10Z</time>
      </trkpt>
      <trkpt lat="48.14269" lon="-3.73774">
        <ele>245</ele>
        <time>2022-12-08T11:15:11Z</time>
      </trkpt>
      <trkpt lat="48.14267" lon="-3.73767">
        <ele>245</ele>
        <time>2022-12-08T11:15:12Z</time>
      </trkpt>
      <trkpt lat="48.14266" lon="-3.7376">
        <ele>245</ele>
        <time>2022-12-08T11:15:13Z</time>
      </trkpt>
      <trkpt lat="48.14265" lon="-3.73753">
        <ele>244.9</ele>
        <time>2022-12-08T11:15:14Z</time>
      </trkpt>
      <trkpt lat="48.14265" lon="-3.73746">
        <ele>244.8</ele>
        <time>2022-12-08T11:15:15Z</time>
      </trkpt>
      <trkpt lat="48.14264" lon="-3.73739">
        <ele>244.8</ele>
        <time>2022-12-08T11:15:16Z</time>
      </trkpt>
      <trkpt lat="48.14263" lon="-3.73731">
        <ele>244.7</ele>
        <time>2022-12-08T11:15:17Z</time>
      </trkpt>
      <trkpt lat="48.14262" lon="-3.73724">
        <ele>244.7</ele>
        <time>2022-12-08T11:15:18Z</time>
      </trkpt>
      <trkpt lat="48.1426" lon="-3.73717">
        <ele>244.6</ele>
        <time>2022-12-08T11:15:19Z</time>
      </trkpt>
      <trkpt lat="48.14259" lon="-3.7371">
        <ele>244.5</ele>
        <time>2022-12-08T11:15:20Z</time>
      </trkpt>
      <trkpt lat="48.14258" lon="-3.73702">
        <ele>244.4</ele>
        <time>2022-12-08T11:15:21Z</time>
      </trkpt>
      <trkpt lat="48.14258" lon="-3.73694">
        <ele>244.4</ele>
        <time>2022-12-08T11:15:22Z</time>
      </trkpt>
      <trkpt lat="48.14257" lon="-3.73687">
        <ele>244.3</ele>
        <time>2022-12-08T11:15:23Z</time>
      </trkpt>
      <trkpt lat="48.14257" lon="-3.7368">
        <ele>244.2</ele>
        <time>2022-12-08T11:15:24Z</time>
      </trkpt>
      <trkpt lat="48.14256" lon="-3.73673">
        <ele>244.2</ele>
        <time>2022-12-08T11:15:25Z</time>
      </trkpt>
      <trkpt lat="48.14255" lon="-3.73665">
        <ele>244.1</ele>
        <time>2022-12-08T11:15:26Z</time>
      </trkpt>
      <trkpt lat="48.14255" lon="-3.73658">
        <ele>244.1</ele>
        <time>2022-12-08T11:15:27Z</time>
      </trkpt>
      <trkpt lat="48.14255" lon="-3.73651">
        <ele>244</ele>
        <time>2022-12-08T11:15:28Z</time>
      </trkpt>
      <trkpt lat="48.14254" lon="-3.73643">
        <ele>244</ele>
        <time>2022-12-08T11:15:29Z</time>
      </trkpt>
      <trkpt lat="48.14254" lon="-3.73637">
        <ele>243.9</ele>
        <time>2022-12-08T11:15:30Z</time>
      </trkpt>
      <trkpt lat="48.14254" lon="-3.7363">
        <ele>243.8</ele>
        <time>2022-12-08T11:15:31Z</time>
      </trkpt>
      <trkpt lat="48.14254" lon="-3.73622">
        <ele>243.8</ele>
        <time>2022-12-08T11:15:32Z</time>
      </trkpt>
      <trkpt lat="48.14254" lon="-3.73615">
        <ele>243.7</ele>
        <time>2022-12-08T11:15:33Z</time>
      </trkpt>
      <trkpt lat="48.14253" lon="-3.73608">
        <ele>243.6</ele>
        <time>2022-12-08T11:15:34Z</time>
      </trkpt>
      <trkpt lat="48.14253" lon="-3.73601">
        <ele>243.6</ele>
        <time>2022-12-08T11:15:35Z</time>
      </trkpt>
      <trkpt lat="48.14252" lon="-3.73593">
        <ele>243.5</ele>
        <time>2022-12-08T11:15:36Z</time>
      </trkpt>
      <trkpt lat="48.14252" lon="-3.73586">
        <ele>243.4</ele>
        <time>2022-12-08T11:15:37Z</time>
      </trkpt>
      <trkpt lat="48.14252" lon="-3.73579">
        <ele>243.4</ele>
        <time>2022-12-08T11:15:38Z</time>
      </trkpt>
      <trkpt lat="48.14252" lon="-3.73572">
        <ele>243.3</ele>
        <time>2022-12-08T11:15:39Z</time>
      </trkpt>
      <trkpt lat="48.14252" lon="-3.73565">
        <ele>243.3</ele>
        <time>2022-12-08T11:15:40Z</time>
      </trkpt>
      <trkpt lat="48.14252" lon="-3.73557">
        <ele>243.3</ele>
        <time>2022-12-08T11:15:41Z</time>
      </trkpt>
      <trkpt lat="48.14253" lon="-3.7355">
        <ele>243.3</ele>
        <time>2022-12-08T11:15:42Z</time>
      </trkpt>
      <trkpt lat="48.14253" lon="-3.73543">
        <ele>243.2</ele>
        <time>2022-12-08T11:15:43Z</time>
      </trkpt>
      <trkpt lat="48.14253" lon="-3.73536">
        <ele>243.2</ele>
        <time>2022-12-08T11:15:44Z</time>
      </trkpt>
      <trkpt lat="48.14253" lon="-3.73529">
        <ele>243.2</ele>
        <time>2022-12-08T11:15:45Z</time>
      </trkpt>
      <trkpt lat="48.14253" lon="-3.73521">
        <ele>243.1</ele>
        <time>2022-12-08T11:15:46Z</time>
      </trkpt>
      <trkpt lat="48.14254" lon="-3.73514">
        <ele>243.1</ele>
        <time>2022-12-08T11:15:47Z</time>
      </trkpt>
      <trkpt lat="48.14254" lon="-3.73506">
        <ele>243</ele>
        <time>2022-12-08T11:15:48Z</time>
      </trkpt>
      <trkpt lat="48.14254" lon="-3.73499">
        <ele>243</ele>
        <time>2022-12-08T11:15:49Z</time>
      </trkpt>
      <trkpt lat="48.14254" lon="-3.73492">
        <ele>242.9</ele>
        <time>2022-12-08T11:15:50Z</time>
      </trkpt>
      <trkpt lat="48.14254" lon="-3.73484">
        <ele>242.9</ele>
        <time>2022-12-08T11:15:51Z</time>
      </trkpt>
      <trkpt lat="48.14254" lon="-3.73477">
        <ele>242.8</ele>
        <time>2022-12-08T11:15:52Z</time>
      </trkpt>
      <trkpt lat="48.14254" lon="-3.73469">
        <ele>242.8</ele>
        <time>2022-12-08T11:15:53Z</time>
      </trkpt>
      <trkpt lat="48.14254" lon="-3.73462">
        <ele>242.7</ele>
        <time>2022-12-08T11:15:54Z</time>
      </trkpt>
      <trkpt lat="48.14254" lon="-3.73454">
        <ele>242.7</ele>
        <time>2022-12-08T11:15:55Z</time>
      </trkpt>
      <trkpt lat="48.14254" lon="-3.73447">
        <ele>242.6</ele>
        <time>2022-12-08T11:15:56Z</time>
      </trkpt>
      <trkpt lat="48.14254" lon="-3.73439">
        <ele>242.6</ele>
        <time>2022-12-08T11:15:57Z</time>
      </trkpt>
      <trkpt lat="48.14254" lon="-3.73431">
        <ele>242.5</ele>
        <time>2022-12-08T11:15:58Z</time>
      </trkpt>
      <trkpt lat="48.14254" lon="-3.73424">
        <ele>242.5</ele>
        <time>2022-12-08T11:15:59Z</time>
      </trkpt>
      <trkpt lat="48.14254" lon="-3.73416">
        <ele>242.5</ele>
        <time>2022-12-08T11:16:00Z</time>
      </trkpt>
      <trkpt lat="48.14254" lon="-3.73409">
        <ele>242.4</ele>
        <time>2022-12-08T11:16:01Z</time>
      </trkpt>
      <trkpt lat="48.14254" lon="-3.73401">
        <ele>242.4</ele>
        <time>2022-12-08T11:16:02Z</time>
      </trkpt>
      <trkpt lat="48.14254" lon="-3.73393">
        <ele>242.4</ele>
        <time>2022-12-08T11:16:03Z</time>
      </trkpt>
      <trkpt lat="48.14254" lon="-3.73386">
        <ele>242.4</ele>
        <time>2022-12-08T11:16:04Z</time>
      </trkpt>
      <trkpt lat="48.14254" lon="-3.73378">
        <ele>242.3</ele>
        <time>2022-12-08T11:16:05Z</time>
      </trkpt>
      <trkpt lat="48.14253" lon="-3.73371">
        <ele>242.2</ele>
        <time>2022-12-08T11:16:06Z</time>
      </trkpt>
      <trkpt lat="48.14252" lon="-3.73363">
        <ele>242.2</ele>
        <time>2022-12-08T11:16:07Z</time>
      </trkpt>
      <trkpt lat="48.14252" lon="-3.73356">
        <ele>242.1</ele>
        <time>2022-12-08T11:16:08Z</time>
      </trkpt>
      <trkpt lat="48.14251" lon="-3.73349">
        <ele>242</ele>
        <time>2022-12-08T11:16:09Z</time>
      </trkpt>
      <trkpt lat="48.14249" lon="-3.73342">
        <ele>241.9</ele>
        <time>2022-12-08T11:16:10Z</time>
      </trkpt>
      <trkpt lat="48.14247" lon="-3.73334">
        <ele>241.8</ele>
        <time>2022-12-08T11:16:11Z</time>
      </trkpt>
      <trkpt lat="48.14245" lon="-3.73327">
        <ele>241.7</ele>
        <time>2022-12-08T11:16:12Z</time>
      </trkpt>
      <trkpt lat="48.14244" lon="-3.73319">
        <ele>241.5</ele>
        <time>2022-12-08T11:16:13Z</time>
      </trkpt>
      <trkpt lat="48.14244" lon="-3.73311">
        <ele>241.4</ele>
        <time>2022-12-08T11:16:14Z</time>
      </trkpt>
      <trkpt lat="48.14244" lon="-3.73303">
        <ele>241.5</ele>
        <time>2022-12-08T11:16:15Z</time>
      </trkpt>
      <trkpt lat="48.14245" lon="-3.73296">
        <ele>241.7</ele>
        <time>2022-12-08T11:16:16Z</time>
      </trkpt>
      <trkpt lat="48.14248" lon="-3.7329">
        <ele>241.9</ele>
        <time>2022-12-08T11:16:17Z</time>
      </trkpt>
      <trkpt lat="48.14251" lon="-3.73284">
        <ele>242.1</ele>
        <time>2022-12-08T11:16:18Z</time>
      </trkpt>
      <trkpt lat="48.14254" lon="-3.7328">
        <ele>242.2</ele>
        <time>2022-12-08T11:16:19Z</time>
      </trkpt>
      <trkpt lat="48.14258" lon="-3.73276">
        <ele>242.4</ele>
        <time>2022-12-08T11:16:20Z</time>
      </trkpt>
      <trkpt lat="48.14262" lon="-3.73272">
        <ele>242.5</ele>
        <time>2022-12-08T11:16:21Z</time>
      </trkpt>
      <trkpt lat="48.14263" lon="-3.73271">
        <ele>242.6</ele>
        <time>2022-12-08T11:16:22Z</time>
      </trkpt>
      <trkpt lat="48.14266" lon="-3.73268">
        <ele>242.8</ele>
        <time>2022-12-08T11:16:23Z</time>
      </trkpt>
      <trkpt lat="48.14269" lon="-3.73265">
        <ele>243</ele>
        <time>2022-12-08T11:16:24Z</time>
      </trkpt>
      <trkpt lat="48.14272" lon="-3.73261">
        <ele>243.2</ele>
        <time>2022-12-08T11:16:25Z</time>
      </trkpt>
      <trkpt lat="48.14275" lon="-3.73259">
        <ele>243.4</ele>
        <time>2022-12-08T11:16:26Z</time>
      </trkpt>
      <trkpt lat="48.14278" lon="-3.73256">
        <ele>243.6</ele>
        <time>2022-12-08T11:16:27Z</time>
      </trkpt>
      <trkpt lat="48.14277" lon="-3.73256">
        <ele>243.7</ele>
        <time>2022-12-08T11:16:28Z</time>
      </trkpt>
      <trkpt lat="48.14283" lon="-3.7325">
        <ele>244.2</ele>
        <time>2022-12-08T11:16:30Z</time>
      </trkpt>
      <trkpt lat="48.14286" lon="-3.73246">
        <ele>244.4</ele>
        <time>2022-12-08T11:16:31Z</time>
      </trkpt>
      <trkpt lat="48.14289" lon="-3.73243">
        <ele>244.7</ele>
        <time>2022-12-08T11:16:32Z</time>
      </trkpt>
      <trkpt lat="48.14293" lon="-3.73239">
        <ele>244.9</ele>
        <time>2022-12-08T11:16:33Z</time>
      </trkpt>
      <trkpt lat="48.14296" lon="-3.73236">
        <ele>245.2</ele>
        <time>2022-12-08T11:16:34Z</time>
      </trkpt>
      <trkpt lat="48.143" lon="-3.73231">
        <ele>245.5</ele>
        <time>2022-12-08T11:16:36Z</time>
      </trkpt>
      <trkpt lat="48.14304" lon="-3.73227">
        <ele>245.9</ele>
        <time>2022-12-08T11:16:37Z</time>
      </trkpt>
      <trkpt lat="48.14307" lon="-3.73224">
        <ele>246.1</ele>
        <time>2022-12-08T11:16:38Z</time>
      </trkpt>
      <trkpt lat="48.14309" lon="-3.73222">
        <ele>246.3</ele>
        <time>2022-12-08T11:16:39Z</time>
      </trkpt>
      <trkpt lat="48.14313" lon="-3.73218">
        <ele>246.5</ele>
        <time>2022-12-08T11:16:41Z</time>
      </trkpt>
      <trkpt lat="48.14316" lon="-3.73213">
        <ele>246.9</ele>
        <time>2022-12-08T11:16:42Z</time>
      </trkpt>
      <trkpt lat="48.14319" lon="-3.7321">
        <ele>247.1</ele>
        <time>2022-12-08T11:16:43Z</time>
      </trkpt>
      <trkpt lat="48.14322" lon="-3.73208">
        <ele>247.4</ele>
        <time>2022-12-08T11:16:44Z</time>
      </trkpt>
      <trkpt lat="48.14325" lon="-3.73206">
        <ele>247.6</ele>
        <time>2022-12-08T11:16:45Z</time>
      </trkpt>
      <trkpt lat="48.14329" lon="-3.73201">
        <ele>248</ele>
        <time>2022-12-08T11:16:47Z</time>
      </trkpt>
      <trkpt lat="48.14332" lon="-3.73198">
        <ele>248.3</ele>
        <time>2022-12-08T11:16:48Z</time>
      </trkpt>
      <trkpt lat="48.14335" lon="-3.73195">
        <ele>248.5</ele>
        <time>2022-12-08T11:16:49Z</time>
      </trkpt>
      <trkpt lat="48.14337" lon="-3.73192">
        <ele>248.8</ele>
        <time>2022-12-08T11:16:50Z</time>
      </trkpt>
      <trkpt lat="48.14341" lon="-3.73188">
        <ele>249.2</ele>
        <time>2022-12-08T11:16:51Z</time>
      </trkpt>
      <trkpt lat="48.14343" lon="-3.73185">
        <ele>249.4</ele>
        <time>2022-12-08T11:16:52Z</time>
      </trkpt>
      <trkpt lat="48.14345" lon="-3.73183">
        <ele>249.6</ele>
        <time>2022-12-08T11:16:53Z</time>
      </trkpt>
      <trkpt lat="48.14349" lon="-3.73179">
        <ele>250</ele>
        <time>2022-12-08T11:16:55Z</time>
      </trkpt>
      <trkpt lat="48.14353" lon="-3.73175">
        <ele>250.4</ele>
        <time>2022-12-08T11:16:56Z</time>
      </trkpt>
      <trkpt lat="48.14355" lon="-3.73172">
        <ele>250.6</ele>
        <time>2022-12-08T11:16:57Z</time>
      </trkpt>
      <trkpt lat="48.14358" lon="-3.7317">
        <ele>250.8</ele>
        <time>2022-12-08T11:16:58Z</time>
      </trkpt>
      <trkpt lat="48.1436" lon="-3.73167">
        <ele>251.1</ele>
        <time>2022-12-08T11:16:59Z</time>
      </trkpt>
      <trkpt lat="48.14363" lon="-3.73164">
        <ele>251.3</ele>
        <time>2022-12-08T11:17:00Z</time>
      </trkpt>
      <trkpt lat="48.14365" lon="-3.73161">
        <ele>251.5</ele>
        <time>2022-12-08T11:17:01Z</time>
      </trkpt>
      <trkpt lat="48.14367" lon="-3.73158">
        <ele>251.8</ele>
        <time>2022-12-08T11:17:02Z</time>
      </trkpt>
      <trkpt lat="48.1437" lon="-3.73156">
        <ele>252</ele>
        <time>2022-12-08T11:17:03Z</time>
      </trkpt>
      <trkpt lat="48.14372" lon="-3.73153">
        <ele>252.2</ele>
        <time>2022-12-08T11:17:04Z</time>
      </trkpt>
      <trkpt lat="48.14375" lon="-3.73151">
        <ele>252.4</ele>
        <time>2022-12-08T11:17:05Z</time>
      </trkpt>
      <trkpt lat="48.14377" lon="-3.73149">
        <ele>252.6</ele>
        <time>2022-12-08T11:17:06Z</time>
      </trkpt>
      <trkpt lat="48.14378" lon="-3.73148">
        <ele>252.6</ele>
        <time>2022-12-08T11:17:07Z</time>
      </trkpt>
      <trkpt lat="48.14379" lon="-3.73147">
        <ele>252.8</ele>
        <time>2022-12-08T11:17:08Z</time>
      </trkpt>
      <trkpt lat="48.1438" lon="-3.73146">
        <ele>252.8</ele>
        <time>2022-12-08T11:17:09Z</time>
      </trkpt>
      <trkpt lat="48.14381" lon="-3.73145">
        <ele>252.9</ele>
        <time>2022-12-08T11:17:11Z</time>
      </trkpt>
      <trkpt lat="48.14382" lon="-3.73144">
        <ele>253</ele>
        <time>2022-12-08T11:17:12Z</time>
      </trkpt>
      <trkpt lat="48.14384" lon="-3.73142">
        <ele>253.2</ele>
        <time>2022-12-08T11:17:13Z</time>
      </trkpt>
      <trkpt lat="48.14385" lon="-3.73141">
        <ele>253.3</ele>
        <time>2022-12-08T11:17:15Z</time>
      </trkpt>
      <trkpt lat="48.14386" lon="-3.73139">
        <ele>253.4</ele>
        <time>2022-12-08T11:17:16Z</time>
      </trkpt>
      <trkpt lat="48.14387" lon="-3.73138">
        <ele>253.5</ele>
        <time>2022-12-08T11:17:17Z</time>
      </trkpt>
      <trkpt lat="48.1439" lon="-3.73135">
        <ele>253.8</ele>
        <time>2022-12-08T11:17:18Z</time>
      </trkpt>
      <trkpt lat="48.14391" lon="-3.73133">
        <ele>253.9</ele>
        <time>2022-12-08T11:17:19Z</time>
      </trkpt>
      <trkpt lat="48.14394" lon="-3.7313">
        <ele>254.2</ele>
        <time>2022-12-08T11:17:21Z</time>
      </trkpt>
      <trkpt lat="48.14397" lon="-3.73126">
        <ele>254.5</ele>
        <time>2022-12-08T11:17:22Z</time>
      </trkpt>
      <trkpt lat="48.14402" lon="-3.73121">
        <ele>254.9</ele>
        <time>2022-12-08T11:17:23Z</time>
      </trkpt>
      <trkpt lat="48.14405" lon="-3.73117">
        <ele>255.2</ele>
        <time>2022-12-08T11:17:24Z</time>
      </trkpt>
      <trkpt lat="48.14408" lon="-3.73114">
        <ele>255.5</ele>
        <time>2022-12-08T11:17:25Z</time>
      </trkpt>
      <trkpt lat="48.14411" lon="-3.7311">
        <ele>255.7</ele>
        <time>2022-12-08T11:17:26Z</time>
      </trkpt>
      <trkpt lat="48.14415" lon="-3.73107">
        <ele>256</ele>
        <time>2022-12-08T11:17:27Z</time>
      </trkpt>
      <trkpt lat="48.14418" lon="-3.73103">
        <ele>256.3</ele>
        <time>2022-12-08T11:17:28Z</time>
      </trkpt>
      <trkpt lat="48.14423" lon="-3.73097">
        <ele>256.7</ele>
        <time>2022-12-08T11:17:30Z</time>
      </trkpt>
      <trkpt lat="48.14426" lon="-3.73093">
        <ele>257</ele>
        <time>2022-12-08T11:17:31Z</time>
      </trkpt>
      <trkpt lat="48.14431" lon="-3.73087">
        <ele>257.4</ele>
        <time>2022-12-08T11:17:32Z</time>
      </trkpt>
      <trkpt lat="48.14434" lon="-3.73084">
        <ele>257.7</ele>
        <time>2022-12-08T11:17:33Z</time>
      </trkpt>
      <trkpt lat="48.14438" lon="-3.73081">
        <ele>257.9</ele>
        <time>2022-12-08T11:17:34Z</time>
      </trkpt>
      <trkpt lat="48.14441" lon="-3.73078">
        <ele>258.2</ele>
        <time>2022-12-08T11:17:35Z</time>
      </trkpt>
      <trkpt lat="48.14445" lon="-3.73072">
        <ele>258.6</ele>
        <time>2022-12-08T11:17:37Z</time>
      </trkpt>
      <trkpt lat="48.1445" lon="-3.73068">
        <ele>258.9</ele>
        <time>2022-12-08T11:17:38Z</time>
      </trkpt>
      <trkpt lat="48.14454" lon="-3.73064">
        <ele>259.3</ele>
        <time>2022-12-08T11:17:40Z</time>
      </trkpt>
      <trkpt lat="48.14459" lon="-3.7306">
        <ele>259.6</ele>
        <time>2022-12-08T11:17:41Z</time>
      </trkpt>
      <trkpt lat="48.14462" lon="-3.73056">
        <ele>259.9</ele>
        <time>2022-12-08T11:17:42Z</time>
      </trkpt>
      <trkpt lat="48.14465" lon="-3.73053">
        <ele>260.1</ele>
        <time>2022-12-08T11:17:43Z</time>
      </trkpt>
      <trkpt lat="48.14467" lon="-3.7305">
        <ele>260.3</ele>
        <time>2022-12-08T11:17:44Z</time>
      </trkpt>
      <trkpt lat="48.14471" lon="-3.73046">
        <ele>260.5</ele>
        <time>2022-12-08T11:17:45Z</time>
      </trkpt>
      <trkpt lat="48.14474" lon="-3.73043">
        <ele>260.7</ele>
        <time>2022-12-08T11:17:46Z</time>
      </trkpt>
      <trkpt lat="48.14477" lon="-3.7304">
        <ele>260.9</ele>
        <time>2022-12-08T11:17:47Z</time>
      </trkpt>
      <trkpt lat="48.1448" lon="-3.73036">
        <ele>261</ele>
        <time>2022-12-08T11:17:48Z</time>
      </trkpt>
      <trkpt lat="48.14488" lon="-3.73029">
        <ele>261.3</ele>
        <time>2022-12-08T11:17:49Z</time>
      </trkpt>
      <trkpt lat="48.14495" lon="-3.73023">
        <ele>261.5</ele>
        <time>2022-12-08T11:17:50Z</time>
      </trkpt>
      <trkpt lat="48.14498" lon="-3.7302">
        <ele>261.6</ele>
        <time>2022-12-08T11:17:51Z</time>
      </trkpt>
      <trkpt lat="48.14504" lon="-3.73014">
        <ele>261.6</ele>
        <time>2022-12-08T11:17:53Z</time>
      </trkpt>
      <trkpt lat="48.14507" lon="-3.7301">
        <ele>261.6</ele>
        <time>2022-12-08T11:17:54Z</time>
      </trkpt>
      <trkpt lat="48.14511" lon="-3.73006">
        <ele>261.6</ele>
        <time>2022-12-08T11:17:55Z</time>
      </trkpt>
      <trkpt lat="48.14514" lon="-3.73003">
        <ele>261.6</ele>
        <time>2022-12-08T11:17:56Z</time>
      </trkpt>
      <trkpt lat="48.1452" lon="-3.72996">
        <ele>261.6</ele>
        <time>2022-12-08T11:17:58Z</time>
      </trkpt>
      <trkpt lat="48.14523" lon="-3.72992">
        <ele>261.6</ele>
        <time>2022-12-08T11:17:59Z</time>
      </trkpt>
      <trkpt lat="48.14529" lon="-3.72987">
        <ele>261.6</ele>
        <time>2022-12-08T11:18:01Z</time>
      </trkpt>
      <trkpt lat="48.14534" lon="-3.72982">
        <ele>261.6</ele>
        <time>2022-12-08T11:18:02Z</time>
      </trkpt>
      <trkpt lat="48.14538" lon="-3.72978">
        <ele>261.5</ele>
        <time>2022-12-08T11:18:03Z</time>
      </trkpt>
      <trkpt lat="48.14542" lon="-3.72974">
        <ele>261.4</ele>
        <time>2022-12-08T11:18:04Z</time>
      </trkpt>
      <trkpt lat="48.14546" lon="-3.72969">
        <ele>261.3</ele>
        <time>2022-12-08T11:18:05Z</time>
      </trkpt>
      <trkpt lat="48.14549" lon="-3.72964">
        <ele>261.2</ele>
        <time>2022-12-08T11:18:06Z</time>
      </trkpt>
      <trkpt lat="48.14553" lon="-3.7296">
        <ele>261.1</ele>
        <time>2022-12-08T11:18:07Z</time>
      </trkpt>
      <trkpt lat="48.14556" lon="-3.72955">
        <ele>261</ele>
        <time>2022-12-08T11:18:08Z</time>
      </trkpt>
      <trkpt lat="48.1456" lon="-3.7295">
        <ele>260.8</ele>
        <time>2022-12-08T11:18:09Z</time>
      </trkpt>
      <trkpt lat="48.14563" lon="-3.72945">
        <ele>260.7</ele>
        <time>2022-12-08T11:18:10Z</time>
      </trkpt>
      <trkpt lat="48.14566" lon="-3.7294">
        <ele>260.7</ele>
        <time>2022-12-08T11:18:11Z</time>
      </trkpt>
      <trkpt lat="48.14569" lon="-3.72934">
        <ele>260.6</ele>
        <time>2022-12-08T11:18:12Z</time>
      </trkpt>
      <trkpt lat="48.14573" lon="-3.72929">
        <ele>260.5</ele>
        <time>2022-12-08T11:18:13Z</time>
      </trkpt>
      <trkpt lat="48.14575" lon="-3.72923">
        <ele>260.4</ele>
        <time>2022-12-08T11:18:14Z</time>
      </trkpt>
      <trkpt lat="48.14578" lon="-3.72918">
        <ele>260.4</ele>
        <time>2022-12-08T11:18:15Z</time>
      </trkpt>
      <trkpt lat="48.14582" lon="-3.72915">
        <ele>260.4</ele>
        <time>2022-12-08T11:18:17Z</time>
      </trkpt>
      <trkpt lat="48.14584" lon="-3.72909">
        <ele>260.4</ele>
        <time>2022-12-08T11:18:18Z</time>
      </trkpt>
      <trkpt lat="48.14585" lon="-3.72904">
        <ele>260.4</ele>
        <time>2022-12-08T11:18:19Z</time>
      </trkpt>
      <trkpt lat="48.14587" lon="-3.72899">
        <ele>260.4</ele>
        <time>2022-12-08T11:18:20Z</time>
      </trkpt>
      <trkpt lat="48.14588" lon="-3.72895">
        <ele>260.4</ele>
        <time>2022-12-08T11:18:21Z</time>
      </trkpt>
      <trkpt lat="48.14588" lon="-3.7289">
        <ele>260.4</ele>
        <time>2022-12-08T11:18:22Z</time>
      </trkpt>
      <trkpt lat="48.14588" lon="-3.72884">
        <ele>260.4</ele>
        <time>2022-12-08T11:18:23Z</time>
      </trkpt>
      <trkpt lat="48.14585" lon="-3.72878">
        <ele>260.4</ele>
        <time>2022-12-08T11:18:24Z</time>
      </trkpt>
      <trkpt lat="48.14583" lon="-3.72874">
        <ele>260.4</ele>
        <time>2022-12-08T11:18:25Z</time>
      </trkpt>
      <trkpt lat="48.1458" lon="-3.7287">
        <ele>260.3</ele>
        <time>2022-12-08T11:18:26Z</time>
      </trkpt>
      <trkpt lat="48.14578" lon="-3.72867">
        <ele>260.3</ele>
        <time>2022-12-08T11:18:27Z</time>
      </trkpt>
      <trkpt lat="48.14577" lon="-3.72863">
        <ele>260.3</ele>
        <time>2022-12-08T11:18:28Z</time>
      </trkpt>
      <trkpt lat="48.14574" lon="-3.72857">
        <ele>260.3</ele>
        <time>2022-12-08T11:18:30Z</time>
      </trkpt>
      <trkpt lat="48.14571" lon="-3.7285">
        <ele>260.3</ele>
        <time>2022-12-08T11:18:31Z</time>
      </trkpt>
      <trkpt lat="48.14569" lon="-3.72846">
        <ele>260.4</ele>
        <time>2022-12-08T11:18:32Z</time>
      </trkpt>
      <trkpt lat="48.14567" lon="-3.72842">
        <ele>260.4</ele>
        <time>2022-12-08T11:18:33Z</time>
      </trkpt>
      <trkpt lat="48.14565" lon="-3.72838">
        <ele>260.4</ele>
        <time>2022-12-08T11:18:34Z</time>
      </trkpt>
      <trkpt lat="48.14563" lon="-3.72834">
        <ele>260.5</ele>
        <time>2022-12-08T11:18:35Z</time>
      </trkpt>
      <trkpt lat="48.1456" lon="-3.72828">
        <ele>260.5</ele>
        <time>2022-12-08T11:18:37Z</time>
      </trkpt>
      <trkpt lat="48.14558" lon="-3.72824">
        <ele>260.6</ele>
        <time>2022-12-08T11:18:38Z</time>
      </trkpt>
      <trkpt lat="48.14555" lon="-3.72818">
        <ele>260.6</ele>
        <time>2022-12-08T11:18:39Z</time>
      </trkpt>
      <trkpt lat="48.14553" lon="-3.72814">
        <ele>260.7</ele>
        <time>2022-12-08T11:18:40Z</time>
      </trkpt>
      <trkpt lat="48.14551" lon="-3.72811">
        <ele>260.7</ele>
        <time>2022-12-08T11:18:41Z</time>
      </trkpt>
      <trkpt lat="48.14548" lon="-3.72808">
        <ele>260.7</ele>
        <time>2022-12-08T11:18:42Z</time>
      </trkpt>
      <trkpt lat="48.14546" lon="-3.72804">
        <ele>260.8</ele>
        <time>2022-12-08T11:18:43Z</time>
      </trkpt>
      <trkpt lat="48.14544" lon="-3.72802">
        <ele>260.9</ele>
        <time>2022-12-08T11:18:44Z</time>
      </trkpt>
      <trkpt lat="48.14541" lon="-3.72803">
        <ele>260.9</ele>
        <time>2022-12-08T11:18:45Z</time>
      </trkpt>
      <trkpt lat="48.14538" lon="-3.72806">
        <ele>261</ele>
        <time>2022-12-08T11:18:46Z</time>
      </trkpt>
      <trkpt lat="48.14539" lon="-3.72811">
        <ele>261</ele>
        <time>2022-12-08T11:18:47Z</time>
      </trkpt>
      <trkpt lat="48.14542" lon="-3.72813">
        <ele>261.1</ele>
        <time>2022-12-08T11:18:48Z</time>
      </trkpt>
      <trkpt lat="48.14544" lon="-3.72811">
        <ele>261.1</ele>
        <time>2022-12-08T11:18:49Z</time>
      </trkpt>
      <trkpt lat="48.14546" lon="-3.72807">
        <ele>261.2</ele>
        <time>2022-12-08T11:18:50Z</time>
      </trkpt>
      <trkpt lat="48.14545" lon="-3.72798">
        <ele>261.4</ele>
        <time>2022-12-08T11:18:52Z</time>
      </trkpt>
      <trkpt lat="48.14543" lon="-3.72794">
        <ele>261.5</ele>
        <time>2022-12-08T11:18:53Z</time>
      </trkpt>
      <trkpt lat="48.14541" lon="-3.72789">
        <ele>261.6</ele>
        <time>2022-12-08T11:18:54Z</time>
      </trkpt>
      <trkpt lat="48.1454" lon="-3.72785">
        <ele>261.7</ele>
        <time>2022-12-08T11:18:55Z</time>
      </trkpt>
      <trkpt lat="48.1454" lon="-3.72775">
        <ele>261.9</ele>
        <time>2022-12-08T11:18:57Z</time>
      </trkpt>
      <trkpt lat="48.14539" lon="-3.72771">
        <ele>262</ele>
        <time>2022-12-08T11:18:58Z</time>
      </trkpt>
      <trkpt lat="48.14539" lon="-3.72766">
        <ele>262.2</ele>
        <time>2022-12-08T11:19:00Z</time>
      </trkpt>
      <trkpt lat="48.14539" lon="-3.72761">
        <ele>262.4</ele>
        <time>2022-12-08T11:19:01Z</time>
      </trkpt>
      <trkpt lat="48.14539" lon="-3.72755">
        <ele>262.7</ele>
        <time>2022-12-08T11:19:02Z</time>
      </trkpt>
      <trkpt lat="48.14539" lon="-3.72753">
        <ele>262.8</ele>
        <time>2022-12-08T11:19:03Z</time>
      </trkpt>
      <trkpt lat="48.14538" lon="-3.72749">
        <ele>263.1</ele>
        <time>2022-12-08T11:19:04Z</time>
      </trkpt>
      <trkpt lat="48.14538" lon="-3.72748">
        <ele>263.2</ele>
        <time>2022-12-08T11:19:05Z</time>
      </trkpt>
      <trkpt lat="48.14537" lon="-3.72742">
        <ele>263.5</ele>
        <time>2022-12-08T11:19:06Z</time>
      </trkpt>
      <trkpt lat="48.14536" lon="-3.72741">
        <ele>263.6</ele>
        <time>2022-12-08T11:19:07Z</time>
      </trkpt>
      <trkpt lat="48.14536" lon="-3.72736">
        <ele>263.9</ele>
        <time>2022-12-08T11:19:08Z</time>
      </trkpt>
      <trkpt lat="48.14535" lon="-3.72734">
        <ele>264</ele>
        <time>2022-12-08T11:19:09Z</time>
      </trkpt>
      <trkpt lat="48.14535" lon="-3.72732">
        <ele>264.2</ele>
        <time>2022-12-08T11:19:10Z</time>
      </trkpt>
      <trkpt lat="48.14536" lon="-3.7273">
        <ele>264.3</ele>
        <time>2022-12-08T11:19:11Z</time>
      </trkpt>
      <trkpt lat="48.14535" lon="-3.72726">
        <ele>264.5</ele>
        <time>2022-12-08T11:19:12Z</time>
      </trkpt>
      <trkpt lat="48.14535" lon="-3.72724">
        <ele>264.6</ele>
        <time>2022-12-08T11:19:13Z</time>
      </trkpt>
      <trkpt lat="48.14535" lon="-3.7272">
        <ele>264.9</ele>
        <time>2022-12-08T11:19:14Z</time>
      </trkpt>
      <trkpt lat="48.14535" lon="-3.72719">
        <ele>265</ele>
        <time>2022-12-08T11:19:15Z</time>
      </trkpt>
      <trkpt lat="48.14535" lon="-3.72715">
        <ele>265.2</ele>
        <time>2022-12-08T11:19:16Z</time>
      </trkpt>
      <trkpt lat="48.14535" lon="-3.72713">
        <ele>265.3</ele>
        <time>2022-12-08T11:19:17Z</time>
      </trkpt>
      <trkpt lat="48.14535" lon="-3.72709">
        <ele>265.6</ele>
        <time>2022-12-08T11:19:18Z</time>
      </trkpt>
      <trkpt lat="48.14535" lon="-3.72707">
        <ele>265.7</ele>
        <time>2022-12-08T11:19:19Z</time>
      </trkpt>
      <trkpt lat="48.14534" lon="-3.72703">
        <ele>266</ele>
        <time>2022-12-08T11:19:20Z</time>
      </trkpt>
      <trkpt lat="48.14534" lon="-3.72701">
        <ele>266.1</ele>
        <time>2022-12-08T11:19:21Z</time>
      </trkpt>
      <trkpt lat="48.14534" lon="-3.72697">
        <ele>266.4</ele>
        <time>2022-12-08T11:19:22Z</time>
      </trkpt>
      <trkpt lat="48.14534" lon="-3.72695">
        <ele>266.5</ele>
        <time>2022-12-08T11:19:23Z</time>
      </trkpt>
      <trkpt lat="48.14534" lon="-3.7269">
        <ele>266.8</ele>
        <time>2022-12-08T11:19:24Z</time>
      </trkpt>
      <trkpt lat="48.14534" lon="-3.72689">
        <ele>266.9</ele>
        <time>2022-12-08T11:19:25Z</time>
      </trkpt>
      <trkpt lat="48.14533" lon="-3.72686">
        <ele>267.1</ele>
        <time>2022-12-08T11:19:26Z</time>
      </trkpt>
      <trkpt lat="48.14533" lon="-3.72684">
        <ele>267.2</ele>
        <time>2022-12-08T11:19:27Z</time>
      </trkpt>
      <trkpt lat="48.14533" lon="-3.72679">
        <ele>267.4</ele>
        <time>2022-12-08T11:19:28Z</time>
      </trkpt>
      <trkpt lat="48.14533" lon="-3.72677">
        <ele>267.5</ele>
        <time>2022-12-08T11:19:29Z</time>
      </trkpt>
      <trkpt lat="48.14533" lon="-3.72673">
        <ele>267.7</ele>
        <time>2022-12-08T11:19:30Z</time>
      </trkpt>
      <trkpt lat="48.14533" lon="-3.72672">
        <ele>267.8</ele>
        <time>2022-12-08T11:19:31Z</time>
      </trkpt>
      <trkpt lat="48.14532" lon="-3.72666">
        <ele>268.1</ele>
        <time>2022-12-08T11:19:33Z</time>
      </trkpt>
      <trkpt lat="48.14532" lon="-3.72662">
        <ele>268.3</ele>
        <time>2022-12-08T11:19:34Z</time>
      </trkpt>
      <trkpt lat="48.14531" lon="-3.72661">
        <ele>268.4</ele>
        <time>2022-12-08T11:19:35Z</time>
      </trkpt>
      <trkpt lat="48.14531" lon="-3.72656">
        <ele>268.6</ele>
        <time>2022-12-08T11:19:36Z</time>
      </trkpt>
      <trkpt lat="48.1453" lon="-3.72655">
        <ele>268.6</ele>
        <time>2022-12-08T11:19:37Z</time>
      </trkpt>
      <trkpt lat="48.14529" lon="-3.7265">
        <ele>268.9</ele>
        <time>2022-12-08T11:19:39Z</time>
      </trkpt>
      <trkpt lat="48.14527" lon="-3.72647">
        <ele>269</ele>
        <time>2022-12-08T11:19:40Z</time>
      </trkpt>
      <trkpt lat="48.14525" lon="-3.72643">
        <ele>269.2</ele>
        <time>2022-12-08T11:19:41Z</time>
      </trkpt>
      <trkpt lat="48.14521" lon="-3.72636">
        <ele>269.6</ele>
        <time>2022-12-08T11:19:43Z</time>
      </trkpt>
      <trkpt lat="48.14519" lon="-3.72633">
        <ele>269.7</ele>
        <time>2022-12-08T11:19:44Z</time>
      </trkpt>
      <trkpt lat="48.14517" lon="-3.72629">
        <ele>269.8</ele>
        <time>2022-12-08T11:19:45Z</time>
      </trkpt>
      <trkpt lat="48.14515" lon="-3.72625">
        <ele>270</ele>
        <time>2022-12-08T11:19:46Z</time>
      </trkpt>
      <trkpt lat="48.14514" lon="-3.72623">
        <ele>270</ele>
        <time>2022-12-08T11:19:47Z</time>
      </trkpt>
      <trkpt lat="48.14512" lon="-3.72619">
        <ele>270.2</ele>
        <time>2022-12-08T11:19:48Z</time>
      </trkpt>
      <trkpt lat="48.14511" lon="-3.72617">
        <ele>270.2</ele>
        <time>2022-12-08T11:19:49Z</time>
      </trkpt>
      <trkpt lat="48.14509" lon="-3.72612">
        <ele>270.3</ele>
        <time>2022-12-08T11:19:50Z</time>
      </trkpt>
      <trkpt lat="48.14508" lon="-3.72611">
        <ele>270.4</ele>
        <time>2022-12-08T11:19:51Z</time>
      </trkpt>
      <trkpt lat="48.14507" lon="-3.72607">
        <ele>270.4</ele>
        <time>2022-12-08T11:19:52Z</time>
      </trkpt>
      <trkpt lat="48.14506" lon="-3.72606">
        <ele>270.4</ele>
        <time>2022-12-08T11:19:53Z</time>
      </trkpt>
      <trkpt lat="48.14504" lon="-3.72601">
        <ele>270.5</ele>
        <time>2022-12-08T11:19:54Z</time>
      </trkpt>
      <trkpt lat="48.14504" lon="-3.726">
        <ele>270.5</ele>
        <time>2022-12-08T11:19:55Z</time>
      </trkpt>
      <trkpt lat="48.14501" lon="-3.72594">
        <ele>270.5</ele>
        <time>2022-12-08T11:19:57Z</time>
      </trkpt>
      <trkpt lat="48.14501" lon="-3.72592">
        <ele>270.5</ele>
        <time>2022-12-08T11:19:58Z</time>
      </trkpt>
      <trkpt lat="48.145" lon="-3.72591">
        <ele>270.5</ele>
        <time>2022-12-08T11:19:59Z</time>
      </trkpt>
      <trkpt lat="48.14498" lon="-3.72587">
        <ele>270.5</ele>
        <time>2022-12-08T11:20:00Z</time>
      </trkpt>
      <trkpt lat="48.14497" lon="-3.72585">
        <ele>270.4</ele>
        <time>2022-12-08T11:20:01Z</time>
      </trkpt>
      <trkpt lat="48.14496" lon="-3.72581">
        <ele>270.4</ele>
        <time>2022-12-08T11:20:02Z</time>
      </trkpt>
      <trkpt lat="48.14494" lon="-3.72578">
        <ele>270.3</ele>
        <time>2022-12-08T11:20:03Z</time>
      </trkpt>
      <trkpt lat="48.14492" lon="-3.72574">
        <ele>270.2</ele>
        <time>2022-12-08T11:20:04Z</time>
      </trkpt>
      <trkpt lat="48.1449" lon="-3.72569">
        <ele>270</ele>
        <time>2022-12-08T11:20:05Z</time>
      </trkpt>
      <trkpt lat="48.14487" lon="-3.72565">
        <ele>269.9</ele>
        <time>2022-12-08T11:20:06Z</time>
      </trkpt>
      <trkpt lat="48.14483" lon="-3.72557">
        <ele>269.7</ele>
        <time>2022-12-08T11:20:08Z</time>
      </trkpt>
      <trkpt lat="48.14478" lon="-3.72547">
        <ele>269.2</ele>
        <time>2022-12-08T11:20:09Z</time>
      </trkpt>
      <trkpt lat="48.14475" lon="-3.7254">
        <ele>268.8</ele>
        <time>2022-12-08T11:20:10Z</time>
      </trkpt>
      <trkpt lat="48.14471" lon="-3.72532">
        <ele>268.4</ele>
        <time>2022-12-08T11:20:11Z</time>
      </trkpt>
      <trkpt lat="48.14468" lon="-3.72524">
        <ele>268.1</ele>
        <time>2022-12-08T11:20:12Z</time>
      </trkpt>
      <trkpt lat="48.14465" lon="-3.72515">
        <ele>267.7</ele>
        <time>2022-12-08T11:20:13Z</time>
      </trkpt>
      <trkpt lat="48.14464" lon="-3.72504">
        <ele>267.3</ele>
        <time>2022-12-08T11:20:14Z</time>
      </trkpt>
      <trkpt lat="48.14464" lon="-3.72494">
        <ele>267</ele>
        <time>2022-12-08T11:20:15Z</time>
      </trkpt>
      <trkpt lat="48.14466" lon="-3.72484">
        <ele>266.7</ele>
        <time>2022-12-08T11:20:16Z</time>
      </trkpt>
      <trkpt lat="48.14467" lon="-3.72476">
        <ele>266.4</ele>
        <time>2022-12-08T11:20:17Z</time>
      </trkpt>
      <trkpt lat="48.14469" lon="-3.72467">
        <ele>266.2</ele>
        <time>2022-12-08T11:20:18Z</time>
      </trkpt>
      <trkpt lat="48.1447" lon="-3.72459">
        <ele>266</ele>
        <time>2022-12-08T11:20:19Z</time>
      </trkpt>
      <trkpt lat="48.14472" lon="-3.72452">
        <ele>266</ele>
        <time>2022-12-08T11:20:20Z</time>
      </trkpt>
      <trkpt lat="48.14473" lon="-3.72445">
        <ele>265.9</ele>
        <time>2022-12-08T11:20:21Z</time>
      </trkpt>
      <trkpt lat="48.14474" lon="-3.72438">
        <ele>265.8</ele>
        <time>2022-12-08T11:20:22Z</time>
      </trkpt>
      <trkpt lat="48.14475" lon="-3.72432">
        <ele>265.8</ele>
        <time>2022-12-08T11:20:23Z</time>
      </trkpt>
      <trkpt lat="48.14476" lon="-3.72426">
        <ele>265.7</ele>
        <time>2022-12-08T11:20:24Z</time>
      </trkpt>
      <trkpt lat="48.14477" lon="-3.72422">
        <ele>265.7</ele>
        <time>2022-12-08T11:20:25Z</time>
      </trkpt>
      <trkpt lat="48.14478" lon="-3.72417">
        <ele>265.7</ele>
        <time>2022-12-08T11:20:26Z</time>
      </trkpt>
      <trkpt lat="48.14479" lon="-3.72411">
        <ele>265.7</ele>
        <time>2022-12-08T11:20:27Z</time>
      </trkpt>
      <trkpt lat="48.14479" lon="-3.72405">
        <ele>265.7</ele>
        <time>2022-12-08T11:20:28Z</time>
      </trkpt>
      <trkpt lat="48.14479" lon="-3.72401">
        <ele>265.7</ele>
        <time>2022-12-08T11:20:29Z</time>
      </trkpt>
      <trkpt lat="48.1448" lon="-3.72396">
        <ele>265.7</ele>
        <time>2022-12-08T11:20:31Z</time>
      </trkpt>
      <trkpt lat="48.14481" lon="-3.7239">
        <ele>265.8</ele>
        <time>2022-12-08T11:20:32Z</time>
      </trkpt>
      <trkpt lat="48.14481" lon="-3.72385">
        <ele>265.8</ele>
        <time>2022-12-08T11:20:33Z</time>
      </trkpt>
      <trkpt lat="48.14483" lon="-3.72381">
        <ele>265.8</ele>
        <time>2022-12-08T11:20:34Z</time>
      </trkpt>
      <trkpt lat="48.14484" lon="-3.72377">
        <ele>265.8</ele>
        <time>2022-12-08T11:20:35Z</time>
      </trkpt>
      <trkpt lat="48.14485" lon="-3.72373">
        <ele>265.9</ele>
        <time>2022-12-08T11:20:36Z</time>
      </trkpt>
      <trkpt lat="48.14486" lon="-3.72368">
        <ele>265.9</ele>
        <time>2022-12-08T11:20:37Z</time>
      </trkpt>
      <trkpt lat="48.14486" lon="-3.72366">
        <ele>265.9</ele>
        <time>2022-12-08T11:20:38Z</time>
      </trkpt>
      <trkpt lat="48.14489" lon="-3.72364">
        <ele>265.9</ele>
        <time>2022-12-08T11:20:39Z</time>
      </trkpt>
      <trkpt lat="48.1449" lon="-3.72365">
        <ele>265.9</ele>
        <time>2022-12-08T11:20:40Z</time>
      </trkpt>
      <trkpt lat="48.1449" lon="-3.72367">
        <ele>265.9</ele>
        <time>2022-12-08T11:20:41Z</time>
      </trkpt>
      <trkpt lat="48.14491" lon="-3.72365">
        <ele>265.9</ele>
        <time>2022-12-08T11:20:42Z</time>
      </trkpt>
      <trkpt lat="48.1449" lon="-3.72362">
        <ele>266</ele>
        <time>2022-12-08T11:20:43Z</time>
      </trkpt>
      <trkpt lat="48.1449" lon="-3.7236">
        <ele>266</ele>
        <time>2022-12-08T11:20:44Z</time>
      </trkpt>
      <trkpt lat="48.14489" lon="-3.72357">
        <ele>266</ele>
        <time>2022-12-08T11:20:45Z</time>
      </trkpt>
      <trkpt lat="48.14486" lon="-3.72352">
        <ele>266</ele>
        <time>2022-12-08T11:20:47Z</time>
      </trkpt>
      <trkpt lat="48.14484" lon="-3.72348">
        <ele>266</ele>
        <time>2022-12-08T11:20:48Z</time>
      </trkpt>
      <trkpt lat="48.14483" lon="-3.72346">
        <ele>266.1</ele>
        <time>2022-12-08T11:20:49Z</time>
      </trkpt>
      <trkpt lat="48.14482" lon="-3.72342">
        <ele>266.1</ele>
        <time>2022-12-08T11:20:50Z</time>
      </trkpt>
      <trkpt lat="48.14481" lon="-3.72339">
        <ele>266.1</ele>
        <time>2022-12-08T11:20:51Z</time>
      </trkpt>
      <trkpt lat="48.14482" lon="-3.72336">
        <ele>266.1</ele>
        <time>2022-12-08T11:20:52Z</time>
      </trkpt>
      <trkpt lat="48.14483" lon="-3.72335">
        <ele>266.1</ele>
        <time>2022-12-08T11:20:53Z</time>
      </trkpt>
      <trkpt lat="48.14484" lon="-3.72335">
        <ele>266.1</ele>
        <time>2022-12-08T11:20:54Z</time>
      </trkpt>
      <trkpt lat="48.14483" lon="-3.72335">
        <ele>266.1</ele>
        <time>2022-12-08T11:20:55Z</time>
      </trkpt>
      <trkpt lat="48.14483" lon="-3.72336">
        <ele>266.1</ele>
        <time>2022-12-08T11:20:56Z</time>
      </trkpt>
      <trkpt lat="48.14483" lon="-3.72336">
        <ele>266.1</ele>
        <time>2022-12-08T11:20:57Z</time>
      </trkpt>
      <trkpt lat="48.14483" lon="-3.72336">
        <ele>266.1</ele>
        <time>2022-12-08T11:20:58Z</time>
      </trkpt>
      <trkpt lat="48.14483" lon="-3.72335">
        <ele>266.1</ele>
        <time>2022-12-08T11:20:59Z</time>
      </trkpt>
      <trkpt lat="48.14483" lon="-3.72335">
        <ele>266.1</ele>
        <time>2022-12-08T11:21:00Z</time>
      </trkpt>
      <trkpt lat="48.14483" lon="-3.72336">
        <ele>266.1</ele>
        <time>2022-12-08T11:21:01Z</time>
      </trkpt>
      <trkpt lat="48.14483" lon="-3.72336">
        <ele>266.1</ele>
        <time>2022-12-08T11:21:03Z</time>
      </trkpt>
      <trkpt lat="48.14483" lon="-3.72336">
        <ele>266.1</ele>
        <time>2022-12-08T11:21:04Z</time>
      </trkpt>
      <trkpt lat="48.14483" lon="-3.72335">
        <ele>266.1</ele>
        <time>2022-12-08T11:21:05Z</time>
      </trkpt>
      <trkpt lat="48.14484" lon="-3.72336">
        <ele>266.1</ele>
        <time>2022-12-08T11:21:06Z</time>
      </trkpt>
      <trkpt lat="48.14484" lon="-3.72338">
        <ele>266.2</ele>
        <time>2022-12-08T11:21:08Z</time>
      </trkpt>
      <trkpt lat="48.14485" lon="-3.72339">
        <ele>266.2</ele>
        <time>2022-12-08T11:21:09Z</time>
      </trkpt>
      <trkpt lat="48.14485" lon="-3.72344">
        <ele>266.2</ele>
        <time>2022-12-08T11:21:11Z</time>
      </trkpt>
      <trkpt lat="48.14485" lon="-3.72345">
        <ele>266.2</ele>
        <time>2022-12-08T11:21:12Z</time>
      </trkpt>
      <trkpt lat="48.14486" lon="-3.72347">
        <ele>266.2</ele>
        <time>2022-12-08T11:21:13Z</time>
      </trkpt>
      <trkpt lat="48.14486" lon="-3.72349">
        <ele>266.2</ele>
        <time>2022-12-08T11:21:14Z</time>
      </trkpt>
      <trkpt lat="48.14486" lon="-3.72351">
        <ele>266.2</ele>
        <time>2022-12-08T11:21:15Z</time>
      </trkpt>
      <trkpt lat="48.14486" lon="-3.72353">
        <ele>266.2</ele>
        <time>2022-12-08T11:21:16Z</time>
      </trkpt>
      <trkpt lat="48.14486" lon="-3.72355">
        <ele>266.2</ele>
        <time>2022-12-08T11:21:17Z</time>
      </trkpt>
      <trkpt lat="48.14486" lon="-3.72356">
        <ele>266.3</ele>
        <time>2022-12-08T11:21:18Z</time>
      </trkpt>
      <trkpt lat="48.14486" lon="-3.72358">
        <ele>266.3</ele>
        <time>2022-12-08T11:21:19Z</time>
      </trkpt>
      <trkpt lat="48.14486" lon="-3.72359">
        <ele>266.3</ele>
        <time>2022-12-08T11:21:20Z</time>
      </trkpt>
      <trkpt lat="48.14487" lon="-3.72361">
        <ele>266.3</ele>
        <time>2022-12-08T11:21:21Z</time>
      </trkpt>
      <trkpt lat="48.14488" lon="-3.72362">
        <ele>266.3</ele>
        <time>2022-12-08T11:21:22Z</time>
      </trkpt>
      <trkpt lat="48.14488" lon="-3.72363">
        <ele>266.3</ele>
        <time>2022-12-08T11:21:23Z</time>
      </trkpt>
      <trkpt lat="48.14488" lon="-3.72363">
        <ele>266.3</ele>
        <time>2022-12-08T11:21:24Z</time>
      </trkpt>
      <trkpt lat="48.14488" lon="-3.72363">
        <ele>266.3</ele>
        <time>2022-12-08T11:21:25Z</time>
      </trkpt>
      <trkpt lat="48.14487" lon="-3.72363">
        <ele>266.3</ele>
        <time>2022-12-08T11:21:26Z</time>
      </trkpt>
      <trkpt lat="48.14487" lon="-3.72363">
        <ele>266.3</ele>
        <time>2022-12-08T11:21:27Z</time>
      </trkpt>
      <trkpt lat="48.14487" lon="-3.72363">
        <ele>266.3</ele>
        <time>2022-12-08T11:21:28Z</time>
      </trkpt>
      <trkpt lat="48.14488" lon="-3.72364">
        <ele>266.3</ele>
        <time>2022-12-08T11:21:29Z</time>
      </trkpt>
      <trkpt lat="48.14488" lon="-3.72365">
        <ele>266.3</ele>
        <time>2022-12-08T11:21:30Z</time>
      </trkpt>
      <trkpt lat="48.14488" lon="-3.72366">
        <ele>266.3</ele>
        <time>2022-12-08T11:21:31Z</time>
      </trkpt>
      <trkpt lat="48.14488" lon="-3.72367">
        <ele>266.3</ele>
        <time>2022-12-08T11:21:32Z</time>
      </trkpt>
      <trkpt lat="48.14488" lon="-3.72367">
        <ele>266.3</ele>
        <time>2022-12-08T11:21:33Z</time>
      </trkpt>
      <trkpt lat="48.14488" lon="-3.72368">
        <ele>266.3</ele>
        <time>2022-12-08T11:21:34Z</time>
      </trkpt>
      <trkpt lat="48.14488" lon="-3.72368">
        <ele>266.3</ele>
        <time>2022-12-08T11:21:35Z</time>
      </trkpt>
      <trkpt lat="48.14488" lon="-3.72368">
        <ele>266.3</ele>
        <time>2022-12-08T11:21:36Z</time>
      </trkpt>
      <trkpt lat="48.14488" lon="-3.72367">
        <ele>266.3</ele>
        <time>2022-12-08T11:21:37Z</time>
      </trkpt>
      <trkpt lat="48.14488" lon="-3.72367">
        <ele>266.3</ele>
        <time>2022-12-08T11:21:38Z</time>
      </trkpt>
      <trkpt lat="48.14488" lon="-3.72367">
        <ele>266.3</ele>
        <time>2022-12-08T11:21:39Z</time>
      </trkpt>
      <trkpt lat="48.14488" lon="-3.72367">
        <ele>266.3</ele>
        <time>2022-12-08T11:21:40Z</time>
      </trkpt>
      <trkpt lat="48.14488" lon="-3.72366">
        <ele>266.3</ele>
        <time>2022-12-08T11:21:41Z</time>
      </trkpt>
      <trkpt lat="48.14487" lon="-3.72365">
        <ele>266.3</ele>
        <time>2022-12-08T11:21:42Z</time>
      </trkpt>
      <trkpt lat="48.14487" lon="-3.72363">
        <ele>266.3</ele>
        <time>2022-12-08T11:21:43Z</time>
      </trkpt>
      <trkpt lat="48.14487" lon="-3.72361">
        <ele>266.4</ele>
        <time>2022-12-08T11:21:44Z</time>
      </trkpt>
      <trkpt lat="48.14486" lon="-3.72359">
        <ele>266.4</ele>
        <time>2022-12-08T11:21:45Z</time>
      </trkpt>
      <trkpt lat="48.14486" lon="-3.72357">
        <ele>266.4</ele>
        <time>2022-12-08T11:21:46Z</time>
      </trkpt>
      <trkpt lat="48.14486" lon="-3.72355">
        <ele>266.4</ele>
        <time>2022-12-08T11:21:47Z</time>
      </trkpt>
      <trkpt lat="48.14485" lon="-3.72354">
        <ele>266.4</ele>
        <time>2022-12-08T11:21:48Z</time>
      </trkpt>
      <trkpt lat="48.14485" lon="-3.72351">
        <ele>266.4</ele>
        <time>2022-12-08T11:21:49Z</time>
      </trkpt>
      <trkpt lat="48.14485" lon="-3.7235">
        <ele>266.4</ele>
        <time>2022-12-08T11:21:50Z</time>
      </trkpt>
      <trkpt lat="48.14485" lon="-3.72349">
        <ele>266.4</ele>
        <time>2022-12-08T11:21:51Z</time>
      </trkpt>
      <trkpt lat="48.14484" lon="-3.72346">
        <ele>266.4</ele>
        <time>2022-12-08T11:21:52Z</time>
      </trkpt>
      <trkpt lat="48.14484" lon="-3.72346">
        <ele>266.4</ele>
        <time>2022-12-08T11:21:53Z</time>
      </trkpt>
      <trkpt lat="48.14483" lon="-3.72344">
        <ele>266.4</ele>
        <time>2022-12-08T11:21:54Z</time>
      </trkpt>
      <trkpt lat="48.14483" lon="-3.72341">
        <ele>266.5</ele>
        <time>2022-12-08T11:21:55Z</time>
      </trkpt>
      <trkpt lat="48.14483" lon="-3.72339">
        <ele>266.5</ele>
        <time>2022-12-08T11:21:56Z</time>
      </trkpt>
      <trkpt lat="48.14483" lon="-3.72338">
        <ele>266.5</ele>
        <time>2022-12-08T11:21:57Z</time>
      </trkpt>
      <trkpt lat="48.14484" lon="-3.72335">
        <ele>266.5</ele>
        <time>2022-12-08T11:21:59Z</time>
      </trkpt>
      <trkpt lat="48.14484" lon="-3.72334">
        <ele>266.5</ele>
        <time>2022-12-08T11:22:00Z</time>
      </trkpt>
      <trkpt lat="48.14485" lon="-3.72333">
        <ele>266.5</ele>
        <time>2022-12-08T11:22:01Z</time>
      </trkpt>
      <trkpt lat="48.14485" lon="-3.72333">
        <ele>266.5</ele>
        <time>2022-12-08T11:22:02Z</time>
      </trkpt>
      <trkpt lat="48.14485" lon="-3.72332">
        <ele>266.5</ele>
        <time>2022-12-08T11:22:03Z</time>
      </trkpt>
      <trkpt lat="48.14484" lon="-3.72333">
        <ele>266.5</ele>
        <time>2022-12-08T11:22:05Z</time>
      </trkpt>
      <trkpt lat="48.14484" lon="-3.72334">
        <ele>266.5</ele>
        <time>2022-12-08T11:22:06Z</time>
      </trkpt>
      <trkpt lat="48.14484" lon="-3.72335">
        <ele>266.5</ele>
        <time>2022-12-08T11:22:07Z</time>
      </trkpt>
      <trkpt lat="48.14485" lon="-3.72336">
        <ele>266.5</ele>
        <time>2022-12-08T11:22:08Z</time>
      </trkpt>
      <trkpt lat="48.14486" lon="-3.72337">
        <ele>266.5</ele>
        <time>2022-12-08T11:22:09Z</time>
      </trkpt>
      <trkpt lat="48.14488" lon="-3.72341">
        <ele>266.6</ele>
        <time>2022-12-08T11:22:10Z</time>
      </trkpt>
      <trkpt lat="48.14488" lon="-3.72343">
        <ele>266.6</ele>
        <time>2022-12-08T11:22:11Z</time>
      </trkpt>
      <trkpt lat="48.14488" lon="-3.72348">
        <ele>266.6</ele>
        <time>2022-12-08T11:22:12Z</time>
      </trkpt>
      <trkpt lat="48.14487" lon="-3.72352">
        <ele>266.6</ele>
        <time>2022-12-08T11:22:13Z</time>
      </trkpt>
      <trkpt lat="48.14486" lon="-3.72356">
        <ele>266.6</ele>
        <time>2022-12-08T11:22:14Z</time>
      </trkpt>
      <trkpt lat="48.14485" lon="-3.72363">
        <ele>266.7</ele>
        <time>2022-12-08T11:22:16Z</time>
      </trkpt>
      <trkpt lat="48.14485" lon="-3.72368">
        <ele>266.7</ele>
        <time>2022-12-08T11:22:17Z</time>
      </trkpt>
      <trkpt lat="48.14484" lon="-3.72373">
        <ele>266.7</ele>
        <time>2022-12-08T11:22:18Z</time>
      </trkpt>
      <trkpt lat="48.14484" lon="-3.72379">
        <ele>266.7</ele>
        <time>2022-12-08T11:22:19Z</time>
      </trkpt>
      <trkpt lat="48.14481" lon="-3.72382">
        <ele>266.8</ele>
        <time>2022-12-08T11:22:20Z</time>
      </trkpt>
      <trkpt lat="48.14479" lon="-3.72384">
        <ele>266.8</ele>
        <time>2022-12-08T11:22:21Z</time>
      </trkpt>
      <trkpt lat="48.14478" lon="-3.72384">
        <ele>266.8</ele>
        <time>2022-12-08T11:22:22Z</time>
      </trkpt>
      <trkpt lat="48.14477" lon="-3.72384">
        <ele>266.8</ele>
        <time>2022-12-08T11:22:23Z</time>
      </trkpt>
      <trkpt lat="48.14476" lon="-3.72383">
        <ele>266.8</ele>
        <time>2022-12-08T11:22:24Z</time>
      </trkpt>
      <trkpt lat="48.14476" lon="-3.72381">
        <ele>266.8</ele>
        <time>2022-12-08T11:22:25Z</time>
      </trkpt>
      <trkpt lat="48.14476" lon="-3.72381">
        <ele>266.8</ele>
        <time>2022-12-08T11:22:26Z</time>
      </trkpt>
      <trkpt lat="48.14476" lon="-3.7238">
        <ele>266.8</ele>
        <time>2022-12-08T11:22:27Z</time>
      </trkpt>
      <trkpt lat="48.14476" lon="-3.7238">
        <ele>266.8</ele>
        <time>2022-12-08T11:22:28Z</time>
      </trkpt>
      <trkpt lat="48.14476" lon="-3.72379">
        <ele>266.8</ele>
        <time>2022-12-08T11:22:29Z</time>
      </trkpt>
      <trkpt lat="48.14476" lon="-3.72379">
        <ele>266.9</ele>
        <time>2022-12-08T11:22:30Z</time>
      </trkpt>
      <trkpt lat="48.14475" lon="-3.7238">
        <ele>266.9</ele>
        <time>2022-12-08T11:22:32Z</time>
      </trkpt>
      <trkpt lat="48.14475" lon="-3.7238">
        <ele>266.9</ele>
        <time>2022-12-08T11:22:34Z</time>
      </trkpt>
      <trkpt lat="48.14475" lon="-3.72381">
        <ele>266.9</ele>
        <time>2022-12-08T11:22:35Z</time>
      </trkpt>
      <trkpt lat="48.14474" lon="-3.72382">
        <ele>266.9</ele>
        <time>2022-12-08T11:22:37Z</time>
      </trkpt>
      <trkpt lat="48.14474" lon="-3.72382">
        <ele>266.9</ele>
        <time>2022-12-08T11:22:38Z</time>
      </trkpt>
      <trkpt lat="48.14474" lon="-3.72382">
        <ele>266.9</ele>
        <time>2022-12-08T11:22:39Z</time>
      </trkpt>
      <trkpt lat="48.14474" lon="-3.72385">
        <ele>266.9</ele>
        <time>2022-12-08T11:22:47Z</time>
      </trkpt>
      <trkpt lat="48.14474" lon="-3.72385">
        <ele>266.9</ele>
        <time>2022-12-08T11:22:48Z</time>
      </trkpt>
      <trkpt lat="48.14474" lon="-3.72385">
        <ele>266.9</ele>
        <time>2022-12-08T11:22:49Z</time>
      </trkpt>
      <trkpt lat="48.14475" lon="-3.72385">
        <ele>266.9</ele>
        <time>2022-12-08T11:22:50Z</time>
      </trkpt>
      <trkpt lat="48.14475" lon="-3.72385">
        <ele>266.9</ele>
        <time>2022-12-08T11:22:52Z</time>
      </trkpt>
      <trkpt lat="48.14476" lon="-3.72385">
        <ele>266.9</ele>
        <time>2022-12-08T11:22:53Z</time>
      </trkpt>
      <trkpt lat="48.14476" lon="-3.72385">
        <ele>266.9</ele>
        <time>2022-12-08T11:22:54Z</time>
      </trkpt>
      <trkpt lat="48.14476" lon="-3.72386">
        <ele>266.9</ele>
        <time>2022-12-08T11:22:55Z</time>
      </trkpt>
      <trkpt lat="48.14477" lon="-3.72387">
        <ele>266.9</ele>
        <time>2022-12-08T11:22:56Z</time>
      </trkpt>
      <trkpt lat="48.14477" lon="-3.72387">
        <ele>266.9</ele>
        <time>2022-12-08T11:22:57Z</time>
      </trkpt>
      <trkpt lat="48.14477" lon="-3.72387">
        <ele>266.9</ele>
        <time>2022-12-08T11:22:58Z</time>
      </trkpt>
      <trkpt lat="48.14474" lon="-3.72383">
        <ele>267</ele>
        <time>2022-12-08T11:23:29Z</time>
      </trkpt>
      <trkpt lat="48.14474" lon="-3.72383">
        <ele>267</ele>
        <time>2022-12-08T11:23:30Z</time>
      </trkpt>
      <trkpt lat="48.14474" lon="-3.72383">
        <ele>267</ele>
        <time>2022-12-08T11:23:31Z</time>
      </trkpt>
      <trkpt lat="48.14474" lon="-3.72383">
        <ele>267</ele>
        <time>2022-12-08T11:23:32Z</time>
      </trkpt>
      <trkpt lat="48.14474" lon="-3.72383">
        <ele>267</ele>
        <time>2022-12-08T11:23:33Z</time>
      </trkpt>
      <trkpt lat="48.14474" lon="-3.72383">
        <ele>267</ele>
        <time>2022-12-08T11:23:34Z</time>
      </trkpt>
      <trkpt lat="48.14474" lon="-3.72383">
        <ele>267</ele>
        <time>2022-12-08T11:23:35Z</time>
      </trkpt>
      <trkpt lat="48.14474" lon="-3.72383">
        <ele>267</ele>
        <time>2022-12-08T11:23:36Z</time>
      </trkpt>
      <trkpt lat="48.14474" lon="-3.72383">
        <ele>267</ele>
        <time>2022-12-08T11:23:37Z</time>
      </trkpt>
      <trkpt lat="48.14474" lon="-3.72383">
        <ele>267</ele>
        <time>2022-12-08T11:23:38Z</time>
      </trkpt>
      <trkpt lat="48.14474" lon="-3.72383">
        <ele>267</ele>
        <time>2022-12-08T11:23:39Z</time>
      </trkpt>
      <trkpt lat="48.14474" lon="-3.72383">
        <ele>267</ele>
        <time>2022-12-08T11:23:40Z</time>
      </trkpt>
      <trkpt lat="48.14474" lon="-3.72383">
        <ele>267</ele>
        <time>2022-12-08T11:23:41Z</time>
      </trkpt>
      <trkpt lat="48.14474" lon="-3.72383">
        <ele>267</ele>
        <time>2022-12-08T11:23:42Z</time>
      </trkpt>
      <trkpt lat="48.14474" lon="-3.72383">
        <ele>267</ele>
        <time>2022-12-08T11:23:43Z</time>
      </trkpt>
      <trkpt lat="48.14474" lon="-3.72383">
        <ele>267</ele>
        <time>2022-12-08T11:23:44Z</time>
      </trkpt>
      <trkpt lat="48.14474" lon="-3.72383">
        <ele>267</ele>
        <time>2022-12-08T11:23:45Z</time>
      </trkpt>
      <trkpt lat="48.14474" lon="-3.72383">
        <ele>267</ele>
        <time>2022-12-08T11:23:46Z</time>
      </trkpt>
      <trkpt lat="48.14474" lon="-3.72383">
        <ele>267</ele>
        <time>2022-12-08T11:23:47Z</time>
      </trkpt>
      <trkpt lat="48.14474" lon="-3.72383">
        <ele>267</ele>
        <time>2022-12-08T11:23:48Z</time>
      </trkpt>
      <trkpt lat="48.14474" lon="-3.72383">
        <ele>267</ele>
        <time>2022-12-08T11:23:49Z</time>
      </trkpt>
      <trkpt lat="48.14474" lon="-3.72383">
        <ele>267</ele>
        <time>2022-12-08T11:23:50Z</time>
      </trkpt>
      <trkpt lat="48.14474" lon="-3.72383">
        <ele>267</ele>
        <time>2022-12-08T11:23:51Z</time>
      </trkpt>
      <trkpt lat="48.14474" lon="-3.72383">
        <ele>267</ele>
        <time>2022-12-08T11:23:52Z</time>
      </trkpt>
      <trkpt lat="48.14474" lon="-3.72383">
        <ele>267</ele>
        <time>2022-12-08T11:23:53Z</time>
      </trkpt>
      <trkpt lat="48.14474" lon="-3.72383">
        <ele>267</ele>
        <time>2022-12-08T11:23:54Z</time>
      </trkpt>
      <trkpt lat="48.14474" lon="-3.72383">
        <ele>267</ele>
        <time>2022-12-08T11:23:55Z</time>
      </trkpt>
      <trkpt lat="48.14474" lon="-3.72383">
        <ele>267</ele>
        <time>2022-12-08T11:23:56Z</time>
      </trkpt>
      <trkpt lat="48.14474" lon="-3.72383">
        <ele>267</ele>
        <time>2022-12-08T11:23:57Z</time>
      </trkpt>
      <trkpt lat="48.14474" lon="-3.72383">
        <ele>267</ele>
        <time>2022-12-08T11:23:58Z</time>
      </trkpt>
      <trkpt lat="48.14474" lon="-3.72383">
        <ele>267</ele>
        <time>2022-12-08T11:23:59Z</time>
      </trkpt>
      <trkpt lat="48.14474" lon="-3.72383">
        <ele>267</ele>
        <time>2022-12-08T11:24:00Z</time>
      </trkpt>
      <trkpt lat="48.14474" lon="-3.72383">
        <ele>267</ele>
        <time>2022-12-08T11:24:01Z</time>
      </trkpt>
      <trkpt lat="48.14474" lon="-3.72383">
        <ele>267</ele>
        <time>2022-12-08T11:24:02Z</time>
      </trkpt>
      <trkpt lat="48.14474" lon="-3.72383">
        <ele>267</ele>
        <time>2022-12-08T11:24:03Z</time>
      </trkpt>
      <trkpt lat="48.14474" lon="-3.72383">
        <ele>267</ele>
        <time>2022-12-08T11:24:04Z</time>
      </trkpt>
      <trkpt lat="48.14474" lon="-3.72383">
        <ele>267</ele>
        <time>2022-12-08T11:24:05Z</time>
      </trkpt>
      <trkpt lat="48.14474" lon="-3.72383">
        <ele>267</ele>
        <time>2022-12-08T11:24:06Z</time>
      </trkpt>
      <trkpt lat="48.14474" lon="-3.72383">
        <ele>267</ele>
        <time>2022-12-08T11:24:07Z</time>
      </trkpt>
      <trkpt lat="48.14474" lon="-3.72383">
        <ele>267</ele>
        <time>2022-12-08T11:24:08Z</time>
      </trkpt>
      <trkpt lat="48.14474" lon="-3.72383">
        <ele>267</ele>
        <time>2022-12-08T11:24:09Z</time>
      </trkpt>
      <trkpt lat="48.14474" lon="-3.72383">
        <ele>267</ele>
        <time>2022-12-08T11:24:10Z</time>
      </trkpt>
      <trkpt lat="48.14474" lon="-3.72383">
        <ele>267</ele>
        <time>2022-12-08T11:24:11Z</time>
      </trkpt>
      <trkpt lat="48.14474" lon="-3.72383">
        <ele>267</ele>
        <time>2022-12-08T11:24:12Z</time>
      </trkpt>
      <trkpt lat="48.14474" lon="-3.72383">
        <ele>267</ele>
        <time>2022-12-08T11:24:13Z</time>
      </trkpt>
      <trkpt lat="48.14474" lon="-3.72383">
        <ele>267</ele>
        <time>2022-12-08T11:24:14Z</time>
      </trkpt>
      <trkpt lat="48.14475" lon="-3.72383">
        <ele>267</ele>
        <time>2022-12-08T11:24:15Z</time>
      </trkpt>
      <trkpt lat="48.14474" lon="-3.72383">
        <ele>267</ele>
        <time>2022-12-08T11:24:16Z</time>
      </trkpt>
      <trkpt lat="48.14474" lon="-3.72382">
        <ele>267</ele>
        <time>2022-12-08T11:24:17Z</time>
      </trkpt>
      <trkpt lat="48.14474" lon="-3.72382">
        <ele>267</ele>
        <time>2022-12-08T11:24:18Z</time>
      </trkpt>
      <trkpt lat="48.14474" lon="-3.72382">
        <ele>267</ele>
        <time>2022-12-08T11:24:19Z</time>
      </trkpt>
      <trkpt lat="48.14474" lon="-3.72382">
        <ele>267</ele>
        <time>2022-12-08T11:24:20Z</time>
      </trkpt>
      <trkpt lat="48.14474" lon="-3.72382">
        <ele>267</ele>
        <time>2022-12-08T11:24:21Z</time>
      </trkpt>
      <trkpt lat="48.14474" lon="-3.72382">
        <ele>267</ele>
        <time>2022-12-08T11:24:22Z</time>
      </trkpt>
      <trkpt lat="48.14474" lon="-3.72382">
        <ele>267</ele>
        <time>2022-12-08T11:24:23Z</time>
      </trkpt>
      <trkpt lat="48.14474" lon="-3.72382">
        <ele>267</ele>
        <time>2022-12-08T11:24:24Z</time>
      </trkpt>
      <trkpt lat="48.14474" lon="-3.72382">
        <ele>267</ele>
        <time>2022-12-08T11:24:25Z</time>
      </trkpt>
      <trkpt lat="48.14474" lon="-3.72382">
        <ele>267</ele>
        <time>2022-12-08T11:24:26Z</time>
      </trkpt>
      <trkpt lat="48.14474" lon="-3.72382">
        <ele>267</ele>
        <time>2022-12-08T11:24:27Z</time>
      </trkpt>
      <trkpt lat="48.14474" lon="-3.72382">
        <ele>267</ele>
        <time>2022-12-08T11:24:28Z</time>
      </trkpt>
      <trkpt lat="48.14474" lon="-3.72382">
        <ele>267</ele>
        <time>2022-12-08T11:24:29Z</time>
      </trkpt>
      <trkpt lat="48.14474" lon="-3.72382">
        <ele>267</ele>
        <time>2022-12-08T11:24:30Z</time>
      </trkpt>
      <trkpt lat="48.14474" lon="-3.72382">
        <ele>267</ele>
        <time>2022-12-08T11:24:31Z</time>
      </trkpt>
      <trkpt lat="48.14474" lon="-3.72382">
        <ele>267</ele>
        <time>2022-12-08T11:24:32Z</time>
      </trkpt>
      <trkpt lat="48.14474" lon="-3.72382">
        <ele>267</ele>
        <time>2022-12-08T11:24:33Z</time>
      </trkpt>
      <trkpt lat="48.14474" lon="-3.72382">
        <ele>267</ele>
        <time>2022-12-08T11:24:34Z</time>
      </trkpt>
      <trkpt lat="48.14474" lon="-3.72382">
        <ele>267</ele>
        <time>2022-12-08T11:24:35Z</time>
      </trkpt>
      <trkpt lat="48.14474" lon="-3.72382">
        <ele>267</ele>
        <time>2022-12-08T11:24:36Z</time>
      </trkpt>
      <trkpt lat="48.14474" lon="-3.72382">
        <ele>267</ele>
        <time>2022-12-08T11:24:37Z</time>
      </trkpt>
      <trkpt lat="48.14474" lon="-3.72382">
        <ele>267</ele>
        <time>2022-12-08T11:24:38Z</time>
      </trkpt>
      <trkpt lat="48.14474" lon="-3.72382">
        <ele>267</ele>
        <time>2022-12-08T11:24:39Z</time>
      </trkpt>
      <trkpt lat="48.14474" lon="-3.72382">
        <ele>267</ele>
        <time>2022-12-08T11:24:40Z</time>
      </trkpt>
      <trkpt lat="48.14474" lon="-3.72382">
        <ele>267</ele>
        <time>2022-12-08T11:24:41Z</time>
      </trkpt>
      <trkpt lat="48.14474" lon="-3.72382">
        <ele>267</ele>
        <time>2022-12-08T11:24:42Z</time>
      </trkpt>
      <trkpt lat="48.14474" lon="-3.72382">
        <ele>267</ele>
        <time>2022-12-08T11:24:43Z</time>
      </trkpt>
      <trkpt lat="48.14474" lon="-3.72382">
        <ele>267</ele>
        <time>2022-12-08T11:24:44Z</time>
      </trkpt>
      <trkpt lat="48.14474" lon="-3.72382">
        <ele>267</ele>
        <time>2022-12-08T11:24:45Z</time>
      </trkpt>
      <trkpt lat="48.14474" lon="-3.72382">
        <ele>267</ele>
        <time>2022-12-08T11:24:46Z</time>
      </trkpt>
      <trkpt lat="48.14474" lon="-3.72382">
        <ele>267</ele>
        <time>2022-12-08T11:24:47Z</time>
      </trkpt>
      <trkpt lat="48.14474" lon="-3.72382">
        <ele>267</ele>
        <time>2022-12-08T11:24:48Z</time>
      </trkpt>
      <trkpt lat="48.14474" lon="-3.72382">
        <ele>267</ele>
        <time>2022-12-08T11:24:49Z</time>
      </trkpt>
      <trkpt lat="48.14474" lon="-3.72382">
        <ele>267</ele>
        <time>2022-12-08T11:24:50Z</time>
      </trkpt>
      <trkpt lat="48.14474" lon="-3.72382">
        <ele>267</ele>
        <time>2022-12-08T11:24:51Z</time>
      </trkpt>
      <trkpt lat="48.14474" lon="-3.72382">
        <ele>267</ele>
        <time>2022-12-08T11:24:52Z</time>
      </trkpt>
      <trkpt lat="48.14474" lon="-3.72382">
        <ele>267</ele>
        <time>2022-12-08T11:24:53Z</time>
      </trkpt>
      <trkpt lat="48.14474" lon="-3.72382">
        <ele>267</ele>
        <time>2022-12-08T11:24:54Z</time>
      </trkpt>
      <trkpt lat="48.14474" lon="-3.72382">
        <ele>267</ele>
        <time>2022-12-08T11:24:55Z</time>
      </trkpt>
      <trkpt lat="48.14474" lon="-3.72382">
        <ele>267</ele>
        <time>2022-12-08T11:24:56Z</time>
      </trkpt>
      <trkpt lat="48.14474" lon="-3.72382">
        <ele>267</ele>
        <time>2022-12-08T11:24:57Z</time>
      </trkpt>
      <trkpt lat="48.14474" lon="-3.72382">
        <ele>267</ele>
        <time>2022-12-08T11:24:58Z</time>
      </trkpt>
      <trkpt lat="48.14474" lon="-3.72382">
        <ele>267</ele>
        <time>2022-12-08T11:24:59Z</time>
      </trkpt>
      <trkpt lat="48.14474" lon="-3.72382">
        <ele>267</ele>
        <time>2022-12-08T11:25:00Z</time>
      </trkpt>
      <trkpt lat="48.14474" lon="-3.72382">
        <ele>267</ele>
        <time>2022-12-08T11:25:01Z</time>
      </trkpt>
      <trkpt lat="48.14474" lon="-3.72382">
        <ele>267</ele>
        <time>2022-12-08T11:25:02Z</time>
      </trkpt>
      <trkpt lat="48.14474" lon="-3.72382">
        <ele>267</ele>
        <time>2022-12-08T11:25:03Z</time>
      </trkpt>
      <trkpt lat="48.14474" lon="-3.72382">
        <ele>267</ele>
        <time>2022-12-08T11:25:04Z</time>
      </trkpt>
      <trkpt lat="48.14474" lon="-3.72382">
        <ele>267</ele>
        <time>2022-12-08T11:25:05Z</time>
      </trkpt>
      <trkpt lat="48.14474" lon="-3.72382">
        <ele>267</ele>
        <time>2022-12-08T11:25:06Z</time>
      </trkpt>
      <trkpt lat="48.14474" lon="-3.72382">
        <ele>267</ele>
        <time>2022-12-08T11:25:07Z</time>
      </trkpt>
      <trkpt lat="48.14474" lon="-3.72382">
        <ele>267</ele>
        <time>2022-12-08T11:25:08Z</time>
      </trkpt>
      <trkpt lat="48.14474" lon="-3.72382">
        <ele>267</ele>
        <time>2022-12-08T11:25:09Z</time>
      </trkpt>
      <trkpt lat="48.14474" lon="-3.72382">
        <ele>267</ele>
        <time>2022-12-08T11:25:10Z</time>
      </trkpt>
      <trkpt lat="48.14474" lon="-3.72382">
        <ele>267</ele>
        <time>2022-12-08T11:25:11Z</time>
      </trkpt>
      <trkpt lat="48.14474" lon="-3.72382">
        <ele>267</ele>
        <time>2022-12-08T11:25:12Z</time>
      </trkpt>
      <trkpt lat="48.14474" lon="-3.72382">
        <ele>267</ele>
        <time>2022-12-08T11:25:13Z</time>
      </trkpt>
      <trkpt lat="48.14474" lon="-3.72382">
        <ele>267</ele>
        <time>2022-12-08T11:25:14Z</time>
      </trkpt>
      <trkpt lat="48.14474" lon="-3.72382">
        <ele>267</ele>
        <time>2022-12-08T11:25:15Z</time>
      </trkpt>
      <trkpt lat="48.14474" lon="-3.72382">
        <ele>267</ele>
        <time>2022-12-08T11:25:16Z</time>
      </trkpt>
      <trkpt lat="48.14474" lon="-3.72382">
        <ele>267</ele>
        <time>2022-12-08T11:25:17Z</time>
      </trkpt>
      <trkpt lat="48.14474" lon="-3.72382">
        <ele>267</ele>
        <time>2022-12-08T11:25:18Z</time>
      </trkpt>
      <trkpt lat="48.14474" lon="-3.72382">
        <ele>267</ele>
        <time>2022-12-08T11:25:19Z</time>
      </trkpt>
      <trkpt lat="48.14474" lon="-3.72382">
        <ele>267</ele>
        <time>2022-12-08T11:25:20Z</time>
      </trkpt>
      <trkpt lat="48.14474" lon="-3.72382">
        <ele>267</ele>
        <time>2022-12-08T11:25:21Z</time>
      </trkpt>
      <trkpt lat="48.14474" lon="-3.72382">
        <ele>267</ele>
        <time>2022-12-08T11:25:22Z</time>
      </trkpt>
      <trkpt lat="48.14474" lon="-3.72382">
        <ele>267</ele>
        <time>2022-12-08T11:25:23Z</time>
      </trkpt>
      <trkpt lat="48.14474" lon="-3.72382">
        <ele>267</ele>
        <time>2022-12-08T11:25:24Z</time>
      </trkpt>
      <trkpt lat="48.14474" lon="-3.72382">
        <ele>267</ele>
        <time>2022-12-08T11:25:25Z</time>
      </trkpt>
      <trkpt lat="48.14474" lon="-3.72382">
        <ele>267</ele>
        <time>2022-12-08T11:25:26Z</time>
      </trkpt>
      <trkpt lat="48.14474" lon="-3.72382">
        <ele>267</ele>
        <time>2022-12-08T11:25:27Z</time>
      </trkpt>
      <trkpt lat="48.14474" lon="-3.72382">
        <ele>267</ele>
        <time>2022-12-08T11:25:28Z</time>
      </trkpt>
      <trkpt lat="48.14474" lon="-3.72382">
        <ele>267</ele>
        <time>2022-12-08T11:25:29Z</time>
      </trkpt>
      <trkpt lat="48.14474" lon="-3.72382">
        <ele>267</ele>
        <time>2022-12-08T11:25:30Z</time>
      </trkpt>
      <trkpt lat="48.14474" lon="-3.72382">
        <ele>267</ele>
        <time>2022-12-08T11:25:31Z</time>
      </trkpt>
      <trkpt lat="48.14474" lon="-3.72382">
        <ele>267</ele>
        <time>2022-12-08T11:25:32Z</time>
      </trkpt>
      <trkpt lat="48.14474" lon="-3.72382">
        <ele>267</ele>
        <time>2022-12-08T11:25:33Z</time>
      </trkpt>
      <trkpt lat="48.14474" lon="-3.72382">
        <ele>267</ele>
        <time>2022-12-08T11:25:34Z</time>
      </trkpt>
      <trkpt lat="48.14474" lon="-3.72383">
        <ele>267</ele>
        <time>2022-12-08T11:25:35Z</time>
      </trkpt>
      <trkpt lat="48.14475" lon="-3.72383">
        <ele>267</ele>
        <time>2022-12-08T11:25:36Z</time>
      </trkpt>
      <trkpt lat="48.14475" lon="-3.72383">
        <ele>267</ele>
        <time>2022-12-08T11:25:37Z</time>
      </trkpt>
      <trkpt lat="48.14475" lon="-3.72383">
        <ele>267</ele>
        <time>2022-12-08T11:25:38Z</time>
      </trkpt>
      <trkpt lat="48.14474" lon="-3.72383">
        <ele>267</ele>
        <time>2022-12-08T11:25:39Z</time>
      </trkpt>
      <trkpt lat="48.14474" lon="-3.72383">
        <ele>267</ele>
        <time>2022-12-08T11:25:40Z</time>
      </trkpt>
      <trkpt lat="48.14474" lon="-3.72383">
        <ele>267</ele>
        <time>2022-12-08T11:25:41Z</time>
      </trkpt>
      <trkpt lat="48.14474" lon="-3.72383">
        <ele>267</ele>
        <time>2022-12-08T11:25:42Z</time>
      </trkpt>
      <trkpt lat="48.14474" lon="-3.72383">
        <ele>267</ele>
        <time>2022-12-08T11:25:43Z</time>
      </trkpt>
      <trkpt lat="48.14474" lon="-3.72383">
        <ele>267</ele>
        <time>2022-12-08T11:25:44Z</time>
      </trkpt>
      <trkpt lat="48.14474" lon="-3.72383">
        <ele>267</ele>
        <time>2022-12-08T11:25:45Z</time>
      </trkpt>
      <trkpt lat="48.14474" lon="-3.72383">
        <ele>267</ele>
        <time>2022-12-08T11:25:46Z</time>
      </trkpt>
      <trkpt lat="48.14474" lon="-3.72383">
        <ele>267</ele>
        <time>2022-12-08T11:25:47Z</time>
      </trkpt>
      <trkpt lat="48.14474" lon="-3.72383">
        <ele>267</ele>
        <time>2022-12-08T11:25:48Z</time>
      </trkpt>
      <trkpt lat="48.14474" lon="-3.72383">
        <ele>267</ele>
        <time>2022-12-08T11:25:49Z</time>
      </trkpt>
      <trkpt lat="48.14474" lon="-3.72383">
        <ele>267</ele>
        <time>2022-12-08T11:25:50Z</time>
      </trkpt>
      <trkpt lat="48.14474" lon="-3.72383">
        <ele>267</ele>
        <time>2022-12-08T11:25:51Z</time>
      </trkpt>
      <trkpt lat="48.14474" lon="-3.72383">
        <ele>267</ele>
        <time>2022-12-08T11:25:52Z</time>
      </trkpt>
      <trkpt lat="48.14474" lon="-3.72383">
        <ele>267</ele>
        <time>2022-12-08T11:25:53Z</time>
      </trkpt>
      <trkpt lat="48.14474" lon="-3.72383">
        <ele>267</ele>
        <time>2022-12-08T11:25:54Z</time>
      </trkpt>
      <trkpt lat="48.14474" lon="-3.72383">
        <ele>267</ele>
        <time>2022-12-08T11:25:55Z</time>
      </trkpt>
      <trkpt lat="48.14474" lon="-3.72383">
        <ele>267</ele>
        <time>2022-12-08T11:25:56Z</time>
      </trkpt>
      <trkpt lat="48.14474" lon="-3.72383">
        <ele>267</ele>
        <time>2022-12-08T11:25:57Z</time>
      </trkpt>
      <trkpt lat="48.14474" lon="-3.72383">
        <ele>267</ele>
        <time>2022-12-08T11:25:58Z</time>
      </trkpt>
      <trkpt lat="48.14474" lon="-3.72383">
        <ele>267</ele>
        <time>2022-12-08T11:25:59Z</time>
      </trkpt>
      <trkpt lat="48.14474" lon="-3.72383">
        <ele>267</ele>
        <time>2022-12-08T11:26:00Z</time>
      </trkpt>
      <trkpt lat="48.14474" lon="-3.72383">
        <ele>267</ele>
        <time>2022-12-08T11:26:01Z</time>
      </trkpt>
      <trkpt lat="48.14474" lon="-3.72383">
        <ele>267</ele>
        <time>2022-12-08T11:26:02Z</time>
      </trkpt>
      <trkpt lat="48.14474" lon="-3.72383">
        <ele>267</ele>
        <time>2022-12-08T11:26:03Z</time>
      </trkpt>
      <trkpt lat="48.14474" lon="-3.72383">
        <ele>267</ele>
        <time>2022-12-08T11:26:04Z</time>
      </trkpt>
      <trkpt lat="48.14474" lon="-3.72383">
        <ele>267</ele>
        <time>2022-12-08T11:26:05Z</time>
      </trkpt>
      <trkpt lat="48.14474" lon="-3.72383">
        <ele>267</ele>
        <time>2022-12-08T11:26:06Z</time>
      </trkpt>
      <trkpt lat="48.14474" lon="-3.72383">
        <ele>267</ele>
        <time>2022-12-08T11:26:07Z</time>
      </trkpt>
      <trkpt lat="48.14474" lon="-3.72383">
        <ele>267</ele>
        <time>2022-12-08T11:26:08Z</time>
      </trkpt>
      <trkpt lat="48.14474" lon="-3.72383">
        <ele>267</ele>
        <time>2022-12-08T11:26:09Z</time>
      </trkpt>
      <trkpt lat="48.14474" lon="-3.72383">
        <ele>267</ele>
        <time>2022-12-08T11:26:10Z</time>
      </trkpt>
      <trkpt lat="48.14474" lon="-3.72383">
        <ele>267</ele>
        <time>2022-12-08T11:26:11Z</time>
      </trkpt>
      <trkpt lat="48.14474" lon="-3.72383">
        <ele>267</ele>
        <time>2022-12-08T11:26:12Z</time>
      </trkpt>
      <trkpt lat="48.14474" lon="-3.72383">
        <ele>267</ele>
        <time>2022-12-08T11:26:13Z</time>
      </trkpt>
      <trkpt lat="48.14474" lon="-3.72383">
        <ele>267</ele>
        <time>2022-12-08T11:26:14Z</time>
      </trkpt>
      <trkpt lat="48.14474" lon="-3.72382">
        <ele>267</ele>
        <time>2022-12-08T11:26:15Z</time>
      </trkpt>
      <trkpt lat="48.14474" lon="-3.72382">
        <ele>267</ele>
        <time>2022-12-08T11:26:16Z</time>
      </trkpt>
      <trkpt lat="48.14474" lon="-3.72383">
        <ele>267</ele>
        <time>2022-12-08T11:26:17Z</time>
      </trkpt>
      <trkpt lat="48.14474" lon="-3.72383">
        <ele>267</ele>
        <time>2022-12-08T11:26:18Z</time>
      </trkpt>
      <trkpt lat="48.14474" lon="-3.72383">
        <ele>267</ele>
        <time>2022-12-08T11:26:19Z</time>
      </trkpt>
      <trkpt lat="48.14474" lon="-3.72383">
        <ele>267</ele>
        <time>2022-12-08T11:26:20Z</time>
      </trkpt>
      <trkpt lat="48.14474" lon="-3.72383">
        <ele>267</ele>
        <time>2022-12-08T11:26:21Z</time>
      </trkpt>
      <trkpt lat="48.14475" lon="-3.72383">
        <ele>267</ele>
        <time>2022-12-08T11:26:22Z</time>
      </trkpt>
      <trkpt lat="48.14475" lon="-3.72383">
        <ele>267</ele>
        <time>2022-12-08T11:26:23Z</time>
      </trkpt>
      <trkpt lat="48.14474" lon="-3.72383">
        <ele>267</ele>
        <time>2022-12-08T11:26:24Z</time>
      </trkpt>
      <trkpt lat="48.14474" lon="-3.72383">
        <ele>267</ele>
        <time>2022-12-08T11:26:25Z</time>
      </trkpt>
      <trkpt lat="48.14474" lon="-3.72383">
        <ele>267</ele>
        <time>2022-12-08T11:26:26Z</time>
      </trkpt>
      <trkpt lat="48.14474" lon="-3.72383">
        <ele>267</ele>
        <time>2022-12-08T11:26:27Z</time>
      </trkpt>
      <trkpt lat="48.14474" lon="-3.72383">
        <ele>267</ele>
        <time>2022-12-08T11:26:28Z</time>
      </trkpt>
      <trkpt lat="48.14474" lon="-3.72383">
        <ele>267</ele>
        <time>2022-12-08T11:26:29Z</time>
      </trkpt>
      <trkpt lat="48.14474" lon="-3.72383">
        <ele>267</ele>
        <time>2022-12-08T11:26:30Z</time>
      </trkpt>
      <trkpt lat="48.14474" lon="-3.72383">
        <ele>267</ele>
        <time>2022-12-08T11:26:31Z</time>
      </trkpt>
      <trkpt lat="48.14474" lon="-3.72383">
        <ele>267</ele>
        <time>2022-12-08T11:26:32Z</time>
      </trkpt>
      <trkpt lat="48.14474" lon="-3.72383">
        <ele>267</ele>
        <time>2022-12-08T11:26:33Z</time>
      </trkpt>
      <trkpt lat="48.14474" lon="-3.72383">
        <ele>267</ele>
        <time>2022-12-08T11:26:34Z</time>
      </trkpt>
      <trkpt lat="48.14474" lon="-3.72383">
        <ele>267</ele>
        <time>2022-12-08T11:26:35Z</time>
      </trkpt>
      <trkpt lat="48.14474" lon="-3.72383">
        <ele>267</ele>
        <time>2022-12-08T11:26:36Z</time>
      </trkpt>
      <trkpt lat="48.14474" lon="-3.72383">
        <ele>267</ele>
        <time>2022-12-08T11:26:37Z</time>
      </trkpt>
      <trkpt lat="48.14474" lon="-3.72383">
        <ele>267</ele>
        <time>2022-12-08T11:26:38Z</time>
      </trkpt>
      <trkpt lat="48.14474" lon="-3.72383">
        <ele>267</ele>
        <time>2022-12-08T11:26:39Z</time>
      </trkpt>
      <trkpt lat="48.14474" lon="-3.72383">
        <ele>267</ele>
        <time>2022-12-08T11:26:40Z</time>
      </trkpt>
      <trkpt lat="48.14474" lon="-3.72383">
        <ele>267</ele>
        <time>2022-12-08T11:26:41Z</time>
      </trkpt>
      <trkpt lat="48.14474" lon="-3.72383">
        <ele>267</ele>
        <time>2022-12-08T11:26:42Z</time>
      </trkpt>
      <trkpt lat="48.14474" lon="-3.72383">
        <ele>267</ele>
        <time>2022-12-08T11:26:43Z</time>
      </trkpt>
      <trkpt lat="48.14474" lon="-3.72383">
        <ele>267</ele>
        <time>2022-12-08T11:26:44Z</time>
      </trkpt>
      <trkpt lat="48.14474" lon="-3.72383">
        <ele>267</ele>
        <time>2022-12-08T11:26:45Z</time>
      </trkpt>
      <trkpt lat="48.14474" lon="-3.72383">
        <ele>267</ele>
        <time>2022-12-08T11:26:46Z</time>
      </trkpt>
      <trkpt lat="48.14474" lon="-3.72383">
        <ele>267</ele>
        <time>2022-12-08T11:26:47Z</time>
      </trkpt>
      <trkpt lat="48.14474" lon="-3.72383">
        <ele>267</ele>
        <time>2022-12-08T11:26:48Z</time>
      </trkpt>
      <trkpt lat="48.14474" lon="-3.72383">
        <ele>267</ele>
        <time>2022-12-08T11:26:49Z</time>
      </trkpt>
      <trkpt lat="48.14474" lon="-3.72383">
        <ele>267</ele>
        <time>2022-12-08T11:26:50Z</time>
      </trkpt>
      <trkpt lat="48.14474" lon="-3.72383">
        <ele>267</ele>
        <time>2022-12-08T11:26:51Z</time>
      </trkpt>
      <trkpt lat="48.14474" lon="-3.72383">
        <ele>267</ele>
        <time>2022-12-08T11:26:52Z</time>
      </trkpt>
      <trkpt lat="48.14474" lon="-3.72383">
        <ele>267</ele>
        <time>2022-12-08T11:26:53Z</time>
      </trkpt>
      <trkpt lat="48.14474" lon="-3.72383">
        <ele>267</ele>
        <time>2022-12-08T11:26:54Z</time>
      </trkpt>
      <trkpt lat="48.14474" lon="-3.72383">
        <ele>267</ele>
        <time>2022-12-08T11:26:55Z</time>
      </trkpt>
      <trkpt lat="48.14474" lon="-3.72383">
        <ele>267</ele>
        <time>2022-12-08T11:26:56Z</time>
      </trkpt>
      <trkpt lat="48.14474" lon="-3.72383">
        <ele>267</ele>
        <time>2022-12-08T11:26:57Z</time>
      </trkpt>
      <trkpt lat="48.14474" lon="-3.72383">
        <ele>267</ele>
        <time>2022-12-08T11:26:58Z</time>
      </trkpt>
      <trkpt lat="48.14474" lon="-3.72383">
        <ele>267</ele>
        <time>2022-12-08T11:26:59Z</time>
      </trkpt>
      <trkpt lat="48.14474" lon="-3.72383">
        <ele>267</ele>
        <time>2022-12-08T11:27:00Z</time>
      </trkpt>
      <trkpt lat="48.14474" lon="-3.72383">
        <ele>267</ele>
        <time>2022-12-08T11:27:01Z</time>
      </trkpt>
      <trkpt lat="48.14474" lon="-3.72383">
        <ele>267</ele>
        <time>2022-12-08T11:27:02Z</time>
      </trkpt>
      <trkpt lat="48.14474" lon="-3.72383">
        <ele>267</ele>
        <time>2022-12-08T11:27:03Z</time>
      </trkpt>
      <trkpt lat="48.14474" lon="-3.72383">
        <ele>267</ele>
        <time>2022-12-08T11:27:04Z</time>
      </trkpt>
      <trkpt lat="48.14474" lon="-3.72383">
        <ele>267</ele>
        <time>2022-12-08T11:27:05Z</time>
      </trkpt>
      <trkpt lat="48.14474" lon="-3.72383">
        <ele>267</ele>
        <time>2022-12-08T11:27:06Z</time>
      </trkpt>
      <trkpt lat="48.14474" lon="-3.72383">
        <ele>267</ele>
        <time>2022-12-08T11:27:07Z</time>
      </trkpt>
      <trkpt lat="48.14474" lon="-3.72383">
        <ele>267</ele>
        <time>2022-12-08T11:27:08Z</time>
      </trkpt>
      <trkpt lat="48.14474" lon="-3.72383">
        <ele>267</ele>
        <time>2022-12-08T11:27:09Z</time>
      </trkpt>
      <trkpt lat="48.14474" lon="-3.72383">
        <ele>267</ele>
        <time>2022-12-08T11:27:10Z</time>
      </trkpt>
      <trkpt lat="48.14474" lon="-3.72383">
        <ele>267</ele>
        <time>2022-12-08T11:27:11Z</time>
      </trkpt>
      <trkpt lat="48.14474" lon="-3.72383">
        <ele>267</ele>
        <time>2022-12-08T11:27:12Z</time>
      </trkpt>
      <trkpt lat="48.14474" lon="-3.72383">
        <ele>267</ele>
        <time>2022-12-08T11:27:13Z</time>
      </trkpt>
      <trkpt lat="48.14474" lon="-3.72383">
        <ele>267</ele>
        <time>2022-12-08T11:27:14Z</time>
      </trkpt>
      <trkpt lat="48.14474" lon="-3.72383">
        <ele>267</ele>
        <time>2022-12-08T11:27:15Z</time>
      </trkpt>
      <trkpt lat="48.14475" lon="-3.72383">
        <ele>267</ele>
        <time>2022-12-08T11:27:16Z</time>
      </trkpt>
      <trkpt lat="48.14475" lon="-3.72384">
        <ele>267</ele>
        <time>2022-12-08T11:27:17Z</time>
      </trkpt>
      <trkpt lat="48.14474" lon="-3.72385">
        <ele>267</ele>
        <time>2022-12-08T11:27:18Z</time>
      </trkpt>
      <trkpt lat="48.14474" lon="-3.72386">
        <ele>267</ele>
        <time>2022-12-08T11:27:19Z</time>
      </trkpt>
      <trkpt lat="48.14474" lon="-3.72387">
        <ele>267</ele>
        <time>2022-12-08T11:27:20Z</time>
      </trkpt>
      <trkpt lat="48.14474" lon="-3.72388">
        <ele>267</ele>
        <time>2022-12-08T11:27:21Z</time>
      </trkpt>
      <trkpt lat="48.14474" lon="-3.72389">
        <ele>267</ele>
        <time>2022-12-08T11:27:22Z</time>
      </trkpt>
      <trkpt lat="48.14474" lon="-3.72388">
        <ele>267.1</ele>
        <time>2022-12-08T11:27:23Z</time>
      </trkpt>
      <trkpt lat="48.14474" lon="-3.72388">
        <ele>267.1</ele>
        <time>2022-12-08T11:27:24Z</time>
      </trkpt>
      <trkpt lat="48.14474" lon="-3.72387">
        <ele>267.1</ele>
        <time>2022-12-08T11:27:25Z</time>
      </trkpt>
      <trkpt lat="48.14474" lon="-3.72387">
        <ele>267.1</ele>
        <time>2022-12-08T11:27:26Z</time>
      </trkpt>
      <trkpt lat="48.14473" lon="-3.72386">
        <ele>267.1</ele>
        <time>2022-12-08T11:27:27Z</time>
      </trkpt>
      <trkpt lat="48.14472" lon="-3.72385">
        <ele>267.1</ele>
        <time>2022-12-08T11:27:28Z</time>
      </trkpt>
      <trkpt lat="48.14472" lon="-3.72384">
        <ele>267.1</ele>
        <time>2022-12-08T11:27:29Z</time>
      </trkpt>
      <trkpt lat="48.14471" lon="-3.72384">
        <ele>267.1</ele>
        <time>2022-12-08T11:27:30Z</time>
      </trkpt>
      <trkpt lat="48.1447" lon="-3.72383">
        <ele>267.1</ele>
        <time>2022-12-08T11:27:31Z</time>
      </trkpt>
      <trkpt lat="48.1447" lon="-3.72382">
        <ele>267.1</ele>
        <time>2022-12-08T11:27:32Z</time>
      </trkpt>
      <trkpt lat="48.14469" lon="-3.72382">
        <ele>267.1</ele>
        <time>2022-12-08T11:27:33Z</time>
      </trkpt>
      <trkpt lat="48.14469" lon="-3.72382">
        <ele>267.1</ele>
        <time>2022-12-08T11:27:34Z</time>
      </trkpt>
      <trkpt lat="48.14469" lon="-3.72382">
        <ele>267.1</ele>
        <time>2022-12-08T11:27:35Z</time>
      </trkpt>
      <trkpt lat="48.14469" lon="-3.72382">
        <ele>267.1</ele>
        <time>2022-12-08T11:27:36Z</time>
      </trkpt>
      <trkpt lat="48.14469" lon="-3.72382">
        <ele>267.1</ele>
        <time>2022-12-08T11:27:37Z</time>
      </trkpt>
      <trkpt lat="48.14469" lon="-3.72382">
        <ele>267.1</ele>
        <time>2022-12-08T11:27:38Z</time>
      </trkpt>
      <trkpt lat="48.14468" lon="-3.72383">
        <ele>267.1</ele>
        <time>2022-12-08T11:27:39Z</time>
      </trkpt>
      <trkpt lat="48.14468" lon="-3.72383">
        <ele>267.1</ele>
        <time>2022-12-08T11:27:40Z</time>
      </trkpt>
      <trkpt lat="48.14468" lon="-3.72383">
        <ele>267.1</ele>
        <time>2022-12-08T11:27:41Z</time>
      </trkpt>
      <trkpt lat="48.14468" lon="-3.72383">
        <ele>267.1</ele>
        <time>2022-12-08T11:27:42Z</time>
      </trkpt>
      <trkpt lat="48.14468" lon="-3.72383">
        <ele>267.1</ele>
        <time>2022-12-08T11:27:43Z</time>
      </trkpt>
      <trkpt lat="48.14468" lon="-3.72383">
        <ele>267.1</ele>
        <time>2022-12-08T11:27:44Z</time>
      </trkpt>
      <trkpt lat="48.14468" lon="-3.72384">
        <ele>267.1</ele>
        <time>2022-12-08T11:27:45Z</time>
      </trkpt>
      <trkpt lat="48.14468" lon="-3.72384">
        <ele>267.1</ele>
        <time>2022-12-08T11:27:46Z</time>
      </trkpt>
      <trkpt lat="48.14467" lon="-3.72384">
        <ele>267.1</ele>
        <time>2022-12-08T11:27:47Z</time>
      </trkpt>
      <trkpt lat="48.14467" lon="-3.72384">
        <ele>267.1</ele>
        <time>2022-12-08T11:27:48Z</time>
      </trkpt>
      <trkpt lat="48.14467" lon="-3.72384">
        <ele>267.1</ele>
        <time>2022-12-08T11:27:49Z</time>
      </trkpt>
      <trkpt lat="48.14467" lon="-3.72384">
        <ele>267.1</ele>
        <time>2022-12-08T11:27:50Z</time>
      </trkpt>
      <trkpt lat="48.14467" lon="-3.72384">
        <ele>267.1</ele>
        <time>2022-12-08T11:27:51Z</time>
      </trkpt>
      <trkpt lat="48.14467" lon="-3.72385">
        <ele>267.1</ele>
        <time>2022-12-08T11:27:52Z</time>
      </trkpt>
      <trkpt lat="48.14467" lon="-3.72385">
        <ele>267.1</ele>
        <time>2022-12-08T11:27:53Z</time>
      </trkpt>
      <trkpt lat="48.14467" lon="-3.72385">
        <ele>267.1</ele>
        <time>2022-12-08T11:27:54Z</time>
      </trkpt>
      <trkpt lat="48.14466" lon="-3.72385">
        <ele>267.1</ele>
        <time>2022-12-08T11:27:55Z</time>
      </trkpt>
      <trkpt lat="48.14464" lon="-3.72385">
        <ele>267.2</ele>
        <time>2022-12-08T11:27:56Z</time>
      </trkpt>
      <trkpt lat="48.14464" lon="-3.72385">
        <ele>267.2</ele>
        <time>2022-12-08T11:27:57Z</time>
      </trkpt>
      <trkpt lat="48.14463" lon="-3.72384">
        <ele>267.2</ele>
        <time>2022-12-08T11:27:58Z</time>
      </trkpt>
      <trkpt lat="48.14463" lon="-3.72381">
        <ele>267.2</ele>
        <time>2022-12-08T11:28:00Z</time>
      </trkpt>
      <trkpt lat="48.14464" lon="-3.7238">
        <ele>267.2</ele>
        <time>2022-12-08T11:28:01Z</time>
      </trkpt>
      <trkpt lat="48.14465" lon="-3.72379">
        <ele>267.2</ele>
        <time>2022-12-08T11:28:02Z</time>
      </trkpt>
      <trkpt lat="48.14465" lon="-3.72378">
        <ele>267.2</ele>
        <time>2022-12-08T11:28:03Z</time>
      </trkpt>
      <trkpt lat="48.14465" lon="-3.72376">
        <ele>267.2</ele>
        <time>2022-12-08T11:28:04Z</time>
      </trkpt>
      <trkpt lat="48.14465" lon="-3.72375">
        <ele>267.2</ele>
        <time>2022-12-08T11:28:05Z</time>
      </trkpt>
      <trkpt lat="48.14465" lon="-3.72375">
        <ele>267.2</ele>
        <time>2022-12-08T11:28:06Z</time>
      </trkpt>
      <trkpt lat="48.14466" lon="-3.72375">
        <ele>267.2</ele>
        <time>2022-12-08T11:28:07Z</time>
      </trkpt>
      <trkpt lat="48.14466" lon="-3.72375">
        <ele>267.2</ele>
        <time>2022-12-08T11:28:08Z</time>
      </trkpt>
      <trkpt lat="48.14467" lon="-3.72375">
        <ele>267.2</ele>
        <time>2022-12-08T11:28:09Z</time>
      </trkpt>
      <trkpt lat="48.14467" lon="-3.72375">
        <ele>267.2</ele>
        <time>2022-12-08T11:28:10Z</time>
      </trkpt>
      <trkpt lat="48.14468" lon="-3.72376">
        <ele>267.2</ele>
        <time>2022-12-08T11:28:11Z</time>
      </trkpt>
      <trkpt lat="48.14468" lon="-3.72376">
        <ele>267.2</ele>
        <time>2022-12-08T11:28:12Z</time>
      </trkpt>
      <trkpt lat="48.14468" lon="-3.72376">
        <ele>267.3</ele>
        <time>2022-12-08T11:28:13Z</time>
      </trkpt>
      <trkpt lat="48.14469" lon="-3.72376">
        <ele>267.3</ele>
        <time>2022-12-08T11:28:14Z</time>
      </trkpt>
      <trkpt lat="48.14469" lon="-3.72376">
        <ele>267.3</ele>
        <time>2022-12-08T11:28:15Z</time>
      </trkpt>
      <trkpt lat="48.1447" lon="-3.72376">
        <ele>267.3</ele>
        <time>2022-12-08T11:28:16Z</time>
      </trkpt>
      <trkpt lat="48.1447" lon="-3.72376">
        <ele>267.3</ele>
        <time>2022-12-08T11:28:17Z</time>
      </trkpt>
      <trkpt lat="48.14472" lon="-3.72376">
        <ele>267.3</ele>
        <time>2022-12-08T11:28:18Z</time>
      </trkpt>
      <trkpt lat="48.14473" lon="-3.72378">
        <ele>267.3</ele>
        <time>2022-12-08T11:28:19Z</time>
      </trkpt>
      <trkpt lat="48.14473" lon="-3.7238">
        <ele>267.3</ele>
        <time>2022-12-08T11:28:20Z</time>
      </trkpt>
      <trkpt lat="48.14474" lon="-3.72381">
        <ele>267.3</ele>
        <time>2022-12-08T11:28:21Z</time>
      </trkpt>
      <trkpt lat="48.14474" lon="-3.72382">
        <ele>267.3</ele>
        <time>2022-12-08T11:28:22Z</time>
      </trkpt>
      <trkpt lat="48.14475" lon="-3.72383">
        <ele>267.3</ele>
        <time>2022-12-08T11:28:23Z</time>
      </trkpt>
      <trkpt lat="48.14474" lon="-3.72384">
        <ele>267.3</ele>
        <time>2022-12-08T11:28:24Z</time>
      </trkpt>
      <trkpt lat="48.14474" lon="-3.72383">
        <ele>267.3</ele>
        <time>2022-12-08T11:28:25Z</time>
      </trkpt>
      <trkpt lat="48.14474" lon="-3.72383">
        <ele>267.3</ele>
        <time>2022-12-08T11:28:26Z</time>
      </trkpt>
      <trkpt lat="48.14473" lon="-3.72382">
        <ele>267.3</ele>
        <time>2022-12-08T11:28:27Z</time>
      </trkpt>
      <trkpt lat="48.14473" lon="-3.72381">
        <ele>267.3</ele>
        <time>2022-12-08T11:28:28Z</time>
      </trkpt>
      <trkpt lat="48.14473" lon="-3.72381">
        <ele>267.3</ele>
        <time>2022-12-08T11:28:29Z</time>
      </trkpt>
      <trkpt lat="48.14474" lon="-3.72381">
        <ele>267.3</ele>
        <time>2022-12-08T11:28:30Z</time>
      </trkpt>
      <trkpt lat="48.14474" lon="-3.72381">
        <ele>267.3</ele>
        <time>2022-12-08T11:28:31Z</time>
      </trkpt>
      <trkpt lat="48.14474" lon="-3.72381">
        <ele>267.4</ele>
        <time>2022-12-08T11:28:32Z</time>
      </trkpt>
      <trkpt lat="48.14474" lon="-3.72381">
        <ele>267.4</ele>
        <time>2022-12-08T11:28:33Z</time>
      </trkpt>
      <trkpt lat="48.14474" lon="-3.72381">
        <ele>267.4</ele>
        <time>2022-12-08T11:28:34Z</time>
      </trkpt>
      <trkpt lat="48.14474" lon="-3.7238">
        <ele>267.4</ele>
        <time>2022-12-08T11:28:35Z</time>
      </trkpt>
      <trkpt lat="48.14475" lon="-3.7238">
        <ele>267.4</ele>
        <time>2022-12-08T11:28:36Z</time>
      </trkpt>
      <trkpt lat="48.14475" lon="-3.7238">
        <ele>267.4</ele>
        <time>2022-12-08T11:28:37Z</time>
      </trkpt>
      <trkpt lat="48.14475" lon="-3.72381">
        <ele>267.4</ele>
        <time>2022-12-08T11:28:38Z</time>
      </trkpt>
      <trkpt lat="48.14475" lon="-3.72381">
        <ele>267.4</ele>
        <time>2022-12-08T11:28:39Z</time>
      </trkpt>
      <trkpt lat="48.14475" lon="-3.72381">
        <ele>267.4</ele>
        <time>2022-12-08T11:28:40Z</time>
      </trkpt>
      <trkpt lat="48.14475" lon="-3.72381">
        <ele>267.4</ele>
        <time>2022-12-08T11:28:41Z</time>
      </trkpt>
      <trkpt lat="48.14475" lon="-3.72382">
        <ele>267.4</ele>
        <time>2022-12-08T11:28:42Z</time>
      </trkpt>
      <trkpt lat="48.14475" lon="-3.72382">
        <ele>267.4</ele>
        <time>2022-12-08T11:28:43Z</time>
      </trkpt>
      <trkpt lat="48.14475" lon="-3.72382">
        <ele>267.4</ele>
        <time>2022-12-08T11:28:44Z</time>
      </trkpt>
      <trkpt lat="48.14475" lon="-3.72382">
        <ele>267.4</ele>
        <time>2022-12-08T11:28:45Z</time>
      </trkpt>
      <trkpt lat="48.14475" lon="-3.72382">
        <ele>267.4</ele>
        <time>2022-12-08T11:28:46Z</time>
      </trkpt>
      <trkpt lat="48.14475" lon="-3.72382">
        <ele>267.4</ele>
        <time>2022-12-08T11:28:47Z</time>
      </trkpt>
      <trkpt lat="48.14476" lon="-3.72379">
        <ele>267.4</ele>
        <time>2022-12-08T11:36:34Z</time>
      </trkpt>
      <trkpt lat="48.14476" lon="-3.72379">
        <ele>267.4</ele>
        <time>2022-12-08T11:36:35Z</time>
      </trkpt>
      <trkpt lat="48.14476" lon="-3.72379">
        <ele>267.4</ele>
        <time>2022-12-08T11:36:36Z</time>
      </trkpt>
      <trkpt lat="48.14476" lon="-3.72379">
        <ele>267.4</ele>
        <time>2022-12-08T11:36:37Z</time>
      </trkpt>
      <trkpt lat="48.14476" lon="-3.72379">
        <ele>267.4</ele>
        <time>2022-12-08T11:36:38Z</time>
      </trkpt>
      <trkpt lat="48.14476" lon="-3.72379">
        <ele>267.4</ele>
        <time>2022-12-08T11:36:39Z</time>
      </trkpt>
      <trkpt lat="48.14476" lon="-3.72379">
        <ele>267.4</ele>
        <time>2022-12-08T11:36:40Z</time>
      </trkpt>
      <trkpt lat="48.14476" lon="-3.72379">
        <ele>267.4</ele>
        <time>2022-12-08T11:36:41Z</time>
      </trkpt>
      <trkpt lat="48.14476" lon="-3.72379">
        <ele>267.4</ele>
        <time>2022-12-08T11:36:42Z</time>
      </trkpt>
      <trkpt lat="48.14476" lon="-3.72379">
        <ele>267.4</ele>
        <time>2022-12-08T11:36:43Z</time>
      </trkpt>
      <trkpt lat="48.14476" lon="-3.72379">
        <ele>267.4</ele>
        <time>2022-12-08T11:36:44Z</time>
      </trkpt>
      <trkpt lat="48.14476" lon="-3.72379">
        <ele>267.4</ele>
        <time>2022-12-08T11:36:45Z</time>
      </trkpt>
      <trkpt lat="48.14476" lon="-3.72379">
        <ele>267.4</ele>
        <time>2022-12-08T11:36:46Z</time>
      </trkpt>
      <trkpt lat="48.14476" lon="-3.72379">
        <ele>267.4</ele>
        <time>2022-12-08T11:36:47Z</time>
      </trkpt>
      <trkpt lat="48.14476" lon="-3.72379">
        <ele>267.4</ele>
        <time>2022-12-08T11:36:48Z</time>
      </trkpt>
      <trkpt lat="48.14476" lon="-3.72379">
        <ele>267.4</ele>
        <time>2022-12-08T11:36:49Z</time>
      </trkpt>
      <trkpt lat="48.14476" lon="-3.72379">
        <ele>267.4</ele>
        <time>2022-12-08T11:36:50Z</time>
      </trkpt>
      <trkpt lat="48.14476" lon="-3.72379">
        <ele>267.4</ele>
        <time>2022-12-08T11:36:51Z</time>
      </trkpt>
      <trkpt lat="48.14476" lon="-3.72379">
        <ele>267.4</ele>
        <time>2022-12-08T11:36:52Z</time>
      </trkpt>
      <trkpt lat="48.14476" lon="-3.72379">
        <ele>267.4</ele>
        <time>2022-12-08T11:36:53Z</time>
      </trkpt>
      <trkpt lat="48.14476" lon="-3.72379">
        <ele>267.4</ele>
        <time>2022-12-08T11:36:54Z</time>
      </trkpt>
      <trkpt lat="48.14476" lon="-3.72379">
        <ele>267.4</ele>
        <time>2022-12-08T11:36:55Z</time>
      </trkpt>
      <trkpt lat="48.14476" lon="-3.72379">
        <ele>267.4</ele>
        <time>2022-12-08T11:36:56Z</time>
      </trkpt>
      <trkpt lat="48.14476" lon="-3.72379">
        <ele>267.4</ele>
        <time>2022-12-08T11:36:57Z</time>
      </trkpt>
      <trkpt lat="48.14476" lon="-3.72379">
        <ele>267.4</ele>
        <time>2022-12-08T11:36:58Z</time>
      </trkpt>
      <trkpt lat="48.14476" lon="-3.72379">
        <ele>267.4</ele>
        <time>2022-12-08T11:36:59Z</time>
      </trkpt>
      <trkpt lat="48.14476" lon="-3.72379">
        <ele>267.4</ele>
        <time>2022-12-08T11:37:00Z</time>
      </trkpt>
      <trkpt lat="48.14476" lon="-3.72379">
        <ele>267.4</ele>
        <time>2022-12-08T11:37:01Z</time>
      </trkpt>
      <trkpt lat="48.14476" lon="-3.72379">
        <ele>267.4</ele>
        <time>2022-12-08T11:37:02Z</time>
      </trkpt>
      <trkpt lat="48.14476" lon="-3.72379">
        <ele>267.4</ele>
        <time>2022-12-08T11:37:03Z</time>
      </trkpt>
      <trkpt lat="48.14476" lon="-3.72379">
        <ele>267.4</ele>
        <time>2022-12-08T11:37:04Z</time>
      </trkpt>
      <trkpt lat="48.14476" lon="-3.72379">
        <ele>267.4</ele>
        <time>2022-12-08T11:37:05Z</time>
      </trkpt>
      <trkpt lat="48.14476" lon="-3.72379">
        <ele>267.4</ele>
        <time>2022-12-08T11:37:06Z</time>
      </trkpt>
      <trkpt lat="48.14476" lon="-3.72379">
        <ele>267.4</ele>
        <time>2022-12-08T11:37:07Z</time>
      </trkpt>
      <trkpt lat="48.14476" lon="-3.72379">
        <ele>267.4</ele>
        <time>2022-12-08T11:37:08Z</time>
      </trkpt>
      <trkpt lat="48.14476" lon="-3.72379">
        <ele>267.4</ele>
        <time>2022-12-08T11:37:09Z</time>
      </trkpt>
      <trkpt lat="48.14476" lon="-3.72379">
        <ele>267.4</ele>
        <time>2022-12-08T11:37:10Z</time>
      </trkpt>
      <trkpt lat="48.14476" lon="-3.72379">
        <ele>267.4</ele>
        <time>2022-12-08T11:37:11Z</time>
      </trkpt>
      <trkpt lat="48.14476" lon="-3.72379">
        <ele>267.4</ele>
        <time>2022-12-08T11:37:12Z</time>
      </trkpt>
      <trkpt lat="48.14476" lon="-3.72379">
        <ele>267.4</ele>
        <time>2022-12-08T11:37:13Z</time>
      </trkpt>
      <trkpt lat="48.14476" lon="-3.72379">
        <ele>267.4</ele>
        <time>2022-12-08T11:37:14Z</time>
      </trkpt>
      <trkpt lat="48.14476" lon="-3.72379">
        <ele>267.4</ele>
        <time>2022-12-08T11:37:15Z</time>
      </trkpt>
      <trkpt lat="48.14476" lon="-3.72379">
        <ele>267.4</ele>
        <time>2022-12-08T11:37:16Z</time>
      </trkpt>
      <trkpt lat="48.14476" lon="-3.72379">
        <ele>267.4</ele>
        <time>2022-12-08T11:37:17Z</time>
      </trkpt>
      <trkpt lat="48.14476" lon="-3.72379">
        <ele>267.4</ele>
        <time>2022-12-08T11:37:18Z</time>
      </trkpt>
      <trkpt lat="48.14476" lon="-3.72379">
        <ele>267.4</ele>
        <time>2022-12-08T11:37:19Z</time>
      </trkpt>
      <trkpt lat="48.14476" lon="-3.72379">
        <ele>267.4</ele>
        <time>2022-12-08T11:37:20Z</time>
      </trkpt>
      <trkpt lat="48.14476" lon="-3.72379">
        <ele>267.4</ele>
        <time>2022-12-08T11:37:21Z</time>
      </trkpt>
      <trkpt lat="48.14476" lon="-3.72379">
        <ele>267.4</ele>
        <time>2022-12-08T11:37:22Z</time>
      </trkpt>
      <trkpt lat="48.14476" lon="-3.72379">
        <ele>267.4</ele>
        <time>2022-12-08T11:37:23Z</time>
      </trkpt>
      <trkpt lat="48.14476" lon="-3.72379">
        <ele>267.4</ele>
        <time>2022-12-08T11:37:24Z</time>
      </trkpt>
      <trkpt lat="48.14476" lon="-3.72379">
        <ele>267.4</ele>
        <time>2022-12-08T11:37:25Z</time>
      </trkpt>
      <trkpt lat="48.14476" lon="-3.72379">
        <ele>267.4</ele>
        <time>2022-12-08T11:37:26Z</time>
      </trkpt>
      <trkpt lat="48.14476" lon="-3.72379">
        <ele>267.4</ele>
        <time>2022-12-08T11:37:27Z</time>
      </trkpt>
      <trkpt lat="48.14476" lon="-3.72379">
        <ele>267.4</ele>
        <time>2022-12-08T11:37:28Z</time>
      </trkpt>
      <trkpt lat="48.14476" lon="-3.72379">
        <ele>267.4</ele>
        <time>2022-12-08T11:37:29Z</time>
      </trkpt>
      <trkpt lat="48.14476" lon="-3.72379">
        <ele>267.4</ele>
        <time>2022-12-08T11:37:30Z</time>
      </trkpt>
      <trkpt lat="48.14476" lon="-3.72379">
        <ele>267.4</ele>
        <time>2022-12-08T11:37:31Z</time>
      </trkpt>
      <trkpt lat="48.14476" lon="-3.72379">
        <ele>267.4</ele>
        <time>2022-12-08T11:37:32Z</time>
      </trkpt>
      <trkpt lat="48.14476" lon="-3.72379">
        <ele>267.4</ele>
        <time>2022-12-08T11:37:33Z</time>
      </trkpt>
      <trkpt lat="48.14476" lon="-3.72379">
        <ele>267.4</ele>
        <time>2022-12-08T11:37:34Z</time>
      </trkpt>
      <trkpt lat="48.14476" lon="-3.72379">
        <ele>267.4</ele>
        <time>2022-12-08T11:37:35Z</time>
      </trkpt>
      <trkpt lat="48.14476" lon="-3.72379">
        <ele>267.4</ele>
        <time>2022-12-08T11:37:36Z</time>
      </trkpt>
      <trkpt lat="48.14476" lon="-3.72379">
        <ele>267.4</ele>
        <time>2022-12-08T11:37:37Z</time>
      </trkpt>
      <trkpt lat="48.14476" lon="-3.72379">
        <ele>267.4</ele>
        <time>2022-12-08T11:37:38Z</time>
      </trkpt>
      <trkpt lat="48.14476" lon="-3.72379">
        <ele>267.4</ele>
        <time>2022-12-08T11:37:39Z</time>
      </trkpt>
      <trkpt lat="48.14476" lon="-3.72379">
        <ele>267.4</ele>
        <time>2022-12-08T11:37:40Z</time>
      </trkpt>
      <trkpt lat="48.14476" lon="-3.72379">
        <ele>267.4</ele>
        <time>2022-12-08T11:37:41Z</time>
      </trkpt>
      <trkpt lat="48.14476" lon="-3.72379">
        <ele>267.4</ele>
        <time>2022-12-08T11:37:42Z</time>
      </trkpt>
      <trkpt lat="48.14476" lon="-3.72379">
        <ele>267.4</ele>
        <time>2022-12-08T11:37:43Z</time>
      </trkpt>
      <trkpt lat="48.14476" lon="-3.72379">
        <ele>267.4</ele>
        <time>2022-12-08T11:37:44Z</time>
      </trkpt>
      <trkpt lat="48.14476" lon="-3.72379">
        <ele>267.4</ele>
        <time>2022-12-08T11:37:45Z</time>
      </trkpt>
      <trkpt lat="48.14476" lon="-3.72379">
        <ele>267.4</ele>
        <time>2022-12-08T11:37:46Z</time>
      </trkpt>
      <trkpt lat="48.14476" lon="-3.72379">
        <ele>267.4</ele>
        <time>2022-12-08T11:37:47Z</time>
      </trkpt>
      <trkpt lat="48.14476" lon="-3.72379">
        <ele>267.4</ele>
        <time>2022-12-08T11:37:48Z</time>
      </trkpt>
      <trkpt lat="48.14476" lon="-3.72379">
        <ele>267.4</ele>
        <time>2022-12-08T11:37:49Z</time>
      </trkpt>
      <trkpt lat="48.14476" lon="-3.72379">
        <ele>267.4</ele>
        <time>2022-12-08T11:37:50Z</time>
      </trkpt>
      <trkpt lat="48.14476" lon="-3.72379">
        <ele>267.4</ele>
        <time>2022-12-08T11:37:51Z</time>
      </trkpt>
      <trkpt lat="48.14476" lon="-3.72379">
        <ele>267.4</ele>
        <time>2022-12-08T11:37:52Z</time>
      </trkpt>
      <trkpt lat="48.14476" lon="-3.72379">
        <ele>267.4</ele>
        <time>2022-12-08T11:37:53Z</time>
      </trkpt>
      <trkpt lat="48.14476" lon="-3.72379">
        <ele>267.4</ele>
        <time>2022-12-08T11:37:54Z</time>
      </trkpt>
      <trkpt lat="48.14476" lon="-3.72379">
        <ele>267.4</ele>
        <time>2022-12-08T11:37:55Z</time>
      </trkpt>
      <trkpt lat="48.14476" lon="-3.72379">
        <ele>267.3</ele>
        <time>2022-12-08T11:37:56Z</time>
      </trkpt>
      <trkpt lat="48.14476" lon="-3.72379">
        <ele>267.3</ele>
        <time>2022-12-08T11:37:57Z</time>
      </trkpt>
      <trkpt lat="48.14476" lon="-3.72379">
        <ele>267.3</ele>
        <time>2022-12-08T11:37:58Z</time>
      </trkpt>
      <trkpt lat="48.14476" lon="-3.72379">
        <ele>267.3</ele>
        <time>2022-12-08T11:37:59Z</time>
      </trkpt>
      <trkpt lat="48.14476" lon="-3.72379">
        <ele>267.3</ele>
        <time>2022-12-08T11:38:00Z</time>
      </trkpt>
      <trkpt lat="48.14476" lon="-3.72379">
        <ele>267.3</ele>
        <time>2022-12-08T11:38:01Z</time>
      </trkpt>
      <trkpt lat="48.14476" lon="-3.72379">
        <ele>267.3</ele>
        <time>2022-12-08T11:38:02Z</time>
      </trkpt>
      <trkpt lat="48.14476" lon="-3.72379">
        <ele>267.3</ele>
        <time>2022-12-08T11:38:03Z</time>
      </trkpt>
      <trkpt lat="48.14476" lon="-3.72379">
        <ele>267.3</ele>
        <time>2022-12-08T11:38:04Z</time>
      </trkpt>
      <trkpt lat="48.14476" lon="-3.72379">
        <ele>267.3</ele>
        <time>2022-12-08T11:38:05Z</time>
      </trkpt>
      <trkpt lat="48.14476" lon="-3.72379">
        <ele>267.3</ele>
        <time>2022-12-08T11:38:06Z</time>
      </trkpt>
      <trkpt lat="48.14476" lon="-3.72379">
        <ele>267.3</ele>
        <time>2022-12-08T11:38:07Z</time>
      </trkpt>
      <trkpt lat="48.14476" lon="-3.72379">
        <ele>267.3</ele>
        <time>2022-12-08T11:38:08Z</time>
      </trkpt>
      <trkpt lat="48.14476" lon="-3.72379">
        <ele>267.3</ele>
        <time>2022-12-08T11:38:09Z</time>
      </trkpt>
      <trkpt lat="48.14476" lon="-3.72379">
        <ele>267.3</ele>
        <time>2022-12-08T11:38:10Z</time>
      </trkpt>
      <trkpt lat="48.14476" lon="-3.72379">
        <ele>267.3</ele>
        <time>2022-12-08T11:38:11Z</time>
      </trkpt>
      <trkpt lat="48.14476" lon="-3.72379">
        <ele>267.3</ele>
        <time>2022-12-08T11:38:12Z</time>
      </trkpt>
      <trkpt lat="48.14476" lon="-3.72379">
        <ele>267.3</ele>
        <time>2022-12-08T11:38:13Z</time>
      </trkpt>
      <trkpt lat="48.14476" lon="-3.72379">
        <ele>267.3</ele>
        <time>2022-12-08T11:38:14Z</time>
      </trkpt>
      <trkpt lat="48.14476" lon="-3.72379">
        <ele>267.3</ele>
        <time>2022-12-08T11:38:15Z</time>
      </trkpt>
      <trkpt lat="48.14476" lon="-3.72379">
        <ele>267.3</ele>
        <time>2022-12-08T11:38:16Z</time>
      </trkpt>
      <trkpt lat="48.14476" lon="-3.72379">
        <ele>267.3</ele>
        <time>2022-12-08T11:38:17Z</time>
      </trkpt>
      <trkpt lat="48.14476" lon="-3.72379">
        <ele>267.3</ele>
        <time>2022-12-08T11:38:18Z</time>
      </trkpt>
      <trkpt lat="48.14476" lon="-3.72379">
        <ele>267.3</ele>
        <time>2022-12-08T11:38:19Z</time>
      </trkpt>
      <trkpt lat="48.14476" lon="-3.72379">
        <ele>267.3</ele>
        <time>2022-12-08T11:38:20Z</time>
      </trkpt>
      <trkpt lat="48.14476" lon="-3.72378">
        <ele>267.2</ele>
        <time>2022-12-08T11:38:21Z</time>
      </trkpt>
      <trkpt lat="48.14476" lon="-3.72379">
        <ele>267.2</ele>
        <time>2022-12-08T11:38:22Z</time>
      </trkpt>
      <trkpt lat="48.14476" lon="-3.72379">
        <ele>267.2</ele>
        <time>2022-12-08T11:38:23Z</time>
      </trkpt>
      <trkpt lat="48.14476" lon="-3.72379">
        <ele>267.2</ele>
        <time>2022-12-08T11:38:24Z</time>
      </trkpt>
      <trkpt lat="48.14476" lon="-3.72379">
        <ele>267.2</ele>
        <time>2022-12-08T11:38:25Z</time>
      </trkpt>
      <trkpt lat="48.14476" lon="-3.72379">
        <ele>267.2</ele>
        <time>2022-12-08T11:38:26Z</time>
      </trkpt>
      <trkpt lat="48.14476" lon="-3.72379">
        <ele>267.2</ele>
        <time>2022-12-08T11:38:27Z</time>
      </trkpt>
      <trkpt lat="48.14476" lon="-3.72379">
        <ele>267.2</ele>
        <time>2022-12-08T11:38:28Z</time>
      </trkpt>
      <trkpt lat="48.14476" lon="-3.72379">
        <ele>267.2</ele>
        <time>2022-12-08T11:38:29Z</time>
      </trkpt>
      <trkpt lat="48.14476" lon="-3.72379">
        <ele>267.2</ele>
        <time>2022-12-08T11:38:30Z</time>
      </trkpt>
      <trkpt lat="48.14476" lon="-3.7238">
        <ele>267.2</ele>
        <time>2022-12-08T11:38:31Z</time>
      </trkpt>
      <trkpt lat="48.14476" lon="-3.72381">
        <ele>267.3</ele>
        <time>2022-12-08T11:38:32Z</time>
      </trkpt>
      <trkpt lat="48.14476" lon="-3.72383">
        <ele>267.3</ele>
        <time>2022-12-08T11:38:33Z</time>
      </trkpt>
      <trkpt lat="48.14476" lon="-3.72384">
        <ele>267.2</ele>
        <time>2022-12-08T11:38:34Z</time>
      </trkpt>
      <trkpt lat="48.14476" lon="-3.72384">
        <ele>267.2</ele>
        <time>2022-12-08T11:38:35Z</time>
      </trkpt>
      <trkpt lat="48.14477" lon="-3.72384">
        <ele>267.2</ele>
        <time>2022-12-08T11:38:36Z</time>
      </trkpt>
      <trkpt lat="48.14477" lon="-3.72383">
        <ele>267.2</ele>
        <time>2022-12-08T11:38:37Z</time>
      </trkpt>
      <trkpt lat="48.14477" lon="-3.72383">
        <ele>267.2</ele>
        <time>2022-12-08T11:38:38Z</time>
      </trkpt>
      <trkpt lat="48.14478" lon="-3.72383">
        <ele>267.2</ele>
        <time>2022-12-08T11:38:39Z</time>
      </trkpt>
      <trkpt lat="48.14478" lon="-3.72383">
        <ele>267.2</ele>
        <time>2022-12-08T11:38:40Z</time>
      </trkpt>
      <trkpt lat="48.14479" lon="-3.72382">
        <ele>267.2</ele>
        <time>2022-12-08T11:38:41Z</time>
      </trkpt>
      <trkpt lat="48.14479" lon="-3.72382">
        <ele>267.3</ele>
        <time>2022-12-08T11:38:42Z</time>
      </trkpt>
      <trkpt lat="48.1448" lon="-3.72382">
        <ele>267.3</ele>
        <time>2022-12-08T11:38:43Z</time>
      </trkpt>
      <trkpt lat="48.1448" lon="-3.72382">
        <ele>267.3</ele>
        <time>2022-12-08T11:38:44Z</time>
      </trkpt>
      <trkpt lat="48.14481" lon="-3.72381">
        <ele>267.3</ele>
        <time>2022-12-08T11:38:45Z</time>
      </trkpt>
      <trkpt lat="48.14481" lon="-3.72381">
        <ele>267.3</ele>
        <time>2022-12-08T11:38:46Z</time>
      </trkpt>
      <trkpt lat="48.14481" lon="-3.72381">
        <ele>267.3</ele>
        <time>2022-12-08T11:38:47Z</time>
      </trkpt>
      <trkpt lat="48.14482" lon="-3.72381">
        <ele>267.3</ele>
        <time>2022-12-08T11:38:48Z</time>
      </trkpt>
      <trkpt lat="48.14482" lon="-3.7238">
        <ele>267.3</ele>
        <time>2022-12-08T11:46:05Z</time>
      </trkpt>
      <trkpt lat="48.14483" lon="-3.7238">
        <ele>267.3</ele>
        <time>2022-12-08T11:46:06Z</time>
      </trkpt>
      <trkpt lat="48.14483" lon="-3.7238">
        <ele>267.3</ele>
        <time>2022-12-08T11:46:07Z</time>
      </trkpt>
      <trkpt lat="48.14484" lon="-3.7238">
        <ele>267.3</ele>
        <time>2022-12-08T11:46:08Z</time>
      </trkpt>
      <trkpt lat="48.14485" lon="-3.72375">
        <ele>267.4</ele>
        <time>2022-12-08T11:46:09Z</time>
      </trkpt>
      <trkpt lat="48.14486" lon="-3.72373">
        <ele>267.4</ele>
        <time>2022-12-08T11:46:10Z</time>
      </trkpt>
      <trkpt lat="48.14486" lon="-3.72369">
        <ele>267.4</ele>
        <time>2022-12-08T11:46:11Z</time>
      </trkpt>
      <trkpt lat="48.14487" lon="-3.72365">
        <ele>267.4</ele>
        <time>2022-12-08T11:46:12Z</time>
      </trkpt>
      <trkpt lat="48.14488" lon="-3.72363">
        <ele>267.4</ele>
        <time>2022-12-08T11:46:13Z</time>
      </trkpt>
      <trkpt lat="48.14488" lon="-3.72356">
        <ele>267.5</ele>
        <time>2022-12-08T11:46:14Z</time>
      </trkpt>
      <trkpt lat="48.14488" lon="-3.72352">
        <ele>267.5</ele>
        <time>2022-12-08T11:46:15Z</time>
      </trkpt>
      <trkpt lat="48.14489" lon="-3.72345">
        <ele>267.6</ele>
        <time>2022-12-08T11:46:16Z</time>
      </trkpt>
      <trkpt lat="48.1449" lon="-3.72339">
        <ele>267.6</ele>
        <time>2022-12-08T11:46:18Z</time>
      </trkpt>
      <trkpt lat="48.14492" lon="-3.72331">
        <ele>267.7</ele>
        <time>2022-12-08T11:46:19Z</time>
      </trkpt>
      <trkpt lat="48.14493" lon="-3.72327">
        <ele>267.6</ele>
        <time>2022-12-08T11:46:20Z</time>
      </trkpt>
      <trkpt lat="48.14495" lon="-3.72324">
        <ele>267.5</ele>
        <time>2022-12-08T11:46:21Z</time>
      </trkpt>
      <trkpt lat="48.14495" lon="-3.72319">
        <ele>267.3</ele>
        <time>2022-12-08T11:46:22Z</time>
      </trkpt>
      <trkpt lat="48.14494" lon="-3.72313">
        <ele>267.1</ele>
        <time>2022-12-08T11:46:24Z</time>
      </trkpt>
      <trkpt lat="48.14494" lon="-3.72308">
        <ele>267</ele>
        <time>2022-12-08T11:46:25Z</time>
      </trkpt>
      <trkpt lat="48.14494" lon="-3.72298">
        <ele>266.7</ele>
        <time>2022-12-08T11:46:26Z</time>
      </trkpt>
      <trkpt lat="48.14494" lon="-3.72289">
        <ele>266.4</ele>
        <time>2022-12-08T11:46:27Z</time>
      </trkpt>
      <trkpt lat="48.14494" lon="-3.72282">
        <ele>266.3</ele>
        <time>2022-12-08T11:46:28Z</time>
      </trkpt>
      <trkpt lat="48.14495" lon="-3.72276">
        <ele>266.1</ele>
        <time>2022-12-08T11:46:29Z</time>
      </trkpt>
      <trkpt lat="48.14494" lon="-3.72269">
        <ele>265.9</ele>
        <time>2022-12-08T11:46:30Z</time>
      </trkpt>
      <trkpt lat="48.14495" lon="-3.72262">
        <ele>265.8</ele>
        <time>2022-12-08T11:46:31Z</time>
      </trkpt>
      <trkpt lat="48.14495" lon="-3.72254">
        <ele>265.6</ele>
        <time>2022-12-08T11:46:32Z</time>
      </trkpt>
      <trkpt lat="48.14497" lon="-3.72249">
        <ele>265.5</ele>
        <time>2022-12-08T11:46:33Z</time>
      </trkpt>
      <trkpt lat="48.14498" lon="-3.72241">
        <ele>265.4</ele>
        <time>2022-12-08T11:46:34Z</time>
      </trkpt>
      <trkpt lat="48.14498" lon="-3.72234">
        <ele>265.2</ele>
        <time>2022-12-08T11:46:35Z</time>
      </trkpt>
      <trkpt lat="48.145" lon="-3.72227">
        <ele>265</ele>
        <time>2022-12-08T11:46:36Z</time>
      </trkpt>
      <trkpt lat="48.14501" lon="-3.72221">
        <ele>264.8</ele>
        <time>2022-12-08T11:46:37Z</time>
      </trkpt>
      <trkpt lat="48.14502" lon="-3.72214">
        <ele>264.6</ele>
        <time>2022-12-08T11:46:38Z</time>
      </trkpt>
      <trkpt lat="48.14504" lon="-3.72206">
        <ele>264.3</ele>
        <time>2022-12-08T11:46:39Z</time>
      </trkpt>
      <trkpt lat="48.14504" lon="-3.72201">
        <ele>264.1</ele>
        <time>2022-12-08T11:46:40Z</time>
      </trkpt>
      <trkpt lat="48.14505" lon="-3.72194">
        <ele>263.9</ele>
        <time>2022-12-08T11:46:41Z</time>
      </trkpt>
      <trkpt lat="48.14507" lon="-3.72185">
        <ele>263.5</ele>
        <time>2022-12-08T11:46:43Z</time>
      </trkpt>
      <trkpt lat="48.14508" lon="-3.72179">
        <ele>263.3</ele>
        <time>2022-12-08T11:46:44Z</time>
      </trkpt>
      <trkpt lat="48.14509" lon="-3.72167">
        <ele>262.9</ele>
        <time>2022-12-08T11:46:46Z</time>
      </trkpt>
      <trkpt lat="48.14512" lon="-3.72159">
        <ele>262.7</ele>
        <time>2022-12-08T11:46:47Z</time>
      </trkpt>
      <trkpt lat="48.14513" lon="-3.72151">
        <ele>262.4</ele>
        <time>2022-12-08T11:46:49Z</time>
      </trkpt>
      <trkpt lat="48.14513" lon="-3.72143">
        <ele>262.3</ele>
        <time>2022-12-08T11:46:50Z</time>
      </trkpt>
      <trkpt lat="48.14514" lon="-3.72135">
        <ele>262.2</ele>
        <time>2022-12-08T11:46:51Z</time>
      </trkpt>
      <trkpt lat="48.14513" lon="-3.72131">
        <ele>262.2</ele>
        <time>2022-12-08T11:46:52Z</time>
      </trkpt>
      <trkpt lat="48.14513" lon="-3.72129">
        <ele>262.1</ele>
        <time>2022-12-08T11:46:53Z</time>
      </trkpt>
      <trkpt lat="48.14512" lon="-3.72126">
        <ele>262.1</ele>
        <time>2022-12-08T11:46:54Z</time>
      </trkpt>
      <trkpt lat="48.14512" lon="-3.72121">
        <ele>262.1</ele>
        <time>2022-12-08T11:46:56Z</time>
      </trkpt>
      <trkpt lat="48.14512" lon="-3.72115">
        <ele>262.1</ele>
        <time>2022-12-08T11:46:57Z</time>
      </trkpt>
      <trkpt lat="48.14511" lon="-3.72113">
        <ele>262</ele>
        <time>2022-12-08T11:46:58Z</time>
      </trkpt>
      <trkpt lat="48.14511" lon="-3.7211">
        <ele>262</ele>
        <time>2022-12-08T11:46:59Z</time>
      </trkpt>
      <trkpt lat="48.14511" lon="-3.72109">
        <ele>262</ele>
        <time>2022-12-08T11:47:00Z</time>
      </trkpt>
      <trkpt lat="48.1451" lon="-3.72106">
        <ele>262</ele>
        <time>2022-12-08T11:47:01Z</time>
      </trkpt>
      <trkpt lat="48.1451" lon="-3.72105">
        <ele>262</ele>
        <time>2022-12-08T11:47:02Z</time>
      </trkpt>
      <trkpt lat="48.1451" lon="-3.72103">
        <ele>262</ele>
        <time>2022-12-08T11:47:03Z</time>
      </trkpt>
      <trkpt lat="48.14509" lon="-3.72101">
        <ele>262</ele>
        <time>2022-12-08T11:47:04Z</time>
      </trkpt>
      <trkpt lat="48.14509" lon="-3.72099">
        <ele>262</ele>
        <time>2022-12-08T11:47:05Z</time>
      </trkpt>
      <trkpt lat="48.14508" lon="-3.72097">
        <ele>262</ele>
        <time>2022-12-08T11:47:06Z</time>
      </trkpt>
      <trkpt lat="48.14508" lon="-3.72095">
        <ele>261.9</ele>
        <time>2022-12-08T11:47:07Z</time>
      </trkpt>
      <trkpt lat="48.14507" lon="-3.72091">
        <ele>261.9</ele>
        <time>2022-12-08T11:47:08Z</time>
      </trkpt>
      <trkpt lat="48.14507" lon="-3.72086">
        <ele>261.8</ele>
        <time>2022-12-08T11:47:09Z</time>
      </trkpt>
      <trkpt lat="48.14507" lon="-3.72081">
        <ele>261.8</ele>
        <time>2022-12-08T11:47:10Z</time>
      </trkpt>
      <trkpt lat="48.14506" lon="-3.72079">
        <ele>261.7</ele>
        <time>2022-12-08T11:47:11Z</time>
      </trkpt>
      <trkpt lat="48.14507" lon="-3.72073">
        <ele>261.7</ele>
        <time>2022-12-08T11:47:12Z</time>
      </trkpt>
      <trkpt lat="48.14507" lon="-3.7207">
        <ele>261.6</ele>
        <time>2022-12-08T11:47:13Z</time>
      </trkpt>
      <trkpt lat="48.14507" lon="-3.72065">
        <ele>261.6</ele>
        <time>2022-12-08T11:47:15Z</time>
      </trkpt>
      <trkpt lat="48.14508" lon="-3.72061">
        <ele>261.5</ele>
        <time>2022-12-08T11:47:16Z</time>
      </trkpt>
      <trkpt lat="48.14508" lon="-3.72056">
        <ele>261.4</ele>
        <time>2022-12-08T11:47:17Z</time>
      </trkpt>
      <trkpt lat="48.14509" lon="-3.72053">
        <ele>261.4</ele>
        <time>2022-12-08T11:47:18Z</time>
      </trkpt>
      <trkpt lat="48.14511" lon="-3.72048">
        <ele>261.3</ele>
        <time>2022-12-08T11:47:20Z</time>
      </trkpt>
      <trkpt lat="48.14512" lon="-3.72044">
        <ele>261.2</ele>
        <time>2022-12-08T11:47:21Z</time>
      </trkpt>
      <trkpt lat="48.14514" lon="-3.7204">
        <ele>261.1</ele>
        <time>2022-12-08T11:47:22Z</time>
      </trkpt>
      <trkpt lat="48.14516" lon="-3.72036">
        <ele>261</ele>
        <time>2022-12-08T11:47:23Z</time>
      </trkpt>
      <trkpt lat="48.14519" lon="-3.72032">
        <ele>260.9</ele>
        <time>2022-12-08T11:47:24Z</time>
      </trkpt>
      <trkpt lat="48.1452" lon="-3.72029">
        <ele>260.9</ele>
        <time>2022-12-08T11:47:25Z</time>
      </trkpt>
      <trkpt lat="48.14522" lon="-3.72025">
        <ele>260.7</ele>
        <time>2022-12-08T11:47:26Z</time>
      </trkpt>
      <trkpt lat="48.14525" lon="-3.72023">
        <ele>260.6</ele>
        <time>2022-12-08T11:47:27Z</time>
      </trkpt>
      <trkpt lat="48.14527" lon="-3.7202">
        <ele>260.5</ele>
        <time>2022-12-08T11:47:28Z</time>
      </trkpt>
      <trkpt lat="48.1453" lon="-3.72016">
        <ele>260.4</ele>
        <time>2022-12-08T11:47:29Z</time>
      </trkpt>
      <trkpt lat="48.14534" lon="-3.72011">
        <ele>260.2</ele>
        <time>2022-12-08T11:47:31Z</time>
      </trkpt>
      <trkpt lat="48.14537" lon="-3.72008">
        <ele>260</ele>
        <time>2022-12-08T11:47:32Z</time>
      </trkpt>
      <trkpt lat="48.14542" lon="-3.72003">
        <ele>259.9</ele>
        <time>2022-12-08T11:47:34Z</time>
      </trkpt>
      <trkpt lat="48.1455" lon="-3.71997">
        <ele>259.6</ele>
        <time>2022-12-08T11:47:35Z</time>
      </trkpt>
      <trkpt lat="48.14555" lon="-3.71994">
        <ele>259.5</ele>
        <time>2022-12-08T11:47:36Z</time>
      </trkpt>
      <trkpt lat="48.1456" lon="-3.71991">
        <ele>259.4</ele>
        <time>2022-12-08T11:47:37Z</time>
      </trkpt>
      <trkpt lat="48.14564" lon="-3.71989">
        <ele>259.2</ele>
        <time>2022-12-08T11:47:38Z</time>
      </trkpt>
      <trkpt lat="48.14567" lon="-3.71987">
        <ele>259.1</ele>
        <time>2022-12-08T11:47:39Z</time>
      </trkpt>
      <trkpt lat="48.14569" lon="-3.71986">
        <ele>259</ele>
        <time>2022-12-08T11:47:40Z</time>
      </trkpt>
      <trkpt lat="48.14574" lon="-3.71983">
        <ele>258.8</ele>
        <time>2022-12-08T11:47:42Z</time>
      </trkpt>
      <trkpt lat="48.14578" lon="-3.7198">
        <ele>258.6</ele>
        <time>2022-12-08T11:47:43Z</time>
      </trkpt>
      <trkpt lat="48.14582" lon="-3.71976">
        <ele>258.5</ele>
        <time>2022-12-08T11:47:44Z</time>
      </trkpt>
      <trkpt lat="48.14586" lon="-3.71968">
        <ele>258.2</ele>
        <time>2022-12-08T11:47:45Z</time>
      </trkpt>
      <trkpt lat="48.14588" lon="-3.7196">
        <ele>258</ele>
        <time>2022-12-08T11:47:47Z</time>
      </trkpt>
      <trkpt lat="48.14589" lon="-3.71953">
        <ele>257.8</ele>
        <time>2022-12-08T11:47:48Z</time>
      </trkpt>
      <trkpt lat="48.14588" lon="-3.71947">
        <ele>257.6</ele>
        <time>2022-12-08T11:47:49Z</time>
      </trkpt>
      <trkpt lat="48.14588" lon="-3.71939">
        <ele>257.4</ele>
        <time>2022-12-08T11:47:50Z</time>
      </trkpt>
      <trkpt lat="48.14589" lon="-3.71927">
        <ele>256.9</ele>
        <time>2022-12-08T11:47:52Z</time>
      </trkpt>
      <trkpt lat="48.1459" lon="-3.7192">
        <ele>256.6</ele>
        <time>2022-12-08T11:47:53Z</time>
      </trkpt>
      <trkpt lat="48.1459" lon="-3.71915">
        <ele>256.4</ele>
        <time>2022-12-08T11:47:54Z</time>
      </trkpt>
      <trkpt lat="48.14591" lon="-3.71909">
        <ele>256.2</ele>
        <time>2022-12-08T11:47:55Z</time>
      </trkpt>
      <trkpt lat="48.14593" lon="-3.71903">
        <ele>256</ele>
        <time>2022-12-08T11:47:56Z</time>
      </trkpt>
      <trkpt lat="48.14595" lon="-3.71893">
        <ele>255.7</ele>
        <time>2022-12-08T11:47:58Z</time>
      </trkpt>
      <trkpt lat="48.14597" lon="-3.71885">
        <ele>255.4</ele>
        <time>2022-12-08T11:47:59Z</time>
      </trkpt>
      <trkpt lat="48.14599" lon="-3.71879">
        <ele>255.2</ele>
        <time>2022-12-08T11:48:00Z</time>
      </trkpt>
      <trkpt lat="48.146" lon="-3.71876">
        <ele>255.1</ele>
        <time>2022-12-08T11:48:01Z</time>
      </trkpt>
      <trkpt lat="48.14601" lon="-3.71872">
        <ele>255</ele>
        <time>2022-12-08T11:48:02Z</time>
      </trkpt>
      <trkpt lat="48.14603" lon="-3.71868">
        <ele>254.8</ele>
        <time>2022-12-08T11:48:03Z</time>
      </trkpt>
      <trkpt lat="48.14606" lon="-3.71865">
        <ele>254.7</ele>
        <time>2022-12-08T11:48:04Z</time>
      </trkpt>
      <trkpt lat="48.14608" lon="-3.7186">
        <ele>254.5</ele>
        <time>2022-12-08T11:48:05Z</time>
      </trkpt>
      <trkpt lat="48.1461" lon="-3.71856">
        <ele>254.3</ele>
        <time>2022-12-08T11:48:06Z</time>
      </trkpt>
      <trkpt lat="48.14612" lon="-3.7185">
        <ele>254.1</ele>
        <time>2022-12-08T11:48:07Z</time>
      </trkpt>
      <trkpt lat="48.14613" lon="-3.71848">
        <ele>254</ele>
        <time>2022-12-08T11:48:08Z</time>
      </trkpt>
      <trkpt lat="48.14616" lon="-3.71843">
        <ele>253.9</ele>
        <time>2022-12-08T11:48:09Z</time>
      </trkpt>
      <trkpt lat="48.14619" lon="-3.71839">
        <ele>253.7</ele>
        <time>2022-12-08T11:48:10Z</time>
      </trkpt>
      <trkpt lat="48.1462" lon="-3.71836">
        <ele>253.6</ele>
        <time>2022-12-08T11:48:11Z</time>
      </trkpt>
      <trkpt lat="48.14623" lon="-3.71832">
        <ele>253.4</ele>
        <time>2022-12-08T11:48:12Z</time>
      </trkpt>
      <trkpt lat="48.14626" lon="-3.71827">
        <ele>253.2</ele>
        <time>2022-12-08T11:48:14Z</time>
      </trkpt>
      <trkpt lat="48.1463" lon="-3.71823">
        <ele>253</ele>
        <time>2022-12-08T11:48:15Z</time>
      </trkpt>
      <trkpt lat="48.14634" lon="-3.71818">
        <ele>252.7</ele>
        <time>2022-12-08T11:48:16Z</time>
      </trkpt>
      <trkpt lat="48.14638" lon="-3.71813">
        <ele>252.4</ele>
        <time>2022-12-08T11:48:17Z</time>
      </trkpt>
      <trkpt lat="48.14643" lon="-3.71806">
        <ele>252</ele>
        <time>2022-12-08T11:48:18Z</time>
      </trkpt>
      <trkpt lat="48.14646" lon="-3.71801">
        <ele>251.7</ele>
        <time>2022-12-08T11:48:19Z</time>
      </trkpt>
      <trkpt lat="48.14648" lon="-3.71797">
        <ele>251.4</ele>
        <time>2022-12-08T11:48:21Z</time>
      </trkpt>
      <trkpt lat="48.14654" lon="-3.7179">
        <ele>250.8</ele>
        <time>2022-12-08T11:48:22Z</time>
      </trkpt>
      <trkpt lat="48.14657" lon="-3.71786">
        <ele>250.4</ele>
        <time>2022-12-08T11:48:23Z</time>
      </trkpt>
      <trkpt lat="48.1466" lon="-3.71784">
        <ele>250.1</ele>
        <time>2022-12-08T11:48:24Z</time>
      </trkpt>
      <trkpt lat="48.14663" lon="-3.71782">
        <ele>249.9</ele>
        <time>2022-12-08T11:48:25Z</time>
      </trkpt>
      <trkpt lat="48.14667" lon="-3.71781">
        <ele>249.6</ele>
        <time>2022-12-08T11:48:26Z</time>
      </trkpt>
      <trkpt lat="48.1467" lon="-3.71781">
        <ele>249.4</ele>
        <time>2022-12-08T11:48:28Z</time>
      </trkpt>
      <trkpt lat="48.14675" lon="-3.71784">
        <ele>249</ele>
        <time>2022-12-08T11:48:29Z</time>
      </trkpt>
      <trkpt lat="48.14677" lon="-3.71788">
        <ele>248.8</ele>
        <time>2022-12-08T11:48:30Z</time>
      </trkpt>
      <trkpt lat="48.14679" lon="-3.71794">
        <ele>248.4</ele>
        <time>2022-12-08T11:48:32Z</time>
      </trkpt>
      <trkpt lat="48.1468" lon="-3.71797">
        <ele>248.3</ele>
        <time>2022-12-08T11:48:34Z</time>
      </trkpt>
      <trkpt lat="48.14682" lon="-3.71802">
        <ele>248</ele>
        <time>2022-12-08T11:48:35Z</time>
      </trkpt>
      <trkpt lat="48.14683" lon="-3.71806">
        <ele>247.8</ele>
        <time>2022-12-08T11:48:36Z</time>
      </trkpt>
      <trkpt lat="48.14684" lon="-3.71808">
        <ele>247.7</ele>
        <time>2022-12-08T11:48:37Z</time>
      </trkpt>
      <trkpt lat="48.14685" lon="-3.71812">
        <ele>247.5</ele>
        <time>2022-12-08T11:48:38Z</time>
      </trkpt>
      <trkpt lat="48.14686" lon="-3.71816">
        <ele>247.3</ele>
        <time>2022-12-08T11:48:39Z</time>
      </trkpt>
      <trkpt lat="48.14688" lon="-3.7182">
        <ele>247.1</ele>
        <time>2022-12-08T11:48:41Z</time>
      </trkpt>
      <trkpt lat="48.14689" lon="-3.71824">
        <ele>246.9</ele>
        <time>2022-12-08T11:48:42Z</time>
      </trkpt>
      <trkpt lat="48.14691" lon="-3.7183">
        <ele>246.7</ele>
        <time>2022-12-08T11:48:43Z</time>
      </trkpt>
      <trkpt lat="48.14692" lon="-3.71835">
        <ele>246.5</ele>
        <time>2022-12-08T11:48:44Z</time>
      </trkpt>
      <trkpt lat="48.14694" lon="-3.71839">
        <ele>246.3</ele>
        <time>2022-12-08T11:48:45Z</time>
      </trkpt>
      <trkpt lat="48.14696" lon="-3.71844">
        <ele>246.2</ele>
        <time>2022-12-08T11:48:46Z</time>
      </trkpt>
      <trkpt lat="48.14696" lon="-3.71847">
        <ele>246.1</ele>
        <time>2022-12-08T11:48:47Z</time>
      </trkpt>
      <trkpt lat="48.14698" lon="-3.71852">
        <ele>246</ele>
        <time>2022-12-08T11:48:48Z</time>
      </trkpt>
      <trkpt lat="48.14699" lon="-3.71853">
        <ele>246</ele>
        <time>2022-12-08T11:48:49Z</time>
      </trkpt>
      <trkpt lat="48.147" lon="-3.71858">
        <ele>246</ele>
        <time>2022-12-08T11:48:50Z</time>
      </trkpt>
      <trkpt lat="48.14701" lon="-3.71859">
        <ele>246.2</ele>
        <time>2022-12-08T11:48:51Z</time>
      </trkpt>
      <trkpt lat="48.14701" lon="-3.7186">
        <ele>246.2</ele>
        <time>2022-12-08T11:48:52Z</time>
      </trkpt>
      <trkpt lat="48.14701" lon="-3.71861">
        <ele>246.2</ele>
        <time>2022-12-08T11:48:53Z</time>
      </trkpt>
      <trkpt lat="48.14702" lon="-3.71862">
        <ele>246.3</ele>
        <time>2022-12-08T11:48:54Z</time>
      </trkpt>
      <trkpt lat="48.14702" lon="-3.71862">
        <ele>246.3</ele>
        <time>2022-12-08T11:48:55Z</time>
      </trkpt>
      <trkpt lat="48.14703" lon="-3.71862">
        <ele>246.3</ele>
        <time>2022-12-08T11:48:56Z</time>
      </trkpt>
      <trkpt lat="48.14703" lon="-3.71862">
        <ele>246.3</ele>
        <time>2022-12-08T11:48:57Z</time>
      </trkpt>
      <trkpt lat="48.14703" lon="-3.71862">
        <ele>246.3</ele>
        <time>2022-12-08T11:48:58Z</time>
      </trkpt>
      <trkpt lat="48.14704" lon="-3.71861">
        <ele>246.3</ele>
        <time>2022-12-08T11:48:59Z</time>
      </trkpt>
      <trkpt lat="48.14704" lon="-3.7186">
        <ele>246.4</ele>
        <time>2022-12-08T11:49:00Z</time>
      </trkpt>
      <trkpt lat="48.14705" lon="-3.71859">
        <ele>246.4</ele>
        <time>2022-12-08T11:49:01Z</time>
      </trkpt>
      <trkpt lat="48.14705" lon="-3.71858">
        <ele>246.4</ele>
        <time>2022-12-08T11:49:02Z</time>
      </trkpt>
      <trkpt lat="48.14705" lon="-3.71857">
        <ele>246.4</ele>
        <time>2022-12-08T11:49:03Z</time>
      </trkpt>
      <trkpt lat="48.14705" lon="-3.71856">
        <ele>246.4</ele>
        <time>2022-12-08T11:49:04Z</time>
      </trkpt>
      <trkpt lat="48.14705" lon="-3.71855">
        <ele>246.5</ele>
        <time>2022-12-08T11:49:05Z</time>
      </trkpt>
      <trkpt lat="48.14705" lon="-3.71854">
        <ele>246.5</ele>
        <time>2022-12-08T11:49:06Z</time>
      </trkpt>
      <trkpt lat="48.14705" lon="-3.71853">
        <ele>246.5</ele>
        <time>2022-12-08T11:49:08Z</time>
      </trkpt>
      <trkpt lat="48.14705" lon="-3.71851">
        <ele>246.5</ele>
        <time>2022-12-08T11:49:09Z</time>
      </trkpt>
      <trkpt lat="48.14705" lon="-3.7185">
        <ele>246.5</ele>
        <time>2022-12-08T11:49:10Z</time>
      </trkpt>
      <trkpt lat="48.14705" lon="-3.71849">
        <ele>246.6</ele>
        <time>2022-12-08T11:49:11Z</time>
      </trkpt>
      <trkpt lat="48.14705" lon="-3.71848">
        <ele>246.6</ele>
        <time>2022-12-08T11:49:12Z</time>
      </trkpt>
      <trkpt lat="48.14706" lon="-3.71847">
        <ele>246.6</ele>
        <time>2022-12-08T11:49:13Z</time>
      </trkpt>
      <trkpt lat="48.14706" lon="-3.71846">
        <ele>246.6</ele>
        <time>2022-12-08T11:49:14Z</time>
      </trkpt>
      <trkpt lat="48.14706" lon="-3.71845">
        <ele>246.6</ele>
        <time>2022-12-08T11:49:15Z</time>
      </trkpt>
      <trkpt lat="48.14706" lon="-3.71844">
        <ele>246.6</ele>
        <time>2022-12-08T11:49:16Z</time>
      </trkpt>
      <trkpt lat="48.14706" lon="-3.71839">
        <ele>246.7</ele>
        <time>2022-12-08T11:49:17Z</time>
      </trkpt>
      <trkpt lat="48.14706" lon="-3.71837">
        <ele>246.7</ele>
        <time>2022-12-08T11:49:18Z</time>
      </trkpt>
      <trkpt lat="48.14706" lon="-3.71833">
        <ele>246.7</ele>
        <time>2022-12-08T11:49:19Z</time>
      </trkpt>
      <trkpt lat="48.14706" lon="-3.71831">
        <ele>246.7</ele>
        <time>2022-12-08T11:49:20Z</time>
      </trkpt>
      <trkpt lat="48.14706" lon="-3.71829">
        <ele>246.8</ele>
        <time>2022-12-08T11:49:21Z</time>
      </trkpt>
      <trkpt lat="48.14706" lon="-3.71826">
        <ele>246.8</ele>
        <time>2022-12-08T11:49:22Z</time>
      </trkpt>
      <trkpt lat="48.14707" lon="-3.71822">
        <ele>246.8</ele>
        <time>2022-12-08T11:49:23Z</time>
      </trkpt>
      <trkpt lat="48.14707" lon="-3.71821">
        <ele>246.8</ele>
        <time>2022-12-08T11:49:24Z</time>
      </trkpt>
      <trkpt lat="48.14707" lon="-3.71818">
        <ele>246.8</ele>
        <time>2022-12-08T11:49:25Z</time>
      </trkpt>
      <trkpt lat="48.14707" lon="-3.71814">
        <ele>246.9</ele>
        <time>2022-12-08T11:49:27Z</time>
      </trkpt>
      <trkpt lat="48.14708" lon="-3.7181">
        <ele>246.9</ele>
        <time>2022-12-08T11:49:28Z</time>
      </trkpt>
      <trkpt lat="48.14709" lon="-3.71805">
        <ele>246.9</ele>
        <time>2022-12-08T11:49:29Z</time>
      </trkpt>
      <trkpt lat="48.14709" lon="-3.71803">
        <ele>247</ele>
        <time>2022-12-08T11:49:30Z</time>
      </trkpt>
      <trkpt lat="48.14709" lon="-3.718">
        <ele>247</ele>
        <time>2022-12-08T11:49:31Z</time>
      </trkpt>
      <trkpt lat="48.1471" lon="-3.71795">
        <ele>247</ele>
        <time>2022-12-08T11:49:33Z</time>
      </trkpt>
      <trkpt lat="48.14711" lon="-3.71791">
        <ele>247</ele>
        <time>2022-12-08T11:49:34Z</time>
      </trkpt>
      <trkpt lat="48.14712" lon="-3.71785">
        <ele>247</ele>
        <time>2022-12-08T11:49:36Z</time>
      </trkpt>
      <trkpt lat="48.14712" lon="-3.71784">
        <ele>247.1</ele>
        <time>2022-12-08T11:49:37Z</time>
      </trkpt>
      <trkpt lat="48.14712" lon="-3.71783">
        <ele>247.1</ele>
        <time>2022-12-08T11:49:38Z</time>
      </trkpt>
      <trkpt lat="48.14713" lon="-3.71782">
        <ele>247.1</ele>
        <time>2022-12-08T11:49:40Z</time>
      </trkpt>
      <trkpt lat="48.14713" lon="-3.71781">
        <ele>247.1</ele>
        <time>2022-12-08T11:49:41Z</time>
      </trkpt>
      <trkpt lat="48.14713" lon="-3.7178">
        <ele>247.1</ele>
        <time>2022-12-08T11:49:42Z</time>
      </trkpt>
      <trkpt lat="48.14714" lon="-3.71779">
        <ele>247.1</ele>
        <time>2022-12-08T11:49:44Z</time>
      </trkpt>
      <trkpt lat="48.14714" lon="-3.71778">
        <ele>247.1</ele>
        <time>2022-12-08T11:49:45Z</time>
      </trkpt>
      <trkpt lat="48.14714" lon="-3.71778">
        <ele>247.1</ele>
        <time>2022-12-08T11:49:46Z</time>
      </trkpt>
      <trkpt lat="48.14715" lon="-3.71777">
        <ele>247.1</ele>
        <time>2022-12-08T11:49:47Z</time>
      </trkpt>
      <trkpt lat="48.14715" lon="-3.71776">
        <ele>247.1</ele>
        <time>2022-12-08T11:50:22Z</time>
      </trkpt>
      <trkpt lat="48.14715" lon="-3.71775">
        <ele>247.1</ele>
        <time>2022-12-08T11:50:23Z</time>
      </trkpt>
      <trkpt lat="48.14716" lon="-3.71768">
        <ele>247.1</ele>
        <time>2022-12-08T11:50:24Z</time>
      </trkpt>
      <trkpt lat="48.14717" lon="-3.71764">
        <ele>247.1</ele>
        <time>2022-12-08T11:50:25Z</time>
      </trkpt>
      <trkpt lat="48.14717" lon="-3.71758">
        <ele>247.1</ele>
        <time>2022-12-08T11:50:27Z</time>
      </trkpt>
      <trkpt lat="48.14719" lon="-3.71751">
        <ele>247.1</ele>
        <time>2022-12-08T11:50:28Z</time>
      </trkpt>
      <trkpt lat="48.1472" lon="-3.71746">
        <ele>247.1</ele>
        <time>2022-12-08T11:50:29Z</time>
      </trkpt>
      <trkpt lat="48.14721" lon="-3.7174">
        <ele>247.1</ele>
        <time>2022-12-08T11:50:31Z</time>
      </trkpt>
      <trkpt lat="48.14722" lon="-3.71735">
        <ele>247.1</ele>
        <time>2022-12-08T11:50:32Z</time>
      </trkpt>
      <trkpt lat="48.14723" lon="-3.71731">
        <ele>247.2</ele>
        <time>2022-12-08T11:50:33Z</time>
      </trkpt>
      <trkpt lat="48.14723" lon="-3.71725">
        <ele>247.2</ele>
        <time>2022-12-08T11:50:34Z</time>
      </trkpt>
      <trkpt lat="48.14724" lon="-3.71721">
        <ele>247.2</ele>
        <time>2022-12-08T11:50:35Z</time>
      </trkpt>
      <trkpt lat="48.14725" lon="-3.71716">
        <ele>247.2</ele>
        <time>2022-12-08T11:50:37Z</time>
      </trkpt>
      <trkpt lat="48.14725" lon="-3.71715">
        <ele>247.2</ele>
        <time>2022-12-08T11:50:38Z</time>
      </trkpt>
      <trkpt lat="48.14725" lon="-3.71712">
        <ele>247.2</ele>
        <time>2022-12-08T11:50:39Z</time>
      </trkpt>
      <trkpt lat="48.14726" lon="-3.71709">
        <ele>247.2</ele>
        <time>2022-12-08T11:50:40Z</time>
      </trkpt>
      <trkpt lat="48.14726" lon="-3.71708">
        <ele>247.2</ele>
        <time>2022-12-08T11:50:41Z</time>
      </trkpt>
      <trkpt lat="48.14727" lon="-3.71707">
        <ele>247.2</ele>
        <time>2022-12-08T11:50:42Z</time>
      </trkpt>
      <trkpt lat="48.14727" lon="-3.71706">
        <ele>247.2</ele>
        <time>2022-12-08T11:50:43Z</time>
      </trkpt>
      <trkpt lat="48.14727" lon="-3.71705">
        <ele>247.2</ele>
        <time>2022-12-08T11:50:44Z</time>
      </trkpt>
      <trkpt lat="48.14727" lon="-3.71705">
        <ele>247.2</ele>
        <time>2022-12-08T11:50:45Z</time>
      </trkpt>
      <trkpt lat="48.14727" lon="-3.71705">
        <ele>247.2</ele>
        <time>2022-12-08T11:50:46Z</time>
      </trkpt>
      <trkpt lat="48.14727" lon="-3.71705">
        <ele>247.2</ele>
        <time>2022-12-08T11:50:47Z</time>
      </trkpt>
      <trkpt lat="48.14727" lon="-3.71705">
        <ele>247.2</ele>
        <time>2022-12-08T11:50:48Z</time>
      </trkpt>
      <trkpt lat="48.14727" lon="-3.71704">
        <ele>247.2</ele>
        <time>2022-12-08T11:50:49Z</time>
      </trkpt>
      <trkpt lat="48.14728" lon="-3.71702">
        <ele>247.2</ele>
        <time>2022-12-08T11:50:50Z</time>
      </trkpt>
      <trkpt lat="48.14729" lon="-3.71701">
        <ele>247.2</ele>
        <time>2022-12-08T11:50:51Z</time>
      </trkpt>
      <trkpt lat="48.14729" lon="-3.71699">
        <ele>247.3</ele>
        <time>2022-12-08T11:50:52Z</time>
      </trkpt>
      <trkpt lat="48.1473" lon="-3.71696">
        <ele>247.3</ele>
        <time>2022-12-08T11:50:53Z</time>
      </trkpt>
      <trkpt lat="48.14731" lon="-3.71695">
        <ele>247.3</ele>
        <time>2022-12-08T11:50:54Z</time>
      </trkpt>
      <trkpt lat="48.14731" lon="-3.71694">
        <ele>247.3</ele>
        <time>2022-12-08T11:50:55Z</time>
      </trkpt>
      <trkpt lat="48.14731" lon="-3.71692">
        <ele>247.3</ele>
        <time>2022-12-08T11:50:56Z</time>
      </trkpt>
      <trkpt lat="48.14732" lon="-3.7169">
        <ele>247.3</ele>
        <time>2022-12-08T11:50:57Z</time>
      </trkpt>
      <trkpt lat="48.14732" lon="-3.71689">
        <ele>247.3</ele>
        <time>2022-12-08T11:50:58Z</time>
      </trkpt>
      <trkpt lat="48.14732" lon="-3.71686">
        <ele>247.3</ele>
        <time>2022-12-08T11:51:00Z</time>
      </trkpt>
      <trkpt lat="48.14732" lon="-3.71684">
        <ele>247.3</ele>
        <time>2022-12-08T11:51:01Z</time>
      </trkpt>
      <trkpt lat="48.14733" lon="-3.71682">
        <ele>247.3</ele>
        <time>2022-12-08T11:51:02Z</time>
      </trkpt>
      <trkpt lat="48.14732" lon="-3.71681">
        <ele>247.3</ele>
        <time>2022-12-08T11:51:04Z</time>
      </trkpt>
      <trkpt lat="48.14732" lon="-3.7168">
        <ele>247.3</ele>
        <time>2022-12-08T11:51:05Z</time>
      </trkpt>
      <trkpt lat="48.14733" lon="-3.71677">
        <ele>247.4</ele>
        <time>2022-12-08T11:51:06Z</time>
      </trkpt>
      <trkpt lat="48.14734" lon="-3.71675">
        <ele>247.4</ele>
        <time>2022-12-08T11:51:07Z</time>
      </trkpt>
      <trkpt lat="48.14735" lon="-3.71673">
        <ele>247.4</ele>
        <time>2022-12-08T11:51:08Z</time>
      </trkpt>
      <trkpt lat="48.14735" lon="-3.7167">
        <ele>247.4</ele>
        <time>2022-12-08T11:51:09Z</time>
      </trkpt>
      <trkpt lat="48.14736" lon="-3.71668">
        <ele>247.4</ele>
        <time>2022-12-08T11:51:10Z</time>
      </trkpt>
      <trkpt lat="48.14737" lon="-3.71665">
        <ele>247.5</ele>
        <time>2022-12-08T11:51:11Z</time>
      </trkpt>
      <trkpt lat="48.14737" lon="-3.71663">
        <ele>247.5</ele>
        <time>2022-12-08T11:51:12Z</time>
      </trkpt>
      <trkpt lat="48.14737" lon="-3.7166">
        <ele>247.5</ele>
        <time>2022-12-08T11:51:14Z</time>
      </trkpt>
      <trkpt lat="48.14737" lon="-3.71659">
        <ele>247.6</ele>
        <time>2022-12-08T11:51:15Z</time>
      </trkpt>
      <trkpt lat="48.14737" lon="-3.71654">
        <ele>247.6</ele>
        <time>2022-12-08T11:51:17Z</time>
      </trkpt>
      <trkpt lat="48.14738" lon="-3.71653">
        <ele>247.7</ele>
        <time>2022-12-08T11:51:18Z</time>
      </trkpt>
      <trkpt lat="48.14739" lon="-3.7165">
        <ele>247.7</ele>
        <time>2022-12-08T11:51:19Z</time>
      </trkpt>
      <trkpt lat="48.1474" lon="-3.71647">
        <ele>247.8</ele>
        <time>2022-12-08T11:51:20Z</time>
      </trkpt>
      <trkpt lat="48.14741" lon="-3.71646">
        <ele>247.8</ele>
        <time>2022-12-08T11:51:21Z</time>
      </trkpt>
      <trkpt lat="48.14741" lon="-3.71645">
        <ele>247.9</ele>
        <time>2022-12-08T11:51:22Z</time>
      </trkpt>
      <trkpt lat="48.14742" lon="-3.71643">
        <ele>247.9</ele>
        <time>2022-12-08T11:51:23Z</time>
      </trkpt>
      <trkpt lat="48.14743" lon="-3.71642">
        <ele>248</ele>
        <time>2022-12-08T11:51:24Z</time>
      </trkpt>
      <trkpt lat="48.14743" lon="-3.71643">
        <ele>248</ele>
        <time>2022-12-08T11:51:25Z</time>
      </trkpt>
      <trkpt lat="48.14742" lon="-3.71643">
        <ele>248</ele>
        <time>2022-12-08T11:51:26Z</time>
      </trkpt>
      <trkpt lat="48.14743" lon="-3.71644">
        <ele>248</ele>
        <time>2022-12-08T11:51:27Z</time>
      </trkpt>
      <trkpt lat="48.14743" lon="-3.71644">
        <ele>248</ele>
        <time>2022-12-08T11:51:28Z</time>
      </trkpt>
      <trkpt lat="48.14743" lon="-3.71644">
        <ele>248</ele>
        <time>2022-12-08T11:51:29Z</time>
      </trkpt>
      <trkpt lat="48.14743" lon="-3.71643">
        <ele>248</ele>
        <time>2022-12-08T11:51:30Z</time>
      </trkpt>
      <trkpt lat="48.14742" lon="-3.71642">
        <ele>248.1</ele>
        <time>2022-12-08T11:51:31Z</time>
      </trkpt>
      <trkpt lat="48.14742" lon="-3.7164">
        <ele>248.1</ele>
        <time>2022-12-08T11:51:32Z</time>
      </trkpt>
      <trkpt lat="48.14742" lon="-3.71639">
        <ele>248.1</ele>
        <time>2022-12-08T11:51:33Z</time>
      </trkpt>
      <trkpt lat="48.14742" lon="-3.71639">
        <ele>248.1</ele>
        <time>2022-12-08T11:51:34Z</time>
      </trkpt>
      <trkpt lat="48.14742" lon="-3.71639">
        <ele>248.1</ele>
        <time>2022-12-08T11:51:35Z</time>
      </trkpt>
      <trkpt lat="48.14741" lon="-3.71639">
        <ele>248.1</ele>
        <time>2022-12-08T11:51:36Z</time>
      </trkpt>
      <trkpt lat="48.14741" lon="-3.71637">
        <ele>248.2</ele>
        <time>2022-12-08T11:51:37Z</time>
      </trkpt>
      <trkpt lat="48.14741" lon="-3.71635">
        <ele>248.2</ele>
        <time>2022-12-08T11:51:38Z</time>
      </trkpt>
      <trkpt lat="48.14741" lon="-3.71634">
        <ele>248.2</ele>
        <time>2022-12-08T11:51:39Z</time>
      </trkpt>
      <trkpt lat="48.14741" lon="-3.71634">
        <ele>248.2</ele>
        <time>2022-12-08T11:51:40Z</time>
      </trkpt>
      <trkpt lat="48.14741" lon="-3.71631">
        <ele>248.3</ele>
        <time>2022-12-08T11:51:41Z</time>
      </trkpt>
      <trkpt lat="48.14741" lon="-3.7163">
        <ele>248.3</ele>
        <time>2022-12-08T11:51:42Z</time>
      </trkpt>
      <trkpt lat="48.14741" lon="-3.71629">
        <ele>248.3</ele>
        <time>2022-12-08T11:51:43Z</time>
      </trkpt>
      <trkpt lat="48.14741" lon="-3.71628">
        <ele>248.3</ele>
        <time>2022-12-08T11:51:44Z</time>
      </trkpt>
      <trkpt lat="48.14741" lon="-3.71628">
        <ele>248.4</ele>
        <time>2022-12-08T11:51:45Z</time>
      </trkpt>
      <trkpt lat="48.14741" lon="-3.71627">
        <ele>248.4</ele>
        <time>2022-12-08T11:51:46Z</time>
      </trkpt>
      <trkpt lat="48.14741" lon="-3.71627">
        <ele>248.4</ele>
        <time>2022-12-08T11:51:47Z</time>
      </trkpt>
      <trkpt lat="48.14741" lon="-3.71626">
        <ele>248.4</ele>
        <time>2022-12-08T11:51:48Z</time>
      </trkpt>
      <trkpt lat="48.14741" lon="-3.71625">
        <ele>248.4</ele>
        <time>2022-12-08T11:51:49Z</time>
      </trkpt>
      <trkpt lat="48.14741" lon="-3.71624">
        <ele>248.4</ele>
        <time>2022-12-08T11:51:50Z</time>
      </trkpt>
      <trkpt lat="48.14742" lon="-3.71621">
        <ele>248.5</ele>
        <time>2022-12-08T11:51:52Z</time>
      </trkpt>
      <trkpt lat="48.14742" lon="-3.71617">
        <ele>248.6</ele>
        <time>2022-12-08T11:51:53Z</time>
      </trkpt>
      <trkpt lat="48.14742" lon="-3.71613">
        <ele>248.6</ele>
        <time>2022-12-08T11:51:55Z</time>
      </trkpt>
      <trkpt lat="48.14741" lon="-3.71611">
        <ele>248.7</ele>
        <time>2022-12-08T11:51:56Z</time>
      </trkpt>
      <trkpt lat="48.14741" lon="-3.71608">
        <ele>248.7</ele>
        <time>2022-12-08T11:51:57Z</time>
      </trkpt>
      <trkpt lat="48.14741" lon="-3.71603">
        <ele>248.8</ele>
        <time>2022-12-08T11:51:58Z</time>
      </trkpt>
      <trkpt lat="48.14741" lon="-3.71601">
        <ele>248.9</ele>
        <time>2022-12-08T11:51:59Z</time>
      </trkpt>
      <trkpt lat="48.14741" lon="-3.71598">
        <ele>248.9</ele>
        <time>2022-12-08T11:52:00Z</time>
      </trkpt>
      <trkpt lat="48.14742" lon="-3.71592">
        <ele>249</ele>
        <time>2022-12-08T11:52:02Z</time>
      </trkpt>
      <trkpt lat="48.14742" lon="-3.7159">
        <ele>249.1</ele>
        <time>2022-12-08T11:52:03Z</time>
      </trkpt>
      <trkpt lat="48.14743" lon="-3.71587">
        <ele>249.1</ele>
        <time>2022-12-08T11:52:04Z</time>
      </trkpt>
      <trkpt lat="48.14743" lon="-3.71584">
        <ele>249.1</ele>
        <time>2022-12-08T11:52:05Z</time>
      </trkpt>
      <trkpt lat="48.14744" lon="-3.71582">
        <ele>249.2</ele>
        <time>2022-12-08T11:52:06Z</time>
      </trkpt>
      <trkpt lat="48.14744" lon="-3.71581">
        <ele>249.2</ele>
        <time>2022-12-08T11:52:07Z</time>
      </trkpt>
      <trkpt lat="48.14744" lon="-3.71578">
        <ele>249.2</ele>
        <time>2022-12-08T11:52:08Z</time>
      </trkpt>
      <trkpt lat="48.14744" lon="-3.71576">
        <ele>249.3</ele>
        <time>2022-12-08T11:52:09Z</time>
      </trkpt>
      <trkpt lat="48.14744" lon="-3.71576">
        <ele>249.3</ele>
        <time>2022-12-08T11:52:10Z</time>
      </trkpt>
      <trkpt lat="48.14744" lon="-3.71576">
        <ele>249.3</ele>
        <time>2022-12-08T11:52:11Z</time>
      </trkpt>
      <trkpt lat="48.14744" lon="-3.71576">
        <ele>249.3</ele>
        <time>2022-12-08T11:52:12Z</time>
      </trkpt>
      <trkpt lat="48.14745" lon="-3.71575">
        <ele>249.3</ele>
        <time>2022-12-08T11:52:13Z</time>
      </trkpt>
      <trkpt lat="48.14745" lon="-3.71575">
        <ele>249.3</ele>
        <time>2022-12-08T11:52:14Z</time>
      </trkpt>
      <trkpt lat="48.14745" lon="-3.71575">
        <ele>249.3</ele>
        <time>2022-12-08T11:52:15Z</time>
      </trkpt>
      <trkpt lat="48.14745" lon="-3.71573">
        <ele>249.3</ele>
        <time>2022-12-08T11:52:18Z</time>
      </trkpt>
      <trkpt lat="48.14745" lon="-3.71571">
        <ele>249.3</ele>
        <time>2022-12-08T11:52:19Z</time>
      </trkpt>
      <trkpt lat="48.14746" lon="-3.71568">
        <ele>249.4</ele>
        <time>2022-12-08T11:52:20Z</time>
      </trkpt>
      <trkpt lat="48.14747" lon="-3.71563">
        <ele>249.5</ele>
        <time>2022-12-08T11:52:22Z</time>
      </trkpt>
      <trkpt lat="48.14749" lon="-3.71559">
        <ele>249.5</ele>
        <time>2022-12-08T11:52:23Z</time>
      </trkpt>
      <trkpt lat="48.14749" lon="-3.71557">
        <ele>249.6</ele>
        <time>2022-12-08T11:52:24Z</time>
      </trkpt>
      <trkpt lat="48.14749" lon="-3.71553">
        <ele>249.6</ele>
        <time>2022-12-08T11:52:25Z</time>
      </trkpt>
      <trkpt lat="48.1475" lon="-3.71549">
        <ele>249.7</ele>
        <time>2022-12-08T11:52:27Z</time>
      </trkpt>
      <trkpt lat="48.14751" lon="-3.71544">
        <ele>249.7</ele>
        <time>2022-12-08T11:52:28Z</time>
      </trkpt>
      <trkpt lat="48.14751" lon="-3.71542">
        <ele>249.7</ele>
        <time>2022-12-08T11:52:29Z</time>
      </trkpt>
      <trkpt lat="48.14752" lon="-3.71537">
        <ele>249.7</ele>
        <time>2022-12-08T11:52:30Z</time>
      </trkpt>
      <trkpt lat="48.14752" lon="-3.71536">
        <ele>249.8</ele>
        <time>2022-12-08T11:52:31Z</time>
      </trkpt>
      <trkpt lat="48.14753" lon="-3.71531">
        <ele>249.8</ele>
        <time>2022-12-08T11:52:32Z</time>
      </trkpt>
      <trkpt lat="48.14754" lon="-3.71529">
        <ele>249.8</ele>
        <time>2022-12-08T11:52:33Z</time>
      </trkpt>
      <trkpt lat="48.14755" lon="-3.71527">
        <ele>249.8</ele>
        <time>2022-12-08T11:52:34Z</time>
      </trkpt>
      <trkpt lat="48.14756" lon="-3.71525">
        <ele>249.8</ele>
        <time>2022-12-08T11:52:35Z</time>
      </trkpt>
      <trkpt lat="48.14757" lon="-3.71522">
        <ele>249.8</ele>
        <time>2022-12-08T11:52:36Z</time>
      </trkpt>
      <trkpt lat="48.14759" lon="-3.71516">
        <ele>249.8</ele>
        <time>2022-12-08T11:52:38Z</time>
      </trkpt>
      <trkpt lat="48.1476" lon="-3.71514">
        <ele>249.9</ele>
        <time>2022-12-08T11:52:39Z</time>
      </trkpt>
      <trkpt lat="48.14761" lon="-3.71512">
        <ele>249.9</ele>
        <time>2022-12-08T11:52:40Z</time>
      </trkpt>
      <trkpt lat="48.14761" lon="-3.7151">
        <ele>249.9</ele>
        <time>2022-12-08T11:52:41Z</time>
      </trkpt>
      <trkpt lat="48.14761" lon="-3.71507">
        <ele>249.9</ele>
        <time>2022-12-08T11:52:42Z</time>
      </trkpt>
      <trkpt lat="48.14762" lon="-3.71505">
        <ele>250</ele>
        <time>2022-12-08T11:52:43Z</time>
      </trkpt>
      <trkpt lat="48.14762" lon="-3.71503">
        <ele>250</ele>
        <time>2022-12-08T11:52:44Z</time>
      </trkpt>
      <trkpt lat="48.14763" lon="-3.715">
        <ele>250.1</ele>
        <time>2022-12-08T11:52:45Z</time>
      </trkpt>
      <trkpt lat="48.14764" lon="-3.71498">
        <ele>250.1</ele>
        <time>2022-12-08T11:52:46Z</time>
      </trkpt>
      <trkpt lat="48.14764" lon="-3.71495">
        <ele>250.1</ele>
        <time>2022-12-08T11:52:48Z</time>
      </trkpt>
      <trkpt lat="48.14764" lon="-3.71495">
        <ele>250.1</ele>
        <time>2022-12-08T11:52:49Z</time>
      </trkpt>
      <trkpt lat="48.14764" lon="-3.71496">
        <ele>250.2</ele>
        <time>2022-12-08T11:52:50Z</time>
      </trkpt>
      <trkpt lat="48.14764" lon="-3.71496">
        <ele>250.2</ele>
        <time>2022-12-08T11:52:51Z</time>
      </trkpt>
      <trkpt lat="48.14763" lon="-3.71496">
        <ele>250.2</ele>
        <time>2022-12-08T11:52:52Z</time>
      </trkpt>
      <trkpt lat="48.14763" lon="-3.71496">
        <ele>250.2</ele>
        <time>2022-12-08T11:52:53Z</time>
      </trkpt>
      <trkpt lat="48.14763" lon="-3.71497">
        <ele>250.2</ele>
        <time>2022-12-08T11:52:54Z</time>
      </trkpt>
      <trkpt lat="48.14763" lon="-3.71497">
        <ele>250.2</ele>
        <time>2022-12-08T11:52:55Z</time>
      </trkpt>
      <trkpt lat="48.14764" lon="-3.71493">
        <ele>250.3</ele>
        <time>2022-12-08T11:52:57Z</time>
      </trkpt>
      <trkpt lat="48.14766" lon="-3.71484">
        <ele>250.4</ele>
        <time>2022-12-08T11:52:59Z</time>
      </trkpt>
      <trkpt lat="48.14766" lon="-3.71482">
        <ele>250.4</ele>
        <time>2022-12-08T11:53:00Z</time>
      </trkpt>
      <trkpt lat="48.14766" lon="-3.7148">
        <ele>250.5</ele>
        <time>2022-12-08T11:53:01Z</time>
      </trkpt>
      <trkpt lat="48.14768" lon="-3.71476">
        <ele>250.6</ele>
        <time>2022-12-08T11:53:03Z</time>
      </trkpt>
      <trkpt lat="48.14768" lon="-3.71475">
        <ele>250.6</ele>
        <time>2022-12-08T11:53:04Z</time>
      </trkpt>
      <trkpt lat="48.14769" lon="-3.71469">
        <ele>250.7</ele>
        <time>2022-12-08T11:53:05Z</time>
      </trkpt>
      <trkpt lat="48.1477" lon="-3.71468">
        <ele>250.7</ele>
        <time>2022-12-08T11:53:06Z</time>
      </trkpt>
      <trkpt lat="48.14771" lon="-3.71464">
        <ele>250.8</ele>
        <time>2022-12-08T11:53:07Z</time>
      </trkpt>
      <trkpt lat="48.14771" lon="-3.71462">
        <ele>250.8</ele>
        <time>2022-12-08T11:53:08Z</time>
      </trkpt>
      <trkpt lat="48.14772" lon="-3.7146">
        <ele>250.8</ele>
        <time>2022-12-08T11:53:09Z</time>
      </trkpt>
      <trkpt lat="48.14772" lon="-3.71457">
        <ele>250.9</ele>
        <time>2022-12-08T11:53:10Z</time>
      </trkpt>
      <trkpt lat="48.14772" lon="-3.71454">
        <ele>250.9</ele>
        <time>2022-12-08T11:53:11Z</time>
      </trkpt>
      <trkpt lat="48.14772" lon="-3.71452">
        <ele>251</ele>
        <time>2022-12-08T11:53:13Z</time>
      </trkpt>
      <trkpt lat="48.14771" lon="-3.71447">
        <ele>251</ele>
        <time>2022-12-08T11:53:14Z</time>
      </trkpt>
      <trkpt lat="48.14771" lon="-3.71445">
        <ele>251.1</ele>
        <time>2022-12-08T11:53:15Z</time>
      </trkpt>
      <trkpt lat="48.14772" lon="-3.71439">
        <ele>251.2</ele>
        <time>2022-12-08T11:53:17Z</time>
      </trkpt>
      <trkpt lat="48.14772" lon="-3.71437">
        <ele>251.2</ele>
        <time>2022-12-08T11:53:18Z</time>
      </trkpt>
      <trkpt lat="48.14773" lon="-3.71434">
        <ele>251.2</ele>
        <time>2022-12-08T11:53:19Z</time>
      </trkpt>
      <trkpt lat="48.14773" lon="-3.71432">
        <ele>251.2</ele>
        <time>2022-12-08T11:53:20Z</time>
      </trkpt>
      <trkpt lat="48.14773" lon="-3.7143">
        <ele>251.3</ele>
        <time>2022-12-08T11:53:21Z</time>
      </trkpt>
      <trkpt lat="48.14774" lon="-3.71428">
        <ele>251.3</ele>
        <time>2022-12-08T11:53:22Z</time>
      </trkpt>
      <trkpt lat="48.14774" lon="-3.71427">
        <ele>251.3</ele>
        <time>2022-12-08T11:53:24Z</time>
      </trkpt>
      <trkpt lat="48.14774" lon="-3.71427">
        <ele>251.3</ele>
        <time>2022-12-08T11:53:25Z</time>
      </trkpt>
      <trkpt lat="48.14774" lon="-3.71426">
        <ele>251.3</ele>
        <time>2022-12-08T11:53:26Z</time>
      </trkpt>
      <trkpt lat="48.14774" lon="-3.71425">
        <ele>251.3</ele>
        <time>2022-12-08T11:53:27Z</time>
      </trkpt>
      <trkpt lat="48.14774" lon="-3.71424">
        <ele>251.3</ele>
        <time>2022-12-08T11:53:28Z</time>
      </trkpt>
      <trkpt lat="48.14774" lon="-3.71423">
        <ele>251.3</ele>
        <time>2022-12-08T11:53:29Z</time>
      </trkpt>
      <trkpt lat="48.14774" lon="-3.7142">
        <ele>251.5</ele>
        <time>2022-12-08T11:53:30Z</time>
      </trkpt>
      <trkpt lat="48.14774" lon="-3.71418">
        <ele>251.5</ele>
        <time>2022-12-08T11:53:31Z</time>
      </trkpt>
      <trkpt lat="48.14775" lon="-3.71417">
        <ele>251.5</ele>
        <time>2022-12-08T11:53:32Z</time>
      </trkpt>
      <trkpt lat="48.14776" lon="-3.71415">
        <ele>251.6</ele>
        <time>2022-12-08T11:53:33Z</time>
      </trkpt>
      <trkpt lat="48.14779" lon="-3.71417">
        <ele>251.7</ele>
        <time>2022-12-08T11:53:35Z</time>
      </trkpt>
      <trkpt lat="48.1478" lon="-3.71422">
        <ele>251.8</ele>
        <time>2022-12-08T11:53:36Z</time>
      </trkpt>
      <trkpt lat="48.14782" lon="-3.71427">
        <ele>252</ele>
        <time>2022-12-08T11:53:38Z</time>
      </trkpt>
      <trkpt lat="48.14783" lon="-3.71431">
        <ele>252.1</ele>
        <time>2022-12-08T11:53:39Z</time>
      </trkpt>
      <trkpt lat="48.14785" lon="-3.71435">
        <ele>252.2</ele>
        <time>2022-12-08T11:53:40Z</time>
      </trkpt>
      <trkpt lat="48.14789" lon="-3.71437">
        <ele>252.3</ele>
        <time>2022-12-08T11:53:42Z</time>
      </trkpt>
      <trkpt lat="48.14793" lon="-3.71439">
        <ele>252.5</ele>
        <time>2022-12-08T11:53:43Z</time>
      </trkpt>
      <trkpt lat="48.14797" lon="-3.7144">
        <ele>252.6</ele>
        <time>2022-12-08T11:53:45Z</time>
      </trkpt>
      <trkpt lat="48.14801" lon="-3.71442">
        <ele>252.8</ele>
        <time>2022-12-08T11:53:46Z</time>
      </trkpt>
      <trkpt lat="48.14804" lon="-3.71443">
        <ele>252.9</ele>
        <time>2022-12-08T11:53:47Z</time>
      </trkpt>
      <trkpt lat="48.14807" lon="-3.71445">
        <ele>253</ele>
        <time>2022-12-08T11:53:48Z</time>
      </trkpt>
      <trkpt lat="48.14811" lon="-3.71447">
        <ele>253.2</ele>
        <time>2022-12-08T11:53:50Z</time>
      </trkpt>
      <trkpt lat="48.14814" lon="-3.71448">
        <ele>253.3</ele>
        <time>2022-12-08T11:53:51Z</time>
      </trkpt>
      <trkpt lat="48.14817" lon="-3.7145">
        <ele>253.4</ele>
        <time>2022-12-08T11:53:52Z</time>
      </trkpt>
      <trkpt lat="48.1482" lon="-3.71453">
        <ele>253.5</ele>
        <time>2022-12-08T11:53:53Z</time>
      </trkpt>
      <trkpt lat="48.14823" lon="-3.71455">
        <ele>253.6</ele>
        <time>2022-12-08T11:53:54Z</time>
      </trkpt>
      <trkpt lat="48.14825" lon="-3.71457">
        <ele>253.8</ele>
        <time>2022-12-08T11:53:55Z</time>
      </trkpt>
      <trkpt lat="48.14827" lon="-3.71458">
        <ele>253.8</ele>
        <time>2022-12-08T11:53:56Z</time>
      </trkpt>
      <trkpt lat="48.14828" lon="-3.71459">
        <ele>253.9</ele>
        <time>2022-12-08T11:53:57Z</time>
      </trkpt>
      <trkpt lat="48.1483" lon="-3.71461">
        <ele>254</ele>
        <time>2022-12-08T11:53:58Z</time>
      </trkpt>
      <trkpt lat="48.14831" lon="-3.71462">
        <ele>254</ele>
        <time>2022-12-08T11:53:59Z</time>
      </trkpt>
      <trkpt lat="48.14834" lon="-3.71462">
        <ele>254.1</ele>
        <time>2022-12-08T11:54:00Z</time>
      </trkpt>
      <trkpt lat="48.14835" lon="-3.71462">
        <ele>254.1</ele>
        <time>2022-12-08T11:54:01Z</time>
      </trkpt>
      <trkpt lat="48.14838" lon="-3.71462">
        <ele>254.2</ele>
        <time>2022-12-08T11:54:02Z</time>
      </trkpt>
      <trkpt lat="48.14839" lon="-3.71462">
        <ele>254.2</ele>
        <time>2022-12-08T11:54:03Z</time>
      </trkpt>
      <trkpt lat="48.14843" lon="-3.71464">
        <ele>254.3</ele>
        <time>2022-12-08T11:54:04Z</time>
      </trkpt>
      <trkpt lat="48.14844" lon="-3.71464">
        <ele>254.4</ele>
        <time>2022-12-08T11:54:05Z</time>
      </trkpt>
      <trkpt lat="48.14848" lon="-3.71465">
        <ele>254.4</ele>
        <time>2022-12-08T11:54:06Z</time>
      </trkpt>
      <trkpt lat="48.1485" lon="-3.71466">
        <ele>254.5</ele>
        <time>2022-12-08T11:54:08Z</time>
      </trkpt>
      <trkpt lat="48.14855" lon="-3.71468">
        <ele>254.6</ele>
        <time>2022-12-08T11:54:09Z</time>
      </trkpt>
      <trkpt lat="48.14858" lon="-3.71468">
        <ele>254.7</ele>
        <time>2022-12-08T11:54:10Z</time>
      </trkpt>
      <trkpt lat="48.14862" lon="-3.71469">
        <ele>254.8</ele>
        <time>2022-12-08T11:54:12Z</time>
      </trkpt>
      <trkpt lat="48.14866" lon="-3.7147">
        <ele>254.9</ele>
        <time>2022-12-08T11:54:13Z</time>
      </trkpt>
      <trkpt lat="48.14867" lon="-3.71471">
        <ele>254.9</ele>
        <time>2022-12-08T11:54:14Z</time>
      </trkpt>
      <trkpt lat="48.14871" lon="-3.71474">
        <ele>255</ele>
        <time>2022-12-08T11:54:15Z</time>
      </trkpt>
      <trkpt lat="48.14872" lon="-3.71475">
        <ele>255</ele>
        <time>2022-12-08T11:54:16Z</time>
      </trkpt>
      <trkpt lat="48.14876" lon="-3.7148">
        <ele>255.1</ele>
        <time>2022-12-08T11:54:17Z</time>
      </trkpt>
      <trkpt lat="48.14883" lon="-3.71483">
        <ele>255.2</ele>
        <time>2022-12-08T11:54:19Z</time>
      </trkpt>
      <trkpt lat="48.14884" lon="-3.71483">
        <ele>255.3</ele>
        <time>2022-12-08T11:54:20Z</time>
      </trkpt>
      <trkpt lat="48.14888" lon="-3.71481">
        <ele>255.3</ele>
        <time>2022-12-08T11:54:22Z</time>
      </trkpt>
      <trkpt lat="48.14888" lon="-3.71476">
        <ele>255.4</ele>
        <time>2022-12-08T11:54:23Z</time>
      </trkpt>
      <trkpt lat="48.14888" lon="-3.71474">
        <ele>255.4</ele>
        <time>2022-12-08T11:54:24Z</time>
      </trkpt>
      <trkpt lat="48.14888" lon="-3.71469">
        <ele>255.5</ele>
        <time>2022-12-08T11:54:25Z</time>
      </trkpt>
      <trkpt lat="48.14888" lon="-3.71467">
        <ele>255.6</ele>
        <time>2022-12-08T11:54:26Z</time>
      </trkpt>
      <trkpt lat="48.14888" lon="-3.71462">
        <ele>255.7</ele>
        <time>2022-12-08T11:54:27Z</time>
      </trkpt>
      <trkpt lat="48.14888" lon="-3.7146">
        <ele>255.7</ele>
        <time>2022-12-08T11:54:28Z</time>
      </trkpt>
      <trkpt lat="48.14888" lon="-3.71455">
        <ele>255.8</ele>
        <time>2022-12-08T11:54:29Z</time>
      </trkpt>
      <trkpt lat="48.14888" lon="-3.71453">
        <ele>255.9</ele>
        <time>2022-12-08T11:54:30Z</time>
      </trkpt>
      <trkpt lat="48.14888" lon="-3.7145">
        <ele>255.9</ele>
        <time>2022-12-08T11:54:31Z</time>
      </trkpt>
      <trkpt lat="48.14888" lon="-3.71445">
        <ele>256</ele>
        <time>2022-12-08T11:54:33Z</time>
      </trkpt>
      <trkpt lat="48.14888" lon="-3.71437">
        <ele>256.2</ele>
        <time>2022-12-08T11:54:34Z</time>
      </trkpt>
      <trkpt lat="48.14888" lon="-3.71434">
        <ele>256.2</ele>
        <time>2022-12-08T11:54:35Z</time>
      </trkpt>
      <trkpt lat="48.14887" lon="-3.7143">
        <ele>256.3</ele>
        <time>2022-12-08T11:54:36Z</time>
      </trkpt>
      <trkpt lat="48.14887" lon="-3.71428">
        <ele>256.4</ele>
        <time>2022-12-08T11:54:37Z</time>
      </trkpt>
      <trkpt lat="48.14888" lon="-3.71423">
        <ele>256.5</ele>
        <time>2022-12-08T11:54:39Z</time>
      </trkpt>
      <trkpt lat="48.14889" lon="-3.71416">
        <ele>256.6</ele>
        <time>2022-12-08T11:54:40Z</time>
      </trkpt>
      <trkpt lat="48.14889" lon="-3.71412">
        <ele>256.7</ele>
        <time>2022-12-08T11:54:41Z</time>
      </trkpt>
      <trkpt lat="48.14889" lon="-3.71407">
        <ele>256.8</ele>
        <time>2022-12-08T11:54:42Z</time>
      </trkpt>
      <trkpt lat="48.14889" lon="-3.71402">
        <ele>256.9</ele>
        <time>2022-12-08T11:54:44Z</time>
      </trkpt>
      <trkpt lat="48.14888" lon="-3.71399">
        <ele>256.9</ele>
        <time>2022-12-08T11:54:45Z</time>
      </trkpt>
      <trkpt lat="48.14888" lon="-3.71395">
        <ele>257</ele>
        <time>2022-12-08T11:54:46Z</time>
      </trkpt>
      <trkpt lat="48.14888" lon="-3.71391">
        <ele>257.1</ele>
        <time>2022-12-08T11:54:47Z</time>
      </trkpt>
      <trkpt lat="48.14889" lon="-3.71385">
        <ele>257.2</ele>
        <time>2022-12-08T11:54:49Z</time>
      </trkpt>
      <trkpt lat="48.1489" lon="-3.7138">
        <ele>257.3</ele>
        <time>2022-12-08T11:54:50Z</time>
      </trkpt>
      <trkpt lat="48.1489" lon="-3.71375">
        <ele>257.3</ele>
        <time>2022-12-08T11:54:52Z</time>
      </trkpt>
      <trkpt lat="48.14891" lon="-3.71369">
        <ele>257.5</ele>
        <time>2022-12-08T11:54:53Z</time>
      </trkpt>
      <trkpt lat="48.14891" lon="-3.71363">
        <ele>257.6</ele>
        <time>2022-12-08T11:54:54Z</time>
      </trkpt>
      <trkpt lat="48.14891" lon="-3.71359">
        <ele>257.6</ele>
        <time>2022-12-08T11:54:55Z</time>
      </trkpt>
      <trkpt lat="48.1489" lon="-3.71353">
        <ele>257.7</ele>
        <time>2022-12-08T11:54:56Z</time>
      </trkpt>
      <trkpt lat="48.1489" lon="-3.71351">
        <ele>257.7</ele>
        <time>2022-12-08T11:54:57Z</time>
      </trkpt>
      <trkpt lat="48.1489" lon="-3.71345">
        <ele>257.8</ele>
        <time>2022-12-08T11:54:58Z</time>
      </trkpt>
      <trkpt lat="48.1489" lon="-3.71344">
        <ele>257.8</ele>
        <time>2022-12-08T11:54:59Z</time>
      </trkpt>
      <trkpt lat="48.1489" lon="-3.71338">
        <ele>257.9</ele>
        <time>2022-12-08T11:55:00Z</time>
      </trkpt>
      <trkpt lat="48.14891" lon="-3.71336">
        <ele>257.9</ele>
        <time>2022-12-08T11:55:01Z</time>
      </trkpt>
      <trkpt lat="48.14893" lon="-3.7133">
        <ele>258</ele>
        <time>2022-12-08T11:55:02Z</time>
      </trkpt>
      <trkpt lat="48.14894" lon="-3.71325">
        <ele>258.1</ele>
        <time>2022-12-08T11:55:03Z</time>
      </trkpt>
      <trkpt lat="48.14894" lon="-3.71321">
        <ele>258.2</ele>
        <time>2022-12-08T11:55:04Z</time>
      </trkpt>
      <trkpt lat="48.14895" lon="-3.71316">
        <ele>258.3</ele>
        <time>2022-12-08T11:55:05Z</time>
      </trkpt>
      <trkpt lat="48.14896" lon="-3.71311">
        <ele>258.4</ele>
        <time>2022-12-08T11:55:06Z</time>
      </trkpt>
      <trkpt lat="48.14897" lon="-3.71309">
        <ele>258.5</ele>
        <time>2022-12-08T11:55:07Z</time>
      </trkpt>
      <trkpt lat="48.14897" lon="-3.71305">
        <ele>258.6</ele>
        <time>2022-12-08T11:55:08Z</time>
      </trkpt>
      <trkpt lat="48.14898" lon="-3.713">
        <ele>258.7</ele>
        <time>2022-12-08T11:55:09Z</time>
      </trkpt>
      <trkpt lat="48.14898" lon="-3.71295">
        <ele>258.8</ele>
        <time>2022-12-08T11:55:11Z</time>
      </trkpt>
      <trkpt lat="48.14898" lon="-3.71291">
        <ele>258.8</ele>
        <time>2022-12-08T11:55:12Z</time>
      </trkpt>
      <trkpt lat="48.14898" lon="-3.71285">
        <ele>258.9</ele>
        <time>2022-12-08T11:55:13Z</time>
      </trkpt>
      <trkpt lat="48.14898" lon="-3.71282">
        <ele>259</ele>
        <time>2022-12-08T11:55:14Z</time>
      </trkpt>
      <trkpt lat="48.14899" lon="-3.71274">
        <ele>259</ele>
        <time>2022-12-08T11:55:16Z</time>
      </trkpt>
      <trkpt lat="48.14899" lon="-3.71269">
        <ele>259.1</ele>
        <time>2022-12-08T11:55:17Z</time>
      </trkpt>
      <trkpt lat="48.14899" lon="-3.71266">
        <ele>259.1</ele>
        <time>2022-12-08T11:55:18Z</time>
      </trkpt>
      <trkpt lat="48.149" lon="-3.71262">
        <ele>259.2</ele>
        <time>2022-12-08T11:55:20Z</time>
      </trkpt>
      <trkpt lat="48.14901" lon="-3.71256">
        <ele>259.2</ele>
        <time>2022-12-08T11:55:21Z</time>
      </trkpt>
      <trkpt lat="48.14902" lon="-3.7125">
        <ele>259.3</ele>
        <time>2022-12-08T11:55:22Z</time>
      </trkpt>
      <trkpt lat="48.14902" lon="-3.71248">
        <ele>259.3</ele>
        <time>2022-12-08T11:55:23Z</time>
      </trkpt>
      <trkpt lat="48.14902" lon="-3.71242">
        <ele>259.4</ele>
        <time>2022-12-08T11:55:25Z</time>
      </trkpt>
      <trkpt lat="48.14902" lon="-3.71237">
        <ele>259.4</ele>
        <time>2022-12-08T11:55:26Z</time>
      </trkpt>
      <trkpt lat="48.14903" lon="-3.71233">
        <ele>259.5</ele>
        <time>2022-12-08T11:55:27Z</time>
      </trkpt>
      <trkpt lat="48.14903" lon="-3.71226">
        <ele>259.5</ele>
        <time>2022-12-08T11:55:28Z</time>
      </trkpt>
      <trkpt lat="48.14904" lon="-3.71222">
        <ele>259.5</ele>
        <time>2022-12-08T11:55:29Z</time>
      </trkpt>
      <trkpt lat="48.14906" lon="-3.71216">
        <ele>259.6</ele>
        <time>2022-12-08T11:55:31Z</time>
      </trkpt>
      <trkpt lat="48.14906" lon="-3.71209">
        <ele>259.6</ele>
        <time>2022-12-08T11:55:33Z</time>
      </trkpt>
      <trkpt lat="48.14907" lon="-3.71202">
        <ele>259.7</ele>
        <time>2022-12-08T11:55:34Z</time>
      </trkpt>
      <trkpt lat="48.14907" lon="-3.71199">
        <ele>259.7</ele>
        <time>2022-12-08T11:55:35Z</time>
      </trkpt>
      <trkpt lat="48.14908" lon="-3.71195">
        <ele>259.7</ele>
        <time>2022-12-08T11:55:36Z</time>
      </trkpt>
      <trkpt lat="48.14908" lon="-3.7119">
        <ele>259.8</ele>
        <time>2022-12-08T11:55:37Z</time>
      </trkpt>
      <trkpt lat="48.14907" lon="-3.71188">
        <ele>259.8</ele>
        <time>2022-12-08T11:55:38Z</time>
      </trkpt>
      <trkpt lat="48.14907" lon="-3.71183">
        <ele>259.9</ele>
        <time>2022-12-08T11:55:39Z</time>
      </trkpt>
      <trkpt lat="48.14908" lon="-3.71182">
        <ele>259.9</ele>
        <time>2022-12-08T11:55:40Z</time>
      </trkpt>
      <trkpt lat="48.14908" lon="-3.71177">
        <ele>259.9</ele>
        <time>2022-12-08T11:55:41Z</time>
      </trkpt>
      <trkpt lat="48.14908" lon="-3.71175">
        <ele>260</ele>
        <time>2022-12-08T11:55:42Z</time>
      </trkpt>
      <trkpt lat="48.14909" lon="-3.71171">
        <ele>260</ele>
        <time>2022-12-08T11:55:44Z</time>
      </trkpt>
      <trkpt lat="48.14909" lon="-3.71164">
        <ele>260.1</ele>
        <time>2022-12-08T11:55:45Z</time>
      </trkpt>
      <trkpt lat="48.1491" lon="-3.71162">
        <ele>260.1</ele>
        <time>2022-12-08T11:55:46Z</time>
      </trkpt>
      <trkpt lat="48.1491" lon="-3.71157">
        <ele>260.2</ele>
        <time>2022-12-08T11:55:48Z</time>
      </trkpt>
      <trkpt lat="48.14909" lon="-3.71152">
        <ele>260.3</ele>
        <time>2022-12-08T11:55:49Z</time>
      </trkpt>
      <trkpt lat="48.14909" lon="-3.71147">
        <ele>260.3</ele>
        <time>2022-12-08T11:55:50Z</time>
      </trkpt>
      <trkpt lat="48.1491" lon="-3.71142">
        <ele>260.4</ele>
        <time>2022-12-08T11:55:51Z</time>
      </trkpt>
      <trkpt lat="48.14911" lon="-3.71137">
        <ele>260.4</ele>
        <time>2022-12-08T11:55:52Z</time>
      </trkpt>
      <trkpt lat="48.14911" lon="-3.71131">
        <ele>260.4</ele>
        <time>2022-12-08T11:55:54Z</time>
      </trkpt>
      <trkpt lat="48.14911" lon="-3.71126">
        <ele>260.5</ele>
        <time>2022-12-08T11:55:55Z</time>
      </trkpt>
      <trkpt lat="48.14911" lon="-3.71124">
        <ele>260.5</ele>
        <time>2022-12-08T11:55:56Z</time>
      </trkpt>
      <trkpt lat="48.14911" lon="-3.71119">
        <ele>260.5</ele>
        <time>2022-12-08T11:55:57Z</time>
      </trkpt>
      <trkpt lat="48.14912" lon="-3.71114">
        <ele>260.5</ele>
        <time>2022-12-08T11:55:58Z</time>
      </trkpt>
      <trkpt lat="48.14912" lon="-3.71111">
        <ele>260.5</ele>
        <time>2022-12-08T11:55:59Z</time>
      </trkpt>
      <trkpt lat="48.14913" lon="-3.71106">
        <ele>260.6</ele>
        <time>2022-12-08T11:56:00Z</time>
      </trkpt>
      <trkpt lat="48.14914" lon="-3.71101">
        <ele>260.6</ele>
        <time>2022-12-08T11:56:02Z</time>
      </trkpt>
      <trkpt lat="48.14915" lon="-3.71094">
        <ele>260.6</ele>
        <time>2022-12-08T11:56:03Z</time>
      </trkpt>
      <trkpt lat="48.14916" lon="-3.7109">
        <ele>260.7</ele>
        <time>2022-12-08T11:56:04Z</time>
      </trkpt>
      <trkpt lat="48.14917" lon="-3.71086">
        <ele>260.7</ele>
        <time>2022-12-08T11:56:05Z</time>
      </trkpt>
      <trkpt lat="48.14918" lon="-3.7108">
        <ele>260.7</ele>
        <time>2022-12-08T11:56:07Z</time>
      </trkpt>
      <trkpt lat="48.14919" lon="-3.71073">
        <ele>260.8</ele>
        <time>2022-12-08T11:56:08Z</time>
      </trkpt>
      <trkpt lat="48.14919" lon="-3.71069">
        <ele>260.8</ele>
        <time>2022-12-08T11:56:09Z</time>
      </trkpt>
      <trkpt lat="48.14919" lon="-3.71064">
        <ele>260.9</ele>
        <time>2022-12-08T11:56:10Z</time>
      </trkpt>
      <trkpt lat="48.1492" lon="-3.7106">
        <ele>260.9</ele>
        <time>2022-12-08T11:56:11Z</time>
      </trkpt>
      <trkpt lat="48.14921" lon="-3.71054">
        <ele>261</ele>
        <time>2022-12-08T11:56:12Z</time>
      </trkpt>
      <trkpt lat="48.14921" lon="-3.71051">
        <ele>261</ele>
        <time>2022-12-08T11:56:13Z</time>
      </trkpt>
      <trkpt lat="48.14922" lon="-3.71047">
        <ele>261.1</ele>
        <time>2022-12-08T11:56:14Z</time>
      </trkpt>
      <trkpt lat="48.14922" lon="-3.71042">
        <ele>261.1</ele>
        <time>2022-12-08T11:56:15Z</time>
      </trkpt>
      <trkpt lat="48.14923" lon="-3.71036">
        <ele>261.2</ele>
        <time>2022-12-08T11:56:17Z</time>
      </trkpt>
      <trkpt lat="48.14925" lon="-3.71029">
        <ele>261.3</ele>
        <time>2022-12-08T11:56:18Z</time>
      </trkpt>
      <trkpt lat="48.14926" lon="-3.71025">
        <ele>261.3</ele>
        <time>2022-12-08T11:56:19Z</time>
      </trkpt>
      <trkpt lat="48.14927" lon="-3.71021">
        <ele>261.3</ele>
        <time>2022-12-08T11:56:20Z</time>
      </trkpt>
      <trkpt lat="48.14928" lon="-3.71017">
        <ele>261.4</ele>
        <time>2022-12-08T11:56:21Z</time>
      </trkpt>
      <trkpt lat="48.14928" lon="-3.71013">
        <ele>261.4</ele>
        <time>2022-12-08T11:56:22Z</time>
      </trkpt>
      <trkpt lat="48.14928" lon="-3.71007">
        <ele>261.4</ele>
        <time>2022-12-08T11:56:23Z</time>
      </trkpt>
      <trkpt lat="48.14928" lon="-3.71005">
        <ele>261.4</ele>
        <time>2022-12-08T11:56:24Z</time>
      </trkpt>
      <trkpt lat="48.14929" lon="-3.71">
        <ele>261.5</ele>
        <time>2022-12-08T11:56:25Z</time>
      </trkpt>
      <trkpt lat="48.14931" lon="-3.70996">
        <ele>261.5</ele>
        <time>2022-12-08T11:56:26Z</time>
      </trkpt>
      <trkpt lat="48.14931" lon="-3.7099">
        <ele>261.5</ele>
        <time>2022-12-08T11:56:27Z</time>
      </trkpt>
      <trkpt lat="48.14931" lon="-3.70989">
        <ele>261.5</ele>
        <time>2022-12-08T11:56:28Z</time>
      </trkpt>
      <trkpt lat="48.14932" lon="-3.70984">
        <ele>261.5</ele>
        <time>2022-12-08T11:56:29Z</time>
      </trkpt>
      <trkpt lat="48.14933" lon="-3.70978">
        <ele>261.5</ele>
        <time>2022-12-08T11:56:30Z</time>
      </trkpt>
      <trkpt lat="48.14934" lon="-3.70977">
        <ele>261.5</ele>
        <time>2022-12-08T11:56:31Z</time>
      </trkpt>
      <trkpt lat="48.14935" lon="-3.70971">
        <ele>261.5</ele>
        <time>2022-12-08T11:56:33Z</time>
      </trkpt>
      <trkpt lat="48.14936" lon="-3.70964">
        <ele>261.5</ele>
        <time>2022-12-08T11:56:34Z</time>
      </trkpt>
      <trkpt lat="48.14937" lon="-3.7096">
        <ele>261.6</ele>
        <time>2022-12-08T11:56:35Z</time>
      </trkpt>
      <trkpt lat="48.14939" lon="-3.70953">
        <ele>261.6</ele>
        <time>2022-12-08T11:56:37Z</time>
      </trkpt>
      <trkpt lat="48.14939" lon="-3.70946">
        <ele>261.6</ele>
        <time>2022-12-08T11:56:38Z</time>
      </trkpt>
      <trkpt lat="48.14938" lon="-3.70943">
        <ele>261.7</ele>
        <time>2022-12-08T11:56:39Z</time>
      </trkpt>
      <trkpt lat="48.14939" lon="-3.70935">
        <ele>261.7</ele>
        <time>2022-12-08T11:56:41Z</time>
      </trkpt>
      <trkpt lat="48.1494" lon="-3.70931">
        <ele>261.7</ele>
        <time>2022-12-08T11:56:42Z</time>
      </trkpt>
      <trkpt lat="48.1494" lon="-3.70925">
        <ele>261.8</ele>
        <time>2022-12-08T11:56:43Z</time>
      </trkpt>
      <trkpt lat="48.14941" lon="-3.70923">
        <ele>261.8</ele>
        <time>2022-12-08T11:56:44Z</time>
      </trkpt>
      <trkpt lat="48.14942" lon="-3.70918">
        <ele>261.8</ele>
        <time>2022-12-08T11:56:45Z</time>
      </trkpt>
      <trkpt lat="48.14943" lon="-3.70914">
        <ele>261.8</ele>
        <time>2022-12-08T11:56:46Z</time>
      </trkpt>
      <trkpt lat="48.14944" lon="-3.7091">
        <ele>261.9</ele>
        <time>2022-12-08T11:56:47Z</time>
      </trkpt>
      <trkpt lat="48.14946" lon="-3.70904">
        <ele>261.9</ele>
        <time>2022-12-08T11:56:48Z</time>
      </trkpt>
      <trkpt lat="48.14947" lon="-3.709">
        <ele>262</ele>
        <time>2022-12-08T11:56:49Z</time>
      </trkpt>
      <trkpt lat="48.14949" lon="-3.70896">
        <ele>262</ele>
        <time>2022-12-08T11:56:50Z</time>
      </trkpt>
      <trkpt lat="48.14949" lon="-3.70892">
        <ele>262</ele>
        <time>2022-12-08T11:56:51Z</time>
      </trkpt>
      <trkpt lat="48.1495" lon="-3.70888">
        <ele>262.1</ele>
        <time>2022-12-08T11:56:52Z</time>
      </trkpt>
      <trkpt lat="48.14951" lon="-3.70883">
        <ele>262.1</ele>
        <time>2022-12-08T11:56:53Z</time>
      </trkpt>
      <trkpt lat="48.14951" lon="-3.70878">
        <ele>262.2</ele>
        <time>2022-12-08T11:56:54Z</time>
      </trkpt>
      <trkpt lat="48.14952" lon="-3.70873">
        <ele>262.2</ele>
        <time>2022-12-08T11:56:55Z</time>
      </trkpt>
      <trkpt lat="48.14953" lon="-3.70868">
        <ele>262.3</ele>
        <time>2022-12-08T11:56:56Z</time>
      </trkpt>
      <trkpt lat="48.14955" lon="-3.70863">
        <ele>262.3</ele>
        <time>2022-12-08T11:56:57Z</time>
      </trkpt>
      <trkpt lat="48.14955" lon="-3.70861">
        <ele>262.4</ele>
        <time>2022-12-08T11:56:58Z</time>
      </trkpt>
      <trkpt lat="48.14957" lon="-3.70856">
        <ele>262.4</ele>
        <time>2022-12-08T11:56:59Z</time>
      </trkpt>
      <trkpt lat="48.14958" lon="-3.70852">
        <ele>262.4</ele>
        <time>2022-12-08T11:57:00Z</time>
      </trkpt>
      <trkpt lat="48.14959" lon="-3.70847">
        <ele>262.4</ele>
        <time>2022-12-08T11:57:01Z</time>
      </trkpt>
      <trkpt lat="48.1496" lon="-3.70842">
        <ele>262.5</ele>
        <time>2022-12-08T11:57:02Z</time>
      </trkpt>
      <trkpt lat="48.14961" lon="-3.70838">
        <ele>262.5</ele>
        <time>2022-12-08T11:57:03Z</time>
      </trkpt>
      <trkpt lat="48.14961" lon="-3.70836">
        <ele>262.5</ele>
        <time>2022-12-08T11:57:04Z</time>
      </trkpt>
      <trkpt lat="48.14962" lon="-3.70828">
        <ele>262.5</ele>
        <time>2022-12-08T11:57:06Z</time>
      </trkpt>
      <trkpt lat="48.14963" lon="-3.70822">
        <ele>262.5</ele>
        <time>2022-12-08T11:57:07Z</time>
      </trkpt>
      <trkpt lat="48.14963" lon="-3.7082">
        <ele>262.5</ele>
        <time>2022-12-08T11:57:08Z</time>
      </trkpt>
      <trkpt lat="48.14964" lon="-3.70815">
        <ele>262.6</ele>
        <time>2022-12-08T11:57:09Z</time>
      </trkpt>
      <trkpt lat="48.14965" lon="-3.70811">
        <ele>262.6</ele>
        <time>2022-12-08T11:57:10Z</time>
      </trkpt>
      <trkpt lat="48.14966" lon="-3.70807">
        <ele>262.6</ele>
        <time>2022-12-08T11:57:11Z</time>
      </trkpt>
      <trkpt lat="48.14968" lon="-3.708">
        <ele>262.7</ele>
        <time>2022-12-08T11:57:13Z</time>
      </trkpt>
      <trkpt lat="48.14969" lon="-3.70796">
        <ele>262.7</ele>
        <time>2022-12-08T11:57:14Z</time>
      </trkpt>
      <trkpt lat="48.14969" lon="-3.70789">
        <ele>262.8</ele>
        <time>2022-12-08T11:57:15Z</time>
      </trkpt>
      <trkpt lat="48.14971" lon="-3.7078">
        <ele>262.9</ele>
        <time>2022-12-08T11:57:17Z</time>
      </trkpt>
      <trkpt lat="48.14972" lon="-3.70776">
        <ele>262.9</ele>
        <time>2022-12-08T11:57:18Z</time>
      </trkpt>
      <trkpt lat="48.14973" lon="-3.70771">
        <ele>263</ele>
        <time>2022-12-08T11:57:19Z</time>
      </trkpt>
      <trkpt lat="48.14973" lon="-3.70767">
        <ele>263</ele>
        <time>2022-12-08T11:57:20Z</time>
      </trkpt>
      <trkpt lat="48.14974" lon="-3.70762">
        <ele>263.1</ele>
        <time>2022-12-08T11:57:21Z</time>
      </trkpt>
      <trkpt lat="48.14975" lon="-3.70758">
        <ele>263.1</ele>
        <time>2022-12-08T11:57:22Z</time>
      </trkpt>
      <trkpt lat="48.14977" lon="-3.70752">
        <ele>263.1</ele>
        <time>2022-12-08T11:57:24Z</time>
      </trkpt>
      <trkpt lat="48.14979" lon="-3.70746">
        <ele>263.1</ele>
        <time>2022-12-08T11:57:25Z</time>
      </trkpt>
      <trkpt lat="48.1498" lon="-3.70741">
        <ele>263.2</ele>
        <time>2022-12-08T11:57:26Z</time>
      </trkpt>
      <trkpt lat="48.1498" lon="-3.70737">
        <ele>263.2</ele>
        <time>2022-12-08T11:57:27Z</time>
      </trkpt>
      <trkpt lat="48.14981" lon="-3.70732">
        <ele>263.2</ele>
        <time>2022-12-08T11:57:28Z</time>
      </trkpt>
      <trkpt lat="48.14981" lon="-3.70728">
        <ele>263.2</ele>
        <time>2022-12-08T11:57:29Z</time>
      </trkpt>
      <trkpt lat="48.14982" lon="-3.70722">
        <ele>263.2</ele>
        <time>2022-12-08T11:57:30Z</time>
      </trkpt>
      <trkpt lat="48.14982" lon="-3.7072">
        <ele>263.2</ele>
        <time>2022-12-08T11:57:31Z</time>
      </trkpt>
      <trkpt lat="48.14983" lon="-3.70715">
        <ele>263.3</ele>
        <time>2022-12-08T11:57:32Z</time>
      </trkpt>
      <trkpt lat="48.14984" lon="-3.70712">
        <ele>263.3</ele>
        <time>2022-12-08T11:57:33Z</time>
      </trkpt>
      <trkpt lat="48.14985" lon="-3.70707">
        <ele>263.3</ele>
        <time>2022-12-08T11:57:34Z</time>
      </trkpt>
      <trkpt lat="48.14985" lon="-3.70705">
        <ele>263.3</ele>
        <time>2022-12-08T11:57:35Z</time>
      </trkpt>
      <trkpt lat="48.14986" lon="-3.70701">
        <ele>263.3</ele>
        <time>2022-12-08T11:57:36Z</time>
      </trkpt>
      <trkpt lat="48.14987" lon="-3.70693">
        <ele>263.3</ele>
        <time>2022-12-08T11:57:38Z</time>
      </trkpt>
      <trkpt lat="48.14989" lon="-3.70688">
        <ele>263.3</ele>
        <time>2022-12-08T11:57:39Z</time>
      </trkpt>
      <trkpt lat="48.1499" lon="-3.70683">
        <ele>263.4</ele>
        <time>2022-12-08T11:57:40Z</time>
      </trkpt>
      <trkpt lat="48.1499" lon="-3.7068">
        <ele>263.4</ele>
        <time>2022-12-08T11:57:41Z</time>
      </trkpt>
      <trkpt lat="48.14992" lon="-3.70674">
        <ele>263.4</ele>
        <time>2022-12-08T11:57:43Z</time>
      </trkpt>
      <trkpt lat="48.14993" lon="-3.70668">
        <ele>263.4</ele>
        <time>2022-12-08T11:57:44Z</time>
      </trkpt>
      <trkpt lat="48.14993" lon="-3.70663">
        <ele>263.4</ele>
        <time>2022-12-08T11:57:45Z</time>
      </trkpt>
      <trkpt lat="48.14993" lon="-3.70661">
        <ele>263.4</ele>
        <time>2022-12-08T11:57:46Z</time>
      </trkpt>
      <trkpt lat="48.14994" lon="-3.70655">
        <ele>263.4</ele>
        <time>2022-12-08T11:57:47Z</time>
      </trkpt>
      <trkpt lat="48.14995" lon="-3.70652">
        <ele>263.5</ele>
        <time>2022-12-08T11:57:48Z</time>
      </trkpt>
      <trkpt lat="48.14997" lon="-3.70647">
        <ele>263.5</ele>
        <time>2022-12-08T11:57:49Z</time>
      </trkpt>
      <trkpt lat="48.14999" lon="-3.70643">
        <ele>263.5</ele>
        <time>2022-12-08T11:57:50Z</time>
      </trkpt>
      <trkpt lat="48.15" lon="-3.70638">
        <ele>263.5</ele>
        <time>2022-12-08T11:57:51Z</time>
      </trkpt>
      <trkpt lat="48.15001" lon="-3.70633">
        <ele>263.6</ele>
        <time>2022-12-08T11:57:52Z</time>
      </trkpt>
      <trkpt lat="48.15002" lon="-3.70627">
        <ele>263.6</ele>
        <time>2022-12-08T11:57:53Z</time>
      </trkpt>
      <trkpt lat="48.15003" lon="-3.70623">
        <ele>263.6</ele>
        <time>2022-12-08T11:57:54Z</time>
      </trkpt>
      <trkpt lat="48.15004" lon="-3.70618">
        <ele>263.6</ele>
        <time>2022-12-08T11:57:55Z</time>
      </trkpt>
      <trkpt lat="48.15006" lon="-3.70612">
        <ele>263.6</ele>
        <time>2022-12-08T11:57:56Z</time>
      </trkpt>
      <trkpt lat="48.15006" lon="-3.70606">
        <ele>263.6</ele>
        <time>2022-12-08T11:57:57Z</time>
      </trkpt>
      <trkpt lat="48.15005" lon="-3.70601">
        <ele>263.6</ele>
        <time>2022-12-08T11:57:58Z</time>
      </trkpt>
      <trkpt lat="48.15004" lon="-3.70599">
        <ele>263.6</ele>
        <time>2022-12-08T11:57:59Z</time>
      </trkpt>
      <trkpt lat="48.15005" lon="-3.70596">
        <ele>263.6</ele>
        <time>2022-12-08T11:58:00Z</time>
      </trkpt>
      <trkpt lat="48.15005" lon="-3.70594">
        <ele>263.6</ele>
        <time>2022-12-08T11:58:01Z</time>
      </trkpt>
      <trkpt lat="48.15005" lon="-3.70593">
        <ele>263.6</ele>
        <time>2022-12-08T11:58:02Z</time>
      </trkpt>
      <trkpt lat="48.15006" lon="-3.70588">
        <ele>263.6</ele>
        <time>2022-12-08T11:58:03Z</time>
      </trkpt>
      <trkpt lat="48.15007" lon="-3.70587">
        <ele>263.6</ele>
        <time>2022-12-08T11:58:04Z</time>
      </trkpt>
      <trkpt lat="48.15008" lon="-3.70583">
        <ele>263.7</ele>
        <time>2022-12-08T11:58:05Z</time>
      </trkpt>
      <trkpt lat="48.15009" lon="-3.70577">
        <ele>263.7</ele>
        <time>2022-12-08T11:58:06Z</time>
      </trkpt>
      <trkpt lat="48.1501" lon="-3.70572">
        <ele>263.7</ele>
        <time>2022-12-08T11:58:07Z</time>
      </trkpt>
      <trkpt lat="48.15011" lon="-3.70568">
        <ele>263.7</ele>
        <time>2022-12-08T11:58:08Z</time>
      </trkpt>
      <trkpt lat="48.15011" lon="-3.70564">
        <ele>263.8</ele>
        <time>2022-12-08T11:58:09Z</time>
      </trkpt>
      <trkpt lat="48.15012" lon="-3.70558">
        <ele>263.8</ele>
        <time>2022-12-08T11:58:10Z</time>
      </trkpt>
      <trkpt lat="48.15013" lon="-3.70553">
        <ele>263.9</ele>
        <time>2022-12-08T11:58:11Z</time>
      </trkpt>
      <trkpt lat="48.15012" lon="-3.70547">
        <ele>264</ele>
        <time>2022-12-08T11:58:12Z</time>
      </trkpt>
      <trkpt lat="48.15011" lon="-3.70542">
        <ele>264</ele>
        <time>2022-12-08T11:58:13Z</time>
      </trkpt>
      <trkpt lat="48.15011" lon="-3.70539">
        <ele>264</ele>
        <time>2022-12-08T11:58:14Z</time>
      </trkpt>
      <trkpt lat="48.15014" lon="-3.70534">
        <ele>264</ele>
        <time>2022-12-08T11:58:16Z</time>
      </trkpt>
      <trkpt lat="48.15015" lon="-3.7053">
        <ele>264</ele>
        <time>2022-12-08T11:58:17Z</time>
      </trkpt>
      <trkpt lat="48.15014" lon="-3.70525">
        <ele>264</ele>
        <time>2022-12-08T11:58:18Z</time>
      </trkpt>
      <trkpt lat="48.15013" lon="-3.70521">
        <ele>264</ele>
        <time>2022-12-08T11:58:19Z</time>
      </trkpt>
      <trkpt lat="48.15013" lon="-3.70518">
        <ele>264</ele>
        <time>2022-12-08T11:58:20Z</time>
      </trkpt>
      <trkpt lat="48.15015" lon="-3.70509">
        <ele>264</ele>
        <time>2022-12-08T11:58:22Z</time>
      </trkpt>
      <trkpt lat="48.15017" lon="-3.70504">
        <ele>264</ele>
        <time>2022-12-08T11:58:23Z</time>
      </trkpt>
      <trkpt lat="48.15018" lon="-3.705">
        <ele>264</ele>
        <time>2022-12-08T11:58:24Z</time>
      </trkpt>
      <trkpt lat="48.15019" lon="-3.70495">
        <ele>264</ele>
        <time>2022-12-08T11:58:25Z</time>
      </trkpt>
      <trkpt lat="48.15018" lon="-3.70489">
        <ele>263.9</ele>
        <time>2022-12-08T11:58:26Z</time>
      </trkpt>
      <trkpt lat="48.15017" lon="-3.70482">
        <ele>263.9</ele>
        <time>2022-12-08T11:58:28Z</time>
      </trkpt>
      <trkpt lat="48.15018" lon="-3.70477">
        <ele>263.9</ele>
        <time>2022-12-08T11:58:29Z</time>
      </trkpt>
      <trkpt lat="48.15018" lon="-3.70475">
        <ele>263.9</ele>
        <time>2022-12-08T11:58:30Z</time>
      </trkpt>
      <trkpt lat="48.15018" lon="-3.70468">
        <ele>263.8</ele>
        <time>2022-12-08T11:58:32Z</time>
      </trkpt>
      <trkpt lat="48.15019" lon="-3.70461">
        <ele>263.8</ele>
        <time>2022-12-08T11:58:33Z</time>
      </trkpt>
      <trkpt lat="48.15019" lon="-3.70458">
        <ele>263.8</ele>
        <time>2022-12-08T11:58:34Z</time>
      </trkpt>
      <trkpt lat="48.15021" lon="-3.70452">
        <ele>263.8</ele>
        <time>2022-12-08T11:58:35Z</time>
      </trkpt>
      <trkpt lat="48.15022" lon="-3.70448">
        <ele>263.8</ele>
        <time>2022-12-08T11:58:36Z</time>
      </trkpt>
      <trkpt lat="48.15023" lon="-3.70444">
        <ele>263.8</ele>
        <time>2022-12-08T11:58:37Z</time>
      </trkpt>
      <trkpt lat="48.15025" lon="-3.70437">
        <ele>263.7</ele>
        <time>2022-12-08T11:58:39Z</time>
      </trkpt>
      <trkpt lat="48.15026" lon="-3.70432">
        <ele>263.7</ele>
        <time>2022-12-08T11:58:40Z</time>
      </trkpt>
      <trkpt lat="48.15026" lon="-3.7043">
        <ele>263.7</ele>
        <time>2022-12-08T11:58:41Z</time>
      </trkpt>
      <trkpt lat="48.15027" lon="-3.70425">
        <ele>263.6</ele>
        <time>2022-12-08T11:58:42Z</time>
      </trkpt>
      <trkpt lat="48.15029" lon="-3.70419">
        <ele>263.6</ele>
        <time>2022-12-08T11:58:43Z</time>
      </trkpt>
      <trkpt lat="48.1503" lon="-3.70414">
        <ele>263.5</ele>
        <time>2022-12-08T11:58:44Z</time>
      </trkpt>
      <trkpt lat="48.15031" lon="-3.70408">
        <ele>263.4</ele>
        <time>2022-12-08T11:58:45Z</time>
      </trkpt>
      <trkpt lat="48.15033" lon="-3.70399">
        <ele>263.3</ele>
        <time>2022-12-08T11:58:46Z</time>
      </trkpt>
      <trkpt lat="48.15034" lon="-3.70393">
        <ele>263.2</ele>
        <time>2022-12-08T11:58:47Z</time>
      </trkpt>
      <trkpt lat="48.15035" lon="-3.70389">
        <ele>263.1</ele>
        <time>2022-12-08T11:58:48Z</time>
      </trkpt>
      <trkpt lat="48.15036" lon="-3.70384">
        <ele>263</ele>
        <time>2022-12-08T11:58:49Z</time>
      </trkpt>
      <trkpt lat="48.15037" lon="-3.70378">
        <ele>262.9</ele>
        <time>2022-12-08T11:58:50Z</time>
      </trkpt>
      <trkpt lat="48.15038" lon="-3.70371">
        <ele>262.9</ele>
        <time>2022-12-08T11:58:52Z</time>
      </trkpt>
      <trkpt lat="48.1504" lon="-3.70363">
        <ele>262.9</ele>
        <time>2022-12-08T11:58:53Z</time>
      </trkpt>
      <trkpt lat="48.15041" lon="-3.70358">
        <ele>262.9</ele>
        <time>2022-12-08T11:58:54Z</time>
      </trkpt>
      <trkpt lat="48.15042" lon="-3.70351">
        <ele>262.8</ele>
        <time>2022-12-08T11:58:56Z</time>
      </trkpt>
      <trkpt lat="48.15043" lon="-3.70346">
        <ele>262.8</ele>
        <time>2022-12-08T11:58:57Z</time>
      </trkpt>
      <trkpt lat="48.15044" lon="-3.7034">
        <ele>262.7</ele>
        <time>2022-12-08T11:58:58Z</time>
      </trkpt>
      <trkpt lat="48.15045" lon="-3.70332">
        <ele>262.6</ele>
        <time>2022-12-08T11:59:00Z</time>
      </trkpt>
      <trkpt lat="48.15046" lon="-3.70326">
        <ele>262.5</ele>
        <time>2022-12-08T11:59:01Z</time>
      </trkpt>
      <trkpt lat="48.15046" lon="-3.70325">
        <ele>262.5</ele>
        <time>2022-12-08T11:59:02Z</time>
      </trkpt>
      <trkpt lat="48.15047" lon="-3.70318">
        <ele>262.4</ele>
        <time>2022-12-08T11:59:03Z</time>
      </trkpt>
      <trkpt lat="48.15048" lon="-3.70313">
        <ele>262.4</ele>
        <time>2022-12-08T11:59:04Z</time>
      </trkpt>
      <trkpt lat="48.1505" lon="-3.70309">
        <ele>262.3</ele>
        <time>2022-12-08T11:59:05Z</time>
      </trkpt>
      <trkpt lat="48.15052" lon="-3.70305">
        <ele>262.3</ele>
        <time>2022-12-08T11:59:06Z</time>
      </trkpt>
      <trkpt lat="48.15053" lon="-3.70302">
        <ele>262.2</ele>
        <time>2022-12-08T11:59:07Z</time>
      </trkpt>
      <trkpt lat="48.15056" lon="-3.70292">
        <ele>262.1</ele>
        <time>2022-12-08T11:59:09Z</time>
      </trkpt>
      <trkpt lat="48.15058" lon="-3.70287">
        <ele>262</ele>
        <time>2022-12-08T11:59:10Z</time>
      </trkpt>
      <trkpt lat="48.1506" lon="-3.70278">
        <ele>261.8</ele>
        <time>2022-12-08T11:59:11Z</time>
      </trkpt>
      <trkpt lat="48.15061" lon="-3.70273">
        <ele>261.7</ele>
        <time>2022-12-08T11:59:12Z</time>
      </trkpt>
      <trkpt lat="48.15061" lon="-3.70268">
        <ele>261.5</ele>
        <time>2022-12-08T11:59:13Z</time>
      </trkpt>
      <trkpt lat="48.15062" lon="-3.70263">
        <ele>261.4</ele>
        <time>2022-12-08T11:59:14Z</time>
      </trkpt>
      <trkpt lat="48.15063" lon="-3.70258">
        <ele>261.3</ele>
        <time>2022-12-08T11:59:15Z</time>
      </trkpt>
      <trkpt lat="48.15065" lon="-3.70251">
        <ele>261.2</ele>
        <time>2022-12-08T11:59:17Z</time>
      </trkpt>
      <trkpt lat="48.15066" lon="-3.70246">
        <ele>261.1</ele>
        <time>2022-12-08T11:59:18Z</time>
      </trkpt>
      <trkpt lat="48.15068" lon="-3.70242">
        <ele>261</ele>
        <time>2022-12-08T11:59:19Z</time>
      </trkpt>
      <trkpt lat="48.1507" lon="-3.70237">
        <ele>261</ele>
        <time>2022-12-08T11:59:21Z</time>
      </trkpt>
      <trkpt lat="48.15072" lon="-3.70231">
        <ele>260.9</ele>
        <time>2022-12-08T11:59:22Z</time>
      </trkpt>
      <trkpt lat="48.15072" lon="-3.70225">
        <ele>260.8</ele>
        <time>2022-12-08T11:59:23Z</time>
      </trkpt>
      <trkpt lat="48.15073" lon="-3.70222">
        <ele>260.7</ele>
        <time>2022-12-08T11:59:24Z</time>
      </trkpt>
      <trkpt lat="48.15073" lon="-3.7022">
        <ele>260.7</ele>
        <time>2022-12-08T11:59:25Z</time>
      </trkpt>
      <trkpt lat="48.15075" lon="-3.70215">
        <ele>260.6</ele>
        <time>2022-12-08T11:59:26Z</time>
      </trkpt>
      <trkpt lat="48.15076" lon="-3.70212">
        <ele>260.6</ele>
        <time>2022-12-08T11:59:27Z</time>
      </trkpt>
      <trkpt lat="48.15077" lon="-3.70208">
        <ele>260.5</ele>
        <time>2022-12-08T11:59:28Z</time>
      </trkpt>
      <trkpt lat="48.15078" lon="-3.70204">
        <ele>260.5</ele>
        <time>2022-12-08T11:59:29Z</time>
      </trkpt>
      <trkpt lat="48.15078" lon="-3.70199">
        <ele>260.4</ele>
        <time>2022-12-08T11:59:30Z</time>
      </trkpt>
      <trkpt lat="48.15079" lon="-3.70194">
        <ele>260.4</ele>
        <time>2022-12-08T11:59:31Z</time>
      </trkpt>
      <trkpt lat="48.15081" lon="-3.70189">
        <ele>260.4</ele>
        <time>2022-12-08T11:59:32Z</time>
      </trkpt>
      <trkpt lat="48.15083" lon="-3.70185">
        <ele>260.4</ele>
        <time>2022-12-08T11:59:33Z</time>
      </trkpt>
      <trkpt lat="48.15085" lon="-3.7018">
        <ele>260.4</ele>
        <time>2022-12-08T11:59:34Z</time>
      </trkpt>
      <trkpt lat="48.15086" lon="-3.70173">
        <ele>260.4</ele>
        <time>2022-12-08T11:59:36Z</time>
      </trkpt>
      <trkpt lat="48.15085" lon="-3.70168">
        <ele>260.4</ele>
        <time>2022-12-08T11:59:37Z</time>
      </trkpt>
      <trkpt lat="48.15084" lon="-3.70162">
        <ele>260.4</ele>
        <time>2022-12-08T11:59:38Z</time>
      </trkpt>
      <trkpt lat="48.15082" lon="-3.70157">
        <ele>260.4</ele>
        <time>2022-12-08T11:59:39Z</time>
      </trkpt>
      <trkpt lat="48.15082" lon="-3.70154">
        <ele>260.4</ele>
        <time>2022-12-08T11:59:40Z</time>
      </trkpt>
      <trkpt lat="48.15083" lon="-3.70149">
        <ele>260.4</ele>
        <time>2022-12-08T11:59:41Z</time>
      </trkpt>
      <trkpt lat="48.15084" lon="-3.70147">
        <ele>260.4</ele>
        <time>2022-12-08T11:59:42Z</time>
      </trkpt>
      <trkpt lat="48.15085" lon="-3.70144">
        <ele>260.3</ele>
        <time>2022-12-08T11:59:43Z</time>
      </trkpt>
      <trkpt lat="48.15087" lon="-3.70139">
        <ele>260.3</ele>
        <time>2022-12-08T11:59:44Z</time>
      </trkpt>
      <trkpt lat="48.15087" lon="-3.70138">
        <ele>260.3</ele>
        <time>2022-12-08T11:59:45Z</time>
      </trkpt>
      <trkpt lat="48.15088" lon="-3.70132">
        <ele>260.2</ele>
        <time>2022-12-08T11:59:47Z</time>
      </trkpt>
      <trkpt lat="48.15089" lon="-3.70127">
        <ele>260.1</ele>
        <time>2022-12-08T11:59:48Z</time>
      </trkpt>
      <trkpt lat="48.1509" lon="-3.70122">
        <ele>260.1</ele>
        <time>2022-12-08T11:59:49Z</time>
      </trkpt>
      <trkpt lat="48.15091" lon="-3.70116">
        <ele>259.9</ele>
        <time>2022-12-08T11:59:51Z</time>
      </trkpt>
      <trkpt lat="48.15092" lon="-3.70113">
        <ele>259.9</ele>
        <time>2022-12-08T11:59:52Z</time>
      </trkpt>
      <trkpt lat="48.15092" lon="-3.70108">
        <ele>259.8</ele>
        <time>2022-12-08T11:59:53Z</time>
      </trkpt>
      <trkpt lat="48.15093" lon="-3.70104">
        <ele>259.7</ele>
        <time>2022-12-08T11:59:54Z</time>
      </trkpt>
      <trkpt lat="48.15095" lon="-3.701">
        <ele>259.5</ele>
        <time>2022-12-08T11:59:55Z</time>
      </trkpt>
      <trkpt lat="48.15097" lon="-3.70096">
        <ele>259.4</ele>
        <time>2022-12-08T11:59:56Z</time>
      </trkpt>
      <trkpt lat="48.15099" lon="-3.70087">
        <ele>259.1</ele>
        <time>2022-12-08T11:59:58Z</time>
      </trkpt>
      <trkpt lat="48.15101" lon="-3.70083">
        <ele>258.9</ele>
        <time>2022-12-08T11:59:59Z</time>
      </trkpt>
      <trkpt lat="48.15104" lon="-3.70082">
        <ele>258.7</ele>
        <time>2022-12-08T12:00:00Z</time>
      </trkpt>
      <trkpt lat="48.15109" lon="-3.70084">
        <ele>258.6</ele>
        <time>2022-12-08T12:00:01Z</time>
      </trkpt>
      <trkpt lat="48.15112" lon="-3.70084">
        <ele>258.4</ele>
        <time>2022-12-08T12:00:02Z</time>
      </trkpt>
      <trkpt lat="48.15117" lon="-3.70078">
        <ele>258.3</ele>
        <time>2022-12-08T12:00:04Z</time>
      </trkpt>
      <trkpt lat="48.15119" lon="-3.70074">
        <ele>258.3</ele>
        <time>2022-12-08T12:00:05Z</time>
      </trkpt>
      <trkpt lat="48.1512" lon="-3.70069">
        <ele>258.3</ele>
        <time>2022-12-08T12:00:06Z</time>
      </trkpt>
      <trkpt lat="48.15121" lon="-3.70064">
        <ele>258.2</ele>
        <time>2022-12-08T12:00:07Z</time>
      </trkpt>
      <trkpt lat="48.15121" lon="-3.70062">
        <ele>258.2</ele>
        <time>2022-12-08T12:00:08Z</time>
      </trkpt>
      <trkpt lat="48.15123" lon="-3.70055">
        <ele>258.1</ele>
        <time>2022-12-08T12:00:09Z</time>
      </trkpt>
      <trkpt lat="48.15126" lon="-3.7005">
        <ele>258.1</ele>
        <time>2022-12-08T12:00:11Z</time>
      </trkpt>
      <trkpt lat="48.15128" lon="-3.70045">
        <ele>258.1</ele>
        <time>2022-12-08T12:00:12Z</time>
      </trkpt>
      <trkpt lat="48.1513" lon="-3.70042">
        <ele>258.1</ele>
        <time>2022-12-08T12:00:13Z</time>
      </trkpt>
      <trkpt lat="48.15132" lon="-3.70038">
        <ele>258.1</ele>
        <time>2022-12-08T12:00:14Z</time>
      </trkpt>
      <trkpt lat="48.15134" lon="-3.70034">
        <ele>258.1</ele>
        <time>2022-12-08T12:00:15Z</time>
      </trkpt>
      <trkpt lat="48.15135" lon="-3.70029">
        <ele>258.2</ele>
        <time>2022-12-08T12:00:16Z</time>
      </trkpt>
      <trkpt lat="48.15135" lon="-3.70025">
        <ele>258.2</ele>
        <time>2022-12-08T12:00:17Z</time>
      </trkpt>
      <trkpt lat="48.15136" lon="-3.70021">
        <ele>258.2</ele>
        <time>2022-12-08T12:00:18Z</time>
      </trkpt>
      <trkpt lat="48.15138" lon="-3.70016">
        <ele>258.2</ele>
        <time>2022-12-08T12:00:19Z</time>
      </trkpt>
      <trkpt lat="48.15139" lon="-3.70012">
        <ele>258.3</ele>
        <time>2022-12-08T12:00:20Z</time>
      </trkpt>
      <trkpt lat="48.15141" lon="-3.70007">
        <ele>258.3</ele>
        <time>2022-12-08T12:00:21Z</time>
      </trkpt>
      <trkpt lat="48.15142" lon="-3.70005">
        <ele>258.3</ele>
        <time>2022-12-08T12:00:22Z</time>
      </trkpt>
      <trkpt lat="48.15143" lon="-3.7">
        <ele>258.4</ele>
        <time>2022-12-08T12:00:23Z</time>
      </trkpt>
      <trkpt lat="48.15144" lon="-3.69999">
        <ele>258.4</ele>
        <time>2022-12-08T12:00:24Z</time>
      </trkpt>
      <trkpt lat="48.15144" lon="-3.69996">
        <ele>258.4</ele>
        <time>2022-12-08T12:00:25Z</time>
      </trkpt>
      <trkpt lat="48.15147" lon="-3.69987">
        <ele>258.6</ele>
        <time>2022-12-08T12:00:27Z</time>
      </trkpt>
      <trkpt lat="48.15149" lon="-3.69982">
        <ele>258.6</ele>
        <time>2022-12-08T12:00:28Z</time>
      </trkpt>
      <trkpt lat="48.15151" lon="-3.69978">
        <ele>258.7</ele>
        <time>2022-12-08T12:00:29Z</time>
      </trkpt>
      <trkpt lat="48.15153" lon="-3.69972">
        <ele>258.7</ele>
        <time>2022-12-08T12:00:31Z</time>
      </trkpt>
      <trkpt lat="48.15155" lon="-3.69968">
        <ele>258.8</ele>
        <time>2022-12-08T12:00:32Z</time>
      </trkpt>
      <trkpt lat="48.15158" lon="-3.6996">
        <ele>258.7</ele>
        <time>2022-12-08T12:00:33Z</time>
      </trkpt>
      <trkpt lat="48.15158" lon="-3.69956">
        <ele>258.7</ele>
        <time>2022-12-08T12:00:34Z</time>
      </trkpt>
      <trkpt lat="48.1516" lon="-3.69951">
        <ele>258.7</ele>
        <time>2022-12-08T12:00:35Z</time>
      </trkpt>
      <trkpt lat="48.15161" lon="-3.69947">
        <ele>258.6</ele>
        <time>2022-12-08T12:00:36Z</time>
      </trkpt>
      <trkpt lat="48.15163" lon="-3.69943">
        <ele>258.5</ele>
        <time>2022-12-08T12:00:37Z</time>
      </trkpt>
      <trkpt lat="48.15165" lon="-3.69937">
        <ele>258.5</ele>
        <time>2022-12-08T12:00:38Z</time>
      </trkpt>
      <trkpt lat="48.15166" lon="-3.69933">
        <ele>258.4</ele>
        <time>2022-12-08T12:00:39Z</time>
      </trkpt>
      <trkpt lat="48.15167" lon="-3.69929">
        <ele>258.3</ele>
        <time>2022-12-08T12:00:40Z</time>
      </trkpt>
      <trkpt lat="48.15168" lon="-3.69921">
        <ele>258.2</ele>
        <time>2022-12-08T12:00:42Z</time>
      </trkpt>
      <trkpt lat="48.15169" lon="-3.69915">
        <ele>258.1</ele>
        <time>2022-12-08T12:00:43Z</time>
      </trkpt>
      <trkpt lat="48.1517" lon="-3.6991">
        <ele>258.1</ele>
        <time>2022-12-08T12:00:44Z</time>
      </trkpt>
      <trkpt lat="48.1517" lon="-3.69906">
        <ele>258</ele>
        <time>2022-12-08T12:00:45Z</time>
      </trkpt>
      <trkpt lat="48.15171" lon="-3.69905">
        <ele>258</ele>
        <time>2022-12-08T12:00:46Z</time>
      </trkpt>
      <trkpt lat="48.15171" lon="-3.69899">
        <ele>257.9</ele>
        <time>2022-12-08T12:00:47Z</time>
      </trkpt>
      <trkpt lat="48.15172" lon="-3.69893">
        <ele>257.8</ele>
        <time>2022-12-08T12:00:48Z</time>
      </trkpt>
      <trkpt lat="48.15173" lon="-3.69885">
        <ele>257.7</ele>
        <time>2022-12-08T12:00:50Z</time>
      </trkpt>
      <trkpt lat="48.15174" lon="-3.69878">
        <ele>257.6</ele>
        <time>2022-12-08T12:00:51Z</time>
      </trkpt>
      <trkpt lat="48.15175" lon="-3.69874">
        <ele>257.6</ele>
        <time>2022-12-08T12:00:52Z</time>
      </trkpt>
      <trkpt lat="48.15176" lon="-3.69868">
        <ele>257.5</ele>
        <time>2022-12-08T12:00:53Z</time>
      </trkpt>
      <trkpt lat="48.15177" lon="-3.69863">
        <ele>257.4</ele>
        <time>2022-12-08T12:00:54Z</time>
      </trkpt>
      <trkpt lat="48.15178" lon="-3.6986">
        <ele>257.4</ele>
        <time>2022-12-08T12:00:55Z</time>
      </trkpt>
      <trkpt lat="48.15178" lon="-3.69854">
        <ele>257.3</ele>
        <time>2022-12-08T12:00:56Z</time>
      </trkpt>
      <trkpt lat="48.15178" lon="-3.69848">
        <ele>257.2</ele>
        <time>2022-12-08T12:00:57Z</time>
      </trkpt>
      <trkpt lat="48.15179" lon="-3.69846">
        <ele>257.1</ele>
        <time>2022-12-08T12:00:58Z</time>
      </trkpt>
      <trkpt lat="48.15181" lon="-3.69841">
        <ele>257</ele>
        <time>2022-12-08T12:00:59Z</time>
      </trkpt>
      <trkpt lat="48.15182" lon="-3.69835">
        <ele>257</ele>
        <time>2022-12-08T12:01:00Z</time>
      </trkpt>
      <trkpt lat="48.15183" lon="-3.69834">
        <ele>256.9</ele>
        <time>2022-12-08T12:01:01Z</time>
      </trkpt>
      <trkpt lat="48.15184" lon="-3.6983">
        <ele>256.9</ele>
        <time>2022-12-08T12:01:02Z</time>
      </trkpt>
      <trkpt lat="48.15184" lon="-3.69828">
        <ele>256.9</ele>
        <time>2022-12-08T12:01:03Z</time>
      </trkpt>
      <trkpt lat="48.15185" lon="-3.69823">
        <ele>256.8</ele>
        <time>2022-12-08T12:01:04Z</time>
      </trkpt>
      <trkpt lat="48.15185" lon="-3.69821">
        <ele>256.8</ele>
        <time>2022-12-08T12:01:05Z</time>
      </trkpt>
      <trkpt lat="48.15185" lon="-3.69817">
        <ele>256.7</ele>
        <time>2022-12-08T12:01:06Z</time>
      </trkpt>
      <trkpt lat="48.15186" lon="-3.69814">
        <ele>256.7</ele>
        <time>2022-12-08T12:01:07Z</time>
      </trkpt>
      <trkpt lat="48.15185" lon="-3.69812">
        <ele>256.7</ele>
        <time>2022-12-08T12:01:08Z</time>
      </trkpt>
      <trkpt lat="48.15185" lon="-3.69808">
        <ele>256.7</ele>
        <time>2022-12-08T12:01:09Z</time>
      </trkpt>
      <trkpt lat="48.15185" lon="-3.69806">
        <ele>256.7</ele>
        <time>2022-12-08T12:01:10Z</time>
      </trkpt>
      <trkpt lat="48.15185" lon="-3.698">
        <ele>256.6</ele>
        <time>2022-12-08T12:01:11Z</time>
      </trkpt>
      <trkpt lat="48.15185" lon="-3.69799">
        <ele>256.6</ele>
        <time>2022-12-08T12:01:12Z</time>
      </trkpt>
      <trkpt lat="48.15185" lon="-3.69795">
        <ele>256.6</ele>
        <time>2022-12-08T12:01:13Z</time>
      </trkpt>
      <trkpt lat="48.15184" lon="-3.69791">
        <ele>256.6</ele>
        <time>2022-12-08T12:01:14Z</time>
      </trkpt>
      <trkpt lat="48.1518" lon="-3.69788">
        <ele>256.6</ele>
        <time>2022-12-08T12:01:15Z</time>
      </trkpt>
      <trkpt lat="48.15179" lon="-3.69788">
        <ele>256.6</ele>
        <time>2022-12-08T12:01:16Z</time>
      </trkpt>
      <trkpt lat="48.15177" lon="-3.6979">
        <ele>256.6</ele>
        <time>2022-12-08T12:01:17Z</time>
      </trkpt>
      <trkpt lat="48.15174" lon="-3.69791">
        <ele>256.6</ele>
        <time>2022-12-08T12:01:18Z</time>
      </trkpt>
      <trkpt lat="48.15173" lon="-3.69791">
        <ele>256.6</ele>
        <time>2022-12-08T12:01:19Z</time>
      </trkpt>
      <trkpt lat="48.15171" lon="-3.69791">
        <ele>256.7</ele>
        <time>2022-12-08T12:01:20Z</time>
      </trkpt>
      <trkpt lat="48.15169" lon="-3.69789">
        <ele>256.7</ele>
        <time>2022-12-08T12:01:22Z</time>
      </trkpt>
      <trkpt lat="48.15166" lon="-3.69784">
        <ele>256.7</ele>
        <time>2022-12-08T12:01:23Z</time>
      </trkpt>
      <trkpt lat="48.15164" lon="-3.69781">
        <ele>256.8</ele>
        <time>2022-12-08T12:01:24Z</time>
      </trkpt>
      <trkpt lat="48.1516" lon="-3.69779">
        <ele>256.8</ele>
        <time>2022-12-08T12:01:26Z</time>
      </trkpt>
      <trkpt lat="48.15156" lon="-3.69776">
        <ele>256.8</ele>
        <time>2022-12-08T12:01:27Z</time>
      </trkpt>
      <trkpt lat="48.15152" lon="-3.69774">
        <ele>256.8</ele>
        <time>2022-12-08T12:01:28Z</time>
      </trkpt>
      <trkpt lat="48.15148" lon="-3.69772">
        <ele>256.8</ele>
        <time>2022-12-08T12:01:30Z</time>
      </trkpt>
      <trkpt lat="48.15144" lon="-3.6977">
        <ele>256.9</ele>
        <time>2022-12-08T12:01:31Z</time>
      </trkpt>
      <trkpt lat="48.15142" lon="-3.6977">
        <ele>256.9</ele>
        <time>2022-12-08T12:01:32Z</time>
      </trkpt>
      <trkpt lat="48.15139" lon="-3.69767">
        <ele>257</ele>
        <time>2022-12-08T12:01:34Z</time>
      </trkpt>
      <trkpt lat="48.15134" lon="-3.69766">
        <ele>257.1</ele>
        <time>2022-12-08T12:01:35Z</time>
      </trkpt>
      <trkpt lat="48.15132" lon="-3.69765">
        <ele>257.1</ele>
        <time>2022-12-08T12:01:36Z</time>
      </trkpt>
      <trkpt lat="48.1513" lon="-3.69763">
        <ele>257.2</ele>
        <time>2022-12-08T12:01:37Z</time>
      </trkpt>
      <trkpt lat="48.15126" lon="-3.69762">
        <ele>257.3</ele>
        <time>2022-12-08T12:01:39Z</time>
      </trkpt>
      <trkpt lat="48.15124" lon="-3.69761">
        <ele>257.3</ele>
        <time>2022-12-08T12:01:40Z</time>
      </trkpt>
      <trkpt lat="48.15121" lon="-3.6976">
        <ele>257.4</ele>
        <time>2022-12-08T12:01:41Z</time>
      </trkpt>
      <trkpt lat="48.1512" lon="-3.6976">
        <ele>257.4</ele>
        <time>2022-12-08T12:01:42Z</time>
      </trkpt>
      <trkpt lat="48.15116" lon="-3.69758">
        <ele>257.4</ele>
        <time>2022-12-08T12:01:43Z</time>
      </trkpt>
      <trkpt lat="48.15112" lon="-3.69757">
        <ele>257.5</ele>
        <time>2022-12-08T12:01:44Z</time>
      </trkpt>
      <trkpt lat="48.1511" lon="-3.69756">
        <ele>257.5</ele>
        <time>2022-12-08T12:01:45Z</time>
      </trkpt>
      <trkpt lat="48.15106" lon="-3.69754">
        <ele>257.6</ele>
        <time>2022-12-08T12:01:47Z</time>
      </trkpt>
      <trkpt lat="48.15105" lon="-3.69754">
        <ele>257.6</ele>
        <time>2022-12-08T12:01:48Z</time>
      </trkpt>
      <trkpt lat="48.15103" lon="-3.69753">
        <ele>257.6</ele>
        <time>2022-12-08T12:01:49Z</time>
      </trkpt>
      <trkpt lat="48.15099" lon="-3.69751">
        <ele>257.6</ele>
        <time>2022-12-08T12:01:50Z</time>
      </trkpt>
      <trkpt lat="48.15096" lon="-3.6975">
        <ele>257.6</ele>
        <time>2022-12-08T12:01:51Z</time>
      </trkpt>
      <trkpt lat="48.15094" lon="-3.6975">
        <ele>257.6</ele>
        <time>2022-12-08T12:01:52Z</time>
      </trkpt>
      <trkpt lat="48.1509" lon="-3.69748">
        <ele>257.5</ele>
        <time>2022-12-08T12:01:53Z</time>
      </trkpt>
      <trkpt lat="48.15089" lon="-3.69748">
        <ele>257.5</ele>
        <time>2022-12-08T12:01:54Z</time>
      </trkpt>
      <trkpt lat="48.15085" lon="-3.69747">
        <ele>257.4</ele>
        <time>2022-12-08T12:01:56Z</time>
      </trkpt>
      <trkpt lat="48.15084" lon="-3.69746">
        <ele>257.4</ele>
        <time>2022-12-08T12:01:57Z</time>
      </trkpt>
      <trkpt lat="48.15082" lon="-3.69745">
        <ele>257.4</ele>
        <time>2022-12-08T12:01:58Z</time>
      </trkpt>
      <trkpt lat="48.15081" lon="-3.69745">
        <ele>257.4</ele>
        <time>2022-12-08T12:01:59Z</time>
      </trkpt>
      <trkpt lat="48.15079" lon="-3.69745">
        <ele>257.3</ele>
        <time>2022-12-08T12:02:00Z</time>
      </trkpt>
      <trkpt lat="48.15078" lon="-3.69745">
        <ele>257.3</ele>
        <time>2022-12-08T12:02:01Z</time>
      </trkpt>
      <trkpt lat="48.15077" lon="-3.69743">
        <ele>257.3</ele>
        <time>2022-12-08T12:02:02Z</time>
      </trkpt>
      <trkpt lat="48.15076" lon="-3.69739">
        <ele>257</ele>
        <time>2022-12-08T12:02:03Z</time>
      </trkpt>
      <trkpt lat="48.15077" lon="-3.69737">
        <ele>256.9</ele>
        <time>2022-12-08T12:02:04Z</time>
      </trkpt>
      <trkpt lat="48.15079" lon="-3.69732">
        <ele>256.6</ele>
        <time>2022-12-08T12:02:05Z</time>
      </trkpt>
      <trkpt lat="48.15079" lon="-3.6973">
        <ele>256.5</ele>
        <time>2022-12-08T12:02:06Z</time>
      </trkpt>
      <trkpt lat="48.15081" lon="-3.69726">
        <ele>256.3</ele>
        <time>2022-12-08T12:02:07Z</time>
      </trkpt>
      <trkpt lat="48.15082" lon="-3.69721">
        <ele>256</ele>
        <time>2022-12-08T12:02:08Z</time>
      </trkpt>
      <trkpt lat="48.15083" lon="-3.69717">
        <ele>255.8</ele>
        <time>2022-12-08T12:02:09Z</time>
      </trkpt>
      <trkpt lat="48.15084" lon="-3.69713">
        <ele>255.5</ele>
        <time>2022-12-08T12:02:10Z</time>
      </trkpt>
      <trkpt lat="48.15086" lon="-3.69705">
        <ele>255.1</ele>
        <time>2022-12-08T12:02:12Z</time>
      </trkpt>
      <trkpt lat="48.15087" lon="-3.69699">
        <ele>254.8</ele>
        <time>2022-12-08T12:02:13Z</time>
      </trkpt>
      <trkpt lat="48.15089" lon="-3.69693">
        <ele>254.5</ele>
        <time>2022-12-08T12:02:14Z</time>
      </trkpt>
      <trkpt lat="48.15091" lon="-3.69687">
        <ele>254.2</ele>
        <time>2022-12-08T12:02:15Z</time>
      </trkpt>
      <trkpt lat="48.15093" lon="-3.69681">
        <ele>254</ele>
        <time>2022-12-08T12:02:16Z</time>
      </trkpt>
      <trkpt lat="48.15095" lon="-3.69673">
        <ele>253.6</ele>
        <time>2022-12-08T12:02:18Z</time>
      </trkpt>
      <trkpt lat="48.15097" lon="-3.69666">
        <ele>253.3</ele>
        <time>2022-12-08T12:02:19Z</time>
      </trkpt>
      <trkpt lat="48.151" lon="-3.69658">
        <ele>252.9</ele>
        <time>2022-12-08T12:02:20Z</time>
      </trkpt>
      <trkpt lat="48.15102" lon="-3.69652">
        <ele>252.7</ele>
        <time>2022-12-08T12:02:21Z</time>
      </trkpt>
      <trkpt lat="48.15103" lon="-3.69647">
        <ele>252.6</ele>
        <time>2022-12-08T12:02:22Z</time>
      </trkpt>
      <trkpt lat="48.15104" lon="-3.69643">
        <ele>252.5</ele>
        <time>2022-12-08T12:02:23Z</time>
      </trkpt>
      <trkpt lat="48.15106" lon="-3.69634">
        <ele>252.4</ele>
        <time>2022-12-08T12:02:25Z</time>
      </trkpt>
      <trkpt lat="48.15108" lon="-3.69626">
        <ele>252.2</ele>
        <time>2022-12-08T12:02:26Z</time>
      </trkpt>
      <trkpt lat="48.15109" lon="-3.6962">
        <ele>252.1</ele>
        <time>2022-12-08T12:02:27Z</time>
      </trkpt>
      <trkpt lat="48.15111" lon="-3.69611">
        <ele>252</ele>
        <time>2022-12-08T12:02:29Z</time>
      </trkpt>
      <trkpt lat="48.15113" lon="-3.69603">
        <ele>251.8</ele>
        <time>2022-12-08T12:02:30Z</time>
      </trkpt>
      <trkpt lat="48.15113" lon="-3.69598">
        <ele>251.7</ele>
        <time>2022-12-08T12:02:31Z</time>
      </trkpt>
      <trkpt lat="48.15114" lon="-3.69594">
        <ele>251.5</ele>
        <time>2022-12-08T12:02:32Z</time>
      </trkpt>
      <trkpt lat="48.15115" lon="-3.69588">
        <ele>251.4</ele>
        <time>2022-12-08T12:02:33Z</time>
      </trkpt>
      <trkpt lat="48.15116" lon="-3.69581">
        <ele>251.2</ele>
        <time>2022-12-08T12:02:34Z</time>
      </trkpt>
      <trkpt lat="48.15117" lon="-3.69575">
        <ele>251</ele>
        <time>2022-12-08T12:02:35Z</time>
      </trkpt>
      <trkpt lat="48.15119" lon="-3.69569">
        <ele>250.7</ele>
        <time>2022-12-08T12:02:36Z</time>
      </trkpt>
      <trkpt lat="48.1512" lon="-3.69563">
        <ele>250.5</ele>
        <time>2022-12-08T12:02:37Z</time>
      </trkpt>
      <trkpt lat="48.15122" lon="-3.69556">
        <ele>250.3</ele>
        <time>2022-12-08T12:02:38Z</time>
      </trkpt>
      <trkpt lat="48.15123" lon="-3.69548">
        <ele>250</ele>
        <time>2022-12-08T12:02:40Z</time>
      </trkpt>
      <trkpt lat="48.15124" lon="-3.69541">
        <ele>249.8</ele>
        <time>2022-12-08T12:02:41Z</time>
      </trkpt>
      <trkpt lat="48.15124" lon="-3.69536">
        <ele>249.6</ele>
        <time>2022-12-08T12:02:42Z</time>
      </trkpt>
      <trkpt lat="48.15126" lon="-3.6953">
        <ele>249.4</ele>
        <time>2022-12-08T12:02:43Z</time>
      </trkpt>
      <trkpt lat="48.15128" lon="-3.69521">
        <ele>249.2</ele>
        <time>2022-12-08T12:02:45Z</time>
      </trkpt>
      <trkpt lat="48.15129" lon="-3.69516">
        <ele>249.1</ele>
        <time>2022-12-08T12:02:46Z</time>
      </trkpt>
      <trkpt lat="48.15131" lon="-3.69508">
        <ele>248.9</ele>
        <time>2022-12-08T12:02:47Z</time>
      </trkpt>
      <trkpt lat="48.15132" lon="-3.69503">
        <ele>248.7</ele>
        <time>2022-12-08T12:02:48Z</time>
      </trkpt>
      <trkpt lat="48.15133" lon="-3.69499">
        <ele>248.6</ele>
        <time>2022-12-08T12:02:49Z</time>
      </trkpt>
      <trkpt lat="48.15135" lon="-3.69496">
        <ele>248.6</ele>
        <time>2022-12-08T12:02:50Z</time>
      </trkpt>
      <trkpt lat="48.15136" lon="-3.69494">
        <ele>248.6</ele>
        <time>2022-12-08T12:02:52Z</time>
      </trkpt>
      <trkpt lat="48.1514" lon="-3.69494">
        <ele>248.7</ele>
        <time>2022-12-08T12:02:53Z</time>
      </trkpt>
      <trkpt lat="48.15142" lon="-3.69494">
        <ele>248.7</ele>
        <time>2022-12-08T12:02:54Z</time>
      </trkpt>
      <trkpt lat="48.15146" lon="-3.69497">
        <ele>248.8</ele>
        <time>2022-12-08T12:02:55Z</time>
      </trkpt>
      <trkpt lat="48.15149" lon="-3.69499">
        <ele>248.8</ele>
        <time>2022-12-08T12:02:56Z</time>
      </trkpt>
      <trkpt lat="48.15153" lon="-3.69502">
        <ele>248.9</ele>
        <time>2022-12-08T12:02:57Z</time>
      </trkpt>
      <trkpt lat="48.15156" lon="-3.69506">
        <ele>249</ele>
        <time>2022-12-08T12:02:58Z</time>
      </trkpt>
      <trkpt lat="48.15159" lon="-3.6951">
        <ele>249</ele>
        <time>2022-12-08T12:02:59Z</time>
      </trkpt>
      <trkpt lat="48.15162" lon="-3.69514">
        <ele>249</ele>
        <time>2022-12-08T12:03:00Z</time>
      </trkpt>
      <trkpt lat="48.15165" lon="-3.69519">
        <ele>249.1</ele>
        <time>2022-12-08T12:03:01Z</time>
      </trkpt>
      <trkpt lat="48.15168" lon="-3.69523">
        <ele>249.1</ele>
        <time>2022-12-08T12:03:02Z</time>
      </trkpt>
      <trkpt lat="48.15171" lon="-3.69527">
        <ele>249.1</ele>
        <time>2022-12-08T12:03:03Z</time>
      </trkpt>
      <trkpt lat="48.15174" lon="-3.69532">
        <ele>249</ele>
        <time>2022-12-08T12:03:04Z</time>
      </trkpt>
      <trkpt lat="48.15178" lon="-3.69537">
        <ele>249</ele>
        <time>2022-12-08T12:03:05Z</time>
      </trkpt>
      <trkpt lat="48.15181" lon="-3.69542">
        <ele>249</ele>
        <time>2022-12-08T12:03:06Z</time>
      </trkpt>
      <trkpt lat="48.15184" lon="-3.69548">
        <ele>248.9</ele>
        <time>2022-12-08T12:03:07Z</time>
      </trkpt>
      <trkpt lat="48.15188" lon="-3.69553">
        <ele>248.8</ele>
        <time>2022-12-08T12:03:08Z</time>
      </trkpt>
      <trkpt lat="48.15191" lon="-3.69559">
        <ele>248.8</ele>
        <time>2022-12-08T12:03:09Z</time>
      </trkpt>
      <trkpt lat="48.15195" lon="-3.69566">
        <ele>248.6</ele>
        <time>2022-12-08T12:03:10Z</time>
      </trkpt>
      <trkpt lat="48.15199" lon="-3.69572">
        <ele>248.5</ele>
        <time>2022-12-08T12:03:11Z</time>
      </trkpt>
      <trkpt lat="48.15203" lon="-3.69578">
        <ele>248.4</ele>
        <time>2022-12-08T12:03:12Z</time>
      </trkpt>
      <trkpt lat="48.15206" lon="-3.69585">
        <ele>248.3</ele>
        <time>2022-12-08T12:03:13Z</time>
      </trkpt>
      <trkpt lat="48.1521" lon="-3.69591">
        <ele>248.1</ele>
        <time>2022-12-08T12:03:14Z</time>
      </trkpt>
      <trkpt lat="48.15214" lon="-3.69598">
        <ele>247.9</ele>
        <time>2022-12-08T12:03:15Z</time>
      </trkpt>
      <trkpt lat="48.15218" lon="-3.69604">
        <ele>247.7</ele>
        <time>2022-12-08T12:03:16Z</time>
      </trkpt>
      <trkpt lat="48.15222" lon="-3.69611">
        <ele>247.6</ele>
        <time>2022-12-08T12:03:17Z</time>
      </trkpt>
      <trkpt lat="48.15226" lon="-3.69617">
        <ele>247.4</ele>
        <time>2022-12-08T12:03:18Z</time>
      </trkpt>
      <trkpt lat="48.15231" lon="-3.69623">
        <ele>247.2</ele>
        <time>2022-12-08T12:03:19Z</time>
      </trkpt>
      <trkpt lat="48.15234" lon="-3.69628">
        <ele>247</ele>
        <time>2022-12-08T12:03:20Z</time>
      </trkpt>
      <trkpt lat="48.15236" lon="-3.69631">
        <ele>247</ele>
        <time>2022-12-08T12:03:21Z</time>
      </trkpt>
      <trkpt lat="48.15239" lon="-3.69631">
        <ele>247</ele>
        <time>2022-12-08T12:03:22Z</time>
      </trkpt>
      <trkpt lat="48.1524" lon="-3.6963">
        <ele>248.9</ele>
        <time>2022-12-08T12:03:23Z</time>
      </trkpt>
      <trkpt lat="48.15243" lon="-3.69627">
        <ele>249.3</ele>
        <time>2022-12-08T12:03:24Z</time>
      </trkpt>
      <trkpt lat="48.15244" lon="-3.69625">
        <ele>249.5</ele>
        <time>2022-12-08T12:03:25Z</time>
      </trkpt>
      <trkpt lat="48.15245" lon="-3.69621">
        <ele>249.8</ele>
        <time>2022-12-08T12:03:26Z</time>
      </trkpt>
      <trkpt lat="48.15246" lon="-3.69619">
        <ele>249.9</ele>
        <time>2022-12-08T12:03:27Z</time>
      </trkpt>
      <trkpt lat="48.15248" lon="-3.69613">
        <ele>250.3</ele>
        <time>2022-12-08T12:03:29Z</time>
      </trkpt>
      <trkpt lat="48.15247" lon="-3.69607">
        <ele>250.7</ele>
        <time>2022-12-08T12:03:30Z</time>
      </trkpt>
      <trkpt lat="48.15245" lon="-3.69599">
        <ele>251.2</ele>
        <time>2022-12-08T12:03:31Z</time>
      </trkpt>
      <trkpt lat="48.15243" lon="-3.69594">
        <ele>251.6</ele>
        <time>2022-12-08T12:03:32Z</time>
      </trkpt>
      <trkpt lat="48.15242" lon="-3.6959">
        <ele>252</ele>
        <time>2022-12-08T12:03:33Z</time>
      </trkpt>
      <trkpt lat="48.1524" lon="-3.69584">
        <ele>252</ele>
        <time>2022-12-08T12:03:34Z</time>
      </trkpt>
      <trkpt lat="48.15239" lon="-3.69579">
        <ele>252</ele>
        <time>2022-12-08T12:03:35Z</time>
      </trkpt>
      <trkpt lat="48.15239" lon="-3.69577">
        <ele>252</ele>
        <time>2022-12-08T12:03:36Z</time>
      </trkpt>
      <trkpt lat="48.15238" lon="-3.69572">
        <ele>251.9</ele>
        <time>2022-12-08T12:03:37Z</time>
      </trkpt>
      <trkpt lat="48.15236" lon="-3.69567">
        <ele>251.9</ele>
        <time>2022-12-08T12:03:38Z</time>
      </trkpt>
      <trkpt lat="48.15234" lon="-3.69564">
        <ele>251.8</ele>
        <time>2022-12-08T12:03:39Z</time>
      </trkpt>
      <trkpt lat="48.15233" lon="-3.69559">
        <ele>251.8</ele>
        <time>2022-12-08T12:03:40Z</time>
      </trkpt>
      <trkpt lat="48.15231" lon="-3.69555">
        <ele>251.7</ele>
        <time>2022-12-08T12:03:41Z</time>
      </trkpt>
      <trkpt lat="48.15229" lon="-3.69551">
        <ele>251.6</ele>
        <time>2022-12-08T12:03:42Z</time>
      </trkpt>
      <trkpt lat="48.15227" lon="-3.69547">
        <ele>251.6</ele>
        <time>2022-12-08T12:03:43Z</time>
      </trkpt>
      <trkpt lat="48.15226" lon="-3.69545">
        <ele>251.5</ele>
        <time>2022-12-08T12:03:44Z</time>
      </trkpt>
      <trkpt lat="48.15224" lon="-3.69541">
        <ele>251.5</ele>
        <time>2022-12-08T12:03:46Z</time>
      </trkpt>
      <trkpt lat="48.15222" lon="-3.69537">
        <ele>251.4</ele>
        <time>2022-12-08T12:03:47Z</time>
      </trkpt>
      <trkpt lat="48.15221" lon="-3.69532">
        <ele>251.3</ele>
        <time>2022-12-08T12:03:48Z</time>
      </trkpt>
      <trkpt lat="48.15219" lon="-3.69526">
        <ele>251.1</ele>
        <time>2022-12-08T12:03:49Z</time>
      </trkpt>
      <trkpt lat="48.15219" lon="-3.69521">
        <ele>251</ele>
        <time>2022-12-08T12:03:50Z</time>
      </trkpt>
      <trkpt lat="48.15219" lon="-3.69515">
        <ele>250.9</ele>
        <time>2022-12-08T12:03:52Z</time>
      </trkpt>
      <trkpt lat="48.15217" lon="-3.6951">
        <ele>250.7</ele>
        <time>2022-12-08T12:03:53Z</time>
      </trkpt>
      <trkpt lat="48.15217" lon="-3.69505">
        <ele>250.5</ele>
        <time>2022-12-08T12:03:54Z</time>
      </trkpt>
      <trkpt lat="48.15216" lon="-3.69499">
        <ele>250.3</ele>
        <time>2022-12-08T12:03:55Z</time>
      </trkpt>
      <trkpt lat="48.15215" lon="-3.69493">
        <ele>250.1</ele>
        <time>2022-12-08T12:03:56Z</time>
      </trkpt>
      <trkpt lat="48.15214" lon="-3.69487">
        <ele>249.9</ele>
        <time>2022-12-08T12:03:57Z</time>
      </trkpt>
      <trkpt lat="48.15212" lon="-3.6948">
        <ele>249.6</ele>
        <time>2022-12-08T12:03:59Z</time>
      </trkpt>
      <trkpt lat="48.15212" lon="-3.69475">
        <ele>249.4</ele>
        <time>2022-12-08T12:04:00Z</time>
      </trkpt>
      <trkpt lat="48.15211" lon="-3.69468">
        <ele>249.2</ele>
        <time>2022-12-08T12:04:01Z</time>
      </trkpt>
      <trkpt lat="48.1521" lon="-3.69462">
        <ele>248.9</ele>
        <time>2022-12-08T12:04:02Z</time>
      </trkpt>
      <trkpt lat="48.15208" lon="-3.69452">
        <ele>248.6</ele>
        <time>2022-12-08T12:04:03Z</time>
      </trkpt>
      <trkpt lat="48.15208" lon="-3.69447">
        <ele>248.4</ele>
        <time>2022-12-08T12:04:04Z</time>
      </trkpt>
      <trkpt lat="48.15205" lon="-3.69438">
        <ele>248.1</ele>
        <time>2022-12-08T12:04:06Z</time>
      </trkpt>
      <trkpt lat="48.15202" lon="-3.69429">
        <ele>247.7</ele>
        <time>2022-12-08T12:04:07Z</time>
      </trkpt>
      <trkpt lat="48.152" lon="-3.69423">
        <ele>247.5</ele>
        <time>2022-12-08T12:04:08Z</time>
      </trkpt>
      <trkpt lat="48.15197" lon="-3.69418">
        <ele>247.3</ele>
        <time>2022-12-08T12:04:09Z</time>
      </trkpt>
      <trkpt lat="48.15195" lon="-3.69414">
        <ele>247.1</ele>
        <time>2022-12-08T12:04:10Z</time>
      </trkpt>
      <trkpt lat="48.15194" lon="-3.69409">
        <ele>246.9</ele>
        <time>2022-12-08T12:04:11Z</time>
      </trkpt>
      <trkpt lat="48.15194" lon="-3.69408">
        <ele>246.9</ele>
        <time>2022-12-08T12:04:12Z</time>
      </trkpt>
      <trkpt lat="48.15193" lon="-3.69403">
        <ele>246.7</ele>
        <time>2022-12-08T12:04:13Z</time>
      </trkpt>
      <trkpt lat="48.15193" lon="-3.69401">
        <ele>246.6</ele>
        <time>2022-12-08T12:04:14Z</time>
      </trkpt>
      <trkpt lat="48.15191" lon="-3.69397">
        <ele>246.4</ele>
        <time>2022-12-08T12:04:15Z</time>
      </trkpt>
      <trkpt lat="48.1519" lon="-3.69391">
        <ele>246.2</ele>
        <time>2022-12-08T12:04:16Z</time>
      </trkpt>
      <trkpt lat="48.15189" lon="-3.69388">
        <ele>246.1</ele>
        <time>2022-12-08T12:04:17Z</time>
      </trkpt>
      <trkpt lat="48.15188" lon="-3.69382">
        <ele>245.8</ele>
        <time>2022-12-08T12:04:18Z</time>
      </trkpt>
      <trkpt lat="48.15187" lon="-3.69378">
        <ele>245.6</ele>
        <time>2022-12-08T12:04:19Z</time>
      </trkpt>
      <trkpt lat="48.15186" lon="-3.69374">
        <ele>245.4</ele>
        <time>2022-12-08T12:04:20Z</time>
      </trkpt>
      <trkpt lat="48.15184" lon="-3.69367">
        <ele>245.1</ele>
        <time>2022-12-08T12:04:21Z</time>
      </trkpt>
      <trkpt lat="48.15183" lon="-3.69363">
        <ele>244.9</ele>
        <time>2022-12-08T12:04:22Z</time>
      </trkpt>
      <trkpt lat="48.15182" lon="-3.69358">
        <ele>244.6</ele>
        <time>2022-12-08T12:04:23Z</time>
      </trkpt>
      <trkpt lat="48.15182" lon="-3.69352">
        <ele>244.4</ele>
        <time>2022-12-08T12:04:25Z</time>
      </trkpt>
      <trkpt lat="48.15181" lon="-3.69346">
        <ele>244</ele>
        <time>2022-12-08T12:04:26Z</time>
      </trkpt>
      <trkpt lat="48.1518" lon="-3.69342">
        <ele>243.8</ele>
        <time>2022-12-08T12:04:28Z</time>
      </trkpt>
      <trkpt lat="48.15179" lon="-3.69338">
        <ele>243.6</ele>
        <time>2022-12-08T12:04:29Z</time>
      </trkpt>
      <trkpt lat="48.15179" lon="-3.69333">
        <ele>243.5</ele>
        <time>2022-12-08T12:04:30Z</time>
      </trkpt>
      <trkpt lat="48.1518" lon="-3.69331">
        <ele>243.5</ele>
        <time>2022-12-08T12:04:31Z</time>
      </trkpt>
      <trkpt lat="48.1518" lon="-3.69324">
        <ele>243.4</ele>
        <time>2022-12-08T12:04:33Z</time>
      </trkpt>
      <trkpt lat="48.1518" lon="-3.69322">
        <ele>243.4</ele>
        <time>2022-12-08T12:04:34Z</time>
      </trkpt>
      <trkpt lat="48.1518" lon="-3.69323">
        <ele>243.4</ele>
        <time>2022-12-08T12:04:35Z</time>
      </trkpt>
      <trkpt lat="48.1518" lon="-3.69324">
        <ele>243.4</ele>
        <time>2022-12-08T12:04:36Z</time>
      </trkpt>
      <trkpt lat="48.1518" lon="-3.69324">
        <ele>243.4</ele>
        <time>2022-12-08T12:04:37Z</time>
      </trkpt>
      <trkpt lat="48.15179" lon="-3.69325">
        <ele>243.3</ele>
        <time>2022-12-08T12:04:38Z</time>
      </trkpt>
      <trkpt lat="48.15179" lon="-3.69325">
        <ele>243.3</ele>
        <time>2022-12-08T12:04:39Z</time>
      </trkpt>
      <trkpt lat="48.15179" lon="-3.69326">
        <ele>243.3</ele>
        <time>2022-12-08T12:04:40Z</time>
      </trkpt>
      <trkpt lat="48.15179" lon="-3.69326">
        <ele>243.3</ele>
        <time>2022-12-08T12:04:41Z</time>
      </trkpt>
      <trkpt lat="48.15178" lon="-3.69326">
        <ele>243.3</ele>
        <time>2022-12-08T12:04:42Z</time>
      </trkpt>
      <trkpt lat="48.15178" lon="-3.69326">
        <ele>243.3</ele>
        <time>2022-12-08T12:04:43Z</time>
      </trkpt>
      <trkpt lat="48.15178" lon="-3.69325">
        <ele>243.3</ele>
        <time>2022-12-08T12:04:44Z</time>
      </trkpt>
      <trkpt lat="48.15178" lon="-3.69325">
        <ele>243.3</ele>
        <time>2022-12-08T12:04:45Z</time>
      </trkpt>
      <trkpt lat="48.15179" lon="-3.69324">
        <ele>243.3</ele>
        <time>2022-12-08T12:04:46Z</time>
      </trkpt>
      <trkpt lat="48.15179" lon="-3.69324">
        <ele>243.3</ele>
        <time>2022-12-08T12:04:47Z</time>
      </trkpt>
      <trkpt lat="48.15179" lon="-3.69324">
        <ele>243.3</ele>
        <time>2022-12-08T12:04:48Z</time>
      </trkpt>
      <trkpt lat="48.15179" lon="-3.69324">
        <ele>243.3</ele>
        <time>2022-12-08T12:04:49Z</time>
      </trkpt>
      <trkpt lat="48.15179" lon="-3.69324">
        <ele>243.3</ele>
        <time>2022-12-08T12:04:50Z</time>
      </trkpt>
      <trkpt lat="48.15179" lon="-3.69324">
        <ele>243.3</ele>
        <time>2022-12-08T12:04:51Z</time>
      </trkpt>
      <trkpt lat="48.1518" lon="-3.69324">
        <ele>243.3</ele>
        <time>2022-12-08T12:04:52Z</time>
      </trkpt>
      <trkpt lat="48.1518" lon="-3.69324">
        <ele>243.3</ele>
        <time>2022-12-08T12:04:53Z</time>
      </trkpt>
      <trkpt lat="48.15181" lon="-3.69322">
        <ele>243.3</ele>
        <time>2022-12-08T12:04:54Z</time>
      </trkpt>
      <trkpt lat="48.15181" lon="-3.69321">
        <ele>243.2</ele>
        <time>2022-12-08T12:04:55Z</time>
      </trkpt>
      <trkpt lat="48.15182" lon="-3.69319">
        <ele>243.2</ele>
        <time>2022-12-08T12:04:56Z</time>
      </trkpt>
      <trkpt lat="48.15182" lon="-3.69317">
        <ele>243.2</ele>
        <time>2022-12-08T12:04:57Z</time>
      </trkpt>
      <trkpt lat="48.15182" lon="-3.69315">
        <ele>243.2</ele>
        <time>2022-12-08T12:04:58Z</time>
      </trkpt>
      <trkpt lat="48.15181" lon="-3.69314">
        <ele>243.2</ele>
        <time>2022-12-08T12:04:59Z</time>
      </trkpt>
      <trkpt lat="48.1518" lon="-3.69314">
        <ele>243.1</ele>
        <time>2022-12-08T12:05:00Z</time>
      </trkpt>
      <trkpt lat="48.15179" lon="-3.69314">
        <ele>243.1</ele>
        <time>2022-12-08T12:05:01Z</time>
      </trkpt>
      <trkpt lat="48.15178" lon="-3.69315">
        <ele>243.1</ele>
        <time>2022-12-08T12:05:02Z</time>
      </trkpt>
      <trkpt lat="48.15178" lon="-3.69314">
        <ele>243.1</ele>
        <time>2022-12-08T12:05:03Z</time>
      </trkpt>
      <trkpt lat="48.15178" lon="-3.69314">
        <ele>243.1</ele>
        <time>2022-12-08T12:05:04Z</time>
      </trkpt>
      <trkpt lat="48.15177" lon="-3.69314">
        <ele>243.1</ele>
        <time>2022-12-08T12:05:05Z</time>
      </trkpt>
      <trkpt lat="48.15177" lon="-3.69314">
        <ele>243.1</ele>
        <time>2022-12-08T12:05:06Z</time>
      </trkpt>
      <trkpt lat="48.15175" lon="-3.69314">
        <ele>243.1</ele>
        <time>2022-12-08T12:05:07Z</time>
      </trkpt>
      <trkpt lat="48.15175" lon="-3.69313">
        <ele>243.1</ele>
        <time>2022-12-08T12:05:08Z</time>
      </trkpt>
      <trkpt lat="48.15175" lon="-3.69312">
        <ele>243</ele>
        <time>2022-12-08T12:05:09Z</time>
      </trkpt>
      <trkpt lat="48.15174" lon="-3.69311">
        <ele>243</ele>
        <time>2022-12-08T12:05:10Z</time>
      </trkpt>
      <trkpt lat="48.15175" lon="-3.69311">
        <ele>243</ele>
        <time>2022-12-08T12:05:11Z</time>
      </trkpt>
      <trkpt lat="48.15176" lon="-3.69311">
        <ele>243</ele>
        <time>2022-12-08T12:05:12Z</time>
      </trkpt>
      <trkpt lat="48.15177" lon="-3.69311">
        <ele>243</ele>
        <time>2022-12-08T12:05:13Z</time>
      </trkpt>
      <trkpt lat="48.15178" lon="-3.69311">
        <ele>243</ele>
        <time>2022-12-08T12:05:14Z</time>
      </trkpt>
      <trkpt lat="48.15179" lon="-3.69312">
        <ele>243</ele>
        <time>2022-12-08T12:05:15Z</time>
      </trkpt>
      <trkpt lat="48.15179" lon="-3.69312">
        <ele>242.9</ele>
        <time>2022-12-08T12:05:16Z</time>
      </trkpt>
      <trkpt lat="48.1518" lon="-3.69311">
        <ele>242.9</ele>
        <time>2022-12-08T12:05:17Z</time>
      </trkpt>
      <trkpt lat="48.15181" lon="-3.69311">
        <ele>242.9</ele>
        <time>2022-12-08T12:05:18Z</time>
      </trkpt>
      <trkpt lat="48.15182" lon="-3.69307">
        <ele>242.9</ele>
        <time>2022-12-08T12:05:19Z</time>
      </trkpt>
      <trkpt lat="48.15183" lon="-3.69305">
        <ele>242.8</ele>
        <time>2022-12-08T12:05:20Z</time>
      </trkpt>
      <trkpt lat="48.15184" lon="-3.69302">
        <ele>242.8</ele>
        <time>2022-12-08T12:05:21Z</time>
      </trkpt>
      <trkpt lat="48.15185" lon="-3.69297">
        <ele>242.7</ele>
        <time>2022-12-08T12:05:23Z</time>
      </trkpt>
      <trkpt lat="48.15185" lon="-3.69291">
        <ele>242.6</ele>
        <time>2022-12-08T12:05:24Z</time>
      </trkpt>
      <trkpt lat="48.15185" lon="-3.69289">
        <ele>242.6</ele>
        <time>2022-12-08T12:05:25Z</time>
      </trkpt>
      <trkpt lat="48.15185" lon="-3.69284">
        <ele>242.5</ele>
        <time>2022-12-08T12:05:26Z</time>
      </trkpt>
      <trkpt lat="48.15186" lon="-3.69279">
        <ele>242.4</ele>
        <time>2022-12-08T12:05:27Z</time>
      </trkpt>
      <trkpt lat="48.15187" lon="-3.69276">
        <ele>242.4</ele>
        <time>2022-12-08T12:05:28Z</time>
      </trkpt>
      <trkpt lat="48.15189" lon="-3.6927">
        <ele>242.3</ele>
        <time>2022-12-08T12:05:29Z</time>
      </trkpt>
      <trkpt lat="48.15189" lon="-3.69268">
        <ele>242.2</ele>
        <time>2022-12-08T12:05:30Z</time>
      </trkpt>
      <trkpt lat="48.15189" lon="-3.69263">
        <ele>242.2</ele>
        <time>2022-12-08T12:05:31Z</time>
      </trkpt>
      <trkpt lat="48.15189" lon="-3.69256">
        <ele>242.1</ele>
        <time>2022-12-08T12:05:33Z</time>
      </trkpt>
      <trkpt lat="48.15189" lon="-3.69249">
        <ele>242</ele>
        <time>2022-12-08T12:05:34Z</time>
      </trkpt>
      <trkpt lat="48.15189" lon="-3.69245">
        <ele>242</ele>
        <time>2022-12-08T12:05:35Z</time>
      </trkpt>
      <trkpt lat="48.15191" lon="-3.6924">
        <ele>242</ele>
        <time>2022-12-08T12:05:36Z</time>
      </trkpt>
      <trkpt lat="48.15191" lon="-3.69236">
        <ele>241.9</ele>
        <time>2022-12-08T12:05:37Z</time>
      </trkpt>
      <trkpt lat="48.15192" lon="-3.69231">
        <ele>241.9</ele>
        <time>2022-12-08T12:05:38Z</time>
      </trkpt>
      <trkpt lat="48.15193" lon="-3.69229">
        <ele>241.9</ele>
        <time>2022-12-08T12:05:39Z</time>
      </trkpt>
      <trkpt lat="48.15194" lon="-3.69225">
        <ele>241.8</ele>
        <time>2022-12-08T12:05:40Z</time>
      </trkpt>
      <trkpt lat="48.15195" lon="-3.6922">
        <ele>241.8</ele>
        <time>2022-12-08T12:05:41Z</time>
      </trkpt>
      <trkpt lat="48.15195" lon="-3.69218">
        <ele>241.8</ele>
        <time>2022-12-08T12:05:42Z</time>
      </trkpt>
      <trkpt lat="48.15197" lon="-3.69215">
        <ele>241.8</ele>
        <time>2022-12-08T12:05:43Z</time>
      </trkpt>
      <trkpt lat="48.15198" lon="-3.69208">
        <ele>241.7</ele>
        <time>2022-12-08T12:05:45Z</time>
      </trkpt>
      <trkpt lat="48.15199" lon="-3.69203">
        <ele>241.7</ele>
        <time>2022-12-08T12:05:46Z</time>
      </trkpt>
      <trkpt lat="48.152" lon="-3.69201">
        <ele>241.7</ele>
        <time>2022-12-08T12:05:47Z</time>
      </trkpt>
      <trkpt lat="48.152" lon="-3.69197">
        <ele>241.7</ele>
        <time>2022-12-08T12:05:48Z</time>
      </trkpt>
      <trkpt lat="48.15201" lon="-3.69192">
        <ele>241.6</ele>
        <time>2022-12-08T12:05:49Z</time>
      </trkpt>
      <trkpt lat="48.15202" lon="-3.6919">
        <ele>241.6</ele>
        <time>2022-12-08T12:05:50Z</time>
      </trkpt>
      <trkpt lat="48.15202" lon="-3.69185">
        <ele>241.5</ele>
        <time>2022-12-08T12:05:51Z</time>
      </trkpt>
      <trkpt lat="48.15201" lon="-3.6918">
        <ele>241.5</ele>
        <time>2022-12-08T12:05:53Z</time>
      </trkpt>
      <trkpt lat="48.15201" lon="-3.69175">
        <ele>241.5</ele>
        <time>2022-12-08T12:05:54Z</time>
        <extensions>
          <visugpx:TrkExtension xmlns:visugpx="https://www.visugpx.com/editgpx/">
            <visugpx:node>1</visugpx:node>
            </visugpx:TrkExtension>
        </extensions>
      </trkpt>
      <trkpt lat="48.15202" lon="-3.69163">
        <ele>240.9</ele>
        <time>2022-12-08T12:08:31Z</time>
        <extensions>
          <visugpx:TrkExtension xmlns:visugpx="https://www.visugpx.com/editgpx/">
            <visugpx:node>2</visugpx:node>
            </visugpx:TrkExtension>
        </extensions>
      </trkpt>
      <trkpt lat="48.15201" lon="-3.6916">
        <ele>240.8</ele>
        <time>2022-12-08T12:08:32Z</time>
      </trkpt>
      <trkpt lat="48.152" lon="-3.69154">
        <ele>240.7</ele>
        <time>2022-12-08T12:08:34Z</time>
      </trkpt>
      <trkpt lat="48.15201" lon="-3.69148">
        <ele>240.5</ele>
        <time>2022-12-08T12:08:35Z</time>
      </trkpt>
      <trkpt lat="48.15201" lon="-3.69145">
        <ele>240.4</ele>
        <time>2022-12-08T12:08:36Z</time>
      </trkpt>
      <trkpt lat="48.15201" lon="-3.69141">
        <ele>240.4</ele>
        <time>2022-12-08T12:08:37Z</time>
      </trkpt>
      <trkpt lat="48.15201" lon="-3.69132">
        <ele>240.2</ele>
        <time>2022-12-08T12:08:39Z</time>
      </trkpt>
      <trkpt lat="48.15201" lon="-3.69124">
        <ele>240.1</ele>
        <time>2022-12-08T12:08:40Z</time>
      </trkpt>
      <trkpt lat="48.15201" lon="-3.69117">
        <ele>240</ele>
        <time>2022-12-08T12:08:41Z</time>
      </trkpt>
      <trkpt lat="48.15202" lon="-3.69106">
        <ele>239.9</ele>
        <time>2022-12-08T12:08:43Z</time>
      </trkpt>
      <trkpt lat="48.15201" lon="-3.69098">
        <ele>239.8</ele>
        <time>2022-12-08T12:08:45Z</time>
      </trkpt>
      <trkpt lat="48.15197" lon="-3.69098">
        <ele>239.9</ele>
        <time>2022-12-08T12:08:47Z</time>
      </trkpt>
      <trkpt lat="48.15193" lon="-3.691">
        <ele>239.9</ele>
        <time>2022-12-08T12:08:48Z</time>
      </trkpt>
      <trkpt lat="48.15191" lon="-3.69101">
        <ele>240</ele>
        <time>2022-12-08T12:08:49Z</time>
      </trkpt>
      <trkpt lat="48.15186" lon="-3.69102">
        <ele>240.1</ele>
        <time>2022-12-08T12:08:51Z</time>
      </trkpt>
      <trkpt lat="48.15183" lon="-3.69102">
        <ele>240.1</ele>
        <time>2022-12-08T12:08:52Z</time>
      </trkpt>
      <trkpt lat="48.1518" lon="-3.69102">
        <ele>240.2</ele>
        <time>2022-12-08T12:08:53Z</time>
      </trkpt>
      <trkpt lat="48.15175" lon="-3.69099">
        <ele>240.3</ele>
        <time>2022-12-08T12:08:55Z</time>
      </trkpt>
      <trkpt lat="48.15173" lon="-3.69097">
        <ele>240.4</ele>
        <time>2022-12-08T12:08:56Z</time>
      </trkpt>
      <trkpt lat="48.15171" lon="-3.69095">
        <ele>240.5</ele>
        <time>2022-12-08T12:08:57Z</time>
      </trkpt>
      <trkpt lat="48.15168" lon="-3.69092">
        <ele>240.6</ele>
        <time>2022-12-08T12:08:58Z</time>
      </trkpt>
      <trkpt lat="48.15167" lon="-3.69091">
        <ele>240.6</ele>
        <time>2022-12-08T12:08:59Z</time>
      </trkpt>
      <trkpt lat="48.15165" lon="-3.69088">
        <ele>240.7</ele>
        <time>2022-12-08T12:09:00Z</time>
      </trkpt>
      <trkpt lat="48.15163" lon="-3.69084">
        <ele>240.8</ele>
        <time>2022-12-08T12:09:01Z</time>
      </trkpt>
      <trkpt lat="48.15162" lon="-3.69083">
        <ele>240.8</ele>
        <time>2022-12-08T12:09:02Z</time>
      </trkpt>
      <trkpt lat="48.15159" lon="-3.69079">
        <ele>240.9</ele>
        <time>2022-12-08T12:09:03Z</time>
      </trkpt>
      <trkpt lat="48.15154" lon="-3.69073">
        <ele>241.1</ele>
        <time>2022-12-08T12:09:05Z</time>
      </trkpt>
      <trkpt lat="48.15151" lon="-3.6907">
        <ele>241.1</ele>
        <time>2022-12-08T12:09:06Z</time>
      </trkpt>
      <trkpt lat="48.15147" lon="-3.69066">
        <ele>241.2</ele>
        <time>2022-12-08T12:09:07Z</time>
      </trkpt>
      <trkpt lat="48.15146" lon="-3.69063">
        <ele>241.3</ele>
        <time>2022-12-08T12:09:08Z</time>
      </trkpt>
      <trkpt lat="48.15143" lon="-3.69059">
        <ele>241.4</ele>
        <time>2022-12-08T12:09:09Z</time>
      </trkpt>
      <trkpt lat="48.15141" lon="-3.69057">
        <ele>241.4</ele>
        <time>2022-12-08T12:09:10Z</time>
      </trkpt>
      <trkpt lat="48.15137" lon="-3.69052">
        <ele>241.5</ele>
        <time>2022-12-08T12:09:12Z</time>
      </trkpt>
      <trkpt lat="48.15134" lon="-3.69048">
        <ele>241.5</ele>
        <time>2022-12-08T12:09:13Z</time>
      </trkpt>
      <trkpt lat="48.15131" lon="-3.69043">
        <ele>241.5</ele>
        <time>2022-12-08T12:09:14Z</time>
      </trkpt>
      <trkpt lat="48.15128" lon="-3.6904">
        <ele>241.5</ele>
        <time>2022-12-08T12:09:15Z</time>
      </trkpt>
      <trkpt lat="48.15122" lon="-3.69033">
        <ele>241.5</ele>
        <time>2022-12-08T12:09:17Z</time>
      </trkpt>
      <trkpt lat="48.15116" lon="-3.69027">
        <ele>241.4</ele>
        <time>2022-12-08T12:09:18Z</time>
      </trkpt>
      <trkpt lat="48.15111" lon="-3.69023">
        <ele>241.3</ele>
        <time>2022-12-08T12:09:19Z</time>
      </trkpt>
      <trkpt lat="48.15106" lon="-3.69019">
        <ele>241.2</ele>
        <time>2022-12-08T12:09:20Z</time>
      </trkpt>
      <trkpt lat="48.15104" lon="-3.69018">
        <ele>241.1</ele>
        <time>2022-12-08T12:09:21Z</time>
      </trkpt>
      <trkpt lat="48.15096" lon="-3.69011">
        <ele>240.9</ele>
        <time>2022-12-08T12:09:22Z</time>
      </trkpt>
      <trkpt lat="48.15091" lon="-3.69009">
        <ele>240.7</ele>
        <time>2022-12-08T12:09:23Z</time>
      </trkpt>
      <trkpt lat="48.15085" lon="-3.69009">
        <ele>240.6</ele>
        <time>2022-12-08T12:09:24Z</time>
      </trkpt>
      <trkpt lat="48.1508" lon="-3.69008">
        <ele>240.4</ele>
        <time>2022-12-08T12:09:25Z</time>
      </trkpt>
      <trkpt lat="48.15074" lon="-3.69006">
        <ele>240.2</ele>
        <time>2022-12-08T12:09:26Z</time>
      </trkpt>
      <trkpt lat="48.15068" lon="-3.69006">
        <ele>240</ele>
        <time>2022-12-08T12:09:27Z</time>
      </trkpt>
      <trkpt lat="48.15063" lon="-3.69006">
        <ele>239.7</ele>
        <time>2022-12-08T12:09:28Z</time>
      </trkpt>
      <trkpt lat="48.15057" lon="-3.69006">
        <ele>239.5</ele>
        <time>2022-12-08T12:09:29Z</time>
      </trkpt>
      <trkpt lat="48.15052" lon="-3.69006">
        <ele>239.2</ele>
        <time>2022-12-08T12:09:30Z</time>
      </trkpt>
      <trkpt lat="48.15048" lon="-3.69005">
        <ele>239</ele>
        <time>2022-12-08T12:09:31Z</time>
      </trkpt>
      <trkpt lat="48.15044" lon="-3.69005">
        <ele>238.8</ele>
        <time>2022-12-08T12:09:32Z</time>
      </trkpt>
      <trkpt lat="48.15039" lon="-3.69006">
        <ele>238.6</ele>
        <time>2022-12-08T12:09:33Z</time>
      </trkpt>
      <trkpt lat="48.15034" lon="-3.69007">
        <ele>238.4</ele>
        <time>2022-12-08T12:09:34Z</time>
      </trkpt>
      <trkpt lat="48.15029" lon="-3.69009">
        <ele>238.2</ele>
        <time>2022-12-08T12:09:35Z</time>
      </trkpt>
      <trkpt lat="48.15024" lon="-3.6901">
        <ele>237.6</ele>
        <time>2022-12-08T12:09:36Z</time>
      </trkpt>
      <trkpt lat="48.15019" lon="-3.69009">
        <ele>236.8</ele>
        <time>2022-12-08T12:09:37Z</time>
      </trkpt>
      <trkpt lat="48.15013" lon="-3.69009">
        <ele>236</ele>
        <time>2022-12-08T12:09:38Z</time>
      </trkpt>
      <trkpt lat="48.15008" lon="-3.69009">
        <ele>235.2</ele>
        <time>2022-12-08T12:09:39Z</time>
      </trkpt>
      <trkpt lat="48.15002" lon="-3.6901">
        <ele>234.4</ele>
        <time>2022-12-08T12:09:40Z</time>
      </trkpt>
      <trkpt lat="48.14997" lon="-3.6901">
        <ele>233.7</ele>
        <time>2022-12-08T12:09:41Z</time>
      </trkpt>
      <trkpt lat="48.14991" lon="-3.69011">
        <ele>232.9</ele>
        <time>2022-12-08T12:09:42Z</time>
      </trkpt>
      <trkpt lat="48.14985" lon="-3.69011">
        <ele>232.2</ele>
        <time>2022-12-08T12:09:43Z</time>
      </trkpt>
      <trkpt lat="48.1498" lon="-3.6901">
        <ele>231.5</ele>
        <time>2022-12-08T12:09:44Z</time>
      </trkpt>
      <trkpt lat="48.14976" lon="-3.69006">
        <ele>230.9</ele>
        <time>2022-12-08T12:09:45Z</time>
      </trkpt>
      <trkpt lat="48.14973" lon="-3.69001">
        <ele>230.7</ele>
        <time>2022-12-08T12:09:46Z</time>
      </trkpt>
      <trkpt lat="48.14973" lon="-3.68994">
        <ele>230.7</ele>
        <time>2022-12-08T12:09:47Z</time>
      </trkpt>
      <trkpt lat="48.14973" lon="-3.68988">
        <ele>230.7</ele>
        <time>2022-12-08T12:09:48Z</time>
      </trkpt>
      <trkpt lat="48.14973" lon="-3.68987">
        <ele>230.7</ele>
        <time>2022-12-08T12:09:49Z</time>
      </trkpt>
      <trkpt lat="48.14973" lon="-3.68982">
        <ele>230.7</ele>
        <time>2022-12-08T12:09:50Z</time>
      </trkpt>
      <trkpt lat="48.14975" lon="-3.68978">
        <ele>230.7</ele>
        <time>2022-12-08T12:09:51Z</time>
      </trkpt>
      <trkpt lat="48.14978" lon="-3.68974">
        <ele>230.8</ele>
        <time>2022-12-08T12:09:52Z</time>
      </trkpt>
      <trkpt lat="48.14981" lon="-3.6897">
        <ele>230.9</ele>
        <time>2022-12-08T12:09:53Z</time>
      </trkpt>
      <trkpt lat="48.14983" lon="-3.68968">
        <ele>231</ele>
        <time>2022-12-08T12:09:54Z</time>
      </trkpt>
      <trkpt lat="48.14987" lon="-3.68964">
        <ele>231.2</ele>
        <time>2022-12-08T12:09:55Z</time>
      </trkpt>
      <trkpt lat="48.1499" lon="-3.6896">
        <ele>231.5</ele>
        <time>2022-12-08T12:09:57Z</time>
      </trkpt>
      <trkpt lat="48.14993" lon="-3.68954">
        <ele>231.7</ele>
        <time>2022-12-08T12:09:58Z</time>
      </trkpt>
      <trkpt lat="48.14996" lon="-3.6895">
        <ele>231.9</ele>
        <time>2022-12-08T12:09:59Z</time>
      </trkpt>
      <trkpt lat="48.14999" lon="-3.68945">
        <ele>232.1</ele>
        <time>2022-12-08T12:10:01Z</time>
      </trkpt>
      <trkpt lat="48.15003" lon="-3.6894">
        <ele>232.3</ele>
        <time>2022-12-08T12:10:02Z</time>
      </trkpt>
      <trkpt lat="48.15007" lon="-3.68934">
        <ele>232.6</ele>
        <time>2022-12-08T12:10:03Z</time>
      </trkpt>
      <trkpt lat="48.1501" lon="-3.68929">
        <ele>232.8</ele>
        <time>2022-12-08T12:10:05Z</time>
      </trkpt>
      <trkpt lat="48.15013" lon="-3.68924">
        <ele>232.9</ele>
        <time>2022-12-08T12:10:06Z</time>
      </trkpt>
      <trkpt lat="48.15016" lon="-3.68921">
        <ele>233</ele>
        <time>2022-12-08T12:10:07Z</time>
      </trkpt>
      <trkpt lat="48.15018" lon="-3.68917">
        <ele>233.1</ele>
        <time>2022-12-08T12:10:08Z</time>
      </trkpt>
      <trkpt lat="48.15021" lon="-3.68913">
        <ele>233.2</ele>
        <time>2022-12-08T12:10:09Z</time>
      </trkpt>
      <trkpt lat="48.15023" lon="-3.68908">
        <ele>233.3</ele>
        <time>2022-12-08T12:10:10Z</time>
      </trkpt>
      <trkpt lat="48.15026" lon="-3.68902">
        <ele>233.4</ele>
        <time>2022-12-08T12:10:11Z</time>
      </trkpt>
      <trkpt lat="48.15028" lon="-3.68899">
        <ele>233.4</ele>
        <time>2022-12-08T12:10:12Z</time>
      </trkpt>
      <trkpt lat="48.15031" lon="-3.68893">
        <ele>233.6</ele>
        <time>2022-12-08T12:10:13Z</time>
      </trkpt>
      <trkpt lat="48.15034" lon="-3.68888">
        <ele>233.7</ele>
        <time>2022-12-08T12:10:14Z</time>
      </trkpt>
      <trkpt lat="48.15037" lon="-3.68883">
        <ele>233.8</ele>
        <time>2022-12-08T12:10:15Z</time>
      </trkpt>
      <trkpt lat="48.15038" lon="-3.6888">
        <ele>233.9</ele>
        <time>2022-12-08T12:10:16Z</time>
      </trkpt>
      <trkpt lat="48.1504" lon="-3.68874">
        <ele>234</ele>
        <time>2022-12-08T12:10:17Z</time>
      </trkpt>
      <trkpt lat="48.15042" lon="-3.68871">
        <ele>234.1</ele>
        <time>2022-12-08T12:10:18Z</time>
      </trkpt>
      <trkpt lat="48.15045" lon="-3.68866">
        <ele>234.2</ele>
        <time>2022-12-08T12:10:19Z</time>
      </trkpt>
      <trkpt lat="48.15047" lon="-3.68861">
        <ele>234.4</ele>
        <time>2022-12-08T12:10:20Z</time>
      </trkpt>
      <trkpt lat="48.15049" lon="-3.68856">
        <ele>234.5</ele>
        <time>2022-12-08T12:10:21Z</time>
      </trkpt>
      <trkpt lat="48.15051" lon="-3.68851">
        <ele>234.6</ele>
        <time>2022-12-08T12:10:22Z</time>
      </trkpt>
      <trkpt lat="48.15053" lon="-3.68846">
        <ele>234.7</ele>
        <time>2022-12-08T12:10:23Z</time>
      </trkpt>
      <trkpt lat="48.15054" lon="-3.68842">
        <ele>234.8</ele>
        <time>2022-12-08T12:10:24Z</time>
      </trkpt>
      <trkpt lat="48.15056" lon="-3.68837">
        <ele>234.9</ele>
        <time>2022-12-08T12:10:25Z</time>
      </trkpt>
      <trkpt lat="48.15058" lon="-3.68831">
        <ele>234.9</ele>
        <time>2022-12-08T12:10:26Z</time>
      </trkpt>
      <trkpt lat="48.15059" lon="-3.68828">
        <ele>235</ele>
        <time>2022-12-08T12:10:27Z</time>
      </trkpt>
      <trkpt lat="48.15061" lon="-3.68822">
        <ele>235.1</ele>
        <time>2022-12-08T12:10:28Z</time>
      </trkpt>
      <trkpt lat="48.15062" lon="-3.68816">
        <ele>235.1</ele>
        <time>2022-12-08T12:10:29Z</time>
      </trkpt>
      <trkpt lat="48.15064" lon="-3.6881">
        <ele>235.2</ele>
        <time>2022-12-08T12:10:30Z</time>
      </trkpt>
      <trkpt lat="48.15065" lon="-3.68806">
        <ele>235.2</ele>
        <time>2022-12-08T12:10:31Z</time>
      </trkpt>
      <trkpt lat="48.15066" lon="-3.68801">
        <ele>235.2</ele>
        <time>2022-12-08T12:10:32Z</time>
      </trkpt>
      <trkpt lat="48.15068" lon="-3.68795">
        <ele>235.3</ele>
        <time>2022-12-08T12:10:33Z</time>
      </trkpt>
      <trkpt lat="48.1507" lon="-3.6879">
        <ele>235.3</ele>
        <time>2022-12-08T12:10:34Z</time>
      </trkpt>
      <trkpt lat="48.15071" lon="-3.68786">
        <ele>235.2</ele>
        <time>2022-12-08T12:10:35Z</time>
      </trkpt>
      <trkpt lat="48.15074" lon="-3.68779">
        <ele>235.2</ele>
        <time>2022-12-08T12:10:36Z</time>
      </trkpt>
      <trkpt lat="48.15076" lon="-3.68775">
        <ele>235.2</ele>
        <time>2022-12-08T12:10:37Z</time>
      </trkpt>
      <trkpt lat="48.15078" lon="-3.6877">
        <ele>235.2</ele>
        <time>2022-12-08T12:10:38Z</time>
      </trkpt>
      <trkpt lat="48.15081" lon="-3.68765">
        <ele>235.1</ele>
        <time>2022-12-08T12:10:39Z</time>
      </trkpt>
      <trkpt lat="48.15083" lon="-3.68759">
        <ele>235.1</ele>
        <time>2022-12-08T12:10:40Z</time>
      </trkpt>
      <trkpt lat="48.15086" lon="-3.68751">
        <ele>235</ele>
        <time>2022-12-08T12:10:41Z</time>
      </trkpt>
      <trkpt lat="48.15089" lon="-3.68745">
        <ele>235</ele>
        <time>2022-12-08T12:10:42Z</time>
      </trkpt>
      <trkpt lat="48.15092" lon="-3.68739">
        <ele>234.9</ele>
        <time>2022-12-08T12:10:43Z</time>
      </trkpt>
      <trkpt lat="48.15094" lon="-3.68733">
        <ele>234.8</ele>
        <time>2022-12-08T12:10:44Z</time>
      </trkpt>
      <trkpt lat="48.15096" lon="-3.68727">
        <ele>234.8</ele>
        <time>2022-12-08T12:10:45Z</time>
      </trkpt>
      <trkpt lat="48.15099" lon="-3.68721">
        <ele>234.7</ele>
        <time>2022-12-08T12:10:46Z</time>
      </trkpt>
      <trkpt lat="48.15101" lon="-3.68714">
        <ele>234.6</ele>
        <time>2022-12-08T12:10:47Z</time>
      </trkpt>
      <trkpt lat="48.15104" lon="-3.68708">
        <ele>234.6</ele>
        <time>2022-12-08T12:10:48Z</time>
      </trkpt>
      <trkpt lat="48.15106" lon="-3.68702">
        <ele>234.6</ele>
        <time>2022-12-08T12:10:49Z</time>
      </trkpt>
      <trkpt lat="48.15108" lon="-3.68695">
        <ele>234.5</ele>
        <time>2022-12-08T12:10:50Z</time>
      </trkpt>
      <trkpt lat="48.1511" lon="-3.68689">
        <ele>234.5</ele>
        <time>2022-12-08T12:10:51Z</time>
      </trkpt>
      <trkpt lat="48.15113" lon="-3.68683">
        <ele>234.4</ele>
        <time>2022-12-08T12:10:52Z</time>
      </trkpt>
      <trkpt lat="48.15116" lon="-3.68677">
        <ele>234.4</ele>
        <time>2022-12-08T12:10:53Z</time>
      </trkpt>
      <trkpt lat="48.15119" lon="-3.68671">
        <ele>234.4</ele>
        <time>2022-12-08T12:10:54Z</time>
      </trkpt>
      <trkpt lat="48.15121" lon="-3.68665">
        <ele>234.4</ele>
        <time>2022-12-08T12:10:55Z</time>
      </trkpt>
      <trkpt lat="48.15123" lon="-3.68659">
        <ele>234.4</ele>
        <time>2022-12-08T12:10:56Z</time>
      </trkpt>
      <trkpt lat="48.15126" lon="-3.68653">
        <ele>234.4</ele>
        <time>2022-12-08T12:10:57Z</time>
      </trkpt>
      <trkpt lat="48.15128" lon="-3.68647">
        <ele>234.4</ele>
        <time>2022-12-08T12:10:58Z</time>
      </trkpt>
      <trkpt lat="48.1513" lon="-3.68641">
        <ele>234.4</ele>
        <time>2022-12-08T12:10:59Z</time>
      </trkpt>
      <trkpt lat="48.15133" lon="-3.68635">
        <ele>234.4</ele>
        <time>2022-12-08T12:11:00Z</time>
      </trkpt>
      <trkpt lat="48.15135" lon="-3.68629">
        <ele>234.4</ele>
        <time>2022-12-08T12:11:01Z</time>
      </trkpt>
      <trkpt lat="48.15137" lon="-3.68623">
        <ele>234.5</ele>
        <time>2022-12-08T12:11:02Z</time>
      </trkpt>
      <trkpt lat="48.15139" lon="-3.68617">
        <ele>234.6</ele>
        <time>2022-12-08T12:11:03Z</time>
      </trkpt>
      <trkpt lat="48.15141" lon="-3.68611">
        <ele>234.7</ele>
        <time>2022-12-08T12:11:04Z</time>
      </trkpt>
      <trkpt lat="48.15143" lon="-3.68605">
        <ele>234.8</ele>
        <time>2022-12-08T12:11:05Z</time>
      </trkpt>
      <trkpt lat="48.15144" lon="-3.68598">
        <ele>234.9</ele>
        <time>2022-12-08T12:11:06Z</time>
      </trkpt>
      <trkpt lat="48.15145" lon="-3.68591">
        <ele>235</ele>
        <time>2022-12-08T12:11:07Z</time>
      </trkpt>
      <trkpt lat="48.15146" lon="-3.68587">
        <ele>235.1</ele>
        <time>2022-12-08T12:11:08Z</time>
      </trkpt>
      <trkpt lat="48.15148" lon="-3.6858">
        <ele>235.2</ele>
        <time>2022-12-08T12:11:09Z</time>
      </trkpt>
      <trkpt lat="48.15148" lon="-3.68574">
        <ele>235.3</ele>
        <time>2022-12-08T12:11:10Z</time>
      </trkpt>
      <trkpt lat="48.15149" lon="-3.68568">
        <ele>235.4</ele>
        <time>2022-12-08T12:11:11Z</time>
      </trkpt>
      <trkpt lat="48.1515" lon="-3.68559">
        <ele>235.4</ele>
        <time>2022-12-08T12:11:12Z</time>
      </trkpt>
      <trkpt lat="48.15152" lon="-3.68552">
        <ele>235.5</ele>
        <time>2022-12-08T12:11:13Z</time>
      </trkpt>
      <trkpt lat="48.15154" lon="-3.68545">
        <ele>235.4</ele>
        <time>2022-12-08T12:11:14Z</time>
      </trkpt>
      <trkpt lat="48.15154" lon="-3.68539">
        <ele>235.4</ele>
        <time>2022-12-08T12:11:15Z</time>
      </trkpt>
      <trkpt lat="48.15155" lon="-3.68532">
        <ele>235.4</ele>
        <time>2022-12-08T12:11:16Z</time>
      </trkpt>
      <trkpt lat="48.15155" lon="-3.68525">
        <ele>235.4</ele>
        <time>2022-12-08T12:11:17Z</time>
      </trkpt>
      <trkpt lat="48.15155" lon="-3.68518">
        <ele>235.3</ele>
        <time>2022-12-08T12:11:18Z</time>
      </trkpt>
      <trkpt lat="48.15156" lon="-3.68511">
        <ele>235.3</ele>
        <time>2022-12-08T12:11:19Z</time>
      </trkpt>
      <trkpt lat="48.15156" lon="-3.68503">
        <ele>235.3</ele>
        <time>2022-12-08T12:11:20Z</time>
      </trkpt>
      <trkpt lat="48.15156" lon="-3.68496">
        <ele>235.3</ele>
        <time>2022-12-08T12:11:21Z</time>
      </trkpt>
      <trkpt lat="48.15157" lon="-3.6849">
        <ele>235.2</ele>
        <time>2022-12-08T12:11:22Z</time>
      </trkpt>
      <trkpt lat="48.15157" lon="-3.68485">
        <ele>235.2</ele>
        <time>2022-12-08T12:11:23Z</time>
      </trkpt>
      <trkpt lat="48.15157" lon="-3.68479">
        <ele>235.2</ele>
        <time>2022-12-08T12:11:24Z</time>
      </trkpt>
      <trkpt lat="48.15157" lon="-3.68471">
        <ele>235.2</ele>
        <time>2022-12-08T12:11:25Z</time>
      </trkpt>
      <trkpt lat="48.15157" lon="-3.68463">
        <ele>235.2</ele>
        <time>2022-12-08T12:11:26Z</time>
      </trkpt>
      <trkpt lat="48.15158" lon="-3.68455">
        <ele>235.3</ele>
        <time>2022-12-08T12:11:27Z</time>
      </trkpt>
      <trkpt lat="48.15158" lon="-3.68449">
        <ele>235.3</ele>
        <time>2022-12-08T12:11:28Z</time>
      </trkpt>
      <trkpt lat="48.15158" lon="-3.68441">
        <ele>235.4</ele>
        <time>2022-12-08T12:11:29Z</time>
      </trkpt>
      <trkpt lat="48.15158" lon="-3.68436">
        <ele>235.4</ele>
        <time>2022-12-08T12:11:30Z</time>
      </trkpt>
      <trkpt lat="48.15157" lon="-3.68423">
        <ele>235.5</ele>
        <time>2022-12-08T12:11:32Z</time>
      </trkpt>
      <trkpt lat="48.15158" lon="-3.68415">
        <ele>235.5</ele>
        <time>2022-12-08T12:11:33Z</time>
      </trkpt>
      <trkpt lat="48.15158" lon="-3.68411">
        <ele>235.5</ele>
        <time>2022-12-08T12:11:34Z</time>
      </trkpt>
      <trkpt lat="48.15158" lon="-3.68401">
        <ele>235.5</ele>
        <time>2022-12-08T12:11:35Z</time>
      </trkpt>
      <trkpt lat="48.15159" lon="-3.68394">
        <ele>235.5</ele>
        <time>2022-12-08T12:11:36Z</time>
      </trkpt>
      <trkpt lat="48.15159" lon="-3.68387">
        <ele>235.5</ele>
        <time>2022-12-08T12:11:37Z</time>
      </trkpt>
      <trkpt lat="48.15159" lon="-3.6838">
        <ele>235.5</ele>
        <time>2022-12-08T12:11:38Z</time>
      </trkpt>
      <trkpt lat="48.15159" lon="-3.68374">
        <ele>235.5</ele>
        <time>2022-12-08T12:11:39Z</time>
      </trkpt>
      <trkpt lat="48.15159" lon="-3.68367">
        <ele>235.5</ele>
        <time>2022-12-08T12:11:40Z</time>
      </trkpt>
      <trkpt lat="48.1516" lon="-3.6836">
        <ele>235.4</ele>
        <time>2022-12-08T12:11:41Z</time>
      </trkpt>
      <trkpt lat="48.1516" lon="-3.68355">
        <ele>235.4</ele>
        <time>2022-12-08T12:11:42Z</time>
      </trkpt>
      <trkpt lat="48.15162" lon="-3.68348">
        <ele>235.4</ele>
        <time>2022-12-08T12:11:43Z</time>
      </trkpt>
      <trkpt lat="48.15162" lon="-3.6834">
        <ele>235.4</ele>
        <time>2022-12-08T12:11:44Z</time>
      </trkpt>
      <trkpt lat="48.15162" lon="-3.68332">
        <ele>235.4</ele>
        <time>2022-12-08T12:11:45Z</time>
      </trkpt>
      <trkpt lat="48.15163" lon="-3.68325">
        <ele>235.3</ele>
        <time>2022-12-08T12:11:46Z</time>
      </trkpt>
      <trkpt lat="48.15163" lon="-3.68318">
        <ele>235.3</ele>
        <time>2022-12-08T12:11:47Z</time>
      </trkpt>
      <trkpt lat="48.15164" lon="-3.6831">
        <ele>235.3</ele>
        <time>2022-12-08T12:11:48Z</time>
      </trkpt>
      <trkpt lat="48.15165" lon="-3.68303">
        <ele>235.2</ele>
        <time>2022-12-08T12:11:49Z</time>
      </trkpt>
      <trkpt lat="48.15165" lon="-3.68296">
        <ele>235.2</ele>
        <time>2022-12-08T12:11:50Z</time>
      </trkpt>
      <trkpt lat="48.15166" lon="-3.68289">
        <ele>235.2</ele>
        <time>2022-12-08T12:11:51Z</time>
      </trkpt>
      <trkpt lat="48.15166" lon="-3.68282">
        <ele>235.1</ele>
        <time>2022-12-08T12:11:52Z</time>
      </trkpt>
      <trkpt lat="48.15167" lon="-3.68274">
        <ele>235</ele>
        <time>2022-12-08T12:11:53Z</time>
      </trkpt>
      <trkpt lat="48.15167" lon="-3.68267">
        <ele>234.9</ele>
        <time>2022-12-08T12:11:54Z</time>
      </trkpt>
      <trkpt lat="48.15168" lon="-3.6826">
        <ele>234.9</ele>
        <time>2022-12-08T12:11:55Z</time>
      </trkpt>
      <trkpt lat="48.15169" lon="-3.68253">
        <ele>234.9</ele>
        <time>2022-12-08T12:11:56Z</time>
      </trkpt>
      <trkpt lat="48.15169" lon="-3.68247">
        <ele>234.8</ele>
        <time>2022-12-08T12:11:57Z</time>
      </trkpt>
      <trkpt lat="48.15169" lon="-3.6824">
        <ele>234.8</ele>
        <time>2022-12-08T12:11:58Z</time>
      </trkpt>
      <trkpt lat="48.1517" lon="-3.68232">
        <ele>234.7</ele>
        <time>2022-12-08T12:11:59Z</time>
      </trkpt>
      <trkpt lat="48.1517" lon="-3.68225">
        <ele>234.6</ele>
        <time>2022-12-08T12:12:00Z</time>
      </trkpt>
      <trkpt lat="48.1517" lon="-3.68217">
        <ele>234.5</ele>
        <time>2022-12-08T12:12:01Z</time>
      </trkpt>
      <trkpt lat="48.1517" lon="-3.6821">
        <ele>234.4</ele>
        <time>2022-12-08T12:12:02Z</time>
      </trkpt>
      <trkpt lat="48.1517" lon="-3.68203">
        <ele>234.4</ele>
        <time>2022-12-08T12:12:03Z</time>
      </trkpt>
      <trkpt lat="48.15171" lon="-3.68195">
        <ele>234.3</ele>
        <time>2022-12-08T12:12:04Z</time>
      </trkpt>
      <trkpt lat="48.15172" lon="-3.68187">
        <ele>234.2</ele>
        <time>2022-12-08T12:12:05Z</time>
      </trkpt>
      <trkpt lat="48.15173" lon="-3.6818">
        <ele>234.1</ele>
        <time>2022-12-08T12:12:06Z</time>
      </trkpt>
      <trkpt lat="48.15174" lon="-3.68172">
        <ele>234</ele>
        <time>2022-12-08T12:12:07Z</time>
      </trkpt>
      <trkpt lat="48.15175" lon="-3.68164">
        <ele>233.9</ele>
        <time>2022-12-08T12:12:08Z</time>
      </trkpt>
      <trkpt lat="48.15175" lon="-3.68156">
        <ele>233.8</ele>
        <time>2022-12-08T12:12:09Z</time>
      </trkpt>
      <trkpt lat="48.15176" lon="-3.68148">
        <ele>233.7</ele>
        <time>2022-12-08T12:12:10Z</time>
      </trkpt>
      <trkpt lat="48.15177" lon="-3.68141">
        <ele>233.6</ele>
        <time>2022-12-08T12:12:11Z</time>
      </trkpt>
      <trkpt lat="48.15177" lon="-3.68132">
        <ele>233.5</ele>
        <time>2022-12-08T12:12:12Z</time>
      </trkpt>
      <trkpt lat="48.15178" lon="-3.68124">
        <ele>233.4</ele>
        <time>2022-12-08T12:12:13Z</time>
      </trkpt>
      <trkpt lat="48.15179" lon="-3.68116">
        <ele>233.3</ele>
        <time>2022-12-08T12:12:14Z</time>
      </trkpt>
      <trkpt lat="48.15179" lon="-3.68109">
        <ele>233.1</ele>
        <time>2022-12-08T12:12:15Z</time>
      </trkpt>
      <trkpt lat="48.1518" lon="-3.68101">
        <ele>232.9</ele>
        <time>2022-12-08T12:12:16Z</time>
      </trkpt>
      <trkpt lat="48.15181" lon="-3.68093">
        <ele>232.7</ele>
        <time>2022-12-08T12:12:17Z</time>
      </trkpt>
      <trkpt lat="48.15181" lon="-3.68086">
        <ele>232.5</ele>
        <time>2022-12-08T12:12:18Z</time>
      </trkpt>
      <trkpt lat="48.15182" lon="-3.68079">
        <ele>232.3</ele>
        <time>2022-12-08T12:12:19Z</time>
      </trkpt>
      <trkpt lat="48.15183" lon="-3.68071">
        <ele>232.1</ele>
        <time>2022-12-08T12:12:20Z</time>
      </trkpt>
      <trkpt lat="48.15184" lon="-3.68063">
        <ele>232</ele>
        <time>2022-12-08T12:12:21Z</time>
      </trkpt>
      <trkpt lat="48.15184" lon="-3.68055">
        <ele>231.9</ele>
        <time>2022-12-08T12:12:22Z</time>
      </trkpt>
      <trkpt lat="48.15185" lon="-3.68047">
        <ele>231.8</ele>
        <time>2022-12-08T12:12:23Z</time>
      </trkpt>
      <trkpt lat="48.15186" lon="-3.6804">
        <ele>231.7</ele>
        <time>2022-12-08T12:12:24Z</time>
      </trkpt>
      <trkpt lat="48.15186" lon="-3.68032">
        <ele>231.6</ele>
        <time>2022-12-08T12:12:25Z</time>
      </trkpt>
      <trkpt lat="48.15187" lon="-3.68025">
        <ele>231.5</ele>
        <time>2022-12-08T12:12:26Z</time>
      </trkpt>
      <trkpt lat="48.15187" lon="-3.68019">
        <ele>231.4</ele>
        <time>2022-12-08T12:12:27Z</time>
      </trkpt>
      <trkpt lat="48.15187" lon="-3.68011">
        <ele>231.3</ele>
        <time>2022-12-08T12:12:28Z</time>
      </trkpt>
      <trkpt lat="48.15187" lon="-3.68007">
        <ele>231.3</ele>
        <time>2022-12-08T12:12:29Z</time>
      </trkpt>
      <trkpt lat="48.15187" lon="-3.67999">
        <ele>231.2</ele>
        <time>2022-12-08T12:12:30Z</time>
      </trkpt>
      <trkpt lat="48.15186" lon="-3.67991">
        <ele>231.1</ele>
        <time>2022-12-08T12:12:31Z</time>
      </trkpt>
      <trkpt lat="48.15186" lon="-3.67984">
        <ele>231</ele>
        <time>2022-12-08T12:12:32Z</time>
      </trkpt>
      <trkpt lat="48.15185" lon="-3.67978">
        <ele>230.9</ele>
        <time>2022-12-08T12:12:33Z</time>
      </trkpt>
      <trkpt lat="48.15185" lon="-3.67973">
        <ele>230.8</ele>
        <time>2022-12-08T12:12:34Z</time>
      </trkpt>
      <trkpt lat="48.15185" lon="-3.67966">
        <ele>230.7</ele>
        <time>2022-12-08T12:12:35Z</time>
      </trkpt>
      <trkpt lat="48.15185" lon="-3.67954">
        <ele>230.4</ele>
        <time>2022-12-08T12:12:37Z</time>
      </trkpt>
      <trkpt lat="48.15186" lon="-3.67944">
        <ele>230.2</ele>
        <time>2022-12-08T12:12:38Z</time>
      </trkpt>
      <trkpt lat="48.15186" lon="-3.67937">
        <ele>230</ele>
        <time>2022-12-08T12:12:39Z</time>
      </trkpt>
      <trkpt lat="48.15187" lon="-3.6793">
        <ele>229.8</ele>
        <time>2022-12-08T12:12:40Z</time>
      </trkpt>
      <trkpt lat="48.15188" lon="-3.67922">
        <ele>229.6</ele>
        <time>2022-12-08T12:12:41Z</time>
      </trkpt>
      <trkpt lat="48.15188" lon="-3.67915">
        <ele>229.3</ele>
        <time>2022-12-08T12:12:42Z</time>
      </trkpt>
      <trkpt lat="48.15189" lon="-3.67908">
        <ele>229.1</ele>
        <time>2022-12-08T12:12:43Z</time>
      </trkpt>
      <trkpt lat="48.15189" lon="-3.67901">
        <ele>228.9</ele>
        <time>2022-12-08T12:12:44Z</time>
      </trkpt>
      <trkpt lat="48.1519" lon="-3.67895">
        <ele>228.7</ele>
        <time>2022-12-08T12:12:45Z</time>
      </trkpt>
      <trkpt lat="48.15191" lon="-3.67888">
        <ele>228.4</ele>
        <time>2022-12-08T12:12:46Z</time>
      </trkpt>
      <trkpt lat="48.15192" lon="-3.67881">
        <ele>228.2</ele>
        <time>2022-12-08T12:12:47Z</time>
      </trkpt>
      <trkpt lat="48.15193" lon="-3.67873">
        <ele>227.9</ele>
        <time>2022-12-08T12:12:48Z</time>
      </trkpt>
      <trkpt lat="48.15193" lon="-3.67866">
        <ele>227.6</ele>
        <time>2022-12-08T12:12:49Z</time>
      </trkpt>
      <trkpt lat="48.15194" lon="-3.67859">
        <ele>227.3</ele>
        <time>2022-12-08T12:12:50Z</time>
      </trkpt>
      <trkpt lat="48.15196" lon="-3.67852">
        <ele>226.9</ele>
        <time>2022-12-08T12:12:51Z</time>
      </trkpt>
      <trkpt lat="48.15197" lon="-3.67846">
        <ele>226.6</ele>
        <time>2022-12-08T12:12:52Z</time>
      </trkpt>
      <trkpt lat="48.15197" lon="-3.6784">
        <ele>226.2</ele>
        <time>2022-12-08T12:12:53Z</time>
      </trkpt>
      <trkpt lat="48.15198" lon="-3.67833">
        <ele>225.8</ele>
        <time>2022-12-08T12:12:54Z</time>
      </trkpt>
      <trkpt lat="48.15199" lon="-3.67826">
        <ele>225.4</ele>
        <time>2022-12-08T12:12:55Z</time>
      </trkpt>
      <trkpt lat="48.152" lon="-3.6782">
        <ele>225</ele>
        <time>2022-12-08T12:12:56Z</time>
      </trkpt>
      <trkpt lat="48.152" lon="-3.67812">
        <ele>224.5</ele>
        <time>2022-12-08T12:12:57Z</time>
      </trkpt>
      <trkpt lat="48.152" lon="-3.67803">
        <ele>224.1</ele>
        <time>2022-12-08T12:12:58Z</time>
      </trkpt>
      <trkpt lat="48.15201" lon="-3.67794">
        <ele>223.6</ele>
        <time>2022-12-08T12:12:59Z</time>
      </trkpt>
      <trkpt lat="48.15202" lon="-3.67785">
        <ele>223.2</ele>
        <time>2022-12-08T12:13:00Z</time>
      </trkpt>
      <trkpt lat="48.15202" lon="-3.67775">
        <ele>222.8</ele>
        <time>2022-12-08T12:13:01Z</time>
      </trkpt>
      <trkpt lat="48.15203" lon="-3.67765">
        <ele>222.4</ele>
        <time>2022-12-08T12:13:02Z</time>
      </trkpt>
      <trkpt lat="48.15203" lon="-3.67755">
        <ele>222</ele>
        <time>2022-12-08T12:13:03Z</time>
      </trkpt>
      <trkpt lat="48.15203" lon="-3.67747">
        <ele>221.7</ele>
        <time>2022-12-08T12:13:04Z</time>
      </trkpt>
      <trkpt lat="48.15203" lon="-3.67739">
        <ele>221.5</ele>
        <time>2022-12-08T12:13:05Z</time>
      </trkpt>
      <trkpt lat="48.15203" lon="-3.67731">
        <ele>221.2</ele>
        <time>2022-12-08T12:13:06Z</time>
      </trkpt>
      <trkpt lat="48.15204" lon="-3.67724">
        <ele>221</ele>
        <time>2022-12-08T12:13:07Z</time>
      </trkpt>
      <trkpt lat="48.15204" lon="-3.67718">
        <ele>220.7</ele>
        <time>2022-12-08T12:13:08Z</time>
      </trkpt>
      <trkpt lat="48.15204" lon="-3.67713">
        <ele>220.6</ele>
        <time>2022-12-08T12:13:09Z</time>
      </trkpt>
      <trkpt lat="48.15206" lon="-3.67706">
        <ele>220.2</ele>
        <time>2022-12-08T12:13:10Z</time>
      </trkpt>
      <trkpt lat="48.15206" lon="-3.67701">
        <ele>220.1</ele>
        <time>2022-12-08T12:13:11Z</time>
      </trkpt>
      <trkpt lat="48.15206" lon="-3.67699">
        <ele>220</ele>
        <time>2022-12-08T12:13:12Z</time>
      </trkpt>
      <trkpt lat="48.15205" lon="-3.67694">
        <ele>219.8</ele>
        <time>2022-12-08T12:13:13Z</time>
      </trkpt>
      <trkpt lat="48.15204" lon="-3.67692">
        <ele>219.7</ele>
        <time>2022-12-08T12:13:14Z</time>
      </trkpt>
      <trkpt lat="48.15203" lon="-3.67684">
        <ele>219.4</ele>
        <time>2022-12-08T12:13:16Z</time>
      </trkpt>
      <trkpt lat="48.15202" lon="-3.67675">
        <ele>219.1</ele>
        <time>2022-12-08T12:13:17Z</time>
      </trkpt>
      <trkpt lat="48.15201" lon="-3.67671">
        <ele>218.9</ele>
        <time>2022-12-08T12:13:18Z</time>
      </trkpt>
      <trkpt lat="48.15201" lon="-3.67663">
        <ele>218.6</ele>
        <time>2022-12-08T12:13:20Z</time>
      </trkpt>
      <trkpt lat="48.152" lon="-3.67657">
        <ele>218.4</ele>
        <time>2022-12-08T12:13:21Z</time>
      </trkpt>
      <trkpt lat="48.152" lon="-3.6765">
        <ele>218.2</ele>
        <time>2022-12-08T12:13:22Z</time>
      </trkpt>
      <trkpt lat="48.152" lon="-3.67643">
        <ele>217.9</ele>
        <time>2022-12-08T12:13:23Z</time>
      </trkpt>
      <trkpt lat="48.152" lon="-3.67631">
        <ele>217.5</ele>
        <time>2022-12-08T12:13:24Z</time>
      </trkpt>
      <trkpt lat="48.152" lon="-3.67624">
        <ele>217.2</ele>
        <time>2022-12-08T12:13:25Z</time>
      </trkpt>
      <trkpt lat="48.152" lon="-3.67617">
        <ele>216.9</ele>
        <time>2022-12-08T12:13:26Z</time>
      </trkpt>
      <trkpt lat="48.152" lon="-3.6761">
        <ele>216.6</ele>
        <time>2022-12-08T12:13:27Z</time>
      </trkpt>
      <trkpt lat="48.15201" lon="-3.67603">
        <ele>216.3</ele>
        <time>2022-12-08T12:13:28Z</time>
      </trkpt>
      <trkpt lat="48.15201" lon="-3.67599">
        <ele>216.1</ele>
        <time>2022-12-08T12:13:29Z</time>
      </trkpt>
      <trkpt lat="48.15201" lon="-3.67595">
        <ele>215.9</ele>
        <time>2022-12-08T12:13:30Z</time>
      </trkpt>
      <trkpt lat="48.15203" lon="-3.67585">
        <ele>215.4</ele>
        <time>2022-12-08T12:13:32Z</time>
      </trkpt>
      <trkpt lat="48.15204" lon="-3.67579">
        <ele>215.1</ele>
        <time>2022-12-08T12:13:33Z</time>
      </trkpt>
      <trkpt lat="48.15204" lon="-3.67574">
        <ele>214.9</ele>
        <time>2022-12-08T12:13:34Z</time>
      </trkpt>
      <trkpt lat="48.15204" lon="-3.67568">
        <ele>214.5</ele>
        <time>2022-12-08T12:13:35Z</time>
      </trkpt>
      <trkpt lat="48.15205" lon="-3.67563">
        <ele>214.3</ele>
        <time>2022-12-08T12:13:36Z</time>
      </trkpt>
      <trkpt lat="48.15207" lon="-3.67557">
        <ele>213.9</ele>
        <time>2022-12-08T12:13:37Z</time>
      </trkpt>
      <trkpt lat="48.15206" lon="-3.67552">
        <ele>213.6</ele>
        <time>2022-12-08T12:13:38Z</time>
      </trkpt>
      <trkpt lat="48.15207" lon="-3.67548">
        <ele>213.4</ele>
        <time>2022-12-08T12:13:39Z</time>
      </trkpt>
      <trkpt lat="48.15207" lon="-3.67543">
        <ele>213.2</ele>
        <time>2022-12-08T12:13:40Z</time>
      </trkpt>
      <trkpt lat="48.15208" lon="-3.67537">
        <ele>212.8</ele>
        <time>2022-12-08T12:13:41Z</time>
      </trkpt>
      <trkpt lat="48.15211" lon="-3.67529">
        <ele>212.4</ele>
        <time>2022-12-08T12:13:42Z</time>
      </trkpt>
      <trkpt lat="48.15213" lon="-3.67522">
        <ele>212</ele>
        <time>2022-12-08T12:13:43Z</time>
      </trkpt>
      <trkpt lat="48.15215" lon="-3.67516">
        <ele>211.7</ele>
        <time>2022-12-08T12:13:45Z</time>
      </trkpt>
      <trkpt lat="48.15217" lon="-3.67502">
        <ele>211.2</ele>
        <time>2022-12-08T12:13:46Z</time>
      </trkpt>
      <trkpt lat="48.15218" lon="-3.67494">
        <ele>211</ele>
        <time>2022-12-08T12:13:47Z</time>
      </trkpt>
      <trkpt lat="48.15218" lon="-3.67488">
        <ele>210.8</ele>
        <time>2022-12-08T12:13:48Z</time>
      </trkpt>
      <trkpt lat="48.15219" lon="-3.6748">
        <ele>210.7</ele>
        <time>2022-12-08T12:13:49Z</time>
      </trkpt>
      <trkpt lat="48.1522" lon="-3.67473">
        <ele>210.6</ele>
        <time>2022-12-08T12:13:50Z</time>
      </trkpt>
      <trkpt lat="48.1522" lon="-3.67466">
        <ele>210.4</ele>
        <time>2022-12-08T12:13:51Z</time>
      </trkpt>
      <trkpt lat="48.1522" lon="-3.67458">
        <ele>210.3</ele>
        <time>2022-12-08T12:13:52Z</time>
      </trkpt>
      <trkpt lat="48.1522" lon="-3.6745">
        <ele>210.2</ele>
        <time>2022-12-08T12:13:53Z</time>
      </trkpt>
      <trkpt lat="48.1522" lon="-3.67443">
        <ele>210.2</ele>
        <time>2022-12-08T12:13:54Z</time>
      </trkpt>
      <trkpt lat="48.1522" lon="-3.67436">
        <ele>210.1</ele>
        <time>2022-12-08T12:13:55Z</time>
      </trkpt>
      <trkpt lat="48.15221" lon="-3.6743">
        <ele>210</ele>
        <time>2022-12-08T12:13:56Z</time>
      </trkpt>
      <trkpt lat="48.15221" lon="-3.67422">
        <ele>210</ele>
        <time>2022-12-08T12:13:57Z</time>
      </trkpt>
      <trkpt lat="48.15221" lon="-3.67418">
        <ele>210</ele>
        <time>2022-12-08T12:13:58Z</time>
      </trkpt>
      <trkpt lat="48.1522" lon="-3.67403">
        <ele>209.8</ele>
        <time>2022-12-08T12:14:00Z</time>
      </trkpt>
      <trkpt lat="48.15219" lon="-3.67396">
        <ele>209.8</ele>
        <time>2022-12-08T12:14:02Z</time>
      </trkpt>
      <trkpt lat="48.15219" lon="-3.67386">
        <ele>209.7</ele>
        <time>2022-12-08T12:14:03Z</time>
      </trkpt>
      <trkpt lat="48.15219" lon="-3.67378">
        <ele>209.6</ele>
        <time>2022-12-08T12:14:04Z</time>
      </trkpt>
      <trkpt lat="48.15219" lon="-3.67373">
        <ele>209.6</ele>
        <time>2022-12-08T12:14:05Z</time>
      </trkpt>
      <trkpt lat="48.15219" lon="-3.67364">
        <ele>209.4</ele>
        <time>2022-12-08T12:14:07Z</time>
      </trkpt>
      <trkpt lat="48.15218" lon="-3.67358">
        <ele>209.3</ele>
        <time>2022-12-08T12:14:08Z</time>
      </trkpt>
      <trkpt lat="48.15216" lon="-3.6735">
        <ele>209.1</ele>
        <time>2022-12-08T12:14:09Z</time>
      </trkpt>
      <trkpt lat="48.15214" lon="-3.67344">
        <ele>208.8</ele>
        <time>2022-12-08T12:14:10Z</time>
      </trkpt>
      <trkpt lat="48.15212" lon="-3.67338">
        <ele>208.6</ele>
        <time>2022-12-08T12:14:11Z</time>
      </trkpt>
      <trkpt lat="48.15208" lon="-3.67331">
        <ele>208.2</ele>
        <time>2022-12-08T12:14:12Z</time>
      </trkpt>
      <trkpt lat="48.15205" lon="-3.67323">
        <ele>207.9</ele>
        <time>2022-12-08T12:14:13Z</time>
      </trkpt>
      <trkpt lat="48.15202" lon="-3.67316">
        <ele>207.5</ele>
        <time>2022-12-08T12:14:14Z</time>
      </trkpt>
      <trkpt lat="48.15199" lon="-3.67308">
        <ele>207.2</ele>
        <time>2022-12-08T12:14:15Z</time>
      </trkpt>
      <trkpt lat="48.15196" lon="-3.673">
        <ele>207</ele>
        <time>2022-12-08T12:14:16Z</time>
      </trkpt>
      <trkpt lat="48.15194" lon="-3.67292">
        <ele>206.7</ele>
        <time>2022-12-08T12:14:17Z</time>
      </trkpt>
      <trkpt lat="48.15192" lon="-3.67284">
        <ele>206.5</ele>
        <time>2022-12-08T12:14:18Z</time>
      </trkpt>
      <trkpt lat="48.15189" lon="-3.67276">
        <ele>206.3</ele>
        <time>2022-12-08T12:14:19Z</time>
      </trkpt>
      <trkpt lat="48.15187" lon="-3.67268">
        <ele>206.1</ele>
        <time>2022-12-08T12:14:20Z</time>
      </trkpt>
      <trkpt lat="48.15185" lon="-3.6726">
        <ele>205.8</ele>
        <time>2022-12-08T12:14:21Z</time>
      </trkpt>
      <trkpt lat="48.15183" lon="-3.67252">
        <ele>205.6</ele>
        <time>2022-12-08T12:14:22Z</time>
      </trkpt>
      <trkpt lat="48.1518" lon="-3.67244">
        <ele>205.4</ele>
        <time>2022-12-08T12:14:23Z</time>
      </trkpt>
      <trkpt lat="48.15177" lon="-3.67236">
        <ele>205.2</ele>
        <time>2022-12-08T12:14:24Z</time>
      </trkpt>
      <trkpt lat="48.15175" lon="-3.67228">
        <ele>205</ele>
        <time>2022-12-08T12:14:25Z</time>
      </trkpt>
      <trkpt lat="48.15174" lon="-3.67219">
        <ele>204.7</ele>
        <time>2022-12-08T12:14:26Z</time>
      </trkpt>
      <trkpt lat="48.15172" lon="-3.67211">
        <ele>204.5</ele>
        <time>2022-12-08T12:14:27Z</time>
      </trkpt>
      <trkpt lat="48.1517" lon="-3.67202">
        <ele>204.2</ele>
        <time>2022-12-08T12:14:28Z</time>
      </trkpt>
      <trkpt lat="48.15168" lon="-3.67194">
        <ele>203.9</ele>
        <time>2022-12-08T12:14:29Z</time>
      </trkpt>
      <trkpt lat="48.15165" lon="-3.67187">
        <ele>203.7</ele>
        <time>2022-12-08T12:14:30Z</time>
      </trkpt>
      <trkpt lat="48.15162" lon="-3.6718">
        <ele>203.3</ele>
        <time>2022-12-08T12:14:31Z</time>
      </trkpt>
      <trkpt lat="48.15159" lon="-3.67174">
        <ele>203</ele>
        <time>2022-12-08T12:14:32Z</time>
      </trkpt>
      <trkpt lat="48.15155" lon="-3.67167">
        <ele>202.7</ele>
        <time>2022-12-08T12:14:33Z</time>
      </trkpt>
      <trkpt lat="48.15152" lon="-3.67159">
        <ele>202.3</ele>
        <time>2022-12-08T12:14:34Z</time>
      </trkpt>
      <trkpt lat="48.15149" lon="-3.67152">
        <ele>202</ele>
        <time>2022-12-08T12:14:35Z</time>
      </trkpt>
      <trkpt lat="48.15146" lon="-3.67144">
        <ele>201.7</ele>
        <time>2022-12-08T12:14:36Z</time>
      </trkpt>
      <trkpt lat="48.15143" lon="-3.67137">
        <ele>201.3</ele>
        <time>2022-12-08T12:14:37Z</time>
      </trkpt>
      <trkpt lat="48.15141" lon="-3.67128">
        <ele>201.1</ele>
        <time>2022-12-08T12:14:38Z</time>
      </trkpt>
      <trkpt lat="48.15138" lon="-3.6712">
        <ele>200.8</ele>
        <time>2022-12-08T12:14:39Z</time>
      </trkpt>
      <trkpt lat="48.15136" lon="-3.67113">
        <ele>200.5</ele>
        <time>2022-12-08T12:14:40Z</time>
      </trkpt>
      <trkpt lat="48.15133" lon="-3.67105">
        <ele>200.3</ele>
        <time>2022-12-08T12:14:41Z</time>
      </trkpt>
      <trkpt lat="48.1513" lon="-3.67097">
        <ele>200</ele>
        <time>2022-12-08T12:14:42Z</time>
      </trkpt>
      <trkpt lat="48.15127" lon="-3.67089">
        <ele>199.8</ele>
        <time>2022-12-08T12:14:43Z</time>
      </trkpt>
      <trkpt lat="48.15125" lon="-3.67081">
        <ele>199.6</ele>
        <time>2022-12-08T12:14:44Z</time>
      </trkpt>
      <trkpt lat="48.15122" lon="-3.67073">
        <ele>199.5</ele>
        <time>2022-12-08T12:14:45Z</time>
      </trkpt>
      <trkpt lat="48.1512" lon="-3.67065">
        <ele>199.4</ele>
        <time>2022-12-08T12:14:46Z</time>
      </trkpt>
      <trkpt lat="48.15118" lon="-3.67057">
        <ele>199.3</ele>
        <time>2022-12-08T12:14:47Z</time>
      </trkpt>
      <trkpt lat="48.15117" lon="-3.67049">
        <ele>199.3</ele>
        <time>2022-12-08T12:14:48Z</time>
      </trkpt>
      <trkpt lat="48.15115" lon="-3.67042">
        <ele>199.2</ele>
        <time>2022-12-08T12:14:49Z</time>
      </trkpt>
      <trkpt lat="48.15114" lon="-3.67035">
        <ele>199.2</ele>
        <time>2022-12-08T12:14:50Z</time>
      </trkpt>
      <trkpt lat="48.15112" lon="-3.67027">
        <ele>199.1</ele>
        <time>2022-12-08T12:14:51Z</time>
      </trkpt>
      <trkpt lat="48.15111" lon="-3.67019">
        <ele>199.1</ele>
        <time>2022-12-08T12:14:52Z</time>
      </trkpt>
      <trkpt lat="48.15109" lon="-3.67012">
        <ele>199.2</ele>
        <time>2022-12-08T12:14:53Z</time>
      </trkpt>
      <trkpt lat="48.15108" lon="-3.67005">
        <ele>199.2</ele>
        <time>2022-12-08T12:14:54Z</time>
      </trkpt>
      <trkpt lat="48.15107" lon="-3.66998">
        <ele>199.2</ele>
        <time>2022-12-08T12:14:55Z</time>
      </trkpt>
      <trkpt lat="48.15107" lon="-3.66991">
        <ele>199.2</ele>
        <time>2022-12-08T12:14:56Z</time>
      </trkpt>
      <trkpt lat="48.15106" lon="-3.66984">
        <ele>199.2</ele>
        <time>2022-12-08T12:14:57Z</time>
      </trkpt>
      <trkpt lat="48.15106" lon="-3.66978">
        <ele>199.2</ele>
        <time>2022-12-08T12:14:58Z</time>
      </trkpt>
      <trkpt lat="48.15105" lon="-3.66972">
        <ele>199.2</ele>
        <time>2022-12-08T12:14:59Z</time>
      </trkpt>
      <trkpt lat="48.15103" lon="-3.66965">
        <ele>199.1</ele>
        <time>2022-12-08T12:15:00Z</time>
      </trkpt>
      <trkpt lat="48.15102" lon="-3.66958">
        <ele>199</ele>
        <time>2022-12-08T12:15:01Z</time>
      </trkpt>
      <trkpt lat="48.15101" lon="-3.66951">
        <ele>198.9</ele>
        <time>2022-12-08T12:15:02Z</time>
      </trkpt>
      <trkpt lat="48.151" lon="-3.66943">
        <ele>198.8</ele>
        <time>2022-12-08T12:15:03Z</time>
      </trkpt>
      <trkpt lat="48.15099" lon="-3.66935">
        <ele>198.7</ele>
        <time>2022-12-08T12:15:04Z</time>
      </trkpt>
      <trkpt lat="48.15098" lon="-3.66927">
        <ele>198.5</ele>
        <time>2022-12-08T12:15:05Z</time>
      </trkpt>
      <trkpt lat="48.15097" lon="-3.66919">
        <ele>198.4</ele>
        <time>2022-12-08T12:15:06Z</time>
      </trkpt>
      <trkpt lat="48.15096" lon="-3.6691">
        <ele>198.2</ele>
        <time>2022-12-08T12:15:07Z</time>
      </trkpt>
      <trkpt lat="48.15095" lon="-3.66902">
        <ele>198.1</ele>
        <time>2022-12-08T12:15:08Z</time>
      </trkpt>
      <trkpt lat="48.15095" lon="-3.66893">
        <ele>198</ele>
        <time>2022-12-08T12:15:09Z</time>
      </trkpt>
      <trkpt lat="48.15094" lon="-3.66884">
        <ele>197.9</ele>
        <time>2022-12-08T12:15:10Z</time>
      </trkpt>
      <trkpt lat="48.15093" lon="-3.66876">
        <ele>197.8</ele>
        <time>2022-12-08T12:15:11Z</time>
      </trkpt>
      <trkpt lat="48.15092" lon="-3.66867">
        <ele>197.7</ele>
        <time>2022-12-08T12:15:12Z</time>
      </trkpt>
      <trkpt lat="48.15091" lon="-3.66859">
        <ele>197.6</ele>
        <time>2022-12-08T12:15:13Z</time>
      </trkpt>
      <trkpt lat="48.15091" lon="-3.6685">
        <ele>197.6</ele>
        <time>2022-12-08T12:15:14Z</time>
      </trkpt>
      <trkpt lat="48.1509" lon="-3.66841">
        <ele>197.5</ele>
        <time>2022-12-08T12:15:15Z</time>
      </trkpt>
      <trkpt lat="48.15089" lon="-3.66832">
        <ele>197.4</ele>
        <time>2022-12-08T12:15:16Z</time>
      </trkpt>
      <trkpt lat="48.15088" lon="-3.66823">
        <ele>197.3</ele>
        <time>2022-12-08T12:15:17Z</time>
      </trkpt>
      <trkpt lat="48.15087" lon="-3.66814">
        <ele>197.3</ele>
        <time>2022-12-08T12:15:18Z</time>
      </trkpt>
      <trkpt lat="48.15086" lon="-3.66805">
        <ele>197.3</ele>
        <time>2022-12-08T12:15:19Z</time>
      </trkpt>
      <trkpt lat="48.15085" lon="-3.66796">
        <ele>197.3</ele>
        <time>2022-12-08T12:15:20Z</time>
      </trkpt>
      <trkpt lat="48.15084" lon="-3.66788">
        <ele>197.3</ele>
        <time>2022-12-08T12:15:21Z</time>
      </trkpt>
      <trkpt lat="48.15083" lon="-3.6678">
        <ele>197.3</ele>
        <time>2022-12-08T12:15:22Z</time>
      </trkpt>
      <trkpt lat="48.15082" lon="-3.66772">
        <ele>197.3</ele>
        <time>2022-12-08T12:15:23Z</time>
      </trkpt>
      <trkpt lat="48.15081" lon="-3.66764">
        <ele>197.3</ele>
        <time>2022-12-08T12:15:24Z</time>
      </trkpt>
      <trkpt lat="48.1508" lon="-3.66756">
        <ele>197.3</ele>
        <time>2022-12-08T12:15:25Z</time>
      </trkpt>
      <trkpt lat="48.15079" lon="-3.66748">
        <ele>197.3</ele>
        <time>2022-12-08T12:15:26Z</time>
      </trkpt>
      <trkpt lat="48.15078" lon="-3.6674">
        <ele>197.3</ele>
        <time>2022-12-08T12:15:27Z</time>
      </trkpt>
      <trkpt lat="48.15077" lon="-3.66732">
        <ele>197.3</ele>
        <time>2022-12-08T12:15:28Z</time>
      </trkpt>
      <trkpt lat="48.15076" lon="-3.66725">
        <ele>197.3</ele>
        <time>2022-12-08T12:15:29Z</time>
      </trkpt>
      <trkpt lat="48.15076" lon="-3.66717">
        <ele>197.3</ele>
        <time>2022-12-08T12:15:30Z</time>
      </trkpt>
      <trkpt lat="48.15076" lon="-3.6671">
        <ele>197.3</ele>
        <time>2022-12-08T12:15:31Z</time>
      </trkpt>
      <trkpt lat="48.15075" lon="-3.66703">
        <ele>197.3</ele>
        <time>2022-12-08T12:15:32Z</time>
      </trkpt>
      <trkpt lat="48.15075" lon="-3.66695">
        <ele>197.3</ele>
        <time>2022-12-08T12:15:33Z</time>
      </trkpt>
      <trkpt lat="48.15076" lon="-3.66687">
        <ele>197.3</ele>
        <time>2022-12-08T12:15:34Z</time>
      </trkpt>
      <trkpt lat="48.15076" lon="-3.6668">
        <ele>197.3</ele>
        <time>2022-12-08T12:15:35Z</time>
      </trkpt>
      <trkpt lat="48.15076" lon="-3.66673">
        <ele>197.2</ele>
        <time>2022-12-08T12:15:36Z</time>
      </trkpt>
      <trkpt lat="48.15076" lon="-3.66666">
        <ele>197.2</ele>
        <time>2022-12-08T12:15:37Z</time>
      </trkpt>
      <trkpt lat="48.15076" lon="-3.66659">
        <ele>197.2</ele>
        <time>2022-12-08T12:15:38Z</time>
      </trkpt>
      <trkpt lat="48.15077" lon="-3.66652">
        <ele>197.2</ele>
        <time>2022-12-08T12:15:39Z</time>
      </trkpt>
      <trkpt lat="48.15077" lon="-3.66646">
        <ele>197.3</ele>
        <time>2022-12-08T12:15:40Z</time>
      </trkpt>
      <trkpt lat="48.15078" lon="-3.66638">
        <ele>197.3</ele>
        <time>2022-12-08T12:15:41Z</time>
      </trkpt>
      <trkpt lat="48.15079" lon="-3.6663">
        <ele>197.3</ele>
        <time>2022-12-08T12:15:42Z</time>
      </trkpt>
      <trkpt lat="48.1508" lon="-3.66623">
        <ele>197.3</ele>
        <time>2022-12-08T12:15:43Z</time>
      </trkpt>
      <trkpt lat="48.1508" lon="-3.66616">
        <ele>197.3</ele>
        <time>2022-12-08T12:15:44Z</time>
      </trkpt>
      <trkpt lat="48.15081" lon="-3.6661">
        <ele>197.3</ele>
        <time>2022-12-08T12:15:45Z</time>
      </trkpt>
      <trkpt lat="48.15082" lon="-3.66601">
        <ele>197.3</ele>
        <time>2022-12-08T12:15:46Z</time>
      </trkpt>
      <trkpt lat="48.15083" lon="-3.66597">
        <ele>197.3</ele>
        <time>2022-12-08T12:15:47Z</time>
      </trkpt>
      <trkpt lat="48.15084" lon="-3.66591">
        <ele>197.3</ele>
        <time>2022-12-08T12:15:48Z</time>
      </trkpt>
      <trkpt lat="48.15084" lon="-3.66586">
        <ele>197.3</ele>
        <time>2022-12-08T12:15:49Z</time>
      </trkpt>
      <trkpt lat="48.15085" lon="-3.66579">
        <ele>197.3</ele>
        <time>2022-12-08T12:15:50Z</time>
      </trkpt>
      <trkpt lat="48.15084" lon="-3.66572">
        <ele>197.2</ele>
        <time>2022-12-08T12:15:52Z</time>
      </trkpt>
      <trkpt lat="48.15087" lon="-3.66557">
        <ele>197.2</ele>
        <time>2022-12-08T12:15:53Z</time>
      </trkpt>
      <trkpt lat="48.15088" lon="-3.66549">
        <ele>197.2</ele>
        <time>2022-12-08T12:15:54Z</time>
      </trkpt>
      <trkpt lat="48.15089" lon="-3.66542">
        <ele>197.2</ele>
        <time>2022-12-08T12:15:55Z</time>
      </trkpt>
      <trkpt lat="48.15091" lon="-3.66535">
        <ele>197.2</ele>
        <time>2022-12-08T12:15:56Z</time>
      </trkpt>
      <trkpt lat="48.15093" lon="-3.66529">
        <ele>197.3</ele>
        <time>2022-12-08T12:15:57Z</time>
      </trkpt>
      <trkpt lat="48.15094" lon="-3.66527">
        <ele>197.3</ele>
        <time>2022-12-08T12:15:58Z</time>
      </trkpt>
      <trkpt lat="48.15097" lon="-3.66524">
        <ele>197.3</ele>
        <time>2022-12-08T12:16:00Z</time>
      </trkpt>
      <trkpt lat="48.15102" lon="-3.66522">
        <ele>197.5</ele>
        <time>2022-12-08T12:16:01Z</time>
      </trkpt>
      <trkpt lat="48.15105" lon="-3.66523">
        <ele>197.7</ele>
        <time>2022-12-08T12:16:02Z</time>
      </trkpt>
      <trkpt lat="48.15106" lon="-3.66523">
        <ele>197.7</ele>
        <time>2022-12-08T12:16:03Z</time>
      </trkpt>
      <trkpt lat="48.15108" lon="-3.66521">
        <ele>197.9</ele>
        <time>2022-12-08T12:16:04Z</time>
      </trkpt>
      <trkpt lat="48.15111" lon="-3.66519">
        <ele>198</ele>
        <time>2022-12-08T12:16:05Z</time>
      </trkpt>
      <trkpt lat="48.15114" lon="-3.66517">
        <ele>198.2</ele>
        <time>2022-12-08T12:16:06Z</time>
      </trkpt>
      <trkpt lat="48.15118" lon="-3.66514">
        <ele>198.3</ele>
        <time>2022-12-08T12:16:07Z</time>
      </trkpt>
      <trkpt lat="48.15121" lon="-3.66511">
        <ele>198.5</ele>
        <time>2022-12-08T12:16:08Z</time>
      </trkpt>
      <trkpt lat="48.15124" lon="-3.66508">
        <ele>198.7</ele>
        <time>2022-12-08T12:16:09Z</time>
      </trkpt>
      <trkpt lat="48.15127" lon="-3.66506">
        <ele>198.8</ele>
        <time>2022-12-08T12:16:10Z</time>
      </trkpt>
      <trkpt lat="48.15129" lon="-3.66503">
        <ele>198.9</ele>
        <time>2022-12-08T12:16:11Z</time>
      </trkpt>
      <trkpt lat="48.15132" lon="-3.665">
        <ele>199.1</ele>
        <time>2022-12-08T12:16:12Z</time>
      </trkpt>
      <trkpt lat="48.15136" lon="-3.66495">
        <ele>199.4</ele>
        <time>2022-12-08T12:16:14Z</time>
      </trkpt>
      <trkpt lat="48.1514" lon="-3.66491">
        <ele>199.7</ele>
        <time>2022-12-08T12:16:15Z</time>
      </trkpt>
      <trkpt lat="48.15143" lon="-3.66488">
        <ele>200</ele>
        <time>2022-12-08T12:16:16Z</time>
      </trkpt>
      <trkpt lat="48.15147" lon="-3.66485">
        <ele>200.2</ele>
        <time>2022-12-08T12:16:18Z</time>
      </trkpt>
      <trkpt lat="48.1515" lon="-3.6648">
        <ele>200.5</ele>
        <time>2022-12-08T12:16:19Z</time>
      </trkpt>
      <trkpt lat="48.15153" lon="-3.66478">
        <ele>200.7</ele>
        <time>2022-12-08T12:16:20Z</time>
      </trkpt>
      <trkpt lat="48.15156" lon="-3.66475">
        <ele>200.9</ele>
        <time>2022-12-08T12:16:21Z</time>
      </trkpt>
      <trkpt lat="48.15159" lon="-3.66472">
        <ele>201.1</ele>
        <time>2022-12-08T12:16:22Z</time>
      </trkpt>
      <trkpt lat="48.15161" lon="-3.66468">
        <ele>201.3</ele>
        <time>2022-12-08T12:16:23Z</time>
      </trkpt>
      <trkpt lat="48.15164" lon="-3.66466">
        <ele>201.4</ele>
        <time>2022-12-08T12:16:24Z</time>
      </trkpt>
      <trkpt lat="48.15166" lon="-3.66464">
        <ele>201.5</ele>
        <time>2022-12-08T12:16:25Z</time>
      </trkpt>
      <trkpt lat="48.15169" lon="-3.66462">
        <ele>201.6</ele>
        <time>2022-12-08T12:16:26Z</time>
      </trkpt>
      <trkpt lat="48.15172" lon="-3.66459">
        <ele>201.7</ele>
        <time>2022-12-08T12:16:27Z</time>
      </trkpt>
      <trkpt lat="48.15174" lon="-3.66457">
        <ele>201.8</ele>
        <time>2022-12-08T12:16:28Z</time>
      </trkpt>
      <trkpt lat="48.15178" lon="-3.66453">
        <ele>202</ele>
        <time>2022-12-08T12:16:30Z</time>
      </trkpt>
      <trkpt lat="48.15181" lon="-3.6645">
        <ele>202.1</ele>
        <time>2022-12-08T12:16:31Z</time>
      </trkpt>
      <trkpt lat="48.15185" lon="-3.66448">
        <ele>202.3</ele>
        <time>2022-12-08T12:16:32Z</time>
      </trkpt>
      <trkpt lat="48.15189" lon="-3.66444">
        <ele>202.5</ele>
        <time>2022-12-08T12:16:34Z</time>
      </trkpt>
      <trkpt lat="48.15193" lon="-3.6644">
        <ele>202.8</ele>
        <time>2022-12-08T12:16:35Z</time>
      </trkpt>
      <trkpt lat="48.15196" lon="-3.66437">
        <ele>202.9</ele>
        <time>2022-12-08T12:16:36Z</time>
      </trkpt>
      <trkpt lat="48.15198" lon="-3.66435">
        <ele>203.1</ele>
        <time>2022-12-08T12:16:37Z</time>
      </trkpt>
      <trkpt lat="48.15201" lon="-3.66433">
        <ele>203.3</ele>
        <time>2022-12-08T12:16:38Z</time>
      </trkpt>
      <trkpt lat="48.15205" lon="-3.66429">
        <ele>203.6</ele>
        <time>2022-12-08T12:16:40Z</time>
      </trkpt>
      <trkpt lat="48.15208" lon="-3.66425">
        <ele>203.9</ele>
        <time>2022-12-08T12:16:41Z</time>
      </trkpt>
      <trkpt lat="48.15212" lon="-3.66421">
        <ele>204.2</ele>
        <time>2022-12-08T12:16:43Z</time>
      </trkpt>
      <trkpt lat="48.15217" lon="-3.66417">
        <ele>204.6</ele>
        <time>2022-12-08T12:16:44Z</time>
      </trkpt>
      <trkpt lat="48.15222" lon="-3.66412">
        <ele>205</ele>
        <time>2022-12-08T12:16:46Z</time>
      </trkpt>
      <trkpt lat="48.15225" lon="-3.66408">
        <ele>205.3</ele>
        <time>2022-12-08T12:16:48Z</time>
      </trkpt>
      <trkpt lat="48.15228" lon="-3.66405">
        <ele>205.5</ele>
        <time>2022-12-08T12:16:49Z</time>
      </trkpt>
      <trkpt lat="48.15231" lon="-3.66403">
        <ele>205.7</ele>
        <time>2022-12-08T12:16:50Z</time>
      </trkpt>
      <trkpt lat="48.15234" lon="-3.66401">
        <ele>206</ele>
        <time>2022-12-08T12:16:51Z</time>
      </trkpt>
      <trkpt lat="48.15238" lon="-3.66397">
        <ele>206.3</ele>
        <time>2022-12-08T12:16:52Z</time>
      </trkpt>
      <trkpt lat="48.1524" lon="-3.66394">
        <ele>206.5</ele>
        <time>2022-12-08T12:16:53Z</time>
      </trkpt>
      <trkpt lat="48.15242" lon="-3.66392">
        <ele>206.6</ele>
        <time>2022-12-08T12:16:54Z</time>
      </trkpt>
      <trkpt lat="48.15246" lon="-3.66389">
        <ele>206.9</ele>
        <time>2022-12-08T12:16:56Z</time>
      </trkpt>
      <trkpt lat="48.15249" lon="-3.66385">
        <ele>207.2</ele>
        <time>2022-12-08T12:16:57Z</time>
      </trkpt>
      <trkpt lat="48.15252" lon="-3.66382">
        <ele>207.4</ele>
        <time>2022-12-08T12:16:58Z</time>
      </trkpt>
      <trkpt lat="48.15255" lon="-3.66378">
        <ele>207.7</ele>
        <time>2022-12-08T12:16:59Z</time>
      </trkpt>
      <trkpt lat="48.15258" lon="-3.66376">
        <ele>207.9</ele>
        <time>2022-12-08T12:17:00Z</time>
      </trkpt>
      <trkpt lat="48.1526" lon="-3.66373">
        <ele>208.2</ele>
        <time>2022-12-08T12:17:01Z</time>
      </trkpt>
      <trkpt lat="48.15263" lon="-3.6637">
        <ele>208.4</ele>
        <time>2022-12-08T12:17:02Z</time>
      </trkpt>
      <trkpt lat="48.15266" lon="-3.66367">
        <ele>208.8</ele>
        <time>2022-12-08T12:17:04Z</time>
      </trkpt>
      <trkpt lat="48.15269" lon="-3.66364">
        <ele>209</ele>
        <time>2022-12-08T12:17:05Z</time>
      </trkpt>
      <trkpt lat="48.15272" lon="-3.6636">
        <ele>209.4</ele>
        <time>2022-12-08T12:17:06Z</time>
      </trkpt>
      <trkpt lat="48.15275" lon="-3.66355">
        <ele>209.8</ele>
        <time>2022-12-08T12:17:08Z</time>
      </trkpt>
      <trkpt lat="48.15277" lon="-3.66352">
        <ele>210.1</ele>
        <time>2022-12-08T12:17:09Z</time>
      </trkpt>
      <trkpt lat="48.1528" lon="-3.66348">
        <ele>210.5</ele>
        <time>2022-12-08T12:17:10Z</time>
      </trkpt>
      <trkpt lat="48.15284" lon="-3.66343">
        <ele>210.9</ele>
        <time>2022-12-08T12:17:12Z</time>
      </trkpt>
      <trkpt lat="48.15287" lon="-3.66339">
        <ele>211.2</ele>
        <time>2022-12-08T12:17:13Z</time>
      </trkpt>
      <trkpt lat="48.15289" lon="-3.66336">
        <ele>211.5</ele>
        <time>2022-12-08T12:17:14Z</time>
      </trkpt>
      <trkpt lat="48.15291" lon="-3.66333">
        <ele>211.8</ele>
        <time>2022-12-08T12:17:16Z</time>
      </trkpt>
      <trkpt lat="48.15293" lon="-3.6633">
        <ele>212</ele>
        <time>2022-12-08T12:17:17Z</time>
      </trkpt>
      <trkpt lat="48.15296" lon="-3.66326">
        <ele>212.3</ele>
        <time>2022-12-08T12:17:18Z</time>
      </trkpt>
      <trkpt lat="48.15297" lon="-3.66324">
        <ele>212.4</ele>
        <time>2022-12-08T12:17:19Z</time>
      </trkpt>
      <trkpt lat="48.15299" lon="-3.66319">
        <ele>212.6</ele>
        <time>2022-12-08T12:17:20Z</time>
      </trkpt>
      <trkpt lat="48.15302" lon="-3.66316">
        <ele>212.9</ele>
        <time>2022-12-08T12:17:21Z</time>
      </trkpt>
      <trkpt lat="48.15303" lon="-3.66314">
        <ele>213</ele>
        <time>2022-12-08T12:17:22Z</time>
      </trkpt>
      <trkpt lat="48.15305" lon="-3.6631">
        <ele>213.2</ele>
        <time>2022-12-08T12:17:23Z</time>
      </trkpt>
      <trkpt lat="48.15306" lon="-3.66308">
        <ele>213.3</ele>
        <time>2022-12-08T12:17:24Z</time>
      </trkpt>
      <trkpt lat="48.15308" lon="-3.66303">
        <ele>213.6</ele>
        <time>2022-12-08T12:17:25Z</time>
      </trkpt>
      <trkpt lat="48.15309" lon="-3.66302">
        <ele>213.6</ele>
        <time>2022-12-08T12:17:26Z</time>
      </trkpt>
      <trkpt lat="48.15312" lon="-3.66298">
        <ele>213.9</ele>
        <time>2022-12-08T12:17:27Z</time>
      </trkpt>
      <trkpt lat="48.15312" lon="-3.66297">
        <ele>214</ele>
        <time>2022-12-08T12:17:28Z</time>
      </trkpt>
      <trkpt lat="48.15315" lon="-3.66292">
        <ele>214.2</ele>
        <time>2022-12-08T12:17:29Z</time>
      </trkpt>
      <trkpt lat="48.15316" lon="-3.66291">
        <ele>214.3</ele>
        <time>2022-12-08T12:17:30Z</time>
      </trkpt>
      <trkpt lat="48.15317" lon="-3.66288">
        <ele>214.5</ele>
        <time>2022-12-08T12:17:32Z</time>
      </trkpt>
      <trkpt lat="48.15319" lon="-3.66283">
        <ele>214.8</ele>
        <time>2022-12-08T12:17:33Z</time>
      </trkpt>
      <trkpt lat="48.15322" lon="-3.66279">
        <ele>215.1</ele>
        <time>2022-12-08T12:17:34Z</time>
      </trkpt>
      <trkpt lat="48.15323" lon="-3.66278">
        <ele>215.2</ele>
        <time>2022-12-08T12:17:35Z</time>
      </trkpt>
      <trkpt lat="48.15325" lon="-3.66274">
        <ele>215.5</ele>
        <time>2022-12-08T12:17:36Z</time>
      </trkpt>
      <trkpt lat="48.15326" lon="-3.66272">
        <ele>215.6</ele>
        <time>2022-12-08T12:17:37Z</time>
      </trkpt>
      <trkpt lat="48.15328" lon="-3.66267">
        <ele>215.9</ele>
        <time>2022-12-08T12:17:38Z</time>
      </trkpt>
      <trkpt lat="48.15328" lon="-3.66266">
        <ele>216</ele>
        <time>2022-12-08T12:17:39Z</time>
      </trkpt>
      <trkpt lat="48.15331" lon="-3.66262">
        <ele>216.4</ele>
        <time>2022-12-08T12:17:40Z</time>
      </trkpt>
      <trkpt lat="48.15332" lon="-3.66261">
        <ele>216.4</ele>
        <time>2022-12-08T12:17:41Z</time>
      </trkpt>
      <trkpt lat="48.15334" lon="-3.66258">
        <ele>216.6</ele>
        <time>2022-12-08T12:17:42Z</time>
      </trkpt>
      <trkpt lat="48.15337" lon="-3.66254">
        <ele>216.9</ele>
        <time>2022-12-08T12:17:43Z</time>
      </trkpt>
      <trkpt lat="48.15338" lon="-3.66253">
        <ele>216.9</ele>
        <time>2022-12-08T12:17:44Z</time>
      </trkpt>
      <trkpt lat="48.1534" lon="-3.66249">
        <ele>217.2</ele>
        <time>2022-12-08T12:17:45Z</time>
      </trkpt>
      <trkpt lat="48.15341" lon="-3.66247">
        <ele>217.3</ele>
        <time>2022-12-08T12:17:46Z</time>
      </trkpt>
      <trkpt lat="48.15344" lon="-3.66244">
        <ele>217.4</ele>
        <time>2022-12-08T12:17:47Z</time>
      </trkpt>
      <trkpt lat="48.15345" lon="-3.66242">
        <ele>217.5</ele>
        <time>2022-12-08T12:17:48Z</time>
      </trkpt>
      <trkpt lat="48.15348" lon="-3.66239">
        <ele>217.7</ele>
        <time>2022-12-08T12:17:49Z</time>
      </trkpt>
      <trkpt lat="48.15348" lon="-3.66238">
        <ele>217.8</ele>
        <time>2022-12-08T12:17:50Z</time>
      </trkpt>
      <trkpt lat="48.15351" lon="-3.66234">
        <ele>218</ele>
        <time>2022-12-08T12:17:51Z</time>
      </trkpt>
      <trkpt lat="48.15353" lon="-3.66232">
        <ele>218.1</ele>
        <time>2022-12-08T12:17:52Z</time>
      </trkpt>
      <trkpt lat="48.15355" lon="-3.6623">
        <ele>218.2</ele>
        <time>2022-12-08T12:17:53Z</time>
      </trkpt>
      <trkpt lat="48.15357" lon="-3.66229">
        <ele>218.3</ele>
        <time>2022-12-08T12:17:54Z</time>
      </trkpt>
      <trkpt lat="48.1536" lon="-3.66226">
        <ele>218.5</ele>
        <time>2022-12-08T12:17:55Z</time>
      </trkpt>
      <trkpt lat="48.15361" lon="-3.66226">
        <ele>218.6</ele>
        <time>2022-12-08T12:17:56Z</time>
      </trkpt>
      <trkpt lat="48.15364" lon="-3.66224">
        <ele>218.7</ele>
        <time>2022-12-08T12:17:57Z</time>
      </trkpt>
      <trkpt lat="48.15366" lon="-3.66222">
        <ele>218.9</ele>
        <time>2022-12-08T12:17:58Z</time>
      </trkpt>
      <trkpt lat="48.15369" lon="-3.6622">
        <ele>219</ele>
        <time>2022-12-08T12:17:59Z</time>
      </trkpt>
      <trkpt lat="48.15372" lon="-3.66219">
        <ele>219.1</ele>
        <time>2022-12-08T12:18:00Z</time>
      </trkpt>
      <trkpt lat="48.15374" lon="-3.66218">
        <ele>219.2</ele>
        <time>2022-12-08T12:18:01Z</time>
      </trkpt>
      <trkpt lat="48.15377" lon="-3.66217">
        <ele>219.3</ele>
        <time>2022-12-08T12:18:02Z</time>
      </trkpt>
      <trkpt lat="48.1538" lon="-3.66216">
        <ele>219.3</ele>
        <time>2022-12-08T12:18:04Z</time>
      </trkpt>
      <trkpt lat="48.15384" lon="-3.66215">
        <ele>219.5</ele>
        <time>2022-12-08T12:18:05Z</time>
      </trkpt>
      <trkpt lat="48.1539" lon="-3.66215">
        <ele>219.6</ele>
        <time>2022-12-08T12:18:07Z</time>
      </trkpt>
      <trkpt lat="48.15394" lon="-3.66214">
        <ele>219.7</ele>
        <time>2022-12-08T12:18:08Z</time>
      </trkpt>
      <trkpt lat="48.15397" lon="-3.66214">
        <ele>219.7</ele>
        <time>2022-12-08T12:18:09Z</time>
      </trkpt>
      <trkpt lat="48.15401" lon="-3.66214">
        <ele>219.7</ele>
        <time>2022-12-08T12:18:10Z</time>
      </trkpt>
      <trkpt lat="48.15404" lon="-3.66214">
        <ele>219.8</ele>
        <time>2022-12-08T12:18:11Z</time>
      </trkpt>
      <trkpt lat="48.15407" lon="-3.66215">
        <ele>219.8</ele>
        <time>2022-12-08T12:18:12Z</time>
      </trkpt>
      <trkpt lat="48.15411" lon="-3.66214">
        <ele>219.8</ele>
        <time>2022-12-08T12:18:13Z</time>
      </trkpt>
      <trkpt lat="48.15414" lon="-3.66213">
        <ele>219.8</ele>
        <time>2022-12-08T12:18:14Z</time>
      </trkpt>
      <trkpt lat="48.1542" lon="-3.66207">
        <ele>219.9</ele>
        <time>2022-12-08T12:18:16Z</time>
      </trkpt>
      <trkpt lat="48.15423" lon="-3.66203">
        <ele>219.9</ele>
        <time>2022-12-08T12:18:17Z</time>
      </trkpt>
      <trkpt lat="48.15425" lon="-3.66199">
        <ele>219.9</ele>
        <time>2022-12-08T12:18:18Z</time>
      </trkpt>
      <trkpt lat="48.15427" lon="-3.66193">
        <ele>219.9</ele>
        <time>2022-12-08T12:18:19Z</time>
      </trkpt>
      <trkpt lat="48.15428" lon="-3.66188">
        <ele>219.9</ele>
        <time>2022-12-08T12:18:20Z</time>
      </trkpt>
      <trkpt lat="48.1543" lon="-3.66183">
        <ele>220</ele>
        <time>2022-12-08T12:18:21Z</time>
      </trkpt>
      <trkpt lat="48.15431" lon="-3.66177">
        <ele>220</ele>
        <time>2022-12-08T12:18:22Z</time>
      </trkpt>
      <trkpt lat="48.15433" lon="-3.66171">
        <ele>220.1</ele>
        <time>2022-12-08T12:18:23Z</time>
      </trkpt>
      <trkpt lat="48.15434" lon="-3.66165">
        <ele>220.1</ele>
        <time>2022-12-08T12:18:24Z</time>
      </trkpt>
      <trkpt lat="48.15434" lon="-3.66159">
        <ele>220.1</ele>
        <time>2022-12-08T12:18:25Z</time>
      </trkpt>
      <trkpt lat="48.15436" lon="-3.66153">
        <ele>220.2</ele>
        <time>2022-12-08T12:18:26Z</time>
      </trkpt>
      <trkpt lat="48.15437" lon="-3.66145">
        <ele>220.2</ele>
        <time>2022-12-08T12:18:27Z</time>
      </trkpt>
      <trkpt lat="48.15438" lon="-3.66142">
        <ele>220.3</ele>
        <time>2022-12-08T12:18:28Z</time>
      </trkpt>
      <trkpt lat="48.15438" lon="-3.66137">
        <ele>220.3</ele>
        <time>2022-12-08T12:18:29Z</time>
      </trkpt>
      <trkpt lat="48.1544" lon="-3.66131">
        <ele>220.3</ele>
        <time>2022-12-08T12:18:30Z</time>
      </trkpt>
      <trkpt lat="48.15441" lon="-3.66123">
        <ele>220.3</ele>
        <time>2022-12-08T12:18:31Z</time>
      </trkpt>
      <trkpt lat="48.15443" lon="-3.66117">
        <ele>220.3</ele>
        <time>2022-12-08T12:18:32Z</time>
      </trkpt>
      <trkpt lat="48.15444" lon="-3.66111">
        <ele>220.3</ele>
        <time>2022-12-08T12:18:33Z</time>
      </trkpt>
      <trkpt lat="48.15446" lon="-3.66104">
        <ele>220.3</ele>
        <time>2022-12-08T12:18:34Z</time>
      </trkpt>
      <trkpt lat="48.15448" lon="-3.66097">
        <ele>220.3</ele>
        <time>2022-12-08T12:18:35Z</time>
      </trkpt>
      <trkpt lat="48.15449" lon="-3.6609">
        <ele>220.3</ele>
        <time>2022-12-08T12:18:36Z</time>
      </trkpt>
      <trkpt lat="48.15451" lon="-3.66083">
        <ele>220.4</ele>
        <time>2022-12-08T12:18:37Z</time>
      </trkpt>
      <trkpt lat="48.15452" lon="-3.66076">
        <ele>220.4</ele>
        <time>2022-12-08T12:18:38Z</time>
      </trkpt>
      <trkpt lat="48.15454" lon="-3.66069">
        <ele>220.3</ele>
        <time>2022-12-08T12:18:39Z</time>
      </trkpt>
      <trkpt lat="48.15455" lon="-3.66063">
        <ele>220.3</ele>
        <time>2022-12-08T12:18:40Z</time>
      </trkpt>
      <trkpt lat="48.15457" lon="-3.66056">
        <ele>220.3</ele>
        <time>2022-12-08T12:18:41Z</time>
      </trkpt>
      <trkpt lat="48.15459" lon="-3.66049">
        <ele>220.2</ele>
        <time>2022-12-08T12:18:42Z</time>
      </trkpt>
      <trkpt lat="48.15461" lon="-3.66041">
        <ele>220.1</ele>
        <time>2022-12-08T12:18:43Z</time>
      </trkpt>
      <trkpt lat="48.15463" lon="-3.66034">
        <ele>220</ele>
        <time>2022-12-08T12:18:44Z</time>
      </trkpt>
      <trkpt lat="48.15465" lon="-3.66027">
        <ele>220</ele>
        <time>2022-12-08T12:18:45Z</time>
      </trkpt>
      <trkpt lat="48.15467" lon="-3.6602">
        <ele>219.9</ele>
        <time>2022-12-08T12:18:46Z</time>
      </trkpt>
      <trkpt lat="48.15469" lon="-3.66012">
        <ele>219.9</ele>
        <time>2022-12-08T12:18:47Z</time>
      </trkpt>
      <trkpt lat="48.15472" lon="-3.66005">
        <ele>219.8</ele>
        <time>2022-12-08T12:18:48Z</time>
      </trkpt>
      <trkpt lat="48.15474" lon="-3.65998">
        <ele>219.8</ele>
        <time>2022-12-08T12:18:49Z</time>
      </trkpt>
      <trkpt lat="48.15477" lon="-3.65991">
        <ele>219.8</ele>
        <time>2022-12-08T12:18:50Z</time>
      </trkpt>
      <trkpt lat="48.15479" lon="-3.65983">
        <ele>219.7</ele>
        <time>2022-12-08T12:18:51Z</time>
      </trkpt>
      <trkpt lat="48.15482" lon="-3.65976">
        <ele>219.7</ele>
        <time>2022-12-08T12:18:52Z</time>
      </trkpt>
      <trkpt lat="48.15484" lon="-3.65968">
        <ele>219.7</ele>
        <time>2022-12-08T12:18:53Z</time>
      </trkpt>
      <trkpt lat="48.15488" lon="-3.6596">
        <ele>219.6</ele>
        <time>2022-12-08T12:18:54Z</time>
      </trkpt>
      <trkpt lat="48.1549" lon="-3.65953">
        <ele>219.5</ele>
        <time>2022-12-08T12:18:55Z</time>
      </trkpt>
      <trkpt lat="48.15493" lon="-3.65945">
        <ele>219.5</ele>
        <time>2022-12-08T12:18:56Z</time>
      </trkpt>
      <trkpt lat="48.15496" lon="-3.65937">
        <ele>219.4</ele>
        <time>2022-12-08T12:18:57Z</time>
      </trkpt>
      <trkpt lat="48.15499" lon="-3.65929">
        <ele>219.4</ele>
        <time>2022-12-08T12:18:58Z</time>
      </trkpt>
      <trkpt lat="48.15502" lon="-3.65921">
        <ele>219.3</ele>
        <time>2022-12-08T12:18:59Z</time>
      </trkpt>
      <trkpt lat="48.15505" lon="-3.65914">
        <ele>219.3</ele>
        <time>2022-12-08T12:19:00Z</time>
      </trkpt>
      <trkpt lat="48.15508" lon="-3.65906">
        <ele>219.2</ele>
        <time>2022-12-08T12:19:01Z</time>
      </trkpt>
      <trkpt lat="48.15511" lon="-3.65898">
        <ele>219.1</ele>
        <time>2022-12-08T12:19:02Z</time>
      </trkpt>
      <trkpt lat="48.15514" lon="-3.6589">
        <ele>219</ele>
        <time>2022-12-08T12:19:03Z</time>
      </trkpt>
      <trkpt lat="48.15517" lon="-3.65882">
        <ele>219</ele>
        <time>2022-12-08T12:19:04Z</time>
      </trkpt>
      <trkpt lat="48.1552" lon="-3.65874">
        <ele>218.9</ele>
        <time>2022-12-08T12:19:05Z</time>
      </trkpt>
      <trkpt lat="48.15523" lon="-3.65866">
        <ele>218.9</ele>
        <time>2022-12-08T12:19:06Z</time>
      </trkpt>
      <trkpt lat="48.15526" lon="-3.65858">
        <ele>218.9</ele>
        <time>2022-12-08T12:19:07Z</time>
      </trkpt>
      <trkpt lat="48.15528" lon="-3.6585">
        <ele>218.9</ele>
        <time>2022-12-08T12:19:08Z</time>
      </trkpt>
      <trkpt lat="48.1553" lon="-3.65842">
        <ele>218.9</ele>
        <time>2022-12-08T12:19:09Z</time>
      </trkpt>
      <trkpt lat="48.15533" lon="-3.65834">
        <ele>218.9</ele>
        <time>2022-12-08T12:19:10Z</time>
      </trkpt>
      <trkpt lat="48.15535" lon="-3.65825">
        <ele>219</ele>
        <time>2022-12-08T12:19:11Z</time>
      </trkpt>
      <trkpt lat="48.15537" lon="-3.65817">
        <ele>219</ele>
        <time>2022-12-08T12:19:12Z</time>
      </trkpt>
      <trkpt lat="48.15539" lon="-3.65809">
        <ele>219</ele>
        <time>2022-12-08T12:19:13Z</time>
      </trkpt>
      <trkpt lat="48.15541" lon="-3.65801">
        <ele>219</ele>
        <time>2022-12-08T12:19:14Z</time>
      </trkpt>
      <trkpt lat="48.15542" lon="-3.65793">
        <ele>219</ele>
        <time>2022-12-08T12:19:15Z</time>
      </trkpt>
      <trkpt lat="48.15543" lon="-3.65784">
        <ele>218.9</ele>
        <time>2022-12-08T12:19:16Z</time>
      </trkpt>
      <trkpt lat="48.15545" lon="-3.65776">
        <ele>218.9</ele>
        <time>2022-12-08T12:19:17Z</time>
      </trkpt>
      <trkpt lat="48.15547" lon="-3.65768">
        <ele>218.9</ele>
        <time>2022-12-08T12:19:18Z</time>
      </trkpt>
      <trkpt lat="48.15549" lon="-3.65759">
        <ele>218.8</ele>
        <time>2022-12-08T12:19:19Z</time>
      </trkpt>
      <trkpt lat="48.1555" lon="-3.65751">
        <ele>218.9</ele>
        <time>2022-12-08T12:19:20Z</time>
      </trkpt>
      <trkpt lat="48.15552" lon="-3.65742">
        <ele>218.9</ele>
        <time>2022-12-08T12:19:21Z</time>
      </trkpt>
      <trkpt lat="48.15553" lon="-3.65734">
        <ele>218.8</ele>
        <time>2022-12-08T12:19:22Z</time>
      </trkpt>
      <trkpt lat="48.15555" lon="-3.65725">
        <ele>218.8</ele>
        <time>2022-12-08T12:19:23Z</time>
      </trkpt>
      <trkpt lat="48.15557" lon="-3.65717">
        <ele>218.7</ele>
        <time>2022-12-08T12:19:24Z</time>
      </trkpt>
      <trkpt lat="48.15558" lon="-3.65709">
        <ele>218.7</ele>
        <time>2022-12-08T12:19:25Z</time>
      </trkpt>
      <trkpt lat="48.1556" lon="-3.65701">
        <ele>218.6</ele>
        <time>2022-12-08T12:19:26Z</time>
      </trkpt>
      <trkpt lat="48.15561" lon="-3.65693">
        <ele>218.6</ele>
        <time>2022-12-08T12:19:27Z</time>
      </trkpt>
      <trkpt lat="48.15563" lon="-3.65684">
        <ele>218.6</ele>
        <time>2022-12-08T12:19:28Z</time>
      </trkpt>
      <trkpt lat="48.15564" lon="-3.65676">
        <ele>218.6</ele>
        <time>2022-12-08T12:19:29Z</time>
      </trkpt>
      <trkpt lat="48.15566" lon="-3.65667">
        <ele>218.7</ele>
        <time>2022-12-08T12:19:30Z</time>
      </trkpt>
      <trkpt lat="48.15568" lon="-3.65659">
        <ele>218.7</ele>
        <time>2022-12-08T12:19:31Z</time>
      </trkpt>
      <trkpt lat="48.1557" lon="-3.65651">
        <ele>218.7</ele>
        <time>2022-12-08T12:19:32Z</time>
      </trkpt>
      <trkpt lat="48.15571" lon="-3.65643">
        <ele>218.6</ele>
        <time>2022-12-08T12:19:33Z</time>
      </trkpt>
      <trkpt lat="48.15572" lon="-3.65635">
        <ele>218.5</ele>
        <time>2022-12-08T12:19:34Z</time>
      </trkpt>
      <trkpt lat="48.15574" lon="-3.65627">
        <ele>218.5</ele>
        <time>2022-12-08T12:19:35Z</time>
      </trkpt>
      <trkpt lat="48.15576" lon="-3.65619">
        <ele>218.4</ele>
        <time>2022-12-08T12:19:36Z</time>
      </trkpt>
      <trkpt lat="48.15577" lon="-3.65611">
        <ele>218.4</ele>
        <time>2022-12-08T12:19:37Z</time>
      </trkpt>
      <trkpt lat="48.15578" lon="-3.65603">
        <ele>218.3</ele>
        <time>2022-12-08T12:19:38Z</time>
      </trkpt>
      <trkpt lat="48.1558" lon="-3.65595">
        <ele>218.3</ele>
        <time>2022-12-08T12:19:39Z</time>
      </trkpt>
      <trkpt lat="48.15581" lon="-3.65587">
        <ele>218.3</ele>
        <time>2022-12-08T12:19:40Z</time>
      </trkpt>
      <trkpt lat="48.15583" lon="-3.65579">
        <ele>218.4</ele>
        <time>2022-12-08T12:19:41Z</time>
      </trkpt>
      <trkpt lat="48.15585" lon="-3.65571">
        <ele>218.4</ele>
        <time>2022-12-08T12:19:42Z</time>
      </trkpt>
      <trkpt lat="48.15586" lon="-3.65563">
        <ele>218.4</ele>
        <time>2022-12-08T12:19:43Z</time>
      </trkpt>
      <trkpt lat="48.15588" lon="-3.65555">
        <ele>218.4</ele>
        <time>2022-12-08T12:19:44Z</time>
      </trkpt>
      <trkpt lat="48.1559" lon="-3.65547">
        <ele>218.4</ele>
        <time>2022-12-08T12:19:45Z</time>
      </trkpt>
      <trkpt lat="48.15591" lon="-3.65539">
        <ele>218.4</ele>
        <time>2022-12-08T12:19:46Z</time>
      </trkpt>
      <trkpt lat="48.15593" lon="-3.65531">
        <ele>218.4</ele>
        <time>2022-12-08T12:19:47Z</time>
      </trkpt>
      <trkpt lat="48.15595" lon="-3.65523">
        <ele>218.5</ele>
        <time>2022-12-08T12:19:48Z</time>
      </trkpt>
      <trkpt lat="48.15596" lon="-3.65515">
        <ele>218.5</ele>
        <time>2022-12-08T12:19:49Z</time>
      </trkpt>
      <trkpt lat="48.15598" lon="-3.65508">
        <ele>218.5</ele>
        <time>2022-12-08T12:19:50Z</time>
      </trkpt>
      <trkpt lat="48.156" lon="-3.65501">
        <ele>218.5</ele>
        <time>2022-12-08T12:19:51Z</time>
      </trkpt>
      <trkpt lat="48.15602" lon="-3.65494">
        <ele>218.5</ele>
        <time>2022-12-08T12:19:52Z</time>
      </trkpt>
      <trkpt lat="48.15604" lon="-3.65486">
        <ele>218.5</ele>
        <time>2022-12-08T12:19:53Z</time>
      </trkpt>
      <trkpt lat="48.15606" lon="-3.65479">
        <ele>218.6</ele>
        <time>2022-12-08T12:19:54Z</time>
      </trkpt>
      <trkpt lat="48.15607" lon="-3.65471">
        <ele>218.6</ele>
        <time>2022-12-08T12:19:55Z</time>
      </trkpt>
      <trkpt lat="48.15608" lon="-3.65465">
        <ele>218.7</ele>
        <time>2022-12-08T12:19:56Z</time>
      </trkpt>
      <trkpt lat="48.1561" lon="-3.65457">
        <ele>218.8</ele>
        <time>2022-12-08T12:19:57Z</time>
      </trkpt>
      <trkpt lat="48.15612" lon="-3.65449">
        <ele>218.9</ele>
        <time>2022-12-08T12:19:58Z</time>
      </trkpt>
      <trkpt lat="48.15614" lon="-3.65443">
        <ele>218.9</ele>
        <time>2022-12-08T12:19:59Z</time>
      </trkpt>
      <trkpt lat="48.15615" lon="-3.65436">
        <ele>219</ele>
        <time>2022-12-08T12:20:00Z</time>
      </trkpt>
      <trkpt lat="48.15616" lon="-3.65431">
        <ele>219</ele>
        <time>2022-12-08T12:20:01Z</time>
      </trkpt>
      <trkpt lat="48.15616" lon="-3.65426">
        <ele>219.1</ele>
        <time>2022-12-08T12:20:02Z</time>
      </trkpt>
      <trkpt lat="48.15613" lon="-3.65422">
        <ele>219.2</ele>
        <time>2022-12-08T12:20:03Z</time>
      </trkpt>
      <trkpt lat="48.15609" lon="-3.6542">
        <ele>219.2</ele>
        <time>2022-12-08T12:20:04Z</time>
      </trkpt>
      <trkpt lat="48.15606" lon="-3.6542">
        <ele>219.3</ele>
        <time>2022-12-08T12:20:05Z</time>
      </trkpt>
      <trkpt lat="48.15603" lon="-3.65421">
        <ele>219.4</ele>
        <time>2022-12-08T12:20:06Z</time>
      </trkpt>
      <trkpt lat="48.15601" lon="-3.65421">
        <ele>219.4</ele>
        <time>2022-12-08T12:20:07Z</time>
      </trkpt>
      <trkpt lat="48.15595" lon="-3.65419">
        <ele>219.6</ele>
        <time>2022-12-08T12:20:09Z</time>
      </trkpt>
      <trkpt lat="48.15593" lon="-3.65419">
        <ele>219.7</ele>
        <time>2022-12-08T12:20:10Z</time>
      </trkpt>
      <trkpt lat="48.15591" lon="-3.65418">
        <ele>219.7</ele>
        <time>2022-12-08T12:20:11Z</time>
      </trkpt>
      <trkpt lat="48.15588" lon="-3.65416">
        <ele>219.9</ele>
        <time>2022-12-08T12:20:12Z</time>
      </trkpt>
      <trkpt lat="48.15587" lon="-3.65416">
        <ele>219.9</ele>
        <time>2022-12-08T12:20:13Z</time>
      </trkpt>
      <trkpt lat="48.15583" lon="-3.65415">
        <ele>220</ele>
        <time>2022-12-08T12:20:14Z</time>
      </trkpt>
      <trkpt lat="48.15582" lon="-3.65415">
        <ele>220.1</ele>
        <time>2022-12-08T12:20:15Z</time>
      </trkpt>
      <trkpt lat="48.15579" lon="-3.65413">
        <ele>220.2</ele>
        <time>2022-12-08T12:20:16Z</time>
      </trkpt>
      <trkpt lat="48.15579" lon="-3.65412">
        <ele>220.2</ele>
        <time>2022-12-08T12:20:17Z</time>
      </trkpt>
      <trkpt lat="48.15574" lon="-3.65411">
        <ele>220.5</ele>
        <time>2022-12-08T12:20:19Z</time>
      </trkpt>
      <trkpt lat="48.15572" lon="-3.65411">
        <ele>220.6</ele>
        <time>2022-12-08T12:20:20Z</time>
      </trkpt>
      <trkpt lat="48.1557" lon="-3.6541">
        <ele>220.7</ele>
        <time>2022-12-08T12:20:21Z</time>
      </trkpt>
      <trkpt lat="48.15569" lon="-3.6541">
        <ele>220.8</ele>
        <time>2022-12-08T12:20:22Z</time>
      </trkpt>
      <trkpt lat="48.15566" lon="-3.6541">
        <ele>221</ele>
        <time>2022-12-08T12:20:23Z</time>
      </trkpt>
      <trkpt lat="48.15565" lon="-3.6541">
        <ele>221.1</ele>
        <time>2022-12-08T12:20:24Z</time>
      </trkpt>
      <trkpt lat="48.15562" lon="-3.65408">
        <ele>221.3</ele>
        <time>2022-12-08T12:20:25Z</time>
      </trkpt>
      <trkpt lat="48.15561" lon="-3.65407">
        <ele>221.4</ele>
        <time>2022-12-08T12:20:26Z</time>
      </trkpt>
      <trkpt lat="48.15557" lon="-3.65406">
        <ele>221.7</ele>
        <time>2022-12-08T12:20:28Z</time>
      </trkpt>
      <trkpt lat="48.15555" lon="-3.65404">
        <ele>222</ele>
        <time>2022-12-08T12:20:29Z</time>
      </trkpt>
      <trkpt lat="48.15554" lon="-3.65403">
        <ele>222.1</ele>
        <time>2022-12-08T12:20:30Z</time>
      </trkpt>
      <trkpt lat="48.15552" lon="-3.65403">
        <ele>222.3</ele>
        <time>2022-12-08T12:20:31Z</time>
      </trkpt>
      <trkpt lat="48.1555" lon="-3.65402">
        <ele>222.4</ele>
        <time>2022-12-08T12:20:32Z</time>
      </trkpt>
      <trkpt lat="48.15548" lon="-3.654">
        <ele>222.6</ele>
        <time>2022-12-08T12:20:33Z</time>
      </trkpt>
      <trkpt lat="48.15547" lon="-3.654">
        <ele>222.7</ele>
        <time>2022-12-08T12:20:34Z</time>
      </trkpt>
      <trkpt lat="48.15546" lon="-3.65399">
        <ele>222.8</ele>
        <time>2022-12-08T12:20:35Z</time>
      </trkpt>
      <trkpt lat="48.15544" lon="-3.65398">
        <ele>223</ele>
        <time>2022-12-08T12:20:36Z</time>
      </trkpt>
      <trkpt lat="48.15542" lon="-3.65397">
        <ele>223.1</ele>
        <time>2022-12-08T12:20:37Z</time>
      </trkpt>
      <trkpt lat="48.15541" lon="-3.65397">
        <ele>223.2</ele>
        <time>2022-12-08T12:20:38Z</time>
      </trkpt>
      <trkpt lat="48.15538" lon="-3.65397">
        <ele>223.5</ele>
        <time>2022-12-08T12:20:39Z</time>
      </trkpt>
      <trkpt lat="48.15537" lon="-3.65396">
        <ele>223.6</ele>
        <time>2022-12-08T12:20:40Z</time>
      </trkpt>
      <trkpt lat="48.15535" lon="-3.65396">
        <ele>223.7</ele>
        <time>2022-12-08T12:20:41Z</time>
      </trkpt>
      <trkpt lat="48.15532" lon="-3.65394">
        <ele>224</ele>
        <time>2022-12-08T12:20:43Z</time>
      </trkpt>
      <trkpt lat="48.15529" lon="-3.65393">
        <ele>224.2</ele>
        <time>2022-12-08T12:20:44Z</time>
      </trkpt>
      <trkpt lat="48.15526" lon="-3.65392">
        <ele>224.5</ele>
        <time>2022-12-08T12:20:45Z</time>
      </trkpt>
      <trkpt lat="48.15524" lon="-3.65391">
        <ele>224.6</ele>
        <time>2022-12-08T12:20:46Z</time>
      </trkpt>
      <trkpt lat="48.15521" lon="-3.6539">
        <ele>224.9</ele>
        <time>2022-12-08T12:20:47Z</time>
      </trkpt>
      <trkpt lat="48.1552" lon="-3.6539">
        <ele>225</ele>
        <time>2022-12-08T12:20:48Z</time>
      </trkpt>
      <trkpt lat="48.15518" lon="-3.65389">
        <ele>225.1</ele>
        <time>2022-12-08T12:20:49Z</time>
      </trkpt>
      <trkpt lat="48.15517" lon="-3.65389">
        <ele>225.2</ele>
        <time>2022-12-08T12:20:50Z</time>
      </trkpt>
      <trkpt lat="48.15515" lon="-3.65388">
        <ele>225.4</ele>
        <time>2022-12-08T12:20:51Z</time>
      </trkpt>
      <trkpt lat="48.15514" lon="-3.65387">
        <ele>225.5</ele>
        <time>2022-12-08T12:20:52Z</time>
      </trkpt>
      <trkpt lat="48.15511" lon="-3.65385">
        <ele>225.7</ele>
        <time>2022-12-08T12:20:53Z</time>
      </trkpt>
      <trkpt lat="48.1551" lon="-3.65384">
        <ele>225.8</ele>
        <time>2022-12-08T12:20:54Z</time>
      </trkpt>
      <trkpt lat="48.15507" lon="-3.65384">
        <ele>226</ele>
        <time>2022-12-08T12:20:56Z</time>
      </trkpt>
      <trkpt lat="48.15504" lon="-3.65382">
        <ele>226.3</ele>
        <time>2022-12-08T12:20:57Z</time>
      </trkpt>
      <trkpt lat="48.15501" lon="-3.6538">
        <ele>226.5</ele>
        <time>2022-12-08T12:20:58Z</time>
      </trkpt>
      <trkpt lat="48.15499" lon="-3.6538">
        <ele>226.7</ele>
        <time>2022-12-08T12:20:59Z</time>
      </trkpt>
      <trkpt lat="48.15497" lon="-3.65379">
        <ele>226.8</ele>
        <time>2022-12-08T12:21:00Z</time>
      </trkpt>
      <trkpt lat="48.15496" lon="-3.65378">
        <ele>226.9</ele>
        <time>2022-12-08T12:21:01Z</time>
      </trkpt>
      <trkpt lat="48.15494" lon="-3.65378">
        <ele>227.1</ele>
        <time>2022-12-08T12:21:02Z</time>
      </trkpt>
      <trkpt lat="48.15491" lon="-3.65376">
        <ele>227.3</ele>
        <time>2022-12-08T12:21:04Z</time>
      </trkpt>
      <trkpt lat="48.15488" lon="-3.65375">
        <ele>227.5</ele>
        <time>2022-12-08T12:21:05Z</time>
      </trkpt>
      <trkpt lat="48.15485" lon="-3.65375">
        <ele>227.8</ele>
        <time>2022-12-08T12:21:06Z</time>
      </trkpt>
      <trkpt lat="48.15484" lon="-3.65375">
        <ele>227.9</ele>
        <time>2022-12-08T12:21:07Z</time>
      </trkpt>
      <trkpt lat="48.15479" lon="-3.65375">
        <ele>228.2</ele>
        <time>2022-12-08T12:21:09Z</time>
      </trkpt>
      <trkpt lat="48.15477" lon="-3.65375">
        <ele>228.3</ele>
        <time>2022-12-08T12:21:10Z</time>
      </trkpt>
      <trkpt lat="48.15476" lon="-3.65375">
        <ele>228.4</ele>
        <time>2022-12-08T12:21:11Z</time>
      </trkpt>
      <trkpt lat="48.15474" lon="-3.65375">
        <ele>228.5</ele>
        <time>2022-12-08T12:21:12Z</time>
      </trkpt>
      <trkpt lat="48.1547" lon="-3.65373">
        <ele>228.8</ele>
        <time>2022-12-08T12:21:14Z</time>
      </trkpt>
      <trkpt lat="48.15467" lon="-3.65372">
        <ele>229</ele>
        <time>2022-12-08T12:21:15Z</time>
      </trkpt>
      <trkpt lat="48.15464" lon="-3.65371">
        <ele>229.2</ele>
        <time>2022-12-08T12:21:16Z</time>
      </trkpt>
      <trkpt lat="48.15463" lon="-3.65371">
        <ele>229.2</ele>
        <time>2022-12-08T12:21:17Z</time>
      </trkpt>
      <trkpt lat="48.1546" lon="-3.65371">
        <ele>229.4</ele>
        <time>2022-12-08T12:21:18Z</time>
      </trkpt>
      <trkpt lat="48.15459" lon="-3.6537">
        <ele>229.5</ele>
        <time>2022-12-08T12:21:19Z</time>
      </trkpt>
      <trkpt lat="48.15457" lon="-3.6537">
        <ele>229.6</ele>
        <time>2022-12-08T12:21:20Z</time>
      </trkpt>
      <trkpt lat="48.15453" lon="-3.6537">
        <ele>229.8</ele>
        <time>2022-12-08T12:21:22Z</time>
      </trkpt>
      <trkpt lat="48.15452" lon="-3.65369">
        <ele>229.9</ele>
        <time>2022-12-08T12:21:23Z</time>
      </trkpt>
      <trkpt lat="48.1545" lon="-3.65369">
        <ele>230</ele>
        <time>2022-12-08T12:21:24Z</time>
      </trkpt>
      <trkpt lat="48.15447" lon="-3.65368">
        <ele>230.2</ele>
        <time>2022-12-08T12:21:25Z</time>
      </trkpt>
      <trkpt lat="48.15445" lon="-3.65368">
        <ele>230.3</ele>
        <time>2022-12-08T12:21:26Z</time>
      </trkpt>
      <trkpt lat="48.15442" lon="-3.65368">
        <ele>230.4</ele>
        <time>2022-12-08T12:21:27Z</time>
      </trkpt>
      <trkpt lat="48.15441" lon="-3.65368">
        <ele>230.5</ele>
        <time>2022-12-08T12:21:28Z</time>
      </trkpt>
      <trkpt lat="48.15439" lon="-3.65368">
        <ele>230.6</ele>
        <time>2022-12-08T12:21:29Z</time>
      </trkpt>
      <trkpt lat="48.15436" lon="-3.65369">
        <ele>230.7</ele>
        <time>2022-12-08T12:21:30Z</time>
      </trkpt>
      <trkpt lat="48.15433" lon="-3.65369">
        <ele>230.8</ele>
        <time>2022-12-08T12:21:32Z</time>
      </trkpt>
      <trkpt lat="48.15429" lon="-3.65368">
        <ele>231</ele>
        <time>2022-12-08T12:21:33Z</time>
      </trkpt>
      <trkpt lat="48.15427" lon="-3.65368">
        <ele>231</ele>
        <time>2022-12-08T12:21:34Z</time>
      </trkpt>
      <trkpt lat="48.15424" lon="-3.65367">
        <ele>231.1</ele>
        <time>2022-12-08T12:21:35Z</time>
      </trkpt>
      <trkpt lat="48.15422" lon="-3.65367">
        <ele>231.2</ele>
        <time>2022-12-08T12:21:36Z</time>
      </trkpt>
      <trkpt lat="48.15419" lon="-3.65368">
        <ele>231.3</ele>
        <time>2022-12-08T12:21:37Z</time>
      </trkpt>
      <trkpt lat="48.15417" lon="-3.65368">
        <ele>231.3</ele>
        <time>2022-12-08T12:21:38Z</time>
      </trkpt>
      <trkpt lat="48.15415" lon="-3.65368">
        <ele>231.4</ele>
        <time>2022-12-08T12:21:39Z</time>
      </trkpt>
      <trkpt lat="48.15411" lon="-3.65367">
        <ele>231.5</ele>
        <time>2022-12-08T12:21:41Z</time>
      </trkpt>
      <trkpt lat="48.15408" lon="-3.65366">
        <ele>231.6</ele>
        <time>2022-12-08T12:21:42Z</time>
      </trkpt>
      <trkpt lat="48.15405" lon="-3.65366">
        <ele>231.6</ele>
        <time>2022-12-08T12:21:43Z</time>
      </trkpt>
      <trkpt lat="48.15402" lon="-3.65363">
        <ele>231.6</ele>
        <time>2022-12-08T12:21:45Z</time>
      </trkpt>
      <trkpt lat="48.154" lon="-3.65361">
        <ele>231.7</ele>
        <time>2022-12-08T12:21:46Z</time>
      </trkpt>
      <trkpt lat="48.15397" lon="-3.65357">
        <ele>231.8</ele>
        <time>2022-12-08T12:21:47Z</time>
      </trkpt>
      <trkpt lat="48.15396" lon="-3.65355">
        <ele>231.8</ele>
        <time>2022-12-08T12:21:48Z</time>
      </trkpt>
      <trkpt lat="48.15396" lon="-3.65349">
        <ele>231.8</ele>
        <time>2022-12-08T12:21:50Z</time>
      </trkpt>
      <trkpt lat="48.15378" lon="-3.65345">
        <ele>225.3</ele>
        <time>2022-12-08T12:21:51Z</time>
      </trkpt>
      <trkpt lat="48.1538" lon="-3.65311">
        <ele>223.4</ele>
      </trkpt>
      <trkpt lat="48.15396" lon="-3.65341">
        <ele>231.1</ele>
        <time>2022-12-08T12:21:53Z</time>
      </trkpt>
      <trkpt lat="48.15396" lon="-3.65336">
        <ele>230.4</ele>
        <time>2022-12-08T12:21:54Z</time>
      </trkpt>
      <trkpt lat="48.15396" lon="-3.65334">
        <ele>230.2</ele>
        <time>2022-12-08T12:21:55Z</time>
      </trkpt>
      <trkpt lat="48.15395" lon="-3.6533">
        <ele>229.5</ele>
        <time>2022-12-08T12:21:56Z</time>
      </trkpt>
      <trkpt lat="48.15393" lon="-3.65326">
        <ele>228.7</ele>
        <time>2022-12-08T12:21:58Z</time>
      </trkpt>
      <trkpt lat="48.15391" lon="-3.65322">
        <ele>228.1</ele>
        <time>2022-12-08T12:21:59Z</time>
      </trkpt>
      <trkpt lat="48.1539" lon="-3.65319">
        <ele>227.3</ele>
        <time>2022-12-08T12:22:00Z</time>
      </trkpt>
      <trkpt lat="48.15389" lon="-3.65317">
        <ele>227.1</ele>
        <time>2022-12-08T12:22:01Z</time>
      </trkpt>
      <trkpt lat="48.15388" lon="-3.65313">
        <ele>226.3</ele>
        <time>2022-12-08T12:22:02Z</time>
      </trkpt>
      <trkpt lat="48.15388" lon="-3.65312">
        <ele>226.1</ele>
        <time>2022-12-08T12:22:03Z</time>
      </trkpt>
      <trkpt lat="48.15388" lon="-3.6531">
        <ele>225.9</ele>
        <time>2022-12-08T12:22:05Z</time>
      </trkpt>
      <trkpt lat="48.15388" lon="-3.65308">
        <ele>225.7</ele>
        <time>2022-12-08T12:22:06Z</time>
      </trkpt>
      <trkpt lat="48.15389" lon="-3.65306">
        <ele>225.6</ele>
        <time>2022-12-08T12:22:07Z</time>
      </trkpt>
      <trkpt lat="48.15389" lon="-3.65302">
        <ele>225.3</ele>
        <time>2022-12-08T12:22:08Z</time>
      </trkpt>
      <trkpt lat="48.15389" lon="-3.653">
        <ele>225.1</ele>
        <time>2022-12-08T12:22:09Z</time>
      </trkpt>
      <trkpt lat="48.15386" lon="-3.65298">
        <ele>224.8</ele>
        <time>2022-12-08T12:22:11Z</time>
      </trkpt>
      <trkpt lat="48.15385" lon="-3.65293">
        <ele>224.3</ele>
        <time>2022-12-08T12:22:13Z</time>
      </trkpt>
      <trkpt lat="48.15386" lon="-3.65291">
        <ele>224.2</ele>
        <time>2022-12-08T12:22:14Z</time>
      </trkpt>
      <trkpt lat="48.15384" lon="-3.65289">
        <ele>223.8</ele>
        <time>2022-12-08T12:22:15Z</time>
      </trkpt>
      <trkpt lat="48.15383" lon="-3.65285">
        <ele>223.5</ele>
        <time>2022-12-08T12:22:17Z</time>
      </trkpt>
      <trkpt lat="48.15383" lon="-3.6528">
        <ele>223</ele>
        <time>2022-12-08T12:22:18Z</time>
      </trkpt>
      <trkpt lat="48.15383" lon="-3.65279">
        <ele>222.8</ele>
        <time>2022-12-08T12:22:19Z</time>
      </trkpt>
      <trkpt lat="48.15381" lon="-3.65275">
        <ele>222.4</ele>
        <time>2022-12-08T12:22:20Z</time>
      </trkpt>
      <trkpt lat="48.15381" lon="-3.65274">
        <ele>222.3</ele>
        <time>2022-12-08T12:22:21Z</time>
      </trkpt>
      <trkpt lat="48.15378" lon="-3.65269">
        <ele>221.6</ele>
        <time>2022-12-08T12:22:22Z</time>
      </trkpt>
      <trkpt lat="48.15374" lon="-3.65266">
        <ele>221.1</ele>
        <time>2022-12-08T12:22:23Z</time>
      </trkpt>
      <trkpt lat="48.15371" lon="-3.6526">
        <ele>220.4</ele>
        <time>2022-12-08T12:22:25Z</time>
      </trkpt>
      <trkpt lat="48.15368" lon="-3.65256">
        <ele>220</ele>
        <time>2022-12-08T12:22:26Z</time>
      </trkpt>
      <trkpt lat="48.15366" lon="-3.65252">
        <ele>219.5</ele>
        <time>2022-12-08T12:22:27Z</time>
      </trkpt>
      <trkpt lat="48.15365" lon="-3.65251">
        <ele>219.4</ele>
        <time>2022-12-08T12:22:28Z</time>
      </trkpt>
      <trkpt lat="48.15364" lon="-3.65247">
        <ele>219</ele>
        <time>2022-12-08T12:22:29Z</time>
      </trkpt>
      <trkpt lat="48.15364" lon="-3.65246">
        <ele>218.9</ele>
        <time>2022-12-08T12:22:30Z</time>
      </trkpt>
      <trkpt lat="48.15362" lon="-3.65242">
        <ele>218.5</ele>
        <time>2022-12-08T12:22:31Z</time>
      </trkpt>
      <trkpt lat="48.15361" lon="-3.6524">
        <ele>218.3</ele>
        <time>2022-12-08T12:22:32Z</time>
      </trkpt>
      <trkpt lat="48.1536" lon="-3.65236">
        <ele>217.9</ele>
        <time>2022-12-08T12:22:33Z</time>
      </trkpt>
      <trkpt lat="48.1536" lon="-3.65235">
        <ele>217.7</ele>
        <time>2022-12-08T12:22:34Z</time>
      </trkpt>
      <trkpt lat="48.15359" lon="-3.65232">
        <ele>217.4</ele>
        <time>2022-12-08T12:22:35Z</time>
      </trkpt>
      <trkpt lat="48.15359" lon="-3.6523">
        <ele>217.2</ele>
        <time>2022-12-08T12:22:36Z</time>
      </trkpt>
      <trkpt lat="48.15358" lon="-3.65227">
        <ele>216.9</ele>
        <time>2022-12-08T12:22:37Z</time>
      </trkpt>
      <trkpt lat="48.15358" lon="-3.65226">
        <ele>216.7</ele>
        <time>2022-12-08T12:22:38Z</time>
      </trkpt>
      <trkpt lat="48.15357" lon="-3.65224">
        <ele>216.6</ele>
        <time>2022-12-08T12:22:39Z</time>
      </trkpt>
      <trkpt lat="48.15356" lon="-3.65222">
        <ele>216.3</ele>
        <time>2022-12-08T12:22:40Z</time>
      </trkpt>
      <trkpt lat="48.15355" lon="-3.65221">
        <ele>216.1</ele>
        <time>2022-12-08T12:22:41Z</time>
      </trkpt>
      <trkpt lat="48.15354" lon="-3.65219">
        <ele>215.9</ele>
        <time>2022-12-08T12:22:42Z</time>
      </trkpt>
      <trkpt lat="48.15353" lon="-3.65219">
        <ele>215.8</ele>
        <time>2022-12-08T12:22:43Z</time>
      </trkpt>
      <trkpt lat="48.15353" lon="-3.65218">
        <ele>215.7</ele>
        <time>2022-12-08T12:22:44Z</time>
      </trkpt>
      <trkpt lat="48.15351" lon="-3.65216">
        <ele>215.4</ele>
        <time>2022-12-08T12:22:45Z</time>
      </trkpt>
      <trkpt lat="48.15349" lon="-3.65213">
        <ele>215</ele>
        <time>2022-12-08T12:22:47Z</time>
      </trkpt>
      <trkpt lat="48.15348" lon="-3.65212">
        <ele>214.8</ele>
        <time>2022-12-08T12:22:48Z</time>
      </trkpt>
      <trkpt lat="48.15348" lon="-3.6521">
        <ele>214.6</ele>
        <time>2022-12-08T12:22:49Z</time>
      </trkpt>
      <trkpt lat="48.15346" lon="-3.65205">
        <ele>214.1</ele>
        <time>2022-12-08T12:22:50Z</time>
      </trkpt>
      <trkpt lat="48.15345" lon="-3.652">
        <ele>213.6</ele>
        <time>2022-12-08T12:22:51Z</time>
      </trkpt>
      <trkpt lat="48.15345" lon="-3.65199">
        <ele>213.4</ele>
        <time>2022-12-08T12:22:52Z</time>
      </trkpt>
      <trkpt lat="48.15342" lon="-3.65195">
        <ele>212.9</ele>
        <time>2022-12-08T12:22:53Z</time>
      </trkpt>
      <trkpt lat="48.15341" lon="-3.65194">
        <ele>212.8</ele>
        <time>2022-12-08T12:22:54Z</time>
      </trkpt>
      <trkpt lat="48.1534" lon="-3.65191">
        <ele>212.5</ele>
        <time>2022-12-08T12:22:55Z</time>
      </trkpt>
      <trkpt lat="48.1534" lon="-3.65189">
        <ele>212.2</ele>
        <time>2022-12-08T12:22:56Z</time>
      </trkpt>
      <trkpt lat="48.15339" lon="-3.65184">
        <ele>211.7</ele>
        <time>2022-12-08T12:22:57Z</time>
      </trkpt>
      <trkpt lat="48.15338" lon="-3.65183">
        <ele>211.5</ele>
        <time>2022-12-08T12:22:58Z</time>
      </trkpt>
      <trkpt lat="48.15337" lon="-3.65178">
        <ele>210.9</ele>
        <time>2022-12-08T12:22:59Z</time>
      </trkpt>
      <trkpt lat="48.15336" lon="-3.65176">
        <ele>210.8</ele>
        <time>2022-12-08T12:23:00Z</time>
      </trkpt>
      <trkpt lat="48.15335" lon="-3.65173">
        <ele>210.4</ele>
        <time>2022-12-08T12:23:01Z</time>
      </trkpt>
      <trkpt lat="48.15335" lon="-3.65166">
        <ele>209.7</ele>
        <time>2022-12-08T12:23:03Z</time>
      </trkpt>
      <trkpt lat="48.15334" lon="-3.6516">
        <ele>209</ele>
        <time>2022-12-08T12:23:04Z</time>
      </trkpt>
      <trkpt lat="48.15333" lon="-3.65156">
        <ele>208.5</ele>
        <time>2022-12-08T12:23:05Z</time>
      </trkpt>
      <trkpt lat="48.15332" lon="-3.65148">
        <ele>207.8</ele>
        <time>2022-12-08T12:23:07Z</time>
      </trkpt>
      <trkpt lat="48.15329" lon="-3.65142">
        <ele>207</ele>
        <time>2022-12-08T12:23:08Z</time>
      </trkpt>
      <trkpt lat="48.15328" lon="-3.65136">
        <ele>206.4</ele>
        <time>2022-12-08T12:23:09Z</time>
      </trkpt>
      <trkpt lat="48.15328" lon="-3.65131">
        <ele>205.9</ele>
        <time>2022-12-08T12:23:11Z</time>
      </trkpt>
      <trkpt lat="48.15327" lon="-3.65124">
        <ele>205.3</ele>
        <time>2022-12-08T12:23:12Z</time>
      </trkpt>
      <trkpt lat="48.15327" lon="-3.65117">
        <ele>204.8</ele>
        <time>2022-12-08T12:23:13Z</time>
      </trkpt>
      <trkpt lat="48.15327" lon="-3.6511">
        <ele>204.2</ele>
        <time>2022-12-08T12:23:15Z</time>
      </trkpt>
      <trkpt lat="48.15327" lon="-3.65104">
        <ele>203.8</ele>
        <time>2022-12-08T12:23:16Z</time>
      </trkpt>
      <trkpt lat="48.15326" lon="-3.65098">
        <ele>203.4</ele>
        <time>2022-12-08T12:23:18Z</time>
      </trkpt>
      <trkpt lat="48.15325" lon="-3.65092">
        <ele>203</ele>
        <time>2022-12-08T12:23:19Z</time>
      </trkpt>
      <trkpt lat="48.15326" lon="-3.65086">
        <ele>202.4</ele>
        <time>2022-12-08T12:23:20Z</time>
      </trkpt>
      <trkpt lat="48.15326" lon="-3.65082">
        <ele>202.4</ele>
        <time>2022-12-08T12:23:21Z</time>
      </trkpt>
      <trkpt lat="48.15326" lon="-3.65077">
        <ele>202.4</ele>
        <time>2022-12-08T12:23:22Z</time>
      </trkpt>
      <trkpt lat="48.15324" lon="-3.65068">
        <ele>202.4</ele>
        <time>2022-12-08T12:23:24Z</time>
      </trkpt>
      <trkpt lat="48.15324" lon="-3.65062">
        <ele>202.4</ele>
        <time>2022-12-08T12:23:25Z</time>
      </trkpt>
      <trkpt lat="48.15323" lon="-3.65054">
        <ele>202.4</ele>
        <time>2022-12-08T12:23:26Z</time>
      </trkpt>
      <trkpt lat="48.15322" lon="-3.65049">
        <ele>202.4</ele>
        <time>2022-12-08T12:23:27Z</time>
      </trkpt>
      <trkpt lat="48.15322" lon="-3.65045">
        <ele>202.5</ele>
        <time>2022-12-08T12:23:28Z</time>
      </trkpt>
      <trkpt lat="48.15322" lon="-3.65038">
        <ele>202.5</ele>
        <time>2022-12-08T12:23:29Z</time>
      </trkpt>
      <trkpt lat="48.15322" lon="-3.65034">
        <ele>202.6</ele>
        <time>2022-12-08T12:23:30Z</time>
      </trkpt>
      <trkpt lat="48.15323" lon="-3.6503">
        <ele>202.7</ele>
        <time>2022-12-08T12:23:31Z</time>
      </trkpt>
      <trkpt lat="48.15324" lon="-3.65023">
        <ele>202.8</ele>
        <time>2022-12-08T12:23:33Z</time>
      </trkpt>
      <trkpt lat="48.15325" lon="-3.65015">
        <ele>202.9</ele>
        <time>2022-12-08T12:23:34Z</time>
      </trkpt>
      <trkpt lat="48.15326" lon="-3.65011">
        <ele>203</ele>
        <time>2022-12-08T12:23:35Z</time>
      </trkpt>
      <trkpt lat="48.15325" lon="-3.65006">
        <ele>203.1</ele>
        <time>2022-12-08T12:23:36Z</time>
      </trkpt>
      <trkpt lat="48.15325" lon="-3.65002">
        <ele>203.1</ele>
        <time>2022-12-08T12:23:37Z</time>
      </trkpt>
      <trkpt lat="48.15325" lon="-3.64995">
        <ele>203.3</ele>
        <time>2022-12-08T12:23:39Z</time>
      </trkpt>
      <trkpt lat="48.15327" lon="-3.64986">
        <ele>203.4</ele>
        <time>2022-12-08T12:23:40Z</time>
      </trkpt>
      <trkpt lat="48.15328" lon="-3.64981">
        <ele>203.5</ele>
        <time>2022-12-08T12:23:41Z</time>
      </trkpt>
      <trkpt lat="48.15329" lon="-3.64977">
        <ele>203.6</ele>
        <time>2022-12-08T12:23:42Z</time>
      </trkpt>
      <trkpt lat="48.1533" lon="-3.64972">
        <ele>203.7</ele>
        <time>2022-12-08T12:23:43Z</time>
      </trkpt>
      <trkpt lat="48.15331" lon="-3.64967">
        <ele>203.8</ele>
        <time>2022-12-08T12:23:44Z</time>
      </trkpt>
      <trkpt lat="48.15331" lon="-3.6496">
        <ele>203.8</ele>
        <time>2022-12-08T12:23:46Z</time>
      </trkpt>
      <trkpt lat="48.15331" lon="-3.64956">
        <ele>203.9</ele>
        <time>2022-12-08T12:23:47Z</time>
      </trkpt>
      <trkpt lat="48.1533" lon="-3.64947">
        <ele>204</ele>
        <time>2022-12-08T12:23:48Z</time>
      </trkpt>
      <trkpt lat="48.1533" lon="-3.64942">
        <ele>204</ele>
        <time>2022-12-08T12:23:49Z</time>
      </trkpt>
      <trkpt lat="48.15328" lon="-3.64935">
        <ele>203.9</ele>
        <time>2022-12-08T12:23:51Z</time>
      </trkpt>
      <trkpt lat="48.15326" lon="-3.64929">
        <ele>203.9</ele>
        <time>2022-12-08T12:23:52Z</time>
      </trkpt>
      <trkpt lat="48.15323" lon="-3.64924">
        <ele>203.7</ele>
        <time>2022-12-08T12:23:53Z</time>
      </trkpt>
      <trkpt lat="48.15319" lon="-3.64921">
        <ele>203.5</ele>
        <time>2022-12-08T12:23:54Z</time>
      </trkpt>
      <trkpt lat="48.15316" lon="-3.6492">
        <ele>203.4</ele>
        <time>2022-12-08T12:23:56Z</time>
      </trkpt>
      <trkpt lat="48.15312" lon="-3.64919">
        <ele>203.1</ele>
        <time>2022-12-08T12:23:57Z</time>
      </trkpt>
      <trkpt lat="48.15309" lon="-3.64919">
        <ele>203</ele>
        <time>2022-12-08T12:23:58Z</time>
      </trkpt>
      <trkpt lat="48.15305" lon="-3.64916">
        <ele>202.7</ele>
        <time>2022-12-08T12:23:59Z</time>
      </trkpt>
      <trkpt lat="48.15301" lon="-3.64915">
        <ele>202.5</ele>
        <time>2022-12-08T12:24:00Z</time>
      </trkpt>
      <trkpt lat="48.15295" lon="-3.64911">
        <ele>202.2</ele>
        <time>2022-12-08T12:24:02Z</time>
      </trkpt>
      <trkpt lat="48.15292" lon="-3.64908">
        <ele>201.9</ele>
        <time>2022-12-08T12:24:03Z</time>
      </trkpt>
      <trkpt lat="48.15289" lon="-3.64904">
        <ele>201.7</ele>
        <time>2022-12-08T12:24:04Z</time>
      </trkpt>
      <trkpt lat="48.15286" lon="-3.649">
        <ele>201.5</ele>
        <time>2022-12-08T12:24:05Z</time>
      </trkpt>
      <trkpt lat="48.15283" lon="-3.64895">
        <ele>201.3</ele>
        <time>2022-12-08T12:24:06Z</time>
      </trkpt>
      <trkpt lat="48.1528" lon="-3.64891">
        <ele>201.1</ele>
        <time>2022-12-08T12:24:07Z</time>
      </trkpt>
      <trkpt lat="48.15278" lon="-3.64889">
        <ele>200.9</ele>
        <time>2022-12-08T12:24:08Z</time>
      </trkpt>
      <trkpt lat="48.15276" lon="-3.64885">
        <ele>200.8</ele>
        <time>2022-12-08T12:24:09Z</time>
      </trkpt>
      <trkpt lat="48.15274" lon="-3.64878">
        <ele>200.6</ele>
        <time>2022-12-08T12:24:11Z</time>
      </trkpt>
      <trkpt lat="48.15273" lon="-3.64872">
        <ele>200.4</ele>
        <time>2022-12-08T12:24:12Z</time>
      </trkpt>
      <trkpt lat="48.15273" lon="-3.64866">
        <ele>200.3</ele>
        <time>2022-12-08T12:24:13Z</time>
      </trkpt>
      <trkpt lat="48.15272" lon="-3.64862">
        <ele>200.2</ele>
        <time>2022-12-08T12:24:14Z</time>
      </trkpt>
      <trkpt lat="48.15272" lon="-3.64857">
        <ele>200.1</ele>
        <time>2022-12-08T12:24:15Z</time>
      </trkpt>
      <trkpt lat="48.15272" lon="-3.64856">
        <ele>200</ele>
        <time>2022-12-08T12:24:16Z</time>
      </trkpt>
      <trkpt lat="48.1527" lon="-3.64849">
        <ele>199.9</ele>
        <time>2022-12-08T12:24:17Z</time>
      </trkpt>
      <trkpt lat="48.15269" lon="-3.64845">
        <ele>199.8</ele>
        <time>2022-12-08T12:24:18Z</time>
      </trkpt>
      <trkpt lat="48.15267" lon="-3.64841">
        <ele>199.6</ele>
        <time>2022-12-08T12:24:19Z</time>
      </trkpt>
      <trkpt lat="48.15265" lon="-3.64835">
        <ele>199.5</ele>
        <time>2022-12-08T12:24:20Z</time>
      </trkpt>
      <trkpt lat="48.15263" lon="-3.6483">
        <ele>199.3</ele>
        <time>2022-12-08T12:24:21Z</time>
      </trkpt>
      <trkpt lat="48.15261" lon="-3.64824">
        <ele>199.1</ele>
        <time>2022-12-08T12:24:22Z</time>
      </trkpt>
      <trkpt lat="48.15259" lon="-3.64816">
        <ele>198.9</ele>
        <time>2022-12-08T12:24:23Z</time>
      </trkpt>
      <trkpt lat="48.15258" lon="-3.64808">
        <ele>198.6</ele>
        <time>2022-12-08T12:24:24Z</time>
      </trkpt>
      <trkpt lat="48.15257" lon="-3.64799">
        <ele>198.4</ele>
        <time>2022-12-08T12:24:25Z</time>
      </trkpt>
      <trkpt lat="48.15255" lon="-3.64791">
        <ele>198.2</ele>
        <time>2022-12-08T12:24:26Z</time>
      </trkpt>
      <trkpt lat="48.15254" lon="-3.64783">
        <ele>198</ele>
        <time>2022-12-08T12:24:27Z</time>
      </trkpt>
      <trkpt lat="48.15252" lon="-3.64775">
        <ele>197.8</ele>
        <time>2022-12-08T12:24:28Z</time>
      </trkpt>
      <trkpt lat="48.15252" lon="-3.6477">
        <ele>197.7</ele>
        <time>2022-12-08T12:24:29Z</time>
      </trkpt>
      <trkpt lat="48.15252" lon="-3.64768">
        <ele>197.6</ele>
        <time>2022-12-08T12:24:30Z</time>
      </trkpt>
      <trkpt lat="48.15249" lon="-3.64761">
        <ele>197.4</ele>
        <time>2022-12-08T12:24:32Z</time>
      </trkpt>
      <trkpt lat="48.15246" lon="-3.64755">
        <ele>197.2</ele>
        <time>2022-12-08T12:24:33Z</time>
      </trkpt>
      <trkpt lat="48.15245" lon="-3.64748">
        <ele>197</ele>
        <time>2022-12-08T12:24:34Z</time>
      </trkpt>
      <trkpt lat="48.15243" lon="-3.64743">
        <ele>196.8</ele>
        <time>2022-12-08T12:24:35Z</time>
      </trkpt>
      <trkpt lat="48.15242" lon="-3.64738">
        <ele>196.7</ele>
        <time>2022-12-08T12:24:36Z</time>
      </trkpt>
      <trkpt lat="48.15241" lon="-3.64734">
        <ele>196.5</ele>
        <time>2022-12-08T12:24:37Z</time>
      </trkpt>
      <trkpt lat="48.1524" lon="-3.64729">
        <ele>196.4</ele>
        <time>2022-12-08T12:24:38Z</time>
      </trkpt>
      <trkpt lat="48.1524" lon="-3.64725">
        <ele>196.2</ele>
        <time>2022-12-08T12:24:39Z</time>
      </trkpt>
      <trkpt lat="48.15238" lon="-3.6472">
        <ele>195.9</ele>
        <time>2022-12-08T12:24:40Z</time>
      </trkpt>
      <trkpt lat="48.15237" lon="-3.64716">
        <ele>195.4</ele>
        <time>2022-12-08T12:24:41Z</time>
      </trkpt>
      <trkpt lat="48.15236" lon="-3.64711">
        <ele>195</ele>
        <time>2022-12-08T12:24:42Z</time>
      </trkpt>
      <trkpt lat="48.15236" lon="-3.64704">
        <ele>194.3</ele>
        <time>2022-12-08T12:24:43Z</time>
      </trkpt>
      <trkpt lat="48.15235" lon="-3.64701">
        <ele>193.9</ele>
        <time>2022-12-08T12:24:44Z</time>
      </trkpt>
      <trkpt lat="48.15235" lon="-3.64694">
        <ele>193.3</ele>
        <time>2022-12-08T12:24:45Z</time>
      </trkpt>
      <trkpt lat="48.15234" lon="-3.64688">
        <ele>192.7</ele>
        <time>2022-12-08T12:24:47Z</time>
      </trkpt>
      <trkpt lat="48.15234" lon="-3.64681">
        <ele>192.1</ele>
        <time>2022-12-08T12:24:48Z</time>
      </trkpt>
      <trkpt lat="48.15234" lon="-3.6468">
        <ele>192</ele>
        <time>2022-12-08T12:24:49Z</time>
      </trkpt>
      <trkpt lat="48.15234" lon="-3.6468">
        <ele>192</ele>
        <time>2022-12-08T12:24:50Z</time>
      </trkpt>
      <trkpt lat="48.15235" lon="-3.64679">
        <ele>191.9</ele>
        <time>2022-12-08T12:24:51Z</time>
      </trkpt>
      <trkpt lat="48.15235" lon="-3.64679">
        <ele>191.8</ele>
        <time>2022-12-08T12:24:52Z</time>
      </trkpt>
      <trkpt lat="48.15235" lon="-3.6468">
        <ele>191.8</ele>
        <time>2022-12-08T12:24:53Z</time>
      </trkpt>
      <trkpt lat="48.15235" lon="-3.6468">
        <ele>191.8</ele>
        <time>2022-12-08T12:24:54Z</time>
      </trkpt>
      <trkpt lat="48.15235" lon="-3.64681">
        <ele>191.7</ele>
        <time>2022-12-08T12:24:55Z</time>
      </trkpt>
      <trkpt lat="48.15235" lon="-3.64681">
        <ele>191.7</ele>
        <time>2022-12-08T12:24:56Z</time>
      </trkpt>
      <trkpt lat="48.15235" lon="-3.64681">
        <ele>191.7</ele>
        <time>2022-12-08T12:24:58Z</time>
      </trkpt>
      <trkpt lat="48.15235" lon="-3.64681">
        <ele>191.7</ele>
        <time>2022-12-08T12:24:59Z</time>
      </trkpt>
      <trkpt lat="48.15235" lon="-3.64681">
        <ele>191.7</ele>
        <time>2022-12-08T12:25:00Z</time>
      </trkpt>
      <trkpt lat="48.15234" lon="-3.64676">
        <ele>191.3</ele>
        <time>2022-12-08T12:25:49Z</time>
      </trkpt>
      <trkpt lat="48.15235" lon="-3.64672">
        <ele>190.9</ele>
        <time>2022-12-08T12:25:50Z</time>
      </trkpt>
      <trkpt lat="48.15232" lon="-3.64666">
        <ele>190.2</ele>
        <time>2022-12-08T12:25:52Z</time>
      </trkpt>
      <trkpt lat="48.15229" lon="-3.64659">
        <ele>189.4</ele>
        <time>2022-12-08T12:25:53Z</time>
      </trkpt>
      <trkpt lat="48.15227" lon="-3.64655">
        <ele>188.9</ele>
        <time>2022-12-08T12:25:54Z</time>
      </trkpt>
      <trkpt lat="48.15227" lon="-3.6465">
        <ele>188.5</ele>
        <time>2022-12-08T12:25:55Z</time>
      </trkpt>
      <trkpt lat="48.15227" lon="-3.64645">
        <ele>188</ele>
        <time>2022-12-08T12:25:56Z</time>
      </trkpt>
      <trkpt lat="48.15226" lon="-3.64639">
        <ele>187.4</ele>
        <time>2022-12-08T12:25:58Z</time>
      </trkpt>
      <trkpt lat="48.15225" lon="-3.64633">
        <ele>186.8</ele>
        <time>2022-12-08T12:25:59Z</time>
      </trkpt>
      <trkpt lat="48.15224" lon="-3.64627">
        <ele>186.3</ele>
        <time>2022-12-08T12:26:00Z</time>
      </trkpt>
      <trkpt lat="48.15224" lon="-3.64625">
        <ele>186</ele>
        <time>2022-12-08T12:26:01Z</time>
      </trkpt>
      <trkpt lat="48.15224" lon="-3.6462">
        <ele>185.6</ele>
        <time>2022-12-08T12:26:02Z</time>
      </trkpt>
      <trkpt lat="48.15223" lon="-3.64615">
        <ele>185.1</ele>
        <time>2022-12-08T12:26:03Z</time>
      </trkpt>
      <trkpt lat="48.15222" lon="-3.64606">
        <ele>184.2</ele>
        <time>2022-12-08T12:26:05Z</time>
      </trkpt>
      <trkpt lat="48.15221" lon="-3.646">
        <ele>183.7</ele>
        <time>2022-12-08T12:26:06Z</time>
      </trkpt>
      <trkpt lat="48.1522" lon="-3.64596">
        <ele>183.3</ele>
        <time>2022-12-08T12:26:07Z</time>
      </trkpt>
      <trkpt lat="48.15219" lon="-3.6459">
        <ele>182.8</ele>
        <time>2022-12-08T12:26:08Z</time>
      </trkpt>
      <trkpt lat="48.15218" lon="-3.64586">
        <ele>182.5</ele>
        <time>2022-12-08T12:26:09Z</time>
      </trkpt>
      <trkpt lat="48.15219" lon="-3.64581">
        <ele>182.1</ele>
        <time>2022-12-08T12:26:10Z</time>
      </trkpt>
      <trkpt lat="48.15218" lon="-3.64575">
        <ele>181.6</ele>
        <time>2022-12-08T12:26:11Z</time>
      </trkpt>
      <trkpt lat="48.15217" lon="-3.6457">
        <ele>181.2</ele>
        <time>2022-12-08T12:26:12Z</time>
      </trkpt>
      <trkpt lat="48.15217" lon="-3.64566">
        <ele>180.9</ele>
        <time>2022-12-08T12:26:13Z</time>
      </trkpt>
      <trkpt lat="48.15218" lon="-3.64555">
        <ele>180.1</ele>
        <time>2022-12-08T12:26:15Z</time>
      </trkpt>
      <trkpt lat="48.15218" lon="-3.6455">
        <ele>179.7</ele>
        <time>2022-12-08T12:26:16Z</time>
      </trkpt>
      <trkpt lat="48.1522" lon="-3.6454">
        <ele>179.2</ele>
        <time>2022-12-08T12:26:17Z</time>
      </trkpt>
      <trkpt lat="48.15219" lon="-3.64532">
        <ele>178.8</ele>
        <time>2022-12-08T12:26:18Z</time>
      </trkpt>
      <trkpt lat="48.15218" lon="-3.64523">
        <ele>178.4</ele>
        <time>2022-12-08T12:26:19Z</time>
      </trkpt>
      <trkpt lat="48.15217" lon="-3.64515">
        <ele>178</ele>
        <time>2022-12-08T12:26:20Z</time>
      </trkpt>
      <trkpt lat="48.15216" lon="-3.64507">
        <ele>177.7</ele>
        <time>2022-12-08T12:26:21Z</time>
      </trkpt>
      <trkpt lat="48.15215" lon="-3.64499">
        <ele>177.3</ele>
        <time>2022-12-08T12:26:22Z</time>
      </trkpt>
      <trkpt lat="48.15213" lon="-3.64492">
        <ele>177</ele>
        <time>2022-12-08T12:26:23Z</time>
      </trkpt>
      <trkpt lat="48.15212" lon="-3.64483">
        <ele>176.7</ele>
        <time>2022-12-08T12:26:24Z</time>
      </trkpt>
      <trkpt lat="48.1521" lon="-3.64474">
        <ele>176.3</ele>
        <time>2022-12-08T12:26:25Z</time>
      </trkpt>
      <trkpt lat="48.15209" lon="-3.64465">
        <ele>175.9</ele>
        <time>2022-12-08T12:26:26Z</time>
      </trkpt>
      <trkpt lat="48.15208" lon="-3.64457">
        <ele>175.6</ele>
        <time>2022-12-08T12:26:27Z</time>
      </trkpt>
      <trkpt lat="48.15206" lon="-3.64449">
        <ele>175.3</ele>
        <time>2022-12-08T12:26:28Z</time>
      </trkpt>
      <trkpt lat="48.15204" lon="-3.6444">
        <ele>175</ele>
        <time>2022-12-08T12:26:29Z</time>
      </trkpt>
      <trkpt lat="48.15203" lon="-3.64433">
        <ele>174.8</ele>
        <time>2022-12-08T12:26:30Z</time>
      </trkpt>
      <trkpt lat="48.15202" lon="-3.64425">
        <ele>174.6</ele>
        <time>2022-12-08T12:26:31Z</time>
      </trkpt>
      <trkpt lat="48.152" lon="-3.64418">
        <ele>174.3</ele>
        <time>2022-12-08T12:26:32Z</time>
      </trkpt>
      <trkpt lat="48.15197" lon="-3.64413">
        <ele>174.1</ele>
        <time>2022-12-08T12:26:33Z</time>
      </trkpt>
      <trkpt lat="48.15194" lon="-3.64412">
        <ele>174</ele>
        <time>2022-12-08T12:26:34Z</time>
      </trkpt>
      <trkpt lat="48.15193" lon="-3.64406">
        <ele>173.8</ele>
        <time>2022-12-08T12:26:35Z</time>
      </trkpt>
      <trkpt lat="48.15193" lon="-3.64399">
        <ele>173.7</ele>
        <time>2022-12-08T12:26:36Z</time>
      </trkpt>
      <trkpt lat="48.15195" lon="-3.64394">
        <ele>173.7</ele>
        <time>2022-12-08T12:26:37Z</time>
      </trkpt>
      <trkpt lat="48.15196" lon="-3.64388">
        <ele>173.7</ele>
        <time>2022-12-08T12:26:38Z</time>
      </trkpt>
      <trkpt lat="48.15197" lon="-3.64384">
        <ele>173.7</ele>
        <time>2022-12-08T12:26:39Z</time>
      </trkpt>
      <trkpt lat="48.152" lon="-3.64368">
        <ele>173.6</ele>
        <time>2022-12-08T12:26:41Z</time>
      </trkpt>
      <trkpt lat="48.15202" lon="-3.6436">
        <ele>173.6</ele>
        <time>2022-12-08T12:26:42Z</time>
      </trkpt>
      <trkpt lat="48.15204" lon="-3.64352">
        <ele>173.5</ele>
        <time>2022-12-08T12:26:43Z</time>
      </trkpt>
      <trkpt lat="48.15207" lon="-3.64343">
        <ele>173.4</ele>
        <time>2022-12-08T12:26:44Z</time>
      </trkpt>
      <trkpt lat="48.15208" lon="-3.64335">
        <ele>173.3</ele>
        <time>2022-12-08T12:26:45Z</time>
      </trkpt>
      <trkpt lat="48.1521" lon="-3.64327">
        <ele>173.1</ele>
        <time>2022-12-08T12:26:46Z</time>
      </trkpt>
      <trkpt lat="48.15212" lon="-3.64318">
        <ele>173</ele>
        <time>2022-12-08T12:26:47Z</time>
      </trkpt>
      <trkpt lat="48.15214" lon="-3.6431">
        <ele>172.8</ele>
        <time>2022-12-08T12:26:48Z</time>
      </trkpt>
      <trkpt lat="48.15215" lon="-3.64301">
        <ele>172.7</ele>
        <time>2022-12-08T12:26:49Z</time>
      </trkpt>
      <trkpt lat="48.15217" lon="-3.64292">
        <ele>172.5</ele>
        <time>2022-12-08T12:26:50Z</time>
      </trkpt>
      <trkpt lat="48.15219" lon="-3.64283">
        <ele>172.4</ele>
        <time>2022-12-08T12:26:51Z</time>
      </trkpt>
      <trkpt lat="48.15221" lon="-3.64274">
        <ele>172.3</ele>
        <time>2022-12-08T12:26:52Z</time>
      </trkpt>
      <trkpt lat="48.15223" lon="-3.64264">
        <ele>172.2</ele>
        <time>2022-12-08T12:26:53Z</time>
      </trkpt>
      <trkpt lat="48.15226" lon="-3.64254">
        <ele>172.1</ele>
        <time>2022-12-08T12:26:54Z</time>
      </trkpt>
      <trkpt lat="48.15228" lon="-3.64245">
        <ele>172</ele>
        <time>2022-12-08T12:26:55Z</time>
      </trkpt>
      <trkpt lat="48.1523" lon="-3.64236">
        <ele>171.8</ele>
        <time>2022-12-08T12:26:56Z</time>
      </trkpt>
      <trkpt lat="48.15232" lon="-3.64226">
        <ele>171.7</ele>
        <time>2022-12-08T12:26:57Z</time>
      </trkpt>
      <trkpt lat="48.15235" lon="-3.64216">
        <ele>171.5</ele>
        <time>2022-12-08T12:26:58Z</time>
      </trkpt>
      <trkpt lat="48.15237" lon="-3.64206">
        <ele>171.4</ele>
        <time>2022-12-08T12:26:59Z</time>
      </trkpt>
      <trkpt lat="48.15239" lon="-3.64196">
        <ele>171.3</ele>
        <time>2022-12-08T12:27:00Z</time>
      </trkpt>
      <trkpt lat="48.15242" lon="-3.64186">
        <ele>171.2</ele>
        <time>2022-12-08T12:27:01Z</time>
      </trkpt>
      <trkpt lat="48.15244" lon="-3.64176">
        <ele>171</ele>
        <time>2022-12-08T12:27:02Z</time>
      </trkpt>
      <trkpt lat="48.15246" lon="-3.64167">
        <ele>170.9</ele>
        <time>2022-12-08T12:27:03Z</time>
      </trkpt>
      <trkpt lat="48.15248" lon="-3.64157">
        <ele>170.8</ele>
        <time>2022-12-08T12:27:04Z</time>
      </trkpt>
      <trkpt lat="48.15249" lon="-3.64147">
        <ele>170.7</ele>
        <time>2022-12-08T12:27:05Z</time>
      </trkpt>
      <trkpt lat="48.1525" lon="-3.64137">
        <ele>170.6</ele>
        <time>2022-12-08T12:27:06Z</time>
      </trkpt>
      <trkpt lat="48.15252" lon="-3.64127">
        <ele>170.5</ele>
        <time>2022-12-08T12:27:07Z</time>
      </trkpt>
      <trkpt lat="48.15252" lon="-3.64117">
        <ele>170.4</ele>
        <time>2022-12-08T12:27:08Z</time>
      </trkpt>
      <trkpt lat="48.15253" lon="-3.64106">
        <ele>170.3</ele>
        <time>2022-12-08T12:27:09Z</time>
      </trkpt>
      <trkpt lat="48.15253" lon="-3.64096">
        <ele>170.2</ele>
        <time>2022-12-08T12:27:10Z</time>
      </trkpt>
      <trkpt lat="48.15253" lon="-3.64086">
        <ele>170.1</ele>
        <time>2022-12-08T12:27:11Z</time>
      </trkpt>
      <trkpt lat="48.15253" lon="-3.64076">
        <ele>170</ele>
        <time>2022-12-08T12:27:12Z</time>
      </trkpt>
      <trkpt lat="48.15254" lon="-3.64065">
        <ele>169.8</ele>
        <time>2022-12-08T12:27:13Z</time>
      </trkpt>
      <trkpt lat="48.15254" lon="-3.64054">
        <ele>169.7</ele>
        <time>2022-12-08T12:27:14Z</time>
      </trkpt>
      <trkpt lat="48.15253" lon="-3.64044">
        <ele>169.5</ele>
        <time>2022-12-08T12:27:15Z</time>
      </trkpt>
      <trkpt lat="48.15252" lon="-3.64033">
        <ele>169.4</ele>
        <time>2022-12-08T12:27:16Z</time>
      </trkpt>
      <trkpt lat="48.15252" lon="-3.64022">
        <ele>169.2</ele>
        <time>2022-12-08T12:27:17Z</time>
      </trkpt>
      <trkpt lat="48.15252" lon="-3.64011">
        <ele>169.1</ele>
        <time>2022-12-08T12:27:18Z</time>
      </trkpt>
      <trkpt lat="48.15252" lon="-3.64001">
        <ele>168.9</ele>
        <time>2022-12-08T12:27:19Z</time>
      </trkpt>
      <trkpt lat="48.15252" lon="-3.6399">
        <ele>168.7</ele>
        <time>2022-12-08T12:27:20Z</time>
      </trkpt>
      <trkpt lat="48.15252" lon="-3.63979">
        <ele>168.6</ele>
        <time>2022-12-08T12:27:21Z</time>
      </trkpt>
      <trkpt lat="48.15253" lon="-3.63968">
        <ele>168.4</ele>
        <time>2022-12-08T12:27:22Z</time>
      </trkpt>
      <trkpt lat="48.15253" lon="-3.63957">
        <ele>168.3</ele>
        <time>2022-12-08T12:27:23Z</time>
      </trkpt>
      <trkpt lat="48.15253" lon="-3.63946">
        <ele>168.2</ele>
        <time>2022-12-08T12:27:24Z</time>
      </trkpt>
      <trkpt lat="48.15254" lon="-3.63936">
        <ele>168.1</ele>
        <time>2022-12-08T12:27:25Z</time>
      </trkpt>
      <trkpt lat="48.15255" lon="-3.63925">
        <ele>168.1</ele>
        <time>2022-12-08T12:27:26Z</time>
      </trkpt>
      <trkpt lat="48.15257" lon="-3.63915">
        <ele>168.1</ele>
        <time>2022-12-08T12:27:27Z</time>
      </trkpt>
      <trkpt lat="48.15259" lon="-3.63905">
        <ele>168</ele>
        <time>2022-12-08T12:27:28Z</time>
      </trkpt>
      <trkpt lat="48.15261" lon="-3.63896">
        <ele>168</ele>
        <time>2022-12-08T12:27:29Z</time>
      </trkpt>
      <trkpt lat="48.15263" lon="-3.63886">
        <ele>168</ele>
        <time>2022-12-08T12:27:30Z</time>
      </trkpt>
      <trkpt lat="48.15265" lon="-3.63877">
        <ele>168</ele>
        <time>2022-12-08T12:27:31Z</time>
      </trkpt>
      <trkpt lat="48.15268" lon="-3.63868">
        <ele>168</ele>
        <time>2022-12-08T12:27:32Z</time>
      </trkpt>
      <trkpt lat="48.1527" lon="-3.63859">
        <ele>168</ele>
        <time>2022-12-08T12:27:33Z</time>
      </trkpt>
      <trkpt lat="48.15273" lon="-3.63849">
        <ele>167.9</ele>
        <time>2022-12-08T12:27:34Z</time>
      </trkpt>
      <trkpt lat="48.15275" lon="-3.6384">
        <ele>167.9</ele>
        <time>2022-12-08T12:27:35Z</time>
      </trkpt>
      <trkpt lat="48.15278" lon="-3.63831">
        <ele>167.8</ele>
        <time>2022-12-08T12:27:36Z</time>
      </trkpt>
      <trkpt lat="48.15281" lon="-3.63821">
        <ele>167.8</ele>
        <time>2022-12-08T12:27:37Z</time>
      </trkpt>
      <trkpt lat="48.15283" lon="-3.63812">
        <ele>167.8</ele>
        <time>2022-12-08T12:27:38Z</time>
      </trkpt>
      <trkpt lat="48.15286" lon="-3.63803">
        <ele>167.8</ele>
        <time>2022-12-08T12:27:39Z</time>
      </trkpt>
      <trkpt lat="48.15288" lon="-3.63794">
        <ele>167.8</ele>
        <time>2022-12-08T12:27:40Z</time>
      </trkpt>
      <trkpt lat="48.15291" lon="-3.63785">
        <ele>167.8</ele>
        <time>2022-12-08T12:27:41Z</time>
      </trkpt>
      <trkpt lat="48.15294" lon="-3.63776">
        <ele>167.8</ele>
        <time>2022-12-08T12:27:42Z</time>
      </trkpt>
      <trkpt lat="48.15296" lon="-3.63767">
        <ele>167.9</ele>
        <time>2022-12-08T12:27:43Z</time>
      </trkpt>
      <trkpt lat="48.15298" lon="-3.63758">
        <ele>168</ele>
        <time>2022-12-08T12:27:44Z</time>
      </trkpt>
      <trkpt lat="48.15301" lon="-3.6375">
        <ele>168.1</ele>
        <time>2022-12-08T12:27:45Z</time>
      </trkpt>
      <trkpt lat="48.15303" lon="-3.63741">
        <ele>168.2</ele>
        <time>2022-12-08T12:27:46Z</time>
      </trkpt>
      <trkpt lat="48.15305" lon="-3.63733">
        <ele>168.2</ele>
        <time>2022-12-08T12:27:47Z</time>
      </trkpt>
      <trkpt lat="48.15308" lon="-3.63726">
        <ele>168.3</ele>
        <time>2022-12-08T12:27:48Z</time>
      </trkpt>
      <trkpt lat="48.1531" lon="-3.63718">
        <ele>168.4</ele>
        <time>2022-12-08T12:27:49Z</time>
      </trkpt>
      <trkpt lat="48.15312" lon="-3.6371">
        <ele>168.5</ele>
        <time>2022-12-08T12:27:50Z</time>
      </trkpt>
      <trkpt lat="48.15315" lon="-3.63703">
        <ele>168.7</ele>
        <time>2022-12-08T12:27:51Z</time>
      </trkpt>
      <trkpt lat="48.15317" lon="-3.63695">
        <ele>169</ele>
        <time>2022-12-08T12:27:52Z</time>
      </trkpt>
      <trkpt lat="48.15319" lon="-3.63688">
        <ele>169.2</ele>
        <time>2022-12-08T12:27:53Z</time>
      </trkpt>
      <trkpt lat="48.15321" lon="-3.63681">
        <ele>169.5</ele>
        <time>2022-12-08T12:27:54Z</time>
      </trkpt>
      <trkpt lat="48.15323" lon="-3.63674">
        <ele>169.7</ele>
        <time>2022-12-08T12:27:55Z</time>
      </trkpt>
      <trkpt lat="48.15326" lon="-3.63667">
        <ele>170</ele>
        <time>2022-12-08T12:27:56Z</time>
      </trkpt>
      <trkpt lat="48.15327" lon="-3.63661">
        <ele>170.2</ele>
        <time>2022-12-08T12:27:57Z</time>
      </trkpt>
      <trkpt lat="48.15329" lon="-3.63654">
        <ele>170.4</ele>
        <time>2022-12-08T12:27:58Z</time>
      </trkpt>
      <trkpt lat="48.15331" lon="-3.63648">
        <ele>170.6</ele>
        <time>2022-12-08T12:27:59Z</time>
      </trkpt>
      <trkpt lat="48.15333" lon="-3.63641">
        <ele>170.8</ele>
        <time>2022-12-08T12:28:00Z</time>
      </trkpt>
      <trkpt lat="48.15335" lon="-3.63634">
        <ele>171</ele>
        <time>2022-12-08T12:28:01Z</time>
      </trkpt>
      <trkpt lat="48.15337" lon="-3.63628">
        <ele>171.2</ele>
        <time>2022-12-08T12:28:02Z</time>
      </trkpt>
      <trkpt lat="48.15339" lon="-3.63621">
        <ele>171.3</ele>
        <time>2022-12-08T12:28:03Z</time>
      </trkpt>
      <trkpt lat="48.15341" lon="-3.63615">
        <ele>171.5</ele>
        <time>2022-12-08T12:28:04Z</time>
      </trkpt>
      <trkpt lat="48.15342" lon="-3.63609">
        <ele>171.7</ele>
        <time>2022-12-08T12:28:05Z</time>
      </trkpt>
      <trkpt lat="48.15344" lon="-3.63602">
        <ele>171.8</ele>
        <time>2022-12-08T12:28:06Z</time>
      </trkpt>
      <trkpt lat="48.15347" lon="-3.63595">
        <ele>172</ele>
        <time>2022-12-08T12:28:07Z</time>
      </trkpt>
      <trkpt lat="48.15349" lon="-3.63589">
        <ele>172.1</ele>
        <time>2022-12-08T12:28:08Z</time>
      </trkpt>
      <trkpt lat="48.1535" lon="-3.63582">
        <ele>172.3</ele>
        <time>2022-12-08T12:28:09Z</time>
      </trkpt>
      <trkpt lat="48.15351" lon="-3.63575">
        <ele>172.4</ele>
        <time>2022-12-08T12:28:10Z</time>
      </trkpt>
      <trkpt lat="48.15352" lon="-3.63569">
        <ele>172.5</ele>
        <time>2022-12-08T12:28:11Z</time>
      </trkpt>
      <trkpt lat="48.15353" lon="-3.63562">
        <ele>172.5</ele>
        <time>2022-12-08T12:28:12Z</time>
      </trkpt>
      <trkpt lat="48.15354" lon="-3.63556">
        <ele>172.6</ele>
        <time>2022-12-08T12:28:13Z</time>
      </trkpt>
      <trkpt lat="48.15355" lon="-3.63549">
        <ele>172.7</ele>
        <time>2022-12-08T12:28:14Z</time>
      </trkpt>
      <trkpt lat="48.15356" lon="-3.63543">
        <ele>172.7</ele>
        <time>2022-12-08T12:28:15Z</time>
      </trkpt>
      <trkpt lat="48.15358" lon="-3.63536">
        <ele>172.8</ele>
        <time>2022-12-08T12:28:16Z</time>
      </trkpt>
      <trkpt lat="48.15359" lon="-3.6353">
        <ele>172.8</ele>
        <time>2022-12-08T12:28:17Z</time>
      </trkpt>
      <trkpt lat="48.1536" lon="-3.63522">
        <ele>172.9</ele>
        <time>2022-12-08T12:28:18Z</time>
      </trkpt>
      <trkpt lat="48.1536" lon="-3.63515">
        <ele>173</ele>
        <time>2022-12-08T12:28:19Z</time>
      </trkpt>
      <trkpt lat="48.15361" lon="-3.63508">
        <ele>173</ele>
        <time>2022-12-08T12:28:20Z</time>
      </trkpt>
      <trkpt lat="48.15361" lon="-3.63501">
        <ele>173.1</ele>
        <time>2022-12-08T12:28:21Z</time>
      </trkpt>
      <trkpt lat="48.15361" lon="-3.63493">
        <ele>173.1</ele>
        <time>2022-12-08T12:28:22Z</time>
      </trkpt>
      <trkpt lat="48.15362" lon="-3.63485">
        <ele>173.1</ele>
        <time>2022-12-08T12:28:23Z</time>
      </trkpt>
      <trkpt lat="48.15362" lon="-3.63477">
        <ele>173.2</ele>
        <time>2022-12-08T12:28:24Z</time>
      </trkpt>
      <trkpt lat="48.15362" lon="-3.63469">
        <ele>173.2</ele>
        <time>2022-12-08T12:28:25Z</time>
      </trkpt>
      <trkpt lat="48.15361" lon="-3.63462">
        <ele>173.2</ele>
        <time>2022-12-08T12:28:26Z</time>
      </trkpt>
      <trkpt lat="48.15361" lon="-3.63455">
        <ele>173.3</ele>
        <time>2022-12-08T12:28:27Z</time>
      </trkpt>
      <trkpt lat="48.1536" lon="-3.63447">
        <ele>173.4</ele>
        <time>2022-12-08T12:28:28Z</time>
      </trkpt>
      <trkpt lat="48.1536" lon="-3.6344">
        <ele>173.4</ele>
        <time>2022-12-08T12:28:29Z</time>
      </trkpt>
      <trkpt lat="48.15359" lon="-3.63433">
        <ele>173.4</ele>
        <time>2022-12-08T12:28:30Z</time>
      </trkpt>
      <trkpt lat="48.15359" lon="-3.63426">
        <ele>173.5</ele>
        <time>2022-12-08T12:28:31Z</time>
      </trkpt>
      <trkpt lat="48.15359" lon="-3.63418">
        <ele>173.5</ele>
        <time>2022-12-08T12:28:32Z</time>
      </trkpt>
      <trkpt lat="48.15358" lon="-3.63411">
        <ele>173.6</ele>
        <time>2022-12-08T12:28:33Z</time>
      </trkpt>
      <trkpt lat="48.15358" lon="-3.63403">
        <ele>173.7</ele>
        <time>2022-12-08T12:28:34Z</time>
      </trkpt>
      <trkpt lat="48.15357" lon="-3.63396">
        <ele>173.7</ele>
        <time>2022-12-08T12:28:35Z</time>
      </trkpt>
      <trkpt lat="48.15357" lon="-3.63388">
        <ele>173.8</ele>
        <time>2022-12-08T12:28:36Z</time>
      </trkpt>
      <trkpt lat="48.15357" lon="-3.6338">
        <ele>173.8</ele>
        <time>2022-12-08T12:28:37Z</time>
      </trkpt>
      <trkpt lat="48.15357" lon="-3.63373">
        <ele>173.8</ele>
        <time>2022-12-08T12:28:38Z</time>
      </trkpt>
      <trkpt lat="48.15357" lon="-3.63365">
        <ele>173.8</ele>
        <time>2022-12-08T12:28:39Z</time>
      </trkpt>
      <trkpt lat="48.15356" lon="-3.63358">
        <ele>173.9</ele>
        <time>2022-12-08T12:28:40Z</time>
      </trkpt>
      <trkpt lat="48.15356" lon="-3.6335">
        <ele>173.8</ele>
        <time>2022-12-08T12:28:41Z</time>
      </trkpt>
      <trkpt lat="48.15356" lon="-3.63343">
        <ele>173.8</ele>
        <time>2022-12-08T12:28:42Z</time>
      </trkpt>
      <trkpt lat="48.15356" lon="-3.63336">
        <ele>173.8</ele>
        <time>2022-12-08T12:28:43Z</time>
      </trkpt>
      <trkpt lat="48.15355" lon="-3.63328">
        <ele>173.8</ele>
        <time>2022-12-08T12:28:44Z</time>
      </trkpt>
      <trkpt lat="48.15355" lon="-3.63319">
        <ele>173.7</ele>
        <time>2022-12-08T12:28:45Z</time>
      </trkpt>
      <trkpt lat="48.15354" lon="-3.63311">
        <ele>173.5</ele>
        <time>2022-12-08T12:28:46Z</time>
      </trkpt>
      <trkpt lat="48.15354" lon="-3.63303">
        <ele>173.4</ele>
        <time>2022-12-08T12:28:47Z</time>
      </trkpt>
      <trkpt lat="48.15354" lon="-3.63295">
        <ele>173.3</ele>
        <time>2022-12-08T12:28:48Z</time>
      </trkpt>
      <trkpt lat="48.15353" lon="-3.63286">
        <ele>173.3</ele>
        <time>2022-12-08T12:28:49Z</time>
      </trkpt>
      <trkpt lat="48.15353" lon="-3.63277">
        <ele>173.2</ele>
        <time>2022-12-08T12:28:50Z</time>
      </trkpt>
      <trkpt lat="48.15353" lon="-3.63269">
        <ele>173.2</ele>
        <time>2022-12-08T12:28:51Z</time>
      </trkpt>
      <trkpt lat="48.15352" lon="-3.63261">
        <ele>173.1</ele>
        <time>2022-12-08T12:28:52Z</time>
      </trkpt>
      <trkpt lat="48.15352" lon="-3.63252">
        <ele>173</ele>
        <time>2022-12-08T12:28:53Z</time>
      </trkpt>
      <trkpt lat="48.15351" lon="-3.63244">
        <ele>173</ele>
        <time>2022-12-08T12:28:54Z</time>
      </trkpt>
      <trkpt lat="48.1535" lon="-3.63236">
        <ele>172.9</ele>
        <time>2022-12-08T12:28:55Z</time>
      </trkpt>
      <trkpt lat="48.15349" lon="-3.63228">
        <ele>172.9</ele>
        <time>2022-12-08T12:28:56Z</time>
      </trkpt>
      <trkpt lat="48.15348" lon="-3.6322">
        <ele>172.9</ele>
        <time>2022-12-08T12:28:57Z</time>
      </trkpt>
      <trkpt lat="48.15347" lon="-3.63212">
        <ele>172.9</ele>
        <time>2022-12-08T12:28:58Z</time>
      </trkpt>
      <trkpt lat="48.15346" lon="-3.63205">
        <ele>172.9</ele>
        <time>2022-12-08T12:28:59Z</time>
      </trkpt>
      <trkpt lat="48.15345" lon="-3.63197">
        <ele>172.9</ele>
        <time>2022-12-08T12:29:00Z</time>
      </trkpt>
      <trkpt lat="48.15345" lon="-3.63189">
        <ele>172.9</ele>
        <time>2022-12-08T12:29:01Z</time>
      </trkpt>
      <trkpt lat="48.15344" lon="-3.63182">
        <ele>172.9</ele>
        <time>2022-12-08T12:29:02Z</time>
      </trkpt>
      <trkpt lat="48.15343" lon="-3.63174">
        <ele>172.9</ele>
        <time>2022-12-08T12:29:03Z</time>
      </trkpt>
      <trkpt lat="48.15343" lon="-3.63167">
        <ele>173</ele>
        <time>2022-12-08T12:29:04Z</time>
      </trkpt>
      <trkpt lat="48.15342" lon="-3.6316">
        <ele>173</ele>
        <time>2022-12-08T12:29:05Z</time>
      </trkpt>
      <trkpt lat="48.15342" lon="-3.63152">
        <ele>173</ele>
        <time>2022-12-08T12:29:06Z</time>
      </trkpt>
      <trkpt lat="48.15341" lon="-3.63145">
        <ele>173.1</ele>
        <time>2022-12-08T12:29:07Z</time>
      </trkpt>
      <trkpt lat="48.1534" lon="-3.63138">
        <ele>173.1</ele>
        <time>2022-12-08T12:29:08Z</time>
      </trkpt>
      <trkpt lat="48.1534" lon="-3.63131">
        <ele>173.1</ele>
        <time>2022-12-08T12:29:09Z</time>
      </trkpt>
      <trkpt lat="48.15339" lon="-3.63124">
        <ele>173.2</ele>
        <time>2022-12-08T12:29:10Z</time>
      </trkpt>
      <trkpt lat="48.15339" lon="-3.63117">
        <ele>173.2</ele>
        <time>2022-12-08T12:29:11Z</time>
      </trkpt>
      <trkpt lat="48.15338" lon="-3.63109">
        <ele>173.2</ele>
        <time>2022-12-08T12:29:12Z</time>
      </trkpt>
      <trkpt lat="48.15337" lon="-3.63102">
        <ele>173.2</ele>
        <time>2022-12-08T12:29:13Z</time>
      </trkpt>
      <trkpt lat="48.15337" lon="-3.63095">
        <ele>173.3</ele>
        <time>2022-12-08T12:29:14Z</time>
      </trkpt>
      <trkpt lat="48.15336" lon="-3.63088">
        <ele>173.3</ele>
        <time>2022-12-08T12:29:15Z</time>
      </trkpt>
      <trkpt lat="48.15335" lon="-3.63081">
        <ele>173.3</ele>
        <time>2022-12-08T12:29:16Z</time>
      </trkpt>
      <trkpt lat="48.15334" lon="-3.63074">
        <ele>173.4</ele>
        <time>2022-12-08T12:29:17Z</time>
      </trkpt>
      <trkpt lat="48.15334" lon="-3.63067">
        <ele>173.4</ele>
        <time>2022-12-08T12:29:18Z</time>
      </trkpt>
      <trkpt lat="48.15333" lon="-3.6306">
        <ele>173.5</ele>
        <time>2022-12-08T12:29:19Z</time>
      </trkpt>
      <trkpt lat="48.15333" lon="-3.63053">
        <ele>173.5</ele>
        <time>2022-12-08T12:29:20Z</time>
      </trkpt>
      <trkpt lat="48.15331" lon="-3.63046">
        <ele>173.6</ele>
        <time>2022-12-08T12:29:21Z</time>
      </trkpt>
      <trkpt lat="48.1533" lon="-3.63039">
        <ele>173.6</ele>
        <time>2022-12-08T12:29:22Z</time>
      </trkpt>
      <trkpt lat="48.1533" lon="-3.63032">
        <ele>173.7</ele>
        <time>2022-12-08T12:29:23Z</time>
      </trkpt>
      <trkpt lat="48.15329" lon="-3.63025">
        <ele>173.8</ele>
        <time>2022-12-08T12:29:24Z</time>
      </trkpt>
      <trkpt lat="48.15328" lon="-3.63019">
        <ele>173.9</ele>
        <time>2022-12-08T12:29:25Z</time>
      </trkpt>
      <trkpt lat="48.15327" lon="-3.63012">
        <ele>173.9</ele>
        <time>2022-12-08T12:29:26Z</time>
      </trkpt>
      <trkpt lat="48.15326" lon="-3.63005">
        <ele>174</ele>
        <time>2022-12-08T12:29:27Z</time>
      </trkpt>
      <trkpt lat="48.15326" lon="-3.62998">
        <ele>174</ele>
        <time>2022-12-08T12:29:28Z</time>
      </trkpt>
      <trkpt lat="48.15325" lon="-3.62991">
        <ele>174.1</ele>
        <time>2022-12-08T12:29:29Z</time>
      </trkpt>
      <trkpt lat="48.15324" lon="-3.62984">
        <ele>174.1</ele>
        <time>2022-12-08T12:29:30Z</time>
      </trkpt>
      <trkpt lat="48.15323" lon="-3.62977">
        <ele>174.2</ele>
        <time>2022-12-08T12:29:31Z</time>
      </trkpt>
      <trkpt lat="48.15323" lon="-3.62971">
        <ele>174.3</ele>
        <time>2022-12-08T12:29:32Z</time>
      </trkpt>
      <trkpt lat="48.15322" lon="-3.62964">
        <ele>174.4</ele>
        <time>2022-12-08T12:29:33Z</time>
      </trkpt>
      <trkpt lat="48.15321" lon="-3.62957">
        <ele>174.5</ele>
        <time>2022-12-08T12:29:34Z</time>
      </trkpt>
      <trkpt lat="48.1532" lon="-3.6295">
        <ele>174.6</ele>
        <time>2022-12-08T12:29:35Z</time>
      </trkpt>
      <trkpt lat="48.15319" lon="-3.62943">
        <ele>174.6</ele>
        <time>2022-12-08T12:29:36Z</time>
      </trkpt>
      <trkpt lat="48.15318" lon="-3.62936">
        <ele>174.6</ele>
        <time>2022-12-08T12:29:37Z</time>
      </trkpt>
      <trkpt lat="48.15318" lon="-3.62932">
        <ele>174.7</ele>
        <time>2022-12-08T12:29:38Z</time>
      </trkpt>
      <trkpt lat="48.15317" lon="-3.62924">
        <ele>174.7</ele>
        <time>2022-12-08T12:29:39Z</time>
      </trkpt>
      <trkpt lat="48.15317" lon="-3.62918">
        <ele>174.7</ele>
        <time>2022-12-08T12:29:40Z</time>
      </trkpt>
      <trkpt lat="48.15317" lon="-3.62913">
        <ele>174.6</ele>
        <time>2022-12-08T12:29:41Z</time>
      </trkpt>
      <trkpt lat="48.15318" lon="-3.62909">
        <ele>174.8</ele>
        <time>2022-12-08T12:29:42Z</time>
      </trkpt>
      <trkpt lat="48.15318" lon="-3.62906">
        <ele>174.9</ele>
        <time>2022-12-08T12:29:43Z</time>
      </trkpt>
      <trkpt lat="48.15318" lon="-3.62905">
        <ele>174.9</ele>
        <time>2022-12-08T12:29:44Z</time>
      </trkpt>
      <trkpt lat="48.15318" lon="-3.62905">
        <ele>174.9</ele>
        <time>2022-12-08T12:29:45Z</time>
      </trkpt>
      <trkpt lat="48.15318" lon="-3.62905">
        <ele>174.9</ele>
        <time>2022-12-08T12:29:46Z</time>
      </trkpt>
      <trkpt lat="48.15318" lon="-3.62906">
        <ele>174.9</ele>
        <time>2022-12-08T12:29:47Z</time>
      </trkpt>
      <trkpt lat="48.15318" lon="-3.62906">
        <ele>174.9</ele>
        <time>2022-12-08T12:29:48Z</time>
      </trkpt>
      <trkpt lat="48.15318" lon="-3.62906">
        <ele>175</ele>
        <time>2022-12-08T12:29:50Z</time>
      </trkpt>
      <trkpt lat="48.15318" lon="-3.62906">
        <ele>175</ele>
        <time>2022-12-08T12:29:51Z</time>
      </trkpt>
      <trkpt lat="48.15318" lon="-3.62906">
        <ele>175</ele>
        <time>2022-12-08T12:29:52Z</time>
      </trkpt>
      <trkpt lat="48.15318" lon="-3.62906">
        <ele>175</ele>
        <time>2022-12-08T12:29:53Z</time>
      </trkpt>
      <trkpt lat="48.15318" lon="-3.62906">
        <ele>175</ele>
        <time>2022-12-08T12:29:55Z</time>
      </trkpt>
      <trkpt lat="48.15321" lon="-3.62902">
        <ele>175.2</ele>
        <time>2022-12-08T12:29:58Z</time>
      </trkpt>
      <trkpt lat="48.15324" lon="-3.62901">
        <ele>175.3</ele>
        <time>2022-12-08T12:29:59Z</time>
      </trkpt>
      <trkpt lat="48.15326" lon="-3.62905">
        <ele>175.5</ele>
        <time>2022-12-08T12:30:00Z</time>
      </trkpt>
      <trkpt lat="48.15329" lon="-3.62908">
        <ele>175.7</ele>
        <time>2022-12-08T12:30:01Z</time>
      </trkpt>
      <trkpt lat="48.15332" lon="-3.6291">
        <ele>175.8</ele>
        <time>2022-12-08T12:30:02Z</time>
      </trkpt>
      <trkpt lat="48.15336" lon="-3.62914">
        <ele>176.1</ele>
        <time>2022-12-08T12:30:03Z</time>
      </trkpt>
      <trkpt lat="48.15339" lon="-3.62918">
        <ele>176.3</ele>
        <time>2022-12-08T12:30:04Z</time>
      </trkpt>
      <trkpt lat="48.15343" lon="-3.62922">
        <ele>176.5</ele>
        <time>2022-12-08T12:30:05Z</time>
      </trkpt>
      <trkpt lat="48.15347" lon="-3.62926">
        <ele>176.8</ele>
        <time>2022-12-08T12:30:06Z</time>
      </trkpt>
      <trkpt lat="48.15351" lon="-3.6293">
        <ele>177</ele>
        <time>2022-12-08T12:30:07Z</time>
      </trkpt>
      <trkpt lat="48.15354" lon="-3.62934">
        <ele>177.2</ele>
        <time>2022-12-08T12:30:08Z</time>
      </trkpt>
      <trkpt lat="48.15358" lon="-3.62937">
        <ele>177.4</ele>
        <time>2022-12-08T12:30:09Z</time>
      </trkpt>
      <trkpt lat="48.15361" lon="-3.6294">
        <ele>177.7</ele>
        <time>2022-12-08T12:30:10Z</time>
      </trkpt>
      <trkpt lat="48.15365" lon="-3.62944">
        <ele>177.9</ele>
        <time>2022-12-08T12:30:11Z</time>
      </trkpt>
      <trkpt lat="48.15368" lon="-3.62947">
        <ele>178.1</ele>
        <time>2022-12-08T12:30:12Z</time>
      </trkpt>
      <trkpt lat="48.15372" lon="-3.6295">
        <ele>178.3</ele>
        <time>2022-12-08T12:30:13Z</time>
      </trkpt>
      <trkpt lat="48.15375" lon="-3.62954">
        <ele>178.5</ele>
        <time>2022-12-08T12:30:14Z</time>
      </trkpt>
      <trkpt lat="48.15379" lon="-3.62957">
        <ele>178.7</ele>
        <time>2022-12-08T12:30:15Z</time>
      </trkpt>
      <trkpt lat="48.15382" lon="-3.6296">
        <ele>178.9</ele>
        <time>2022-12-08T12:30:16Z</time>
      </trkpt>
      <trkpt lat="48.15386" lon="-3.62963">
        <ele>179.1</ele>
        <time>2022-12-08T12:30:17Z</time>
      </trkpt>
      <trkpt lat="48.15388" lon="-3.62965">
        <ele>179.2</ele>
        <time>2022-12-08T12:30:18Z</time>
      </trkpt>
      <trkpt lat="48.15392" lon="-3.62969">
        <ele>179.5</ele>
        <time>2022-12-08T12:30:19Z</time>
      </trkpt>
      <trkpt lat="48.15396" lon="-3.62973">
        <ele>179.7</ele>
        <time>2022-12-08T12:30:20Z</time>
      </trkpt>
      <trkpt lat="48.15399" lon="-3.62976">
        <ele>179.9</ele>
        <time>2022-12-08T12:30:21Z</time>
      </trkpt>
      <trkpt lat="48.15403" lon="-3.62979">
        <ele>180.1</ele>
        <time>2022-12-08T12:30:22Z</time>
      </trkpt>
      <trkpt lat="48.15406" lon="-3.62982">
        <ele>180.3</ele>
        <time>2022-12-08T12:30:23Z</time>
      </trkpt>
      <trkpt lat="48.15409" lon="-3.62986">
        <ele>180.5</ele>
        <time>2022-12-08T12:30:24Z</time>
      </trkpt>
      <trkpt lat="48.15413" lon="-3.62989">
        <ele>180.7</ele>
        <time>2022-12-08T12:30:25Z</time>
      </trkpt>
      <trkpt lat="48.15416" lon="-3.62992">
        <ele>180.9</ele>
        <time>2022-12-08T12:30:26Z</time>
      </trkpt>
      <trkpt lat="48.1542" lon="-3.62996">
        <ele>181.1</ele>
        <time>2022-12-08T12:30:27Z</time>
      </trkpt>
      <trkpt lat="48.15422" lon="-3.62998">
        <ele>181.2</ele>
        <time>2022-12-08T12:30:28Z</time>
      </trkpt>
      <trkpt lat="48.15426" lon="-3.63002">
        <ele>181.5</ele>
        <time>2022-12-08T12:30:29Z</time>
      </trkpt>
      <trkpt lat="48.15429" lon="-3.63005">
        <ele>181.7</ele>
        <time>2022-12-08T12:30:30Z</time>
      </trkpt>
      <trkpt lat="48.15432" lon="-3.63008">
        <ele>181.9</ele>
        <time>2022-12-08T12:30:31Z</time>
      </trkpt>
      <trkpt lat="48.15436" lon="-3.63011">
        <ele>182.1</ele>
        <time>2022-12-08T12:30:32Z</time>
      </trkpt>
      <trkpt lat="48.15439" lon="-3.63014">
        <ele>182.3</ele>
        <time>2022-12-08T12:30:33Z</time>
      </trkpt>
      <trkpt lat="48.15442" lon="-3.63017">
        <ele>182.5</ele>
        <time>2022-12-08T12:30:34Z</time>
      </trkpt>
      <trkpt lat="48.15446" lon="-3.6302">
        <ele>182.7</ele>
        <time>2022-12-08T12:30:35Z</time>
      </trkpt>
      <trkpt lat="48.15449" lon="-3.63024">
        <ele>182.9</ele>
        <time>2022-12-08T12:30:36Z</time>
      </trkpt>
      <trkpt lat="48.15452" lon="-3.63027">
        <ele>183.1</ele>
        <time>2022-12-08T12:30:37Z</time>
      </trkpt>
      <trkpt lat="48.15455" lon="-3.6303">
        <ele>183.3</ele>
        <time>2022-12-08T12:30:38Z</time>
      </trkpt>
      <trkpt lat="48.15458" lon="-3.63033">
        <ele>183.5</ele>
        <time>2022-12-08T12:30:39Z</time>
      </trkpt>
      <trkpt lat="48.15461" lon="-3.63035">
        <ele>183.7</ele>
        <time>2022-12-08T12:30:40Z</time>
      </trkpt>
      <trkpt lat="48.15464" lon="-3.63038">
        <ele>183.9</ele>
        <time>2022-12-08T12:30:41Z</time>
      </trkpt>
      <trkpt lat="48.15467" lon="-3.63041">
        <ele>184.1</ele>
        <time>2022-12-08T12:30:42Z</time>
      </trkpt>
      <trkpt lat="48.15471" lon="-3.63044">
        <ele>184.3</ele>
        <time>2022-12-08T12:30:43Z</time>
      </trkpt>
      <trkpt lat="48.15474" lon="-3.63047">
        <ele>184.5</ele>
        <time>2022-12-08T12:30:44Z</time>
      </trkpt>
      <trkpt lat="48.15476" lon="-3.63047">
        <ele>184.6</ele>
        <time>2022-12-08T12:30:45Z</time>
      </trkpt>
      <trkpt lat="48.15483" lon="-3.63048">
        <ele>184.9</ele>
        <time>2022-12-08T12:30:47Z</time>
      </trkpt>
      <trkpt lat="48.15487" lon="-3.63047">
        <ele>185.9</ele>
        <time>2022-12-08T12:30:48Z</time>
      </trkpt>
      <trkpt lat="48.15492" lon="-3.63042">
        <ele>185.9</ele>
        <time>2022-12-08T12:30:49Z</time>
      </trkpt>
      <trkpt lat="48.15495" lon="-3.63039">
        <ele>185.9</ele>
        <time>2022-12-08T12:30:50Z</time>
      </trkpt>
      <trkpt lat="48.15496" lon="-3.63034">
        <ele>185.9</ele>
        <time>2022-12-08T12:30:51Z</time>
      </trkpt>
      <trkpt lat="48.15498" lon="-3.63029">
        <ele>185.9</ele>
        <time>2022-12-08T12:30:52Z</time>
      </trkpt>
      <trkpt lat="48.15499" lon="-3.63024">
        <ele>185.9</ele>
        <time>2022-12-08T12:30:53Z</time>
      </trkpt>
      <trkpt lat="48.155" lon="-3.6302">
        <ele>185.9</ele>
        <time>2022-12-08T12:30:54Z</time>
      </trkpt>
      <trkpt lat="48.15501" lon="-3.63015">
        <ele>185.9</ele>
        <time>2022-12-08T12:30:55Z</time>
      </trkpt>
      <trkpt lat="48.15502" lon="-3.63009">
        <ele>185.9</ele>
        <time>2022-12-08T12:30:56Z</time>
      </trkpt>
      <trkpt lat="48.15502" lon="-3.63003">
        <ele>185.9</ele>
        <time>2022-12-08T12:30:57Z</time>
      </trkpt>
      <trkpt lat="48.15503" lon="-3.62998">
        <ele>185.9</ele>
        <time>2022-12-08T12:30:58Z</time>
      </trkpt>
      <trkpt lat="48.15503" lon="-3.62992">
        <ele>185.9</ele>
        <time>2022-12-08T12:30:59Z</time>
      </trkpt>
      <trkpt lat="48.15503" lon="-3.62989">
        <ele>185.8</ele>
        <time>2022-12-08T12:31:00Z</time>
      </trkpt>
      <trkpt lat="48.15504" lon="-3.62983">
        <ele>185.8</ele>
        <time>2022-12-08T12:31:01Z</time>
      </trkpt>
      <trkpt lat="48.15505" lon="-3.62972">
        <ele>185.6</ele>
        <time>2022-12-08T12:31:03Z</time>
      </trkpt>
      <trkpt lat="48.15505" lon="-3.62964">
        <ele>185.4</ele>
        <time>2022-12-08T12:31:04Z</time>
      </trkpt>
      <trkpt lat="48.15506" lon="-3.62958">
        <ele>185.2</ele>
        <time>2022-12-08T12:31:05Z</time>
      </trkpt>
      <trkpt lat="48.15507" lon="-3.62952">
        <ele>185</ele>
        <time>2022-12-08T12:31:06Z</time>
      </trkpt>
      <trkpt lat="48.15508" lon="-3.62945">
        <ele>184.9</ele>
        <time>2022-12-08T12:31:07Z</time>
      </trkpt>
      <trkpt lat="48.1551" lon="-3.62937">
        <ele>184.6</ele>
        <time>2022-12-08T12:31:08Z</time>
      </trkpt>
      <trkpt lat="48.15511" lon="-3.62929">
        <ele>184.4</ele>
        <time>2022-12-08T12:31:09Z</time>
      </trkpt>
      <trkpt lat="48.15511" lon="-3.62922">
        <ele>184.2</ele>
        <time>2022-12-08T12:31:10Z</time>
      </trkpt>
      <trkpt lat="48.15512" lon="-3.62915">
        <ele>184</ele>
        <time>2022-12-08T12:31:11Z</time>
      </trkpt>
      <trkpt lat="48.15513" lon="-3.62908">
        <ele>183.8</ele>
        <time>2022-12-08T12:31:12Z</time>
      </trkpt>
      <trkpt lat="48.15513" lon="-3.62901">
        <ele>183.5</ele>
        <time>2022-12-08T12:31:13Z</time>
      </trkpt>
      <trkpt lat="48.15514" lon="-3.62894">
        <ele>183.3</ele>
        <time>2022-12-08T12:31:14Z</time>
      </trkpt>
      <trkpt lat="48.15515" lon="-3.62887">
        <ele>183</ele>
        <time>2022-12-08T12:31:15Z</time>
      </trkpt>
      <trkpt lat="48.15516" lon="-3.62879">
        <ele>182.7</ele>
        <time>2022-12-08T12:31:16Z</time>
      </trkpt>
      <trkpt lat="48.15518" lon="-3.62871">
        <ele>182.4</ele>
        <time>2022-12-08T12:31:17Z</time>
      </trkpt>
      <trkpt lat="48.15519" lon="-3.62862">
        <ele>182</ele>
        <time>2022-12-08T12:31:18Z</time>
      </trkpt>
      <trkpt lat="48.1552" lon="-3.62854">
        <ele>181.7</ele>
        <time>2022-12-08T12:31:19Z</time>
      </trkpt>
      <trkpt lat="48.15521" lon="-3.62845">
        <ele>181.3</ele>
        <time>2022-12-08T12:31:20Z</time>
      </trkpt>
      <trkpt lat="48.15522" lon="-3.62835">
        <ele>180.9</ele>
        <time>2022-12-08T12:31:21Z</time>
      </trkpt>
      <trkpt lat="48.15524" lon="-3.62825">
        <ele>180.4</ele>
        <time>2022-12-08T12:31:22Z</time>
      </trkpt>
      <trkpt lat="48.15525" lon="-3.62815">
        <ele>180</ele>
        <time>2022-12-08T12:31:23Z</time>
      </trkpt>
      <trkpt lat="48.15527" lon="-3.62804">
        <ele>179.5</ele>
        <time>2022-12-08T12:31:24Z</time>
      </trkpt>
      <trkpt lat="48.15528" lon="-3.62793">
        <ele>178.9</ele>
        <time>2022-12-08T12:31:25Z</time>
      </trkpt>
      <trkpt lat="48.1553" lon="-3.62782">
        <ele>178.5</ele>
        <time>2022-12-08T12:31:26Z</time>
      </trkpt>
      <trkpt lat="48.15533" lon="-3.62772">
        <ele>178.1</ele>
        <time>2022-12-08T12:31:27Z</time>
      </trkpt>
      <trkpt lat="48.15535" lon="-3.62761">
        <ele>177.7</ele>
        <time>2022-12-08T12:31:28Z</time>
      </trkpt>
      <trkpt lat="48.15539" lon="-3.62749">
        <ele>177.4</ele>
        <time>2022-12-08T12:31:29Z</time>
      </trkpt>
      <trkpt lat="48.15542" lon="-3.62738">
        <ele>177</ele>
        <time>2022-12-08T12:31:30Z</time>
      </trkpt>
      <trkpt lat="48.15545" lon="-3.62726">
        <ele>176.7</ele>
        <time>2022-12-08T12:31:31Z</time>
      </trkpt>
      <trkpt lat="48.15549" lon="-3.62715">
        <ele>176.3</ele>
        <time>2022-12-08T12:31:32Z</time>
      </trkpt>
      <trkpt lat="48.15554" lon="-3.62704">
        <ele>175.9</ele>
        <time>2022-12-08T12:31:33Z</time>
      </trkpt>
      <trkpt lat="48.15559" lon="-3.62693">
        <ele>175.4</ele>
        <time>2022-12-08T12:31:34Z</time>
      </trkpt>
      <trkpt lat="48.15565" lon="-3.62682">
        <ele>175</ele>
        <time>2022-12-08T12:31:35Z</time>
      </trkpt>
      <trkpt lat="48.15571" lon="-3.62673">
        <ele>174.6</ele>
        <time>2022-12-08T12:31:36Z</time>
      </trkpt>
      <trkpt lat="48.15577" lon="-3.62664">
        <ele>174.3</ele>
        <time>2022-12-08T12:31:37Z</time>
      </trkpt>
      <trkpt lat="48.15584" lon="-3.62656">
        <ele>174</ele>
        <time>2022-12-08T12:31:38Z</time>
      </trkpt>
      <trkpt lat="48.15591" lon="-3.62648">
        <ele>173.6</ele>
        <time>2022-12-08T12:31:39Z</time>
      </trkpt>
      <trkpt lat="48.15597" lon="-3.62641">
        <ele>173.4</ele>
        <time>2022-12-08T12:31:40Z</time>
      </trkpt>
      <trkpt lat="48.15604" lon="-3.62636">
        <ele>173.1</ele>
        <time>2022-12-08T12:31:41Z</time>
      </trkpt>
      <trkpt lat="48.15612" lon="-3.62631">
        <ele>172.9</ele>
        <time>2022-12-08T12:31:42Z</time>
      </trkpt>
      <trkpt lat="48.15619" lon="-3.62627">
        <ele>172.7</ele>
        <time>2022-12-08T12:31:43Z</time>
      </trkpt>
      <trkpt lat="48.15627" lon="-3.62623">
        <ele>172.5</ele>
        <time>2022-12-08T12:31:44Z</time>
      </trkpt>
      <trkpt lat="48.15634" lon="-3.6262">
        <ele>172.3</ele>
        <time>2022-12-08T12:31:45Z</time>
      </trkpt>
      <trkpt lat="48.15641" lon="-3.62618">
        <ele>172.1</ele>
        <time>2022-12-08T12:31:46Z</time>
      </trkpt>
      <trkpt lat="48.15649" lon="-3.62616">
        <ele>171.8</ele>
        <time>2022-12-08T12:31:47Z</time>
      </trkpt>
      <trkpt lat="48.15656" lon="-3.62615">
        <ele>171.5</ele>
        <time>2022-12-08T12:31:48Z</time>
      </trkpt>
      <trkpt lat="48.15664" lon="-3.62614">
        <ele>171.2</ele>
        <time>2022-12-08T12:31:49Z</time>
      </trkpt>
      <trkpt lat="48.15671" lon="-3.62615">
        <ele>170.8</ele>
        <time>2022-12-08T12:31:50Z</time>
      </trkpt>
      <trkpt lat="48.15678" lon="-3.62616">
        <ele>170.5</ele>
        <time>2022-12-08T12:31:51Z</time>
      </trkpt>
      <trkpt lat="48.15686" lon="-3.62618">
        <ele>170</ele>
        <time>2022-12-08T12:31:52Z</time>
      </trkpt>
      <trkpt lat="48.15693" lon="-3.6262">
        <ele>169.6</ele>
        <time>2022-12-08T12:31:53Z</time>
      </trkpt>
      <trkpt lat="48.157" lon="-3.62623">
        <ele>169.1</ele>
        <time>2022-12-08T12:31:54Z</time>
      </trkpt>
      <trkpt lat="48.15707" lon="-3.62626">
        <ele>168.7</ele>
        <time>2022-12-08T12:31:55Z</time>
      </trkpt>
      <trkpt lat="48.15714" lon="-3.62629">
        <ele>168.3</ele>
        <time>2022-12-08T12:31:56Z</time>
      </trkpt>
      <trkpt lat="48.15721" lon="-3.62632">
        <ele>167.9</ele>
        <time>2022-12-08T12:31:57Z</time>
      </trkpt>
      <trkpt lat="48.15728" lon="-3.62635">
        <ele>167.5</ele>
        <time>2022-12-08T12:31:58Z</time>
      </trkpt>
      <trkpt lat="48.15735" lon="-3.62638">
        <ele>166.9</ele>
        <time>2022-12-08T12:31:59Z</time>
      </trkpt>
      <trkpt lat="48.15742" lon="-3.62639">
        <ele>166.4</ele>
        <time>2022-12-08T12:32:00Z</time>
      </trkpt>
      <trkpt lat="48.15749" lon="-3.62641">
        <ele>165.9</ele>
        <time>2022-12-08T12:32:01Z</time>
      </trkpt>
      <trkpt lat="48.15757" lon="-3.62643">
        <ele>165.4</ele>
        <time>2022-12-08T12:32:02Z</time>
      </trkpt>
      <trkpt lat="48.15764" lon="-3.62643">
        <ele>165</ele>
        <time>2022-12-08T12:32:03Z</time>
      </trkpt>
      <trkpt lat="48.15772" lon="-3.62644">
        <ele>164.6</ele>
        <time>2022-12-08T12:32:04Z</time>
      </trkpt>
      <trkpt lat="48.1578" lon="-3.62643">
        <ele>164.3</ele>
        <time>2022-12-08T12:32:05Z</time>
      </trkpt>
      <trkpt lat="48.15788" lon="-3.6264">
        <ele>164.1</ele>
        <time>2022-12-08T12:32:06Z</time>
      </trkpt>
      <trkpt lat="48.15797" lon="-3.62637">
        <ele>163.8</ele>
        <time>2022-12-08T12:32:07Z</time>
      </trkpt>
      <trkpt lat="48.15806" lon="-3.62632">
        <ele>163.6</ele>
        <time>2022-12-08T12:32:08Z</time>
      </trkpt>
      <trkpt lat="48.15814" lon="-3.62627">
        <ele>163.4</ele>
        <time>2022-12-08T12:32:09Z</time>
      </trkpt>
      <trkpt lat="48.15823" lon="-3.62621">
        <ele>163.2</ele>
        <time>2022-12-08T12:32:10Z</time>
      </trkpt>
      <trkpt lat="48.15831" lon="-3.62615">
        <ele>163.1</ele>
        <time>2022-12-08T12:32:11Z</time>
      </trkpt>
      <trkpt lat="48.15838" lon="-3.62607">
        <ele>163.1</ele>
        <time>2022-12-08T12:32:12Z</time>
      </trkpt>
      <trkpt lat="48.15846" lon="-3.62599">
        <ele>163.2</ele>
        <time>2022-12-08T12:32:13Z</time>
      </trkpt>
      <trkpt lat="48.15852" lon="-3.6259">
        <ele>163.4</ele>
        <time>2022-12-08T12:32:14Z</time>
      </trkpt>
      <trkpt lat="48.15858" lon="-3.6258">
        <ele>163.7</ele>
        <time>2022-12-08T12:32:15Z</time>
      </trkpt>
      <trkpt lat="48.15863" lon="-3.6257">
        <ele>164.1</ele>
        <time>2022-12-08T12:32:16Z</time>
      </trkpt>
      <trkpt lat="48.15868" lon="-3.62561">
        <ele>164.4</ele>
        <time>2022-12-08T12:32:17Z</time>
      </trkpt>
      <trkpt lat="48.15873" lon="-3.62552">
        <ele>164.9</ele>
        <time>2022-12-08T12:32:18Z</time>
      </trkpt>
      <trkpt lat="48.15877" lon="-3.62543">
        <ele>165.3</ele>
        <time>2022-12-08T12:32:19Z</time>
      </trkpt>
      <trkpt lat="48.15882" lon="-3.62534">
        <ele>165.8</ele>
        <time>2022-12-08T12:32:20Z</time>
      </trkpt>
      <trkpt lat="48.15886" lon="-3.62526">
        <ele>166.3</ele>
        <time>2022-12-08T12:32:21Z</time>
      </trkpt>
      <trkpt lat="48.1589" lon="-3.62517">
        <ele>166.8</ele>
        <time>2022-12-08T12:32:22Z</time>
      </trkpt>
      <trkpt lat="48.15893" lon="-3.62509">
        <ele>167.3</ele>
        <time>2022-12-08T12:32:23Z</time>
      </trkpt>
      <trkpt lat="48.15897" lon="-3.62501">
        <ele>167.8</ele>
        <time>2022-12-08T12:32:24Z</time>
      </trkpt>
      <trkpt lat="48.159" lon="-3.62494">
        <ele>168.3</ele>
        <time>2022-12-08T12:32:25Z</time>
      </trkpt>
      <trkpt lat="48.15904" lon="-3.62488">
        <ele>168.7</ele>
        <time>2022-12-08T12:32:26Z</time>
      </trkpt>
      <trkpt lat="48.15907" lon="-3.62482">
        <ele>169.1</ele>
        <time>2022-12-08T12:32:27Z</time>
      </trkpt>
      <trkpt lat="48.1591" lon="-3.62476">
        <ele>169.5</ele>
        <time>2022-12-08T12:32:28Z</time>
      </trkpt>
      <trkpt lat="48.15913" lon="-3.62471">
        <ele>169.8</ele>
        <time>2022-12-08T12:32:29Z</time>
      </trkpt>
      <trkpt lat="48.15916" lon="-3.62467">
        <ele>170.1</ele>
        <time>2022-12-08T12:32:30Z</time>
      </trkpt>
      <trkpt lat="48.1592" lon="-3.62462">
        <ele>170.4</ele>
        <time>2022-12-08T12:32:31Z</time>
      </trkpt>
      <trkpt lat="48.15921" lon="-3.6246">
        <ele>170.6</ele>
        <time>2022-12-08T12:32:32Z</time>
      </trkpt>
      <trkpt lat="48.15924" lon="-3.62456">
        <ele>170.9</ele>
        <time>2022-12-08T12:32:33Z</time>
      </trkpt>
      <trkpt lat="48.15927" lon="-3.62453">
        <ele>171.1</ele>
        <time>2022-12-08T12:32:34Z</time>
      </trkpt>
      <trkpt lat="48.1593" lon="-3.6245">
        <ele>171.4</ele>
        <time>2022-12-08T12:32:35Z</time>
      </trkpt>
      <trkpt lat="48.15933" lon="-3.62447">
        <ele>171.7</ele>
        <time>2022-12-08T12:32:36Z</time>
      </trkpt>
      <trkpt lat="48.15937" lon="-3.62443">
        <ele>172.1</ele>
        <time>2022-12-08T12:32:37Z</time>
      </trkpt>
      <trkpt lat="48.15938" lon="-3.62443">
        <ele>172.2</ele>
        <time>2022-12-08T12:32:39Z</time>
      </trkpt>
      <trkpt lat="48.15944" lon="-3.62435">
        <ele>173</ele>
        <time>2022-12-08T12:32:41Z</time>
      </trkpt>
      <trkpt lat="48.15947" lon="-3.62433">
        <ele>173.3</ele>
        <time>2022-12-08T12:32:42Z</time>
      </trkpt>
      <trkpt lat="48.1595" lon="-3.6243">
        <ele>173.6</ele>
        <time>2022-12-08T12:32:43Z</time>
      </trkpt>
      <trkpt lat="48.15952" lon="-3.62428">
        <ele>173.8</ele>
        <time>2022-12-08T12:32:44Z</time>
      </trkpt>
      <trkpt lat="48.15957" lon="-3.62425">
        <ele>174.3</ele>
        <time>2022-12-08T12:32:46Z</time>
      </trkpt>
      <trkpt lat="48.15962" lon="-3.62422">
        <ele>174.7</ele>
        <time>2022-12-08T12:32:48Z</time>
      </trkpt>
      <trkpt lat="48.15965" lon="-3.6242">
        <ele>175</ele>
        <time>2022-12-08T12:32:49Z</time>
      </trkpt>
      <trkpt lat="48.15967" lon="-3.62418">
        <ele>175.2</ele>
        <time>2022-12-08T12:32:50Z</time>
      </trkpt>
      <trkpt lat="48.1597" lon="-3.62417">
        <ele>175.5</ele>
        <time>2022-12-08T12:32:51Z</time>
      </trkpt>
      <trkpt lat="48.15975" lon="-3.62414">
        <ele>175.9</ele>
        <time>2022-12-08T12:32:53Z</time>
      </trkpt>
      <trkpt lat="48.15979" lon="-3.62411">
        <ele>176.2</ele>
        <time>2022-12-08T12:32:54Z</time>
      </trkpt>
      <trkpt lat="48.1598" lon="-3.62411">
        <ele>176.3</ele>
        <time>2022-12-08T12:32:55Z</time>
      </trkpt>
      <trkpt lat="48.15983" lon="-3.6241">
        <ele>176.5</ele>
        <time>2022-12-08T12:32:56Z</time>
      </trkpt>
      <trkpt lat="48.15985" lon="-3.62408">
        <ele>176.7</ele>
        <time>2022-12-08T12:32:57Z</time>
      </trkpt>
      <trkpt lat="48.15988" lon="-3.62406">
        <ele>176.9</ele>
        <time>2022-12-08T12:32:58Z</time>
      </trkpt>
      <trkpt lat="48.15991" lon="-3.62404">
        <ele>177</ele>
        <time>2022-12-08T12:32:59Z</time>
      </trkpt>
      <trkpt lat="48.15994" lon="-3.62403">
        <ele>177.3</ele>
        <time>2022-12-08T12:33:00Z</time>
      </trkpt>
      <trkpt lat="48.15995" lon="-3.62402">
        <ele>177.4</ele>
        <time>2022-12-08T12:33:01Z</time>
      </trkpt>
      <trkpt lat="48.15998" lon="-3.62401">
        <ele>177.5</ele>
        <time>2022-12-08T12:33:02Z</time>
      </trkpt>
      <trkpt lat="48.16001" lon="-3.624">
        <ele>177.7</ele>
        <time>2022-12-08T12:33:03Z</time>
      </trkpt>
      <trkpt lat="48.16005" lon="-3.62399">
        <ele>177.9</ele>
        <time>2022-12-08T12:33:04Z</time>
      </trkpt>
      <trkpt lat="48.16006" lon="-3.62398">
        <ele>177.9</ele>
        <time>2022-12-08T12:33:05Z</time>
      </trkpt>
      <trkpt lat="48.16009" lon="-3.62398">
        <ele>178.1</ele>
        <time>2022-12-08T12:33:06Z</time>
      </trkpt>
      <trkpt lat="48.16012" lon="-3.62397">
        <ele>178.2</ele>
        <time>2022-12-08T12:33:07Z</time>
      </trkpt>
      <trkpt lat="48.16015" lon="-3.62396">
        <ele>178.4</ele>
        <time>2022-12-08T12:33:08Z</time>
      </trkpt>
      <trkpt lat="48.16018" lon="-3.62396">
        <ele>178.5</ele>
        <time>2022-12-08T12:33:09Z</time>
      </trkpt>
      <trkpt lat="48.16021" lon="-3.62395">
        <ele>178.7</ele>
        <time>2022-12-08T12:33:10Z</time>
      </trkpt>
      <trkpt lat="48.16024" lon="-3.62395">
        <ele>178.9</ele>
        <time>2022-12-08T12:33:11Z</time>
      </trkpt>
      <trkpt lat="48.16027" lon="-3.62395">
        <ele>179.1</ele>
        <time>2022-12-08T12:33:12Z</time>
      </trkpt>
      <trkpt lat="48.16031" lon="-3.62394">
        <ele>179.5</ele>
        <time>2022-12-08T12:33:13Z</time>
      </trkpt>
      <trkpt lat="48.16032" lon="-3.62394">
        <ele>179.6</ele>
        <time>2022-12-08T12:33:14Z</time>
      </trkpt>
      <trkpt lat="48.16035" lon="-3.62394">
        <ele>179.8</ele>
        <time>2022-12-08T12:33:15Z</time>
      </trkpt>
      <trkpt lat="48.16039" lon="-3.62394">
        <ele>180.1</ele>
        <time>2022-12-08T12:33:16Z</time>
      </trkpt>
      <trkpt lat="48.1604" lon="-3.62394">
        <ele>180.3</ele>
        <time>2022-12-08T12:33:17Z</time>
      </trkpt>
      <trkpt lat="48.16044" lon="-3.62393">
        <ele>180.5</ele>
        <time>2022-12-08T12:33:18Z</time>
      </trkpt>
      <trkpt lat="48.16048" lon="-3.62393">
        <ele>180.9</ele>
        <time>2022-12-08T12:33:19Z</time>
      </trkpt>
      <trkpt lat="48.16049" lon="-3.62393">
        <ele>181</ele>
        <time>2022-12-08T12:33:20Z</time>
      </trkpt>
      <trkpt lat="48.16053" lon="-3.62393">
        <ele>181.3</ele>
        <time>2022-12-08T12:33:21Z</time>
      </trkpt>
      <trkpt lat="48.16054" lon="-3.62394">
        <ele>181.4</ele>
        <time>2022-12-08T12:33:22Z</time>
      </trkpt>
      <trkpt lat="48.16058" lon="-3.62395">
        <ele>181.7</ele>
        <time>2022-12-08T12:33:23Z</time>
      </trkpt>
      <trkpt lat="48.16059" lon="-3.62395">
        <ele>181.8</ele>
        <time>2022-12-08T12:33:24Z</time>
      </trkpt>
      <trkpt lat="48.16063" lon="-3.62395">
        <ele>182.2</ele>
        <time>2022-12-08T12:33:25Z</time>
      </trkpt>
      <trkpt lat="48.16064" lon="-3.62394">
        <ele>182.3</ele>
        <time>2022-12-08T12:33:26Z</time>
      </trkpt>
      <trkpt lat="48.16068" lon="-3.62395">
        <ele>182.6</ele>
        <time>2022-12-08T12:33:27Z</time>
      </trkpt>
      <trkpt lat="48.16069" lon="-3.62395">
        <ele>182.7</ele>
        <time>2022-12-08T12:33:28Z</time>
      </trkpt>
      <trkpt lat="48.16072" lon="-3.62396">
        <ele>183</ele>
        <time>2022-12-08T12:33:29Z</time>
      </trkpt>
      <trkpt lat="48.16074" lon="-3.62396">
        <ele>183.2</ele>
        <time>2022-12-08T12:33:30Z</time>
      </trkpt>
      <trkpt lat="48.16076" lon="-3.62395">
        <ele>183.4</ele>
        <time>2022-12-08T12:33:31Z</time>
      </trkpt>
      <trkpt lat="48.1608" lon="-3.62395">
        <ele>183.7</ele>
        <time>2022-12-08T12:33:32Z</time>
      </trkpt>
      <trkpt lat="48.16081" lon="-3.62395">
        <ele>183.8</ele>
        <time>2022-12-08T12:33:33Z</time>
      </trkpt>
      <trkpt lat="48.16084" lon="-3.62395">
        <ele>184.1</ele>
        <time>2022-12-08T12:33:34Z</time>
      </trkpt>
      <trkpt lat="48.16087" lon="-3.62395">
        <ele>184.4</ele>
        <time>2022-12-08T12:33:35Z</time>
      </trkpt>
      <trkpt lat="48.16088" lon="-3.62394">
        <ele>184.5</ele>
        <time>2022-12-08T12:33:36Z</time>
      </trkpt>
      <trkpt lat="48.16092" lon="-3.62395">
        <ele>184.8</ele>
        <time>2022-12-08T12:33:37Z</time>
      </trkpt>
      <trkpt lat="48.16093" lon="-3.62394">
        <ele>184.9</ele>
        <time>2022-12-08T12:33:38Z</time>
      </trkpt>
      <trkpt lat="48.16098" lon="-3.62394">
        <ele>185.4</ele>
        <time>2022-12-08T12:33:40Z</time>
      </trkpt>
      <trkpt lat="48.16102" lon="-3.62395">
        <ele>185.8</ele>
        <time>2022-12-08T12:33:41Z</time>
      </trkpt>
      <trkpt lat="48.16103" lon="-3.62395">
        <ele>185.9</ele>
        <time>2022-12-08T12:33:42Z</time>
      </trkpt>
      <trkpt lat="48.16107" lon="-3.62394">
        <ele>186.2</ele>
        <time>2022-12-08T12:33:43Z</time>
      </trkpt>
      <trkpt lat="48.16109" lon="-3.62394">
        <ele>186.4</ele>
        <time>2022-12-08T12:33:44Z</time>
      </trkpt>
      <trkpt lat="48.16111" lon="-3.62394">
        <ele>186.6</ele>
        <time>2022-12-08T12:33:45Z</time>
      </trkpt>
      <trkpt lat="48.16114" lon="-3.62394">
        <ele>186.8</ele>
        <time>2022-12-08T12:33:46Z</time>
      </trkpt>
      <trkpt lat="48.16118" lon="-3.62393">
        <ele>187.2</ele>
        <time>2022-12-08T12:33:48Z</time>
      </trkpt>
      <trkpt lat="48.16121" lon="-3.62392">
        <ele>187.6</ele>
        <time>2022-12-08T12:33:49Z</time>
      </trkpt>
      <trkpt lat="48.16123" lon="-3.62392">
        <ele>187.7</ele>
        <time>2022-12-08T12:33:50Z</time>
      </trkpt>
      <trkpt lat="48.16127" lon="-3.6239">
        <ele>188.1</ele>
        <time>2022-12-08T12:33:52Z</time>
      </trkpt>
      <trkpt lat="48.16131" lon="-3.62389">
        <ele>188.4</ele>
        <time>2022-12-08T12:33:53Z</time>
      </trkpt>
      <trkpt lat="48.16132" lon="-3.62389">
        <ele>188.6</ele>
        <time>2022-12-08T12:33:54Z</time>
      </trkpt>
      <trkpt lat="48.16137" lon="-3.62387">
        <ele>189</ele>
        <time>2022-12-08T12:33:56Z</time>
      </trkpt>
      <trkpt lat="48.1614" lon="-3.62385">
        <ele>189.3</ele>
        <time>2022-12-08T12:33:57Z</time>
      </trkpt>
      <trkpt lat="48.16142" lon="-3.62384">
        <ele>189.6</ele>
        <time>2022-12-08T12:33:58Z</time>
      </trkpt>
      <trkpt lat="48.16147" lon="-3.62382">
        <ele>190.1</ele>
        <time>2022-12-08T12:34:00Z</time>
      </trkpt>
      <trkpt lat="48.16152" lon="-3.62378">
        <ele>190.6</ele>
        <time>2022-12-08T12:34:02Z</time>
      </trkpt>
      <trkpt lat="48.16155" lon="-3.62377">
        <ele>190.9</ele>
        <time>2022-12-08T12:34:03Z</time>
      </trkpt>
      <trkpt lat="48.16159" lon="-3.62375">
        <ele>191.3</ele>
        <time>2022-12-08T12:34:04Z</time>
      </trkpt>
      <trkpt lat="48.1616" lon="-3.62374">
        <ele>191.4</ele>
        <time>2022-12-08T12:34:05Z</time>
      </trkpt>
      <trkpt lat="48.16162" lon="-3.62373">
        <ele>191.6</ele>
        <time>2022-12-08T12:34:06Z</time>
      </trkpt>
      <trkpt lat="48.16166" lon="-3.6237">
        <ele>192</ele>
        <time>2022-12-08T12:34:07Z</time>
      </trkpt>
      <trkpt lat="48.16167" lon="-3.62369">
        <ele>192.1</ele>
        <time>2022-12-08T12:34:08Z</time>
      </trkpt>
      <trkpt lat="48.16171" lon="-3.62367">
        <ele>192.4</ele>
        <time>2022-12-08T12:34:09Z</time>
      </trkpt>
      <trkpt lat="48.16172" lon="-3.62367">
        <ele>192.6</ele>
        <time>2022-12-08T12:34:10Z</time>
      </trkpt>
      <trkpt lat="48.16176" lon="-3.62363">
        <ele>193</ele>
        <time>2022-12-08T12:34:12Z</time>
      </trkpt>
      <trkpt lat="48.16181" lon="-3.62359">
        <ele>193.5</ele>
        <time>2022-12-08T12:34:14Z</time>
      </trkpt>
      <trkpt lat="48.16184" lon="-3.62356">
        <ele>193.7</ele>
        <time>2022-12-08T12:34:15Z</time>
      </trkpt>
      <trkpt lat="48.16186" lon="-3.62354">
        <ele>193.7</ele>
        <time>2022-12-08T12:34:16Z</time>
      </trkpt>
      <trkpt lat="48.1619" lon="-3.62351">
        <ele>193.7</ele>
        <time>2022-12-08T12:34:17Z</time>
      </trkpt>
      <trkpt lat="48.16191" lon="-3.62349">
        <ele>193.7</ele>
        <time>2022-12-08T12:34:18Z</time>
      </trkpt>
      <trkpt lat="48.16193" lon="-3.62347">
        <ele>193.7</ele>
        <time>2022-12-08T12:34:19Z</time>
      </trkpt>
      <trkpt lat="48.16196" lon="-3.62343">
        <ele>193.8</ele>
        <time>2022-12-08T12:34:20Z</time>
      </trkpt>
      <trkpt lat="48.16198" lon="-3.6234">
        <ele>193.9</ele>
        <time>2022-12-08T12:34:21Z</time>
      </trkpt>
      <trkpt lat="48.162" lon="-3.62336">
        <ele>194</ele>
        <time>2022-12-08T12:34:22Z</time>
      </trkpt>
      <trkpt lat="48.16203" lon="-3.62333">
        <ele>194.1</ele>
        <time>2022-12-08T12:34:23Z</time>
      </trkpt>
      <trkpt lat="48.16205" lon="-3.6233">
        <ele>194.2</ele>
        <time>2022-12-08T12:34:24Z</time>
      </trkpt>
      <trkpt lat="48.16208" lon="-3.62327">
        <ele>194.4</ele>
        <time>2022-12-08T12:34:25Z</time>
      </trkpt>
      <trkpt lat="48.1621" lon="-3.62322">
        <ele>194.5</ele>
        <time>2022-12-08T12:34:27Z</time>
      </trkpt>
      <trkpt lat="48.16214" lon="-3.62317">
        <ele>194.8</ele>
        <time>2022-12-08T12:34:28Z</time>
      </trkpt>
      <trkpt lat="48.16217" lon="-3.62312">
        <ele>195</ele>
        <time>2022-12-08T12:34:30Z</time>
      </trkpt>
      <trkpt lat="48.1622" lon="-3.62306">
        <ele>195.2</ele>
        <time>2022-12-08T12:34:31Z</time>
      </trkpt>
      <trkpt lat="48.16222" lon="-3.62303">
        <ele>195.4</ele>
        <time>2022-12-08T12:34:32Z</time>
      </trkpt>
      <trkpt lat="48.16224" lon="-3.623">
        <ele>195.5</ele>
        <time>2022-12-08T12:34:33Z</time>
      </trkpt>
      <trkpt lat="48.16226" lon="-3.62297">
        <ele>195.7</ele>
        <time>2022-12-08T12:34:34Z</time>
      </trkpt>
      <trkpt lat="48.1623" lon="-3.6229">
        <ele>195.9</ele>
        <time>2022-12-08T12:34:36Z</time>
      </trkpt>
      <trkpt lat="48.16234" lon="-3.62283">
        <ele>196.2</ele>
        <time>2022-12-08T12:34:38Z</time>
      </trkpt>
      <trkpt lat="48.16235" lon="-3.6228">
        <ele>196.3</ele>
        <time>2022-12-08T12:34:39Z</time>
      </trkpt>
      <trkpt lat="48.16238" lon="-3.62272">
        <ele>196.5</ele>
        <time>2022-12-08T12:34:41Z</time>
      </trkpt>
      <trkpt lat="48.16242" lon="-3.62265">
        <ele>196.8</ele>
        <time>2022-12-08T12:34:43Z</time>
      </trkpt>
      <trkpt lat="48.16244" lon="-3.62259">
        <ele>196.9</ele>
        <time>2022-12-08T12:34:45Z</time>
      </trkpt>
      <trkpt lat="48.16245" lon="-3.62255">
        <ele>197.1</ele>
        <time>2022-12-08T12:34:46Z</time>
      </trkpt>
      <trkpt lat="48.16247" lon="-3.62249">
        <ele>197.3</ele>
        <time>2022-12-08T12:34:47Z</time>
      </trkpt>
      <trkpt lat="48.16249" lon="-3.62245">
        <ele>197.4</ele>
        <time>2022-12-08T12:34:48Z</time>
      </trkpt>
      <trkpt lat="48.16251" lon="-3.62241">
        <ele>197.5</ele>
        <time>2022-12-08T12:34:49Z</time>
      </trkpt>
      <trkpt lat="48.16252" lon="-3.62237">
        <ele>197.7</ele>
        <time>2022-12-08T12:34:50Z</time>
      </trkpt>
      <trkpt lat="48.16253" lon="-3.62232">
        <ele>197.8</ele>
        <time>2022-12-08T12:34:51Z</time>
      </trkpt>
      <trkpt lat="48.16255" lon="-3.62228">
        <ele>197.9</ele>
        <time>2022-12-08T12:34:52Z</time>
      </trkpt>
      <trkpt lat="48.16257" lon="-3.62222">
        <ele>198.1</ele>
        <time>2022-12-08T12:34:54Z</time>
      </trkpt>
      <trkpt lat="48.16259" lon="-3.62217">
        <ele>198.2</ele>
        <time>2022-12-08T12:34:55Z</time>
      </trkpt>
      <trkpt lat="48.16261" lon="-3.62211">
        <ele>198.4</ele>
        <time>2022-12-08T12:34:56Z</time>
      </trkpt>
      <trkpt lat="48.16263" lon="-3.62207">
        <ele>198.5</ele>
        <time>2022-12-08T12:34:57Z</time>
      </trkpt>
      <trkpt lat="48.16264" lon="-3.62203">
        <ele>198.7</ele>
        <time>2022-12-08T12:34:58Z</time>
      </trkpt>
      <trkpt lat="48.16266" lon="-3.62197">
        <ele>198.8</ele>
        <time>2022-12-08T12:34:59Z</time>
      </trkpt>
      <trkpt lat="48.16268" lon="-3.62193">
        <ele>198.9</ele>
        <time>2022-12-08T12:35:00Z</time>
      </trkpt>
      <trkpt lat="48.16271" lon="-3.62185">
        <ele>199.1</ele>
        <time>2022-12-08T12:35:02Z</time>
      </trkpt>
      <trkpt lat="48.16274" lon="-3.6218">
        <ele>199.3</ele>
        <time>2022-12-08T12:35:03Z</time>
      </trkpt>
      <trkpt lat="48.16276" lon="-3.62171">
        <ele>199.5</ele>
        <time>2022-12-08T12:35:05Z</time>
      </trkpt>
      <trkpt lat="48.16278" lon="-3.62167">
        <ele>199.6</ele>
        <time>2022-12-08T12:35:06Z</time>
      </trkpt>
      <trkpt lat="48.16279" lon="-3.62162">
        <ele>199.7</ele>
        <time>2022-12-08T12:35:07Z</time>
      </trkpt>
      <trkpt lat="48.1628" lon="-3.62158">
        <ele>199.8</ele>
        <time>2022-12-08T12:35:08Z</time>
      </trkpt>
      <trkpt lat="48.16283" lon="-3.62153">
        <ele>200</ele>
        <time>2022-12-08T12:35:09Z</time>
      </trkpt>
      <trkpt lat="48.16284" lon="-3.62148">
        <ele>200.1</ele>
        <time>2022-12-08T12:35:10Z</time>
      </trkpt>
      <trkpt lat="48.16286" lon="-3.62143">
        <ele>200.2</ele>
        <time>2022-12-08T12:35:11Z</time>
      </trkpt>
      <trkpt lat="48.16287" lon="-3.62138">
        <ele>200.3</ele>
        <time>2022-12-08T12:35:12Z</time>
      </trkpt>
      <trkpt lat="48.16288" lon="-3.62133">
        <ele>200.4</ele>
        <time>2022-12-08T12:35:13Z</time>
      </trkpt>
      <trkpt lat="48.1629" lon="-3.62129">
        <ele>200.4</ele>
        <time>2022-12-08T12:35:14Z</time>
      </trkpt>
      <trkpt lat="48.16292" lon="-3.62124">
        <ele>200.5</ele>
        <time>2022-12-08T12:35:15Z</time>
      </trkpt>
      <trkpt lat="48.16293" lon="-3.62119">
        <ele>200.6</ele>
        <time>2022-12-08T12:35:16Z</time>
      </trkpt>
      <trkpt lat="48.16296" lon="-3.62114">
        <ele>200.7</ele>
        <time>2022-12-08T12:35:17Z</time>
      </trkpt>
      <trkpt lat="48.16297" lon="-3.62109">
        <ele>200.8</ele>
        <time>2022-12-08T12:35:18Z</time>
      </trkpt>
      <trkpt lat="48.16299" lon="-3.62105">
        <ele>200.8</ele>
        <time>2022-12-08T12:35:19Z</time>
      </trkpt>
      <trkpt lat="48.16301" lon="-3.621">
        <ele>200.9</ele>
        <time>2022-12-08T12:35:20Z</time>
      </trkpt>
      <trkpt lat="48.16303" lon="-3.62095">
        <ele>200.9</ele>
        <time>2022-12-08T12:35:21Z</time>
      </trkpt>
      <trkpt lat="48.16305" lon="-3.62089">
        <ele>201</ele>
        <time>2022-12-08T12:35:22Z</time>
      </trkpt>
      <trkpt lat="48.16307" lon="-3.62084">
        <ele>201</ele>
        <time>2022-12-08T12:35:23Z</time>
      </trkpt>
      <trkpt lat="48.16309" lon="-3.62076">
        <ele>201.1</ele>
        <time>2022-12-08T12:35:25Z</time>
      </trkpt>
      <trkpt lat="48.16311" lon="-3.62072">
        <ele>201.2</ele>
        <time>2022-12-08T12:35:26Z</time>
      </trkpt>
      <trkpt lat="48.16314" lon="-3.62064">
        <ele>201.3</ele>
        <time>2022-12-08T12:35:27Z</time>
      </trkpt>
      <trkpt lat="48.16316" lon="-3.62059">
        <ele>201.4</ele>
        <time>2022-12-08T12:35:28Z</time>
      </trkpt>
      <trkpt lat="48.16318" lon="-3.62054">
        <ele>201.5</ele>
        <time>2022-12-08T12:35:29Z</time>
      </trkpt>
      <trkpt lat="48.1632" lon="-3.62049">
        <ele>201.6</ele>
        <time>2022-12-08T12:35:30Z</time>
      </trkpt>
      <trkpt lat="48.16322" lon="-3.62045">
        <ele>201.7</ele>
        <time>2022-12-08T12:35:31Z</time>
      </trkpt>
      <trkpt lat="48.16326" lon="-3.62037">
        <ele>201.8</ele>
        <time>2022-12-08T12:35:33Z</time>
      </trkpt>
      <trkpt lat="48.16328" lon="-3.62032">
        <ele>201.8</ele>
        <time>2022-12-08T12:35:34Z</time>
      </trkpt>
      <trkpt lat="48.16331" lon="-3.62027">
        <ele>201.9</ele>
        <time>2022-12-08T12:35:35Z</time>
      </trkpt>
      <trkpt lat="48.16333" lon="-3.62019">
        <ele>201.9</ele>
        <time>2022-12-08T12:35:37Z</time>
        <extensions>
          <visugpx:TrkExtension xmlns:visugpx="https://www.visugpx.com/editgpx/">
            <visugpx:node>3</visugpx:node>
            </visugpx:TrkExtension>
        </extensions>
      </trkpt>
      <trkpt lat="48.16341" lon="-3.61997">
        <ele>200.7</ele>
      </trkpt>
      <trkpt lat="48.16321" lon="-3.61976">
        <ele>197.7</ele>
      </trkpt>
      <trkpt lat="48.163" lon="-3.61953">
        <ele>194.5</ele>
      </trkpt>
      <trkpt lat="48.16282" lon="-3.61925">
        <ele>191</ele>
      </trkpt>
      <trkpt lat="48.16266" lon="-3.61891">
        <ele>188.7</ele>
      </trkpt>
      <trkpt lat="48.1623" lon="-3.61794">
        <ele>191.1</ele>
      </trkpt>
      <trkpt lat="48.16225" lon="-3.61788">
        <ele>192.4</ele>
      </trkpt>
      <trkpt lat="48.16217" lon="-3.61791">
        <ele>194.3</ele>
      </trkpt>
      <trkpt lat="48.16201" lon="-3.6183">
        <ele>195</ele>
      </trkpt>
      <trkpt lat="48.16185" lon="-3.61851">
        <ele>196.9</ele>
      </trkpt>
      <trkpt lat="48.16167" lon="-3.61867">
        <ele>200.1</ele>
      </trkpt>
      <trkpt lat="48.16111" lon="-3.61899">
        <ele>205.9</ele>
      </trkpt>
      <trkpt lat="48.16089" lon="-3.61907">
        <ele>207.4</ele>
      </trkpt>
      <trkpt lat="48.16091" lon="-3.61895">
        <ele>208.5</ele>
      </trkpt>
      <trkpt lat="48.16115" lon="-3.61846">
        <ele>211.8</ele>
      </trkpt>
      <trkpt lat="48.16117" lon="-3.61837">
        <ele>213</ele>
      </trkpt>
      <trkpt lat="48.16092" lon="-3.61821">
        <ele>218.1</ele>
      </trkpt>
      <trkpt lat="48.16078" lon="-3.61812">
        <ele>221.2</ele>
      </trkpt>
      <trkpt lat="48.16094" lon="-3.61744">
        <ele>224</ele>
        <extensions>
          <visugpx:TrkExtension xmlns:visugpx="https://www.visugpx.com/editgpx/">
            <visugpx:node>4</visugpx:node>
            </visugpx:TrkExtension>
        </extensions>
      </trkpt>
      <trkpt lat="48.16096" lon="-3.61734">
        <ele>224.2</ele>
      </trkpt>
      <trkpt lat="48.16099" lon="-3.6166">
        <ele>226.3</ele>
      </trkpt>
      <trkpt lat="48.16088" lon="-3.61595">
        <ele>231.2</ele>
      </trkpt>
      <trkpt lat="48.16058" lon="-3.61526">
        <ele>234.8</ele>
      </trkpt>
      <trkpt lat="48.16017" lon="-3.61483">
        <ele>235</ele>
      </trkpt>
      <trkpt lat="48.16013" lon="-3.6145">
        <ele>235.4</ele>
      </trkpt>
      <trkpt lat="48.1597" lon="-3.61408">
        <ele>234.8</ele>
      </trkpt>
      <trkpt lat="48.15977" lon="-3.61357">
        <ele>234.1</ele>
      </trkpt>
      <trkpt lat="48.1603" lon="-3.6107">
        <ele>238.4</ele>
      </trkpt>
      <trkpt lat="48.16066" lon="-3.60923">
        <ele>244.5</ele>
      </trkpt>
      <trkpt lat="48.16088" lon="-3.60812">
        <ele>248.6</ele>
      </trkpt>
      <trkpt lat="48.16089" lon="-3.60806">
        <ele>248.8</ele>
        <extensions>
          <visugpx:TrkExtension xmlns:visugpx="https://www.visugpx.com/editgpx/">
            <visugpx:node>5</visugpx:node>
            </visugpx:TrkExtension>
        </extensions>
      </trkpt>
      <trkpt lat="48.16111" lon="-3.6069">
        <ele>251</ele>
      </trkpt>
      <trkpt lat="48.16138" lon="-3.60612">
        <ele>252</ele>
      </trkpt>
      <trkpt lat="48.16175" lon="-3.60459">
        <ele>252.7</ele>
      </trkpt>
      <trkpt lat="48.16228" lon="-3.60219">
        <ele>244.9</ele>
      </trkpt>
      <trkpt lat="48.16246" lon="-3.60145">
        <ele>239.6</ele>
      </trkpt>
      <trkpt lat="48.16247" lon="-3.60141">
        <ele>239.3</ele>
      </trkpt>
      <trkpt lat="48.16251" lon="-3.60145">
        <ele>239.5</ele>
        <extensions>
          <visugpx:TrkExtension xmlns:visugpx="https://www.visugpx.com/editgpx/">
            <visugpx:node>6</visugpx:node>
            </visugpx:TrkExtension>
        </extensions>
      </trkpt>
      <trkpt lat="48.16273" lon="-3.60172">
        <ele>242.1</ele>
      </trkpt>
      <trkpt lat="48.163" lon="-3.60205">
        <ele>244.3</ele>
      </trkpt>
      <trkpt lat="48.16329" lon="-3.60239">
        <ele>244.3</ele>
      </trkpt>
      <trkpt lat="48.16339" lon="-3.60249">
        <ele>243.8</ele>
      </trkpt>
      <trkpt lat="48.16363" lon="-3.60261">
        <ele>242.3</ele>
      </trkpt>
      <trkpt lat="48.16377" lon="-3.60263">
        <ele>240.2</ele>
      </trkpt>
      <trkpt lat="48.1641" lon="-3.60264">
        <ele>235.5</ele>
      </trkpt>
      <trkpt lat="48.1647" lon="-3.60257">
        <ele>230.4</ele>
      </trkpt>
      <trkpt lat="48.16557" lon="-3.60249">
        <ele>224.9</ele>
      </trkpt>
      <trkpt lat="48.16592" lon="-3.60255">
        <ele>224</ele>
      </trkpt>
      <trkpt lat="48.16595" lon="-3.60254">
        <ele>224</ele>
      </trkpt>
      <trkpt lat="48.16598" lon="-3.60254">
        <ele>224</ele>
      </trkpt>
      <trkpt lat="48.16599" lon="-3.60255">
        <ele>224</ele>
        <extensions>
          <visugpx:TrkExtension xmlns:visugpx="https://www.visugpx.com/editgpx/">
            <visugpx:node>7</visugpx:node>
            </visugpx:TrkExtension>
        </extensions>
      </trkpt>
      <trkpt lat="48.16601" lon="-3.60238">
        <ele>224.3</ele>
        <time>2022-12-08T12:40:36Z</time>
        <extensions>
          <visugpx:TrkExtension xmlns:visugpx="https://www.visugpx.com/editgpx/">
            <visugpx:node>1</visugpx:node>
            </visugpx:TrkExtension>
        </extensions>
      </trkpt>
      <trkpt lat="48.16604" lon="-3.6023">
        <ele>224</ele>
        <time>2022-12-08T12:40:37Z</time>
      </trkpt>
      <trkpt lat="48.16607" lon="-3.60222">
        <ele>223.8</ele>
        <time>2022-12-08T12:40:38Z</time>
      </trkpt>
      <trkpt lat="48.16609" lon="-3.60216">
        <ele>223.7</ele>
        <time>2022-12-08T12:40:39Z</time>
      </trkpt>
      <trkpt lat="48.16611" lon="-3.60209">
        <ele>223.4</ele>
        <time>2022-12-08T12:40:40Z</time>
      </trkpt>
      <trkpt lat="48.16613" lon="-3.60203">
        <ele>223.2</ele>
        <time>2022-12-08T12:40:41Z</time>
      </trkpt>
      <trkpt lat="48.16615" lon="-3.60197">
        <ele>223</ele>
        <time>2022-12-08T12:40:42Z</time>
      </trkpt>
      <trkpt lat="48.16617" lon="-3.60191">
        <ele>222.7</ele>
        <time>2022-12-08T12:40:43Z</time>
      </trkpt>
      <trkpt lat="48.1662" lon="-3.60184">
        <ele>222.5</ele>
        <time>2022-12-08T12:40:44Z</time>
      </trkpt>
      <trkpt lat="48.16623" lon="-3.60177">
        <ele>222.2</ele>
        <time>2022-12-08T12:40:45Z</time>
      </trkpt>
      <trkpt lat="48.16625" lon="-3.60171">
        <ele>222</ele>
        <time>2022-12-08T12:40:46Z</time>
      </trkpt>
      <trkpt lat="48.16628" lon="-3.60164">
        <ele>221.7</ele>
        <time>2022-12-08T12:40:47Z</time>
      </trkpt>
      <trkpt lat="48.16631" lon="-3.60156">
        <ele>221.4</ele>
        <time>2022-12-08T12:40:48Z</time>
      </trkpt>
      <trkpt lat="48.16633" lon="-3.6015">
        <ele>221.1</ele>
        <time>2022-12-08T12:40:49Z</time>
      </trkpt>
      <trkpt lat="48.16636" lon="-3.60142">
        <ele>220.8</ele>
        <time>2022-12-08T12:40:50Z</time>
      </trkpt>
      <trkpt lat="48.16639" lon="-3.60134">
        <ele>220.5</ele>
        <time>2022-12-08T12:40:51Z</time>
      </trkpt>
      <trkpt lat="48.16642" lon="-3.60126">
        <ele>220.2</ele>
        <time>2022-12-08T12:40:52Z</time>
      </trkpt>
      <trkpt lat="48.16646" lon="-3.60118">
        <ele>219.9</ele>
        <time>2022-12-08T12:40:53Z</time>
      </trkpt>
      <trkpt lat="48.16649" lon="-3.60109">
        <ele>219.6</ele>
        <time>2022-12-08T12:40:54Z</time>
      </trkpt>
      <trkpt lat="48.16652" lon="-3.60101">
        <ele>219.3</ele>
        <time>2022-12-08T12:40:55Z</time>
      </trkpt>
      <trkpt lat="48.16656" lon="-3.60092">
        <ele>219</ele>
        <time>2022-12-08T12:40:56Z</time>
      </trkpt>
      <trkpt lat="48.16659" lon="-3.60084">
        <ele>218.7</ele>
        <time>2022-12-08T12:40:57Z</time>
      </trkpt>
      <trkpt lat="48.16662" lon="-3.60076">
        <ele>218.4</ele>
        <time>2022-12-08T12:40:58Z</time>
      </trkpt>
      <trkpt lat="48.16666" lon="-3.60067">
        <ele>218.2</ele>
        <time>2022-12-08T12:40:59Z</time>
      </trkpt>
      <trkpt lat="48.1667" lon="-3.60058">
        <ele>217.9</ele>
        <time>2022-12-08T12:41:00Z</time>
      </trkpt>
      <trkpt lat="48.16673" lon="-3.6005">
        <ele>217.7</ele>
        <time>2022-12-08T12:41:01Z</time>
      </trkpt>
      <trkpt lat="48.16677" lon="-3.60041">
        <ele>217.4</ele>
        <time>2022-12-08T12:41:02Z</time>
      </trkpt>
      <trkpt lat="48.1668" lon="-3.60032">
        <ele>217.1</ele>
        <time>2022-12-08T12:41:03Z</time>
      </trkpt>
      <trkpt lat="48.16684" lon="-3.60023">
        <ele>216.9</ele>
        <time>2022-12-08T12:41:04Z</time>
      </trkpt>
      <trkpt lat="48.16688" lon="-3.60015">
        <ele>216.7</ele>
        <time>2022-12-08T12:41:05Z</time>
      </trkpt>
      <trkpt lat="48.16691" lon="-3.60005">
        <ele>216.4</ele>
        <time>2022-12-08T12:41:06Z</time>
      </trkpt>
      <trkpt lat="48.16695" lon="-3.59996">
        <ele>216.2</ele>
        <time>2022-12-08T12:41:07Z</time>
      </trkpt>
      <trkpt lat="48.16698" lon="-3.59987">
        <ele>216</ele>
        <time>2022-12-08T12:41:08Z</time>
      </trkpt>
      <trkpt lat="48.16702" lon="-3.59978">
        <ele>215.8</ele>
        <time>2022-12-08T12:41:09Z</time>
      </trkpt>
      <trkpt lat="48.16706" lon="-3.59969">
        <ele>215.6</ele>
        <time>2022-12-08T12:41:10Z</time>
      </trkpt>
      <trkpt lat="48.1671" lon="-3.5996">
        <ele>215.4</ele>
        <time>2022-12-08T12:41:11Z</time>
      </trkpt>
      <trkpt lat="48.16714" lon="-3.59952">
        <ele>215.2</ele>
        <time>2022-12-08T12:41:12Z</time>
      </trkpt>
      <trkpt lat="48.16717" lon="-3.59943">
        <ele>214.9</ele>
        <time>2022-12-08T12:41:13Z</time>
      </trkpt>
      <trkpt lat="48.16721" lon="-3.59934">
        <ele>214.7</ele>
        <time>2022-12-08T12:41:14Z</time>
      </trkpt>
      <trkpt lat="48.16725" lon="-3.59926">
        <ele>214.5</ele>
        <time>2022-12-08T12:41:15Z</time>
      </trkpt>
      <trkpt lat="48.16729" lon="-3.59917">
        <ele>214.2</ele>
        <time>2022-12-08T12:41:16Z</time>
      </trkpt>
      <trkpt lat="48.16733" lon="-3.59909">
        <ele>214</ele>
        <time>2022-12-08T12:41:17Z</time>
      </trkpt>
      <trkpt lat="48.16737" lon="-3.599">
        <ele>213.8</ele>
        <time>2022-12-08T12:41:18Z</time>
      </trkpt>
      <trkpt lat="48.16741" lon="-3.59892">
        <ele>213.6</ele>
        <time>2022-12-08T12:41:19Z</time>
      </trkpt>
      <trkpt lat="48.16744" lon="-3.59883">
        <ele>213.4</ele>
        <time>2022-12-08T12:41:20Z</time>
      </trkpt>
      <trkpt lat="48.16744" lon="-3.59873">
        <ele>213.4</ele>
        <time>2022-12-08T12:41:21Z</time>
      </trkpt>
      <trkpt lat="48.16742" lon="-3.59863">
        <ele>213.8</ele>
        <time>2022-12-08T12:41:22Z</time>
      </trkpt>
      <trkpt lat="48.16739" lon="-3.59854">
        <ele>214.1</ele>
        <time>2022-12-08T12:41:23Z</time>
      </trkpt>
      <trkpt lat="48.16735" lon="-3.59847">
        <ele>214.5</ele>
        <time>2022-12-08T12:41:24Z</time>
      </trkpt>
      <trkpt lat="48.16731" lon="-3.59841">
        <ele>214.8</ele>
        <time>2022-12-08T12:41:25Z</time>
      </trkpt>
      <trkpt lat="48.16727" lon="-3.59834">
        <ele>215.1</ele>
        <time>2022-12-08T12:41:26Z</time>
      </trkpt>
      <trkpt lat="48.16723" lon="-3.59828">
        <ele>215.5</ele>
        <time>2022-12-08T12:41:27Z</time>
      </trkpt>
      <trkpt lat="48.16719" lon="-3.59822">
        <ele>215.8</ele>
        <time>2022-12-08T12:41:28Z</time>
      </trkpt>
      <trkpt lat="48.16715" lon="-3.59815">
        <ele>216.1</ele>
        <time>2022-12-08T12:41:29Z</time>
      </trkpt>
      <trkpt lat="48.16712" lon="-3.59809">
        <ele>216.4</ele>
        <time>2022-12-08T12:41:30Z</time>
      </trkpt>
      <trkpt lat="48.16708" lon="-3.59802">
        <ele>216.7</ele>
        <time>2022-12-08T12:41:31Z</time>
      </trkpt>
      <trkpt lat="48.16705" lon="-3.59796">
        <ele>217</ele>
        <time>2022-12-08T12:41:32Z</time>
      </trkpt>
      <trkpt lat="48.16701" lon="-3.5979">
        <ele>217.3</ele>
        <time>2022-12-08T12:41:33Z</time>
      </trkpt>
      <trkpt lat="48.16698" lon="-3.59785">
        <ele>217.5</ele>
        <time>2022-12-08T12:41:34Z</time>
      </trkpt>
      <trkpt lat="48.16695" lon="-3.5978">
        <ele>217.8</ele>
        <time>2022-12-08T12:41:35Z</time>
      </trkpt>
      <trkpt lat="48.16692" lon="-3.59774">
        <ele>218.1</ele>
        <time>2022-12-08T12:41:36Z</time>
      </trkpt>
      <trkpt lat="48.16689" lon="-3.59768">
        <ele>218.3</ele>
        <time>2022-12-08T12:41:37Z</time>
      </trkpt>
      <trkpt lat="48.16686" lon="-3.59762">
        <ele>218.6</ele>
        <time>2022-12-08T12:41:38Z</time>
      </trkpt>
      <trkpt lat="48.16684" lon="-3.59756">
        <ele>218.8</ele>
        <time>2022-12-08T12:41:39Z</time>
      </trkpt>
      <trkpt lat="48.16683" lon="-3.59752">
        <ele>219</ele>
        <time>2022-12-08T12:41:40Z</time>
      </trkpt>
      <trkpt lat="48.16681" lon="-3.59748">
        <ele>219.2</ele>
        <time>2022-12-08T12:41:41Z</time>
      </trkpt>
      <trkpt lat="48.1668" lon="-3.59743">
        <ele>219.4</ele>
        <time>2022-12-08T12:41:42Z</time>
      </trkpt>
      <trkpt lat="48.16678" lon="-3.59739">
        <ele>219.5</ele>
        <time>2022-12-08T12:41:43Z</time>
      </trkpt>
      <trkpt lat="48.16676" lon="-3.59733">
        <ele>219.8</ele>
        <time>2022-12-08T12:41:44Z</time>
      </trkpt>
      <trkpt lat="48.16675" lon="-3.59729">
        <ele>220</ele>
        <time>2022-12-08T12:41:45Z</time>
      </trkpt>
      <trkpt lat="48.16671" lon="-3.59722">
        <ele>220.3</ele>
        <time>2022-12-08T12:41:46Z</time>
      </trkpt>
      <trkpt lat="48.1667" lon="-3.59719">
        <ele>220.4</ele>
        <time>2022-12-08T12:41:47Z</time>
      </trkpt>
      <trkpt lat="48.16669" lon="-3.59716">
        <ele>220.5</ele>
        <time>2022-12-08T12:41:48Z</time>
      </trkpt>
      <trkpt lat="48.16666" lon="-3.59711">
        <ele>220.7</ele>
        <time>2022-12-08T12:41:49Z</time>
      </trkpt>
      <trkpt lat="48.16663" lon="-3.59708">
        <ele>220.9</ele>
        <time>2022-12-08T12:41:50Z</time>
      </trkpt>
      <trkpt lat="48.16661" lon="-3.59705">
        <ele>221.1</ele>
        <time>2022-12-08T12:41:51Z</time>
      </trkpt>
      <trkpt lat="48.16658" lon="-3.59703">
        <ele>221.3</ele>
        <time>2022-12-08T12:41:52Z</time>
      </trkpt>
      <trkpt lat="48.16652" lon="-3.59699">
        <ele>221.6</ele>
        <time>2022-12-08T12:41:54Z</time>
      </trkpt>
      <trkpt lat="48.16649" lon="-3.59697">
        <ele>221.8</ele>
        <time>2022-12-08T12:41:55Z</time>
      </trkpt>
      <trkpt lat="48.16647" lon="-3.59695">
        <ele>222</ele>
        <time>2022-12-08T12:41:56Z</time>
      </trkpt>
      <trkpt lat="48.16644" lon="-3.59692">
        <ele>222.2</ele>
        <time>2022-12-08T12:41:57Z</time>
      </trkpt>
      <trkpt lat="48.16641" lon="-3.5969">
        <ele>222.3</ele>
        <time>2022-12-08T12:41:58Z</time>
      </trkpt>
      <trkpt lat="48.16638" lon="-3.59687">
        <ele>222.5</ele>
        <time>2022-12-08T12:41:59Z</time>
      </trkpt>
      <trkpt lat="48.16637" lon="-3.59686">
        <ele>222.6</ele>
        <time>2022-12-08T12:42:00Z</time>
      </trkpt>
      <trkpt lat="48.16634" lon="-3.59685">
        <ele>222.8</ele>
        <time>2022-12-08T12:42:01Z</time>
      </trkpt>
      <trkpt lat="48.16631" lon="-3.59683">
        <ele>222.9</ele>
        <time>2022-12-08T12:42:02Z</time>
      </trkpt>
      <trkpt lat="48.1663" lon="-3.59683">
        <ele>223</ele>
        <time>2022-12-08T12:42:03Z</time>
      </trkpt>
      <trkpt lat="48.16627" lon="-3.5968">
        <ele>223.2</ele>
        <time>2022-12-08T12:42:04Z</time>
      </trkpt>
      <trkpt lat="48.16626" lon="-3.59679">
        <ele>223.3</ele>
        <time>2022-12-08T12:42:05Z</time>
      </trkpt>
      <trkpt lat="48.16623" lon="-3.59677">
        <ele>223.4</ele>
        <time>2022-12-08T12:42:06Z</time>
      </trkpt>
      <trkpt lat="48.1662" lon="-3.59676">
        <ele>223.6</ele>
        <time>2022-12-08T12:42:07Z</time>
      </trkpt>
      <trkpt lat="48.16617" lon="-3.59674">
        <ele>223.8</ele>
        <time>2022-12-08T12:42:08Z</time>
      </trkpt>
      <trkpt lat="48.16616" lon="-3.59674">
        <ele>223.8</ele>
        <time>2022-12-08T12:42:09Z</time>
      </trkpt>
      <trkpt lat="48.16614" lon="-3.59669">
        <ele>224</ele>
        <time>2022-12-08T12:42:10Z</time>
      </trkpt>
      <trkpt lat="48.16614" lon="-3.59667">
        <ele>224.1</ele>
        <time>2022-12-08T12:42:11Z</time>
      </trkpt>
      <trkpt lat="48.16613" lon="-3.59662">
        <ele>224.6</ele>
        <time>2022-12-08T12:42:12Z</time>
      </trkpt>
      <trkpt lat="48.16613" lon="-3.59661">
        <ele>224.5</ele>
        <time>2022-12-08T12:42:13Z</time>
      </trkpt>
      <trkpt lat="48.16614" lon="-3.59656">
        <ele>224.5</ele>
        <time>2022-12-08T12:42:14Z</time>
      </trkpt>
      <trkpt lat="48.16615" lon="-3.59654">
        <ele>224.5</ele>
        <time>2022-12-08T12:42:15Z</time>
      </trkpt>
      <trkpt lat="48.16618" lon="-3.59649">
        <ele>224.4</ele>
        <time>2022-12-08T12:42:16Z</time>
      </trkpt>
      <trkpt lat="48.1662" lon="-3.59647">
        <ele>224.4</ele>
        <time>2022-12-08T12:42:17Z</time>
      </trkpt>
      <trkpt lat="48.16622" lon="-3.59644">
        <ele>224.3</ele>
        <time>2022-12-08T12:42:18Z</time>
      </trkpt>
      <trkpt lat="48.16626" lon="-3.59639">
        <ele>224.3</ele>
        <time>2022-12-08T12:42:19Z</time>
      </trkpt>
      <trkpt lat="48.16628" lon="-3.59636">
        <ele>224.2</ele>
        <time>2022-12-08T12:42:20Z</time>
      </trkpt>
      <trkpt lat="48.1663" lon="-3.59633">
        <ele>224.2</ele>
        <time>2022-12-08T12:42:21Z</time>
      </trkpt>
      <trkpt lat="48.16633" lon="-3.59625">
        <ele>224.1</ele>
        <time>2022-12-08T12:42:22Z</time>
      </trkpt>
      <trkpt lat="48.16636" lon="-3.59618">
        <ele>224</ele>
        <time>2022-12-08T12:42:23Z</time>
      </trkpt>
      <trkpt lat="48.1664" lon="-3.59611">
        <ele>224</ele>
        <time>2022-12-08T12:42:24Z</time>
      </trkpt>
      <trkpt lat="48.16644" lon="-3.59604">
        <ele>223.9</ele>
        <time>2022-12-08T12:42:25Z</time>
      </trkpt>
      <trkpt lat="48.16649" lon="-3.59597">
        <ele>223.8</ele>
        <time>2022-12-08T12:42:26Z</time>
      </trkpt>
      <trkpt lat="48.16653" lon="-3.5959">
        <ele>223.7</ele>
        <time>2022-12-08T12:42:27Z</time>
      </trkpt>
      <trkpt lat="48.16658" lon="-3.59582">
        <ele>223.6</ele>
        <time>2022-12-08T12:42:28Z</time>
      </trkpt>
      <trkpt lat="48.16663" lon="-3.59574">
        <ele>223.5</ele>
        <time>2022-12-08T12:42:29Z</time>
      </trkpt>
      <trkpt lat="48.16667" lon="-3.59564">
        <ele>223.4</ele>
        <time>2022-12-08T12:42:30Z</time>
      </trkpt>
      <trkpt lat="48.16671" lon="-3.59553">
        <ele>223.3</ele>
        <time>2022-12-08T12:42:31Z</time>
      </trkpt>
      <trkpt lat="48.16675" lon="-3.59542">
        <ele>223.2</ele>
        <time>2022-12-08T12:42:32Z</time>
      </trkpt>
      <trkpt lat="48.16678" lon="-3.59532">
        <ele>223.1</ele>
        <time>2022-12-08T12:42:33Z</time>
      </trkpt>
      <trkpt lat="48.16681" lon="-3.59521">
        <ele>223</ele>
        <time>2022-12-08T12:42:34Z</time>
      </trkpt>
      <trkpt lat="48.16683" lon="-3.5951">
        <ele>222.9</ele>
        <time>2022-12-08T12:42:35Z</time>
      </trkpt>
      <trkpt lat="48.16686" lon="-3.59499">
        <ele>222.8</ele>
        <time>2022-12-08T12:42:36Z</time>
      </trkpt>
      <trkpt lat="48.16689" lon="-3.59489">
        <ele>222.7</ele>
        <time>2022-12-08T12:42:37Z</time>
      </trkpt>
      <trkpt lat="48.16691" lon="-3.59478">
        <ele>222.6</ele>
        <time>2022-12-08T12:42:38Z</time>
      </trkpt>
      <trkpt lat="48.16693" lon="-3.59468">
        <ele>222.5</ele>
        <time>2022-12-08T12:42:39Z</time>
      </trkpt>
      <trkpt lat="48.16695" lon="-3.59458">
        <ele>222.4</ele>
        <time>2022-12-08T12:42:40Z</time>
      </trkpt>
      <trkpt lat="48.16696" lon="-3.59448">
        <ele>222.3</ele>
        <time>2022-12-08T12:42:41Z</time>
      </trkpt>
      <trkpt lat="48.16698" lon="-3.59439">
        <ele>222.2</ele>
        <time>2022-12-08T12:42:42Z</time>
      </trkpt>
      <trkpt lat="48.16699" lon="-3.5943">
        <ele>222.1</ele>
        <time>2022-12-08T12:42:43Z</time>
      </trkpt>
      <trkpt lat="48.167" lon="-3.59421">
        <ele>222</ele>
        <time>2022-12-08T12:42:44Z</time>
      </trkpt>
      <trkpt lat="48.16701" lon="-3.59413">
        <ele>222</ele>
        <time>2022-12-08T12:42:45Z</time>
      </trkpt>
      <trkpt lat="48.16702" lon="-3.59404">
        <ele>221.9</ele>
        <time>2022-12-08T12:42:46Z</time>
      </trkpt>
      <trkpt lat="48.16704" lon="-3.59395">
        <ele>221.8</ele>
        <time>2022-12-08T12:42:47Z</time>
      </trkpt>
      <trkpt lat="48.16705" lon="-3.59387">
        <ele>221.7</ele>
        <time>2022-12-08T12:42:48Z</time>
      </trkpt>
      <trkpt lat="48.16706" lon="-3.59379">
        <ele>221.7</ele>
        <time>2022-12-08T12:42:49Z</time>
      </trkpt>
      <trkpt lat="48.16708" lon="-3.5937">
        <ele>221.6</ele>
        <time>2022-12-08T12:42:50Z</time>
      </trkpt>
      <trkpt lat="48.1671" lon="-3.59362">
        <ele>221.5</ele>
        <time>2022-12-08T12:42:51Z</time>
      </trkpt>
      <trkpt lat="48.16711" lon="-3.59354">
        <ele>221.4</ele>
        <time>2022-12-08T12:42:52Z</time>
      </trkpt>
      <trkpt lat="48.16712" lon="-3.59346">
        <ele>221.4</ele>
        <time>2022-12-08T12:42:53Z</time>
      </trkpt>
      <trkpt lat="48.16713" lon="-3.59338">
        <ele>221.3</ele>
        <time>2022-12-08T12:42:54Z</time>
      </trkpt>
      <trkpt lat="48.16714" lon="-3.59331">
        <ele>221.2</ele>
        <time>2022-12-08T12:42:55Z</time>
      </trkpt>
      <trkpt lat="48.16715" lon="-3.59322">
        <ele>221.1</ele>
        <time>2022-12-08T12:42:56Z</time>
      </trkpt>
      <trkpt lat="48.16716" lon="-3.59314">
        <ele>221.1</ele>
        <time>2022-12-08T12:42:57Z</time>
      </trkpt>
      <trkpt lat="48.16716" lon="-3.59306">
        <ele>221</ele>
        <time>2022-12-08T12:42:58Z</time>
      </trkpt>
      <trkpt lat="48.16717" lon="-3.59298">
        <ele>220.9</ele>
        <time>2022-12-08T12:42:59Z</time>
      </trkpt>
      <trkpt lat="48.16717" lon="-3.59289">
        <ele>220.8</ele>
        <time>2022-12-08T12:43:00Z</time>
      </trkpt>
      <trkpt lat="48.16718" lon="-3.59281">
        <ele>220.8</ele>
        <time>2022-12-08T12:43:01Z</time>
      </trkpt>
      <trkpt lat="48.16719" lon="-3.59272">
        <ele>220.7</ele>
        <time>2022-12-08T12:43:02Z</time>
      </trkpt>
      <trkpt lat="48.1672" lon="-3.59264">
        <ele>220.6</ele>
        <time>2022-12-08T12:43:03Z</time>
      </trkpt>
      <trkpt lat="48.16722" lon="-3.59256">
        <ele>220.5</ele>
        <time>2022-12-08T12:43:04Z</time>
      </trkpt>
      <trkpt lat="48.16724" lon="-3.59248">
        <ele>220.5</ele>
        <time>2022-12-08T12:43:05Z</time>
      </trkpt>
      <trkpt lat="48.16726" lon="-3.5924">
        <ele>220.4</ele>
        <time>2022-12-08T12:43:06Z</time>
      </trkpt>
      <trkpt lat="48.16728" lon="-3.59231">
        <ele>220.3</ele>
        <time>2022-12-08T12:43:07Z</time>
      </trkpt>
      <trkpt lat="48.1673" lon="-3.59223">
        <ele>220.2</ele>
        <time>2022-12-08T12:43:08Z</time>
      </trkpt>
      <trkpt lat="48.16733" lon="-3.59215">
        <ele>220.1</ele>
        <time>2022-12-08T12:43:09Z</time>
      </trkpt>
      <trkpt lat="48.16735" lon="-3.59206">
        <ele>220.1</ele>
        <time>2022-12-08T12:43:10Z</time>
      </trkpt>
      <trkpt lat="48.16738" lon="-3.59197">
        <ele>220</ele>
        <time>2022-12-08T12:43:11Z</time>
      </trkpt>
      <trkpt lat="48.1674" lon="-3.59189">
        <ele>219.9</ele>
        <time>2022-12-08T12:43:12Z</time>
      </trkpt>
      <trkpt lat="48.16742" lon="-3.5918">
        <ele>219.8</ele>
        <time>2022-12-08T12:43:13Z</time>
      </trkpt>
      <trkpt lat="48.16743" lon="-3.59171">
        <ele>219.7</ele>
        <time>2022-12-08T12:43:14Z</time>
      </trkpt>
      <trkpt lat="48.16744" lon="-3.59162">
        <ele>219.6</ele>
        <time>2022-12-08T12:43:15Z</time>
      </trkpt>
      <trkpt lat="48.16744" lon="-3.59153">
        <ele>219.6</ele>
        <time>2022-12-08T12:43:16Z</time>
      </trkpt>
      <trkpt lat="48.16745" lon="-3.59145">
        <ele>219.5</ele>
        <time>2022-12-08T12:43:17Z</time>
      </trkpt>
      <trkpt lat="48.16745" lon="-3.59136">
        <ele>219.4</ele>
        <time>2022-12-08T12:43:18Z</time>
      </trkpt>
      <trkpt lat="48.16746" lon="-3.59127">
        <ele>219.3</ele>
        <time>2022-12-08T12:43:19Z</time>
      </trkpt>
      <trkpt lat="48.16746" lon="-3.59119">
        <ele>219.3</ele>
        <time>2022-12-08T12:43:20Z</time>
      </trkpt>
      <trkpt lat="48.16746" lon="-3.59112">
        <ele>219.2</ele>
        <time>2022-12-08T12:43:21Z</time>
      </trkpt>
      <trkpt lat="48.16747" lon="-3.59105">
        <ele>219.1</ele>
        <time>2022-12-08T12:43:22Z</time>
      </trkpt>
      <trkpt lat="48.16747" lon="-3.59099">
        <ele>219.1</ele>
        <time>2022-12-08T12:43:23Z</time>
      </trkpt>
      <trkpt lat="48.16748" lon="-3.59094">
        <ele>219</ele>
        <time>2022-12-08T12:43:24Z</time>
      </trkpt>
      <trkpt lat="48.16748" lon="-3.59088">
        <ele>219</ele>
        <time>2022-12-08T12:43:25Z</time>
      </trkpt>
      <trkpt lat="48.16748" lon="-3.59083">
        <ele>218.9</ele>
        <time>2022-12-08T12:43:26Z</time>
      </trkpt>
      <trkpt lat="48.16749" lon="-3.59078">
        <ele>218.9</ele>
        <time>2022-12-08T12:43:27Z</time>
      </trkpt>
      <trkpt lat="48.16749" lon="-3.59072">
        <ele>218.8</ele>
        <time>2022-12-08T12:43:28Z</time>
      </trkpt>
      <trkpt lat="48.16749" lon="-3.59067">
        <ele>218.8</ele>
        <time>2022-12-08T12:43:29Z</time>
      </trkpt>
      <trkpt lat="48.16749" lon="-3.59061">
        <ele>218.7</ele>
        <time>2022-12-08T12:43:30Z</time>
      </trkpt>
      <trkpt lat="48.1675" lon="-3.59055">
        <ele>218.7</ele>
        <time>2022-12-08T12:43:32Z</time>
      </trkpt>
      <trkpt lat="48.16752" lon="-3.59046">
        <ele>218.6</ele>
        <time>2022-12-08T12:43:33Z</time>
      </trkpt>
      <trkpt lat="48.16753" lon="-3.59039">
        <ele>218.5</ele>
        <time>2022-12-08T12:43:34Z</time>
      </trkpt>
      <trkpt lat="48.16755" lon="-3.59031">
        <ele>218.5</ele>
        <time>2022-12-08T12:43:36Z</time>
      </trkpt>
      <trkpt lat="48.16757" lon="-3.59022">
        <ele>218.4</ele>
        <time>2022-12-08T12:43:37Z</time>
      </trkpt>
      <trkpt lat="48.16759" lon="-3.59014">
        <ele>218.3</ele>
        <time>2022-12-08T12:43:39Z</time>
      </trkpt>
      <trkpt lat="48.16761" lon="-3.59008">
        <ele>218.2</ele>
        <time>2022-12-08T12:43:40Z</time>
      </trkpt>
      <trkpt lat="48.16762" lon="-3.59003">
        <ele>218.2</ele>
        <time>2022-12-08T12:43:41Z</time>
      </trkpt>
      <trkpt lat="48.16765" lon="-3.58995">
        <ele>218.1</ele>
        <time>2022-12-08T12:43:42Z</time>
      </trkpt>
      <trkpt lat="48.16766" lon="-3.58988">
        <ele>218.1</ele>
        <time>2022-12-08T12:43:43Z</time>
      </trkpt>
      <trkpt lat="48.16767" lon="-3.58983">
        <ele>218</ele>
        <time>2022-12-08T12:43:44Z</time>
      </trkpt>
      <trkpt lat="48.16767" lon="-3.58973">
        <ele>217.9</ele>
        <time>2022-12-08T12:43:46Z</time>
      </trkpt>
      <trkpt lat="48.16768" lon="-3.58964">
        <ele>217.8</ele>
        <time>2022-12-08T12:43:47Z</time>
      </trkpt>
      <trkpt lat="48.16769" lon="-3.5896">
        <ele>217.8</ele>
        <time>2022-12-08T12:43:48Z</time>
      </trkpt>
      <trkpt lat="48.1677" lon="-3.58958">
        <ele>217.8</ele>
        <time>2022-12-08T12:43:49Z</time>
      </trkpt>
      <trkpt lat="48.1677" lon="-3.58957">
        <ele>217.8</ele>
        <time>2022-12-08T12:43:50Z</time>
      </trkpt>
      <trkpt lat="48.1677" lon="-3.58956">
        <ele>217.8</ele>
        <time>2022-12-08T12:43:51Z</time>
      </trkpt>
      <trkpt lat="48.1677" lon="-3.58955">
        <ele>217.7</ele>
        <time>2022-12-08T12:43:52Z</time>
      </trkpt>
      <trkpt lat="48.16771" lon="-3.58954">
        <ele>217.7</ele>
        <time>2022-12-08T12:43:53Z</time>
      </trkpt>
      <trkpt lat="48.16771" lon="-3.58953">
        <ele>217.7</ele>
        <time>2022-12-08T12:43:54Z</time>
      </trkpt>
      <trkpt lat="48.16771" lon="-3.58951">
        <ele>217.7</ele>
        <time>2022-12-08T12:43:55Z</time>
      </trkpt>
      <trkpt lat="48.16771" lon="-3.5895">
        <ele>217.7</ele>
        <time>2022-12-08T12:43:56Z</time>
      </trkpt>
      <trkpt lat="48.16772" lon="-3.58944">
        <ele>217.6</ele>
        <time>2022-12-08T12:43:57Z</time>
      </trkpt>
      <trkpt lat="48.16772" lon="-3.58937">
        <ele>217.6</ele>
        <time>2022-12-08T12:43:59Z</time>
      </trkpt>
      <trkpt lat="48.16773" lon="-3.58929">
        <ele>217.5</ele>
        <time>2022-12-08T12:44:00Z</time>
      </trkpt>
      <trkpt lat="48.16775" lon="-3.58921">
        <ele>217.4</ele>
        <time>2022-12-08T12:44:01Z</time>
      </trkpt>
      <trkpt lat="48.16776" lon="-3.58914">
        <ele>217.4</ele>
        <time>2022-12-08T12:44:02Z</time>
      </trkpt>
      <trkpt lat="48.16778" lon="-3.58904">
        <ele>217.3</ele>
        <time>2022-12-08T12:44:04Z</time>
      </trkpt>
      <trkpt lat="48.16779" lon="-3.58892">
        <ele>217.2</ele>
        <time>2022-12-08T12:44:05Z</time>
      </trkpt>
      <trkpt lat="48.1678" lon="-3.58886">
        <ele>217.1</ele>
        <time>2022-12-08T12:44:06Z</time>
      </trkpt>
      <trkpt lat="48.16781" lon="-3.58879">
        <ele>217.1</ele>
        <time>2022-12-08T12:44:07Z</time>
      </trkpt>
      <trkpt lat="48.16783" lon="-3.58872">
        <ele>217</ele>
        <time>2022-12-08T12:44:08Z</time>
      </trkpt>
      <trkpt lat="48.16784" lon="-3.58865">
        <ele>216.9</ele>
        <time>2022-12-08T12:44:09Z</time>
      </trkpt>
      <trkpt lat="48.16784" lon="-3.58857">
        <ele>216.9</ele>
        <time>2022-12-08T12:44:10Z</time>
      </trkpt>
      <trkpt lat="48.16786" lon="-3.5885">
        <ele>216.8</ele>
        <time>2022-12-08T12:44:11Z</time>
      </trkpt>
      <trkpt lat="48.16787" lon="-3.58843">
        <ele>216.7</ele>
        <time>2022-12-08T12:44:12Z</time>
      </trkpt>
      <trkpt lat="48.16788" lon="-3.58835">
        <ele>216.6</ele>
        <time>2022-12-08T12:44:13Z</time>
      </trkpt>
      <trkpt lat="48.1679" lon="-3.58827">
        <ele>216.6</ele>
        <time>2022-12-08T12:44:14Z</time>
      </trkpt>
      <trkpt lat="48.16791" lon="-3.58818">
        <ele>216.5</ele>
        <time>2022-12-08T12:44:15Z</time>
      </trkpt>
      <trkpt lat="48.16793" lon="-3.58809">
        <ele>216.4</ele>
        <time>2022-12-08T12:44:16Z</time>
      </trkpt>
      <trkpt lat="48.16794" lon="-3.588">
        <ele>216.3</ele>
        <time>2022-12-08T12:44:17Z</time>
      </trkpt>
      <trkpt lat="48.16797" lon="-3.58791">
        <ele>216.2</ele>
        <time>2022-12-08T12:44:18Z</time>
      </trkpt>
      <trkpt lat="48.16799" lon="-3.58781">
        <ele>216.1</ele>
        <time>2022-12-08T12:44:19Z</time>
      </trkpt>
      <trkpt lat="48.16801" lon="-3.58772">
        <ele>216.1</ele>
        <time>2022-12-08T12:44:20Z</time>
      </trkpt>
      <trkpt lat="48.16803" lon="-3.58761">
        <ele>216</ele>
        <time>2022-12-08T12:44:21Z</time>
      </trkpt>
      <trkpt lat="48.16804" lon="-3.5875">
        <ele>215.9</ele>
        <time>2022-12-08T12:44:22Z</time>
      </trkpt>
      <trkpt lat="48.16804" lon="-3.58739">
        <ele>215.8</ele>
        <time>2022-12-08T12:44:23Z</time>
      </trkpt>
      <trkpt lat="48.16802" lon="-3.58728">
        <ele>215.7</ele>
        <time>2022-12-08T12:44:24Z</time>
      </trkpt>
      <trkpt lat="48.16799" lon="-3.58718">
        <ele>215.6</ele>
        <time>2022-12-08T12:44:25Z</time>
      </trkpt>
      <trkpt lat="48.16793" lon="-3.5871">
        <ele>215.5</ele>
        <time>2022-12-08T12:44:26Z</time>
      </trkpt>
      <trkpt lat="48.16787" lon="-3.58705">
        <ele>215.4</ele>
        <time>2022-12-08T12:44:27Z</time>
      </trkpt>
      <trkpt lat="48.16781" lon="-3.587">
        <ele>215.3</ele>
        <time>2022-12-08T12:44:28Z</time>
      </trkpt>
      <trkpt lat="48.16775" lon="-3.58695">
        <ele>215.2</ele>
        <time>2022-12-08T12:44:29Z</time>
      </trkpt>
      <trkpt lat="48.1677" lon="-3.58691">
        <ele>215.1</ele>
        <time>2022-12-08T12:44:30Z</time>
      </trkpt>
      <trkpt lat="48.16766" lon="-3.58686">
        <ele>215</ele>
        <time>2022-12-08T12:44:31Z</time>
      </trkpt>
      <trkpt lat="48.16763" lon="-3.5868">
        <ele>215</ele>
        <time>2022-12-08T12:44:32Z</time>
      </trkpt>
      <trkpt lat="48.1676" lon="-3.58673">
        <ele>214.9</ele>
        <time>2022-12-08T12:44:33Z</time>
      </trkpt>
      <trkpt lat="48.16759" lon="-3.58667">
        <ele>214.8</ele>
        <time>2022-12-08T12:44:34Z</time>
      </trkpt>
      <trkpt lat="48.16758" lon="-3.58661">
        <ele>214.8</ele>
        <time>2022-12-08T12:44:35Z</time>
      </trkpt>
      <trkpt lat="48.16758" lon="-3.58657">
        <ele>214.7</ele>
        <time>2022-12-08T12:44:36Z</time>
      </trkpt>
      <trkpt lat="48.16758" lon="-3.58648">
        <ele>214.7</ele>
        <time>2022-12-08T12:44:37Z</time>
      </trkpt>
      <trkpt lat="48.16757" lon="-3.5864">
        <ele>214.6</ele>
        <time>2022-12-08T12:44:38Z</time>
      </trkpt>
      <trkpt lat="48.16756" lon="-3.58633">
        <ele>214.5</ele>
        <time>2022-12-08T12:44:39Z</time>
      </trkpt>
      <trkpt lat="48.16755" lon="-3.58626">
        <ele>214.5</ele>
        <time>2022-12-08T12:44:40Z</time>
      </trkpt>
      <trkpt lat="48.16754" lon="-3.58619">
        <ele>214.4</ele>
        <time>2022-12-08T12:44:41Z</time>
      </trkpt>
      <trkpt lat="48.16754" lon="-3.58612">
        <ele>214.3</ele>
        <time>2022-12-08T12:44:42Z</time>
      </trkpt>
      <trkpt lat="48.16754" lon="-3.58605">
        <ele>214.3</ele>
        <time>2022-12-08T12:44:43Z</time>
      </trkpt>
      <trkpt lat="48.16754" lon="-3.58599">
        <ele>214.2</ele>
        <time>2022-12-08T12:44:44Z</time>
      </trkpt>
      <trkpt lat="48.16753" lon="-3.58592">
        <ele>214.2</ele>
        <time>2022-12-08T12:44:45Z</time>
      </trkpt>
      <trkpt lat="48.16753" lon="-3.58585">
        <ele>214.1</ele>
        <time>2022-12-08T12:44:46Z</time>
      </trkpt>
      <trkpt lat="48.16752" lon="-3.58578">
        <ele>214</ele>
        <time>2022-12-08T12:44:47Z</time>
      </trkpt>
      <trkpt lat="48.16752" lon="-3.58574">
        <ele>214</ele>
        <time>2022-12-08T12:44:48Z</time>
      </trkpt>
      <trkpt lat="48.16751" lon="-3.58566">
        <ele>213.9</ele>
        <time>2022-12-08T12:44:49Z</time>
      </trkpt>
      <trkpt lat="48.1675" lon="-3.5856">
        <ele>213.9</ele>
        <time>2022-12-08T12:44:50Z</time>
      </trkpt>
      <trkpt lat="48.1675" lon="-3.58556">
        <ele>213.8</ele>
        <time>2022-12-08T12:44:51Z</time>
      </trkpt>
      <trkpt lat="48.16749" lon="-3.58549">
        <ele>213.8</ele>
        <time>2022-12-08T12:44:52Z</time>
      </trkpt>
      <trkpt lat="48.16748" lon="-3.58542">
        <ele>213.7</ele>
        <time>2022-12-08T12:44:54Z</time>
      </trkpt>
      <trkpt lat="48.16747" lon="-3.58538">
        <ele>213.7</ele>
        <time>2022-12-08T12:44:55Z</time>
      </trkpt>
      <trkpt lat="48.16745" lon="-3.5853">
        <ele>213.6</ele>
        <time>2022-12-08T12:44:56Z</time>
      </trkpt>
      <trkpt lat="48.16745" lon="-3.58523">
        <ele>213.5</ele>
        <time>2022-12-08T12:44:57Z</time>
      </trkpt>
      <trkpt lat="48.16745" lon="-3.58518">
        <ele>213.5</ele>
        <time>2022-12-08T12:44:58Z</time>
      </trkpt>
      <trkpt lat="48.16744" lon="-3.58512">
        <ele>213.4</ele>
        <time>2022-12-08T12:44:59Z</time>
      </trkpt>
      <trkpt lat="48.16744" lon="-3.58507">
        <ele>213.4</ele>
        <time>2022-12-08T12:45:00Z</time>
      </trkpt>
      <trkpt lat="48.16744" lon="-3.58503">
        <ele>213.3</ele>
        <time>2022-12-08T12:45:01Z</time>
      </trkpt>
      <trkpt lat="48.16745" lon="-3.58497">
        <ele>213.3</ele>
        <time>2022-12-08T12:45:02Z</time>
      </trkpt>
      <trkpt lat="48.16745" lon="-3.58491">
        <ele>213.2</ele>
        <time>2022-12-08T12:45:03Z</time>
      </trkpt>
      <trkpt lat="48.16746" lon="-3.58485">
        <ele>213.2</ele>
        <time>2022-12-08T12:45:04Z</time>
      </trkpt>
      <trkpt lat="48.16746" lon="-3.58479">
        <ele>213.1</ele>
        <time>2022-12-08T12:45:05Z</time>
      </trkpt>
      <trkpt lat="48.16746" lon="-3.58473">
        <ele>213.1</ele>
        <time>2022-12-08T12:45:06Z</time>
      </trkpt>
      <trkpt lat="48.16746" lon="-3.58467">
        <ele>213</ele>
        <time>2022-12-08T12:45:07Z</time>
      </trkpt>
      <trkpt lat="48.16746" lon="-3.58461">
        <ele>213</ele>
        <time>2022-12-08T12:45:08Z</time>
      </trkpt>
      <trkpt lat="48.16747" lon="-3.58454">
        <ele>212.9</ele>
        <time>2022-12-08T12:45:09Z</time>
      </trkpt>
      <trkpt lat="48.16747" lon="-3.58447">
        <ele>212.8</ele>
        <time>2022-12-08T12:45:10Z</time>
      </trkpt>
      <trkpt lat="48.16748" lon="-3.58442">
        <ele>212.7</ele>
        <time>2022-12-08T12:45:11Z</time>
      </trkpt>
      <trkpt lat="48.16748" lon="-3.58433">
        <ele>212.5</ele>
        <time>2022-12-08T12:45:13Z</time>
      </trkpt>
      <trkpt lat="48.16748" lon="-3.58425">
        <ele>212.4</ele>
        <time>2022-12-08T12:45:14Z</time>
      </trkpt>
      <trkpt lat="48.16748" lon="-3.58413">
        <ele>212.2</ele>
        <time>2022-12-08T12:45:15Z</time>
      </trkpt>
      <trkpt lat="48.16748" lon="-3.58405">
        <ele>212.1</ele>
        <time>2022-12-08T12:45:16Z</time>
      </trkpt>
      <trkpt lat="48.16748" lon="-3.58397">
        <ele>212</ele>
        <time>2022-12-08T12:45:17Z</time>
      </trkpt>
      <trkpt lat="48.16748" lon="-3.58389">
        <ele>211.8</ele>
        <time>2022-12-08T12:45:18Z</time>
      </trkpt>
      <trkpt lat="48.16748" lon="-3.58381">
        <ele>211.7</ele>
        <time>2022-12-08T12:45:19Z</time>
      </trkpt>
      <trkpt lat="48.16749" lon="-3.58374">
        <ele>211.6</ele>
        <time>2022-12-08T12:45:20Z</time>
      </trkpt>
      <trkpt lat="48.1675" lon="-3.58366">
        <ele>211.5</ele>
        <time>2022-12-08T12:45:21Z</time>
      </trkpt>
      <trkpt lat="48.1675" lon="-3.58358">
        <ele>211.3</ele>
        <time>2022-12-08T12:45:22Z</time>
      </trkpt>
      <trkpt lat="48.16751" lon="-3.5835">
        <ele>211.2</ele>
        <time>2022-12-08T12:45:23Z</time>
      </trkpt>
      <trkpt lat="48.16752" lon="-3.58341">
        <ele>211</ele>
        <time>2022-12-08T12:45:24Z</time>
      </trkpt>
      <trkpt lat="48.16753" lon="-3.58333">
        <ele>210.9</ele>
        <time>2022-12-08T12:45:25Z</time>
      </trkpt>
      <trkpt lat="48.16755" lon="-3.58325">
        <ele>210.7</ele>
        <time>2022-12-08T12:45:26Z</time>
      </trkpt>
      <trkpt lat="48.16757" lon="-3.58317">
        <ele>210.6</ele>
        <time>2022-12-08T12:45:27Z</time>
      </trkpt>
      <trkpt lat="48.16759" lon="-3.58308">
        <ele>210.4</ele>
        <time>2022-12-08T12:45:28Z</time>
      </trkpt>
      <trkpt lat="48.16761" lon="-3.583">
        <ele>210.3</ele>
        <time>2022-12-08T12:45:29Z</time>
      </trkpt>
      <trkpt lat="48.16763" lon="-3.58292">
        <ele>210.1</ele>
        <time>2022-12-08T12:45:30Z</time>
      </trkpt>
      <trkpt lat="48.16765" lon="-3.58283">
        <ele>210</ele>
        <time>2022-12-08T12:45:31Z</time>
      </trkpt>
      <trkpt lat="48.16767" lon="-3.58274">
        <ele>209.8</ele>
        <time>2022-12-08T12:45:32Z</time>
      </trkpt>
      <trkpt lat="48.16769" lon="-3.58265">
        <ele>209.7</ele>
        <time>2022-12-08T12:45:33Z</time>
      </trkpt>
      <trkpt lat="48.1677" lon="-3.58256">
        <ele>209.5</ele>
        <time>2022-12-08T12:45:34Z</time>
      </trkpt>
      <trkpt lat="48.16771" lon="-3.58247">
        <ele>209.3</ele>
        <time>2022-12-08T12:45:35Z</time>
      </trkpt>
      <trkpt lat="48.16772" lon="-3.58237">
        <ele>209.2</ele>
        <time>2022-12-08T12:45:36Z</time>
      </trkpt>
      <trkpt lat="48.16771" lon="-3.58227">
        <ele>209</ele>
        <time>2022-12-08T12:45:37Z</time>
      </trkpt>
      <trkpt lat="48.16769" lon="-3.58218">
        <ele>208.8</ele>
        <time>2022-12-08T12:45:38Z</time>
      </trkpt>
      <trkpt lat="48.16766" lon="-3.5821">
        <ele>208.7</ele>
        <time>2022-12-08T12:45:39Z</time>
      </trkpt>
      <trkpt lat="48.16762" lon="-3.58203">
        <ele>208.5</ele>
        <time>2022-12-08T12:45:40Z</time>
      </trkpt>
      <trkpt lat="48.16758" lon="-3.58197">
        <ele>208.4</ele>
        <time>2022-12-08T12:45:41Z</time>
      </trkpt>
      <trkpt lat="48.16754" lon="-3.5819">
        <ele>208.3</ele>
        <time>2022-12-08T12:45:42Z</time>
      </trkpt>
      <trkpt lat="48.1675" lon="-3.58184">
        <ele>208.2</ele>
        <time>2022-12-08T12:45:43Z</time>
      </trkpt>
      <trkpt lat="48.16746" lon="-3.58177">
        <ele>208.1</ele>
        <time>2022-12-08T12:45:44Z</time>
      </trkpt>
      <trkpt lat="48.16742" lon="-3.5817">
        <ele>208</ele>
        <time>2022-12-08T12:45:45Z</time>
      </trkpt>
      <trkpt lat="48.16738" lon="-3.58163">
        <ele>207.9</ele>
        <time>2022-12-08T12:45:46Z</time>
      </trkpt>
      <trkpt lat="48.16735" lon="-3.58154">
        <ele>207.8</ele>
        <time>2022-12-08T12:45:47Z</time>
      </trkpt>
      <trkpt lat="48.16733" lon="-3.58146">
        <ele>207.7</ele>
        <time>2022-12-08T12:45:48Z</time>
      </trkpt>
      <trkpt lat="48.16731" lon="-3.58137">
        <ele>207.5</ele>
        <time>2022-12-08T12:45:49Z</time>
      </trkpt>
      <trkpt lat="48.16729" lon="-3.58127">
        <ele>207.1</ele>
        <time>2022-12-08T12:45:50Z</time>
      </trkpt>
      <trkpt lat="48.16728" lon="-3.58117">
        <ele>206.7</ele>
        <time>2022-12-08T12:45:51Z</time>
      </trkpt>
      <trkpt lat="48.16726" lon="-3.58107">
        <ele>206.2</ele>
        <time>2022-12-08T12:45:52Z</time>
      </trkpt>
      <trkpt lat="48.16724" lon="-3.58096">
        <ele>205.8</ele>
        <time>2022-12-08T12:45:53Z</time>
      </trkpt>
      <trkpt lat="48.16724" lon="-3.58085">
        <ele>205.3</ele>
        <time>2022-12-08T12:45:54Z</time>
      </trkpt>
      <trkpt lat="48.16725" lon="-3.58073">
        <ele>204.8</ele>
        <time>2022-12-08T12:45:55Z</time>
      </trkpt>
      <trkpt lat="48.16725" lon="-3.58061">
        <ele>204.3</ele>
        <time>2022-12-08T12:45:56Z</time>
      </trkpt>
      <trkpt lat="48.16726" lon="-3.58048">
        <ele>203.7</ele>
        <time>2022-12-08T12:45:57Z</time>
      </trkpt>
      <trkpt lat="48.16727" lon="-3.58034">
        <ele>203.1</ele>
        <time>2022-12-08T12:45:58Z</time>
      </trkpt>
      <trkpt lat="48.16728" lon="-3.58022">
        <ele>202.6</ele>
        <time>2022-12-08T12:45:59Z</time>
      </trkpt>
      <trkpt lat="48.16727" lon="-3.58011">
        <ele>202.1</ele>
        <time>2022-12-08T12:46:00Z</time>
      </trkpt>
      <trkpt lat="48.16724" lon="-3.58002">
        <ele>201.7</ele>
        <time>2022-12-08T12:46:01Z</time>
      </trkpt>
      <trkpt lat="48.16719" lon="-3.57995">
        <ele>201.3</ele>
        <time>2022-12-08T12:46:02Z</time>
      </trkpt>
      <trkpt lat="48.16713" lon="-3.57991">
        <ele>200.9</ele>
        <time>2022-12-08T12:46:03Z</time>
      </trkpt>
      <trkpt lat="48.16707" lon="-3.57991">
        <ele>200.5</ele>
        <time>2022-12-08T12:46:04Z</time>
      </trkpt>
      <trkpt lat="48.167" lon="-3.57995">
        <ele>200</ele>
        <time>2022-12-08T12:46:05Z</time>
      </trkpt>
      <trkpt lat="48.16694" lon="-3.58003">
        <ele>199.1</ele>
        <time>2022-12-08T12:46:06Z</time>
      </trkpt>
      <trkpt lat="48.16688" lon="-3.58012">
        <ele>198.1</ele>
        <time>2022-12-08T12:46:07Z</time>
      </trkpt>
      <trkpt lat="48.16682" lon="-3.58023">
        <ele>196.9</ele>
        <time>2022-12-08T12:46:08Z</time>
      </trkpt>
      <trkpt lat="48.16677" lon="-3.58034">
        <ele>195.8</ele>
        <time>2022-12-08T12:46:09Z</time>
      </trkpt>
      <trkpt lat="48.16672" lon="-3.58045">
        <ele>194.7</ele>
        <time>2022-12-08T12:46:10Z</time>
      </trkpt>
      <trkpt lat="48.16666" lon="-3.58056">
        <ele>194</ele>
        <time>2022-12-08T12:46:11Z</time>
      </trkpt>
      <trkpt lat="48.16661" lon="-3.58067">
        <ele>193.8</ele>
        <time>2022-12-08T12:46:12Z</time>
      </trkpt>
      <trkpt lat="48.16656" lon="-3.58077">
        <ele>193.6</ele>
        <time>2022-12-08T12:46:13Z</time>
      </trkpt>
      <trkpt lat="48.1665" lon="-3.58087">
        <ele>193.5</ele>
        <time>2022-12-08T12:46:14Z</time>
      </trkpt>
      <trkpt lat="48.16645" lon="-3.58098">
        <ele>193.3</ele>
        <time>2022-12-08T12:46:15Z</time>
      </trkpt>
      <trkpt lat="48.16639" lon="-3.58107">
        <ele>193.1</ele>
        <time>2022-12-08T12:46:16Z</time>
      </trkpt>
      <trkpt lat="48.16634" lon="-3.58116">
        <ele>192.9</ele>
        <time>2022-12-08T12:46:17Z</time>
      </trkpt>
      <trkpt lat="48.16627" lon="-3.58124">
        <ele>192.7</ele>
        <time>2022-12-08T12:46:18Z</time>
      </trkpt>
      <trkpt lat="48.16621" lon="-3.58131">
        <ele>192.6</ele>
        <time>2022-12-08T12:46:19Z</time>
      </trkpt>
      <trkpt lat="48.16614" lon="-3.58138">
        <ele>192.4</ele>
        <time>2022-12-08T12:46:20Z</time>
      </trkpt>
      <trkpt lat="48.16607" lon="-3.58143">
        <ele>192.2</ele>
        <time>2022-12-08T12:46:21Z</time>
      </trkpt>
      <trkpt lat="48.166" lon="-3.58148">
        <ele>192</ele>
        <time>2022-12-08T12:46:22Z</time>
      </trkpt>
      <trkpt lat="48.16592" lon="-3.58153">
        <ele>191.8</ele>
        <time>2022-12-08T12:46:23Z</time>
      </trkpt>
      <trkpt lat="48.16585" lon="-3.58156">
        <ele>191.6</ele>
        <time>2022-12-08T12:46:24Z</time>
      </trkpt>
      <trkpt lat="48.16577" lon="-3.5816">
        <ele>191.5</ele>
        <time>2022-12-08T12:46:25Z</time>
      </trkpt>
      <trkpt lat="48.16569" lon="-3.58164">
        <ele>191.3</ele>
        <time>2022-12-08T12:46:26Z</time>
      </trkpt>
      <trkpt lat="48.16561" lon="-3.58168">
        <ele>191.1</ele>
        <time>2022-12-08T12:46:27Z</time>
      </trkpt>
      <trkpt lat="48.16553" lon="-3.58172">
        <ele>190.8</ele>
        <time>2022-12-08T12:46:28Z</time>
      </trkpt>
      <trkpt lat="48.16545" lon="-3.58176">
        <ele>190.6</ele>
        <time>2022-12-08T12:46:29Z</time>
      </trkpt>
      <trkpt lat="48.16537" lon="-3.58181">
        <ele>190.4</ele>
        <time>2022-12-08T12:46:30Z</time>
      </trkpt>
      <trkpt lat="48.16529" lon="-3.58184">
        <ele>190.3</ele>
        <time>2022-12-08T12:46:31Z</time>
      </trkpt>
      <trkpt lat="48.16521" lon="-3.58188">
        <ele>190.1</ele>
        <time>2022-12-08T12:46:32Z</time>
      </trkpt>
      <trkpt lat="48.16513" lon="-3.58192">
        <ele>190</ele>
        <time>2022-12-08T12:46:33Z</time>
      </trkpt>
      <trkpt lat="48.16505" lon="-3.58195">
        <ele>189.8</ele>
        <time>2022-12-08T12:46:34Z</time>
      </trkpt>
      <trkpt lat="48.16497" lon="-3.58199">
        <ele>189.6</ele>
        <time>2022-12-08T12:46:35Z</time>
      </trkpt>
      <trkpt lat="48.1649" lon="-3.58202">
        <ele>189.5</ele>
        <time>2022-12-08T12:46:36Z</time>
      </trkpt>
      <trkpt lat="48.16482" lon="-3.58205">
        <ele>189.4</ele>
        <time>2022-12-08T12:46:37Z</time>
      </trkpt>
      <trkpt lat="48.16475" lon="-3.58208">
        <ele>189.3</ele>
        <time>2022-12-08T12:46:38Z</time>
      </trkpt>
      <trkpt lat="48.16467" lon="-3.58212">
        <ele>189.1</ele>
        <time>2022-12-08T12:46:39Z</time>
      </trkpt>
      <trkpt lat="48.1646" lon="-3.58216">
        <ele>189</ele>
        <time>2022-12-08T12:46:40Z</time>
      </trkpt>
      <trkpt lat="48.16453" lon="-3.58219">
        <ele>188.9</ele>
        <time>2022-12-08T12:46:41Z</time>
      </trkpt>
      <trkpt lat="48.16446" lon="-3.58223">
        <ele>188.8</ele>
        <time>2022-12-08T12:46:42Z</time>
      </trkpt>
      <trkpt lat="48.16438" lon="-3.58227">
        <ele>188.6</ele>
        <time>2022-12-08T12:46:43Z</time>
      </trkpt>
      <trkpt lat="48.16431" lon="-3.58231">
        <ele>188.5</ele>
        <time>2022-12-08T12:46:44Z</time>
      </trkpt>
      <trkpt lat="48.16424" lon="-3.58234">
        <ele>188.3</ele>
        <time>2022-12-08T12:46:45Z</time>
      </trkpt>
      <trkpt lat="48.16417" lon="-3.58238">
        <ele>188.2</ele>
        <time>2022-12-08T12:46:46Z</time>
      </trkpt>
      <trkpt lat="48.16409" lon="-3.58241">
        <ele>188</ele>
        <time>2022-12-08T12:46:47Z</time>
      </trkpt>
      <trkpt lat="48.16401" lon="-3.58244">
        <ele>187.8</ele>
        <time>2022-12-08T12:46:48Z</time>
      </trkpt>
      <trkpt lat="48.16394" lon="-3.58248">
        <ele>187.6</ele>
        <time>2022-12-08T12:46:49Z</time>
      </trkpt>
      <trkpt lat="48.16386" lon="-3.58251">
        <ele>187.5</ele>
        <time>2022-12-08T12:46:50Z</time>
      </trkpt>
      <trkpt lat="48.16378" lon="-3.58255">
        <ele>187.3</ele>
        <time>2022-12-08T12:46:51Z</time>
      </trkpt>
      <trkpt lat="48.1637" lon="-3.58259">
        <ele>187.1</ele>
        <time>2022-12-08T12:46:52Z</time>
      </trkpt>
      <trkpt lat="48.16363" lon="-3.58263">
        <ele>186.9</ele>
        <time>2022-12-08T12:46:53Z</time>
      </trkpt>
      <trkpt lat="48.16355" lon="-3.58266">
        <ele>186.7</ele>
        <time>2022-12-08T12:46:54Z</time>
      </trkpt>
      <trkpt lat="48.16347" lon="-3.5827">
        <ele>186.5</ele>
        <time>2022-12-08T12:46:55Z</time>
      </trkpt>
      <trkpt lat="48.1634" lon="-3.58274">
        <ele>186.3</ele>
        <time>2022-12-08T12:46:56Z</time>
      </trkpt>
      <trkpt lat="48.16332" lon="-3.58278">
        <ele>186.2</ele>
        <time>2022-12-08T12:46:57Z</time>
      </trkpt>
      <trkpt lat="48.16325" lon="-3.58282">
        <ele>186</ele>
        <time>2022-12-08T12:46:58Z</time>
      </trkpt>
      <trkpt lat="48.16318" lon="-3.58286">
        <ele>185.8</ele>
        <time>2022-12-08T12:46:59Z</time>
      </trkpt>
      <trkpt lat="48.1631" lon="-3.5829">
        <ele>185.6</ele>
        <time>2022-12-08T12:47:00Z</time>
      </trkpt>
      <trkpt lat="48.16303" lon="-3.58294">
        <ele>185.4</ele>
        <time>2022-12-08T12:47:01Z</time>
      </trkpt>
      <trkpt lat="48.16295" lon="-3.58299">
        <ele>185.2</ele>
        <time>2022-12-08T12:47:02Z</time>
      </trkpt>
      <trkpt lat="48.16288" lon="-3.58304">
        <ele>185.1</ele>
        <time>2022-12-08T12:47:03Z</time>
      </trkpt>
      <trkpt lat="48.16281" lon="-3.5831">
        <ele>185</ele>
        <time>2022-12-08T12:47:04Z</time>
      </trkpt>
      <trkpt lat="48.16275" lon="-3.58317">
        <ele>184.8</ele>
        <time>2022-12-08T12:47:05Z</time>
      </trkpt>
      <trkpt lat="48.16269" lon="-3.58325">
        <ele>184.6</ele>
        <time>2022-12-08T12:47:06Z</time>
      </trkpt>
      <trkpt lat="48.16263" lon="-3.58332">
        <ele>184.3</ele>
        <time>2022-12-08T12:47:07Z</time>
      </trkpt>
      <trkpt lat="48.16257" lon="-3.5834">
        <ele>184.1</ele>
        <time>2022-12-08T12:47:08Z</time>
      </trkpt>
      <trkpt lat="48.16251" lon="-3.58348">
        <ele>183.8</ele>
        <time>2022-12-08T12:47:09Z</time>
      </trkpt>
      <trkpt lat="48.16245" lon="-3.58356">
        <ele>183.5</ele>
        <time>2022-12-08T12:47:10Z</time>
      </trkpt>
      <trkpt lat="48.16239" lon="-3.58364">
        <ele>183.3</ele>
        <time>2022-12-08T12:47:11Z</time>
      </trkpt>
      <trkpt lat="48.16233" lon="-3.58373">
        <ele>183</ele>
        <time>2022-12-08T12:47:12Z</time>
      </trkpt>
      <trkpt lat="48.16228" lon="-3.58382">
        <ele>182.9</ele>
        <time>2022-12-08T12:47:13Z</time>
      </trkpt>
      <trkpt lat="48.16222" lon="-3.5839">
        <ele>182.7</ele>
        <time>2022-12-08T12:47:14Z</time>
      </trkpt>
      <trkpt lat="48.16216" lon="-3.58398">
        <ele>182.5</ele>
        <time>2022-12-08T12:47:15Z</time>
      </trkpt>
      <trkpt lat="48.1621" lon="-3.58407">
        <ele>182.3</ele>
        <time>2022-12-08T12:47:16Z</time>
      </trkpt>
      <trkpt lat="48.16204" lon="-3.58415">
        <ele>182</ele>
        <time>2022-12-08T12:47:17Z</time>
      </trkpt>
      <trkpt lat="48.16198" lon="-3.58423">
        <ele>181.8</ele>
        <time>2022-12-08T12:47:18Z</time>
      </trkpt>
      <trkpt lat="48.16192" lon="-3.58431">
        <ele>181.5</ele>
        <time>2022-12-08T12:47:19Z</time>
      </trkpt>
      <trkpt lat="48.16185" lon="-3.58439">
        <ele>181.3</ele>
        <time>2022-12-08T12:47:20Z</time>
      </trkpt>
      <trkpt lat="48.16179" lon="-3.58448">
        <ele>181</ele>
        <time>2022-12-08T12:47:21Z</time>
      </trkpt>
      <trkpt lat="48.16173" lon="-3.58457">
        <ele>180.8</ele>
        <time>2022-12-08T12:47:22Z</time>
      </trkpt>
      <trkpt lat="48.16168" lon="-3.58467">
        <ele>180.7</ele>
        <time>2022-12-08T12:47:23Z</time>
      </trkpt>
      <trkpt lat="48.16161" lon="-3.58476">
        <ele>180.4</ele>
        <time>2022-12-08T12:47:24Z</time>
      </trkpt>
      <trkpt lat="48.16155" lon="-3.58485">
        <ele>180.2</ele>
        <time>2022-12-08T12:47:25Z</time>
      </trkpt>
      <trkpt lat="48.16149" lon="-3.58494">
        <ele>180</ele>
        <time>2022-12-08T12:47:26Z</time>
      </trkpt>
      <trkpt lat="48.16143" lon="-3.58503">
        <ele>179.7</ele>
        <time>2022-12-08T12:47:27Z</time>
      </trkpt>
      <trkpt lat="48.16138" lon="-3.58513">
        <ele>179.5</ele>
        <time>2022-12-08T12:47:28Z</time>
      </trkpt>
      <trkpt lat="48.16133" lon="-3.58524">
        <ele>179.2</ele>
        <time>2022-12-08T12:47:29Z</time>
      </trkpt>
      <trkpt lat="48.16129" lon="-3.58535">
        <ele>179</ele>
        <time>2022-12-08T12:47:30Z</time>
      </trkpt>
      <trkpt lat="48.16126" lon="-3.58548">
        <ele>178.7</ele>
        <time>2022-12-08T12:47:31Z</time>
      </trkpt>
      <trkpt lat="48.16123" lon="-3.5856">
        <ele>178.4</ele>
        <time>2022-12-08T12:47:32Z</time>
      </trkpt>
      <trkpt lat="48.16121" lon="-3.58573">
        <ele>178.2</ele>
        <time>2022-12-08T12:47:33Z</time>
      </trkpt>
      <trkpt lat="48.16119" lon="-3.58585">
        <ele>177.9</ele>
        <time>2022-12-08T12:47:34Z</time>
      </trkpt>
      <trkpt lat="48.16118" lon="-3.58598">
        <ele>177.6</ele>
        <time>2022-12-08T12:47:35Z</time>
      </trkpt>
      <trkpt lat="48.16117" lon="-3.58611">
        <ele>177.4</ele>
        <time>2022-12-08T12:47:36Z</time>
      </trkpt>
      <trkpt lat="48.16116" lon="-3.58624">
        <ele>177.1</ele>
        <time>2022-12-08T12:47:37Z</time>
      </trkpt>
      <trkpt lat="48.16115" lon="-3.58637">
        <ele>176.8</ele>
        <time>2022-12-08T12:47:38Z</time>
      </trkpt>
      <trkpt lat="48.16115" lon="-3.5865">
        <ele>176.6</ele>
        <time>2022-12-08T12:47:39Z</time>
      </trkpt>
      <trkpt lat="48.16115" lon="-3.58664">
        <ele>176.3</ele>
        <time>2022-12-08T12:47:40Z</time>
      </trkpt>
      <trkpt lat="48.16114" lon="-3.58677">
        <ele>176</ele>
        <time>2022-12-08T12:47:41Z</time>
      </trkpt>
      <trkpt lat="48.16114" lon="-3.5869">
        <ele>175.7</ele>
        <time>2022-12-08T12:47:42Z</time>
      </trkpt>
      <trkpt lat="48.16113" lon="-3.58703">
        <ele>175.5</ele>
        <time>2022-12-08T12:47:43Z</time>
      </trkpt>
      <trkpt lat="48.16113" lon="-3.58716">
        <ele>175.2</ele>
        <time>2022-12-08T12:47:44Z</time>
      </trkpt>
      <trkpt lat="48.16112" lon="-3.58729">
        <ele>174.9</ele>
        <time>2022-12-08T12:47:45Z</time>
      </trkpt>
      <trkpt lat="48.16111" lon="-3.58742">
        <ele>174.6</ele>
        <time>2022-12-08T12:47:46Z</time>
      </trkpt>
      <trkpt lat="48.16109" lon="-3.58755">
        <ele>174.4</ele>
        <time>2022-12-08T12:47:47Z</time>
      </trkpt>
      <trkpt lat="48.16107" lon="-3.58767">
        <ele>174.1</ele>
        <time>2022-12-08T12:47:48Z</time>
      </trkpt>
      <trkpt lat="48.16105" lon="-3.5878">
        <ele>173.9</ele>
        <time>2022-12-08T12:47:49Z</time>
      </trkpt>
      <trkpt lat="48.16101" lon="-3.58792">
        <ele>173.6</ele>
        <time>2022-12-08T12:47:50Z</time>
      </trkpt>
      <trkpt lat="48.16098" lon="-3.58803">
        <ele>173.4</ele>
        <time>2022-12-08T12:47:51Z</time>
      </trkpt>
      <trkpt lat="48.16094" lon="-3.58812">
        <ele>173.2</ele>
        <time>2022-12-08T12:47:52Z</time>
      </trkpt>
      <trkpt lat="48.16091" lon="-3.58818">
        <ele>173.1</ele>
        <time>2022-12-08T12:47:53Z</time>
      </trkpt>
      <trkpt lat="48.16088" lon="-3.5882">
        <ele>173</ele>
        <time>2022-12-08T12:47:54Z</time>
      </trkpt>
      <trkpt lat="48.16085" lon="-3.58819">
        <ele>172.9</ele>
        <time>2022-12-08T12:47:55Z</time>
      </trkpt>
      <trkpt lat="48.16082" lon="-3.58818">
        <ele>172.9</ele>
        <time>2022-12-08T12:47:56Z</time>
      </trkpt>
      <trkpt lat="48.16078" lon="-3.58816">
        <ele>172.6</ele>
        <time>2022-12-08T12:47:57Z</time>
      </trkpt>
      <trkpt lat="48.16074" lon="-3.58816">
        <ele>172.4</ele>
        <time>2022-12-08T12:47:58Z</time>
      </trkpt>
      <trkpt lat="48.16072" lon="-3.58816">
        <ele>172.3</ele>
        <time>2022-12-08T12:47:59Z</time>
      </trkpt>
      <trkpt lat="48.16068" lon="-3.58817">
        <ele>172.1</ele>
        <time>2022-12-08T12:48:00Z</time>
      </trkpt>
      <trkpt lat="48.16066" lon="-3.58816">
        <ele>171.9</ele>
        <time>2022-12-08T12:48:01Z</time>
      </trkpt>
      <trkpt lat="48.16061" lon="-3.58814">
        <ele>171.6</ele>
        <time>2022-12-08T12:48:03Z</time>
      </trkpt>
      <trkpt lat="48.16053" lon="-3.58814">
        <ele>171.2</ele>
        <time>2022-12-08T12:48:04Z</time>
      </trkpt>
      <trkpt lat="48.16046" lon="-3.58812">
        <ele>170.8</ele>
        <time>2022-12-08T12:48:05Z</time>
      </trkpt>
      <trkpt lat="48.1604" lon="-3.5881">
        <ele>170.5</ele>
        <time>2022-12-08T12:48:06Z</time>
      </trkpt>
      <trkpt lat="48.16035" lon="-3.58807">
        <ele>170.3</ele>
        <time>2022-12-08T12:48:07Z</time>
      </trkpt>
      <trkpt lat="48.1603" lon="-3.58806">
        <ele>170.2</ele>
        <time>2022-12-08T12:48:08Z</time>
      </trkpt>
      <trkpt lat="48.16028" lon="-3.58807">
        <ele>170.2</ele>
        <time>2022-12-08T12:48:09Z</time>
      </trkpt>
      <trkpt lat="48.16024" lon="-3.58808">
        <ele>170.1</ele>
        <time>2022-12-08T12:48:11Z</time>
      </trkpt>
      <trkpt lat="48.16019" lon="-3.58813">
        <ele>170</ele>
        <time>2022-12-08T12:48:12Z</time>
      </trkpt>
      <trkpt lat="48.16019" lon="-3.58826">
        <ele>169.8</ele>
        <time>2022-12-08T12:48:14Z</time>
      </trkpt>
      <trkpt lat="48.16018" lon="-3.58833">
        <ele>169.6</ele>
        <time>2022-12-08T12:48:16Z</time>
      </trkpt>
      <trkpt lat="48.16016" lon="-3.58846">
        <ele>169.4</ele>
        <time>2022-12-08T12:48:17Z</time>
      </trkpt>
      <trkpt lat="48.16015" lon="-3.58854">
        <ele>169.3</ele>
        <time>2022-12-08T12:48:18Z</time>
      </trkpt>
      <trkpt lat="48.16015" lon="-3.58861">
        <ele>169.2</ele>
        <time>2022-12-08T12:48:19Z</time>
      </trkpt>
      <trkpt lat="48.16013" lon="-3.58869">
        <ele>169</ele>
        <time>2022-12-08T12:48:20Z</time>
      </trkpt>
      <trkpt lat="48.16012" lon="-3.58877">
        <ele>168.9</ele>
        <time>2022-12-08T12:48:21Z</time>
      </trkpt>
      <trkpt lat="48.16011" lon="-3.58885">
        <ele>168.8</ele>
        <time>2022-12-08T12:48:22Z</time>
      </trkpt>
      <trkpt lat="48.1601" lon="-3.58894">
        <ele>168.7</ele>
        <time>2022-12-08T12:48:23Z</time>
      </trkpt>
      <trkpt lat="48.16008" lon="-3.58902">
        <ele>168.6</ele>
        <time>2022-12-08T12:48:24Z</time>
      </trkpt>
      <trkpt lat="48.16007" lon="-3.58909">
        <ele>168.5</ele>
        <time>2022-12-08T12:48:25Z</time>
      </trkpt>
      <trkpt lat="48.16005" lon="-3.58917">
        <ele>168.4</ele>
        <time>2022-12-08T12:48:26Z</time>
      </trkpt>
      <trkpt lat="48.16002" lon="-3.58925">
        <ele>168.4</ele>
        <time>2022-12-08T12:48:27Z</time>
      </trkpt>
      <trkpt lat="48.16" lon="-3.58933">
        <ele>168.3</ele>
        <time>2022-12-08T12:48:28Z</time>
      </trkpt>
      <trkpt lat="48.15998" lon="-3.58941">
        <ele>168.2</ele>
        <time>2022-12-08T12:48:29Z</time>
      </trkpt>
      <trkpt lat="48.15996" lon="-3.58948">
        <ele>168.1</ele>
        <time>2022-12-08T12:48:30Z</time>
      </trkpt>
      <trkpt lat="48.15993" lon="-3.58956">
        <ele>168</ele>
        <time>2022-12-08T12:48:31Z</time>
      </trkpt>
      <trkpt lat="48.1599" lon="-3.58964">
        <ele>167.9</ele>
        <time>2022-12-08T12:48:32Z</time>
      </trkpt>
      <trkpt lat="48.15987" lon="-3.58971">
        <ele>167.8</ele>
        <time>2022-12-08T12:48:33Z</time>
      </trkpt>
      <trkpt lat="48.15984" lon="-3.5898">
        <ele>167.7</ele>
        <time>2022-12-08T12:48:34Z</time>
      </trkpt>
      <trkpt lat="48.15981" lon="-3.58987">
        <ele>167.6</ele>
        <time>2022-12-08T12:48:35Z</time>
      </trkpt>
      <trkpt lat="48.15978" lon="-3.58994">
        <ele>167.5</ele>
        <time>2022-12-08T12:48:36Z</time>
      </trkpt>
      <trkpt lat="48.15975" lon="-3.59002">
        <ele>167.4</ele>
        <time>2022-12-08T12:48:37Z</time>
      </trkpt>
      <trkpt lat="48.15971" lon="-3.5901">
        <ele>167.3</ele>
        <time>2022-12-08T12:48:38Z</time>
      </trkpt>
      <trkpt lat="48.15967" lon="-3.59017">
        <ele>167.2</ele>
        <time>2022-12-08T12:48:39Z</time>
      </trkpt>
      <trkpt lat="48.15964" lon="-3.59024">
        <ele>167.1</ele>
        <time>2022-12-08T12:48:40Z</time>
      </trkpt>
      <trkpt lat="48.1596" lon="-3.59032">
        <ele>167</ele>
        <time>2022-12-08T12:48:41Z</time>
      </trkpt>
      <trkpt lat="48.15956" lon="-3.59039">
        <ele>167</ele>
        <time>2022-12-08T12:48:42Z</time>
      </trkpt>
      <trkpt lat="48.15953" lon="-3.59045">
        <ele>166.9</ele>
        <time>2022-12-08T12:48:43Z</time>
      </trkpt>
      <trkpt lat="48.15949" lon="-3.59052">
        <ele>166.8</ele>
        <time>2022-12-08T12:48:44Z</time>
      </trkpt>
      <trkpt lat="48.15944" lon="-3.5906">
        <ele>166.7</ele>
        <time>2022-12-08T12:48:45Z</time>
      </trkpt>
      <trkpt lat="48.1594" lon="-3.59066">
        <ele>166.6</ele>
        <time>2022-12-08T12:48:46Z</time>
      </trkpt>
      <trkpt lat="48.15937" lon="-3.59073">
        <ele>166.5</ele>
        <time>2022-12-08T12:48:47Z</time>
      </trkpt>
      <trkpt lat="48.15933" lon="-3.59078">
        <ele>166.4</ele>
        <time>2022-12-08T12:48:48Z</time>
      </trkpt>
      <trkpt lat="48.15928" lon="-3.59084">
        <ele>166.3</ele>
        <time>2022-12-08T12:48:49Z</time>
      </trkpt>
      <trkpt lat="48.15923" lon="-3.59091">
        <ele>166.1</ele>
        <time>2022-12-08T12:48:50Z</time>
      </trkpt>
      <trkpt lat="48.15918" lon="-3.59097">
        <ele>166</ele>
        <time>2022-12-08T12:48:51Z</time>
      </trkpt>
      <trkpt lat="48.15914" lon="-3.59104">
        <ele>165.9</ele>
        <time>2022-12-08T12:48:52Z</time>
      </trkpt>
      <trkpt lat="48.1591" lon="-3.59112">
        <ele>165.8</ele>
        <time>2022-12-08T12:48:53Z</time>
      </trkpt>
      <trkpt lat="48.15904" lon="-3.59117">
        <ele>165.6</ele>
        <time>2022-12-08T12:48:54Z</time>
      </trkpt>
      <trkpt lat="48.15898" lon="-3.59122">
        <ele>165.5</ele>
        <time>2022-12-08T12:48:55Z</time>
      </trkpt>
      <trkpt lat="48.15892" lon="-3.59127">
        <ele>165.3</ele>
        <time>2022-12-08T12:48:56Z</time>
      </trkpt>
      <trkpt lat="48.15886" lon="-3.59132">
        <ele>165.1</ele>
        <time>2022-12-08T12:48:57Z</time>
      </trkpt>
      <trkpt lat="48.15881" lon="-3.59137">
        <ele>165</ele>
        <time>2022-12-08T12:48:58Z</time>
      </trkpt>
      <trkpt lat="48.15875" lon="-3.59142">
        <ele>164.8</ele>
        <time>2022-12-08T12:48:59Z</time>
      </trkpt>
      <trkpt lat="48.15869" lon="-3.59146">
        <ele>164.7</ele>
        <time>2022-12-08T12:49:00Z</time>
      </trkpt>
      <trkpt lat="48.15863" lon="-3.5915">
        <ele>164.5</ele>
        <time>2022-12-08T12:49:01Z</time>
      </trkpt>
      <trkpt lat="48.15857" lon="-3.59156">
        <ele>164.4</ele>
        <time>2022-12-08T12:49:02Z</time>
      </trkpt>
      <trkpt lat="48.15851" lon="-3.59163">
        <ele>164.2</ele>
        <time>2022-12-08T12:49:03Z</time>
      </trkpt>
      <trkpt lat="48.15845" lon="-3.5917">
        <ele>164.1</ele>
        <time>2022-12-08T12:49:04Z</time>
      </trkpt>
      <trkpt lat="48.15838" lon="-3.59174">
        <ele>164</ele>
        <time>2022-12-08T12:49:05Z</time>
      </trkpt>
      <trkpt lat="48.15832" lon="-3.5918">
        <ele>163.8</ele>
        <time>2022-12-08T12:49:06Z</time>
      </trkpt>
      <trkpt lat="48.15828" lon="-3.59187">
        <ele>163.7</ele>
        <time>2022-12-08T12:49:07Z</time>
      </trkpt>
      <trkpt lat="48.15822" lon="-3.59192">
        <ele>163.5</ele>
        <time>2022-12-08T12:49:08Z</time>
      </trkpt>
      <trkpt lat="48.15816" lon="-3.59195">
        <ele>163.3</ele>
        <time>2022-12-08T12:49:09Z</time>
      </trkpt>
      <trkpt lat="48.15809" lon="-3.59199">
        <ele>163.2</ele>
        <time>2022-12-08T12:49:10Z</time>
      </trkpt>
      <trkpt lat="48.15804" lon="-3.59204">
        <ele>163</ele>
        <time>2022-12-08T12:49:11Z</time>
      </trkpt>
      <trkpt lat="48.15799" lon="-3.59209">
        <ele>162.8</ele>
        <time>2022-12-08T12:49:12Z</time>
      </trkpt>
      <trkpt lat="48.15793" lon="-3.59216">
        <ele>162.6</ele>
        <time>2022-12-08T12:49:13Z</time>
      </trkpt>
      <trkpt lat="48.15787" lon="-3.59221">
        <ele>162.4</ele>
        <time>2022-12-08T12:49:14Z</time>
      </trkpt>
      <trkpt lat="48.1578" lon="-3.59227">
        <ele>162.2</ele>
        <time>2022-12-08T12:49:15Z</time>
      </trkpt>
      <trkpt lat="48.15774" lon="-3.59234">
        <ele>162</ele>
        <time>2022-12-08T12:49:16Z</time>
      </trkpt>
      <trkpt lat="48.15767" lon="-3.5924">
        <ele>161.8</ele>
        <time>2022-12-08T12:49:17Z</time>
      </trkpt>
      <trkpt lat="48.15762" lon="-3.59246">
        <ele>161.7</ele>
        <time>2022-12-08T12:49:18Z</time>
      </trkpt>
      <trkpt lat="48.15756" lon="-3.59251">
        <ele>161.6</ele>
        <time>2022-12-08T12:49:19Z</time>
      </trkpt>
      <trkpt lat="48.15749" lon="-3.59257">
        <ele>161.4</ele>
        <time>2022-12-08T12:49:20Z</time>
      </trkpt>
      <trkpt lat="48.15743" lon="-3.59262">
        <ele>161.3</ele>
        <time>2022-12-08T12:49:21Z</time>
      </trkpt>
      <trkpt lat="48.15737" lon="-3.59267">
        <ele>161.1</ele>
        <time>2022-12-08T12:49:22Z</time>
      </trkpt>
      <trkpt lat="48.15731" lon="-3.59272">
        <ele>160.9</ele>
        <time>2022-12-08T12:49:23Z</time>
      </trkpt>
      <trkpt lat="48.15725" lon="-3.59278">
        <ele>160.7</ele>
        <time>2022-12-08T12:49:24Z</time>
      </trkpt>
      <trkpt lat="48.15719" lon="-3.59283">
        <ele>160.6</ele>
        <time>2022-12-08T12:49:25Z</time>
      </trkpt>
      <trkpt lat="48.15712" lon="-3.59287">
        <ele>160.4</ele>
        <time>2022-12-08T12:49:26Z</time>
      </trkpt>
      <trkpt lat="48.15706" lon="-3.59292">
        <ele>160.2</ele>
        <time>2022-12-08T12:49:27Z</time>
      </trkpt>
      <trkpt lat="48.157" lon="-3.59298">
        <ele>160</ele>
        <time>2022-12-08T12:49:28Z</time>
      </trkpt>
      <trkpt lat="48.15694" lon="-3.59304">
        <ele>159.9</ele>
        <time>2022-12-08T12:49:29Z</time>
      </trkpt>
      <trkpt lat="48.15688" lon="-3.59309">
        <ele>159.8</ele>
        <time>2022-12-08T12:49:30Z</time>
      </trkpt>
      <trkpt lat="48.15681" lon="-3.59315">
        <ele>159.6</ele>
        <time>2022-12-08T12:49:31Z</time>
      </trkpt>
      <trkpt lat="48.15675" lon="-3.5932">
        <ele>159.5</ele>
        <time>2022-12-08T12:49:32Z</time>
      </trkpt>
      <trkpt lat="48.15669" lon="-3.59325">
        <ele>159.3</ele>
        <time>2022-12-08T12:49:33Z</time>
      </trkpt>
      <trkpt lat="48.15663" lon="-3.5933">
        <ele>159.2</ele>
        <time>2022-12-08T12:49:34Z</time>
      </trkpt>
      <trkpt lat="48.15657" lon="-3.59335">
        <ele>159</ele>
        <time>2022-12-08T12:49:35Z</time>
      </trkpt>
      <trkpt lat="48.1565" lon="-3.59339">
        <ele>158.8</ele>
        <time>2022-12-08T12:49:36Z</time>
      </trkpt>
      <trkpt lat="48.15644" lon="-3.59344">
        <ele>158.7</ele>
        <time>2022-12-08T12:49:37Z</time>
      </trkpt>
      <trkpt lat="48.15637" lon="-3.59348">
        <ele>158.5</ele>
        <time>2022-12-08T12:49:38Z</time>
      </trkpt>
      <trkpt lat="48.15631" lon="-3.59353">
        <ele>158.3</ele>
        <time>2022-12-08T12:49:39Z</time>
      </trkpt>
      <trkpt lat="48.15625" lon="-3.59358">
        <ele>158.2</ele>
        <time>2022-12-08T12:49:40Z</time>
      </trkpt>
      <trkpt lat="48.1562" lon="-3.59363">
        <ele>158</ele>
        <time>2022-12-08T12:49:41Z</time>
      </trkpt>
      <trkpt lat="48.15614" lon="-3.59367">
        <ele>157.7</ele>
        <time>2022-12-08T12:49:42Z</time>
      </trkpt>
      <trkpt lat="48.15607" lon="-3.59371">
        <ele>157.5</ele>
        <time>2022-12-08T12:49:43Z</time>
      </trkpt>
      <trkpt lat="48.15601" lon="-3.59373">
        <ele>157.3</ele>
        <time>2022-12-08T12:49:44Z</time>
      </trkpt>
      <trkpt lat="48.15594" lon="-3.59375">
        <ele>157</ele>
        <time>2022-12-08T12:49:45Z</time>
      </trkpt>
      <trkpt lat="48.15587" lon="-3.59376">
        <ele>156.8</ele>
        <time>2022-12-08T12:49:46Z</time>
      </trkpt>
      <trkpt lat="48.1558" lon="-3.59377">
        <ele>156.5</ele>
        <time>2022-12-08T12:49:47Z</time>
      </trkpt>
      <trkpt lat="48.15573" lon="-3.59377">
        <ele>156.2</ele>
        <time>2022-12-08T12:49:48Z</time>
      </trkpt>
      <trkpt lat="48.15566" lon="-3.59378">
        <ele>155.9</ele>
        <time>2022-12-08T12:49:49Z</time>
      </trkpt>
      <trkpt lat="48.15559" lon="-3.59378">
        <ele>155.6</ele>
        <time>2022-12-08T12:49:50Z</time>
      </trkpt>
      <trkpt lat="48.15552" lon="-3.59377">
        <ele>155.2</ele>
        <time>2022-12-08T12:49:51Z</time>
      </trkpt>
      <trkpt lat="48.15546" lon="-3.59374">
        <ele>154.8</ele>
        <time>2022-12-08T12:49:52Z</time>
      </trkpt>
      <trkpt lat="48.15541" lon="-3.59369">
        <ele>154.4</ele>
        <time>2022-12-08T12:49:53Z</time>
      </trkpt>
      <trkpt lat="48.15539" lon="-3.59361">
        <ele>153.9</ele>
        <time>2022-12-08T12:49:54Z</time>
      </trkpt>
      <trkpt lat="48.15538" lon="-3.59353">
        <ele>153.5</ele>
        <time>2022-12-08T12:49:55Z</time>
      </trkpt>
      <trkpt lat="48.15539" lon="-3.59346">
        <ele>153.1</ele>
        <time>2022-12-08T12:49:56Z</time>
      </trkpt>
      <trkpt lat="48.1554" lon="-3.5934">
        <ele>152.8</ele>
        <time>2022-12-08T12:49:57Z</time>
      </trkpt>
      <trkpt lat="48.15539" lon="-3.59334">
        <ele>152.6</ele>
        <time>2022-12-08T12:49:58Z</time>
      </trkpt>
      <trkpt lat="48.15538" lon="-3.59332">
        <ele>152.6</ele>
        <time>2022-12-08T12:49:59Z</time>
      </trkpt>
      <trkpt lat="48.15537" lon="-3.59327">
        <ele>152.5</ele>
        <time>2022-12-08T12:50:00Z</time>
      </trkpt>
      <trkpt lat="48.15536" lon="-3.59322">
        <ele>152.5</ele>
        <time>2022-12-08T12:50:01Z</time>
      </trkpt>
      <trkpt lat="48.15535" lon="-3.5932">
        <ele>152.5</ele>
        <time>2022-12-08T12:50:04Z</time>
      </trkpt>
      <trkpt lat="48.15535" lon="-3.59318">
        <ele>152.4</ele>
        <time>2022-12-08T12:50:05Z</time>
      </trkpt>
      <trkpt lat="48.1553" lon="-3.59319">
        <ele>152.4</ele>
        <time>2022-12-08T12:50:06Z</time>
      </trkpt>
      <trkpt lat="48.15517" lon="-3.59317">
        <ele>152.3</ele>
        <time>2022-12-08T12:50:07Z</time>
      </trkpt>
      <trkpt lat="48.1551" lon="-3.59323">
        <ele>152.1</ele>
        <time>2022-12-08T12:50:08Z</time>
      </trkpt>
      <trkpt lat="48.15501" lon="-3.59328">
        <ele>151.9</ele>
        <time>2022-12-08T12:50:09Z</time>
      </trkpt>
      <trkpt lat="48.15494" lon="-3.59327">
        <ele>151.7</ele>
        <time>2022-12-08T12:50:10Z</time>
      </trkpt>
      <trkpt lat="48.1549" lon="-3.59323">
        <ele>151.5</ele>
        <time>2022-12-08T12:50:11Z</time>
      </trkpt>
      <trkpt lat="48.15487" lon="-3.59317">
        <ele>151.3</ele>
        <time>2022-12-08T12:50:12Z</time>
      </trkpt>
      <trkpt lat="48.15484" lon="-3.59311">
        <ele>151.1</ele>
        <time>2022-12-08T12:50:13Z</time>
      </trkpt>
      <trkpt lat="48.15483" lon="-3.59304">
        <ele>150.9</ele>
        <time>2022-12-08T12:50:14Z</time>
      </trkpt>
      <trkpt lat="48.15481" lon="-3.59296">
        <ele>150.7</ele>
        <time>2022-12-08T12:50:15Z</time>
      </trkpt>
      <trkpt lat="48.15481" lon="-3.59287">
        <ele>150.4</ele>
        <time>2022-12-08T12:50:16Z</time>
      </trkpt>
      <trkpt lat="48.15482" lon="-3.59279">
        <ele>150.2</ele>
        <time>2022-12-08T12:50:17Z</time>
      </trkpt>
      <trkpt lat="48.15482" lon="-3.59272">
        <ele>150</ele>
        <time>2022-12-08T12:50:18Z</time>
      </trkpt>
      <trkpt lat="48.15482" lon="-3.59266">
        <ele>149.8</ele>
        <time>2022-12-08T12:50:19Z</time>
      </trkpt>
      <trkpt lat="48.15478" lon="-3.59262">
        <ele>149.7</ele>
        <time>2022-12-08T12:50:21Z</time>
      </trkpt>
      <trkpt lat="48.15475" lon="-3.5926">
        <ele>149.6</ele>
        <time>2022-12-08T12:50:22Z</time>
      </trkpt>
      <trkpt lat="48.15467" lon="-3.59256">
        <ele>149.4</ele>
        <time>2022-12-08T12:50:24Z</time>
      </trkpt>
      <trkpt lat="48.15463" lon="-3.59253">
        <ele>149.3</ele>
        <time>2022-12-08T12:50:25Z</time>
      </trkpt>
      <trkpt lat="48.1546" lon="-3.59249">
        <ele>149.2</ele>
        <time>2022-12-08T12:50:26Z</time>
      </trkpt>
      <trkpt lat="48.15454" lon="-3.59256">
        <ele>149.2</ele>
        <time>2022-12-08T12:50:27Z</time>
      </trkpt>
      <trkpt lat="48.15449" lon="-3.59264">
        <ele>149.2</ele>
        <time>2022-12-08T12:50:28Z</time>
      </trkpt>
      <trkpt lat="48.15449" lon="-3.59271">
        <ele>149.2</ele>
        <time>2022-12-08T12:50:29Z</time>
      </trkpt>
      <trkpt lat="48.15449" lon="-3.59278">
        <ele>149.3</ele>
        <time>2022-12-08T12:50:30Z</time>
      </trkpt>
      <trkpt lat="48.1545" lon="-3.59286">
        <ele>149.4</ele>
        <time>2022-12-08T12:50:31Z</time>
      </trkpt>
      <trkpt lat="48.15451" lon="-3.59294">
        <ele>149.5</ele>
        <time>2022-12-08T12:50:32Z</time>
      </trkpt>
      <trkpt lat="48.15452" lon="-3.59301">
        <ele>149.7</ele>
        <time>2022-12-08T12:50:33Z</time>
      </trkpt>
      <trkpt lat="48.15452" lon="-3.59308">
        <ele>149.9</ele>
        <time>2022-12-08T12:50:34Z</time>
      </trkpt>
      <trkpt lat="48.15453" lon="-3.59315">
        <ele>150</ele>
        <time>2022-12-08T12:50:35Z</time>
      </trkpt>
      <trkpt lat="48.15454" lon="-3.59322">
        <ele>150.2</ele>
        <time>2022-12-08T12:50:36Z</time>
      </trkpt>
      <trkpt lat="48.15454" lon="-3.59329">
        <ele>150.4</ele>
        <time>2022-12-08T12:50:37Z</time>
      </trkpt>
      <trkpt lat="48.15455" lon="-3.59336">
        <ele>150.5</ele>
        <time>2022-12-08T12:50:38Z</time>
      </trkpt>
      <trkpt lat="48.15454" lon="-3.59343">
        <ele>150.7</ele>
        <time>2022-12-08T12:50:39Z</time>
      </trkpt>
      <trkpt lat="48.15453" lon="-3.5935">
        <ele>150.7</ele>
        <time>2022-12-08T12:50:40Z</time>
      </trkpt>
      <trkpt lat="48.15451" lon="-3.59356">
        <ele>150.8</ele>
        <time>2022-12-08T12:50:41Z</time>
      </trkpt>
      <trkpt lat="48.15447" lon="-3.59362">
        <ele>150.8</ele>
        <time>2022-12-08T12:50:42Z</time>
      </trkpt>
      <trkpt lat="48.15443" lon="-3.59366">
        <ele>150.8</ele>
        <time>2022-12-08T12:50:43Z</time>
      </trkpt>
      <trkpt lat="48.15438" lon="-3.59368">
        <ele>150.6</ele>
        <time>2022-12-08T12:50:44Z</time>
      </trkpt>
      <trkpt lat="48.15432" lon="-3.59369">
        <ele>150.5</ele>
        <time>2022-12-08T12:50:45Z</time>
      </trkpt>
      <trkpt lat="48.15427" lon="-3.59368">
        <ele>150.3</ele>
        <time>2022-12-08T12:50:46Z</time>
      </trkpt>
      <trkpt lat="48.15421" lon="-3.59366">
        <ele>150</ele>
        <time>2022-12-08T12:50:47Z</time>
      </trkpt>
      <trkpt lat="48.15415" lon="-3.59365">
        <ele>149.8</ele>
        <time>2022-12-08T12:50:48Z</time>
      </trkpt>
      <trkpt lat="48.15409" lon="-3.59363">
        <ele>149.5</ele>
        <time>2022-12-08T12:50:49Z</time>
      </trkpt>
      <trkpt lat="48.15403" lon="-3.59361">
        <ele>149.2</ele>
        <time>2022-12-08T12:50:50Z</time>
      </trkpt>
      <trkpt lat="48.15396" lon="-3.5936">
        <ele>148.9</ele>
        <time>2022-12-08T12:50:51Z</time>
      </trkpt>
      <trkpt lat="48.1539" lon="-3.59361">
        <ele>148.6</ele>
        <time>2022-12-08T12:50:52Z</time>
      </trkpt>
      <trkpt lat="48.15384" lon="-3.59364">
        <ele>148.2</ele>
        <time>2022-12-08T12:50:53Z</time>
      </trkpt>
      <trkpt lat="48.15377" lon="-3.59367">
        <ele>147.8</ele>
        <time>2022-12-08T12:50:54Z</time>
      </trkpt>
      <trkpt lat="48.1537" lon="-3.59369">
        <ele>147.4</ele>
        <time>2022-12-08T12:50:55Z</time>
      </trkpt>
      <trkpt lat="48.15363" lon="-3.59373">
        <ele>147</ele>
        <time>2022-12-08T12:50:56Z</time>
      </trkpt>
      <trkpt lat="48.15357" lon="-3.59378">
        <ele>146.7</ele>
        <time>2022-12-08T12:50:57Z</time>
      </trkpt>
      <trkpt lat="48.1535" lon="-3.59383">
        <ele>146.4</ele>
        <time>2022-12-08T12:50:58Z</time>
      </trkpt>
      <trkpt lat="48.15343" lon="-3.59389">
        <ele>146.1</ele>
        <time>2022-12-08T12:50:59Z</time>
      </trkpt>
      <trkpt lat="48.15337" lon="-3.59395">
        <ele>145.9</ele>
        <time>2022-12-08T12:51:00Z</time>
      </trkpt>
      <trkpt lat="48.15331" lon="-3.59402">
        <ele>145.7</ele>
        <time>2022-12-08T12:51:01Z</time>
      </trkpt>
      <trkpt lat="48.15325" lon="-3.59409">
        <ele>145.5</ele>
        <time>2022-12-08T12:51:02Z</time>
      </trkpt>
      <trkpt lat="48.1532" lon="-3.59417">
        <ele>145.3</ele>
        <time>2022-12-08T12:51:03Z</time>
      </trkpt>
      <trkpt lat="48.15315" lon="-3.59426">
        <ele>145.2</ele>
        <time>2022-12-08T12:51:04Z</time>
      </trkpt>
      <trkpt lat="48.15311" lon="-3.59434">
        <ele>145</ele>
        <time>2022-12-08T12:51:05Z</time>
      </trkpt>
      <trkpt lat="48.15307" lon="-3.59443">
        <ele>144.9</ele>
        <time>2022-12-08T12:51:06Z</time>
      </trkpt>
      <trkpt lat="48.15303" lon="-3.59452">
        <ele>144.8</ele>
        <time>2022-12-08T12:51:07Z</time>
      </trkpt>
      <trkpt lat="48.15299" lon="-3.5946">
        <ele>144.7</ele>
        <time>2022-12-08T12:51:08Z</time>
      </trkpt>
      <trkpt lat="48.15296" lon="-3.59469">
        <ele>144.7</ele>
        <time>2022-12-08T12:51:09Z</time>
      </trkpt>
      <trkpt lat="48.15292" lon="-3.59479">
        <ele>144.6</ele>
        <time>2022-12-08T12:51:10Z</time>
      </trkpt>
      <trkpt lat="48.15289" lon="-3.59488">
        <ele>144.6</ele>
        <time>2022-12-08T12:51:11Z</time>
      </trkpt>
      <trkpt lat="48.15286" lon="-3.59498">
        <ele>144.6</ele>
        <time>2022-12-08T12:51:12Z</time>
      </trkpt>
      <trkpt lat="48.15283" lon="-3.59507">
        <ele>144.7</ele>
        <time>2022-12-08T12:51:13Z</time>
      </trkpt>
      <trkpt lat="48.1528" lon="-3.59516">
        <ele>144.9</ele>
        <time>2022-12-08T12:51:14Z</time>
      </trkpt>
      <trkpt lat="48.15276" lon="-3.59524">
        <ele>145</ele>
        <time>2022-12-08T12:51:15Z</time>
      </trkpt>
      <trkpt lat="48.15272" lon="-3.59532">
        <ele>145.2</ele>
        <time>2022-12-08T12:51:16Z</time>
      </trkpt>
      <trkpt lat="48.15269" lon="-3.5954">
        <ele>145.2</ele>
        <time>2022-12-08T12:51:17Z</time>
      </trkpt>
      <trkpt lat="48.15267" lon="-3.59547">
        <ele>145.3</ele>
        <time>2022-12-08T12:51:18Z</time>
      </trkpt>
      <trkpt lat="48.15265" lon="-3.59555">
        <ele>145.2</ele>
        <time>2022-12-08T12:51:19Z</time>
      </trkpt>
      <trkpt lat="48.15263" lon="-3.59564">
        <ele>145.2</ele>
        <time>2022-12-08T12:51:20Z</time>
      </trkpt>
      <trkpt lat="48.15261" lon="-3.59572">
        <ele>145.1</ele>
        <time>2022-12-08T12:51:21Z</time>
      </trkpt>
      <trkpt lat="48.15258" lon="-3.5958">
        <ele>145</ele>
        <time>2022-12-08T12:51:22Z</time>
      </trkpt>
      <trkpt lat="48.15255" lon="-3.59588">
        <ele>144.9</ele>
        <time>2022-12-08T12:51:23Z</time>
      </trkpt>
      <trkpt lat="48.15252" lon="-3.59597">
        <ele>144.8</ele>
        <time>2022-12-08T12:51:24Z</time>
      </trkpt>
      <trkpt lat="48.15248" lon="-3.59605">
        <ele>144.7</ele>
        <time>2022-12-08T12:51:25Z</time>
      </trkpt>
      <trkpt lat="48.15245" lon="-3.59613">
        <ele>144.6</ele>
        <time>2022-12-08T12:51:26Z</time>
      </trkpt>
      <trkpt lat="48.15242" lon="-3.59622">
        <ele>144.5</ele>
        <time>2022-12-08T12:51:27Z</time>
      </trkpt>
      <trkpt lat="48.15238" lon="-3.59631">
        <ele>144.4</ele>
        <time>2022-12-08T12:51:28Z</time>
      </trkpt>
      <trkpt lat="48.15235" lon="-3.5964">
        <ele>144.4</ele>
        <time>2022-12-08T12:51:29Z</time>
      </trkpt>
      <trkpt lat="48.15232" lon="-3.59649">
        <ele>144.3</ele>
        <time>2022-12-08T12:51:30Z</time>
      </trkpt>
      <trkpt lat="48.15229" lon="-3.59658">
        <ele>144.3</ele>
        <time>2022-12-08T12:51:31Z</time>
      </trkpt>
      <trkpt lat="48.15225" lon="-3.59667">
        <ele>144.3</ele>
        <time>2022-12-08T12:51:32Z</time>
      </trkpt>
      <trkpt lat="48.15222" lon="-3.59675">
        <ele>144.3</ele>
        <time>2022-12-08T12:51:33Z</time>
      </trkpt>
      <trkpt lat="48.15219" lon="-3.59685">
        <ele>144.3</ele>
        <time>2022-12-08T12:51:34Z</time>
      </trkpt>
      <trkpt lat="48.15216" lon="-3.59693">
        <ele>144.3</ele>
        <time>2022-12-08T12:51:35Z</time>
      </trkpt>
      <trkpt lat="48.15212" lon="-3.59702">
        <ele>144.3</ele>
        <time>2022-12-08T12:51:36Z</time>
      </trkpt>
      <trkpt lat="48.15209" lon="-3.5971">
        <ele>144.4</ele>
        <time>2022-12-08T12:51:37Z</time>
      </trkpt>
      <trkpt lat="48.15206" lon="-3.59718">
        <ele>144.4</ele>
        <time>2022-12-08T12:51:38Z</time>
      </trkpt>
      <trkpt lat="48.15203" lon="-3.59727">
        <ele>144.5</ele>
        <time>2022-12-08T12:51:39Z</time>
      </trkpt>
      <trkpt lat="48.152" lon="-3.59735">
        <ele>144.5</ele>
        <time>2022-12-08T12:51:40Z</time>
      </trkpt>
      <trkpt lat="48.15197" lon="-3.59743">
        <ele>144.5</ele>
        <time>2022-12-08T12:51:41Z</time>
      </trkpt>
      <trkpt lat="48.15194" lon="-3.59752">
        <ele>144.5</ele>
        <time>2022-12-08T12:51:42Z</time>
      </trkpt>
      <trkpt lat="48.15191" lon="-3.59761">
        <ele>144.5</ele>
        <time>2022-12-08T12:51:43Z</time>
      </trkpt>
      <trkpt lat="48.15188" lon="-3.59769">
        <ele>144.5</ele>
        <time>2022-12-08T12:51:44Z</time>
      </trkpt>
      <trkpt lat="48.15185" lon="-3.59778">
        <ele>144.5</ele>
        <time>2022-12-08T12:51:45Z</time>
      </trkpt>
      <trkpt lat="48.15182" lon="-3.59786">
        <ele>144.5</ele>
        <time>2022-12-08T12:51:46Z</time>
      </trkpt>
      <trkpt lat="48.15179" lon="-3.59795">
        <ele>144.5</ele>
        <time>2022-12-08T12:51:47Z</time>
      </trkpt>
      <trkpt lat="48.15176" lon="-3.59803">
        <ele>144.5</ele>
        <time>2022-12-08T12:51:48Z</time>
      </trkpt>
      <trkpt lat="48.15173" lon="-3.59812">
        <ele>144.4</ele>
        <time>2022-12-08T12:51:49Z</time>
      </trkpt>
      <trkpt lat="48.15169" lon="-3.59819">
        <ele>144.4</ele>
        <time>2022-12-08T12:51:50Z</time>
      </trkpt>
      <trkpt lat="48.15166" lon="-3.59827">
        <ele>144.3</ele>
        <time>2022-12-08T12:51:51Z</time>
      </trkpt>
      <trkpt lat="48.15163" lon="-3.59834">
        <ele>144.3</ele>
        <time>2022-12-08T12:51:52Z</time>
      </trkpt>
      <trkpt lat="48.15159" lon="-3.59842">
        <ele>144.2</ele>
        <time>2022-12-08T12:51:53Z</time>
      </trkpt>
      <trkpt lat="48.15156" lon="-3.5985">
        <ele>144.2</ele>
        <time>2022-12-08T12:51:54Z</time>
      </trkpt>
      <trkpt lat="48.15153" lon="-3.59858">
        <ele>144.1</ele>
        <time>2022-12-08T12:51:55Z</time>
      </trkpt>
      <trkpt lat="48.15149" lon="-3.59866">
        <ele>144.1</ele>
        <time>2022-12-08T12:51:56Z</time>
      </trkpt>
      <trkpt lat="48.15146" lon="-3.59874">
        <ele>144.1</ele>
        <time>2022-12-08T12:51:57Z</time>
      </trkpt>
      <trkpt lat="48.15142" lon="-3.59882">
        <ele>144</ele>
        <time>2022-12-08T12:51:58Z</time>
      </trkpt>
      <trkpt lat="48.15138" lon="-3.5989">
        <ele>144</ele>
        <time>2022-12-08T12:51:59Z</time>
      </trkpt>
      <trkpt lat="48.15134" lon="-3.59898">
        <ele>144</ele>
        <time>2022-12-08T12:52:00Z</time>
      </trkpt>
      <trkpt lat="48.1513" lon="-3.59905">
        <ele>144</ele>
        <time>2022-12-08T12:52:01Z</time>
      </trkpt>
      <trkpt lat="48.15127" lon="-3.59913">
        <ele>143.9</ele>
        <time>2022-12-08T12:52:02Z</time>
      </trkpt>
      <trkpt lat="48.15123" lon="-3.59921">
        <ele>143.9</ele>
        <time>2022-12-08T12:52:03Z</time>
      </trkpt>
      <trkpt lat="48.1512" lon="-3.59927">
        <ele>143.9</ele>
        <time>2022-12-08T12:52:04Z</time>
      </trkpt>
      <trkpt lat="48.15116" lon="-3.59934">
        <ele>143.8</ele>
        <time>2022-12-08T12:52:05Z</time>
      </trkpt>
      <trkpt lat="48.15112" lon="-3.59942">
        <ele>143.7</ele>
        <time>2022-12-08T12:52:06Z</time>
      </trkpt>
      <trkpt lat="48.15106" lon="-3.59949">
        <ele>143.6</ele>
        <time>2022-12-08T12:52:07Z</time>
      </trkpt>
      <trkpt lat="48.15101" lon="-3.59957">
        <ele>143.4</ele>
        <time>2022-12-08T12:52:08Z</time>
      </trkpt>
      <trkpt lat="48.15096" lon="-3.59965">
        <ele>143.3</ele>
        <time>2022-12-08T12:52:09Z</time>
      </trkpt>
      <trkpt lat="48.15091" lon="-3.59972">
        <ele>143.1</ele>
        <time>2022-12-08T12:52:10Z</time>
      </trkpt>
      <trkpt lat="48.15086" lon="-3.5998">
        <ele>143</ele>
        <time>2022-12-08T12:52:11Z</time>
      </trkpt>
      <trkpt lat="48.15081" lon="-3.59988">
        <ele>142.8</ele>
        <time>2022-12-08T12:52:12Z</time>
      </trkpt>
      <trkpt lat="48.15075" lon="-3.59995">
        <ele>142.6</ele>
        <time>2022-12-08T12:52:13Z</time>
      </trkpt>
      <trkpt lat="48.1507" lon="-3.60002">
        <ele>142.5</ele>
        <time>2022-12-08T12:52:14Z</time>
      </trkpt>
      <trkpt lat="48.15065" lon="-3.6001">
        <ele>142.4</ele>
        <time>2022-12-08T12:52:15Z</time>
      </trkpt>
      <trkpt lat="48.1506" lon="-3.60017">
        <ele>142.3</ele>
        <time>2022-12-08T12:52:16Z</time>
      </trkpt>
      <trkpt lat="48.15055" lon="-3.60023">
        <ele>142.2</ele>
        <time>2022-12-08T12:52:17Z</time>
      </trkpt>
      <trkpt lat="48.1505" lon="-3.60029">
        <ele>142.2</ele>
        <time>2022-12-08T12:52:18Z</time>
      </trkpt>
      <trkpt lat="48.15046" lon="-3.60034">
        <ele>142.1</ele>
        <time>2022-12-08T12:52:19Z</time>
      </trkpt>
      <trkpt lat="48.15042" lon="-3.60039">
        <ele>142</ele>
        <time>2022-12-08T12:52:20Z</time>
      </trkpt>
      <trkpt lat="48.1504" lon="-3.60044">
        <ele>141.9</ele>
        <time>2022-12-08T12:52:21Z</time>
      </trkpt>
      <trkpt lat="48.15037" lon="-3.60049">
        <ele>141.8</ele>
        <time>2022-12-08T12:52:22Z</time>
      </trkpt>
      <trkpt lat="48.15033" lon="-3.60054">
        <ele>141.7</ele>
        <time>2022-12-08T12:52:23Z</time>
      </trkpt>
      <trkpt lat="48.1503" lon="-3.60059">
        <ele>141.6</ele>
        <time>2022-12-08T12:52:24Z</time>
      </trkpt>
      <trkpt lat="48.15026" lon="-3.60065">
        <ele>141.5</ele>
        <time>2022-12-08T12:52:25Z</time>
      </trkpt>
      <trkpt lat="48.15023" lon="-3.60072">
        <ele>141.4</ele>
        <time>2022-12-08T12:52:26Z</time>
      </trkpt>
      <trkpt lat="48.1502" lon="-3.60078">
        <ele>141.3</ele>
        <time>2022-12-08T12:52:27Z</time>
      </trkpt>
      <trkpt lat="48.15017" lon="-3.60082">
        <ele>141.2</ele>
        <time>2022-12-08T12:52:28Z</time>
      </trkpt>
      <trkpt lat="48.15014" lon="-3.60085">
        <ele>141.1</ele>
        <time>2022-12-08T12:52:29Z</time>
      </trkpt>
      <trkpt lat="48.15011" lon="-3.60089">
        <ele>141</ele>
        <time>2022-12-08T12:52:30Z</time>
      </trkpt>
      <trkpt lat="48.15006" lon="-3.60096">
        <ele>140.7</ele>
        <time>2022-12-08T12:52:31Z</time>
      </trkpt>
      <trkpt lat="48.15001" lon="-3.60102">
        <ele>140.5</ele>
        <time>2022-12-08T12:52:32Z</time>
      </trkpt>
      <trkpt lat="48.14996" lon="-3.60109">
        <ele>140.3</ele>
        <time>2022-12-08T12:52:33Z</time>
      </trkpt>
      <trkpt lat="48.14992" lon="-3.60115">
        <ele>140.2</ele>
        <time>2022-12-08T12:52:34Z</time>
      </trkpt>
      <trkpt lat="48.14988" lon="-3.60121">
        <ele>140</ele>
        <time>2022-12-08T12:52:35Z</time>
      </trkpt>
      <trkpt lat="48.14984" lon="-3.60127">
        <ele>139.8</ele>
        <time>2022-12-08T12:52:36Z</time>
      </trkpt>
      <trkpt lat="48.14979" lon="-3.60134">
        <ele>139.7</ele>
        <time>2022-12-08T12:52:37Z</time>
      </trkpt>
      <trkpt lat="48.14975" lon="-3.60141">
        <ele>139.5</ele>
        <time>2022-12-08T12:52:38Z</time>
      </trkpt>
      <trkpt lat="48.1497" lon="-3.60148">
        <ele>139.4</ele>
        <time>2022-12-08T12:52:39Z</time>
      </trkpt>
      <trkpt lat="48.14966" lon="-3.60154">
        <ele>139.3</ele>
        <time>2022-12-08T12:52:40Z</time>
      </trkpt>
      <trkpt lat="48.14961" lon="-3.60161">
        <ele>139.2</ele>
        <time>2022-12-08T12:52:41Z</time>
      </trkpt>
      <trkpt lat="48.14956" lon="-3.60168">
        <ele>139.1</ele>
        <time>2022-12-08T12:52:42Z</time>
      </trkpt>
      <trkpt lat="48.14952" lon="-3.60176">
        <ele>138.9</ele>
        <time>2022-12-08T12:52:43Z</time>
      </trkpt>
      <trkpt lat="48.14946" lon="-3.60183">
        <ele>138.8</ele>
        <time>2022-12-08T12:52:44Z</time>
      </trkpt>
      <trkpt lat="48.14941" lon="-3.6019">
        <ele>138.7</ele>
        <time>2022-12-08T12:52:45Z</time>
      </trkpt>
      <trkpt lat="48.14936" lon="-3.60195">
        <ele>138.5</ele>
        <time>2022-12-08T12:52:46Z</time>
      </trkpt>
      <trkpt lat="48.1493" lon="-3.60202">
        <ele>138.4</ele>
        <time>2022-12-08T12:52:47Z</time>
      </trkpt>
      <trkpt lat="48.14925" lon="-3.60208">
        <ele>138.3</ele>
        <time>2022-12-08T12:52:48Z</time>
      </trkpt>
      <trkpt lat="48.14919" lon="-3.60215">
        <ele>138.1</ele>
        <time>2022-12-08T12:52:49Z</time>
      </trkpt>
      <trkpt lat="48.14913" lon="-3.6022">
        <ele>138</ele>
        <time>2022-12-08T12:52:50Z</time>
      </trkpt>
      <trkpt lat="48.14907" lon="-3.60226">
        <ele>137.8</ele>
        <time>2022-12-08T12:52:51Z</time>
      </trkpt>
      <trkpt lat="48.14901" lon="-3.60231">
        <ele>137.7</ele>
        <time>2022-12-08T12:52:52Z</time>
      </trkpt>
      <trkpt lat="48.14895" lon="-3.60236">
        <ele>137.5</ele>
        <time>2022-12-08T12:52:53Z</time>
      </trkpt>
      <trkpt lat="48.14889" lon="-3.60241">
        <ele>137.4</ele>
        <time>2022-12-08T12:52:54Z</time>
      </trkpt>
      <trkpt lat="48.14883" lon="-3.60246">
        <ele>137.3</ele>
        <time>2022-12-08T12:52:55Z</time>
      </trkpt>
      <trkpt lat="48.14876" lon="-3.6025">
        <ele>137.1</ele>
        <time>2022-12-08T12:52:56Z</time>
      </trkpt>
      <trkpt lat="48.1487" lon="-3.60252">
        <ele>137</ele>
        <time>2022-12-08T12:52:57Z</time>
      </trkpt>
      <trkpt lat="48.14863" lon="-3.60255">
        <ele>136.9</ele>
        <time>2022-12-08T12:52:58Z</time>
      </trkpt>
      <trkpt lat="48.14857" lon="-3.60259">
        <ele>136.8</ele>
        <time>2022-12-08T12:52:59Z</time>
      </trkpt>
      <trkpt lat="48.14851" lon="-3.60261">
        <ele>136.8</ele>
        <time>2022-12-08T12:53:00Z</time>
      </trkpt>
      <trkpt lat="48.14843" lon="-3.60264">
        <ele>136.7</ele>
        <time>2022-12-08T12:53:01Z</time>
      </trkpt>
      <trkpt lat="48.14837" lon="-3.60266">
        <ele>136.7</ele>
        <time>2022-12-08T12:53:02Z</time>
      </trkpt>
      <trkpt lat="48.14831" lon="-3.60268">
        <ele>136.7</ele>
        <time>2022-12-08T12:53:03Z</time>
      </trkpt>
      <trkpt lat="48.14825" lon="-3.60271">
        <ele>136.7</ele>
        <time>2022-12-08T12:53:04Z</time>
      </trkpt>
      <trkpt lat="48.14818" lon="-3.60273">
        <ele>136.8</ele>
        <time>2022-12-08T12:53:05Z</time>
      </trkpt>
      <trkpt lat="48.14812" lon="-3.60275">
        <ele>136.9</ele>
        <time>2022-12-08T12:53:06Z</time>
      </trkpt>
      <trkpt lat="48.14806" lon="-3.60276">
        <ele>136.9</ele>
        <time>2022-12-08T12:53:07Z</time>
      </trkpt>
      <trkpt lat="48.14802" lon="-3.60276">
        <ele>137</ele>
        <time>2022-12-08T12:53:08Z</time>
      </trkpt>
      <trkpt lat="48.14796" lon="-3.60277">
        <ele>137.1</ele>
        <time>2022-12-08T12:53:09Z</time>
      </trkpt>
      <trkpt lat="48.14791" lon="-3.60277">
        <ele>137.2</ele>
        <time>2022-12-08T12:53:10Z</time>
      </trkpt>
      <trkpt lat="48.14785" lon="-3.60278">
        <ele>137.3</ele>
        <time>2022-12-08T12:53:11Z</time>
      </trkpt>
      <trkpt lat="48.14779" lon="-3.60278">
        <ele>137.4</ele>
        <time>2022-12-08T12:53:12Z</time>
      </trkpt>
      <trkpt lat="48.14774" lon="-3.60279">
        <ele>137.5</ele>
        <time>2022-12-08T12:53:13Z</time>
      </trkpt>
      <trkpt lat="48.14768" lon="-3.60276">
        <ele>137.6</ele>
        <time>2022-12-08T12:53:14Z</time>
      </trkpt>
      <trkpt lat="48.14763" lon="-3.60275">
        <ele>137.7</ele>
        <time>2022-12-08T12:53:15Z</time>
      </trkpt>
      <trkpt lat="48.14758" lon="-3.60275">
        <ele>137.8</ele>
        <time>2022-12-08T12:53:16Z</time>
      </trkpt>
      <trkpt lat="48.14752" lon="-3.60273">
        <ele>137.9</ele>
        <time>2022-12-08T12:53:17Z</time>
      </trkpt>
      <trkpt lat="48.14746" lon="-3.60271">
        <ele>138</ele>
        <time>2022-12-08T12:53:18Z</time>
      </trkpt>
      <trkpt lat="48.14742" lon="-3.6027">
        <ele>138</ele>
        <time>2022-12-08T12:53:19Z</time>
      </trkpt>
      <trkpt lat="48.14739" lon="-3.60269">
        <ele>138.1</ele>
        <time>2022-12-08T12:53:20Z</time>
      </trkpt>
      <trkpt lat="48.14733" lon="-3.6027">
        <ele>138.2</ele>
        <time>2022-12-08T12:53:21Z</time>
      </trkpt>
      <trkpt lat="48.14728" lon="-3.60269">
        <ele>138.2</ele>
        <time>2022-12-08T12:53:22Z</time>
      </trkpt>
      <trkpt lat="48.14724" lon="-3.60268">
        <ele>138.3</ele>
        <time>2022-12-08T12:53:23Z</time>
      </trkpt>
      <trkpt lat="48.14717" lon="-3.60268">
        <ele>138.4</ele>
        <time>2022-12-08T12:53:24Z</time>
      </trkpt>
      <trkpt lat="48.14712" lon="-3.60267">
        <ele>138.6</ele>
        <time>2022-12-08T12:53:25Z</time>
      </trkpt>
      <trkpt lat="48.14707" lon="-3.60268">
        <ele>138.7</ele>
        <time>2022-12-08T12:53:26Z</time>
      </trkpt>
      <trkpt lat="48.14701" lon="-3.60268">
        <ele>138.8</ele>
        <time>2022-12-08T12:53:27Z</time>
      </trkpt>
      <trkpt lat="48.14696" lon="-3.60268">
        <ele>138.8</ele>
        <time>2022-12-08T12:53:28Z</time>
      </trkpt>
      <trkpt lat="48.14691" lon="-3.60269">
        <ele>138.9</ele>
        <time>2022-12-08T12:53:29Z</time>
      </trkpt>
      <trkpt lat="48.14687" lon="-3.60268">
        <ele>139</ele>
        <time>2022-12-08T12:53:30Z</time>
      </trkpt>
      <trkpt lat="48.14681" lon="-3.60266">
        <ele>139</ele>
        <time>2022-12-08T12:53:31Z</time>
      </trkpt>
      <trkpt lat="48.14675" lon="-3.60264">
        <ele>139.1</ele>
        <time>2022-12-08T12:53:32Z</time>
      </trkpt>
      <trkpt lat="48.1467" lon="-3.60265">
        <ele>139.2</ele>
        <time>2022-12-08T12:53:33Z</time>
      </trkpt>
      <trkpt lat="48.14665" lon="-3.60265">
        <ele>139.3</ele>
        <time>2022-12-08T12:53:34Z</time>
      </trkpt>
      <trkpt lat="48.1466" lon="-3.60267">
        <ele>139.5</ele>
        <time>2022-12-08T12:53:36Z</time>
      </trkpt>
      <trkpt lat="48.14649" lon="-3.60265">
        <ele>139.7</ele>
        <time>2022-12-08T12:53:37Z</time>
      </trkpt>
      <trkpt lat="48.14645" lon="-3.60266">
        <ele>139.8</ele>
        <time>2022-12-08T12:53:38Z</time>
      </trkpt>
      <trkpt lat="48.14639" lon="-3.60263">
        <ele>139.9</ele>
        <time>2022-12-08T12:53:40Z</time>
      </trkpt>
      <trkpt lat="48.14635" lon="-3.60261">
        <ele>140</ele>
        <time>2022-12-08T12:53:41Z</time>
      </trkpt>
      <trkpt lat="48.1463" lon="-3.6026">
        <ele>140</ele>
        <time>2022-12-08T12:53:42Z</time>
      </trkpt>
      <trkpt lat="48.14628" lon="-3.6026">
        <ele>140</ele>
        <time>2022-12-08T12:53:43Z</time>
      </trkpt>
      <trkpt lat="48.14624" lon="-3.6026">
        <ele>140</ele>
        <time>2022-12-08T12:53:44Z</time>
      </trkpt>
      <trkpt lat="48.1462" lon="-3.60259">
        <ele>140</ele>
        <time>2022-12-08T12:53:45Z</time>
      </trkpt>
      <trkpt lat="48.14612" lon="-3.60258">
        <ele>140.1</ele>
        <time>2022-12-08T12:53:47Z</time>
      </trkpt>
      <trkpt lat="48.14608" lon="-3.60257">
        <ele>140.1</ele>
        <time>2022-12-08T12:53:48Z</time>
      </trkpt>
      <trkpt lat="48.14601" lon="-3.60256">
        <ele>140.1</ele>
        <time>2022-12-08T12:53:50Z</time>
      </trkpt>
      <trkpt lat="48.14592" lon="-3.60258">
        <ele>140.1</ele>
        <time>2022-12-08T12:53:51Z</time>
      </trkpt>
      <trkpt lat="48.14588" lon="-3.60257">
        <ele>140.1</ele>
        <time>2022-12-08T12:53:52Z</time>
      </trkpt>
      <trkpt lat="48.14583" lon="-3.60256">
        <ele>140</ele>
        <time>2022-12-08T12:53:53Z</time>
      </trkpt>
      <trkpt lat="48.14578" lon="-3.60256">
        <ele>140</ele>
        <time>2022-12-08T12:53:54Z</time>
      </trkpt>
      <trkpt lat="48.14573" lon="-3.60256">
        <ele>140</ele>
        <time>2022-12-08T12:53:55Z</time>
      </trkpt>
      <trkpt lat="48.14569" lon="-3.60255">
        <ele>140</ele>
        <time>2022-12-08T12:53:56Z</time>
      </trkpt>
      <trkpt lat="48.14564" lon="-3.60255">
        <ele>140</ele>
        <time>2022-12-08T12:53:57Z</time>
      </trkpt>
      <trkpt lat="48.1456" lon="-3.60255">
        <ele>140</ele>
        <time>2022-12-08T12:53:58Z</time>
      </trkpt>
      <trkpt lat="48.14555" lon="-3.60255">
        <ele>140</ele>
        <time>2022-12-08T12:53:59Z</time>
      </trkpt>
      <trkpt lat="48.1455" lon="-3.60255">
        <ele>140.1</ele>
        <time>2022-12-08T12:54:00Z</time>
      </trkpt>
      <trkpt lat="48.14546" lon="-3.60254">
        <ele>140.1</ele>
        <time>2022-12-08T12:54:01Z</time>
      </trkpt>
      <trkpt lat="48.14541" lon="-3.60254">
        <ele>140.1</ele>
        <time>2022-12-08T12:54:02Z</time>
      </trkpt>
      <trkpt lat="48.14537" lon="-3.60253">
        <ele>140.2</ele>
        <time>2022-12-08T12:54:03Z</time>
      </trkpt>
      <trkpt lat="48.14532" lon="-3.60252">
        <ele>140.2</ele>
        <time>2022-12-08T12:54:04Z</time>
      </trkpt>
      <trkpt lat="48.14527" lon="-3.60251">
        <ele>140.3</ele>
        <time>2022-12-08T12:54:05Z</time>
      </trkpt>
      <trkpt lat="48.14523" lon="-3.60252">
        <ele>140.3</ele>
        <time>2022-12-08T12:54:06Z</time>
      </trkpt>
      <trkpt lat="48.14518" lon="-3.60252">
        <ele>140.4</ele>
        <time>2022-12-08T12:54:07Z</time>
      </trkpt>
      <trkpt lat="48.14513" lon="-3.60252">
        <ele>140.5</ele>
        <time>2022-12-08T12:54:08Z</time>
      </trkpt>
      <trkpt lat="48.14508" lon="-3.60251">
        <ele>140.5</ele>
        <time>2022-12-08T12:54:09Z</time>
      </trkpt>
      <trkpt lat="48.14503" lon="-3.60251">
        <ele>140.6</ele>
        <time>2022-12-08T12:54:10Z</time>
      </trkpt>
      <trkpt lat="48.14499" lon="-3.6025">
        <ele>140.7</ele>
        <time>2022-12-08T12:54:11Z</time>
      </trkpt>
      <trkpt lat="48.14493" lon="-3.60249">
        <ele>140.8</ele>
        <time>2022-12-08T12:54:12Z</time>
      </trkpt>
      <trkpt lat="48.14489" lon="-3.60248">
        <ele>140.8</ele>
        <time>2022-12-08T12:54:13Z</time>
      </trkpt>
      <trkpt lat="48.14483" lon="-3.60247">
        <ele>140.9</ele>
        <time>2022-12-08T12:54:14Z</time>
      </trkpt>
      <trkpt lat="48.14479" lon="-3.60247">
        <ele>141</ele>
        <time>2022-12-08T12:54:15Z</time>
      </trkpt>
      <trkpt lat="48.14474" lon="-3.60247">
        <ele>141</ele>
        <time>2022-12-08T12:54:16Z</time>
      </trkpt>
      <trkpt lat="48.14469" lon="-3.60246">
        <ele>141.1</ele>
        <time>2022-12-08T12:54:17Z</time>
      </trkpt>
      <trkpt lat="48.14464" lon="-3.60246">
        <ele>141.2</ele>
        <time>2022-12-08T12:54:18Z</time>
      </trkpt>
      <trkpt lat="48.1446" lon="-3.60246">
        <ele>141.2</ele>
        <time>2022-12-08T12:54:19Z</time>
      </trkpt>
      <trkpt lat="48.14455" lon="-3.60246">
        <ele>141.3</ele>
        <time>2022-12-08T12:54:20Z</time>
      </trkpt>
      <trkpt lat="48.1445" lon="-3.60245">
        <ele>141.4</ele>
        <time>2022-12-08T12:54:21Z</time>
      </trkpt>
      <trkpt lat="48.14445" lon="-3.60245">
        <ele>141.4</ele>
        <time>2022-12-08T12:54:22Z</time>
      </trkpt>
      <trkpt lat="48.1444" lon="-3.60245">
        <ele>141.5</ele>
        <time>2022-12-08T12:54:23Z</time>
      </trkpt>
      <trkpt lat="48.14435" lon="-3.60244">
        <ele>141.6</ele>
        <time>2022-12-08T12:54:24Z</time>
      </trkpt>
      <trkpt lat="48.1443" lon="-3.60244">
        <ele>141.7</ele>
        <time>2022-12-08T12:54:25Z</time>
      </trkpt>
      <trkpt lat="48.14425" lon="-3.60244">
        <ele>141.8</ele>
        <time>2022-12-08T12:54:26Z</time>
      </trkpt>
      <trkpt lat="48.1442" lon="-3.60243">
        <ele>141.9</ele>
        <time>2022-12-08T12:54:27Z</time>
      </trkpt>
      <trkpt lat="48.14415" lon="-3.60243">
        <ele>141.9</ele>
        <time>2022-12-08T12:54:28Z</time>
      </trkpt>
      <trkpt lat="48.1441" lon="-3.60242">
        <ele>142</ele>
        <time>2022-12-08T12:54:29Z</time>
      </trkpt>
      <trkpt lat="48.14406" lon="-3.6024">
        <ele>142.1</ele>
        <time>2022-12-08T12:54:30Z</time>
      </trkpt>
      <trkpt lat="48.14401" lon="-3.60237">
        <ele>142.1</ele>
        <time>2022-12-08T12:54:31Z</time>
      </trkpt>
      <trkpt lat="48.14396" lon="-3.60236">
        <ele>142.2</ele>
        <time>2022-12-08T12:54:32Z</time>
      </trkpt>
      <trkpt lat="48.14391" lon="-3.60235">
        <ele>142.2</ele>
        <time>2022-12-08T12:54:33Z</time>
      </trkpt>
      <trkpt lat="48.14387" lon="-3.60234">
        <ele>142.2</ele>
        <time>2022-12-08T12:54:34Z</time>
      </trkpt>
      <trkpt lat="48.14381" lon="-3.60232">
        <ele>142.3</ele>
        <time>2022-12-08T12:54:35Z</time>
      </trkpt>
      <trkpt lat="48.14376" lon="-3.60231">
        <ele>142.3</ele>
        <time>2022-12-08T12:54:36Z</time>
      </trkpt>
      <trkpt lat="48.14371" lon="-3.6023">
        <ele>142.3</ele>
        <time>2022-12-08T12:54:37Z</time>
      </trkpt>
      <trkpt lat="48.14365" lon="-3.60229">
        <ele>142.2</ele>
        <time>2022-12-08T12:54:38Z</time>
      </trkpt>
      <trkpt lat="48.1436" lon="-3.60228">
        <ele>142.2</ele>
        <time>2022-12-08T12:54:39Z</time>
      </trkpt>
      <trkpt lat="48.14355" lon="-3.60226">
        <ele>142.2</ele>
        <time>2022-12-08T12:54:40Z</time>
      </trkpt>
      <trkpt lat="48.14349" lon="-3.60224">
        <ele>142.2</ele>
        <time>2022-12-08T12:54:41Z</time>
      </trkpt>
      <trkpt lat="48.14344" lon="-3.60223">
        <ele>142.2</ele>
        <time>2022-12-08T12:54:42Z</time>
      </trkpt>
      <trkpt lat="48.14339" lon="-3.60222">
        <ele>142.2</ele>
        <time>2022-12-08T12:54:43Z</time>
      </trkpt>
      <trkpt lat="48.14333" lon="-3.6022">
        <ele>142.1</ele>
        <time>2022-12-08T12:54:44Z</time>
      </trkpt>
      <trkpt lat="48.14328" lon="-3.6022">
        <ele>142.1</ele>
        <time>2022-12-08T12:54:45Z</time>
      </trkpt>
      <trkpt lat="48.14322" lon="-3.60219">
        <ele>142</ele>
        <time>2022-12-08T12:54:46Z</time>
      </trkpt>
      <trkpt lat="48.14317" lon="-3.60219">
        <ele>142</ele>
        <time>2022-12-08T12:54:47Z</time>
      </trkpt>
      <trkpt lat="48.14311" lon="-3.60219">
        <ele>141.9</ele>
        <time>2022-12-08T12:54:48Z</time>
      </trkpt>
      <trkpt lat="48.14305" lon="-3.60218">
        <ele>141.8</ele>
        <time>2022-12-08T12:54:49Z</time>
      </trkpt>
      <trkpt lat="48.14299" lon="-3.60217">
        <ele>141.8</ele>
        <time>2022-12-08T12:54:50Z</time>
      </trkpt>
      <trkpt lat="48.14294" lon="-3.60217">
        <ele>141.8</ele>
        <time>2022-12-08T12:54:51Z</time>
      </trkpt>
      <trkpt lat="48.14288" lon="-3.60217">
        <ele>141.9</ele>
        <time>2022-12-08T12:54:52Z</time>
      </trkpt>
      <trkpt lat="48.14282" lon="-3.60216">
        <ele>141.9</ele>
        <time>2022-12-08T12:54:53Z</time>
      </trkpt>
      <trkpt lat="48.14277" lon="-3.60216">
        <ele>142</ele>
        <time>2022-12-08T12:54:54Z</time>
      </trkpt>
      <trkpt lat="48.14271" lon="-3.60217">
        <ele>142</ele>
        <time>2022-12-08T12:54:55Z</time>
      </trkpt>
      <trkpt lat="48.14266" lon="-3.60216">
        <ele>142.1</ele>
        <time>2022-12-08T12:54:56Z</time>
      </trkpt>
      <trkpt lat="48.14262" lon="-3.60215">
        <ele>142.1</ele>
        <time>2022-12-08T12:54:57Z</time>
      </trkpt>
      <trkpt lat="48.14257" lon="-3.60214">
        <ele>142</ele>
        <time>2022-12-08T12:54:58Z</time>
      </trkpt>
      <trkpt lat="48.14251" lon="-3.60213">
        <ele>142</ele>
        <time>2022-12-08T12:54:59Z</time>
      </trkpt>
      <trkpt lat="48.14246" lon="-3.60213">
        <ele>142</ele>
        <time>2022-12-08T12:55:00Z</time>
      </trkpt>
      <trkpt lat="48.14242" lon="-3.60212">
        <ele>142.1</ele>
        <time>2022-12-08T12:55:01Z</time>
      </trkpt>
      <trkpt lat="48.14237" lon="-3.60211">
        <ele>142.1</ele>
        <time>2022-12-08T12:55:02Z</time>
      </trkpt>
      <trkpt lat="48.14232" lon="-3.6021">
        <ele>142.1</ele>
        <time>2022-12-08T12:55:03Z</time>
      </trkpt>
      <trkpt lat="48.14228" lon="-3.60208">
        <ele>142.1</ele>
        <time>2022-12-08T12:55:04Z</time>
      </trkpt>
      <trkpt lat="48.14223" lon="-3.60205">
        <ele>142.1</ele>
        <time>2022-12-08T12:55:05Z</time>
      </trkpt>
      <trkpt lat="48.14218" lon="-3.60203">
        <ele>142.1</ele>
        <time>2022-12-08T12:55:06Z</time>
      </trkpt>
      <trkpt lat="48.14213" lon="-3.60201">
        <ele>142</ele>
        <time>2022-12-08T12:55:07Z</time>
      </trkpt>
      <trkpt lat="48.14208" lon="-3.60199">
        <ele>142</ele>
        <time>2022-12-08T12:55:08Z</time>
      </trkpt>
      <trkpt lat="48.14203" lon="-3.60198">
        <ele>142</ele>
        <time>2022-12-08T12:55:09Z</time>
      </trkpt>
      <trkpt lat="48.14198" lon="-3.60199">
        <ele>142</ele>
        <time>2022-12-08T12:55:10Z</time>
      </trkpt>
      <trkpt lat="48.14193" lon="-3.60199">
        <ele>142</ele>
        <time>2022-12-08T12:55:11Z</time>
      </trkpt>
      <trkpt lat="48.14188" lon="-3.60199">
        <ele>142</ele>
        <time>2022-12-08T12:55:12Z</time>
      </trkpt>
      <trkpt lat="48.14183" lon="-3.60198">
        <ele>141.9</ele>
        <time>2022-12-08T12:55:13Z</time>
      </trkpt>
      <trkpt lat="48.14178" lon="-3.60198">
        <ele>141.9</ele>
        <time>2022-12-08T12:55:14Z</time>
      </trkpt>
      <trkpt lat="48.14173" lon="-3.60198">
        <ele>141.9</ele>
        <time>2022-12-08T12:55:15Z</time>
      </trkpt>
      <trkpt lat="48.14168" lon="-3.60198">
        <ele>141.9</ele>
        <time>2022-12-08T12:55:16Z</time>
      </trkpt>
      <trkpt lat="48.14162" lon="-3.60197">
        <ele>141.9</ele>
        <time>2022-12-08T12:55:17Z</time>
      </trkpt>
      <trkpt lat="48.14157" lon="-3.60197">
        <ele>141.8</ele>
        <time>2022-12-08T12:55:18Z</time>
      </trkpt>
      <trkpt lat="48.14152" lon="-3.60196">
        <ele>141.8</ele>
        <time>2022-12-08T12:55:19Z</time>
      </trkpt>
      <trkpt lat="48.14147" lon="-3.60196">
        <ele>141.8</ele>
        <time>2022-12-08T12:55:20Z</time>
      </trkpt>
      <trkpt lat="48.14142" lon="-3.60195">
        <ele>141.8</ele>
        <time>2022-12-08T12:55:21Z</time>
      </trkpt>
      <trkpt lat="48.14136" lon="-3.60194">
        <ele>141.7</ele>
        <time>2022-12-08T12:55:22Z</time>
      </trkpt>
      <trkpt lat="48.14131" lon="-3.60193">
        <ele>141.7</ele>
        <time>2022-12-08T12:55:23Z</time>
      </trkpt>
      <trkpt lat="48.14126" lon="-3.60192">
        <ele>141.7</ele>
        <time>2022-12-08T12:55:24Z</time>
      </trkpt>
      <trkpt lat="48.14121" lon="-3.60191">
        <ele>141.6</ele>
        <time>2022-12-08T12:55:25Z</time>
      </trkpt>
      <trkpt lat="48.14115" lon="-3.60191">
        <ele>141.6</ele>
        <time>2022-12-08T12:55:26Z</time>
      </trkpt>
      <trkpt lat="48.1411" lon="-3.6019">
        <ele>141.6</ele>
        <time>2022-12-08T12:55:27Z</time>
      </trkpt>
      <trkpt lat="48.14106" lon="-3.6019">
        <ele>141.5</ele>
        <time>2022-12-08T12:55:28Z</time>
      </trkpt>
      <trkpt lat="48.14102" lon="-3.6019">
        <ele>141.3</ele>
        <time>2022-12-08T12:55:29Z</time>
      </trkpt>
      <trkpt lat="48.14098" lon="-3.60191">
        <ele>141</ele>
        <time>2022-12-08T12:55:30Z</time>
      </trkpt>
      <trkpt lat="48.14096" lon="-3.60192">
        <ele>140.9</ele>
        <time>2022-12-08T12:55:31Z</time>
      </trkpt>
      <trkpt lat="48.14094" lon="-3.60195">
        <ele>140.7</ele>
        <time>2022-12-08T12:55:32Z</time>
      </trkpt>
      <trkpt lat="48.14092" lon="-3.60199">
        <ele>140.7</ele>
        <time>2022-12-08T12:55:33Z</time>
      </trkpt>
      <trkpt lat="48.14091" lon="-3.60203">
        <ele>141.2</ele>
        <time>2022-12-08T12:55:34Z</time>
      </trkpt>
      <trkpt lat="48.14087" lon="-3.60207">
        <ele>141.2</ele>
        <time>2022-12-08T12:55:35Z</time>
      </trkpt>
      <trkpt lat="48.14083" lon="-3.6021">
        <ele>141.2</ele>
        <time>2022-12-08T12:55:36Z</time>
      </trkpt>
      <trkpt lat="48.14079" lon="-3.60212">
        <ele>141.1</ele>
        <time>2022-12-08T12:55:37Z</time>
      </trkpt>
      <trkpt lat="48.14075" lon="-3.60212">
        <ele>141.1</ele>
        <time>2022-12-08T12:55:38Z</time>
      </trkpt>
      <trkpt lat="48.14069" lon="-3.60212">
        <ele>141.1</ele>
        <time>2022-12-08T12:55:39Z</time>
      </trkpt>
      <trkpt lat="48.14063" lon="-3.60212">
        <ele>141</ele>
        <time>2022-12-08T12:55:40Z</time>
      </trkpt>
      <trkpt lat="48.14058" lon="-3.60212">
        <ele>141</ele>
        <time>2022-12-08T12:55:41Z</time>
      </trkpt>
      <trkpt lat="48.14052" lon="-3.60213">
        <ele>141</ele>
        <time>2022-12-08T12:55:42Z</time>
      </trkpt>
      <trkpt lat="48.14047" lon="-3.60213">
        <ele>141</ele>
        <time>2022-12-08T12:55:43Z</time>
      </trkpt>
      <trkpt lat="48.14042" lon="-3.60215">
        <ele>140.9</ele>
        <time>2022-12-08T12:55:44Z</time>
      </trkpt>
      <trkpt lat="48.14036" lon="-3.60216">
        <ele>140.9</ele>
        <time>2022-12-08T12:55:45Z</time>
      </trkpt>
      <trkpt lat="48.1403" lon="-3.60218">
        <ele>140.9</ele>
        <time>2022-12-08T12:55:46Z</time>
      </trkpt>
      <trkpt lat="48.14025" lon="-3.60219">
        <ele>140.9</ele>
        <time>2022-12-08T12:55:47Z</time>
      </trkpt>
      <trkpt lat="48.14019" lon="-3.60221">
        <ele>141</ele>
        <time>2022-12-08T12:55:48Z</time>
      </trkpt>
      <trkpt lat="48.14013" lon="-3.60223">
        <ele>140.9</ele>
        <time>2022-12-08T12:55:49Z</time>
      </trkpt>
      <trkpt lat="48.14008" lon="-3.60225">
        <ele>140.9</ele>
        <time>2022-12-08T12:55:50Z</time>
      </trkpt>
      <trkpt lat="48.14002" lon="-3.60227">
        <ele>140.9</ele>
        <time>2022-12-08T12:55:51Z</time>
      </trkpt>
      <trkpt lat="48.13996" lon="-3.60228">
        <ele>140.8</ele>
        <time>2022-12-08T12:55:52Z</time>
      </trkpt>
      <trkpt lat="48.1399" lon="-3.6023">
        <ele>140.8</ele>
        <time>2022-12-08T12:55:53Z</time>
      </trkpt>
      <trkpt lat="48.13985" lon="-3.60231">
        <ele>140.7</ele>
        <time>2022-12-08T12:55:54Z</time>
      </trkpt>
      <trkpt lat="48.13979" lon="-3.60234">
        <ele>140.7</ele>
        <time>2022-12-08T12:55:55Z</time>
      </trkpt>
      <trkpt lat="48.13973" lon="-3.60237">
        <ele>140.6</ele>
        <time>2022-12-08T12:55:56Z</time>
      </trkpt>
      <trkpt lat="48.13968" lon="-3.6024">
        <ele>140.5</ele>
        <time>2022-12-08T12:55:57Z</time>
      </trkpt>
      <trkpt lat="48.13963" lon="-3.60244">
        <ele>140.5</ele>
        <time>2022-12-08T12:55:58Z</time>
      </trkpt>
      <trkpt lat="48.13958" lon="-3.60248">
        <ele>140.4</ele>
        <time>2022-12-08T12:55:59Z</time>
      </trkpt>
      <trkpt lat="48.13952" lon="-3.60252">
        <ele>140.4</ele>
        <time>2022-12-08T12:56:00Z</time>
      </trkpt>
      <trkpt lat="48.13947" lon="-3.60257">
        <ele>140.3</ele>
        <time>2022-12-08T12:56:01Z</time>
      </trkpt>
      <trkpt lat="48.13942" lon="-3.60261">
        <ele>140.3</ele>
        <time>2022-12-08T12:56:02Z</time>
      </trkpt>
      <trkpt lat="48.13937" lon="-3.60266">
        <ele>140.2</ele>
        <time>2022-12-08T12:56:03Z</time>
      </trkpt>
      <trkpt lat="48.13933" lon="-3.60271">
        <ele>140.2</ele>
        <time>2022-12-08T12:56:04Z</time>
      </trkpt>
      <trkpt lat="48.13928" lon="-3.60275">
        <ele>140.1</ele>
        <time>2022-12-08T12:56:05Z</time>
      </trkpt>
      <trkpt lat="48.13923" lon="-3.6028">
        <ele>140.1</ele>
        <time>2022-12-08T12:56:06Z</time>
      </trkpt>
      <trkpt lat="48.13918" lon="-3.60284">
        <ele>140.1</ele>
        <time>2022-12-08T12:56:07Z</time>
      </trkpt>
      <trkpt lat="48.13913" lon="-3.60289">
        <ele>140</ele>
        <time>2022-12-08T12:56:08Z</time>
      </trkpt>
      <trkpt lat="48.13908" lon="-3.60295">
        <ele>140</ele>
        <time>2022-12-08T12:56:09Z</time>
      </trkpt>
      <trkpt lat="48.13902" lon="-3.603">
        <ele>139.9</ele>
        <time>2022-12-08T12:56:10Z</time>
      </trkpt>
      <trkpt lat="48.13896" lon="-3.60307">
        <ele>139.7</ele>
        <time>2022-12-08T12:56:11Z</time>
      </trkpt>
      <trkpt lat="48.13891" lon="-3.60313">
        <ele>139.5</ele>
        <time>2022-12-08T12:56:12Z</time>
      </trkpt>
      <trkpt lat="48.13886" lon="-3.60319">
        <ele>139.4</ele>
        <time>2022-12-08T12:56:13Z</time>
      </trkpt>
      <trkpt lat="48.13881" lon="-3.60326">
        <ele>139.2</ele>
        <time>2022-12-08T12:56:14Z</time>
      </trkpt>
      <trkpt lat="48.13876" lon="-3.60332">
        <ele>139.1</ele>
        <time>2022-12-08T12:56:15Z</time>
      </trkpt>
      <trkpt lat="48.13871" lon="-3.60338">
        <ele>139</ele>
        <time>2022-12-08T12:56:16Z</time>
      </trkpt>
      <trkpt lat="48.13865" lon="-3.60344">
        <ele>138.8</ele>
        <time>2022-12-08T12:56:17Z</time>
      </trkpt>
      <trkpt lat="48.13861" lon="-3.60349">
        <ele>138.7</ele>
        <time>2022-12-08T12:56:18Z</time>
      </trkpt>
      <trkpt lat="48.13856" lon="-3.60355">
        <ele>138.6</ele>
        <time>2022-12-08T12:56:19Z</time>
      </trkpt>
      <trkpt lat="48.1385" lon="-3.6036">
        <ele>138.5</ele>
        <time>2022-12-08T12:56:20Z</time>
      </trkpt>
      <trkpt lat="48.13844" lon="-3.60364">
        <ele>138.3</ele>
        <time>2022-12-08T12:56:21Z</time>
      </trkpt>
      <trkpt lat="48.13839" lon="-3.60369">
        <ele>138.2</ele>
        <time>2022-12-08T12:56:22Z</time>
      </trkpt>
      <trkpt lat="48.13834" lon="-3.60376">
        <ele>138</ele>
        <time>2022-12-08T12:56:23Z</time>
      </trkpt>
      <trkpt lat="48.13829" lon="-3.60382">
        <ele>137.8</ele>
        <time>2022-12-08T12:56:24Z</time>
      </trkpt>
      <trkpt lat="48.13824" lon="-3.60388">
        <ele>137.7</ele>
        <time>2022-12-08T12:56:25Z</time>
      </trkpt>
      <trkpt lat="48.13818" lon="-3.60394">
        <ele>137.5</ele>
        <time>2022-12-08T12:56:26Z</time>
      </trkpt>
      <trkpt lat="48.13812" lon="-3.60398">
        <ele>137.3</ele>
        <time>2022-12-08T12:56:27Z</time>
      </trkpt>
      <trkpt lat="48.13807" lon="-3.60405">
        <ele>137.1</ele>
        <time>2022-12-08T12:56:28Z</time>
      </trkpt>
      <trkpt lat="48.13802" lon="-3.6041">
        <ele>137</ele>
        <time>2022-12-08T12:56:29Z</time>
      </trkpt>
      <trkpt lat="48.13797" lon="-3.60414">
        <ele>136.8</ele>
        <time>2022-12-08T12:56:30Z</time>
      </trkpt>
      <trkpt lat="48.13792" lon="-3.6042">
        <ele>136.7</ele>
        <time>2022-12-08T12:56:31Z</time>
      </trkpt>
      <trkpt lat="48.13788" lon="-3.60427">
        <ele>136.5</ele>
        <time>2022-12-08T12:56:32Z</time>
      </trkpt>
      <trkpt lat="48.13784" lon="-3.60435">
        <ele>136.4</ele>
        <time>2022-12-08T12:56:33Z</time>
      </trkpt>
      <trkpt lat="48.13779" lon="-3.60441">
        <ele>136.2</ele>
        <time>2022-12-08T12:56:34Z</time>
      </trkpt>
      <trkpt lat="48.13773" lon="-3.60445">
        <ele>136</ele>
        <time>2022-12-08T12:56:35Z</time>
      </trkpt>
      <trkpt lat="48.13769" lon="-3.6045">
        <ele>135.9</ele>
        <time>2022-12-08T12:56:36Z</time>
      </trkpt>
      <trkpt lat="48.13763" lon="-3.60456">
        <ele>135.6</ele>
        <time>2022-12-08T12:56:37Z</time>
      </trkpt>
      <trkpt lat="48.13759" lon="-3.60462">
        <ele>135.5</ele>
        <time>2022-12-08T12:56:38Z</time>
      </trkpt>
      <trkpt lat="48.13755" lon="-3.60469">
        <ele>135.3</ele>
        <time>2022-12-08T12:56:39Z</time>
      </trkpt>
      <trkpt lat="48.13749" lon="-3.60477">
        <ele>135.1</ele>
        <time>2022-12-08T12:56:40Z</time>
      </trkpt>
      <trkpt lat="48.13743" lon="-3.60482">
        <ele>134.9</ele>
        <time>2022-12-08T12:56:41Z</time>
      </trkpt>
      <trkpt lat="48.13737" lon="-3.60488">
        <ele>134.8</ele>
        <time>2022-12-08T12:56:42Z</time>
      </trkpt>
      <trkpt lat="48.13731" lon="-3.60494">
        <ele>134.7</ele>
        <time>2022-12-08T12:56:43Z</time>
      </trkpt>
      <trkpt lat="48.13725" lon="-3.605">
        <ele>134.6</ele>
        <time>2022-12-08T12:56:44Z</time>
      </trkpt>
      <trkpt lat="48.13719" lon="-3.60507">
        <ele>134.5</ele>
        <time>2022-12-08T12:56:45Z</time>
      </trkpt>
      <trkpt lat="48.13714" lon="-3.60513">
        <ele>134.3</ele>
        <time>2022-12-08T12:56:46Z</time>
      </trkpt>
      <trkpt lat="48.13709" lon="-3.60519">
        <ele>134.2</ele>
        <time>2022-12-08T12:56:47Z</time>
      </trkpt>
      <trkpt lat="48.13704" lon="-3.60526">
        <ele>134.2</ele>
        <time>2022-12-08T12:56:48Z</time>
      </trkpt>
      <trkpt lat="48.13698" lon="-3.60532">
        <ele>134.1</ele>
        <time>2022-12-08T12:56:49Z</time>
      </trkpt>
      <trkpt lat="48.13693" lon="-3.60537">
        <ele>134</ele>
        <time>2022-12-08T12:56:50Z</time>
      </trkpt>
      <trkpt lat="48.13688" lon="-3.60542">
        <ele>133.9</ele>
        <time>2022-12-08T12:56:51Z</time>
      </trkpt>
      <trkpt lat="48.13683" lon="-3.60547">
        <ele>133.8</ele>
        <time>2022-12-08T12:56:52Z</time>
      </trkpt>
      <trkpt lat="48.13678" lon="-3.60552">
        <ele>133.8</ele>
        <time>2022-12-08T12:56:53Z</time>
      </trkpt>
      <trkpt lat="48.13673" lon="-3.60556">
        <ele>133.7</ele>
        <time>2022-12-08T12:56:54Z</time>
      </trkpt>
      <trkpt lat="48.13668" lon="-3.6056">
        <ele>133.6</ele>
        <time>2022-12-08T12:56:55Z</time>
      </trkpt>
      <trkpt lat="48.13662" lon="-3.60565">
        <ele>133.6</ele>
        <time>2022-12-08T12:56:56Z</time>
      </trkpt>
      <trkpt lat="48.13657" lon="-3.60571">
        <ele>133.5</ele>
        <time>2022-12-08T12:56:57Z</time>
      </trkpt>
      <trkpt lat="48.13652" lon="-3.60576">
        <ele>133.4</ele>
        <time>2022-12-08T12:56:58Z</time>
      </trkpt>
      <trkpt lat="48.13648" lon="-3.60581">
        <ele>133.3</ele>
        <time>2022-12-08T12:56:59Z</time>
      </trkpt>
      <trkpt lat="48.13643" lon="-3.60586">
        <ele>133.3</ele>
        <time>2022-12-08T12:57:00Z</time>
      </trkpt>
      <trkpt lat="48.13638" lon="-3.60591">
        <ele>133.3</ele>
        <time>2022-12-08T12:57:01Z</time>
      </trkpt>
      <trkpt lat="48.13633" lon="-3.60597">
        <ele>133.4</ele>
        <time>2022-12-08T12:57:02Z</time>
      </trkpt>
      <trkpt lat="48.13629" lon="-3.60602">
        <ele>133.5</ele>
        <time>2022-12-08T12:57:03Z</time>
      </trkpt>
      <trkpt lat="48.13625" lon="-3.60607">
        <ele>133.5</ele>
        <time>2022-12-08T12:57:04Z</time>
      </trkpt>
      <trkpt lat="48.1362" lon="-3.60612">
        <ele>133.6</ele>
        <time>2022-12-08T12:57:05Z</time>
      </trkpt>
      <trkpt lat="48.13615" lon="-3.60616">
        <ele>133.7</ele>
        <time>2022-12-08T12:57:06Z</time>
      </trkpt>
      <trkpt lat="48.13609" lon="-3.60619">
        <ele>133.7</ele>
        <time>2022-12-08T12:57:07Z</time>
      </trkpt>
      <trkpt lat="48.13604" lon="-3.60621">
        <ele>133.8</ele>
        <time>2022-12-08T12:57:08Z</time>
      </trkpt>
      <trkpt lat="48.13598" lon="-3.60623">
        <ele>133.8</ele>
        <time>2022-12-08T12:57:09Z</time>
      </trkpt>
      <trkpt lat="48.13592" lon="-3.60626">
        <ele>133.9</ele>
        <time>2022-12-08T12:57:10Z</time>
      </trkpt>
      <trkpt lat="48.13587" lon="-3.60631">
        <ele>133.9</ele>
        <time>2022-12-08T12:57:11Z</time>
      </trkpt>
      <trkpt lat="48.13581" lon="-3.60635">
        <ele>133.9</ele>
        <time>2022-12-08T12:57:12Z</time>
      </trkpt>
      <trkpt lat="48.13575" lon="-3.60638">
        <ele>134</ele>
        <time>2022-12-08T12:57:13Z</time>
      </trkpt>
      <trkpt lat="48.13569" lon="-3.60641">
        <ele>134.1</ele>
        <time>2022-12-08T12:57:14Z</time>
      </trkpt>
      <trkpt lat="48.13563" lon="-3.60645">
        <ele>134.2</ele>
        <time>2022-12-08T12:57:15Z</time>
      </trkpt>
      <trkpt lat="48.13557" lon="-3.60648">
        <ele>134.3</ele>
        <time>2022-12-08T12:57:16Z</time>
      </trkpt>
      <trkpt lat="48.13551" lon="-3.6065">
        <ele>134.4</ele>
        <time>2022-12-08T12:57:17Z</time>
      </trkpt>
      <trkpt lat="48.13544" lon="-3.60654">
        <ele>134.5</ele>
        <time>2022-12-08T12:57:18Z</time>
      </trkpt>
      <trkpt lat="48.13538" lon="-3.6066">
        <ele>134.5</ele>
        <time>2022-12-08T12:57:19Z</time>
      </trkpt>
      <trkpt lat="48.13533" lon="-3.60664">
        <ele>134.6</ele>
        <time>2022-12-08T12:57:20Z</time>
      </trkpt>
      <trkpt lat="48.13526" lon="-3.60668">
        <ele>134.6</ele>
        <time>2022-12-08T12:57:21Z</time>
      </trkpt>
      <trkpt lat="48.1352" lon="-3.60672">
        <ele>134.6</ele>
        <time>2022-12-08T12:57:22Z</time>
      </trkpt>
      <trkpt lat="48.13514" lon="-3.60675">
        <ele>134.7</ele>
        <time>2022-12-08T12:57:23Z</time>
      </trkpt>
      <trkpt lat="48.13508" lon="-3.60679">
        <ele>134.7</ele>
        <time>2022-12-08T12:57:24Z</time>
      </trkpt>
      <trkpt lat="48.13502" lon="-3.60683">
        <ele>134.7</ele>
        <time>2022-12-08T12:57:25Z</time>
      </trkpt>
      <trkpt lat="48.13496" lon="-3.60687">
        <ele>134.8</ele>
        <time>2022-12-08T12:57:26Z</time>
      </trkpt>
      <trkpt lat="48.1349" lon="-3.60692">
        <ele>134.8</ele>
        <time>2022-12-08T12:57:27Z</time>
      </trkpt>
      <trkpt lat="48.13485" lon="-3.60697">
        <ele>134.8</ele>
        <time>2022-12-08T12:57:28Z</time>
      </trkpt>
      <trkpt lat="48.13479" lon="-3.60702">
        <ele>134.8</ele>
        <time>2022-12-08T12:57:29Z</time>
      </trkpt>
      <trkpt lat="48.13473" lon="-3.60708">
        <ele>134.9</ele>
        <time>2022-12-08T12:57:30Z</time>
      </trkpt>
      <trkpt lat="48.13468" lon="-3.60715">
        <ele>134.9</ele>
        <time>2022-12-08T12:57:31Z</time>
      </trkpt>
      <trkpt lat="48.13463" lon="-3.60721">
        <ele>134.9</ele>
        <time>2022-12-08T12:57:32Z</time>
      </trkpt>
      <trkpt lat="48.13458" lon="-3.60728">
        <ele>134.9</ele>
        <time>2022-12-08T12:57:33Z</time>
      </trkpt>
      <trkpt lat="48.13453" lon="-3.60735">
        <ele>134.9</ele>
        <time>2022-12-08T12:57:34Z</time>
      </trkpt>
      <trkpt lat="48.13447" lon="-3.60742">
        <ele>135</ele>
        <time>2022-12-08T12:57:35Z</time>
      </trkpt>
      <trkpt lat="48.13442" lon="-3.60749">
        <ele>135</ele>
        <time>2022-12-08T12:57:36Z</time>
      </trkpt>
      <trkpt lat="48.13438" lon="-3.60757">
        <ele>135</ele>
        <time>2022-12-08T12:57:37Z</time>
      </trkpt>
      <trkpt lat="48.13433" lon="-3.60764">
        <ele>135</ele>
        <time>2022-12-08T12:57:38Z</time>
      </trkpt>
      <trkpt lat="48.13429" lon="-3.6077">
        <ele>135</ele>
        <time>2022-12-08T12:57:39Z</time>
      </trkpt>
      <trkpt lat="48.13425" lon="-3.60778">
        <ele>135</ele>
        <time>2022-12-08T12:57:40Z</time>
      </trkpt>
      <trkpt lat="48.13421" lon="-3.60786">
        <ele>135</ele>
        <time>2022-12-08T12:57:41Z</time>
      </trkpt>
      <trkpt lat="48.13417" lon="-3.60795">
        <ele>135.1</ele>
        <time>2022-12-08T12:57:42Z</time>
      </trkpt>
      <trkpt lat="48.13412" lon="-3.60803">
        <ele>135.1</ele>
        <time>2022-12-08T12:57:43Z</time>
      </trkpt>
      <trkpt lat="48.13408" lon="-3.60811">
        <ele>135.1</ele>
        <time>2022-12-08T12:57:44Z</time>
      </trkpt>
      <trkpt lat="48.13404" lon="-3.6082">
        <ele>135.1</ele>
        <time>2022-12-08T12:57:45Z</time>
      </trkpt>
      <trkpt lat="48.134" lon="-3.60828">
        <ele>135</ele>
        <time>2022-12-08T12:57:46Z</time>
      </trkpt>
      <trkpt lat="48.13397" lon="-3.60837">
        <ele>134.9</ele>
        <time>2022-12-08T12:57:47Z</time>
      </trkpt>
      <trkpt lat="48.13393" lon="-3.60844">
        <ele>134.9</ele>
        <time>2022-12-08T12:57:48Z</time>
      </trkpt>
      <trkpt lat="48.13389" lon="-3.60851">
        <ele>134.8</ele>
        <time>2022-12-08T12:57:49Z</time>
      </trkpt>
      <trkpt lat="48.13385" lon="-3.60858">
        <ele>134.7</ele>
        <time>2022-12-08T12:57:50Z</time>
      </trkpt>
      <trkpt lat="48.13381" lon="-3.60864">
        <ele>134.6</ele>
        <time>2022-12-08T12:57:51Z</time>
      </trkpt>
      <trkpt lat="48.13379" lon="-3.60869">
        <ele>134.6</ele>
        <time>2022-12-08T12:57:52Z</time>
      </trkpt>
      <trkpt lat="48.13377" lon="-3.60872">
        <ele>134.6</ele>
        <time>2022-12-08T12:57:53Z</time>
      </trkpt>
      <trkpt lat="48.13374" lon="-3.60877">
        <ele>134.5</ele>
        <time>2022-12-08T12:57:54Z</time>
      </trkpt>
      <trkpt lat="48.13373" lon="-3.60879">
        <ele>134.5</ele>
        <time>2022-12-08T12:57:55Z</time>
      </trkpt>
      <trkpt lat="48.1337" lon="-3.60886">
        <ele>134.5</ele>
        <time>2022-12-08T12:57:56Z</time>
      </trkpt>
      <trkpt lat="48.13367" lon="-3.60891">
        <ele>134.5</ele>
        <time>2022-12-08T12:57:57Z</time>
      </trkpt>
      <trkpt lat="48.13364" lon="-3.60897">
        <ele>134.4</ele>
        <time>2022-12-08T12:57:58Z</time>
      </trkpt>
      <trkpt lat="48.13361" lon="-3.60903">
        <ele>134.4</ele>
        <time>2022-12-08T12:57:59Z</time>
      </trkpt>
      <trkpt lat="48.13358" lon="-3.60909">
        <ele>134.4</ele>
        <time>2022-12-08T12:58:00Z</time>
      </trkpt>
      <trkpt lat="48.13355" lon="-3.60915">
        <ele>134.4</ele>
        <time>2022-12-08T12:58:01Z</time>
      </trkpt>
      <trkpt lat="48.13351" lon="-3.60919">
        <ele>134.3</ele>
        <time>2022-12-08T12:58:02Z</time>
      </trkpt>
      <trkpt lat="48.13349" lon="-3.60921">
        <ele>134.3</ele>
        <time>2022-12-08T12:58:03Z</time>
      </trkpt>
      <trkpt lat="48.13348" lon="-3.60923">
        <ele>134.3</ele>
        <time>2022-12-08T12:58:04Z</time>
      </trkpt>
      <trkpt lat="48.13347" lon="-3.60929">
        <ele>134.2</ele>
        <time>2022-12-08T12:58:06Z</time>
      </trkpt>
      <trkpt lat="48.13343" lon="-3.60935">
        <ele>134.2</ele>
        <time>2022-12-08T12:58:07Z</time>
      </trkpt>
      <trkpt lat="48.1334" lon="-3.6094">
        <ele>134.1</ele>
        <time>2022-12-08T12:58:08Z</time>
      </trkpt>
      <trkpt lat="48.13336" lon="-3.60949">
        <ele>134</ele>
        <time>2022-12-08T12:58:09Z</time>
      </trkpt>
      <trkpt lat="48.13332" lon="-3.60955">
        <ele>133.8</ele>
        <time>2022-12-08T12:58:10Z</time>
      </trkpt>
      <trkpt lat="48.13328" lon="-3.60961">
        <ele>133.7</ele>
        <time>2022-12-08T12:58:11Z</time>
      </trkpt>
      <trkpt lat="48.13324" lon="-3.60967">
        <ele>133.6</ele>
        <time>2022-12-08T12:58:12Z</time>
      </trkpt>
      <trkpt lat="48.13321" lon="-3.60973">
        <ele>133.5</ele>
        <time>2022-12-08T12:58:13Z</time>
      </trkpt>
      <trkpt lat="48.13316" lon="-3.60978">
        <ele>133.5</ele>
        <time>2022-12-08T12:58:14Z</time>
      </trkpt>
      <trkpt lat="48.13312" lon="-3.60984">
        <ele>133.4</ele>
        <time>2022-12-08T12:58:15Z</time>
      </trkpt>
      <trkpt lat="48.13308" lon="-3.60989">
        <ele>133.3</ele>
        <time>2022-12-08T12:58:16Z</time>
      </trkpt>
      <trkpt lat="48.13304" lon="-3.60993">
        <ele>133.2</ele>
        <time>2022-12-08T12:58:17Z</time>
      </trkpt>
      <trkpt lat="48.13299" lon="-3.61">
        <ele>133.2</ele>
        <time>2022-12-08T12:58:18Z</time>
      </trkpt>
      <trkpt lat="48.13294" lon="-3.61006">
        <ele>133.1</ele>
        <time>2022-12-08T12:58:19Z</time>
      </trkpt>
      <trkpt lat="48.13289" lon="-3.61011">
        <ele>133</ele>
        <time>2022-12-08T12:58:20Z</time>
      </trkpt>
      <trkpt lat="48.13285" lon="-3.61017">
        <ele>132.9</ele>
        <time>2022-12-08T12:58:21Z</time>
      </trkpt>
      <trkpt lat="48.13281" lon="-3.61022">
        <ele>132.9</ele>
        <time>2022-12-08T12:58:22Z</time>
      </trkpt>
      <trkpt lat="48.13276" lon="-3.61026">
        <ele>132.8</ele>
        <time>2022-12-08T12:58:23Z</time>
      </trkpt>
      <trkpt lat="48.1327" lon="-3.6103">
        <ele>132.7</ele>
        <time>2022-12-08T12:58:24Z</time>
      </trkpt>
      <trkpt lat="48.13264" lon="-3.61034">
        <ele>132.6</ele>
        <time>2022-12-08T12:58:25Z</time>
      </trkpt>
      <trkpt lat="48.13258" lon="-3.61039">
        <ele>132.5</ele>
        <time>2022-12-08T12:58:26Z</time>
      </trkpt>
      <trkpt lat="48.13253" lon="-3.61043">
        <ele>132.5</ele>
        <time>2022-12-08T12:58:27Z</time>
      </trkpt>
      <trkpt lat="48.13247" lon="-3.61047">
        <ele>132.4</ele>
        <time>2022-12-08T12:58:28Z</time>
      </trkpt>
      <trkpt lat="48.13241" lon="-3.61052">
        <ele>132.3</ele>
        <time>2022-12-08T12:58:29Z</time>
      </trkpt>
      <trkpt lat="48.13235" lon="-3.61056">
        <ele>132.2</ele>
        <time>2022-12-08T12:58:30Z</time>
      </trkpt>
      <trkpt lat="48.13229" lon="-3.6106">
        <ele>132.1</ele>
        <time>2022-12-08T12:58:31Z</time>
      </trkpt>
      <trkpt lat="48.13223" lon="-3.61064">
        <ele>132</ele>
        <time>2022-12-08T12:58:32Z</time>
      </trkpt>
      <trkpt lat="48.13217" lon="-3.61067">
        <ele>131.9</ele>
        <time>2022-12-08T12:58:33Z</time>
      </trkpt>
      <trkpt lat="48.1321" lon="-3.6107">
        <ele>131.8</ele>
        <time>2022-12-08T12:58:34Z</time>
      </trkpt>
      <trkpt lat="48.13203" lon="-3.61073">
        <ele>131.6</ele>
        <time>2022-12-08T12:58:35Z</time>
      </trkpt>
      <trkpt lat="48.13197" lon="-3.61076">
        <ele>131.5</ele>
        <time>2022-12-08T12:58:36Z</time>
      </trkpt>
      <trkpt lat="48.13191" lon="-3.61079">
        <ele>131.5</ele>
        <time>2022-12-08T12:58:37Z</time>
      </trkpt>
      <trkpt lat="48.13185" lon="-3.61082">
        <ele>131.4</ele>
        <time>2022-12-08T12:58:38Z</time>
      </trkpt>
      <trkpt lat="48.13179" lon="-3.61085">
        <ele>131.3</ele>
        <time>2022-12-08T12:58:39Z</time>
      </trkpt>
      <trkpt lat="48.13172" lon="-3.61087">
        <ele>131.2</ele>
        <time>2022-12-08T12:58:40Z</time>
      </trkpt>
      <trkpt lat="48.13165" lon="-3.6109">
        <ele>131.1</ele>
        <time>2022-12-08T12:58:41Z</time>
      </trkpt>
      <trkpt lat="48.13159" lon="-3.61093">
        <ele>131</ele>
        <time>2022-12-08T12:58:42Z</time>
      </trkpt>
      <trkpt lat="48.13153" lon="-3.61098">
        <ele>131</ele>
        <time>2022-12-08T12:58:43Z</time>
      </trkpt>
      <trkpt lat="48.13147" lon="-3.61101">
        <ele>131</ele>
        <time>2022-12-08T12:58:44Z</time>
      </trkpt>
      <trkpt lat="48.13141" lon="-3.61104">
        <ele>130.9</ele>
        <time>2022-12-08T12:58:45Z</time>
      </trkpt>
      <trkpt lat="48.13134" lon="-3.61107">
        <ele>130.9</ele>
        <time>2022-12-08T12:58:46Z</time>
      </trkpt>
      <trkpt lat="48.13128" lon="-3.61108">
        <ele>130.8</ele>
        <time>2022-12-08T12:58:47Z</time>
      </trkpt>
      <trkpt lat="48.13121" lon="-3.61111">
        <ele>130.8</ele>
        <time>2022-12-08T12:58:48Z</time>
      </trkpt>
      <trkpt lat="48.13115" lon="-3.61114">
        <ele>130.7</ele>
        <time>2022-12-08T12:58:49Z</time>
      </trkpt>
      <trkpt lat="48.13109" lon="-3.61117">
        <ele>130.6</ele>
        <time>2022-12-08T12:58:50Z</time>
      </trkpt>
      <trkpt lat="48.13103" lon="-3.6112">
        <ele>130.6</ele>
        <time>2022-12-08T12:58:51Z</time>
      </trkpt>
      <trkpt lat="48.13097" lon="-3.61123">
        <ele>130.5</ele>
        <time>2022-12-08T12:58:52Z</time>
      </trkpt>
      <trkpt lat="48.13091" lon="-3.61126">
        <ele>130.4</ele>
        <time>2022-12-08T12:58:53Z</time>
      </trkpt>
      <trkpt lat="48.13084" lon="-3.61129">
        <ele>130.3</ele>
        <time>2022-12-08T12:58:54Z</time>
      </trkpt>
      <trkpt lat="48.13078" lon="-3.61133">
        <ele>130.3</ele>
        <time>2022-12-08T12:58:55Z</time>
      </trkpt>
      <trkpt lat="48.13071" lon="-3.61135">
        <ele>130.2</ele>
        <time>2022-12-08T12:58:56Z</time>
      </trkpt>
      <trkpt lat="48.13066" lon="-3.6114">
        <ele>130.1</ele>
        <time>2022-12-08T12:58:57Z</time>
      </trkpt>
      <trkpt lat="48.1306" lon="-3.61145">
        <ele>130</ele>
        <time>2022-12-08T12:58:58Z</time>
      </trkpt>
      <trkpt lat="48.13054" lon="-3.61149">
        <ele>129.9</ele>
        <time>2022-12-08T12:58:59Z</time>
      </trkpt>
      <trkpt lat="48.13048" lon="-3.61154">
        <ele>129.8</ele>
        <time>2022-12-08T12:59:00Z</time>
      </trkpt>
      <trkpt lat="48.13043" lon="-3.61159">
        <ele>129.7</ele>
        <time>2022-12-08T12:59:01Z</time>
      </trkpt>
      <trkpt lat="48.13037" lon="-3.61166">
        <ele>129.6</ele>
        <time>2022-12-08T12:59:02Z</time>
      </trkpt>
      <trkpt lat="48.13032" lon="-3.61172">
        <ele>129.6</ele>
        <time>2022-12-08T12:59:03Z</time>
      </trkpt>
      <trkpt lat="48.13027" lon="-3.61178">
        <ele>129.5</ele>
        <time>2022-12-08T12:59:04Z</time>
      </trkpt>
      <trkpt lat="48.13022" lon="-3.61184">
        <ele>129.5</ele>
        <time>2022-12-08T12:59:05Z</time>
      </trkpt>
      <trkpt lat="48.13016" lon="-3.6119">
        <ele>129.4</ele>
        <time>2022-12-08T12:59:06Z</time>
      </trkpt>
      <trkpt lat="48.13011" lon="-3.61196">
        <ele>129.4</ele>
        <time>2022-12-08T12:59:07Z</time>
      </trkpt>
      <trkpt lat="48.13006" lon="-3.61202">
        <ele>129.3</ele>
        <time>2022-12-08T12:59:08Z</time>
      </trkpt>
      <trkpt lat="48.13001" lon="-3.61209">
        <ele>129.2</ele>
        <time>2022-12-08T12:59:09Z</time>
      </trkpt>
      <trkpt lat="48.12997" lon="-3.61216">
        <ele>129.1</ele>
        <time>2022-12-08T12:59:10Z</time>
      </trkpt>
      <trkpt lat="48.12992" lon="-3.61224">
        <ele>129</ele>
        <time>2022-12-08T12:59:11Z</time>
      </trkpt>
      <trkpt lat="48.12988" lon="-3.61232">
        <ele>128.8</ele>
        <time>2022-12-08T12:59:12Z</time>
      </trkpt>
      <trkpt lat="48.12983" lon="-3.61241">
        <ele>128.7</ele>
        <time>2022-12-08T12:59:13Z</time>
      </trkpt>
      <trkpt lat="48.12979" lon="-3.61249">
        <ele>128.6</ele>
        <time>2022-12-08T12:59:14Z</time>
      </trkpt>
      <trkpt lat="48.12975" lon="-3.61258">
        <ele>128.6</ele>
        <time>2022-12-08T12:59:15Z</time>
      </trkpt>
      <trkpt lat="48.12972" lon="-3.61266">
        <ele>128.5</ele>
        <time>2022-12-08T12:59:16Z</time>
      </trkpt>
      <trkpt lat="48.12969" lon="-3.61273">
        <ele>128.5</ele>
        <time>2022-12-08T12:59:17Z</time>
      </trkpt>
      <trkpt lat="48.12965" lon="-3.61281">
        <ele>128.4</ele>
        <time>2022-12-08T12:59:18Z</time>
      </trkpt>
      <trkpt lat="48.12961" lon="-3.6129">
        <ele>128.2</ele>
        <time>2022-12-08T12:59:19Z</time>
      </trkpt>
      <trkpt lat="48.12957" lon="-3.61299">
        <ele>128.1</ele>
        <time>2022-12-08T12:59:20Z</time>
      </trkpt>
      <trkpt lat="48.12954" lon="-3.61308">
        <ele>128</ele>
        <time>2022-12-08T12:59:21Z</time>
      </trkpt>
      <trkpt lat="48.1295" lon="-3.61316">
        <ele>127.9</ele>
        <time>2022-12-08T12:59:22Z</time>
      </trkpt>
      <trkpt lat="48.12948" lon="-3.61323">
        <ele>127.9</ele>
        <time>2022-12-08T12:59:23Z</time>
      </trkpt>
      <trkpt lat="48.12946" lon="-3.61331">
        <ele>127.8</ele>
        <time>2022-12-08T12:59:24Z</time>
      </trkpt>
      <trkpt lat="48.12943" lon="-3.6134">
        <ele>127.7</ele>
        <time>2022-12-08T12:59:25Z</time>
      </trkpt>
      <trkpt lat="48.1294" lon="-3.61351">
        <ele>127.6</ele>
        <time>2022-12-08T12:59:26Z</time>
      </trkpt>
      <trkpt lat="48.12937" lon="-3.61361">
        <ele>127.5</ele>
        <time>2022-12-08T12:59:27Z</time>
      </trkpt>
      <trkpt lat="48.12934" lon="-3.6137">
        <ele>127.4</ele>
        <time>2022-12-08T12:59:28Z</time>
      </trkpt>
      <trkpt lat="48.1293" lon="-3.6138">
        <ele>127.3</ele>
        <time>2022-12-08T12:59:29Z</time>
      </trkpt>
      <trkpt lat="48.12928" lon="-3.61389">
        <ele>127.3</ele>
        <time>2022-12-08T12:59:30Z</time>
      </trkpt>
      <trkpt lat="48.12925" lon="-3.61398">
        <ele>127.2</ele>
        <time>2022-12-08T12:59:31Z</time>
      </trkpt>
      <trkpt lat="48.12922" lon="-3.61408">
        <ele>127.1</ele>
        <time>2022-12-08T12:59:32Z</time>
      </trkpt>
      <trkpt lat="48.12919" lon="-3.61416">
        <ele>127.1</ele>
        <time>2022-12-08T12:59:33Z</time>
      </trkpt>
      <trkpt lat="48.12917" lon="-3.61424">
        <ele>127</ele>
        <time>2022-12-08T12:59:34Z</time>
      </trkpt>
      <trkpt lat="48.12914" lon="-3.61433">
        <ele>127</ele>
        <time>2022-12-08T12:59:35Z</time>
      </trkpt>
      <trkpt lat="48.12911" lon="-3.61442">
        <ele>126.9</ele>
        <time>2022-12-08T12:59:36Z</time>
      </trkpt>
      <trkpt lat="48.12909" lon="-3.61452">
        <ele>126.8</ele>
        <time>2022-12-08T12:59:37Z</time>
      </trkpt>
      <trkpt lat="48.12906" lon="-3.61461">
        <ele>126.8</ele>
        <time>2022-12-08T12:59:38Z</time>
      </trkpt>
      <trkpt lat="48.12903" lon="-3.61469">
        <ele>126.7</ele>
        <time>2022-12-08T12:59:39Z</time>
      </trkpt>
      <trkpt lat="48.129" lon="-3.61478">
        <ele>126.6</ele>
        <time>2022-12-08T12:59:40Z</time>
      </trkpt>
      <trkpt lat="48.12897" lon="-3.61487">
        <ele>126.5</ele>
        <time>2022-12-08T12:59:41Z</time>
      </trkpt>
      <trkpt lat="48.12895" lon="-3.61495">
        <ele>126.5</ele>
        <time>2022-12-08T12:59:42Z</time>
      </trkpt>
      <trkpt lat="48.12892" lon="-3.61505">
        <ele>126.4</ele>
        <time>2022-12-08T12:59:43Z</time>
      </trkpt>
      <trkpt lat="48.12889" lon="-3.61515">
        <ele>126.3</ele>
        <time>2022-12-08T12:59:44Z</time>
      </trkpt>
      <trkpt lat="48.12888" lon="-3.61524">
        <ele>126.2</ele>
        <time>2022-12-08T12:59:45Z</time>
      </trkpt>
      <trkpt lat="48.12885" lon="-3.61533">
        <ele>126.1</ele>
        <time>2022-12-08T12:59:46Z</time>
      </trkpt>
      <trkpt lat="48.12882" lon="-3.61542">
        <ele>126</ele>
        <time>2022-12-08T12:59:47Z</time>
      </trkpt>
      <trkpt lat="48.12879" lon="-3.6155">
        <ele>125.9</ele>
        <time>2022-12-08T12:59:48Z</time>
      </trkpt>
      <trkpt lat="48.12876" lon="-3.61558">
        <ele>125.8</ele>
        <time>2022-12-08T12:59:49Z</time>
      </trkpt>
      <trkpt lat="48.12873" lon="-3.61567">
        <ele>125.7</ele>
        <time>2022-12-08T12:59:50Z</time>
      </trkpt>
      <trkpt lat="48.1287" lon="-3.61576">
        <ele>125.6</ele>
        <time>2022-12-08T12:59:51Z</time>
      </trkpt>
      <trkpt lat="48.12866" lon="-3.61585">
        <ele>125.6</ele>
        <time>2022-12-08T12:59:52Z</time>
      </trkpt>
      <trkpt lat="48.12862" lon="-3.61593">
        <ele>125.5</ele>
        <time>2022-12-08T12:59:53Z</time>
      </trkpt>
      <trkpt lat="48.12858" lon="-3.616">
        <ele>125.4</ele>
        <time>2022-12-08T12:59:54Z</time>
      </trkpt>
      <trkpt lat="48.12853" lon="-3.61608">
        <ele>125.3</ele>
        <time>2022-12-08T12:59:55Z</time>
      </trkpt>
      <trkpt lat="48.12848" lon="-3.61616">
        <ele>125.2</ele>
        <time>2022-12-08T12:59:56Z</time>
      </trkpt>
      <trkpt lat="48.12843" lon="-3.61623">
        <ele>125.1</ele>
        <time>2022-12-08T12:59:57Z</time>
      </trkpt>
      <trkpt lat="48.12839" lon="-3.6163">
        <ele>125.1</ele>
        <time>2022-12-08T12:59:58Z</time>
      </trkpt>
      <trkpt lat="48.12834" lon="-3.61636">
        <ele>125</ele>
        <time>2022-12-08T12:59:59Z</time>
      </trkpt>
      <trkpt lat="48.12828" lon="-3.61642">
        <ele>125</ele>
        <time>2022-12-08T13:00:00Z</time>
      </trkpt>
      <trkpt lat="48.12824" lon="-3.61648">
        <ele>124.9</ele>
        <time>2022-12-08T13:00:01Z</time>
      </trkpt>
      <trkpt lat="48.12819" lon="-3.61653">
        <ele>124.9</ele>
        <time>2022-12-08T13:00:02Z</time>
      </trkpt>
      <trkpt lat="48.12814" lon="-3.61658">
        <ele>124.8</ele>
        <time>2022-12-08T13:00:03Z</time>
      </trkpt>
      <trkpt lat="48.12809" lon="-3.61663">
        <ele>124.8</ele>
        <time>2022-12-08T13:00:04Z</time>
      </trkpt>
      <trkpt lat="48.12806" lon="-3.61667">
        <ele>124.8</ele>
        <time>2022-12-08T13:00:05Z</time>
      </trkpt>
      <trkpt lat="48.12805" lon="-3.61673">
        <ele>124.8</ele>
        <time>2022-12-08T13:00:06Z</time>
      </trkpt>
      <trkpt lat="48.12803" lon="-3.6168">
        <ele>124.8</ele>
        <time>2022-12-08T13:00:07Z</time>
      </trkpt>
      <trkpt lat="48.12803" lon="-3.61682">
        <ele>124.7</ele>
        <time>2022-12-08T13:00:08Z</time>
      </trkpt>
      <trkpt lat="48.12801" lon="-3.61691">
        <ele>124.7</ele>
        <time>2022-12-08T13:00:09Z</time>
      </trkpt>
      <trkpt lat="48.12801" lon="-3.61695">
        <ele>124.7</ele>
        <time>2022-12-08T13:00:10Z</time>
      </trkpt>
      <trkpt lat="48.12798" lon="-3.617">
        <ele>124.8</ele>
        <time>2022-12-08T13:00:11Z</time>
      </trkpt>
      <trkpt lat="48.12794" lon="-3.61704">
        <ele>124.9</ele>
        <time>2022-12-08T13:00:12Z</time>
      </trkpt>
      <trkpt lat="48.12791" lon="-3.61705">
        <ele>124.9</ele>
        <time>2022-12-08T13:00:13Z</time>
      </trkpt>
      <trkpt lat="48.12786" lon="-3.61709">
        <ele>124.9</ele>
        <time>2022-12-08T13:00:14Z</time>
      </trkpt>
      <trkpt lat="48.12783" lon="-3.61712">
        <ele>124.8</ele>
        <time>2022-12-08T13:00:15Z</time>
      </trkpt>
      <trkpt lat="48.12778" lon="-3.61715">
        <ele>124.8</ele>
        <time>2022-12-08T13:00:16Z</time>
      </trkpt>
      <trkpt lat="48.12772" lon="-3.61717">
        <ele>124.7</ele>
        <time>2022-12-08T13:00:17Z</time>
      </trkpt>
      <trkpt lat="48.12767" lon="-3.61719">
        <ele>124.7</ele>
        <time>2022-12-08T13:00:18Z</time>
      </trkpt>
      <trkpt lat="48.12761" lon="-3.61722">
        <ele>124.6</ele>
        <time>2022-12-08T13:00:19Z</time>
      </trkpt>
      <trkpt lat="48.12756" lon="-3.61726">
        <ele>124.5</ele>
        <time>2022-12-08T13:00:20Z</time>
      </trkpt>
      <trkpt lat="48.12751" lon="-3.61733">
        <ele>124.5</ele>
        <time>2022-12-08T13:00:21Z</time>
      </trkpt>
      <trkpt lat="48.12746" lon="-3.61741">
        <ele>124.4</ele>
        <time>2022-12-08T13:00:22Z</time>
      </trkpt>
      <trkpt lat="48.12742" lon="-3.61749">
        <ele>124.4</ele>
        <time>2022-12-08T13:00:23Z</time>
      </trkpt>
      <trkpt lat="48.12738" lon="-3.61757">
        <ele>124.3</ele>
        <time>2022-12-08T13:00:24Z</time>
      </trkpt>
      <trkpt lat="48.12735" lon="-3.61766">
        <ele>124.2</ele>
        <time>2022-12-08T13:00:25Z</time>
      </trkpt>
      <trkpt lat="48.12731" lon="-3.61774">
        <ele>124.2</ele>
        <time>2022-12-08T13:00:26Z</time>
      </trkpt>
      <trkpt lat="48.12727" lon="-3.61781">
        <ele>124.1</ele>
        <time>2022-12-08T13:00:27Z</time>
      </trkpt>
      <trkpt lat="48.12723" lon="-3.61789">
        <ele>124</ele>
        <time>2022-12-08T13:00:28Z</time>
      </trkpt>
      <trkpt lat="48.12719" lon="-3.61796">
        <ele>123.9</ele>
        <time>2022-12-08T13:00:29Z</time>
      </trkpt>
      <trkpt lat="48.12715" lon="-3.61804">
        <ele>123.8</ele>
        <time>2022-12-08T13:00:30Z</time>
      </trkpt>
      <trkpt lat="48.12712" lon="-3.61812">
        <ele>123.6</ele>
        <time>2022-12-08T13:00:31Z</time>
      </trkpt>
      <trkpt lat="48.12708" lon="-3.6182">
        <ele>123.5</ele>
        <time>2022-12-08T13:00:32Z</time>
      </trkpt>
      <trkpt lat="48.12704" lon="-3.61828">
        <ele>123.4</ele>
        <time>2022-12-08T13:00:33Z</time>
      </trkpt>
      <trkpt lat="48.12701" lon="-3.61837">
        <ele>123.2</ele>
        <time>2022-12-08T13:00:34Z</time>
      </trkpt>
      <trkpt lat="48.12697" lon="-3.61846">
        <ele>123.1</ele>
        <time>2022-12-08T13:00:35Z</time>
      </trkpt>
      <trkpt lat="48.12693" lon="-3.61853">
        <ele>123</ele>
        <time>2022-12-08T13:00:36Z</time>
      </trkpt>
      <trkpt lat="48.1269" lon="-3.61861">
        <ele>122.8</ele>
        <time>2022-12-08T13:00:37Z</time>
      </trkpt>
      <trkpt lat="48.12686" lon="-3.6187">
        <ele>122.7</ele>
        <time>2022-12-08T13:00:38Z</time>
      </trkpt>
      <trkpt lat="48.12683" lon="-3.61878">
        <ele>122.6</ele>
        <time>2022-12-08T13:00:39Z</time>
      </trkpt>
      <trkpt lat="48.1268" lon="-3.61886">
        <ele>122.5</ele>
        <time>2022-12-08T13:00:40Z</time>
      </trkpt>
      <trkpt lat="48.12676" lon="-3.61894">
        <ele>122.4</ele>
        <time>2022-12-08T13:00:41Z</time>
      </trkpt>
      <trkpt lat="48.12673" lon="-3.61902">
        <ele>122.3</ele>
        <time>2022-12-08T13:00:42Z</time>
      </trkpt>
      <trkpt lat="48.1267" lon="-3.6191">
        <ele>122.2</ele>
        <time>2022-12-08T13:00:43Z</time>
      </trkpt>
      <trkpt lat="48.12667" lon="-3.61918">
        <ele>122.1</ele>
        <time>2022-12-08T13:00:44Z</time>
      </trkpt>
      <trkpt lat="48.12663" lon="-3.61926">
        <ele>122</ele>
        <time>2022-12-08T13:00:45Z</time>
      </trkpt>
      <trkpt lat="48.12659" lon="-3.61935">
        <ele>121.9</ele>
        <time>2022-12-08T13:00:46Z</time>
      </trkpt>
      <trkpt lat="48.12656" lon="-3.61943">
        <ele>121.8</ele>
        <time>2022-12-08T13:00:47Z</time>
      </trkpt>
      <trkpt lat="48.12653" lon="-3.61951">
        <ele>121.7</ele>
        <time>2022-12-08T13:00:48Z</time>
      </trkpt>
      <trkpt lat="48.12649" lon="-3.61959">
        <ele>121.6</ele>
        <time>2022-12-08T13:00:49Z</time>
      </trkpt>
      <trkpt lat="48.12646" lon="-3.61967">
        <ele>121.5</ele>
        <time>2022-12-08T13:00:50Z</time>
      </trkpt>
      <trkpt lat="48.12642" lon="-3.61976">
        <ele>121.4</ele>
        <time>2022-12-08T13:00:51Z</time>
      </trkpt>
      <trkpt lat="48.12638" lon="-3.61985">
        <ele>121.3</ele>
        <time>2022-12-08T13:00:52Z</time>
      </trkpt>
      <trkpt lat="48.12635" lon="-3.61993">
        <ele>121.2</ele>
        <time>2022-12-08T13:00:53Z</time>
      </trkpt>
      <trkpt lat="48.12631" lon="-3.62001">
        <ele>121.1</ele>
        <time>2022-12-08T13:00:54Z</time>
      </trkpt>
      <trkpt lat="48.12627" lon="-3.62009">
        <ele>121</ele>
        <time>2022-12-08T13:00:55Z</time>
      </trkpt>
      <trkpt lat="48.12624" lon="-3.62018">
        <ele>120.9</ele>
        <time>2022-12-08T13:00:56Z</time>
      </trkpt>
      <trkpt lat="48.1262" lon="-3.62026">
        <ele>120.7</ele>
        <time>2022-12-08T13:00:57Z</time>
      </trkpt>
      <trkpt lat="48.12617" lon="-3.62035">
        <ele>120.6</ele>
        <time>2022-12-08T13:00:58Z</time>
      </trkpt>
      <trkpt lat="48.12613" lon="-3.62044">
        <ele>120.5</ele>
        <time>2022-12-08T13:00:59Z</time>
      </trkpt>
      <trkpt lat="48.12609" lon="-3.62052">
        <ele>120.4</ele>
        <time>2022-12-08T13:01:00Z</time>
      </trkpt>
      <trkpt lat="48.12605" lon="-3.6206">
        <ele>120.3</ele>
        <time>2022-12-08T13:01:01Z</time>
      </trkpt>
      <trkpt lat="48.12602" lon="-3.62068">
        <ele>120.2</ele>
        <time>2022-12-08T13:01:02Z</time>
      </trkpt>
      <trkpt lat="48.12595" lon="-3.62084">
        <ele>119.9</ele>
        <time>2022-12-08T13:01:04Z</time>
      </trkpt>
      <trkpt lat="48.12591" lon="-3.62093">
        <ele>119.8</ele>
        <time>2022-12-08T13:01:05Z</time>
      </trkpt>
      <trkpt lat="48.12587" lon="-3.62101">
        <ele>119.6</ele>
        <time>2022-12-08T13:01:06Z</time>
      </trkpt>
      <trkpt lat="48.12584" lon="-3.6211">
        <ele>119.4</ele>
        <time>2022-12-08T13:01:07Z</time>
      </trkpt>
      <trkpt lat="48.12581" lon="-3.62119">
        <ele>119.3</ele>
        <time>2022-12-08T13:01:08Z</time>
      </trkpt>
      <trkpt lat="48.12577" lon="-3.62127">
        <ele>119.1</ele>
        <time>2022-12-08T13:01:09Z</time>
      </trkpt>
      <trkpt lat="48.12574" lon="-3.62136">
        <ele>118.9</ele>
        <time>2022-12-08T13:01:10Z</time>
      </trkpt>
      <trkpt lat="48.1257" lon="-3.62144">
        <ele>118.7</ele>
        <time>2022-12-08T13:01:11Z</time>
      </trkpt>
      <trkpt lat="48.12566" lon="-3.62152">
        <ele>118.6</ele>
        <time>2022-12-08T13:01:12Z</time>
      </trkpt>
      <trkpt lat="48.12563" lon="-3.6216">
        <ele>118.4</ele>
        <time>2022-12-08T13:01:13Z</time>
      </trkpt>
      <trkpt lat="48.12559" lon="-3.62168">
        <ele>118.2</ele>
        <time>2022-12-08T13:01:14Z</time>
      </trkpt>
      <trkpt lat="48.12556" lon="-3.62176">
        <ele>118.1</ele>
        <time>2022-12-08T13:01:15Z</time>
      </trkpt>
      <trkpt lat="48.12552" lon="-3.62184">
        <ele>117.9</ele>
        <time>2022-12-08T13:01:16Z</time>
      </trkpt>
      <trkpt lat="48.12549" lon="-3.62194">
        <ele>117.7</ele>
        <time>2022-12-08T13:01:17Z</time>
      </trkpt>
      <trkpt lat="48.12545" lon="-3.62202">
        <ele>117.6</ele>
        <time>2022-12-08T13:01:18Z</time>
      </trkpt>
      <trkpt lat="48.12542" lon="-3.6221">
        <ele>117.4</ele>
        <time>2022-12-08T13:01:19Z</time>
      </trkpt>
      <trkpt lat="48.12539" lon="-3.62218">
        <ele>117.3</ele>
        <time>2022-12-08T13:01:20Z</time>
      </trkpt>
      <trkpt lat="48.12535" lon="-3.62226">
        <ele>117.1</ele>
        <time>2022-12-08T13:01:21Z</time>
      </trkpt>
      <trkpt lat="48.12531" lon="-3.62234">
        <ele>116.9</ele>
        <time>2022-12-08T13:01:22Z</time>
      </trkpt>
      <trkpt lat="48.12527" lon="-3.62241">
        <ele>116.8</ele>
        <time>2022-12-08T13:01:23Z</time>
      </trkpt>
      <trkpt lat="48.12523" lon="-3.6225">
        <ele>116.6</ele>
        <time>2022-12-08T13:01:24Z</time>
      </trkpt>
      <trkpt lat="48.12519" lon="-3.62258">
        <ele>116.4</ele>
        <time>2022-12-08T13:01:25Z</time>
      </trkpt>
      <trkpt lat="48.12516" lon="-3.62266">
        <ele>116.2</ele>
        <time>2022-12-08T13:01:26Z</time>
      </trkpt>
      <trkpt lat="48.12511" lon="-3.62273">
        <ele>116</ele>
        <time>2022-12-08T13:01:27Z</time>
      </trkpt>
      <trkpt lat="48.12506" lon="-3.62281">
        <ele>115.8</ele>
        <time>2022-12-08T13:01:28Z</time>
      </trkpt>
      <trkpt lat="48.12502" lon="-3.62289">
        <ele>115.6</ele>
        <time>2022-12-08T13:01:29Z</time>
      </trkpt>
      <trkpt lat="48.12497" lon="-3.62297">
        <ele>115.4</ele>
        <time>2022-12-08T13:01:30Z</time>
      </trkpt>
      <trkpt lat="48.12492" lon="-3.62305">
        <ele>115.3</ele>
        <time>2022-12-08T13:01:31Z</time>
      </trkpt>
      <trkpt lat="48.12488" lon="-3.62312">
        <ele>115.1</ele>
        <time>2022-12-08T13:01:32Z</time>
      </trkpt>
      <trkpt lat="48.12483" lon="-3.6232">
        <ele>115</ele>
        <time>2022-12-08T13:01:33Z</time>
      </trkpt>
      <trkpt lat="48.12478" lon="-3.62328">
        <ele>114.8</ele>
        <time>2022-12-08T13:01:34Z</time>
      </trkpt>
      <trkpt lat="48.12473" lon="-3.62335">
        <ele>114.7</ele>
        <time>2022-12-08T13:01:35Z</time>
      </trkpt>
      <trkpt lat="48.12468" lon="-3.62342">
        <ele>114.5</ele>
        <time>2022-12-08T13:01:36Z</time>
      </trkpt>
      <trkpt lat="48.12462" lon="-3.62349">
        <ele>114.3</ele>
        <time>2022-12-08T13:01:37Z</time>
      </trkpt>
      <trkpt lat="48.12457" lon="-3.62356">
        <ele>114.2</ele>
        <time>2022-12-08T13:01:38Z</time>
      </trkpt>
      <trkpt lat="48.12452" lon="-3.62363">
        <ele>114.1</ele>
        <time>2022-12-08T13:01:39Z</time>
      </trkpt>
      <trkpt lat="48.12446" lon="-3.62369">
        <ele>114</ele>
        <time>2022-12-08T13:01:40Z</time>
      </trkpt>
      <trkpt lat="48.12441" lon="-3.62376">
        <ele>113.8</ele>
        <time>2022-12-08T13:01:41Z</time>
      </trkpt>
      <trkpt lat="48.12435" lon="-3.62383">
        <ele>113.7</ele>
        <time>2022-12-08T13:01:42Z</time>
      </trkpt>
      <trkpt lat="48.12431" lon="-3.62389">
        <ele>113.6</ele>
        <time>2022-12-08T13:01:43Z</time>
      </trkpt>
      <trkpt lat="48.12425" lon="-3.62395">
        <ele>113.4</ele>
        <time>2022-12-08T13:01:44Z</time>
      </trkpt>
      <trkpt lat="48.1242" lon="-3.62403">
        <ele>113.3</ele>
        <time>2022-12-08T13:01:45Z</time>
      </trkpt>
      <trkpt lat="48.12415" lon="-3.6241">
        <ele>113.2</ele>
        <time>2022-12-08T13:01:46Z</time>
      </trkpt>
      <trkpt lat="48.1241" lon="-3.62416">
        <ele>113.1</ele>
        <time>2022-12-08T13:01:47Z</time>
      </trkpt>
      <trkpt lat="48.12404" lon="-3.62423">
        <ele>113</ele>
        <time>2022-12-08T13:01:48Z</time>
      </trkpt>
      <trkpt lat="48.12399" lon="-3.62431">
        <ele>113</ele>
        <time>2022-12-08T13:01:49Z</time>
      </trkpt>
      <trkpt lat="48.12394" lon="-3.62437">
        <ele>112.9</ele>
        <time>2022-12-08T13:01:50Z</time>
      </trkpt>
      <trkpt lat="48.12389" lon="-3.62443">
        <ele>112.9</ele>
        <time>2022-12-08T13:01:51Z</time>
      </trkpt>
      <trkpt lat="48.12383" lon="-3.6245">
        <ele>112.9</ele>
        <time>2022-12-08T13:01:52Z</time>
      </trkpt>
      <trkpt lat="48.12378" lon="-3.62456">
        <ele>112.9</ele>
        <time>2022-12-08T13:01:53Z</time>
      </trkpt>
      <trkpt lat="48.12374" lon="-3.62463">
        <ele>112.8</ele>
        <time>2022-12-08T13:01:54Z</time>
      </trkpt>
      <trkpt lat="48.1237" lon="-3.62468">
        <ele>112.8</ele>
        <time>2022-12-08T13:01:55Z</time>
      </trkpt>
      <trkpt lat="48.12365" lon="-3.62474">
        <ele>112.7</ele>
        <time>2022-12-08T13:01:56Z</time>
      </trkpt>
      <trkpt lat="48.1236" lon="-3.6248">
        <ele>112.7</ele>
        <time>2022-12-08T13:01:57Z</time>
      </trkpt>
      <trkpt lat="48.12355" lon="-3.62486">
        <ele>112.7</ele>
        <time>2022-12-08T13:01:58Z</time>
      </trkpt>
      <trkpt lat="48.1235" lon="-3.62493">
        <ele>112.7</ele>
        <time>2022-12-08T13:01:59Z</time>
      </trkpt>
      <trkpt lat="48.12346" lon="-3.625">
        <ele>112.7</ele>
        <time>2022-12-08T13:02:00Z</time>
      </trkpt>
      <trkpt lat="48.12341" lon="-3.62506">
        <ele>112.6</ele>
        <time>2022-12-08T13:02:01Z</time>
      </trkpt>
      <trkpt lat="48.12336" lon="-3.62511">
        <ele>112.6</ele>
        <time>2022-12-08T13:02:02Z</time>
      </trkpt>
      <trkpt lat="48.12332" lon="-3.62516">
        <ele>112.5</ele>
        <time>2022-12-08T13:02:03Z</time>
      </trkpt>
      <trkpt lat="48.12328" lon="-3.62521">
        <ele>112.5</ele>
        <time>2022-12-08T13:02:04Z</time>
      </trkpt>
      <trkpt lat="48.12323" lon="-3.62526">
        <ele>112.5</ele>
        <time>2022-12-08T13:02:05Z</time>
      </trkpt>
      <trkpt lat="48.12318" lon="-3.62532">
        <ele>112.5</ele>
        <time>2022-12-08T13:02:06Z</time>
      </trkpt>
      <trkpt lat="48.12314" lon="-3.62536">
        <ele>112.5</ele>
        <time>2022-12-08T13:02:07Z</time>
      </trkpt>
      <trkpt lat="48.12308" lon="-3.6254">
        <ele>112.6</ele>
        <time>2022-12-08T13:02:08Z</time>
      </trkpt>
      <trkpt lat="48.12305" lon="-3.62546">
        <ele>112.6</ele>
        <time>2022-12-08T13:02:09Z</time>
      </trkpt>
      <trkpt lat="48.12301" lon="-3.62552">
        <ele>112.6</ele>
        <time>2022-12-08T13:02:10Z</time>
      </trkpt>
      <trkpt lat="48.12297" lon="-3.6256">
        <ele>112.6</ele>
        <time>2022-12-08T13:02:11Z</time>
      </trkpt>
      <trkpt lat="48.12292" lon="-3.62566">
        <ele>112.6</ele>
        <time>2022-12-08T13:02:12Z</time>
      </trkpt>
      <trkpt lat="48.12288" lon="-3.62573">
        <ele>112.6</ele>
        <time>2022-12-08T13:02:13Z</time>
      </trkpt>
      <trkpt lat="48.12283" lon="-3.62578">
        <ele>112.6</ele>
        <time>2022-12-08T13:02:14Z</time>
      </trkpt>
      <trkpt lat="48.12278" lon="-3.62583">
        <ele>112.6</ele>
        <time>2022-12-08T13:02:15Z</time>
      </trkpt>
      <trkpt lat="48.12273" lon="-3.62588">
        <ele>112.6</ele>
        <time>2022-12-08T13:02:16Z</time>
      </trkpt>
      <trkpt lat="48.12269" lon="-3.62594">
        <ele>112.6</ele>
        <time>2022-12-08T13:02:17Z</time>
      </trkpt>
      <trkpt lat="48.12264" lon="-3.62599">
        <ele>112.5</ele>
        <time>2022-12-08T13:02:18Z</time>
      </trkpt>
      <trkpt lat="48.1226" lon="-3.62605">
        <ele>112.5</ele>
        <time>2022-12-08T13:02:19Z</time>
      </trkpt>
      <trkpt lat="48.12256" lon="-3.62611">
        <ele>112.5</ele>
        <time>2022-12-08T13:02:20Z</time>
      </trkpt>
      <trkpt lat="48.12251" lon="-3.62617">
        <ele>112.4</ele>
        <time>2022-12-08T13:02:21Z</time>
      </trkpt>
      <trkpt lat="48.12246" lon="-3.62623">
        <ele>112.4</ele>
        <time>2022-12-08T13:02:22Z</time>
      </trkpt>
      <trkpt lat="48.12241" lon="-3.6263">
        <ele>112.4</ele>
        <time>2022-12-08T13:02:23Z</time>
      </trkpt>
      <trkpt lat="48.12236" lon="-3.62635">
        <ele>112.4</ele>
        <time>2022-12-08T13:02:24Z</time>
      </trkpt>
      <trkpt lat="48.12231" lon="-3.62641">
        <ele>112.4</ele>
        <time>2022-12-08T13:02:25Z</time>
      </trkpt>
      <trkpt lat="48.12227" lon="-3.62647">
        <ele>112.4</ele>
        <time>2022-12-08T13:02:26Z</time>
      </trkpt>
      <trkpt lat="48.12222" lon="-3.62653">
        <ele>112.4</ele>
        <time>2022-12-08T13:02:27Z</time>
      </trkpt>
      <trkpt lat="48.12217" lon="-3.62658">
        <ele>112.4</ele>
        <time>2022-12-08T13:02:28Z</time>
      </trkpt>
      <trkpt lat="48.12214" lon="-3.62663">
        <ele>112.3</ele>
        <time>2022-12-08T13:02:29Z</time>
      </trkpt>
      <trkpt lat="48.1221" lon="-3.62669">
        <ele>112.3</ele>
        <time>2022-12-08T13:02:30Z</time>
      </trkpt>
      <trkpt lat="48.12205" lon="-3.62675">
        <ele>112.3</ele>
        <time>2022-12-08T13:02:31Z</time>
      </trkpt>
      <trkpt lat="48.12201" lon="-3.6268">
        <ele>112.3</ele>
        <time>2022-12-08T13:02:32Z</time>
      </trkpt>
      <trkpt lat="48.12196" lon="-3.62686">
        <ele>112.3</ele>
        <time>2022-12-08T13:02:33Z</time>
      </trkpt>
      <trkpt lat="48.12191" lon="-3.62691">
        <ele>112.3</ele>
        <time>2022-12-08T13:02:34Z</time>
      </trkpt>
      <trkpt lat="48.12187" lon="-3.62697">
        <ele>112.3</ele>
        <time>2022-12-08T13:02:35Z</time>
      </trkpt>
      <trkpt lat="48.12183" lon="-3.62702">
        <ele>112.3</ele>
        <time>2022-12-08T13:02:36Z</time>
      </trkpt>
      <trkpt lat="48.12178" lon="-3.62707">
        <ele>112.3</ele>
        <time>2022-12-08T13:02:37Z</time>
      </trkpt>
      <trkpt lat="48.12173" lon="-3.62711">
        <ele>112.3</ele>
        <time>2022-12-08T13:02:38Z</time>
      </trkpt>
      <trkpt lat="48.12168" lon="-3.62716">
        <ele>112.3</ele>
        <time>2022-12-08T13:02:39Z</time>
      </trkpt>
      <trkpt lat="48.12163" lon="-3.6272">
        <ele>112.4</ele>
        <time>2022-12-08T13:02:40Z</time>
      </trkpt>
      <trkpt lat="48.12159" lon="-3.62724">
        <ele>112.4</ele>
        <time>2022-12-08T13:02:41Z</time>
      </trkpt>
      <trkpt lat="48.12154" lon="-3.62729">
        <ele>112.4</ele>
        <time>2022-12-08T13:02:42Z</time>
      </trkpt>
      <trkpt lat="48.1215" lon="-3.62734">
        <ele>112.4</ele>
        <time>2022-12-08T13:02:43Z</time>
      </trkpt>
      <trkpt lat="48.12146" lon="-3.62737">
        <ele>112.3</ele>
        <time>2022-12-08T13:02:44Z</time>
      </trkpt>
      <trkpt lat="48.12144" lon="-3.62739">
        <ele>112.3</ele>
        <time>2022-12-08T13:02:45Z</time>
      </trkpt>
      <trkpt lat="48.1214" lon="-3.62741">
        <ele>112.2</ele>
        <time>2022-12-08T13:02:46Z</time>
      </trkpt>
      <trkpt lat="48.12136" lon="-3.62744">
        <ele>111.9</ele>
        <time>2022-12-08T13:02:47Z</time>
      </trkpt>
      <trkpt lat="48.12132" lon="-3.62746">
        <ele>111.3</ele>
        <time>2022-12-08T13:02:48Z</time>
      </trkpt>
      <trkpt lat="48.12129" lon="-3.6275">
        <ele>111.2</ele>
        <time>2022-12-08T13:02:49Z</time>
      </trkpt>
      <trkpt lat="48.12126" lon="-3.62755">
        <ele>111</ele>
        <time>2022-12-08T13:02:50Z</time>
      </trkpt>
      <trkpt lat="48.12122" lon="-3.62762">
        <ele>110.7</ele>
        <time>2022-12-08T13:02:51Z</time>
      </trkpt>
      <trkpt lat="48.1212" lon="-3.6277">
        <ele>110.5</ele>
        <time>2022-12-08T13:02:52Z</time>
      </trkpt>
      <trkpt lat="48.12117" lon="-3.62776">
        <ele>110.3</ele>
        <time>2022-12-08T13:02:53Z</time>
      </trkpt>
      <trkpt lat="48.12115" lon="-3.62783">
        <ele>110.2</ele>
        <time>2022-12-08T13:02:54Z</time>
      </trkpt>
      <trkpt lat="48.12112" lon="-3.62789">
        <ele>110.3</ele>
        <time>2022-12-08T13:02:55Z</time>
      </trkpt>
      <trkpt lat="48.12108" lon="-3.62794">
        <ele>110.4</ele>
        <time>2022-12-08T13:02:56Z</time>
      </trkpt>
      <trkpt lat="48.12102" lon="-3.62795">
        <ele>110.7</ele>
        <time>2022-12-08T13:02:57Z</time>
      </trkpt>
      <trkpt lat="48.12095" lon="-3.62793">
        <ele>110.7</ele>
        <time>2022-12-08T13:02:58Z</time>
      </trkpt>
      <trkpt lat="48.1209" lon="-3.6279">
        <ele>110.7</ele>
        <time>2022-12-08T13:02:59Z</time>
      </trkpt>
      <trkpt lat="48.12084" lon="-3.62787">
        <ele>110.7</ele>
        <time>2022-12-08T13:03:00Z</time>
      </trkpt>
      <trkpt lat="48.12078" lon="-3.62784">
        <ele>110.7</ele>
        <time>2022-12-08T13:03:01Z</time>
      </trkpt>
      <trkpt lat="48.12073" lon="-3.62783">
        <ele>110.8</ele>
        <time>2022-12-08T13:03:02Z</time>
      </trkpt>
      <trkpt lat="48.12067" lon="-3.62781">
        <ele>110.8</ele>
        <time>2022-12-08T13:03:03Z</time>
      </trkpt>
      <trkpt lat="48.12062" lon="-3.62781">
        <ele>110.7</ele>
        <time>2022-12-08T13:03:04Z</time>
      </trkpt>
      <trkpt lat="48.12056" lon="-3.62781">
        <ele>110.6</ele>
        <time>2022-12-08T13:03:05Z</time>
      </trkpt>
      <trkpt lat="48.12051" lon="-3.62783">
        <ele>110.5</ele>
        <time>2022-12-08T13:03:06Z</time>
      </trkpt>
      <trkpt lat="48.12045" lon="-3.62784">
        <ele>110.5</ele>
        <time>2022-12-08T13:03:07Z</time>
      </trkpt>
      <trkpt lat="48.12039" lon="-3.62784">
        <ele>110.3</ele>
        <time>2022-12-08T13:03:08Z</time>
      </trkpt>
      <trkpt lat="48.12032" lon="-3.62785">
        <ele>110.2</ele>
        <time>2022-12-08T13:03:09Z</time>
      </trkpt>
      <trkpt lat="48.12026" lon="-3.62785">
        <ele>110.1</ele>
        <time>2022-12-08T13:03:10Z</time>
      </trkpt>
      <trkpt lat="48.1202" lon="-3.62785">
        <ele>110</ele>
        <time>2022-12-08T13:03:11Z</time>
      </trkpt>
      <trkpt lat="48.12014" lon="-3.62785">
        <ele>109.9</ele>
        <time>2022-12-08T13:03:12Z</time>
      </trkpt>
      <trkpt lat="48.12008" lon="-3.62785">
        <ele>109.8</ele>
        <time>2022-12-08T13:03:13Z</time>
      </trkpt>
      <trkpt lat="48.12002" lon="-3.62785">
        <ele>109.6</ele>
        <time>2022-12-08T13:03:14Z</time>
      </trkpt>
      <trkpt lat="48.11995" lon="-3.62785">
        <ele>109.5</ele>
        <time>2022-12-08T13:03:15Z</time>
      </trkpt>
      <trkpt lat="48.11989" lon="-3.62785">
        <ele>109.4</ele>
        <time>2022-12-08T13:03:16Z</time>
      </trkpt>
      <trkpt lat="48.11982" lon="-3.62785">
        <ele>109.3</ele>
        <time>2022-12-08T13:03:17Z</time>
      </trkpt>
      <trkpt lat="48.11976" lon="-3.62783">
        <ele>109.2</ele>
        <time>2022-12-08T13:03:18Z</time>
      </trkpt>
      <trkpt lat="48.11969" lon="-3.62782">
        <ele>109.2</ele>
        <time>2022-12-08T13:03:19Z</time>
      </trkpt>
      <trkpt lat="48.11962" lon="-3.62781">
        <ele>109.1</ele>
        <time>2022-12-08T13:03:20Z</time>
      </trkpt>
      <trkpt lat="48.11955" lon="-3.62779">
        <ele>109</ele>
        <time>2022-12-08T13:03:21Z</time>
      </trkpt>
      <trkpt lat="48.11949" lon="-3.62778">
        <ele>108.9</ele>
        <time>2022-12-08T13:03:22Z</time>
      </trkpt>
      <trkpt lat="48.11943" lon="-3.62776">
        <ele>108.8</ele>
        <time>2022-12-08T13:03:23Z</time>
      </trkpt>
      <trkpt lat="48.11936" lon="-3.62774">
        <ele>108.8</ele>
        <time>2022-12-08T13:03:24Z</time>
      </trkpt>
      <trkpt lat="48.1193" lon="-3.62773">
        <ele>108.7</ele>
        <time>2022-12-08T13:03:25Z</time>
      </trkpt>
      <trkpt lat="48.11923" lon="-3.62771">
        <ele>108.6</ele>
        <time>2022-12-08T13:03:26Z</time>
      </trkpt>
      <trkpt lat="48.11916" lon="-3.62769">
        <ele>108.5</ele>
        <time>2022-12-08T13:03:27Z</time>
      </trkpt>
      <trkpt lat="48.11911" lon="-3.62766">
        <ele>108.5</ele>
        <time>2022-12-08T13:03:28Z</time>
      </trkpt>
      <trkpt lat="48.11904" lon="-3.62765">
        <ele>108.4</ele>
        <time>2022-12-08T13:03:29Z</time>
      </trkpt>
      <trkpt lat="48.11897" lon="-3.62763">
        <ele>108.3</ele>
        <time>2022-12-08T13:03:30Z</time>
      </trkpt>
      <trkpt lat="48.11891" lon="-3.62761">
        <ele>108.2</ele>
        <time>2022-12-08T13:03:31Z</time>
      </trkpt>
      <trkpt lat="48.11884" lon="-3.6276">
        <ele>108.1</ele>
        <time>2022-12-08T13:03:32Z</time>
      </trkpt>
      <trkpt lat="48.11878" lon="-3.6276">
        <ele>108.1</ele>
        <time>2022-12-08T13:03:33Z</time>
      </trkpt>
      <trkpt lat="48.11872" lon="-3.62758">
        <ele>108</ele>
        <time>2022-12-08T13:03:34Z</time>
      </trkpt>
      <trkpt lat="48.11865" lon="-3.62755">
        <ele>107.9</ele>
        <time>2022-12-08T13:03:35Z</time>
      </trkpt>
      <trkpt lat="48.11859" lon="-3.62752">
        <ele>107.8</ele>
        <time>2022-12-08T13:03:36Z</time>
      </trkpt>
      <trkpt lat="48.11853" lon="-3.6275">
        <ele>107.7</ele>
        <time>2022-12-08T13:03:37Z</time>
      </trkpt>
      <trkpt lat="48.11846" lon="-3.62749">
        <ele>107.6</ele>
        <time>2022-12-08T13:03:38Z</time>
      </trkpt>
      <trkpt lat="48.11839" lon="-3.62747">
        <ele>107.5</ele>
        <time>2022-12-08T13:03:39Z</time>
      </trkpt>
      <trkpt lat="48.11833" lon="-3.62746">
        <ele>107.5</ele>
        <time>2022-12-08T13:03:40Z</time>
      </trkpt>
      <trkpt lat="48.11826" lon="-3.62745">
        <ele>107.4</ele>
        <time>2022-12-08T13:03:41Z</time>
      </trkpt>
      <trkpt lat="48.11819" lon="-3.62744">
        <ele>107.4</ele>
        <time>2022-12-08T13:03:42Z</time>
      </trkpt>
      <trkpt lat="48.11814" lon="-3.62743">
        <ele>107.4</ele>
        <time>2022-12-08T13:03:43Z</time>
      </trkpt>
      <trkpt lat="48.11808" lon="-3.62742">
        <ele>107.4</ele>
        <time>2022-12-08T13:03:44Z</time>
      </trkpt>
      <trkpt lat="48.11802" lon="-3.62741">
        <ele>107.4</ele>
        <time>2022-12-08T13:03:45Z</time>
      </trkpt>
      <trkpt lat="48.11796" lon="-3.62739">
        <ele>107.4</ele>
        <time>2022-12-08T13:03:46Z</time>
      </trkpt>
      <trkpt lat="48.1179" lon="-3.62739">
        <ele>107.4</ele>
        <time>2022-12-08T13:03:47Z</time>
      </trkpt>
      <trkpt lat="48.11784" lon="-3.62738">
        <ele>107.4</ele>
        <time>2022-12-08T13:03:48Z</time>
      </trkpt>
      <trkpt lat="48.11778" lon="-3.62737">
        <ele>107.4</ele>
        <time>2022-12-08T13:03:49Z</time>
      </trkpt>
      <trkpt lat="48.11772" lon="-3.62737">
        <ele>107.4</ele>
        <time>2022-12-08T13:03:50Z</time>
      </trkpt>
      <trkpt lat="48.11766" lon="-3.62736">
        <ele>107.4</ele>
        <time>2022-12-08T13:03:51Z</time>
      </trkpt>
      <trkpt lat="48.11759" lon="-3.62735">
        <ele>107.5</ele>
        <time>2022-12-08T13:03:52Z</time>
      </trkpt>
      <trkpt lat="48.11753" lon="-3.62735">
        <ele>107.5</ele>
        <time>2022-12-08T13:03:53Z</time>
      </trkpt>
      <trkpt lat="48.11747" lon="-3.62734">
        <ele>107.5</ele>
        <time>2022-12-08T13:03:54Z</time>
      </trkpt>
      <trkpt lat="48.11741" lon="-3.62734">
        <ele>107.5</ele>
        <time>2022-12-08T13:03:55Z</time>
      </trkpt>
      <trkpt lat="48.11735" lon="-3.62734">
        <ele>107.5</ele>
        <time>2022-12-08T13:03:56Z</time>
      </trkpt>
      <trkpt lat="48.11729" lon="-3.62734">
        <ele>107.6</ele>
        <time>2022-12-08T13:03:57Z</time>
      </trkpt>
      <trkpt lat="48.11723" lon="-3.62735">
        <ele>107.6</ele>
        <time>2022-12-08T13:03:58Z</time>
      </trkpt>
      <trkpt lat="48.11717" lon="-3.62735">
        <ele>107.6</ele>
        <time>2022-12-08T13:03:59Z</time>
      </trkpt>
      <trkpt lat="48.11712" lon="-3.62735">
        <ele>107.6</ele>
        <time>2022-12-08T13:04:00Z</time>
      </trkpt>
      <trkpt lat="48.11706" lon="-3.62736">
        <ele>107.6</ele>
        <time>2022-12-08T13:04:01Z</time>
      </trkpt>
      <trkpt lat="48.117" lon="-3.62736">
        <ele>107.6</ele>
        <time>2022-12-08T13:04:02Z</time>
      </trkpt>
      <trkpt lat="48.11695" lon="-3.62737">
        <ele>107.6</ele>
        <time>2022-12-08T13:04:03Z</time>
      </trkpt>
      <trkpt lat="48.11689" lon="-3.62738">
        <ele>107.5</ele>
        <time>2022-12-08T13:04:04Z</time>
      </trkpt>
      <trkpt lat="48.11683" lon="-3.62739">
        <ele>107.6</ele>
        <time>2022-12-08T13:04:05Z</time>
      </trkpt>
      <trkpt lat="48.11678" lon="-3.6274">
        <ele>107.6</ele>
        <time>2022-12-08T13:04:06Z</time>
      </trkpt>
      <trkpt lat="48.11673" lon="-3.62742">
        <ele>107.6</ele>
        <time>2022-12-08T13:04:07Z</time>
      </trkpt>
      <trkpt lat="48.11667" lon="-3.62743">
        <ele>107.6</ele>
        <time>2022-12-08T13:04:08Z</time>
      </trkpt>
      <trkpt lat="48.11662" lon="-3.62745">
        <ele>107.6</ele>
        <time>2022-12-08T13:04:09Z</time>
      </trkpt>
      <trkpt lat="48.11656" lon="-3.62745">
        <ele>107.5</ele>
        <time>2022-12-08T13:04:10Z</time>
      </trkpt>
      <trkpt lat="48.1165" lon="-3.62746">
        <ele>107.4</ele>
        <time>2022-12-08T13:04:11Z</time>
      </trkpt>
      <trkpt lat="48.11645" lon="-3.62748">
        <ele>107.4</ele>
        <time>2022-12-08T13:04:12Z</time>
      </trkpt>
      <trkpt lat="48.1164" lon="-3.62751">
        <ele>107.3</ele>
        <time>2022-12-08T13:04:13Z</time>
      </trkpt>
      <trkpt lat="48.11634" lon="-3.62753">
        <ele>107.3</ele>
        <time>2022-12-08T13:04:14Z</time>
      </trkpt>
      <trkpt lat="48.11628" lon="-3.62755">
        <ele>107.2</ele>
        <time>2022-12-08T13:04:15Z</time>
      </trkpt>
      <trkpt lat="48.11622" lon="-3.62756">
        <ele>107.2</ele>
        <time>2022-12-08T13:04:16Z</time>
      </trkpt>
      <trkpt lat="48.11616" lon="-3.62759">
        <ele>107.2</ele>
        <time>2022-12-08T13:04:17Z</time>
      </trkpt>
      <trkpt lat="48.1161" lon="-3.62761">
        <ele>107.2</ele>
        <time>2022-12-08T13:04:18Z</time>
      </trkpt>
      <trkpt lat="48.11605" lon="-3.62764">
        <ele>107.2</ele>
        <time>2022-12-08T13:04:19Z</time>
      </trkpt>
      <trkpt lat="48.11599" lon="-3.62766">
        <ele>107.2</ele>
        <time>2022-12-08T13:04:20Z</time>
      </trkpt>
      <trkpt lat="48.11593" lon="-3.62768">
        <ele>107.2</ele>
        <time>2022-12-08T13:04:21Z</time>
      </trkpt>
      <trkpt lat="48.11588" lon="-3.6277">
        <ele>107.2</ele>
        <time>2022-12-08T13:04:22Z</time>
      </trkpt>
      <trkpt lat="48.11582" lon="-3.62772">
        <ele>107.2</ele>
        <time>2022-12-08T13:04:23Z</time>
      </trkpt>
      <trkpt lat="48.11576" lon="-3.62775">
        <ele>107.2</ele>
        <time>2022-12-08T13:04:24Z</time>
      </trkpt>
      <trkpt lat="48.1157" lon="-3.62777">
        <ele>107.2</ele>
        <time>2022-12-08T13:04:25Z</time>
      </trkpt>
      <trkpt lat="48.11564" lon="-3.62779">
        <ele>107.1</ele>
        <time>2022-12-08T13:04:26Z</time>
      </trkpt>
      <trkpt lat="48.11558" lon="-3.62781">
        <ele>107.1</ele>
        <time>2022-12-08T13:04:27Z</time>
      </trkpt>
      <trkpt lat="48.11552" lon="-3.62783">
        <ele>107.1</ele>
        <time>2022-12-08T13:04:28Z</time>
      </trkpt>
      <trkpt lat="48.11546" lon="-3.62785">
        <ele>107.2</ele>
        <time>2022-12-08T13:04:29Z</time>
      </trkpt>
      <trkpt lat="48.11541" lon="-3.62788">
        <ele>107.2</ele>
        <time>2022-12-08T13:04:30Z</time>
      </trkpt>
      <trkpt lat="48.11535" lon="-3.62791">
        <ele>107.2</ele>
        <time>2022-12-08T13:04:31Z</time>
      </trkpt>
      <trkpt lat="48.1153" lon="-3.62793">
        <ele>107.2</ele>
        <time>2022-12-08T13:04:32Z</time>
      </trkpt>
      <trkpt lat="48.11524" lon="-3.62795">
        <ele>107.2</ele>
        <time>2022-12-08T13:04:33Z</time>
      </trkpt>
      <trkpt lat="48.11519" lon="-3.62797">
        <ele>107.2</ele>
        <time>2022-12-08T13:04:34Z</time>
      </trkpt>
      <trkpt lat="48.11513" lon="-3.628">
        <ele>107.3</ele>
        <time>2022-12-08T13:04:35Z</time>
      </trkpt>
      <trkpt lat="48.11508" lon="-3.62801">
        <ele>107.3</ele>
        <time>2022-12-08T13:04:36Z</time>
      </trkpt>
      <trkpt lat="48.11502" lon="-3.62802">
        <ele>107.3</ele>
        <time>2022-12-08T13:04:37Z</time>
      </trkpt>
      <trkpt lat="48.11496" lon="-3.62803">
        <ele>107.3</ele>
        <time>2022-12-08T13:04:38Z</time>
      </trkpt>
      <trkpt lat="48.1149" lon="-3.62806">
        <ele>107.2</ele>
        <time>2022-12-08T13:04:39Z</time>
      </trkpt>
      <trkpt lat="48.11485" lon="-3.62808">
        <ele>107.2</ele>
        <time>2022-12-08T13:04:40Z</time>
      </trkpt>
      <trkpt lat="48.11479" lon="-3.62811">
        <ele>107.2</ele>
        <time>2022-12-08T13:04:41Z</time>
      </trkpt>
      <trkpt lat="48.11473" lon="-3.62813">
        <ele>107.2</ele>
        <time>2022-12-08T13:04:42Z</time>
      </trkpt>
      <trkpt lat="48.11467" lon="-3.62815">
        <ele>107.2</ele>
        <time>2022-12-08T13:04:43Z</time>
      </trkpt>
      <trkpt lat="48.11461" lon="-3.62817">
        <ele>107.3</ele>
        <time>2022-12-08T13:04:44Z</time>
      </trkpt>
      <trkpt lat="48.11456" lon="-3.6282">
        <ele>107.3</ele>
        <time>2022-12-08T13:04:45Z</time>
      </trkpt>
      <trkpt lat="48.11451" lon="-3.62822">
        <ele>107.3</ele>
        <time>2022-12-08T13:04:46Z</time>
      </trkpt>
      <trkpt lat="48.11444" lon="-3.62824">
        <ele>107.3</ele>
        <time>2022-12-08T13:04:47Z</time>
      </trkpt>
      <trkpt lat="48.11439" lon="-3.62826">
        <ele>107.3</ele>
        <time>2022-12-08T13:04:48Z</time>
      </trkpt>
      <trkpt lat="48.11434" lon="-3.62828">
        <ele>107.3</ele>
        <time>2022-12-08T13:04:49Z</time>
      </trkpt>
      <trkpt lat="48.11428" lon="-3.6283">
        <ele>107.3</ele>
        <time>2022-12-08T13:04:50Z</time>
      </trkpt>
      <trkpt lat="48.11423" lon="-3.62832">
        <ele>107.3</ele>
        <time>2022-12-08T13:04:51Z</time>
      </trkpt>
      <trkpt lat="48.11417" lon="-3.62834">
        <ele>107.3</ele>
        <time>2022-12-08T13:04:52Z</time>
      </trkpt>
      <trkpt lat="48.11411" lon="-3.62836">
        <ele>107.3</ele>
        <time>2022-12-08T13:04:53Z</time>
      </trkpt>
      <trkpt lat="48.11405" lon="-3.62839">
        <ele>107.3</ele>
        <time>2022-12-08T13:04:54Z</time>
      </trkpt>
      <trkpt lat="48.114" lon="-3.62842">
        <ele>107.3</ele>
        <time>2022-12-08T13:04:55Z</time>
      </trkpt>
      <trkpt lat="48.11393" lon="-3.62843">
        <ele>107.3</ele>
        <time>2022-12-08T13:04:56Z</time>
      </trkpt>
      <trkpt lat="48.11387" lon="-3.62845">
        <ele>107.3</ele>
        <time>2022-12-08T13:04:57Z</time>
      </trkpt>
      <trkpt lat="48.11382" lon="-3.62847">
        <ele>107.2</ele>
        <time>2022-12-08T13:04:58Z</time>
      </trkpt>
      <trkpt lat="48.11376" lon="-3.62849">
        <ele>107.2</ele>
        <time>2022-12-08T13:04:59Z</time>
      </trkpt>
      <trkpt lat="48.11371" lon="-3.62851">
        <ele>107.2</ele>
        <time>2022-12-08T13:05:00Z</time>
      </trkpt>
      <trkpt lat="48.11365" lon="-3.62854">
        <ele>107.2</ele>
        <time>2022-12-08T13:05:01Z</time>
      </trkpt>
      <trkpt lat="48.11359" lon="-3.62856">
        <ele>107.1</ele>
        <time>2022-12-08T13:05:02Z</time>
      </trkpt>
      <trkpt lat="48.11354" lon="-3.62858">
        <ele>107.1</ele>
        <time>2022-12-08T13:05:03Z</time>
      </trkpt>
      <trkpt lat="48.11348" lon="-3.6286">
        <ele>107.1</ele>
        <time>2022-12-08T13:05:04Z</time>
      </trkpt>
      <trkpt lat="48.11342" lon="-3.62861">
        <ele>107</ele>
        <time>2022-12-08T13:05:05Z</time>
      </trkpt>
      <trkpt lat="48.11336" lon="-3.62863">
        <ele>107</ele>
        <time>2022-12-08T13:05:06Z</time>
      </trkpt>
      <trkpt lat="48.1133" lon="-3.62866">
        <ele>106.9</ele>
        <time>2022-12-08T13:05:07Z</time>
      </trkpt>
      <trkpt lat="48.11324" lon="-3.62868">
        <ele>106.9</ele>
        <time>2022-12-08T13:05:08Z</time>
      </trkpt>
      <trkpt lat="48.11318" lon="-3.6287">
        <ele>106.8</ele>
        <time>2022-12-08T13:05:09Z</time>
      </trkpt>
      <trkpt lat="48.11312" lon="-3.62872">
        <ele>106.8</ele>
        <time>2022-12-08T13:05:10Z</time>
      </trkpt>
      <trkpt lat="48.11306" lon="-3.62874">
        <ele>106.8</ele>
        <time>2022-12-08T13:05:11Z</time>
      </trkpt>
      <trkpt lat="48.113" lon="-3.62876">
        <ele>106.8</ele>
        <time>2022-12-08T13:05:12Z</time>
      </trkpt>
      <trkpt lat="48.11294" lon="-3.62878">
        <ele>106.8</ele>
        <time>2022-12-08T13:05:13Z</time>
      </trkpt>
      <trkpt lat="48.11288" lon="-3.6288">
        <ele>106.9</ele>
        <time>2022-12-08T13:05:14Z</time>
      </trkpt>
      <trkpt lat="48.11282" lon="-3.62883">
        <ele>106.9</ele>
        <time>2022-12-08T13:05:15Z</time>
      </trkpt>
      <trkpt lat="48.11276" lon="-3.62885">
        <ele>106.9</ele>
        <time>2022-12-08T13:05:16Z</time>
      </trkpt>
      <trkpt lat="48.1127" lon="-3.62887">
        <ele>106.9</ele>
        <time>2022-12-08T13:05:17Z</time>
      </trkpt>
      <trkpt lat="48.11264" lon="-3.62889">
        <ele>106.9</ele>
        <time>2022-12-08T13:05:18Z</time>
      </trkpt>
      <trkpt lat="48.11258" lon="-3.62891">
        <ele>106.9</ele>
        <time>2022-12-08T13:05:19Z</time>
      </trkpt>
      <trkpt lat="48.11252" lon="-3.62894">
        <ele>106.9</ele>
        <time>2022-12-08T13:05:20Z</time>
      </trkpt>
      <trkpt lat="48.11246" lon="-3.62896">
        <ele>106.9</ele>
        <time>2022-12-08T13:05:21Z</time>
      </trkpt>
      <trkpt lat="48.11239" lon="-3.62899">
        <ele>106.9</ele>
        <time>2022-12-08T13:05:22Z</time>
      </trkpt>
      <trkpt lat="48.11233" lon="-3.62901">
        <ele>106.8</ele>
        <time>2022-12-08T13:05:23Z</time>
      </trkpt>
      <trkpt lat="48.11227" lon="-3.62903">
        <ele>106.8</ele>
        <time>2022-12-08T13:05:24Z</time>
      </trkpt>
      <trkpt lat="48.11221" lon="-3.62905">
        <ele>106.8</ele>
        <time>2022-12-08T13:05:25Z</time>
      </trkpt>
      <trkpt lat="48.11215" lon="-3.62907">
        <ele>106.7</ele>
        <time>2022-12-08T13:05:26Z</time>
      </trkpt>
      <trkpt lat="48.11209" lon="-3.62909">
        <ele>106.7</ele>
        <time>2022-12-08T13:05:27Z</time>
      </trkpt>
      <trkpt lat="48.11203" lon="-3.62911">
        <ele>106.7</ele>
        <time>2022-12-08T13:05:28Z</time>
      </trkpt>
      <trkpt lat="48.11197" lon="-3.62913">
        <ele>106.7</ele>
        <time>2022-12-08T13:05:29Z</time>
      </trkpt>
      <trkpt lat="48.11191" lon="-3.62915">
        <ele>106.7</ele>
        <time>2022-12-08T13:05:30Z</time>
      </trkpt>
      <trkpt lat="48.11184" lon="-3.62917">
        <ele>106.7</ele>
        <time>2022-12-08T13:05:31Z</time>
      </trkpt>
      <trkpt lat="48.11178" lon="-3.6292">
        <ele>106.7</ele>
        <time>2022-12-08T13:05:32Z</time>
      </trkpt>
      <trkpt lat="48.11172" lon="-3.62923">
        <ele>106.7</ele>
        <time>2022-12-08T13:05:33Z</time>
      </trkpt>
      <trkpt lat="48.11166" lon="-3.62925">
        <ele>106.6</ele>
        <time>2022-12-08T13:05:34Z</time>
      </trkpt>
      <trkpt lat="48.11159" lon="-3.62928">
        <ele>106.6</ele>
        <time>2022-12-08T13:05:35Z</time>
      </trkpt>
      <trkpt lat="48.11153" lon="-3.6293">
        <ele>106.6</ele>
        <time>2022-12-08T13:05:36Z</time>
      </trkpt>
      <trkpt lat="48.11147" lon="-3.62932">
        <ele>106.6</ele>
        <time>2022-12-08T13:05:37Z</time>
      </trkpt>
      <trkpt lat="48.1114" lon="-3.62935">
        <ele>106.5</ele>
        <time>2022-12-08T13:05:38Z</time>
      </trkpt>
      <trkpt lat="48.11134" lon="-3.62937">
        <ele>106.5</ele>
        <time>2022-12-08T13:05:39Z</time>
      </trkpt>
      <trkpt lat="48.11128" lon="-3.62938">
        <ele>106.4</ele>
        <time>2022-12-08T13:05:40Z</time>
      </trkpt>
      <trkpt lat="48.11122" lon="-3.62941">
        <ele>106.4</ele>
        <time>2022-12-08T13:05:41Z</time>
      </trkpt>
      <trkpt lat="48.11116" lon="-3.62943">
        <ele>106.3</ele>
        <time>2022-12-08T13:05:42Z</time>
      </trkpt>
      <trkpt lat="48.11109" lon="-3.62945">
        <ele>106.2</ele>
        <time>2022-12-08T13:05:43Z</time>
      </trkpt>
      <trkpt lat="48.11103" lon="-3.62948">
        <ele>106.2</ele>
        <time>2022-12-08T13:05:44Z</time>
      </trkpt>
      <trkpt lat="48.11097" lon="-3.6295">
        <ele>106.1</ele>
        <time>2022-12-08T13:05:45Z</time>
      </trkpt>
      <trkpt lat="48.1109" lon="-3.62952">
        <ele>106.1</ele>
        <time>2022-12-08T13:05:46Z</time>
      </trkpt>
      <trkpt lat="48.11084" lon="-3.62953">
        <ele>106.1</ele>
        <time>2022-12-08T13:05:47Z</time>
      </trkpt>
      <trkpt lat="48.11078" lon="-3.62953">
        <ele>106.1</ele>
        <time>2022-12-08T13:05:48Z</time>
      </trkpt>
      <trkpt lat="48.11072" lon="-3.62954">
        <ele>106.1</ele>
        <time>2022-12-08T13:05:49Z</time>
      </trkpt>
      <trkpt lat="48.11065" lon="-3.62955">
        <ele>106</ele>
        <time>2022-12-08T13:05:50Z</time>
      </trkpt>
      <trkpt lat="48.11059" lon="-3.62956">
        <ele>106</ele>
        <time>2022-12-08T13:05:51Z</time>
      </trkpt>
      <trkpt lat="48.11053" lon="-3.62956">
        <ele>106</ele>
        <time>2022-12-08T13:05:52Z</time>
      </trkpt>
      <trkpt lat="48.11046" lon="-3.62957">
        <ele>106</ele>
        <time>2022-12-08T13:05:53Z</time>
      </trkpt>
      <trkpt lat="48.1104" lon="-3.62958">
        <ele>106</ele>
        <time>2022-12-08T13:05:54Z</time>
      </trkpt>
      <trkpt lat="48.11033" lon="-3.62959">
        <ele>106</ele>
        <time>2022-12-08T13:05:55Z</time>
      </trkpt>
      <trkpt lat="48.11027" lon="-3.6296">
        <ele>105.9</ele>
        <time>2022-12-08T13:05:56Z</time>
      </trkpt>
      <trkpt lat="48.1102" lon="-3.6296">
        <ele>105.9</ele>
        <time>2022-12-08T13:05:57Z</time>
      </trkpt>
      <trkpt lat="48.11014" lon="-3.62961">
        <ele>105.9</ele>
        <time>2022-12-08T13:05:58Z</time>
      </trkpt>
      <trkpt lat="48.11007" lon="-3.62961">
        <ele>105.9</ele>
        <time>2022-12-08T13:05:59Z</time>
      </trkpt>
      <trkpt lat="48.11001" lon="-3.62962">
        <ele>105.9</ele>
        <time>2022-12-08T13:06:00Z</time>
      </trkpt>
      <trkpt lat="48.10995" lon="-3.62962">
        <ele>105.8</ele>
        <time>2022-12-08T13:06:01Z</time>
      </trkpt>
      <trkpt lat="48.10988" lon="-3.62963">
        <ele>105.8</ele>
        <time>2022-12-08T13:06:02Z</time>
      </trkpt>
      <trkpt lat="48.10982" lon="-3.62964">
        <ele>105.8</ele>
        <time>2022-12-08T13:06:03Z</time>
      </trkpt>
      <trkpt lat="48.10975" lon="-3.62965">
        <ele>105.8</ele>
        <time>2022-12-08T13:06:04Z</time>
      </trkpt>
      <trkpt lat="48.10969" lon="-3.62965">
        <ele>105.7</ele>
        <time>2022-12-08T13:06:05Z</time>
      </trkpt>
      <trkpt lat="48.10962" lon="-3.62966">
        <ele>105.7</ele>
        <time>2022-12-08T13:06:06Z</time>
      </trkpt>
      <trkpt lat="48.10956" lon="-3.62966">
        <ele>105.7</ele>
        <time>2022-12-08T13:06:07Z</time>
      </trkpt>
      <trkpt lat="48.10949" lon="-3.62966">
        <ele>105.7</ele>
        <time>2022-12-08T13:06:08Z</time>
      </trkpt>
      <trkpt lat="48.10943" lon="-3.62966">
        <ele>105.7</ele>
        <time>2022-12-08T13:06:09Z</time>
      </trkpt>
      <trkpt lat="48.10937" lon="-3.62967">
        <ele>105.7</ele>
        <time>2022-12-08T13:06:10Z</time>
      </trkpt>
      <trkpt lat="48.10931" lon="-3.62967">
        <ele>105.6</ele>
        <time>2022-12-08T13:06:11Z</time>
      </trkpt>
      <trkpt lat="48.10925" lon="-3.62967">
        <ele>105.6</ele>
        <time>2022-12-08T13:06:12Z</time>
      </trkpt>
      <trkpt lat="48.10918" lon="-3.62968">
        <ele>105.5</ele>
        <time>2022-12-08T13:06:13Z</time>
      </trkpt>
      <trkpt lat="48.10912" lon="-3.62968">
        <ele>105.5</ele>
        <time>2022-12-08T13:06:14Z</time>
      </trkpt>
      <trkpt lat="48.10906" lon="-3.62968">
        <ele>105.5</ele>
        <time>2022-12-08T13:06:15Z</time>
      </trkpt>
      <trkpt lat="48.109" lon="-3.62969">
        <ele>105.4</ele>
        <time>2022-12-08T13:06:16Z</time>
      </trkpt>
      <trkpt lat="48.10894" lon="-3.62969">
        <ele>105.4</ele>
        <time>2022-12-08T13:06:17Z</time>
      </trkpt>
      <trkpt lat="48.10887" lon="-3.6297">
        <ele>105.4</ele>
        <time>2022-12-08T13:06:18Z</time>
      </trkpt>
      <trkpt lat="48.10881" lon="-3.62971">
        <ele>105.3</ele>
        <time>2022-12-08T13:06:19Z</time>
      </trkpt>
      <trkpt lat="48.10875" lon="-3.62971">
        <ele>105.3</ele>
        <time>2022-12-08T13:06:20Z</time>
      </trkpt>
      <trkpt lat="48.10868" lon="-3.62971">
        <ele>105.3</ele>
        <time>2022-12-08T13:06:21Z</time>
      </trkpt>
      <trkpt lat="48.10862" lon="-3.62972">
        <ele>105.3</ele>
        <time>2022-12-08T13:06:22Z</time>
      </trkpt>
      <trkpt lat="48.10856" lon="-3.62972">
        <ele>105.3</ele>
        <time>2022-12-08T13:06:23Z</time>
      </trkpt>
      <trkpt lat="48.1085" lon="-3.62972">
        <ele>105.3</ele>
        <time>2022-12-08T13:06:24Z</time>
      </trkpt>
      <trkpt lat="48.10843" lon="-3.62973">
        <ele>105.3</ele>
        <time>2022-12-08T13:06:25Z</time>
      </trkpt>
      <trkpt lat="48.10837" lon="-3.62973">
        <ele>105.3</ele>
        <time>2022-12-08T13:06:26Z</time>
      </trkpt>
      <trkpt lat="48.10831" lon="-3.62974">
        <ele>105.3</ele>
        <time>2022-12-08T13:06:27Z</time>
      </trkpt>
      <trkpt lat="48.10825" lon="-3.62975">
        <ele>105.3</ele>
        <time>2022-12-08T13:06:28Z</time>
      </trkpt>
      <trkpt lat="48.10819" lon="-3.62976">
        <ele>105.3</ele>
        <time>2022-12-08T13:06:29Z</time>
      </trkpt>
      <trkpt lat="48.10812" lon="-3.62977">
        <ele>105.2</ele>
        <time>2022-12-08T13:06:30Z</time>
      </trkpt>
      <trkpt lat="48.10806" lon="-3.62977">
        <ele>105.2</ele>
        <time>2022-12-08T13:06:31Z</time>
      </trkpt>
      <trkpt lat="48.108" lon="-3.62978">
        <ele>105.2</ele>
        <time>2022-12-08T13:06:32Z</time>
      </trkpt>
      <trkpt lat="48.10794" lon="-3.62978">
        <ele>105.2</ele>
        <time>2022-12-08T13:06:33Z</time>
      </trkpt>
      <trkpt lat="48.10787" lon="-3.62979">
        <ele>105.1</ele>
        <time>2022-12-08T13:06:34Z</time>
      </trkpt>
      <trkpt lat="48.10781" lon="-3.62981">
        <ele>105</ele>
        <time>2022-12-08T13:06:35Z</time>
      </trkpt>
      <trkpt lat="48.10774" lon="-3.62982">
        <ele>105</ele>
        <time>2022-12-08T13:06:36Z</time>
      </trkpt>
      <trkpt lat="48.10768" lon="-3.62982">
        <ele>105</ele>
        <time>2022-12-08T13:06:37Z</time>
      </trkpt>
      <trkpt lat="48.10762" lon="-3.62982">
        <ele>105</ele>
        <time>2022-12-08T13:06:38Z</time>
      </trkpt>
      <trkpt lat="48.10756" lon="-3.62983">
        <ele>105</ele>
        <time>2022-12-08T13:06:39Z</time>
      </trkpt>
      <trkpt lat="48.10749" lon="-3.62984">
        <ele>105</ele>
        <time>2022-12-08T13:06:40Z</time>
      </trkpt>
      <trkpt lat="48.10743" lon="-3.62985">
        <ele>105</ele>
        <time>2022-12-08T13:06:41Z</time>
      </trkpt>
      <trkpt lat="48.10737" lon="-3.62985">
        <ele>105</ele>
        <time>2022-12-08T13:06:42Z</time>
      </trkpt>
      <trkpt lat="48.10731" lon="-3.62986">
        <ele>105.1</ele>
        <time>2022-12-08T13:06:43Z</time>
      </trkpt>
      <trkpt lat="48.10726" lon="-3.62986">
        <ele>105.1</ele>
        <time>2022-12-08T13:06:44Z</time>
      </trkpt>
      <trkpt lat="48.1072" lon="-3.62986">
        <ele>105.1</ele>
        <time>2022-12-08T13:06:45Z</time>
      </trkpt>
      <trkpt lat="48.10714" lon="-3.62987">
        <ele>105.2</ele>
        <time>2022-12-08T13:06:46Z</time>
      </trkpt>
      <trkpt lat="48.10709" lon="-3.62988">
        <ele>105.2</ele>
        <time>2022-12-08T13:06:47Z</time>
      </trkpt>
      <trkpt lat="48.10703" lon="-3.62988">
        <ele>105.2</ele>
        <time>2022-12-08T13:06:48Z</time>
      </trkpt>
      <trkpt lat="48.10697" lon="-3.62989">
        <ele>105.1</ele>
        <time>2022-12-08T13:06:49Z</time>
      </trkpt>
      <trkpt lat="48.10691" lon="-3.62989">
        <ele>105.1</ele>
        <time>2022-12-08T13:06:50Z</time>
      </trkpt>
      <trkpt lat="48.10686" lon="-3.62989">
        <ele>105.1</ele>
        <time>2022-12-08T13:06:51Z</time>
      </trkpt>
      <trkpt lat="48.1068" lon="-3.62988">
        <ele>105</ele>
        <time>2022-12-08T13:06:52Z</time>
      </trkpt>
      <trkpt lat="48.10673" lon="-3.62988">
        <ele>105</ele>
        <time>2022-12-08T13:06:53Z</time>
      </trkpt>
      <trkpt lat="48.10667" lon="-3.62988">
        <ele>104.9</ele>
        <time>2022-12-08T13:06:54Z</time>
      </trkpt>
      <trkpt lat="48.10662" lon="-3.62987">
        <ele>104.8</ele>
        <time>2022-12-08T13:06:55Z</time>
      </trkpt>
      <trkpt lat="48.10655" lon="-3.62987">
        <ele>104.7</ele>
        <time>2022-12-08T13:06:56Z</time>
      </trkpt>
      <trkpt lat="48.1065" lon="-3.62985">
        <ele>104.6</ele>
        <time>2022-12-08T13:06:57Z</time>
      </trkpt>
      <trkpt lat="48.10644" lon="-3.62985">
        <ele>104.5</ele>
        <time>2022-12-08T13:06:58Z</time>
      </trkpt>
      <trkpt lat="48.10638" lon="-3.62984">
        <ele>104.4</ele>
        <time>2022-12-08T13:06:59Z</time>
      </trkpt>
      <trkpt lat="48.10632" lon="-3.62983">
        <ele>104.4</ele>
        <time>2022-12-08T13:07:00Z</time>
      </trkpt>
      <trkpt lat="48.10626" lon="-3.62981">
        <ele>104.4</ele>
        <time>2022-12-08T13:07:01Z</time>
      </trkpt>
      <trkpt lat="48.1062" lon="-3.6298">
        <ele>104.3</ele>
        <time>2022-12-08T13:07:02Z</time>
      </trkpt>
      <trkpt lat="48.10614" lon="-3.62979">
        <ele>104.3</ele>
        <time>2022-12-08T13:07:03Z</time>
      </trkpt>
      <trkpt lat="48.10608" lon="-3.62978">
        <ele>104.3</ele>
        <time>2022-12-08T13:07:04Z</time>
      </trkpt>
      <trkpt lat="48.10602" lon="-3.62976">
        <ele>104.3</ele>
        <time>2022-12-08T13:07:05Z</time>
      </trkpt>
      <trkpt lat="48.10596" lon="-3.62974">
        <ele>104.3</ele>
        <time>2022-12-08T13:07:06Z</time>
      </trkpt>
      <trkpt lat="48.1059" lon="-3.62972">
        <ele>104.3</ele>
        <time>2022-12-08T13:07:07Z</time>
      </trkpt>
      <trkpt lat="48.10584" lon="-3.6297">
        <ele>104.3</ele>
        <time>2022-12-08T13:07:08Z</time>
      </trkpt>
      <trkpt lat="48.10578" lon="-3.62968">
        <ele>104.3</ele>
        <time>2022-12-08T13:07:09Z</time>
      </trkpt>
      <trkpt lat="48.10573" lon="-3.62966">
        <ele>104.3</ele>
        <time>2022-12-08T13:07:10Z</time>
      </trkpt>
      <trkpt lat="48.10567" lon="-3.62963">
        <ele>104.3</ele>
        <time>2022-12-08T13:07:11Z</time>
      </trkpt>
      <trkpt lat="48.10561" lon="-3.62961">
        <ele>104.3</ele>
        <time>2022-12-08T13:07:12Z</time>
      </trkpt>
      <trkpt lat="48.10555" lon="-3.62959">
        <ele>104.3</ele>
        <time>2022-12-08T13:07:13Z</time>
      </trkpt>
      <trkpt lat="48.10549" lon="-3.62957">
        <ele>104.3</ele>
        <time>2022-12-08T13:07:14Z</time>
      </trkpt>
      <trkpt lat="48.10544" lon="-3.62955">
        <ele>104.3</ele>
        <time>2022-12-08T13:07:15Z</time>
      </trkpt>
      <trkpt lat="48.10538" lon="-3.62953">
        <ele>104.3</ele>
        <time>2022-12-08T13:07:16Z</time>
      </trkpt>
      <trkpt lat="48.10532" lon="-3.62951">
        <ele>104.3</ele>
        <time>2022-12-08T13:07:17Z</time>
      </trkpt>
      <trkpt lat="48.10526" lon="-3.62949">
        <ele>104.3</ele>
        <time>2022-12-08T13:07:18Z</time>
      </trkpt>
      <trkpt lat="48.10521" lon="-3.62947">
        <ele>104.3</ele>
        <time>2022-12-08T13:07:19Z</time>
      </trkpt>
      <trkpt lat="48.10516" lon="-3.62946">
        <ele>104.3</ele>
        <time>2022-12-08T13:07:20Z</time>
      </trkpt>
      <trkpt lat="48.1051" lon="-3.62944">
        <ele>104.3</ele>
        <time>2022-12-08T13:07:21Z</time>
      </trkpt>
      <trkpt lat="48.10505" lon="-3.62943">
        <ele>104.3</ele>
        <time>2022-12-08T13:07:22Z</time>
      </trkpt>
      <trkpt lat="48.10501" lon="-3.62941">
        <ele>104.3</ele>
        <time>2022-12-08T13:07:23Z</time>
      </trkpt>
      <trkpt lat="48.10497" lon="-3.6294">
        <ele>104.3</ele>
        <time>2022-12-08T13:07:24Z</time>
      </trkpt>
      <trkpt lat="48.10495" lon="-3.62938">
        <ele>104.3</ele>
        <time>2022-12-08T13:07:25Z</time>
      </trkpt>
      <trkpt lat="48.10491" lon="-3.62936">
        <ele>104.2</ele>
        <time>2022-12-08T13:07:26Z</time>
      </trkpt>
      <trkpt lat="48.10487" lon="-3.62934">
        <ele>104.1</ele>
        <time>2022-12-08T13:07:27Z</time>
      </trkpt>
      <trkpt lat="48.10483" lon="-3.62933">
        <ele>104</ele>
        <time>2022-12-08T13:07:28Z</time>
      </trkpt>
      <trkpt lat="48.10477" lon="-3.62931">
        <ele>103.9</ele>
        <time>2022-12-08T13:07:29Z</time>
      </trkpt>
      <trkpt lat="48.10472" lon="-3.62929">
        <ele>103.8</ele>
        <time>2022-12-08T13:07:30Z</time>
      </trkpt>
      <trkpt lat="48.10467" lon="-3.62927">
        <ele>103.7</ele>
        <time>2022-12-08T13:07:31Z</time>
      </trkpt>
      <trkpt lat="48.10462" lon="-3.62926">
        <ele>103.7</ele>
        <time>2022-12-08T13:07:32Z</time>
      </trkpt>
      <trkpt lat="48.10457" lon="-3.62924">
        <ele>103.6</ele>
        <time>2022-12-08T13:07:33Z</time>
      </trkpt>
      <trkpt lat="48.10452" lon="-3.62923">
        <ele>103.5</ele>
        <time>2022-12-08T13:07:34Z</time>
      </trkpt>
      <trkpt lat="48.10446" lon="-3.62921">
        <ele>103.4</ele>
        <time>2022-12-08T13:07:35Z</time>
      </trkpt>
      <trkpt lat="48.10441" lon="-3.62919">
        <ele>103.4</ele>
        <time>2022-12-08T13:07:36Z</time>
      </trkpt>
      <trkpt lat="48.10436" lon="-3.62917">
        <ele>103.3</ele>
        <time>2022-12-08T13:07:37Z</time>
      </trkpt>
      <trkpt lat="48.10431" lon="-3.62915">
        <ele>103.2</ele>
        <time>2022-12-08T13:07:38Z</time>
      </trkpt>
      <trkpt lat="48.10426" lon="-3.62912">
        <ele>103.2</ele>
        <time>2022-12-08T13:07:39Z</time>
      </trkpt>
      <trkpt lat="48.1042" lon="-3.6291">
        <ele>103.2</ele>
        <time>2022-12-08T13:07:40Z</time>
      </trkpt>
      <trkpt lat="48.10415" lon="-3.62909">
        <ele>103.1</ele>
        <time>2022-12-08T13:07:41Z</time>
      </trkpt>
      <trkpt lat="48.1041" lon="-3.62907">
        <ele>103.1</ele>
        <time>2022-12-08T13:07:42Z</time>
      </trkpt>
      <trkpt lat="48.10404" lon="-3.62905">
        <ele>103.1</ele>
        <time>2022-12-08T13:07:43Z</time>
      </trkpt>
      <trkpt lat="48.10398" lon="-3.62903">
        <ele>103.1</ele>
        <time>2022-12-08T13:07:44Z</time>
      </trkpt>
      <trkpt lat="48.10393" lon="-3.62902">
        <ele>103.1</ele>
        <time>2022-12-08T13:07:45Z</time>
      </trkpt>
      <trkpt lat="48.10387" lon="-3.629">
        <ele>103.1</ele>
        <time>2022-12-08T13:07:46Z</time>
      </trkpt>
      <trkpt lat="48.10382" lon="-3.62899">
        <ele>103.1</ele>
        <time>2022-12-08T13:07:47Z</time>
      </trkpt>
      <trkpt lat="48.10376" lon="-3.62897">
        <ele>103</ele>
        <time>2022-12-08T13:07:48Z</time>
      </trkpt>
      <trkpt lat="48.1037" lon="-3.62896">
        <ele>103</ele>
        <time>2022-12-08T13:07:49Z</time>
      </trkpt>
      <trkpt lat="48.10364" lon="-3.62894">
        <ele>103</ele>
        <time>2022-12-08T13:07:50Z</time>
      </trkpt>
      <trkpt lat="48.10358" lon="-3.62894">
        <ele>102.9</ele>
        <time>2022-12-08T13:07:51Z</time>
      </trkpt>
      <trkpt lat="48.10352" lon="-3.62893">
        <ele>102.9</ele>
        <time>2022-12-08T13:07:52Z</time>
      </trkpt>
      <trkpt lat="48.10347" lon="-3.62892">
        <ele>102.9</ele>
        <time>2022-12-08T13:07:53Z</time>
      </trkpt>
      <trkpt lat="48.10341" lon="-3.62891">
        <ele>102.9</ele>
        <time>2022-12-08T13:07:54Z</time>
      </trkpt>
      <trkpt lat="48.10335" lon="-3.6289">
        <ele>102.8</ele>
        <time>2022-12-08T13:07:55Z</time>
      </trkpt>
      <trkpt lat="48.10329" lon="-3.6289">
        <ele>102.7</ele>
        <time>2022-12-08T13:07:56Z</time>
      </trkpt>
      <trkpt lat="48.10323" lon="-3.62889">
        <ele>102.7</ele>
        <time>2022-12-08T13:07:57Z</time>
      </trkpt>
      <trkpt lat="48.10317" lon="-3.62889">
        <ele>102.6</ele>
        <time>2022-12-08T13:07:58Z</time>
      </trkpt>
      <trkpt lat="48.1031" lon="-3.62889">
        <ele>102.5</ele>
        <time>2022-12-08T13:07:59Z</time>
      </trkpt>
      <trkpt lat="48.10304" lon="-3.62888">
        <ele>102.4</ele>
        <time>2022-12-08T13:08:00Z</time>
      </trkpt>
      <trkpt lat="48.10298" lon="-3.62889">
        <ele>102.4</ele>
        <time>2022-12-08T13:08:01Z</time>
      </trkpt>
      <trkpt lat="48.10292" lon="-3.62889">
        <ele>102.4</ele>
        <time>2022-12-08T13:08:02Z</time>
      </trkpt>
      <trkpt lat="48.10286" lon="-3.62889">
        <ele>102.4</ele>
        <time>2022-12-08T13:08:03Z</time>
      </trkpt>
      <trkpt lat="48.10279" lon="-3.6289">
        <ele>102.3</ele>
        <time>2022-12-08T13:08:04Z</time>
      </trkpt>
      <trkpt lat="48.10273" lon="-3.62891">
        <ele>102.3</ele>
        <time>2022-12-08T13:08:05Z</time>
      </trkpt>
      <trkpt lat="48.10267" lon="-3.62892">
        <ele>102.3</ele>
        <time>2022-12-08T13:08:06Z</time>
      </trkpt>
      <trkpt lat="48.10262" lon="-3.62893">
        <ele>102.3</ele>
        <time>2022-12-08T13:08:07Z</time>
      </trkpt>
      <trkpt lat="48.10256" lon="-3.62893">
        <ele>102.2</ele>
        <time>2022-12-08T13:08:08Z</time>
      </trkpt>
      <trkpt lat="48.1025" lon="-3.62894">
        <ele>102.2</ele>
        <time>2022-12-08T13:08:09Z</time>
      </trkpt>
      <trkpt lat="48.10243" lon="-3.62895">
        <ele>102.1</ele>
        <time>2022-12-08T13:08:10Z</time>
      </trkpt>
      <trkpt lat="48.10237" lon="-3.62896">
        <ele>102.1</ele>
        <time>2022-12-08T13:08:11Z</time>
      </trkpt>
      <trkpt lat="48.10231" lon="-3.62897">
        <ele>102</ele>
        <time>2022-12-08T13:08:12Z</time>
      </trkpt>
      <trkpt lat="48.10225" lon="-3.62898">
        <ele>102</ele>
        <time>2022-12-08T13:08:13Z</time>
      </trkpt>
      <trkpt lat="48.10218" lon="-3.62898">
        <ele>102</ele>
        <time>2022-12-08T13:08:14Z</time>
      </trkpt>
      <trkpt lat="48.10211" lon="-3.629">
        <ele>101.9</ele>
        <time>2022-12-08T13:08:15Z</time>
      </trkpt>
      <trkpt lat="48.10205" lon="-3.62903">
        <ele>101.9</ele>
        <time>2022-12-08T13:08:16Z</time>
      </trkpt>
      <trkpt lat="48.10199" lon="-3.62905">
        <ele>101.8</ele>
        <time>2022-12-08T13:08:17Z</time>
      </trkpt>
      <trkpt lat="48.10192" lon="-3.62908">
        <ele>101.8</ele>
        <time>2022-12-08T13:08:18Z</time>
      </trkpt>
      <trkpt lat="48.10186" lon="-3.6291">
        <ele>101.7</ele>
        <time>2022-12-08T13:08:19Z</time>
      </trkpt>
      <trkpt lat="48.1018" lon="-3.62913">
        <ele>101.6</ele>
        <time>2022-12-08T13:08:20Z</time>
      </trkpt>
      <trkpt lat="48.10174" lon="-3.62916">
        <ele>101.5</ele>
        <time>2022-12-08T13:08:21Z</time>
      </trkpt>
      <trkpt lat="48.10168" lon="-3.62919">
        <ele>101.4</ele>
        <time>2022-12-08T13:08:22Z</time>
      </trkpt>
      <trkpt lat="48.10163" lon="-3.62923">
        <ele>101.3</ele>
        <time>2022-12-08T13:08:23Z</time>
      </trkpt>
      <trkpt lat="48.10159" lon="-3.62928">
        <ele>101.2</ele>
        <time>2022-12-08T13:08:24Z</time>
      </trkpt>
      <trkpt lat="48.10153" lon="-3.62932">
        <ele>101</ele>
        <time>2022-12-08T13:08:25Z</time>
      </trkpt>
      <trkpt lat="48.10147" lon="-3.62936">
        <ele>100.9</ele>
        <time>2022-12-08T13:08:26Z</time>
      </trkpt>
      <trkpt lat="48.10142" lon="-3.62938">
        <ele>100.8</ele>
        <time>2022-12-08T13:08:27Z</time>
      </trkpt>
      <trkpt lat="48.10136" lon="-3.62941">
        <ele>100.7</ele>
        <time>2022-12-08T13:08:28Z</time>
      </trkpt>
      <trkpt lat="48.1013" lon="-3.62945">
        <ele>100.6</ele>
        <time>2022-12-08T13:08:29Z</time>
      </trkpt>
      <trkpt lat="48.10124" lon="-3.62949">
        <ele>100.6</ele>
        <time>2022-12-08T13:08:30Z</time>
      </trkpt>
      <trkpt lat="48.10118" lon="-3.62952">
        <ele>100.5</ele>
        <time>2022-12-08T13:08:31Z</time>
      </trkpt>
      <trkpt lat="48.10113" lon="-3.62956">
        <ele>100.5</ele>
        <time>2022-12-08T13:08:32Z</time>
      </trkpt>
      <trkpt lat="48.10108" lon="-3.62961">
        <ele>100.5</ele>
        <time>2022-12-08T13:08:33Z</time>
      </trkpt>
      <trkpt lat="48.10102" lon="-3.62965">
        <ele>100.5</ele>
        <time>2022-12-08T13:08:34Z</time>
      </trkpt>
      <trkpt lat="48.10096" lon="-3.62969">
        <ele>100.5</ele>
        <time>2022-12-08T13:08:35Z</time>
      </trkpt>
      <trkpt lat="48.10091" lon="-3.62974">
        <ele>100.5</ele>
        <time>2022-12-08T13:08:36Z</time>
      </trkpt>
      <trkpt lat="48.10086" lon="-3.6298">
        <ele>100.5</ele>
        <time>2022-12-08T13:08:37Z</time>
      </trkpt>
      <trkpt lat="48.10081" lon="-3.62985">
        <ele>100.5</ele>
        <time>2022-12-08T13:08:38Z</time>
      </trkpt>
      <trkpt lat="48.10076" lon="-3.6299">
        <ele>100.5</ele>
        <time>2022-12-08T13:08:39Z</time>
      </trkpt>
      <trkpt lat="48.10071" lon="-3.62995">
        <ele>100.5</ele>
        <time>2022-12-08T13:08:40Z</time>
      </trkpt>
      <trkpt lat="48.10066" lon="-3.63001">
        <ele>100.5</ele>
        <time>2022-12-08T13:08:41Z</time>
      </trkpt>
      <trkpt lat="48.10061" lon="-3.63006">
        <ele>100.5</ele>
        <time>2022-12-08T13:08:42Z</time>
      </trkpt>
      <trkpt lat="48.10056" lon="-3.63011">
        <ele>100.5</ele>
        <time>2022-12-08T13:08:43Z</time>
      </trkpt>
      <trkpt lat="48.10051" lon="-3.63016">
        <ele>100.5</ele>
        <time>2022-12-08T13:08:44Z</time>
      </trkpt>
      <trkpt lat="48.10046" lon="-3.6302">
        <ele>100.6</ele>
        <time>2022-12-08T13:08:45Z</time>
      </trkpt>
      <trkpt lat="48.10042" lon="-3.63023">
        <ele>100.6</ele>
        <time>2022-12-08T13:08:46Z</time>
      </trkpt>
      <trkpt lat="48.10037" lon="-3.63027">
        <ele>100.6</ele>
        <time>2022-12-08T13:08:47Z</time>
      </trkpt>
      <trkpt lat="48.10033" lon="-3.63032">
        <ele>100.6</ele>
        <time>2022-12-08T13:08:48Z</time>
      </trkpt>
      <trkpt lat="48.10028" lon="-3.63038">
        <ele>100.7</ele>
        <time>2022-12-08T13:08:49Z</time>
      </trkpt>
      <trkpt lat="48.10023" lon="-3.63043">
        <ele>100.7</ele>
        <time>2022-12-08T13:08:50Z</time>
      </trkpt>
      <trkpt lat="48.10019" lon="-3.63049">
        <ele>100.7</ele>
        <time>2022-12-08T13:08:51Z</time>
      </trkpt>
      <trkpt lat="48.10014" lon="-3.63054">
        <ele>100.7</ele>
        <time>2022-12-08T13:08:52Z</time>
      </trkpt>
      <trkpt lat="48.10009" lon="-3.63059">
        <ele>100.8</ele>
        <time>2022-12-08T13:08:53Z</time>
      </trkpt>
      <trkpt lat="48.10004" lon="-3.63064">
        <ele>100.8</ele>
        <time>2022-12-08T13:08:54Z</time>
      </trkpt>
      <trkpt lat="48.1" lon="-3.6307">
        <ele>100.8</ele>
        <time>2022-12-08T13:08:55Z</time>
      </trkpt>
      <trkpt lat="48.09994" lon="-3.63075">
        <ele>100.7</ele>
        <time>2022-12-08T13:08:56Z</time>
      </trkpt>
      <trkpt lat="48.09989" lon="-3.6308">
        <ele>100.7</ele>
        <time>2022-12-08T13:08:57Z</time>
      </trkpt>
      <trkpt lat="48.09985" lon="-3.63085">
        <ele>100.7</ele>
        <time>2022-12-08T13:08:58Z</time>
      </trkpt>
      <trkpt lat="48.0998" lon="-3.63091">
        <ele>100.7</ele>
        <time>2022-12-08T13:08:59Z</time>
      </trkpt>
      <trkpt lat="48.09975" lon="-3.63096">
        <ele>100.7</ele>
        <time>2022-12-08T13:09:00Z</time>
      </trkpt>
      <trkpt lat="48.0997" lon="-3.63102">
        <ele>100.7</ele>
        <time>2022-12-08T13:09:01Z</time>
      </trkpt>
      <trkpt lat="48.09965" lon="-3.63107">
        <ele>100.7</ele>
        <time>2022-12-08T13:09:02Z</time>
      </trkpt>
      <trkpt lat="48.09961" lon="-3.63114">
        <ele>100.7</ele>
        <time>2022-12-08T13:09:03Z</time>
      </trkpt>
      <trkpt lat="48.09956" lon="-3.6312">
        <ele>100.7</ele>
        <time>2022-12-08T13:09:04Z</time>
      </trkpt>
      <trkpt lat="48.09951" lon="-3.63126">
        <ele>100.7</ele>
        <time>2022-12-08T13:09:05Z</time>
      </trkpt>
      <trkpt lat="48.09947" lon="-3.63132">
        <ele>100.7</ele>
        <time>2022-12-08T13:09:06Z</time>
      </trkpt>
      <trkpt lat="48.09942" lon="-3.63137">
        <ele>100.6</ele>
        <time>2022-12-08T13:09:07Z</time>
      </trkpt>
      <trkpt lat="48.09937" lon="-3.63143">
        <ele>100.6</ele>
        <time>2022-12-08T13:09:08Z</time>
      </trkpt>
      <trkpt lat="48.09932" lon="-3.63148">
        <ele>100.5</ele>
        <time>2022-12-08T13:09:09Z</time>
      </trkpt>
      <trkpt lat="48.09928" lon="-3.63154">
        <ele>100.4</ele>
        <time>2022-12-08T13:09:10Z</time>
      </trkpt>
      <trkpt lat="48.09923" lon="-3.6316">
        <ele>100.4</ele>
        <time>2022-12-08T13:09:11Z</time>
      </trkpt>
      <trkpt lat="48.09918" lon="-3.63165">
        <ele>100.4</ele>
        <time>2022-12-08T13:09:12Z</time>
      </trkpt>
      <trkpt lat="48.09914" lon="-3.6317">
        <ele>100.4</ele>
        <time>2022-12-08T13:09:13Z</time>
      </trkpt>
      <trkpt lat="48.09909" lon="-3.63176">
        <ele>100.5</ele>
        <time>2022-12-08T13:09:14Z</time>
      </trkpt>
      <trkpt lat="48.09905" lon="-3.63181">
        <ele>100.5</ele>
        <time>2022-12-08T13:09:15Z</time>
      </trkpt>
      <trkpt lat="48.09901" lon="-3.63186">
        <ele>100.5</ele>
        <time>2022-12-08T13:09:16Z</time>
      </trkpt>
      <trkpt lat="48.09897" lon="-3.63193">
        <ele>100.5</ele>
        <time>2022-12-08T13:09:17Z</time>
      </trkpt>
      <trkpt lat="48.09893" lon="-3.63198">
        <ele>100.5</ele>
        <time>2022-12-08T13:09:18Z</time>
      </trkpt>
      <trkpt lat="48.09889" lon="-3.63203">
        <ele>100.5</ele>
        <time>2022-12-08T13:09:19Z</time>
      </trkpt>
      <trkpt lat="48.09884" lon="-3.63209">
        <ele>100.5</ele>
        <time>2022-12-08T13:09:20Z</time>
      </trkpt>
      <trkpt lat="48.09879" lon="-3.63215">
        <ele>100.5</ele>
        <time>2022-12-08T13:09:21Z</time>
      </trkpt>
      <trkpt lat="48.09875" lon="-3.63219">
        <ele>100.5</ele>
        <time>2022-12-08T13:09:22Z</time>
      </trkpt>
      <trkpt lat="48.0987" lon="-3.63225">
        <ele>100.5</ele>
        <time>2022-12-08T13:09:23Z</time>
      </trkpt>
      <trkpt lat="48.09865" lon="-3.63231">
        <ele>100.5</ele>
        <time>2022-12-08T13:09:24Z</time>
      </trkpt>
      <trkpt lat="48.0986" lon="-3.63236">
        <ele>100.6</ele>
        <time>2022-12-08T13:09:25Z</time>
      </trkpt>
      <trkpt lat="48.09856" lon="-3.63241">
        <ele>100.7</ele>
        <time>2022-12-08T13:09:26Z</time>
      </trkpt>
      <trkpt lat="48.09851" lon="-3.63247">
        <ele>100.7</ele>
        <time>2022-12-08T13:09:27Z</time>
      </trkpt>
      <trkpt lat="48.09846" lon="-3.63252">
        <ele>100.8</ele>
        <time>2022-12-08T13:09:28Z</time>
      </trkpt>
      <trkpt lat="48.09842" lon="-3.63256">
        <ele>100.9</ele>
        <time>2022-12-08T13:09:29Z</time>
      </trkpt>
      <trkpt lat="48.09838" lon="-3.63262">
        <ele>101</ele>
        <time>2022-12-08T13:09:30Z</time>
      </trkpt>
      <trkpt lat="48.09834" lon="-3.63268">
        <ele>101.1</ele>
        <time>2022-12-08T13:09:31Z</time>
      </trkpt>
      <trkpt lat="48.0983" lon="-3.63273">
        <ele>101.2</ele>
        <time>2022-12-08T13:09:32Z</time>
      </trkpt>
      <trkpt lat="48.09825" lon="-3.63278">
        <ele>101.3</ele>
        <time>2022-12-08T13:09:33Z</time>
      </trkpt>
      <trkpt lat="48.09821" lon="-3.63283">
        <ele>101.4</ele>
        <time>2022-12-08T13:09:34Z</time>
      </trkpt>
      <trkpt lat="48.09817" lon="-3.63288">
        <ele>101.5</ele>
        <time>2022-12-08T13:09:35Z</time>
      </trkpt>
      <trkpt lat="48.09814" lon="-3.63293">
        <ele>101.5</ele>
        <time>2022-12-08T13:09:36Z</time>
      </trkpt>
      <trkpt lat="48.0981" lon="-3.63298">
        <ele>101.5</ele>
        <time>2022-12-08T13:09:37Z</time>
      </trkpt>
      <trkpt lat="48.09805" lon="-3.63303">
        <ele>101.6</ele>
        <time>2022-12-08T13:09:38Z</time>
      </trkpt>
      <trkpt lat="48.09801" lon="-3.63307">
        <ele>101.6</ele>
        <time>2022-12-08T13:09:39Z</time>
      </trkpt>
      <trkpt lat="48.09797" lon="-3.63312">
        <ele>101.7</ele>
        <time>2022-12-08T13:09:40Z</time>
      </trkpt>
      <trkpt lat="48.09793" lon="-3.63316">
        <ele>101.7</ele>
        <time>2022-12-08T13:09:41Z</time>
      </trkpt>
      <trkpt lat="48.0979" lon="-3.63321">
        <ele>101.8</ele>
        <time>2022-12-08T13:09:42Z</time>
      </trkpt>
      <trkpt lat="48.09786" lon="-3.63325">
        <ele>101.9</ele>
        <time>2022-12-08T13:09:43Z</time>
      </trkpt>
      <trkpt lat="48.09782" lon="-3.63331">
        <ele>101.9</ele>
        <time>2022-12-08T13:09:44Z</time>
      </trkpt>
      <trkpt lat="48.09778" lon="-3.63336">
        <ele>102</ele>
        <time>2022-12-08T13:09:45Z</time>
      </trkpt>
      <trkpt lat="48.09775" lon="-3.6334">
        <ele>102.1</ele>
        <time>2022-12-08T13:09:46Z</time>
      </trkpt>
      <trkpt lat="48.09771" lon="-3.63345">
        <ele>102.2</ele>
        <time>2022-12-08T13:09:47Z</time>
      </trkpt>
      <trkpt lat="48.09767" lon="-3.63349">
        <ele>102.3</ele>
        <time>2022-12-08T13:09:48Z</time>
      </trkpt>
      <trkpt lat="48.09764" lon="-3.63354">
        <ele>102.4</ele>
        <time>2022-12-08T13:09:49Z</time>
      </trkpt>
      <trkpt lat="48.09759" lon="-3.63358">
        <ele>102.6</ele>
        <time>2022-12-08T13:09:50Z</time>
      </trkpt>
      <trkpt lat="48.09754" lon="-3.63361">
        <ele>102.7</ele>
        <time>2022-12-08T13:09:51Z</time>
      </trkpt>
      <trkpt lat="48.0975" lon="-3.63366">
        <ele>102.9</ele>
        <time>2022-12-08T13:09:52Z</time>
      </trkpt>
      <trkpt lat="48.09746" lon="-3.6337">
        <ele>103</ele>
        <time>2022-12-08T13:09:53Z</time>
      </trkpt>
      <trkpt lat="48.09743" lon="-3.63374">
        <ele>103.2</ele>
        <time>2022-12-08T13:09:54Z</time>
      </trkpt>
      <trkpt lat="48.09741" lon="-3.63378">
        <ele>103.3</ele>
        <time>2022-12-08T13:09:55Z</time>
      </trkpt>
      <trkpt lat="48.09738" lon="-3.63382">
        <ele>103.4</ele>
        <time>2022-12-08T13:09:56Z</time>
      </trkpt>
      <trkpt lat="48.09735" lon="-3.63384">
        <ele>103.5</ele>
        <time>2022-12-08T13:09:57Z</time>
      </trkpt>
      <trkpt lat="48.09731" lon="-3.63388">
        <ele>103.7</ele>
        <time>2022-12-08T13:09:58Z</time>
      </trkpt>
      <trkpt lat="48.09728" lon="-3.6339">
        <ele>103.8</ele>
        <time>2022-12-08T13:09:59Z</time>
      </trkpt>
      <trkpt lat="48.09723" lon="-3.63394">
        <ele>103.9</ele>
        <time>2022-12-08T13:10:00Z</time>
      </trkpt>
      <trkpt lat="48.09719" lon="-3.63396">
        <ele>104.1</ele>
        <time>2022-12-08T13:10:01Z</time>
      </trkpt>
      <trkpt lat="48.09716" lon="-3.634">
        <ele>104.2</ele>
        <time>2022-12-08T13:10:03Z</time>
      </trkpt>
      <trkpt lat="48.09712" lon="-3.63402">
        <ele>104.3</ele>
        <time>2022-12-08T13:10:04Z</time>
      </trkpt>
      <trkpt lat="48.09706" lon="-3.63405">
        <ele>104.5</ele>
        <time>2022-12-08T13:10:05Z</time>
      </trkpt>
      <trkpt lat="48.09703" lon="-3.63408">
        <ele>104.5</ele>
        <time>2022-12-08T13:10:06Z</time>
      </trkpt>
      <trkpt lat="48.097" lon="-3.63411">
        <ele>104.6</ele>
        <time>2022-12-08T13:10:07Z</time>
      </trkpt>
      <trkpt lat="48.09695" lon="-3.63416">
        <ele>104.6</ele>
        <time>2022-12-08T13:10:08Z</time>
      </trkpt>
      <trkpt lat="48.0969" lon="-3.6342">
        <ele>104.6</ele>
        <time>2022-12-08T13:10:09Z</time>
      </trkpt>
      <trkpt lat="48.09685" lon="-3.63423">
        <ele>104.6</ele>
        <time>2022-12-08T13:10:10Z</time>
      </trkpt>
      <trkpt lat="48.09681" lon="-3.63426">
        <ele>104.6</ele>
        <time>2022-12-08T13:10:11Z</time>
      </trkpt>
      <trkpt lat="48.09676" lon="-3.63428">
        <ele>104.7</ele>
        <time>2022-12-08T13:10:12Z</time>
      </trkpt>
      <trkpt lat="48.09671" lon="-3.63431">
        <ele>104.7</ele>
        <time>2022-12-08T13:10:13Z</time>
      </trkpt>
      <trkpt lat="48.09667" lon="-3.63433">
        <ele>104.8</ele>
        <time>2022-12-08T13:10:14Z</time>
      </trkpt>
      <trkpt lat="48.09663" lon="-3.63435">
        <ele>104.8</ele>
        <time>2022-12-08T13:10:15Z</time>
      </trkpt>
      <trkpt lat="48.09658" lon="-3.63436">
        <ele>104.9</ele>
        <time>2022-12-08T13:10:16Z</time>
      </trkpt>
      <trkpt lat="48.09653" lon="-3.63437">
        <ele>105</ele>
        <time>2022-12-08T13:10:17Z</time>
      </trkpt>
      <trkpt lat="48.09649" lon="-3.63439">
        <ele>105</ele>
        <time>2022-12-08T13:10:18Z</time>
      </trkpt>
      <trkpt lat="48.09645" lon="-3.63441">
        <ele>105.1</ele>
        <time>2022-12-08T13:10:19Z</time>
      </trkpt>
      <trkpt lat="48.09639" lon="-3.63442">
        <ele>105.2</ele>
        <time>2022-12-08T13:10:20Z</time>
      </trkpt>
      <trkpt lat="48.09636" lon="-3.63443">
        <ele>105.3</ele>
        <time>2022-12-08T13:10:21Z</time>
      </trkpt>
      <trkpt lat="48.09631" lon="-3.63444">
        <ele>105.4</ele>
        <time>2022-12-08T13:10:22Z</time>
      </trkpt>
      <trkpt lat="48.09626" lon="-3.63445">
        <ele>105.5</ele>
        <time>2022-12-08T13:10:23Z</time>
      </trkpt>
      <trkpt lat="48.09621" lon="-3.63446">
        <ele>105.6</ele>
        <time>2022-12-08T13:10:24Z</time>
      </trkpt>
      <trkpt lat="48.09616" lon="-3.63448">
        <ele>105.7</ele>
        <time>2022-12-08T13:10:25Z</time>
      </trkpt>
      <trkpt lat="48.09612" lon="-3.6345">
        <ele>105.8</ele>
        <time>2022-12-08T13:10:26Z</time>
      </trkpt>
      <trkpt lat="48.09607" lon="-3.63451">
        <ele>105.9</ele>
        <time>2022-12-08T13:10:27Z</time>
      </trkpt>
      <trkpt lat="48.09603" lon="-3.63452">
        <ele>106</ele>
        <time>2022-12-08T13:10:28Z</time>
      </trkpt>
      <trkpt lat="48.09598" lon="-3.63454">
        <ele>106.1</ele>
        <time>2022-12-08T13:10:29Z</time>
      </trkpt>
      <trkpt lat="48.09593" lon="-3.63455">
        <ele>106.2</ele>
        <time>2022-12-08T13:10:30Z</time>
      </trkpt>
      <trkpt lat="48.09589" lon="-3.63458">
        <ele>106.4</ele>
        <time>2022-12-08T13:10:31Z</time>
      </trkpt>
      <trkpt lat="48.09584" lon="-3.63459">
        <ele>106.5</ele>
        <time>2022-12-08T13:10:32Z</time>
      </trkpt>
      <trkpt lat="48.09581" lon="-3.6346">
        <ele>106.6</ele>
        <time>2022-12-08T13:10:33Z</time>
      </trkpt>
      <trkpt lat="48.09576" lon="-3.63462">
        <ele>106.7</ele>
        <time>2022-12-08T13:10:34Z</time>
      </trkpt>
      <trkpt lat="48.09571" lon="-3.63464">
        <ele>106.8</ele>
        <time>2022-12-08T13:10:35Z</time>
      </trkpt>
      <trkpt lat="48.09566" lon="-3.63467">
        <ele>106.9</ele>
        <time>2022-12-08T13:10:36Z</time>
      </trkpt>
      <trkpt lat="48.09561" lon="-3.63468">
        <ele>107</ele>
        <time>2022-12-08T13:10:37Z</time>
      </trkpt>
      <trkpt lat="48.09557" lon="-3.6347">
        <ele>107.1</ele>
        <time>2022-12-08T13:10:38Z</time>
      </trkpt>
      <trkpt lat="48.09552" lon="-3.63471">
        <ele>107.2</ele>
        <time>2022-12-08T13:10:39Z</time>
      </trkpt>
      <trkpt lat="48.09548" lon="-3.63472">
        <ele>107.3</ele>
        <time>2022-12-08T13:10:40Z</time>
      </trkpt>
      <trkpt lat="48.09544" lon="-3.63474">
        <ele>107.4</ele>
        <time>2022-12-08T13:10:41Z</time>
      </trkpt>
      <trkpt lat="48.0954" lon="-3.63475">
        <ele>107.5</ele>
        <time>2022-12-08T13:10:42Z</time>
      </trkpt>
      <trkpt lat="48.09535" lon="-3.63478">
        <ele>107.6</ele>
        <time>2022-12-08T13:10:43Z</time>
      </trkpt>
      <trkpt lat="48.09531" lon="-3.63481">
        <ele>107.7</ele>
        <time>2022-12-08T13:10:44Z</time>
      </trkpt>
      <trkpt lat="48.09529" lon="-3.63482">
        <ele>107.7</ele>
        <time>2022-12-08T13:10:45Z</time>
      </trkpt>
      <trkpt lat="48.09528" lon="-3.63483">
        <ele>107.7</ele>
        <time>2022-12-08T13:10:46Z</time>
      </trkpt>
      <trkpt lat="48.09521" lon="-3.63483">
        <ele>107.9</ele>
        <time>2022-12-08T13:10:47Z</time>
      </trkpt>
      <trkpt lat="48.09515" lon="-3.63486">
        <ele>108</ele>
        <time>2022-12-08T13:10:48Z</time>
      </trkpt>
      <trkpt lat="48.09509" lon="-3.63487">
        <ele>108.2</ele>
        <time>2022-12-08T13:10:49Z</time>
      </trkpt>
      <trkpt lat="48.09504" lon="-3.63489">
        <ele>108.3</ele>
        <time>2022-12-08T13:10:50Z</time>
      </trkpt>
      <trkpt lat="48.09499" lon="-3.6349">
        <ele>108.4</ele>
        <time>2022-12-08T13:10:51Z</time>
      </trkpt>
      <trkpt lat="48.09494" lon="-3.63491">
        <ele>108.6</ele>
        <time>2022-12-08T13:10:52Z</time>
      </trkpt>
      <trkpt lat="48.09489" lon="-3.63493">
        <ele>108.7</ele>
        <time>2022-12-08T13:10:53Z</time>
      </trkpt>
      <trkpt lat="48.09485" lon="-3.63494">
        <ele>108.8</ele>
        <time>2022-12-08T13:10:54Z</time>
      </trkpt>
      <trkpt lat="48.09481" lon="-3.63496">
        <ele>108.9</ele>
        <time>2022-12-08T13:10:55Z</time>
      </trkpt>
      <trkpt lat="48.09479" lon="-3.63496">
        <ele>109</ele>
        <time>2022-12-08T13:10:56Z</time>
      </trkpt>
      <trkpt lat="48.09472" lon="-3.63499">
        <ele>109.2</ele>
        <time>2022-12-08T13:10:57Z</time>
      </trkpt>
      <trkpt lat="48.09467" lon="-3.63501">
        <ele>109.3</ele>
        <time>2022-12-08T13:10:58Z</time>
      </trkpt>
      <trkpt lat="48.09463" lon="-3.63503">
        <ele>109.5</ele>
        <time>2022-12-08T13:10:59Z</time>
      </trkpt>
      <trkpt lat="48.09459" lon="-3.63504">
        <ele>109.6</ele>
        <time>2022-12-08T13:11:00Z</time>
      </trkpt>
      <trkpt lat="48.09456" lon="-3.63503">
        <ele>109.6</ele>
        <time>2022-12-08T13:11:01Z</time>
      </trkpt>
      <trkpt lat="48.0945" lon="-3.63504">
        <ele>109.8</ele>
        <time>2022-12-08T13:11:02Z</time>
      </trkpt>
      <trkpt lat="48.09445" lon="-3.63507">
        <ele>110</ele>
        <time>2022-12-08T13:11:03Z</time>
      </trkpt>
      <trkpt lat="48.0944" lon="-3.63509">
        <ele>110.2</ele>
        <time>2022-12-08T13:11:04Z</time>
      </trkpt>
      <trkpt lat="48.09433" lon="-3.63511">
        <ele>110.5</ele>
        <time>2022-12-08T13:11:06Z</time>
      </trkpt>
      <trkpt lat="48.09425" lon="-3.63513">
        <ele>110.9</ele>
        <time>2022-12-08T13:11:08Z</time>
      </trkpt>
      <trkpt lat="48.0942" lon="-3.63514">
        <ele>111</ele>
        <time>2022-12-08T13:11:09Z</time>
      </trkpt>
      <trkpt lat="48.09416" lon="-3.63514">
        <ele>111.2</ele>
        <time>2022-12-08T13:11:10Z</time>
      </trkpt>
      <trkpt lat="48.09413" lon="-3.63514">
        <ele>111.3</ele>
        <time>2022-12-08T13:11:11Z</time>
      </trkpt>
      <trkpt lat="48.0941" lon="-3.63516">
        <ele>111.4</ele>
        <time>2022-12-08T13:11:12Z</time>
      </trkpt>
      <trkpt lat="48.09409" lon="-3.63517">
        <ele>111.5</ele>
        <time>2022-12-08T13:11:13Z</time>
      </trkpt>
      <trkpt lat="48.09406" lon="-3.63521">
        <ele>111.6</ele>
        <time>2022-12-08T13:11:15Z</time>
      </trkpt>
      <trkpt lat="48.09402" lon="-3.63523">
        <ele>111.7</ele>
        <time>2022-12-08T13:11:16Z</time>
      </trkpt>
      <trkpt lat="48.09398" lon="-3.63524">
        <ele>111.8</ele>
        <time>2022-12-08T13:11:17Z</time>
      </trkpt>
      <trkpt lat="48.09396" lon="-3.63524">
        <ele>111.8</ele>
        <time>2022-12-08T13:11:18Z</time>
      </trkpt>
      <trkpt lat="48.09392" lon="-3.63525">
        <ele>111.9</ele>
        <time>2022-12-08T13:11:19Z</time>
      </trkpt>
      <trkpt lat="48.09389" lon="-3.63526">
        <ele>111.9</ele>
        <time>2022-12-08T13:11:20Z</time>
      </trkpt>
      <trkpt lat="48.09384" lon="-3.63526">
        <ele>112</ele>
        <time>2022-12-08T13:11:21Z</time>
      </trkpt>
      <trkpt lat="48.0938" lon="-3.63528">
        <ele>112</ele>
        <time>2022-12-08T13:11:22Z</time>
      </trkpt>
      <trkpt lat="48.09377" lon="-3.63532">
        <ele>112</ele>
        <time>2022-12-08T13:11:23Z</time>
      </trkpt>
      <trkpt lat="48.09373" lon="-3.63535">
        <ele>112</ele>
        <time>2022-12-08T13:11:24Z</time>
      </trkpt>
      <trkpt lat="48.09369" lon="-3.63538">
        <ele>112.1</ele>
        <time>2022-12-08T13:11:25Z</time>
      </trkpt>
      <trkpt lat="48.09364" lon="-3.63541">
        <ele>112.1</ele>
        <time>2022-12-08T13:11:26Z</time>
      </trkpt>
      <trkpt lat="48.0936" lon="-3.63542">
        <ele>112.1</ele>
        <time>2022-12-08T13:11:27Z</time>
      </trkpt>
      <trkpt lat="48.09357" lon="-3.63543">
        <ele>112.2</ele>
        <time>2022-12-08T13:11:28Z</time>
      </trkpt>
      <trkpt lat="48.09353" lon="-3.63545">
        <ele>112.2</ele>
        <time>2022-12-08T13:11:29Z</time>
      </trkpt>
      <trkpt lat="48.09349" lon="-3.63547">
        <ele>112.3</ele>
        <time>2022-12-08T13:11:30Z</time>
      </trkpt>
      <trkpt lat="48.09344" lon="-3.6355">
        <ele>112.3</ele>
        <time>2022-12-08T13:11:31Z</time>
      </trkpt>
      <trkpt lat="48.0934" lon="-3.63553">
        <ele>112.4</ele>
        <time>2022-12-08T13:11:32Z</time>
      </trkpt>
      <trkpt lat="48.09336" lon="-3.63556">
        <ele>112.5</ele>
        <time>2022-12-08T13:11:33Z</time>
      </trkpt>
      <trkpt lat="48.09331" lon="-3.6356">
        <ele>112.6</ele>
        <time>2022-12-08T13:11:35Z</time>
      </trkpt>
      <trkpt lat="48.09327" lon="-3.63563">
        <ele>112.7</ele>
        <time>2022-12-08T13:11:36Z</time>
      </trkpt>
      <trkpt lat="48.09319" lon="-3.63569">
        <ele>112.8</ele>
        <time>2022-12-08T13:11:37Z</time>
      </trkpt>
      <trkpt lat="48.09315" lon="-3.63572">
        <ele>112.9</ele>
        <time>2022-12-08T13:11:38Z</time>
      </trkpt>
      <trkpt lat="48.09311" lon="-3.63575">
        <ele>113</ele>
        <time>2022-12-08T13:11:39Z</time>
      </trkpt>
      <trkpt lat="48.09306" lon="-3.63577">
        <ele>113.1</ele>
        <time>2022-12-08T13:11:40Z</time>
      </trkpt>
      <trkpt lat="48.09303" lon="-3.6358">
        <ele>113.2</ele>
        <time>2022-12-08T13:11:41Z</time>
      </trkpt>
      <trkpt lat="48.09299" lon="-3.63585">
        <ele>113.3</ele>
        <time>2022-12-08T13:11:42Z</time>
      </trkpt>
      <trkpt lat="48.09295" lon="-3.63589">
        <ele>113.4</ele>
        <time>2022-12-08T13:11:43Z</time>
      </trkpt>
      <trkpt lat="48.09291" lon="-3.63593">
        <ele>113.5</ele>
        <time>2022-12-08T13:11:44Z</time>
      </trkpt>
      <trkpt lat="48.09289" lon="-3.63595">
        <ele>113.6</ele>
        <time>2022-12-08T13:11:45Z</time>
      </trkpt>
      <trkpt lat="48.09282" lon="-3.63599">
        <ele>113.7</ele>
        <time>2022-12-08T13:11:47Z</time>
      </trkpt>
      <trkpt lat="48.09278" lon="-3.63603">
        <ele>113.8</ele>
        <time>2022-12-08T13:11:48Z</time>
      </trkpt>
      <trkpt lat="48.09272" lon="-3.63608">
        <ele>113.9</ele>
        <time>2022-12-08T13:11:49Z</time>
      </trkpt>
      <trkpt lat="48.09269" lon="-3.6361">
        <ele>114</ele>
        <time>2022-12-08T13:11:50Z</time>
      </trkpt>
      <trkpt lat="48.09264" lon="-3.63614">
        <ele>114.1</ele>
        <time>2022-12-08T13:11:51Z</time>
      </trkpt>
      <trkpt lat="48.09259" lon="-3.63618">
        <ele>114.2</ele>
        <time>2022-12-08T13:11:52Z</time>
      </trkpt>
      <trkpt lat="48.09255" lon="-3.63622">
        <ele>114.3</ele>
        <time>2022-12-08T13:11:53Z</time>
      </trkpt>
      <trkpt lat="48.09251" lon="-3.63626">
        <ele>114.4</ele>
        <time>2022-12-08T13:11:54Z</time>
      </trkpt>
      <trkpt lat="48.09247" lon="-3.63629">
        <ele>114.5</ele>
        <time>2022-12-08T13:11:55Z</time>
      </trkpt>
      <trkpt lat="48.09242" lon="-3.63633">
        <ele>114.6</ele>
        <time>2022-12-08T13:11:56Z</time>
      </trkpt>
      <trkpt lat="48.0924" lon="-3.63635">
        <ele>114.7</ele>
        <time>2022-12-08T13:11:57Z</time>
      </trkpt>
      <trkpt lat="48.09235" lon="-3.63639">
        <ele>114.8</ele>
        <time>2022-12-08T13:11:58Z</time>
      </trkpt>
      <trkpt lat="48.09232" lon="-3.63642">
        <ele>114.8</ele>
        <time>2022-12-08T13:11:59Z</time>
      </trkpt>
      <trkpt lat="48.09227" lon="-3.63646">
        <ele>114.9</ele>
        <time>2022-12-08T13:12:00Z</time>
      </trkpt>
      <trkpt lat="48.09223" lon="-3.63649">
        <ele>115</ele>
        <time>2022-12-08T13:12:01Z</time>
      </trkpt>
      <trkpt lat="48.0922" lon="-3.63652">
        <ele>115.1</ele>
        <time>2022-12-08T13:12:02Z</time>
      </trkpt>
      <trkpt lat="48.09215" lon="-3.63656">
        <ele>115.2</ele>
        <time>2022-12-08T13:12:03Z</time>
      </trkpt>
      <trkpt lat="48.09211" lon="-3.63659">
        <ele>115.3</ele>
        <time>2022-12-08T13:12:04Z</time>
      </trkpt>
      <trkpt lat="48.09208" lon="-3.63662">
        <ele>115.4</ele>
        <time>2022-12-08T13:12:05Z</time>
      </trkpt>
      <trkpt lat="48.09203" lon="-3.63666">
        <ele>115.5</ele>
        <time>2022-12-08T13:12:06Z</time>
      </trkpt>
      <trkpt lat="48.09199" lon="-3.63669">
        <ele>115.6</ele>
        <time>2022-12-08T13:12:07Z</time>
      </trkpt>
      <trkpt lat="48.09195" lon="-3.63673">
        <ele>115.7</ele>
        <time>2022-12-08T13:12:08Z</time>
      </trkpt>
      <trkpt lat="48.09191" lon="-3.63677">
        <ele>115.8</ele>
        <time>2022-12-08T13:12:10Z</time>
      </trkpt>
      <trkpt lat="48.09185" lon="-3.6368">
        <ele>116</ele>
        <time>2022-12-08T13:12:11Z</time>
      </trkpt>
      <trkpt lat="48.09181" lon="-3.63682">
        <ele>116.1</ele>
        <time>2022-12-08T13:12:12Z</time>
      </trkpt>
      <trkpt lat="48.09177" lon="-3.63685">
        <ele>116.2</ele>
        <time>2022-12-08T13:12:13Z</time>
      </trkpt>
      <trkpt lat="48.09173" lon="-3.63689">
        <ele>116.4</ele>
        <time>2022-12-08T13:12:14Z</time>
      </trkpt>
      <trkpt lat="48.09168" lon="-3.63694">
        <ele>116.5</ele>
        <time>2022-12-08T13:12:15Z</time>
      </trkpt>
      <trkpt lat="48.09164" lon="-3.63698">
        <ele>116.7</ele>
        <time>2022-12-08T13:12:16Z</time>
      </trkpt>
      <trkpt lat="48.0916" lon="-3.63701">
        <ele>116.8</ele>
        <time>2022-12-08T13:12:18Z</time>
      </trkpt>
      <trkpt lat="48.09156" lon="-3.63704">
        <ele>116.9</ele>
        <time>2022-12-08T13:12:19Z</time>
      </trkpt>
      <trkpt lat="48.09152" lon="-3.63707">
        <ele>117</ele>
        <time>2022-12-08T13:12:20Z</time>
      </trkpt>
      <trkpt lat="48.09145" lon="-3.63713">
        <ele>117.3</ele>
        <time>2022-12-08T13:12:21Z</time>
      </trkpt>
      <trkpt lat="48.09138" lon="-3.63717">
        <ele>117.4</ele>
        <time>2022-12-08T13:12:23Z</time>
      </trkpt>
      <trkpt lat="48.09135" lon="-3.63719">
        <ele>117.5</ele>
        <time>2022-12-08T13:12:24Z</time>
      </trkpt>
      <trkpt lat="48.0913" lon="-3.63723">
        <ele>117.6</ele>
        <time>2022-12-08T13:12:25Z</time>
      </trkpt>
      <trkpt lat="48.09126" lon="-3.63727">
        <ele>117.8</ele>
        <time>2022-12-08T13:12:26Z</time>
      </trkpt>
      <trkpt lat="48.09122" lon="-3.6373">
        <ele>117.9</ele>
        <time>2022-12-08T13:12:27Z</time>
      </trkpt>
      <trkpt lat="48.09119" lon="-3.63734">
        <ele>118</ele>
        <time>2022-12-08T13:12:28Z</time>
      </trkpt>
      <trkpt lat="48.09113" lon="-3.63737">
        <ele>118.1</ele>
        <time>2022-12-08T13:12:29Z</time>
      </trkpt>
      <trkpt lat="48.09108" lon="-3.63741">
        <ele>118.3</ele>
        <time>2022-12-08T13:12:30Z</time>
      </trkpt>
      <trkpt lat="48.09106" lon="-3.63742">
        <ele>118.3</ele>
        <time>2022-12-08T13:12:31Z</time>
      </trkpt>
      <trkpt lat="48.091" lon="-3.63746">
        <ele>118.5</ele>
        <time>2022-12-08T13:12:33Z</time>
      </trkpt>
      <trkpt lat="48.09094" lon="-3.6375">
        <ele>118.6</ele>
        <time>2022-12-08T13:12:34Z</time>
      </trkpt>
      <trkpt lat="48.09087" lon="-3.63754">
        <ele>118.8</ele>
        <time>2022-12-08T13:12:35Z</time>
      </trkpt>
      <trkpt lat="48.09083" lon="-3.63756">
        <ele>118.9</ele>
        <time>2022-12-08T13:12:36Z</time>
      </trkpt>
      <trkpt lat="48.09079" lon="-3.63758">
        <ele>119</ele>
        <time>2022-12-08T13:12:37Z</time>
      </trkpt>
      <trkpt lat="48.09073" lon="-3.63759">
        <ele>119.1</ele>
        <time>2022-12-08T13:12:39Z</time>
      </trkpt>
      <trkpt lat="48.09068" lon="-3.63761">
        <ele>119.2</ele>
        <time>2022-12-08T13:12:40Z</time>
      </trkpt>
      <trkpt lat="48.09063" lon="-3.63764">
        <ele>119.3</ele>
        <time>2022-12-08T13:12:41Z</time>
      </trkpt>
      <trkpt lat="48.09058" lon="-3.63767">
        <ele>119.4</ele>
        <time>2022-12-08T13:12:42Z</time>
      </trkpt>
      <trkpt lat="48.09053" lon="-3.63769">
        <ele>119.5</ele>
        <time>2022-12-08T13:12:43Z</time>
      </trkpt>
      <trkpt lat="48.09049" lon="-3.63771">
        <ele>119.5</ele>
        <time>2022-12-08T13:12:44Z</time>
      </trkpt>
      <trkpt lat="48.09044" lon="-3.63774">
        <ele>119.6</ele>
        <time>2022-12-08T13:12:45Z</time>
      </trkpt>
      <trkpt lat="48.09038" lon="-3.63777">
        <ele>119.7</ele>
        <time>2022-12-08T13:12:46Z</time>
      </trkpt>
      <trkpt lat="48.09033" lon="-3.63778">
        <ele>119.8</ele>
        <time>2022-12-08T13:12:47Z</time>
      </trkpt>
      <trkpt lat="48.09028" lon="-3.63781">
        <ele>119.9</ele>
        <time>2022-12-08T13:12:48Z</time>
      </trkpt>
      <trkpt lat="48.09023" lon="-3.63784">
        <ele>120</ele>
        <time>2022-12-08T13:12:49Z</time>
      </trkpt>
      <trkpt lat="48.09018" lon="-3.63786">
        <ele>120.1</ele>
        <time>2022-12-08T13:12:50Z</time>
      </trkpt>
      <trkpt lat="48.09013" lon="-3.63789">
        <ele>120.2</ele>
        <time>2022-12-08T13:12:51Z</time>
      </trkpt>
      <trkpt lat="48.09008" lon="-3.63791">
        <ele>120.3</ele>
        <time>2022-12-08T13:12:52Z</time>
      </trkpt>
      <trkpt lat="48.09003" lon="-3.63793">
        <ele>120.4</ele>
        <time>2022-12-08T13:12:53Z</time>
      </trkpt>
      <trkpt lat="48.08998" lon="-3.63796">
        <ele>120.5</ele>
        <time>2022-12-08T13:12:54Z</time>
      </trkpt>
      <trkpt lat="48.08994" lon="-3.63798">
        <ele>120.7</ele>
        <time>2022-12-08T13:12:55Z</time>
      </trkpt>
      <trkpt lat="48.08987" lon="-3.63801">
        <ele>120.8</ele>
        <time>2022-12-08T13:12:57Z</time>
      </trkpt>
      <trkpt lat="48.08984" lon="-3.63804">
        <ele>120.9</ele>
        <time>2022-12-08T13:12:58Z</time>
      </trkpt>
      <trkpt lat="48.08976" lon="-3.63807">
        <ele>121.1</ele>
        <time>2022-12-08T13:12:59Z</time>
      </trkpt>
      <trkpt lat="48.08972" lon="-3.63809">
        <ele>121.3</ele>
        <time>2022-12-08T13:13:00Z</time>
      </trkpt>
      <trkpt lat="48.08968" lon="-3.63811">
        <ele>121.4</ele>
        <time>2022-12-08T13:13:01Z</time>
      </trkpt>
      <trkpt lat="48.08966" lon="-3.63813">
        <ele>121.4</ele>
        <time>2022-12-08T13:13:02Z</time>
      </trkpt>
      <trkpt lat="48.08955" lon="-3.63818">
        <ele>121.7</ele>
        <time>2022-12-08T13:13:04Z</time>
      </trkpt>
      <trkpt lat="48.08951" lon="-3.63818">
        <ele>121.8</ele>
        <time>2022-12-08T13:13:06Z</time>
      </trkpt>
      <trkpt lat="48.08946" lon="-3.63822">
        <ele>122</ele>
        <time>2022-12-08T13:13:07Z</time>
      </trkpt>
      <trkpt lat="48.08942" lon="-3.63824">
        <ele>122.1</ele>
        <time>2022-12-08T13:13:08Z</time>
      </trkpt>
      <trkpt lat="48.08937" lon="-3.63825">
        <ele>122.3</ele>
        <time>2022-12-08T13:13:09Z</time>
      </trkpt>
      <trkpt lat="48.08932" lon="-3.63827">
        <ele>122.4</ele>
        <time>2022-12-08T13:13:10Z</time>
      </trkpt>
      <trkpt lat="48.08924" lon="-3.63831">
        <ele>122.6</ele>
        <time>2022-12-08T13:13:11Z</time>
      </trkpt>
      <trkpt lat="48.08919" lon="-3.63833">
        <ele>122.8</ele>
        <time>2022-12-08T13:13:12Z</time>
      </trkpt>
      <trkpt lat="48.08916" lon="-3.63835">
        <ele>122.9</ele>
        <time>2022-12-08T13:13:13Z</time>
      </trkpt>
      <trkpt lat="48.08913" lon="-3.63839">
        <ele>123</ele>
        <time>2022-12-08T13:13:14Z</time>
      </trkpt>
      <trkpt lat="48.08907" lon="-3.63841">
        <ele>123.2</ele>
        <time>2022-12-08T13:13:15Z</time>
      </trkpt>
      <trkpt lat="48.08902" lon="-3.63843">
        <ele>123.3</ele>
        <time>2022-12-08T13:13:16Z</time>
      </trkpt>
      <trkpt lat="48.08898" lon="-3.63847">
        <ele>123.5</ele>
        <time>2022-12-08T13:13:17Z</time>
      </trkpt>
      <trkpt lat="48.08893" lon="-3.6385">
        <ele>123.6</ele>
        <time>2022-12-08T13:13:18Z</time>
      </trkpt>
      <trkpt lat="48.08889" lon="-3.63852">
        <ele>123.7</ele>
        <time>2022-12-08T13:13:19Z</time>
      </trkpt>
      <trkpt lat="48.08884" lon="-3.63854">
        <ele>123.9</ele>
        <time>2022-12-08T13:13:20Z</time>
      </trkpt>
      <trkpt lat="48.08882" lon="-3.63855">
        <ele>123.9</ele>
        <time>2022-12-08T13:13:21Z</time>
      </trkpt>
      <trkpt lat="48.08875" lon="-3.63859">
        <ele>124.1</ele>
        <time>2022-12-08T13:13:22Z</time>
      </trkpt>
      <trkpt lat="48.0887" lon="-3.63863">
        <ele>124.3</ele>
        <time>2022-12-08T13:13:23Z</time>
      </trkpt>
      <trkpt lat="48.08865" lon="-3.63866">
        <ele>124.4</ele>
        <time>2022-12-08T13:13:24Z</time>
      </trkpt>
      <trkpt lat="48.0886" lon="-3.63869">
        <ele>124.6</ele>
        <time>2022-12-08T13:13:25Z</time>
      </trkpt>
      <trkpt lat="48.08857" lon="-3.63871">
        <ele>124.7</ele>
        <time>2022-12-08T13:13:26Z</time>
      </trkpt>
      <trkpt lat="48.08849" lon="-3.63876">
        <ele>124.9</ele>
        <time>2022-12-08T13:13:28Z</time>
      </trkpt>
      <trkpt lat="48.08845" lon="-3.6388">
        <ele>125</ele>
        <time>2022-12-08T13:13:29Z</time>
      </trkpt>
      <trkpt lat="48.08841" lon="-3.63884">
        <ele>125.1</ele>
        <time>2022-12-08T13:13:30Z</time>
      </trkpt>
      <trkpt lat="48.08837" lon="-3.63889">
        <ele>125.3</ele>
        <time>2022-12-08T13:13:31Z</time>
      </trkpt>
      <trkpt lat="48.08834" lon="-3.63892">
        <ele>125.3</ele>
        <time>2022-12-08T13:13:32Z</time>
      </trkpt>
      <trkpt lat="48.08831" lon="-3.63895">
        <ele>125.4</ele>
        <time>2022-12-08T13:13:33Z</time>
      </trkpt>
      <trkpt lat="48.08827" lon="-3.63899">
        <ele>125.6</ele>
        <time>2022-12-08T13:13:34Z</time>
      </trkpt>
      <trkpt lat="48.08823" lon="-3.63903">
        <ele>125.7</ele>
        <time>2022-12-08T13:13:35Z</time>
      </trkpt>
      <trkpt lat="48.0882" lon="-3.63905">
        <ele>125.7</ele>
        <time>2022-12-08T13:13:36Z</time>
      </trkpt>
      <trkpt lat="48.08817" lon="-3.6391">
        <ele>125.8</ele>
        <time>2022-12-08T13:13:37Z</time>
      </trkpt>
      <trkpt lat="48.08812" lon="-3.63917">
        <ele>126</ele>
        <time>2022-12-08T13:13:38Z</time>
      </trkpt>
      <trkpt lat="48.08807" lon="-3.63923">
        <ele>126.1</ele>
        <time>2022-12-08T13:13:40Z</time>
      </trkpt>
      <trkpt lat="48.08803" lon="-3.63929">
        <ele>126.2</ele>
        <time>2022-12-08T13:13:41Z</time>
      </trkpt>
      <trkpt lat="48.088" lon="-3.63935">
        <ele>126.3</ele>
        <time>2022-12-08T13:13:42Z</time>
      </trkpt>
      <trkpt lat="48.08798" lon="-3.6394">
        <ele>126.4</ele>
        <time>2022-12-08T13:13:43Z</time>
      </trkpt>
      <trkpt lat="48.08794" lon="-3.63947">
        <ele>126.6</ele>
        <time>2022-12-08T13:13:44Z</time>
      </trkpt>
      <trkpt lat="48.08791" lon="-3.63953">
        <ele>126.7</ele>
        <time>2022-12-08T13:13:45Z</time>
      </trkpt>
      <trkpt lat="48.0879" lon="-3.63956">
        <ele>126.8</ele>
        <time>2022-12-08T13:13:46Z</time>
      </trkpt>
      <trkpt lat="48.08785" lon="-3.63964">
        <ele>126.9</ele>
        <time>2022-12-08T13:13:47Z</time>
      </trkpt>
      <trkpt lat="48.08782" lon="-3.63968">
        <ele>127</ele>
        <time>2022-12-08T13:13:48Z</time>
      </trkpt>
      <trkpt lat="48.08778" lon="-3.63976">
        <ele>127.2</ele>
        <time>2022-12-08T13:13:50Z</time>
      </trkpt>
      <trkpt lat="48.08775" lon="-3.63986">
        <ele>127.3</ele>
        <time>2022-12-08T13:13:51Z</time>
      </trkpt>
      <trkpt lat="48.08772" lon="-3.6399">
        <ele>127.4</ele>
        <time>2022-12-08T13:13:52Z</time>
      </trkpt>
      <trkpt lat="48.08769" lon="-3.63999">
        <ele>127.6</ele>
        <time>2022-12-08T13:13:54Z</time>
      </trkpt>
      <trkpt lat="48.08767" lon="-3.64005">
        <ele>127.7</ele>
        <time>2022-12-08T13:13:55Z</time>
      </trkpt>
      <trkpt lat="48.08765" lon="-3.64011">
        <ele>127.8</ele>
        <time>2022-12-08T13:13:56Z</time>
      </trkpt>
      <trkpt lat="48.08764" lon="-3.64017">
        <ele>127.9</ele>
        <time>2022-12-08T13:13:57Z</time>
      </trkpt>
      <trkpt lat="48.08761" lon="-3.64027">
        <ele>128</ele>
        <time>2022-12-08T13:13:58Z</time>
      </trkpt>
      <trkpt lat="48.08759" lon="-3.64034">
        <ele>128.2</ele>
        <time>2022-12-08T13:13:59Z</time>
      </trkpt>
      <trkpt lat="48.08757" lon="-3.64041">
        <ele>128.3</ele>
        <time>2022-12-08T13:14:01Z</time>
      </trkpt>
      <trkpt lat="48.08755" lon="-3.64049">
        <ele>128.4</ele>
        <time>2022-12-08T13:14:02Z</time>
      </trkpt>
      <trkpt lat="48.08752" lon="-3.64056">
        <ele>128.6</ele>
        <time>2022-12-08T13:14:03Z</time>
      </trkpt>
      <trkpt lat="48.0875" lon="-3.64063">
        <ele>128.7</ele>
        <time>2022-12-08T13:14:04Z</time>
      </trkpt>
      <trkpt lat="48.08748" lon="-3.64068">
        <ele>128.8</ele>
        <time>2022-12-08T13:14:05Z</time>
      </trkpt>
      <trkpt lat="48.08748" lon="-3.64069">
        <ele>128.8</ele>
        <time>2022-12-08T13:14:06Z</time>
      </trkpt>
      <trkpt lat="48.08748" lon="-3.6407">
        <ele>128.8</ele>
        <time>2022-12-08T13:14:07Z</time>
      </trkpt>
      <trkpt lat="48.08747" lon="-3.6407">
        <ele>128.8</ele>
        <time>2022-12-08T13:14:08Z</time>
      </trkpt>
      <trkpt lat="48.08747" lon="-3.6407">
        <ele>128.9</ele>
        <time>2022-12-08T13:14:09Z</time>
      </trkpt>
      <trkpt lat="48.08747" lon="-3.64069">
        <ele>128.9</ele>
        <time>2022-12-08T13:14:10Z</time>
      </trkpt>
      <trkpt lat="48.08747" lon="-3.64069">
        <ele>128.9</ele>
        <time>2022-12-08T13:14:11Z</time>
      </trkpt>
      <trkpt lat="48.08747" lon="-3.64069">
        <ele>128.9</ele>
        <time>2022-12-08T13:14:12Z</time>
      </trkpt>
      <trkpt lat="48.08747" lon="-3.64069">
        <ele>128.9</ele>
        <time>2022-12-08T13:14:13Z</time>
      </trkpt>
      <trkpt lat="48.08747" lon="-3.64069">
        <ele>128.9</ele>
        <time>2022-12-08T13:14:14Z</time>
      </trkpt>
      <trkpt lat="48.08747" lon="-3.64069">
        <ele>128.9</ele>
        <time>2022-12-08T13:14:15Z</time>
      </trkpt>
      <trkpt lat="48.08747" lon="-3.64069">
        <ele>128.9</ele>
        <time>2022-12-08T13:14:16Z</time>
      </trkpt>
      <trkpt lat="48.08747" lon="-3.6407">
        <ele>128.9</ele>
        <time>2022-12-08T13:14:17Z</time>
      </trkpt>
      <trkpt lat="48.08748" lon="-3.64073">
        <ele>128.9</ele>
        <time>2022-12-08T13:14:42Z</time>
      </trkpt>
      <trkpt lat="48.08743" lon="-3.64084">
        <ele>129.1</ele>
        <time>2022-12-08T13:14:45Z</time>
      </trkpt>
      <trkpt lat="48.08741" lon="-3.6409">
        <ele>129.2</ele>
        <time>2022-12-08T13:14:46Z</time>
      </trkpt>
      <trkpt lat="48.0874" lon="-3.64095">
        <ele>129.3</ele>
        <time>2022-12-08T13:14:47Z</time>
      </trkpt>
      <trkpt lat="48.08739" lon="-3.641">
        <ele>129.3</ele>
        <time>2022-12-08T13:14:48Z</time>
      </trkpt>
      <trkpt lat="48.08738" lon="-3.64107">
        <ele>129.4</ele>
        <time>2022-12-08T13:14:49Z</time>
      </trkpt>
      <trkpt lat="48.08737" lon="-3.64112">
        <ele>129.5</ele>
        <time>2022-12-08T13:14:50Z</time>
      </trkpt>
      <trkpt lat="48.08736" lon="-3.64117">
        <ele>129.6</ele>
        <time>2022-12-08T13:14:51Z</time>
      </trkpt>
      <trkpt lat="48.08734" lon="-3.64124">
        <ele>129.7</ele>
        <time>2022-12-08T13:14:53Z</time>
      </trkpt>
      <trkpt lat="48.08732" lon="-3.64131">
        <ele>129.8</ele>
        <time>2022-12-08T13:14:54Z</time>
      </trkpt>
      <trkpt lat="48.0873" lon="-3.64139">
        <ele>129.9</ele>
        <time>2022-12-08T13:14:55Z</time>
      </trkpt>
      <trkpt lat="48.08729" lon="-3.64146">
        <ele>130</ele>
        <time>2022-12-08T13:14:56Z</time>
      </trkpt>
      <trkpt lat="48.08727" lon="-3.64153">
        <ele>130.1</ele>
        <time>2022-12-08T13:14:57Z</time>
      </trkpt>
      <trkpt lat="48.08725" lon="-3.64162">
        <ele>130.2</ele>
        <time>2022-12-08T13:14:59Z</time>
      </trkpt>
      <trkpt lat="48.08721" lon="-3.64177">
        <ele>130.4</ele>
        <time>2022-12-08T13:15:00Z</time>
      </trkpt>
      <trkpt lat="48.08719" lon="-3.64183">
        <ele>130.5</ele>
        <time>2022-12-08T13:15:01Z</time>
      </trkpt>
      <trkpt lat="48.08718" lon="-3.6419">
        <ele>130.6</ele>
        <time>2022-12-08T13:15:02Z</time>
      </trkpt>
      <trkpt lat="48.08717" lon="-3.64193">
        <ele>130.7</ele>
        <time>2022-12-08T13:15:03Z</time>
      </trkpt>
      <trkpt lat="48.08715" lon="-3.642">
        <ele>130.8</ele>
        <time>2022-12-08T13:15:04Z</time>
      </trkpt>
      <trkpt lat="48.08713" lon="-3.64206">
        <ele>130.9</ele>
        <time>2022-12-08T13:15:05Z</time>
      </trkpt>
      <trkpt lat="48.08713" lon="-3.64211">
        <ele>131</ele>
        <time>2022-12-08T13:15:06Z</time>
      </trkpt>
      <trkpt lat="48.0871" lon="-3.64219">
        <ele>131.1</ele>
        <time>2022-12-08T13:15:07Z</time>
      </trkpt>
      <trkpt lat="48.08708" lon="-3.64226">
        <ele>131.2</ele>
        <time>2022-12-08T13:15:08Z</time>
      </trkpt>
      <trkpt lat="48.08707" lon="-3.64231">
        <ele>131.3</ele>
        <time>2022-12-08T13:15:09Z</time>
      </trkpt>
      <trkpt lat="48.08707" lon="-3.64234">
        <ele>131.3</ele>
        <time>2022-12-08T13:15:10Z</time>
      </trkpt>
      <trkpt lat="48.08703" lon="-3.64241">
        <ele>131.4</ele>
        <time>2022-12-08T13:15:11Z</time>
      </trkpt>
      <trkpt lat="48.08701" lon="-3.64247">
        <ele>131.5</ele>
        <time>2022-12-08T13:15:12Z</time>
      </trkpt>
      <trkpt lat="48.08698" lon="-3.64257">
        <ele>131.7</ele>
        <time>2022-12-08T13:15:14Z</time>
      </trkpt>
      <trkpt lat="48.08696" lon="-3.64267">
        <ele>131.8</ele>
        <time>2022-12-08T13:15:15Z</time>
      </trkpt>
      <trkpt lat="48.08693" lon="-3.64279">
        <ele>132</ele>
        <time>2022-12-08T13:15:17Z</time>
      </trkpt>
      <trkpt lat="48.08691" lon="-3.64286">
        <ele>132.1</ele>
        <time>2022-12-08T13:15:18Z</time>
      </trkpt>
      <trkpt lat="48.08689" lon="-3.64293">
        <ele>132.2</ele>
        <time>2022-12-08T13:15:19Z</time>
      </trkpt>
      <trkpt lat="48.08686" lon="-3.64302">
        <ele>132.4</ele>
        <time>2022-12-08T13:15:21Z</time>
      </trkpt>
      <trkpt lat="48.08685" lon="-3.64309">
        <ele>132.5</ele>
        <time>2022-12-08T13:15:22Z</time>
      </trkpt>
      <trkpt lat="48.08682" lon="-3.64318">
        <ele>132.7</ele>
        <time>2022-12-08T13:15:23Z</time>
      </trkpt>
      <trkpt lat="48.0868" lon="-3.64323">
        <ele>132.8</ele>
        <time>2022-12-08T13:15:24Z</time>
      </trkpt>
      <trkpt lat="48.08678" lon="-3.6433">
        <ele>132.9</ele>
        <time>2022-12-08T13:15:25Z</time>
      </trkpt>
      <trkpt lat="48.08676" lon="-3.64338">
        <ele>133</ele>
        <time>2022-12-08T13:15:26Z</time>
      </trkpt>
      <trkpt lat="48.08674" lon="-3.64344">
        <ele>133.2</ele>
        <time>2022-12-08T13:15:27Z</time>
      </trkpt>
      <trkpt lat="48.08673" lon="-3.64351">
        <ele>133.3</ele>
        <time>2022-12-08T13:15:28Z</time>
      </trkpt>
      <trkpt lat="48.08671" lon="-3.64357">
        <ele>133.4</ele>
        <time>2022-12-08T13:15:29Z</time>
      </trkpt>
      <trkpt lat="48.08669" lon="-3.64363">
        <ele>133.5</ele>
        <time>2022-12-08T13:15:30Z</time>
      </trkpt>
      <trkpt lat="48.08668" lon="-3.64366">
        <ele>133.6</ele>
        <time>2022-12-08T13:15:31Z</time>
      </trkpt>
      <trkpt lat="48.08667" lon="-3.64375">
        <ele>133.7</ele>
        <time>2022-12-08T13:15:32Z</time>
      </trkpt>
      <trkpt lat="48.08667" lon="-3.64378">
        <ele>133.8</ele>
        <time>2022-12-08T13:15:33Z</time>
      </trkpt>
      <trkpt lat="48.08664" lon="-3.64387">
        <ele>133.9</ele>
        <time>2022-12-08T13:15:35Z</time>
      </trkpt>
      <trkpt lat="48.08662" lon="-3.64398">
        <ele>134.1</ele>
        <time>2022-12-08T13:15:36Z</time>
      </trkpt>
      <trkpt lat="48.08659" lon="-3.64406">
        <ele>134.2</ele>
        <time>2022-12-08T13:15:38Z</time>
      </trkpt>
      <trkpt lat="48.08656" lon="-3.64418">
        <ele>134.3</ele>
        <time>2022-12-08T13:15:39Z</time>
      </trkpt>
      <trkpt lat="48.08653" lon="-3.64425">
        <ele>134.4</ele>
        <time>2022-12-08T13:15:40Z</time>
      </trkpt>
      <trkpt lat="48.08651" lon="-3.64428">
        <ele>134.5</ele>
        <time>2022-12-08T13:15:41Z</time>
      </trkpt>
      <trkpt lat="48.0865" lon="-3.64436">
        <ele>134.6</ele>
        <time>2022-12-08T13:15:42Z</time>
      </trkpt>
      <trkpt lat="48.08649" lon="-3.64441">
        <ele>134.7</ele>
        <time>2022-12-08T13:15:43Z</time>
      </trkpt>
      <trkpt lat="48.08649" lon="-3.64448">
        <ele>134.8</ele>
        <time>2022-12-08T13:15:44Z</time>
      </trkpt>
      <trkpt lat="48.08647" lon="-3.64455">
        <ele>134.9</ele>
        <time>2022-12-08T13:15:45Z</time>
      </trkpt>
      <trkpt lat="48.08644" lon="-3.64459">
        <ele>135</ele>
        <time>2022-12-08T13:15:46Z</time>
      </trkpt>
      <trkpt lat="48.08645" lon="-3.64465">
        <ele>135.1</ele>
        <time>2022-12-08T13:15:47Z</time>
      </trkpt>
      <trkpt lat="48.08645" lon="-3.64467">
        <ele>135.1</ele>
        <time>2022-12-08T13:15:48Z</time>
      </trkpt>
      <trkpt lat="48.08641" lon="-3.64476">
        <ele>135.2</ele>
        <time>2022-12-08T13:15:49Z</time>
      </trkpt>
      <trkpt lat="48.08638" lon="-3.64481">
        <ele>135.4</ele>
        <time>2022-12-08T13:15:50Z</time>
      </trkpt>
      <trkpt lat="48.08635" lon="-3.64488">
        <ele>135.5</ele>
        <time>2022-12-08T13:15:51Z</time>
      </trkpt>
      <trkpt lat="48.08631" lon="-3.64494">
        <ele>135.6</ele>
        <time>2022-12-08T13:15:52Z</time>
      </trkpt>
      <trkpt lat="48.08628" lon="-3.64498">
        <ele>135.7</ele>
        <time>2022-12-08T13:15:53Z</time>
      </trkpt>
      <trkpt lat="48.08624" lon="-3.64506">
        <ele>135.9</ele>
        <time>2022-12-08T13:15:55Z</time>
      </trkpt>
      <trkpt lat="48.08622" lon="-3.64513">
        <ele>136</ele>
        <time>2022-12-08T13:15:56Z</time>
      </trkpt>
      <trkpt lat="48.0862" lon="-3.64519">
        <ele>136.1</ele>
        <time>2022-12-08T13:15:57Z</time>
      </trkpt>
      <trkpt lat="48.08617" lon="-3.64527">
        <ele>136.2</ele>
        <time>2022-12-08T13:15:58Z</time>
      </trkpt>
      <trkpt lat="48.08613" lon="-3.64536">
        <ele>136.4</ele>
        <time>2022-12-08T13:16:00Z</time>
      </trkpt>
      <trkpt lat="48.08608" lon="-3.64546">
        <ele>136.5</ele>
        <time>2022-12-08T13:16:01Z</time>
      </trkpt>
      <trkpt lat="48.08605" lon="-3.64551">
        <ele>136.7</ele>
        <time>2022-12-08T13:16:02Z</time>
      </trkpt>
      <trkpt lat="48.08603" lon="-3.64555">
        <ele>136.8</ele>
        <time>2022-12-08T13:16:03Z</time>
      </trkpt>
      <trkpt lat="48.086" lon="-3.64562">
        <ele>136.9</ele>
        <time>2022-12-08T13:16:04Z</time>
      </trkpt>
      <trkpt lat="48.08597" lon="-3.64568">
        <ele>137</ele>
        <time>2022-12-08T13:16:06Z</time>
      </trkpt>
      <trkpt lat="48.08594" lon="-3.64576">
        <ele>137.2</ele>
        <time>2022-12-08T13:16:07Z</time>
      </trkpt>
      <trkpt lat="48.0859" lon="-3.64586">
        <ele>137.4</ele>
        <time>2022-12-08T13:16:08Z</time>
      </trkpt>
      <trkpt lat="48.08586" lon="-3.64592">
        <ele>137.5</ele>
        <time>2022-12-08T13:16:09Z</time>
      </trkpt>
      <trkpt lat="48.08583" lon="-3.64598">
        <ele>137.6</ele>
        <time>2022-12-08T13:16:10Z</time>
      </trkpt>
      <trkpt lat="48.0858" lon="-3.64605">
        <ele>137.7</ele>
        <time>2022-12-08T13:16:11Z</time>
      </trkpt>
      <trkpt lat="48.08578" lon="-3.64611">
        <ele>137.8</ele>
        <time>2022-12-08T13:16:12Z</time>
      </trkpt>
      <trkpt lat="48.08578" lon="-3.64612">
        <ele>137.9</ele>
        <time>2022-12-08T13:16:13Z</time>
      </trkpt>
      <trkpt lat="48.08575" lon="-3.6462">
        <ele>138</ele>
        <time>2022-12-08T13:16:15Z</time>
      </trkpt>
      <trkpt lat="48.08569" lon="-3.64633">
        <ele>138.2</ele>
        <time>2022-12-08T13:16:16Z</time>
      </trkpt>
      <trkpt lat="48.08566" lon="-3.64639">
        <ele>138.3</ele>
        <time>2022-12-08T13:16:17Z</time>
      </trkpt>
      <trkpt lat="48.08564" lon="-3.64645">
        <ele>138.4</ele>
        <time>2022-12-08T13:16:18Z</time>
      </trkpt>
      <trkpt lat="48.08561" lon="-3.64654">
        <ele>138.6</ele>
        <time>2022-12-08T13:16:20Z</time>
      </trkpt>
      <trkpt lat="48.08559" lon="-3.64659">
        <ele>138.7</ele>
        <time>2022-12-08T13:16:21Z</time>
      </trkpt>
      <trkpt lat="48.08555" lon="-3.64667">
        <ele>138.8</ele>
        <time>2022-12-08T13:16:22Z</time>
      </trkpt>
      <trkpt lat="48.08552" lon="-3.64674">
        <ele>138.9</ele>
        <time>2022-12-08T13:16:23Z</time>
      </trkpt>
      <trkpt lat="48.0855" lon="-3.64679">
        <ele>139</ele>
        <time>2022-12-08T13:16:24Z</time>
      </trkpt>
      <trkpt lat="48.08548" lon="-3.64685">
        <ele>139.1</ele>
        <time>2022-12-08T13:16:25Z</time>
      </trkpt>
      <trkpt lat="48.08546" lon="-3.6469">
        <ele>139.1</ele>
        <time>2022-12-08T13:16:26Z</time>
      </trkpt>
      <trkpt lat="48.08544" lon="-3.64696">
        <ele>139.2</ele>
        <time>2022-12-08T13:16:27Z</time>
      </trkpt>
      <trkpt lat="48.08542" lon="-3.64702">
        <ele>139.3</ele>
        <time>2022-12-08T13:16:28Z</time>
      </trkpt>
      <trkpt lat="48.08541" lon="-3.64707">
        <ele>139.4</ele>
        <time>2022-12-08T13:16:29Z</time>
      </trkpt>
      <trkpt lat="48.08537" lon="-3.64715">
        <ele>139.5</ele>
        <time>2022-12-08T13:16:31Z</time>
      </trkpt>
      <trkpt lat="48.08533" lon="-3.64723">
        <ele>139.7</ele>
        <time>2022-12-08T13:16:32Z</time>
      </trkpt>
      <trkpt lat="48.08531" lon="-3.64728">
        <ele>139.7</ele>
        <time>2022-12-08T13:16:33Z</time>
      </trkpt>
      <trkpt lat="48.08528" lon="-3.64734">
        <ele>139.8</ele>
        <time>2022-12-08T13:16:34Z</time>
      </trkpt>
      <trkpt lat="48.08527" lon="-3.64738">
        <ele>139.9</ele>
        <time>2022-12-08T13:16:35Z</time>
      </trkpt>
      <trkpt lat="48.08525" lon="-3.64744">
        <ele>140</ele>
        <time>2022-12-08T13:16:36Z</time>
      </trkpt>
      <trkpt lat="48.08523" lon="-3.64749">
        <ele>140.1</ele>
        <time>2022-12-08T13:16:37Z</time>
      </trkpt>
      <trkpt lat="48.08521" lon="-3.64754">
        <ele>140.2</ele>
        <time>2022-12-08T13:16:38Z</time>
      </trkpt>
      <trkpt lat="48.08519" lon="-3.64759">
        <ele>140.3</ele>
        <time>2022-12-08T13:16:39Z</time>
      </trkpt>
      <trkpt lat="48.08518" lon="-3.64763">
        <ele>140.4</ele>
        <time>2022-12-08T13:16:40Z</time>
      </trkpt>
      <trkpt lat="48.08516" lon="-3.64771">
        <ele>140.5</ele>
        <time>2022-12-08T13:16:41Z</time>
      </trkpt>
      <trkpt lat="48.08513" lon="-3.64777">
        <ele>140.6</ele>
        <time>2022-12-08T13:16:42Z</time>
      </trkpt>
      <trkpt lat="48.08511" lon="-3.64783">
        <ele>140.7</ele>
        <time>2022-12-08T13:16:43Z</time>
      </trkpt>
      <trkpt lat="48.08508" lon="-3.64789">
        <ele>140.8</ele>
        <time>2022-12-08T13:16:44Z</time>
      </trkpt>
      <trkpt lat="48.08505" lon="-3.64795">
        <ele>140.9</ele>
        <time>2022-12-08T13:16:45Z</time>
      </trkpt>
      <trkpt lat="48.08503" lon="-3.64801">
        <ele>141</ele>
        <time>2022-12-08T13:16:46Z</time>
      </trkpt>
      <trkpt lat="48.08501" lon="-3.64807">
        <ele>141.2</ele>
        <time>2022-12-08T13:16:48Z</time>
      </trkpt>
      <trkpt lat="48.08495" lon="-3.64819">
        <ele>141.4</ele>
        <time>2022-12-08T13:16:49Z</time>
      </trkpt>
      <trkpt lat="48.08493" lon="-3.64825">
        <ele>141.5</ele>
        <time>2022-12-08T13:16:50Z</time>
      </trkpt>
      <trkpt lat="48.08489" lon="-3.64832">
        <ele>141.7</ele>
        <time>2022-12-08T13:16:51Z</time>
      </trkpt>
      <trkpt lat="48.08487" lon="-3.64836">
        <ele>141.8</ele>
        <time>2022-12-08T13:16:52Z</time>
      </trkpt>
      <trkpt lat="48.08484" lon="-3.64843">
        <ele>141.9</ele>
        <time>2022-12-08T13:16:54Z</time>
      </trkpt>
      <trkpt lat="48.08478" lon="-3.64855">
        <ele>142.2</ele>
        <time>2022-12-08T13:16:55Z</time>
      </trkpt>
      <trkpt lat="48.08475" lon="-3.64861">
        <ele>142.3</ele>
        <time>2022-12-08T13:16:56Z</time>
      </trkpt>
      <trkpt lat="48.08474" lon="-3.64865">
        <ele>142.4</ele>
        <time>2022-12-08T13:16:57Z</time>
      </trkpt>
      <trkpt lat="48.08473" lon="-3.64867">
        <ele>142.4</ele>
        <time>2022-12-08T13:16:58Z</time>
      </trkpt>
      <trkpt lat="48.0847" lon="-3.64876">
        <ele>142.6</ele>
        <time>2022-12-08T13:16:59Z</time>
      </trkpt>
      <trkpt lat="48.08467" lon="-3.64881">
        <ele>142.7</ele>
        <time>2022-12-08T13:17:00Z</time>
      </trkpt>
      <trkpt lat="48.08466" lon="-3.64885">
        <ele>142.7</ele>
        <time>2022-12-08T13:17:01Z</time>
      </trkpt>
      <trkpt lat="48.08463" lon="-3.64893">
        <ele>142.9</ele>
        <time>2022-12-08T13:17:03Z</time>
      </trkpt>
      <trkpt lat="48.0846" lon="-3.64902">
        <ele>143</ele>
        <time>2022-12-08T13:17:04Z</time>
      </trkpt>
      <trkpt lat="48.08458" lon="-3.64909">
        <ele>143.1</ele>
        <time>2022-12-08T13:17:05Z</time>
      </trkpt>
      <trkpt lat="48.08454" lon="-3.64916">
        <ele>143.3</ele>
        <time>2022-12-08T13:17:07Z</time>
      </trkpt>
      <trkpt lat="48.08452" lon="-3.64921">
        <ele>143.4</ele>
        <time>2022-12-08T13:17:08Z</time>
      </trkpt>
      <trkpt lat="48.0845" lon="-3.64927">
        <ele>143.5</ele>
        <time>2022-12-08T13:17:09Z</time>
      </trkpt>
      <trkpt lat="48.08446" lon="-3.64938">
        <ele>143.7</ele>
        <time>2022-12-08T13:17:10Z</time>
      </trkpt>
      <trkpt lat="48.08445" lon="-3.64945">
        <ele>143.8</ele>
        <time>2022-12-08T13:17:11Z</time>
      </trkpt>
      <trkpt lat="48.08444" lon="-3.6495">
        <ele>143.9</ele>
        <time>2022-12-08T13:17:12Z</time>
      </trkpt>
      <trkpt lat="48.08442" lon="-3.64959">
        <ele>144</ele>
        <time>2022-12-08T13:17:13Z</time>
      </trkpt>
      <trkpt lat="48.08441" lon="-3.64966">
        <ele>144.1</ele>
        <time>2022-12-08T13:17:14Z</time>
      </trkpt>
      <trkpt lat="48.08441" lon="-3.64972">
        <ele>144.2</ele>
        <time>2022-12-08T13:17:15Z</time>
      </trkpt>
      <trkpt lat="48.08443" lon="-3.64979">
        <ele>144.3</ele>
        <time>2022-12-08T13:17:17Z</time>
      </trkpt>
      <trkpt lat="48.0844" lon="-3.64988">
        <ele>144.5</ele>
        <time>2022-12-08T13:17:18Z</time>
      </trkpt>
      <trkpt lat="48.08438" lon="-3.64999">
        <ele>144.7</ele>
        <time>2022-12-08T13:17:20Z</time>
      </trkpt>
      <trkpt lat="48.08438" lon="-3.65004">
        <ele>144.7</ele>
        <time>2022-12-08T13:17:21Z</time>
      </trkpt>
      <trkpt lat="48.08439" lon="-3.65009">
        <ele>144.8</ele>
        <time>2022-12-08T13:17:22Z</time>
      </trkpt>
      <trkpt lat="48.08439" lon="-3.65015">
        <ele>144.9</ele>
        <time>2022-12-08T13:17:23Z</time>
      </trkpt>
      <trkpt lat="48.08437" lon="-3.65023">
        <ele>145</ele>
        <time>2022-12-08T13:17:24Z</time>
      </trkpt>
      <trkpt lat="48.08437" lon="-3.65032">
        <ele>145.1</ele>
        <time>2022-12-08T13:17:25Z</time>
      </trkpt>
      <trkpt lat="48.08437" lon="-3.65041">
        <ele>145.2</ele>
        <time>2022-12-08T13:17:26Z</time>
      </trkpt>
      <trkpt lat="48.08436" lon="-3.65048">
        <ele>145.3</ele>
        <time>2022-12-08T13:17:27Z</time>
      </trkpt>
      <trkpt lat="48.08435" lon="-3.65054">
        <ele>145.4</ele>
        <time>2022-12-08T13:17:28Z</time>
      </trkpt>
      <trkpt lat="48.08433" lon="-3.65061">
        <ele>145.5</ele>
        <time>2022-12-08T13:17:29Z</time>
      </trkpt>
      <trkpt lat="48.08434" lon="-3.65066">
        <ele>145.5</ele>
        <time>2022-12-08T13:17:30Z</time>
      </trkpt>
      <trkpt lat="48.08434" lon="-3.65073">
        <ele>145.6</ele>
        <time>2022-12-08T13:17:31Z</time>
      </trkpt>
      <trkpt lat="48.08432" lon="-3.65081">
        <ele>145.7</ele>
        <time>2022-12-08T13:17:32Z</time>
      </trkpt>
      <trkpt lat="48.08431" lon="-3.65088">
        <ele>145.7</ele>
        <time>2022-12-08T13:17:33Z</time>
      </trkpt>
      <trkpt lat="48.08431" lon="-3.65095">
        <ele>145.8</ele>
        <time>2022-12-08T13:17:34Z</time>
      </trkpt>
      <trkpt lat="48.0843" lon="-3.65102">
        <ele>145.9</ele>
        <time>2022-12-08T13:17:35Z</time>
      </trkpt>
      <trkpt lat="48.08428" lon="-3.65115">
        <ele>146</ele>
        <time>2022-12-08T13:17:37Z</time>
      </trkpt>
      <trkpt lat="48.08426" lon="-3.65124">
        <ele>146</ele>
        <time>2022-12-08T13:17:38Z</time>
      </trkpt>
      <trkpt lat="48.08426" lon="-3.65131">
        <ele>146.1</ele>
        <time>2022-12-08T13:17:39Z</time>
      </trkpt>
      <trkpt lat="48.08425" lon="-3.65138">
        <ele>146.1</ele>
        <time>2022-12-08T13:17:40Z</time>
      </trkpt>
      <trkpt lat="48.08423" lon="-3.65147">
        <ele>146.2</ele>
        <time>2022-12-08T13:17:41Z</time>
      </trkpt>
      <trkpt lat="48.08421" lon="-3.65156">
        <ele>146.2</ele>
        <time>2022-12-08T13:17:42Z</time>
      </trkpt>
      <trkpt lat="48.0842" lon="-3.65163">
        <ele>146.3</ele>
        <time>2022-12-08T13:17:43Z</time>
      </trkpt>
      <trkpt lat="48.08419" lon="-3.65166">
        <ele>146.3</ele>
        <time>2022-12-08T13:17:44Z</time>
      </trkpt>
      <trkpt lat="48.08418" lon="-3.65176">
        <ele>146.3</ele>
        <time>2022-12-08T13:17:46Z</time>
      </trkpt>
      <trkpt lat="48.08416" lon="-3.65191">
        <ele>146.4</ele>
        <time>2022-12-08T13:17:47Z</time>
      </trkpt>
      <trkpt lat="48.08414" lon="-3.65199">
        <ele>146.4</ele>
        <time>2022-12-08T13:17:48Z</time>
      </trkpt>
      <trkpt lat="48.08413" lon="-3.65206">
        <ele>146.4</ele>
        <time>2022-12-08T13:17:49Z</time>
      </trkpt>
      <trkpt lat="48.08413" lon="-3.65212">
        <ele>146.5</ele>
        <time>2022-12-08T13:17:50Z</time>
      </trkpt>
      <trkpt lat="48.08411" lon="-3.6522">
        <ele>146.5</ele>
        <time>2022-12-08T13:17:51Z</time>
      </trkpt>
      <trkpt lat="48.08406" lon="-3.65235">
        <ele>146.6</ele>
        <time>2022-12-08T13:17:53Z</time>
      </trkpt>
      <trkpt lat="48.08404" lon="-3.65241">
        <ele>146.7</ele>
        <time>2022-12-08T13:17:54Z</time>
      </trkpt>
      <trkpt lat="48.08401" lon="-3.65248">
        <ele>146.8</ele>
        <time>2022-12-08T13:17:55Z</time>
      </trkpt>
      <trkpt lat="48.08398" lon="-3.65255">
        <ele>146.8</ele>
        <time>2022-12-08T13:17:56Z</time>
      </trkpt>
      <trkpt lat="48.08396" lon="-3.65261">
        <ele>146.9</ele>
        <time>2022-12-08T13:17:57Z</time>
      </trkpt>
      <trkpt lat="48.08394" lon="-3.65267">
        <ele>147</ele>
        <time>2022-12-08T13:17:58Z</time>
      </trkpt>
      <trkpt lat="48.08392" lon="-3.65271">
        <ele>147</ele>
        <time>2022-12-08T13:18:00Z</time>
      </trkpt>
      <trkpt lat="48.08389" lon="-3.65277">
        <ele>147.1</ele>
        <time>2022-12-08T13:18:01Z</time>
      </trkpt>
      <trkpt lat="48.08383" lon="-3.6529">
        <ele>147.3</ele>
        <time>2022-12-08T13:18:02Z</time>
      </trkpt>
      <trkpt lat="48.0838" lon="-3.65295">
        <ele>147.3</ele>
        <time>2022-12-08T13:18:03Z</time>
      </trkpt>
      <trkpt lat="48.08377" lon="-3.653">
        <ele>147.4</ele>
        <time>2022-12-08T13:18:04Z</time>
      </trkpt>
      <trkpt lat="48.08374" lon="-3.65303">
        <ele>147.5</ele>
        <time>2022-12-08T13:18:05Z</time>
      </trkpt>
      <trkpt lat="48.0837" lon="-3.6531">
        <ele>147.5</ele>
        <time>2022-12-08T13:18:06Z</time>
      </trkpt>
      <trkpt lat="48.08366" lon="-3.65316">
        <ele>147.6</ele>
        <time>2022-12-08T13:18:07Z</time>
      </trkpt>
      <trkpt lat="48.08362" lon="-3.65321">
        <ele>147.6</ele>
        <time>2022-12-08T13:18:08Z</time>
      </trkpt>
      <trkpt lat="48.08359" lon="-3.65326">
        <ele>147.7</ele>
        <time>2022-12-08T13:18:09Z</time>
      </trkpt>
      <trkpt lat="48.08354" lon="-3.65332">
        <ele>147.7</ele>
        <time>2022-12-08T13:18:10Z</time>
      </trkpt>
      <trkpt lat="48.08351" lon="-3.65336">
        <ele>147.8</ele>
        <time>2022-12-08T13:18:11Z</time>
      </trkpt>
      <trkpt lat="48.08347" lon="-3.6534">
        <ele>147.8</ele>
        <time>2022-12-08T13:18:12Z</time>
      </trkpt>
      <trkpt lat="48.08343" lon="-3.65345">
        <ele>147.9</ele>
        <time>2022-12-08T13:18:13Z</time>
      </trkpt>
      <trkpt lat="48.0834" lon="-3.65349">
        <ele>147.9</ele>
        <time>2022-12-08T13:18:15Z</time>
      </trkpt>
      <trkpt lat="48.0833" lon="-3.65357">
        <ele>148.1</ele>
        <time>2022-12-08T13:18:16Z</time>
      </trkpt>
      <trkpt lat="48.08326" lon="-3.6536">
        <ele>148.2</ele>
        <time>2022-12-08T13:18:17Z</time>
      </trkpt>
      <trkpt lat="48.08322" lon="-3.65364">
        <ele>148.2</ele>
        <time>2022-12-08T13:18:18Z</time>
      </trkpt>
      <trkpt lat="48.08317" lon="-3.65369">
        <ele>148.2</ele>
        <time>2022-12-08T13:18:19Z</time>
      </trkpt>
      <trkpt lat="48.08314" lon="-3.65374">
        <ele>148.3</ele>
        <time>2022-12-08T13:18:20Z</time>
      </trkpt>
      <trkpt lat="48.0831" lon="-3.65379">
        <ele>148.3</ele>
        <time>2022-12-08T13:18:21Z</time>
      </trkpt>
      <trkpt lat="48.08307" lon="-3.65383">
        <ele>148.3</ele>
        <time>2022-12-08T13:18:22Z</time>
      </trkpt>
      <trkpt lat="48.08303" lon="-3.65387">
        <ele>148.4</ele>
        <time>2022-12-08T13:18:23Z</time>
      </trkpt>
      <trkpt lat="48.08299" lon="-3.65392">
        <ele>148.4</ele>
        <time>2022-12-08T13:18:24Z</time>
      </trkpt>
      <trkpt lat="48.08296" lon="-3.65395">
        <ele>148.4</ele>
        <time>2022-12-08T13:18:25Z</time>
      </trkpt>
      <trkpt lat="48.08294" lon="-3.65398">
        <ele>148.4</ele>
        <time>2022-12-08T13:18:26Z</time>
      </trkpt>
      <trkpt lat="48.08292" lon="-3.65399">
        <ele>148.4</ele>
        <time>2022-12-08T13:18:27Z</time>
      </trkpt>
      <trkpt lat="48.08286" lon="-3.65409">
        <ele>148.7</ele>
        <time>2022-12-08T13:18:28Z</time>
      </trkpt>
      <trkpt lat="48.08282" lon="-3.65414">
        <ele>148.8</ele>
        <time>2022-12-08T13:18:29Z</time>
      </trkpt>
      <trkpt lat="48.08278" lon="-3.65419">
        <ele>149</ele>
        <time>2022-12-08T13:18:30Z</time>
      </trkpt>
      <trkpt lat="48.08274" lon="-3.65424">
        <ele>149.1</ele>
        <time>2022-12-08T13:18:31Z</time>
      </trkpt>
      <trkpt lat="48.0827" lon="-3.65429">
        <ele>149.2</ele>
        <time>2022-12-08T13:18:32Z</time>
      </trkpt>
      <trkpt lat="48.08267" lon="-3.65433">
        <ele>149.4</ele>
        <time>2022-12-08T13:18:33Z</time>
      </trkpt>
      <trkpt lat="48.0826" lon="-3.65441">
        <ele>149.6</ele>
        <time>2022-12-08T13:18:35Z</time>
      </trkpt>
      <trkpt lat="48.08256" lon="-3.65446">
        <ele>149.8</ele>
        <time>2022-12-08T13:18:36Z</time>
      </trkpt>
      <trkpt lat="48.08251" lon="-3.65449">
        <ele>149.9</ele>
        <time>2022-12-08T13:18:37Z</time>
      </trkpt>
      <trkpt lat="48.08248" lon="-3.65453">
        <ele>150</ele>
        <time>2022-12-08T13:18:38Z</time>
      </trkpt>
      <trkpt lat="48.08244" lon="-3.65459">
        <ele>150.2</ele>
        <time>2022-12-08T13:18:39Z</time>
      </trkpt>
      <trkpt lat="48.0824" lon="-3.65465">
        <ele>150.3</ele>
        <time>2022-12-08T13:18:41Z</time>
      </trkpt>
      <trkpt lat="48.08235" lon="-3.65471">
        <ele>150.4</ele>
        <time>2022-12-08T13:18:42Z</time>
      </trkpt>
      <trkpt lat="48.0823" lon="-3.65476">
        <ele>150.6</ele>
        <time>2022-12-08T13:18:43Z</time>
      </trkpt>
      <trkpt lat="48.08225" lon="-3.6548">
        <ele>150.7</ele>
        <time>2022-12-08T13:18:44Z</time>
      </trkpt>
      <trkpt lat="48.08221" lon="-3.65485">
        <ele>150.8</ele>
        <time>2022-12-08T13:18:45Z</time>
      </trkpt>
      <trkpt lat="48.08218" lon="-3.65488">
        <ele>150.9</ele>
        <time>2022-12-08T13:18:46Z</time>
      </trkpt>
      <trkpt lat="48.08213" lon="-3.65492">
        <ele>151</ele>
        <time>2022-12-08T13:18:48Z</time>
      </trkpt>
      <trkpt lat="48.08207" lon="-3.65497">
        <ele>151.2</ele>
        <time>2022-12-08T13:18:49Z</time>
      </trkpt>
      <trkpt lat="48.082" lon="-3.65505">
        <ele>151.3</ele>
        <time>2022-12-08T13:18:50Z</time>
      </trkpt>
      <trkpt lat="48.08196" lon="-3.65507">
        <ele>151.4</ele>
        <time>2022-12-08T13:18:51Z</time>
      </trkpt>
      <trkpt lat="48.08192" lon="-3.6551">
        <ele>151.5</ele>
        <time>2022-12-08T13:18:52Z</time>
      </trkpt>
      <trkpt lat="48.08188" lon="-3.65511">
        <ele>151.6</ele>
        <time>2022-12-08T13:18:53Z</time>
      </trkpt>
      <trkpt lat="48.08183" lon="-3.65513">
        <ele>151.7</ele>
        <time>2022-12-08T13:18:54Z</time>
      </trkpt>
      <trkpt lat="48.08179" lon="-3.65516">
        <ele>151.8</ele>
        <time>2022-12-08T13:18:55Z</time>
      </trkpt>
      <trkpt lat="48.08173" lon="-3.65519">
        <ele>151.9</ele>
        <time>2022-12-08T13:18:56Z</time>
      </trkpt>
      <trkpt lat="48.08169" lon="-3.65521">
        <ele>152.1</ele>
        <time>2022-12-08T13:18:57Z</time>
      </trkpt>
      <trkpt lat="48.08164" lon="-3.65523">
        <ele>152.2</ele>
        <time>2022-12-08T13:18:58Z</time>
      </trkpt>
      <trkpt lat="48.08159" lon="-3.65526">
        <ele>152.3</ele>
        <time>2022-12-08T13:19:00Z</time>
      </trkpt>
      <trkpt lat="48.08156" lon="-3.65527">
        <ele>152.4</ele>
        <time>2022-12-08T13:19:01Z</time>
      </trkpt>
      <trkpt lat="48.08151" lon="-3.65531">
        <ele>152.6</ele>
        <time>2022-12-08T13:19:02Z</time>
      </trkpt>
      <trkpt lat="48.08145" lon="-3.65533">
        <ele>152.7</ele>
        <time>2022-12-08T13:19:03Z</time>
      </trkpt>
      <trkpt lat="48.08141" lon="-3.65535">
        <ele>152.8</ele>
        <time>2022-12-08T13:19:04Z</time>
      </trkpt>
      <trkpt lat="48.08137" lon="-3.65534">
        <ele>152.9</ele>
        <time>2022-12-08T13:19:06Z</time>
      </trkpt>
      <trkpt lat="48.08131" lon="-3.65539">
        <ele>153.1</ele>
        <time>2022-12-08T13:19:07Z</time>
      </trkpt>
      <trkpt lat="48.08124" lon="-3.65544">
        <ele>153.2</ele>
        <time>2022-12-08T13:19:08Z</time>
      </trkpt>
      <trkpt lat="48.08122" lon="-3.65545">
        <ele>153.3</ele>
        <time>2022-12-08T13:19:09Z</time>
      </trkpt>
      <trkpt lat="48.08117" lon="-3.65548">
        <ele>153.4</ele>
        <time>2022-12-08T13:19:11Z</time>
      </trkpt>
      <trkpt lat="48.0811" lon="-3.65552">
        <ele>153.5</ele>
        <time>2022-12-08T13:19:12Z</time>
      </trkpt>
      <trkpt lat="48.08106" lon="-3.65554">
        <ele>153.6</ele>
        <time>2022-12-08T13:19:13Z</time>
      </trkpt>
      <trkpt lat="48.08102" lon="-3.65556">
        <ele>153.7</ele>
        <time>2022-12-08T13:19:14Z</time>
      </trkpt>
      <trkpt lat="48.08098" lon="-3.65558">
        <ele>153.8</ele>
        <time>2022-12-08T13:19:15Z</time>
      </trkpt>
      <trkpt lat="48.08094" lon="-3.6556">
        <ele>153.9</ele>
        <time>2022-12-08T13:19:16Z</time>
      </trkpt>
      <trkpt lat="48.08091" lon="-3.65562">
        <ele>154</ele>
        <time>2022-12-08T13:19:17Z</time>
      </trkpt>
      <trkpt lat="48.08085" lon="-3.65565">
        <ele>154.1</ele>
        <time>2022-12-08T13:19:18Z</time>
      </trkpt>
      <trkpt lat="48.0808" lon="-3.65568">
        <ele>154.3</ele>
        <time>2022-12-08T13:19:20Z</time>
      </trkpt>
      <trkpt lat="48.08075" lon="-3.65572">
        <ele>154.4</ele>
        <time>2022-12-08T13:19:21Z</time>
      </trkpt>
      <trkpt lat="48.0807" lon="-3.65576">
        <ele>154.5</ele>
        <time>2022-12-08T13:19:22Z</time>
      </trkpt>
      <trkpt lat="48.08066" lon="-3.65578">
        <ele>154.6</ele>
        <time>2022-12-08T13:19:23Z</time>
      </trkpt>
      <trkpt lat="48.08062" lon="-3.65579">
        <ele>154.7</ele>
        <time>2022-12-08T13:19:24Z</time>
      </trkpt>
      <trkpt lat="48.08059" lon="-3.65581">
        <ele>154.8</ele>
        <time>2022-12-08T13:19:25Z</time>
      </trkpt>
      <trkpt lat="48.08053" lon="-3.65586">
        <ele>155</ele>
        <time>2022-12-08T13:19:26Z</time>
      </trkpt>
      <trkpt lat="48.08049" lon="-3.6559">
        <ele>155</ele>
        <time>2022-12-08T13:19:27Z</time>
      </trkpt>
      <trkpt lat="48.08044" lon="-3.65594">
        <ele>155.1</ele>
        <time>2022-12-08T13:19:28Z</time>
      </trkpt>
      <trkpt lat="48.08039" lon="-3.65599">
        <ele>155.3</ele>
        <time>2022-12-08T13:19:29Z</time>
      </trkpt>
      <trkpt lat="48.08035" lon="-3.65604">
        <ele>155.4</ele>
        <time>2022-12-08T13:19:30Z</time>
      </trkpt>
      <trkpt lat="48.0803" lon="-3.65609">
        <ele>155.5</ele>
        <time>2022-12-08T13:19:31Z</time>
      </trkpt>
      <trkpt lat="48.08026" lon="-3.65613">
        <ele>155.6</ele>
        <time>2022-12-08T13:19:32Z</time>
      </trkpt>
      <trkpt lat="48.08022" lon="-3.65617">
        <ele>155.6</ele>
        <time>2022-12-08T13:19:33Z</time>
      </trkpt>
      <trkpt lat="48.08013" lon="-3.65628">
        <ele>155.8</ele>
        <time>2022-12-08T13:19:35Z</time>
      </trkpt>
      <trkpt lat="48.08009" lon="-3.65632">
        <ele>155.9</ele>
        <time>2022-12-08T13:19:36Z</time>
      </trkpt>
      <trkpt lat="48.08004" lon="-3.65638">
        <ele>156</ele>
        <time>2022-12-08T13:19:37Z</time>
      </trkpt>
      <trkpt lat="48.08002" lon="-3.65641">
        <ele>156.1</ele>
        <time>2022-12-08T13:19:38Z</time>
      </trkpt>
      <trkpt lat="48.07998" lon="-3.65646">
        <ele>156.2</ele>
        <time>2022-12-08T13:19:39Z</time>
      </trkpt>
      <trkpt lat="48.07995" lon="-3.65651">
        <ele>156.3</ele>
        <time>2022-12-08T13:19:40Z</time>
      </trkpt>
      <trkpt lat="48.07991" lon="-3.65656">
        <ele>156.4</ele>
        <time>2022-12-08T13:19:41Z</time>
      </trkpt>
      <trkpt lat="48.07987" lon="-3.65661">
        <ele>156.5</ele>
        <time>2022-12-08T13:19:42Z</time>
      </trkpt>
      <trkpt lat="48.07984" lon="-3.65666">
        <ele>156.5</ele>
        <time>2022-12-08T13:19:43Z</time>
      </trkpt>
      <trkpt lat="48.07981" lon="-3.65671">
        <ele>156.6</ele>
        <time>2022-12-08T13:19:44Z</time>
      </trkpt>
      <trkpt lat="48.07978" lon="-3.65675">
        <ele>156.7</ele>
        <time>2022-12-08T13:19:45Z</time>
      </trkpt>
      <trkpt lat="48.07975" lon="-3.6568">
        <ele>156.8</ele>
        <time>2022-12-08T13:19:46Z</time>
      </trkpt>
      <trkpt lat="48.07971" lon="-3.65685">
        <ele>156.8</ele>
        <time>2022-12-08T13:19:47Z</time>
      </trkpt>
      <trkpt lat="48.07968" lon="-3.6569">
        <ele>156.9</ele>
        <time>2022-12-08T13:19:48Z</time>
      </trkpt>
      <trkpt lat="48.07964" lon="-3.65694">
        <ele>157</ele>
        <time>2022-12-08T13:19:49Z</time>
      </trkpt>
      <trkpt lat="48.0796" lon="-3.65699">
        <ele>157.1</ele>
        <time>2022-12-08T13:19:50Z</time>
      </trkpt>
      <trkpt lat="48.07957" lon="-3.65703">
        <ele>157.2</ele>
        <time>2022-12-08T13:19:51Z</time>
      </trkpt>
      <trkpt lat="48.07953" lon="-3.65709">
        <ele>157.3</ele>
        <time>2022-12-08T13:19:52Z</time>
      </trkpt>
      <trkpt lat="48.07949" lon="-3.65714">
        <ele>157.4</ele>
        <time>2022-12-08T13:19:53Z</time>
      </trkpt>
      <trkpt lat="48.07945" lon="-3.65718">
        <ele>157.5</ele>
        <time>2022-12-08T13:19:54Z</time>
      </trkpt>
      <trkpt lat="48.07942" lon="-3.65722">
        <ele>157.6</ele>
        <time>2022-12-08T13:19:55Z</time>
      </trkpt>
      <trkpt lat="48.07939" lon="-3.65726">
        <ele>157.7</ele>
        <time>2022-12-08T13:19:56Z</time>
      </trkpt>
      <trkpt lat="48.07935" lon="-3.65731">
        <ele>157.8</ele>
        <time>2022-12-08T13:19:57Z</time>
      </trkpt>
      <trkpt lat="48.07932" lon="-3.65734">
        <ele>157.9</ele>
        <time>2022-12-08T13:19:58Z</time>
      </trkpt>
      <trkpt lat="48.0793" lon="-3.65737">
        <ele>158</ele>
        <time>2022-12-08T13:19:59Z</time>
      </trkpt>
      <trkpt lat="48.07926" lon="-3.65742">
        <ele>158.1</ele>
        <time>2022-12-08T13:20:00Z</time>
      </trkpt>
      <trkpt lat="48.07923" lon="-3.65747">
        <ele>158.3</ele>
        <time>2022-12-08T13:20:01Z</time>
      </trkpt>
      <trkpt lat="48.07919" lon="-3.65751">
        <ele>158.4</ele>
        <time>2022-12-08T13:20:02Z</time>
      </trkpt>
      <trkpt lat="48.07917" lon="-3.65753">
        <ele>158.5</ele>
        <time>2022-12-08T13:20:03Z</time>
      </trkpt>
      <trkpt lat="48.07914" lon="-3.65757">
        <ele>158.6</ele>
        <time>2022-12-08T13:20:04Z</time>
      </trkpt>
      <trkpt lat="48.07912" lon="-3.65759">
        <ele>158.7</ele>
        <time>2022-12-08T13:20:05Z</time>
      </trkpt>
      <trkpt lat="48.07907" lon="-3.65766">
        <ele>158.9</ele>
        <time>2022-12-08T13:20:07Z</time>
      </trkpt>
      <trkpt lat="48.07904" lon="-3.6577">
        <ele>159</ele>
        <time>2022-12-08T13:20:08Z</time>
      </trkpt>
      <trkpt lat="48.079" lon="-3.65777">
        <ele>159.1</ele>
        <time>2022-12-08T13:20:10Z</time>
      </trkpt>
      <trkpt lat="48.07896" lon="-3.65783">
        <ele>159.3</ele>
        <time>2022-12-08T13:20:11Z</time>
      </trkpt>
      <trkpt lat="48.07891" lon="-3.6579">
        <ele>159.4</ele>
        <time>2022-12-08T13:20:12Z</time>
      </trkpt>
      <trkpt lat="48.07888" lon="-3.65794">
        <ele>159.5</ele>
        <time>2022-12-08T13:20:13Z</time>
      </trkpt>
      <trkpt lat="48.07885" lon="-3.65799">
        <ele>159.6</ele>
        <time>2022-12-08T13:20:14Z</time>
      </trkpt>
      <trkpt lat="48.07881" lon="-3.65806">
        <ele>159.7</ele>
        <time>2022-12-08T13:20:16Z</time>
      </trkpt>
      <trkpt lat="48.07877" lon="-3.6581">
        <ele>159.8</ele>
        <time>2022-12-08T13:20:17Z</time>
      </trkpt>
      <trkpt lat="48.07873" lon="-3.65816">
        <ele>159.9</ele>
        <time>2022-12-08T13:20:18Z</time>
      </trkpt>
      <trkpt lat="48.07869" lon="-3.65821">
        <ele>160</ele>
        <time>2022-12-08T13:20:19Z</time>
      </trkpt>
      <trkpt lat="48.07865" lon="-3.65826">
        <ele>160.1</ele>
        <time>2022-12-08T13:20:20Z</time>
      </trkpt>
      <trkpt lat="48.07861" lon="-3.65831">
        <ele>160.2</ele>
        <time>2022-12-08T13:20:22Z</time>
      </trkpt>
      <trkpt lat="48.07859" lon="-3.65834">
        <ele>160.3</ele>
        <time>2022-12-08T13:20:23Z</time>
      </trkpt>
      <trkpt lat="48.07853" lon="-3.65841">
        <ele>160.4</ele>
        <time>2022-12-08T13:20:24Z</time>
      </trkpt>
      <trkpt lat="48.0785" lon="-3.65845">
        <ele>160.5</ele>
        <time>2022-12-08T13:20:25Z</time>
      </trkpt>
      <trkpt lat="48.07847" lon="-3.6585">
        <ele>160.6</ele>
        <time>2022-12-08T13:20:26Z</time>
      </trkpt>
      <trkpt lat="48.07844" lon="-3.65855">
        <ele>160.7</ele>
        <time>2022-12-08T13:20:27Z</time>
      </trkpt>
      <trkpt lat="48.0784" lon="-3.6586">
        <ele>160.8</ele>
        <time>2022-12-08T13:20:28Z</time>
      </trkpt>
      <trkpt lat="48.07834" lon="-3.65867">
        <ele>160.9</ele>
        <time>2022-12-08T13:20:30Z</time>
      </trkpt>
      <trkpt lat="48.0783" lon="-3.65871">
        <ele>161</ele>
        <time>2022-12-08T13:20:31Z</time>
      </trkpt>
      <trkpt lat="48.07826" lon="-3.65877">
        <ele>161.1</ele>
        <time>2022-12-08T13:20:33Z</time>
      </trkpt>
      <trkpt lat="48.0782" lon="-3.65885">
        <ele>161.3</ele>
        <time>2022-12-08T13:20:34Z</time>
      </trkpt>
      <trkpt lat="48.07817" lon="-3.65889">
        <ele>161.4</ele>
        <time>2022-12-08T13:20:35Z</time>
      </trkpt>
      <trkpt lat="48.07813" lon="-3.65892">
        <ele>161.5</ele>
        <time>2022-12-08T13:20:36Z</time>
      </trkpt>
      <trkpt lat="48.0781" lon="-3.65896">
        <ele>161.5</ele>
        <time>2022-12-08T13:20:37Z</time>
      </trkpt>
      <trkpt lat="48.07807" lon="-3.65901">
        <ele>161.6</ele>
        <time>2022-12-08T13:20:38Z</time>
      </trkpt>
      <trkpt lat="48.07803" lon="-3.65906">
        <ele>161.7</ele>
        <time>2022-12-08T13:20:40Z</time>
      </trkpt>
      <trkpt lat="48.07799" lon="-3.65912">
        <ele>161.9</ele>
        <time>2022-12-08T13:20:41Z</time>
      </trkpt>
      <trkpt lat="48.07795" lon="-3.65917">
        <ele>161.9</ele>
        <time>2022-12-08T13:20:42Z</time>
      </trkpt>
      <trkpt lat="48.07793" lon="-3.65921">
        <ele>162</ele>
        <time>2022-12-08T13:20:43Z</time>
      </trkpt>
      <trkpt lat="48.0779" lon="-3.65925">
        <ele>162.1</ele>
        <time>2022-12-08T13:20:44Z</time>
      </trkpt>
      <trkpt lat="48.07785" lon="-3.65932">
        <ele>162.3</ele>
        <time>2022-12-08T13:20:46Z</time>
      </trkpt>
      <trkpt lat="48.07782" lon="-3.65937">
        <ele>162.5</ele>
        <time>2022-12-08T13:20:47Z</time>
      </trkpt>
      <trkpt lat="48.07779" lon="-3.65945">
        <ele>162.7</ele>
        <time>2022-12-08T13:20:48Z</time>
      </trkpt>
      <trkpt lat="48.07774" lon="-3.65953">
        <ele>163</ele>
        <time>2022-12-08T13:20:50Z</time>
      </trkpt>
      <trkpt lat="48.07771" lon="-3.65958">
        <ele>163.1</ele>
        <time>2022-12-08T13:20:51Z</time>
      </trkpt>
      <trkpt lat="48.07768" lon="-3.65963">
        <ele>163.3</ele>
        <time>2022-12-08T13:20:52Z</time>
      </trkpt>
      <trkpt lat="48.07765" lon="-3.65968">
        <ele>163.5</ele>
        <time>2022-12-08T13:20:53Z</time>
      </trkpt>
      <trkpt lat="48.07762" lon="-3.65975">
        <ele>163.6</ele>
        <time>2022-12-08T13:20:54Z</time>
      </trkpt>
      <trkpt lat="48.07759" lon="-3.6598">
        <ele>163.7</ele>
        <time>2022-12-08T13:20:55Z</time>
      </trkpt>
      <trkpt lat="48.07756" lon="-3.65985">
        <ele>163.8</ele>
        <time>2022-12-08T13:20:56Z</time>
      </trkpt>
      <trkpt lat="48.07754" lon="-3.65989">
        <ele>163.9</ele>
        <time>2022-12-08T13:20:57Z</time>
      </trkpt>
      <trkpt lat="48.07751" lon="-3.65996">
        <ele>164</ele>
        <time>2022-12-08T13:20:58Z</time>
      </trkpt>
      <trkpt lat="48.07748" lon="-3.66003">
        <ele>164.1</ele>
        <time>2022-12-08T13:21:00Z</time>
      </trkpt>
      <trkpt lat="48.07745" lon="-3.66009">
        <ele>164.1</ele>
        <time>2022-12-08T13:21:01Z</time>
      </trkpt>
      <trkpt lat="48.07741" lon="-3.6602">
        <ele>164.3</ele>
        <time>2022-12-08T13:21:02Z</time>
      </trkpt>
      <trkpt lat="48.07738" lon="-3.66027">
        <ele>164.4</ele>
        <time>2022-12-08T13:21:03Z</time>
      </trkpt>
      <trkpt lat="48.07735" lon="-3.66033">
        <ele>164.5</ele>
        <time>2022-12-08T13:21:04Z</time>
      </trkpt>
      <trkpt lat="48.07732" lon="-3.66039">
        <ele>164.6</ele>
        <time>2022-12-08T13:21:05Z</time>
      </trkpt>
      <trkpt lat="48.0773" lon="-3.66045">
        <ele>164.7</ele>
        <time>2022-12-08T13:21:06Z</time>
      </trkpt>
      <trkpt lat="48.0773" lon="-3.66046">
        <ele>164.7</ele>
        <time>2022-12-08T13:21:07Z</time>
      </trkpt>
      <trkpt lat="48.07727" lon="-3.66054">
        <ele>164.8</ele>
        <time>2022-12-08T13:21:09Z</time>
      </trkpt>
      <trkpt lat="48.07724" lon="-3.66061">
        <ele>164.9</ele>
        <time>2022-12-08T13:21:10Z</time>
      </trkpt>
      <trkpt lat="48.0772" lon="-3.66068">
        <ele>165</ele>
        <time>2022-12-08T13:21:11Z</time>
      </trkpt>
      <trkpt lat="48.07718" lon="-3.66074">
        <ele>165.1</ele>
        <time>2022-12-08T13:21:12Z</time>
      </trkpt>
      <trkpt lat="48.07714" lon="-3.66083">
        <ele>165.2</ele>
        <time>2022-12-08T13:21:13Z</time>
      </trkpt>
      <trkpt lat="48.07712" lon="-3.66089">
        <ele>165.3</ele>
        <time>2022-12-08T13:21:14Z</time>
      </trkpt>
      <trkpt lat="48.07709" lon="-3.66095">
        <ele>165.4</ele>
        <time>2022-12-08T13:21:15Z</time>
      </trkpt>
      <trkpt lat="48.07706" lon="-3.66101">
        <ele>165.5</ele>
        <time>2022-12-08T13:21:16Z</time>
      </trkpt>
      <trkpt lat="48.07704" lon="-3.66105">
        <ele>165.5</ele>
        <time>2022-12-08T13:21:17Z</time>
      </trkpt>
      <trkpt lat="48.077" lon="-3.66112">
        <ele>165.7</ele>
        <time>2022-12-08T13:21:18Z</time>
      </trkpt>
      <trkpt lat="48.07697" lon="-3.66119">
        <ele>165.8</ele>
        <time>2022-12-08T13:21:19Z</time>
      </trkpt>
      <trkpt lat="48.07695" lon="-3.66125">
        <ele>165.8</ele>
        <time>2022-12-08T13:21:20Z</time>
      </trkpt>
      <trkpt lat="48.07693" lon="-3.66129">
        <ele>165.9</ele>
        <time>2022-12-08T13:21:21Z</time>
      </trkpt>
      <trkpt lat="48.07691" lon="-3.66138">
        <ele>166</ele>
        <time>2022-12-08T13:21:22Z</time>
      </trkpt>
      <trkpt lat="48.07688" lon="-3.66144">
        <ele>166.1</ele>
        <time>2022-12-08T13:21:23Z</time>
      </trkpt>
      <trkpt lat="48.07687" lon="-3.6615">
        <ele>166.2</ele>
        <time>2022-12-08T13:21:24Z</time>
      </trkpt>
      <trkpt lat="48.07684" lon="-3.66156">
        <ele>166.3</ele>
        <time>2022-12-08T13:21:25Z</time>
      </trkpt>
      <trkpt lat="48.07682" lon="-3.66161">
        <ele>166.3</ele>
        <time>2022-12-08T13:21:27Z</time>
      </trkpt>
      <trkpt lat="48.07679" lon="-3.66168">
        <ele>166.4</ele>
        <time>2022-12-08T13:21:28Z</time>
      </trkpt>
      <trkpt lat="48.07677" lon="-3.66174">
        <ele>166.5</ele>
        <time>2022-12-08T13:21:29Z</time>
      </trkpt>
      <trkpt lat="48.07671" lon="-3.66184">
        <ele>166.7</ele>
        <time>2022-12-08T13:21:30Z</time>
      </trkpt>
      <trkpt lat="48.07669" lon="-3.6619">
        <ele>166.9</ele>
        <time>2022-12-08T13:21:31Z</time>
      </trkpt>
      <trkpt lat="48.07666" lon="-3.66195">
        <ele>167</ele>
        <time>2022-12-08T13:21:32Z</time>
      </trkpt>
      <trkpt lat="48.07662" lon="-3.662">
        <ele>167.1</ele>
        <time>2022-12-08T13:21:33Z</time>
      </trkpt>
      <trkpt lat="48.07658" lon="-3.66205">
        <ele>167.2</ele>
        <time>2022-12-08T13:21:34Z</time>
      </trkpt>
      <trkpt lat="48.07655" lon="-3.6621">
        <ele>167.3</ele>
        <time>2022-12-08T13:21:35Z</time>
      </trkpt>
      <trkpt lat="48.07653" lon="-3.66214">
        <ele>167.4</ele>
        <time>2022-12-08T13:21:36Z</time>
      </trkpt>
      <trkpt lat="48.07649" lon="-3.66217">
        <ele>167.5</ele>
        <time>2022-12-08T13:21:37Z</time>
      </trkpt>
      <trkpt lat="48.07648" lon="-3.66219">
        <ele>167.5</ele>
        <time>2022-12-08T13:21:38Z</time>
      </trkpt>
      <trkpt lat="48.07644" lon="-3.66223">
        <ele>167.7</ele>
        <time>2022-12-08T13:21:39Z</time>
      </trkpt>
      <trkpt lat="48.07641" lon="-3.66227">
        <ele>167.8</ele>
        <time>2022-12-08T13:21:40Z</time>
      </trkpt>
      <trkpt lat="48.07637" lon="-3.6623">
        <ele>167.9</ele>
        <time>2022-12-08T13:21:41Z</time>
      </trkpt>
      <trkpt lat="48.07632" lon="-3.66236">
        <ele>168</ele>
        <time>2022-12-08T13:21:42Z</time>
      </trkpt>
      <trkpt lat="48.07628" lon="-3.66239">
        <ele>168.1</ele>
        <time>2022-12-08T13:21:43Z</time>
      </trkpt>
      <trkpt lat="48.07624" lon="-3.66243">
        <ele>168.3</ele>
        <time>2022-12-08T13:21:44Z</time>
      </trkpt>
      <trkpt lat="48.07619" lon="-3.66246">
        <ele>168.4</ele>
        <time>2022-12-08T13:21:45Z</time>
      </trkpt>
      <trkpt lat="48.07615" lon="-3.66249">
        <ele>168.6</ele>
        <time>2022-12-08T13:21:46Z</time>
      </trkpt>
      <trkpt lat="48.07611" lon="-3.66251">
        <ele>168.7</ele>
        <time>2022-12-08T13:21:48Z</time>
      </trkpt>
      <trkpt lat="48.07606" lon="-3.66257">
        <ele>168.9</ele>
        <time>2022-12-08T13:21:49Z</time>
      </trkpt>
      <trkpt lat="48.076" lon="-3.66261">
        <ele>169</ele>
        <time>2022-12-08T13:21:51Z</time>
      </trkpt>
      <trkpt lat="48.07595" lon="-3.66267">
        <ele>169.2</ele>
        <time>2022-12-08T13:21:52Z</time>
      </trkpt>
      <trkpt lat="48.07591" lon="-3.66269">
        <ele>169.4</ele>
        <time>2022-12-08T13:21:53Z</time>
      </trkpt>
      <trkpt lat="48.07587" lon="-3.66273">
        <ele>169.5</ele>
        <time>2022-12-08T13:21:54Z</time>
      </trkpt>
      <trkpt lat="48.07583" lon="-3.66276">
        <ele>169.6</ele>
        <time>2022-12-08T13:21:55Z</time>
      </trkpt>
      <trkpt lat="48.07579" lon="-3.6628">
        <ele>169.7</ele>
        <time>2022-12-08T13:21:56Z</time>
      </trkpt>
      <trkpt lat="48.07575" lon="-3.66283">
        <ele>169.8</ele>
        <time>2022-12-08T13:21:57Z</time>
      </trkpt>
      <trkpt lat="48.07571" lon="-3.66285">
        <ele>169.9</ele>
        <time>2022-12-08T13:21:58Z</time>
      </trkpt>
      <trkpt lat="48.07563" lon="-3.6629">
        <ele>170.1</ele>
        <time>2022-12-08T13:21:59Z</time>
      </trkpt>
      <trkpt lat="48.07559" lon="-3.66293">
        <ele>170.2</ele>
        <time>2022-12-08T13:22:00Z</time>
      </trkpt>
      <trkpt lat="48.07555" lon="-3.66296">
        <ele>170.3</ele>
        <time>2022-12-08T13:22:01Z</time>
      </trkpt>
      <trkpt lat="48.07551" lon="-3.66298">
        <ele>170.4</ele>
        <time>2022-12-08T13:22:02Z</time>
      </trkpt>
      <trkpt lat="48.07548" lon="-3.663">
        <ele>170.5</ele>
        <time>2022-12-08T13:22:03Z</time>
      </trkpt>
      <trkpt lat="48.07543" lon="-3.66304">
        <ele>170.6</ele>
        <time>2022-12-08T13:22:04Z</time>
      </trkpt>
      <trkpt lat="48.07539" lon="-3.66306">
        <ele>170.7</ele>
        <time>2022-12-08T13:22:05Z</time>
      </trkpt>
      <trkpt lat="48.07536" lon="-3.66307">
        <ele>170.7</ele>
        <time>2022-12-08T13:22:06Z</time>
      </trkpt>
      <trkpt lat="48.07533" lon="-3.66309">
        <ele>170.8</ele>
        <time>2022-12-08T13:22:07Z</time>
      </trkpt>
      <trkpt lat="48.0753" lon="-3.66311">
        <ele>170.9</ele>
        <time>2022-12-08T13:22:08Z</time>
      </trkpt>
      <trkpt lat="48.07527" lon="-3.66314">
        <ele>171</ele>
        <time>2022-12-08T13:22:09Z</time>
      </trkpt>
      <trkpt lat="48.07523" lon="-3.66316">
        <ele>171</ele>
        <time>2022-12-08T13:22:10Z</time>
      </trkpt>
      <trkpt lat="48.07522" lon="-3.66317">
        <ele>171.1</ele>
        <time>2022-12-08T13:22:11Z</time>
      </trkpt>
      <trkpt lat="48.07518" lon="-3.66318">
        <ele>171.2</ele>
        <time>2022-12-08T13:22:12Z</time>
      </trkpt>
      <trkpt lat="48.07516" lon="-3.66319">
        <ele>171.2</ele>
        <time>2022-12-08T13:22:13Z</time>
      </trkpt>
      <trkpt lat="48.07512" lon="-3.66321">
        <ele>171.3</ele>
        <time>2022-12-08T13:22:15Z</time>
      </trkpt>
      <trkpt lat="48.07508" lon="-3.66323">
        <ele>171.4</ele>
        <time>2022-12-08T13:22:16Z</time>
      </trkpt>
      <trkpt lat="48.07503" lon="-3.66327">
        <ele>171.6</ele>
        <time>2022-12-08T13:22:18Z</time>
      </trkpt>
      <trkpt lat="48.075" lon="-3.66328">
        <ele>171.7</ele>
        <time>2022-12-08T13:22:19Z</time>
      </trkpt>
      <trkpt lat="48.07499" lon="-3.66328">
        <ele>171.7</ele>
        <time>2022-12-08T13:22:20Z</time>
      </trkpt>
      <trkpt lat="48.07499" lon="-3.66329">
        <ele>171.7</ele>
        <time>2022-12-08T13:22:21Z</time>
      </trkpt>
      <trkpt lat="48.07498" lon="-3.66328">
        <ele>171.7</ele>
        <time>2022-12-08T13:22:22Z</time>
      </trkpt>
      <trkpt lat="48.07498" lon="-3.66329">
        <ele>171.7</ele>
        <time>2022-12-08T13:22:23Z</time>
      </trkpt>
      <trkpt lat="48.07498" lon="-3.66329">
        <ele>171.7</ele>
        <time>2022-12-08T13:22:24Z</time>
      </trkpt>
      <trkpt lat="48.07498" lon="-3.66329">
        <ele>171.7</ele>
        <time>2022-12-08T13:22:25Z</time>
      </trkpt>
      <trkpt lat="48.07497" lon="-3.6633">
        <ele>171.7</ele>
        <time>2022-12-08T13:22:26Z</time>
      </trkpt>
      <trkpt lat="48.07497" lon="-3.66329">
        <ele>171.8</ele>
        <time>2022-12-08T13:22:27Z</time>
      </trkpt>
      <trkpt lat="48.07497" lon="-3.6633">
        <ele>171.8</ele>
        <time>2022-12-08T13:22:28Z</time>
      </trkpt>
      <trkpt lat="48.07497" lon="-3.6633">
        <ele>171.8</ele>
        <time>2022-12-08T13:22:29Z</time>
      </trkpt>
      <trkpt lat="48.07497" lon="-3.6633">
        <ele>171.8</ele>
        <time>2022-12-08T13:22:30Z</time>
      </trkpt>
      <trkpt lat="48.07497" lon="-3.6633">
        <ele>171.8</ele>
        <time>2022-12-08T13:22:31Z</time>
      </trkpt>
      <trkpt lat="48.07496" lon="-3.66329">
        <ele>171.8</ele>
        <time>2022-12-08T13:22:32Z</time>
      </trkpt>
      <trkpt lat="48.07496" lon="-3.66329">
        <ele>171.8</ele>
        <time>2022-12-08T13:22:33Z</time>
      </trkpt>
      <trkpt lat="48.07496" lon="-3.6633">
        <ele>171.8</ele>
        <time>2022-12-08T13:22:35Z</time>
      </trkpt>
      <trkpt lat="48.07497" lon="-3.6633">
        <ele>171.8</ele>
        <time>2022-12-08T13:22:36Z</time>
      </trkpt>
      <trkpt lat="48.07498" lon="-3.6633">
        <ele>171.8</ele>
        <time>2022-12-08T13:22:37Z</time>
      </trkpt>
      <trkpt lat="48.07499" lon="-3.6633">
        <ele>171.8</ele>
        <time>2022-12-08T13:22:38Z</time>
      </trkpt>
      <trkpt lat="48.07501" lon="-3.6633">
        <ele>171.9</ele>
        <time>2022-12-08T13:22:40Z</time>
      </trkpt>
      <trkpt lat="48.07502" lon="-3.66328">
        <ele>171.9</ele>
        <time>2022-12-08T13:22:41Z</time>
      </trkpt>
      <trkpt lat="48.07503" lon="-3.66327">
        <ele>172</ele>
        <time>2022-12-08T13:22:42Z</time>
      </trkpt>
      <trkpt lat="48.07504" lon="-3.66327">
        <ele>172</ele>
        <time>2022-12-08T13:22:43Z</time>
      </trkpt>
      <trkpt lat="48.07504" lon="-3.66327">
        <ele>172</ele>
        <time>2022-12-08T13:22:44Z</time>
      </trkpt>
      <trkpt lat="48.07505" lon="-3.66327">
        <ele>172</ele>
        <time>2022-12-08T13:22:45Z</time>
      </trkpt>
      <trkpt lat="48.07505" lon="-3.66327">
        <ele>172</ele>
        <time>2022-12-08T13:22:46Z</time>
      </trkpt>
      <trkpt lat="48.07505" lon="-3.66327">
        <ele>172</ele>
        <time>2022-12-08T13:22:47Z</time>
      </trkpt>
      <trkpt lat="48.07506" lon="-3.66327">
        <ele>172</ele>
        <time>2022-12-08T13:22:48Z</time>
      </trkpt>
      <trkpt lat="48.07506" lon="-3.66327">
        <ele>172</ele>
        <time>2022-12-08T13:22:49Z</time>
      </trkpt>
      <trkpt lat="48.07505" lon="-3.66328">
        <ele>172.1</ele>
        <time>2022-12-08T13:22:52Z</time>
      </trkpt>
      <trkpt lat="48.07504" lon="-3.66329">
        <ele>172.1</ele>
        <time>2022-12-08T13:22:53Z</time>
      </trkpt>
      <trkpt lat="48.07502" lon="-3.6633">
        <ele>172.2</ele>
        <time>2022-12-08T13:22:54Z</time>
      </trkpt>
      <trkpt lat="48.07501" lon="-3.6633">
        <ele>172.2</ele>
        <time>2022-12-08T13:22:55Z</time>
      </trkpt>
      <trkpt lat="48.07501" lon="-3.66331">
        <ele>172.2</ele>
        <time>2022-12-08T13:22:56Z</time>
      </trkpt>
      <trkpt lat="48.075" lon="-3.66331">
        <ele>172.2</ele>
        <time>2022-12-08T13:22:57Z</time>
      </trkpt>
      <trkpt lat="48.075" lon="-3.66331">
        <ele>172.2</ele>
        <time>2022-12-08T13:22:58Z</time>
      </trkpt>
      <trkpt lat="48.075" lon="-3.66331">
        <ele>172.2</ele>
        <time>2022-12-08T13:22:59Z</time>
      </trkpt>
      <trkpt lat="48.075" lon="-3.66331">
        <ele>172.2</ele>
        <time>2022-12-08T13:23:00Z</time>
      </trkpt>
      <trkpt lat="48.07499" lon="-3.66331">
        <ele>172.2</ele>
        <time>2022-12-08T13:23:01Z</time>
      </trkpt>
      <trkpt lat="48.07499" lon="-3.66331">
        <ele>172.2</ele>
        <time>2022-12-08T13:23:02Z</time>
      </trkpt>
      <trkpt lat="48.07499" lon="-3.6633">
        <ele>172.3</ele>
        <time>2022-12-08T13:23:03Z</time>
      </trkpt>
      <trkpt lat="48.07499" lon="-3.6633">
        <ele>172.3</ele>
        <time>2022-12-08T13:23:04Z</time>
      </trkpt>
      <trkpt lat="48.07498" lon="-3.6633">
        <ele>172.3</ele>
        <time>2022-12-08T13:23:05Z</time>
      </trkpt>
      <trkpt lat="48.07498" lon="-3.6633">
        <ele>172.3</ele>
        <time>2022-12-08T13:23:06Z</time>
      </trkpt>
      <trkpt lat="48.07498" lon="-3.6633">
        <ele>172.3</ele>
        <time>2022-12-08T13:23:07Z</time>
      </trkpt>
      <trkpt lat="48.07497" lon="-3.6633">
        <ele>172.3</ele>
        <time>2022-12-08T13:23:08Z</time>
      </trkpt>
      <trkpt lat="48.07497" lon="-3.6633">
        <ele>172.3</ele>
        <time>2022-12-08T13:23:09Z</time>
      </trkpt>
      <trkpt lat="48.07497" lon="-3.6633">
        <ele>172.3</ele>
        <time>2022-12-08T13:23:10Z</time>
      </trkpt>
      <trkpt lat="48.07497" lon="-3.66329">
        <ele>172.3</ele>
        <time>2022-12-08T13:23:11Z</time>
      </trkpt>
      <trkpt lat="48.07496" lon="-3.66329">
        <ele>172.3</ele>
        <time>2022-12-08T13:23:12Z</time>
      </trkpt>
      <trkpt lat="48.07496" lon="-3.66329">
        <ele>172.3</ele>
        <time>2022-12-08T13:23:13Z</time>
      </trkpt>
      <trkpt lat="48.07496" lon="-3.66329">
        <ele>172.3</ele>
        <time>2022-12-08T13:23:14Z</time>
      </trkpt>
      <trkpt lat="48.07496" lon="-3.66329">
        <ele>172.3</ele>
        <time>2022-12-08T13:23:15Z</time>
      </trkpt>
      <trkpt lat="48.07495" lon="-3.66329">
        <ele>172.3</ele>
        <time>2022-12-08T13:23:16Z</time>
      </trkpt>
      <trkpt lat="48.07495" lon="-3.66329">
        <ele>172.3</ele>
        <time>2022-12-08T13:23:17Z</time>
      </trkpt>
      <trkpt lat="48.07495" lon="-3.66328">
        <ele>172.4</ele>
        <time>2022-12-08T13:23:18Z</time>
      </trkpt>
      <trkpt lat="48.07495" lon="-3.66328">
        <ele>172.4</ele>
        <time>2022-12-08T13:23:19Z</time>
      </trkpt>
      <trkpt lat="48.07494" lon="-3.66328">
        <ele>172.4</ele>
        <time>2022-12-08T13:23:20Z</time>
      </trkpt>
      <trkpt lat="48.07494" lon="-3.66328">
        <ele>172.4</ele>
        <time>2022-12-08T13:23:21Z</time>
      </trkpt>
      <trkpt lat="48.07494" lon="-3.66328">
        <ele>172.4</ele>
        <time>2022-12-08T13:23:22Z</time>
      </trkpt>
      <trkpt lat="48.07494" lon="-3.66328">
        <ele>172.4</ele>
        <time>2022-12-08T13:23:23Z</time>
      </trkpt>
      <trkpt lat="48.07493" lon="-3.66328">
        <ele>172.4</ele>
        <time>2022-12-08T13:26:57Z</time>
      </trkpt>
      <trkpt lat="48.07493" lon="-3.66327">
        <ele>172.4</ele>
        <time>2022-12-08T13:26:58Z</time>
      </trkpt>
      <trkpt lat="48.07493" lon="-3.66327">
        <ele>172.4</ele>
        <time>2022-12-08T13:26:59Z</time>
      </trkpt>
      <trkpt lat="48.07493" lon="-3.66327">
        <ele>172.4</ele>
        <time>2022-12-08T13:27:00Z</time>
      </trkpt>
      <trkpt lat="48.07492" lon="-3.66327">
        <ele>172.4</ele>
        <time>2022-12-08T13:27:01Z</time>
      </trkpt>
      <trkpt lat="48.07492" lon="-3.66327">
        <ele>172.4</ele>
        <time>2022-12-08T13:27:02Z</time>
      </trkpt>
      <trkpt lat="48.07492" lon="-3.66327">
        <ele>172.4</ele>
        <time>2022-12-08T13:27:03Z</time>
      </trkpt>
      <trkpt lat="48.07492" lon="-3.66327">
        <ele>172.4</ele>
        <time>2022-12-08T13:27:04Z</time>
      </trkpt>
      <trkpt lat="48.07489" lon="-3.66327">
        <ele>172.5</ele>
        <time>2022-12-08T13:27:05Z</time>
      </trkpt>
      <trkpt lat="48.07485" lon="-3.66328">
        <ele>172.6</ele>
        <time>2022-12-08T13:27:06Z</time>
      </trkpt>
      <trkpt lat="48.07481" lon="-3.66329">
        <ele>172.7</ele>
        <time>2022-12-08T13:27:07Z</time>
      </trkpt>
      <trkpt lat="48.07478" lon="-3.6633">
        <ele>172.7</ele>
        <time>2022-12-08T13:27:08Z</time>
      </trkpt>
      <trkpt lat="48.07474" lon="-3.6633">
        <ele>172.8</ele>
        <time>2022-12-08T13:27:09Z</time>
      </trkpt>
      <trkpt lat="48.07473" lon="-3.6633">
        <ele>172.8</ele>
        <time>2022-12-08T13:27:10Z</time>
      </trkpt>
      <trkpt lat="48.07466" lon="-3.6633">
        <ele>173</ele>
        <time>2022-12-08T13:27:11Z</time>
      </trkpt>
      <trkpt lat="48.07463" lon="-3.6633">
        <ele>173</ele>
        <time>2022-12-08T13:27:12Z</time>
      </trkpt>
      <trkpt lat="48.0746" lon="-3.66329">
        <ele>173.1</ele>
        <time>2022-12-08T13:27:13Z</time>
      </trkpt>
      <trkpt lat="48.07458" lon="-3.6633">
        <ele>173.2</ele>
        <time>2022-12-08T13:27:14Z</time>
      </trkpt>
      <trkpt lat="48.07454" lon="-3.66329">
        <ele>173.2</ele>
        <time>2022-12-08T13:27:15Z</time>
      </trkpt>
      <trkpt lat="48.07448" lon="-3.66328">
        <ele>173.4</ele>
        <time>2022-12-08T13:27:17Z</time>
      </trkpt>
      <trkpt lat="48.07443" lon="-3.66327">
        <ele>173.5</ele>
        <time>2022-12-08T13:27:18Z</time>
      </trkpt>
      <trkpt lat="48.07439" lon="-3.66325">
        <ele>173.6</ele>
        <time>2022-12-08T13:27:19Z</time>
      </trkpt>
      <trkpt lat="48.07434" lon="-3.66324">
        <ele>173.7</ele>
        <time>2022-12-08T13:27:20Z</time>
      </trkpt>
      <trkpt lat="48.07429" lon="-3.66322">
        <ele>173.8</ele>
        <time>2022-12-08T13:27:21Z</time>
      </trkpt>
      <trkpt lat="48.07424" lon="-3.6632">
        <ele>173.9</ele>
        <time>2022-12-08T13:27:22Z</time>
      </trkpt>
      <trkpt lat="48.0742" lon="-3.66318">
        <ele>174</ele>
        <time>2022-12-08T13:27:23Z</time>
      </trkpt>
      <trkpt lat="48.07414" lon="-3.66315">
        <ele>174.2</ele>
        <time>2022-12-08T13:27:25Z</time>
      </trkpt>
      <trkpt lat="48.07409" lon="-3.66313">
        <ele>174.4</ele>
        <time>2022-12-08T13:27:26Z</time>
      </trkpt>
      <trkpt lat="48.07405" lon="-3.66311">
        <ele>174.5</ele>
        <time>2022-12-08T13:27:27Z</time>
      </trkpt>
      <trkpt lat="48.07401" lon="-3.66308">
        <ele>174.6</ele>
        <time>2022-12-08T13:27:28Z</time>
      </trkpt>
      <trkpt lat="48.07398" lon="-3.66305">
        <ele>174.7</ele>
        <time>2022-12-08T13:27:29Z</time>
      </trkpt>
      <trkpt lat="48.07393" lon="-3.66303">
        <ele>174.8</ele>
        <time>2022-12-08T13:27:30Z</time>
      </trkpt>
      <trkpt lat="48.07389" lon="-3.66301">
        <ele>174.9</ele>
        <time>2022-12-08T13:27:31Z</time>
      </trkpt>
      <trkpt lat="48.07383" lon="-3.66297">
        <ele>175</ele>
        <time>2022-12-08T13:27:32Z</time>
      </trkpt>
      <trkpt lat="48.07379" lon="-3.66294">
        <ele>175.1</ele>
        <time>2022-12-08T13:27:33Z</time>
      </trkpt>
      <trkpt lat="48.07373" lon="-3.66292">
        <ele>175.3</ele>
        <time>2022-12-08T13:27:35Z</time>
      </trkpt>
      <trkpt lat="48.07369" lon="-3.66291">
        <ele>175.4</ele>
        <time>2022-12-08T13:27:36Z</time>
      </trkpt>
      <trkpt lat="48.07362" lon="-3.66287">
        <ele>175.5</ele>
        <time>2022-12-08T13:27:37Z</time>
      </trkpt>
      <trkpt lat="48.07358" lon="-3.66284">
        <ele>175.7</ele>
        <time>2022-12-08T13:27:38Z</time>
      </trkpt>
      <trkpt lat="48.07353" lon="-3.66281">
        <ele>175.8</ele>
        <time>2022-12-08T13:27:39Z</time>
      </trkpt>
      <trkpt lat="48.07348" lon="-3.66279">
        <ele>175.9</ele>
        <time>2022-12-08T13:27:40Z</time>
      </trkpt>
      <trkpt lat="48.07344" lon="-3.66277">
        <ele>176</ele>
        <time>2022-12-08T13:27:41Z</time>
      </trkpt>
      <trkpt lat="48.07338" lon="-3.66274">
        <ele>176.1</ele>
        <time>2022-12-08T13:27:43Z</time>
      </trkpt>
      <trkpt lat="48.07332" lon="-3.66272">
        <ele>176.2</ele>
        <time>2022-12-08T13:27:44Z</time>
      </trkpt>
      <trkpt lat="48.07328" lon="-3.66269">
        <ele>176.3</ele>
        <time>2022-12-08T13:27:45Z</time>
      </trkpt>
      <trkpt lat="48.07323" lon="-3.66266">
        <ele>176.4</ele>
        <time>2022-12-08T13:27:46Z</time>
      </trkpt>
      <trkpt lat="48.07319" lon="-3.66264">
        <ele>176.5</ele>
        <time>2022-12-08T13:27:47Z</time>
      </trkpt>
      <trkpt lat="48.07314" lon="-3.66261">
        <ele>176.6</ele>
        <time>2022-12-08T13:27:48Z</time>
      </trkpt>
      <trkpt lat="48.07309" lon="-3.66259">
        <ele>176.7</ele>
        <time>2022-12-08T13:27:49Z</time>
      </trkpt>
      <trkpt lat="48.07305" lon="-3.66256">
        <ele>176.8</ele>
        <time>2022-12-08T13:27:50Z</time>
      </trkpt>
      <trkpt lat="48.07302" lon="-3.66254">
        <ele>176.9</ele>
        <time>2022-12-08T13:27:51Z</time>
      </trkpt>
      <trkpt lat="48.07296" lon="-3.66251">
        <ele>177</ele>
        <time>2022-12-08T13:27:53Z</time>
      </trkpt>
      <trkpt lat="48.07289" lon="-3.66248">
        <ele>177.2</ele>
        <time>2022-12-08T13:27:54Z</time>
      </trkpt>
      <trkpt lat="48.07285" lon="-3.66245">
        <ele>177.3</ele>
        <time>2022-12-08T13:27:55Z</time>
      </trkpt>
      <trkpt lat="48.07281" lon="-3.66243">
        <ele>177.4</ele>
        <time>2022-12-08T13:27:56Z</time>
      </trkpt>
      <trkpt lat="48.07278" lon="-3.66242">
        <ele>177.5</ele>
        <time>2022-12-08T13:27:57Z</time>
      </trkpt>
      <trkpt lat="48.07272" lon="-3.66239">
        <ele>177.6</ele>
        <time>2022-12-08T13:27:58Z</time>
      </trkpt>
      <trkpt lat="48.07267" lon="-3.66237">
        <ele>177.8</ele>
        <time>2022-12-08T13:27:59Z</time>
      </trkpt>
      <trkpt lat="48.07263" lon="-3.66234">
        <ele>177.8</ele>
        <time>2022-12-08T13:28:00Z</time>
      </trkpt>
      <trkpt lat="48.07256" lon="-3.6623">
        <ele>178</ele>
        <time>2022-12-08T13:28:02Z</time>
      </trkpt>
      <trkpt lat="48.07252" lon="-3.66227">
        <ele>178.1</ele>
        <time>2022-12-08T13:28:03Z</time>
      </trkpt>
      <trkpt lat="48.07245" lon="-3.66224">
        <ele>178.2</ele>
        <time>2022-12-08T13:28:04Z</time>
      </trkpt>
      <trkpt lat="48.07241" lon="-3.66221">
        <ele>178.3</ele>
        <time>2022-12-08T13:28:05Z</time>
      </trkpt>
      <trkpt lat="48.07237" lon="-3.66218">
        <ele>178.4</ele>
        <time>2022-12-08T13:28:06Z</time>
      </trkpt>
      <trkpt lat="48.07235" lon="-3.66216">
        <ele>178.4</ele>
        <time>2022-12-08T13:28:07Z</time>
      </trkpt>
      <trkpt lat="48.07229" lon="-3.66212">
        <ele>178.5</ele>
        <time>2022-12-08T13:28:08Z</time>
      </trkpt>
      <trkpt lat="48.07225" lon="-3.66208">
        <ele>178.6</ele>
        <time>2022-12-08T13:28:09Z</time>
      </trkpt>
      <trkpt lat="48.07221" lon="-3.66204">
        <ele>178.7</ele>
        <time>2022-12-08T13:28:10Z</time>
      </trkpt>
      <trkpt lat="48.07217" lon="-3.662">
        <ele>178.8</ele>
        <time>2022-12-08T13:28:11Z</time>
      </trkpt>
      <trkpt lat="48.07213" lon="-3.66196">
        <ele>178.9</ele>
        <time>2022-12-08T13:28:12Z</time>
      </trkpt>
      <trkpt lat="48.07211" lon="-3.66194">
        <ele>178.9</ele>
        <time>2022-12-08T13:28:13Z</time>
      </trkpt>
      <trkpt lat="48.0721" lon="-3.66194">
        <ele>178.9</ele>
        <time>2022-12-08T13:28:15Z</time>
      </trkpt>
      <trkpt lat="48.07207" lon="-3.66192">
        <ele>179</ele>
        <time>2022-12-08T13:28:16Z</time>
      </trkpt>
      <trkpt lat="48.07202" lon="-3.66189">
        <ele>179</ele>
        <time>2022-12-08T13:28:17Z</time>
      </trkpt>
      <trkpt lat="48.07199" lon="-3.6618">
        <ele>179.1</ele>
        <time>2022-12-08T13:28:18Z</time>
      </trkpt>
      <trkpt lat="48.07196" lon="-3.66171">
        <ele>179.2</ele>
        <time>2022-12-08T13:28:19Z</time>
      </trkpt>
      <trkpt lat="48.07192" lon="-3.66161">
        <ele>179.3</ele>
        <time>2022-12-08T13:28:20Z</time>
      </trkpt>
      <trkpt lat="48.07189" lon="-3.66155">
        <ele>179.4</ele>
        <time>2022-12-08T13:28:21Z</time>
      </trkpt>
      <trkpt lat="48.07188" lon="-3.66154">
        <ele>179.4</ele>
        <time>2022-12-08T13:28:22Z</time>
      </trkpt>
      <trkpt lat="48.07182" lon="-3.66147">
        <ele>179.6</ele>
        <time>2022-12-08T13:28:24Z</time>
      </trkpt>
      <trkpt lat="48.07178" lon="-3.66141">
        <ele>179.8</ele>
        <time>2022-12-08T13:28:25Z</time>
      </trkpt>
      <trkpt lat="48.07175" lon="-3.66134">
        <ele>179.9</ele>
        <time>2022-12-08T13:28:26Z</time>
      </trkpt>
      <trkpt lat="48.07171" lon="-3.66128">
        <ele>180.1</ele>
        <time>2022-12-08T13:28:27Z</time>
      </trkpt>
      <trkpt lat="48.07168" lon="-3.66119">
        <ele>180.3</ele>
        <time>2022-12-08T13:28:28Z</time>
      </trkpt>
      <trkpt lat="48.07166" lon="-3.66115">
        <ele>180.3</ele>
        <time>2022-12-08T13:28:29Z</time>
      </trkpt>
      <trkpt lat="48.07164" lon="-3.66113">
        <ele>180.4</ele>
        <time>2022-12-08T13:28:30Z</time>
      </trkpt>
      <trkpt lat="48.07163" lon="-3.66107">
        <ele>180.4</ele>
        <time>2022-12-08T13:28:31Z</time>
      </trkpt>
      <trkpt lat="48.07159" lon="-3.66101">
        <ele>180.5</ele>
        <time>2022-12-08T13:28:32Z</time>
      </trkpt>
      <trkpt lat="48.07157" lon="-3.66098">
        <ele>180.6</ele>
        <time>2022-12-08T13:28:33Z</time>
      </trkpt>
      <trkpt lat="48.07154" lon="-3.66092">
        <ele>180.7</ele>
        <time>2022-12-08T13:28:34Z</time>
      </trkpt>
      <trkpt lat="48.07151" lon="-3.66086">
        <ele>180.8</ele>
        <time>2022-12-08T13:28:35Z</time>
      </trkpt>
      <trkpt lat="48.07146" lon="-3.66074">
        <ele>181</ele>
        <time>2022-12-08T13:28:37Z</time>
      </trkpt>
      <trkpt lat="48.07143" lon="-3.66066">
        <ele>181.1</ele>
        <time>2022-12-08T13:28:38Z</time>
      </trkpt>
      <trkpt lat="48.0714" lon="-3.66061">
        <ele>181.2</ele>
        <time>2022-12-08T13:28:39Z</time>
      </trkpt>
      <trkpt lat="48.07137" lon="-3.66055">
        <ele>181.2</ele>
        <time>2022-12-08T13:28:41Z</time>
      </trkpt>
      <trkpt lat="48.07131" lon="-3.66043">
        <ele>181.4</ele>
        <time>2022-12-08T13:28:42Z</time>
      </trkpt>
      <trkpt lat="48.07129" lon="-3.66037">
        <ele>181.5</ele>
        <time>2022-12-08T13:28:43Z</time>
      </trkpt>
      <trkpt lat="48.07123" lon="-3.66027">
        <ele>181.8</ele>
        <time>2022-12-08T13:28:45Z</time>
      </trkpt>
      <trkpt lat="48.07119" lon="-3.6602">
        <ele>181.9</ele>
        <time>2022-12-08T13:28:46Z</time>
      </trkpt>
      <trkpt lat="48.07116" lon="-3.66016">
        <ele>182</ele>
        <time>2022-12-08T13:28:47Z</time>
      </trkpt>
      <trkpt lat="48.07113" lon="-3.66013">
        <ele>182.1</ele>
        <time>2022-12-08T13:28:49Z</time>
      </trkpt>
      <trkpt lat="48.0711" lon="-3.66008">
        <ele>182.2</ele>
        <time>2022-12-08T13:28:50Z</time>
      </trkpt>
      <trkpt lat="48.07107" lon="-3.66002">
        <ele>182.3</ele>
        <time>2022-12-08T13:28:51Z</time>
      </trkpt>
      <trkpt lat="48.07104" lon="-3.65996">
        <ele>182.4</ele>
        <time>2022-12-08T13:28:52Z</time>
      </trkpt>
      <trkpt lat="48.071" lon="-3.6599">
        <ele>182.6</ele>
        <time>2022-12-08T13:28:53Z</time>
      </trkpt>
      <trkpt lat="48.07097" lon="-3.65984">
        <ele>182.7</ele>
        <time>2022-12-08T13:28:54Z</time>
      </trkpt>
      <trkpt lat="48.07092" lon="-3.65976">
        <ele>182.9</ele>
        <time>2022-12-08T13:28:55Z</time>
      </trkpt>
      <trkpt lat="48.07089" lon="-3.65974">
        <ele>183</ele>
        <time>2022-12-08T13:28:56Z</time>
      </trkpt>
      <trkpt lat="48.07087" lon="-3.65972">
        <ele>183</ele>
        <time>2022-12-08T13:28:57Z</time>
      </trkpt>
      <trkpt lat="48.07081" lon="-3.65963">
        <ele>183.2</ele>
        <time>2022-12-08T13:28:58Z</time>
      </trkpt>
      <trkpt lat="48.07078" lon="-3.65959">
        <ele>183.3</ele>
        <time>2022-12-08T13:28:59Z</time>
      </trkpt>
      <trkpt lat="48.07077" lon="-3.65956">
        <ele>183.3</ele>
        <time>2022-12-08T13:29:00Z</time>
      </trkpt>
      <trkpt lat="48.07071" lon="-3.65952">
        <ele>183.4</ele>
        <time>2022-12-08T13:29:02Z</time>
      </trkpt>
      <trkpt lat="48.07066" lon="-3.6595">
        <ele>183.5</ele>
        <time>2022-12-08T13:29:03Z</time>
      </trkpt>
      <trkpt lat="48.07061" lon="-3.65945">
        <ele>183.6</ele>
        <time>2022-12-08T13:29:04Z</time>
      </trkpt>
      <trkpt lat="48.07058" lon="-3.65941">
        <ele>183.7</ele>
        <time>2022-12-08T13:29:05Z</time>
      </trkpt>
      <trkpt lat="48.07052" lon="-3.65936">
        <ele>183.8</ele>
        <time>2022-12-08T13:29:06Z</time>
      </trkpt>
      <trkpt lat="48.07046" lon="-3.65933">
        <ele>184</ele>
        <time>2022-12-08T13:29:08Z</time>
      </trkpt>
      <trkpt lat="48.07042" lon="-3.65931">
        <ele>184</ele>
        <time>2022-12-08T13:29:09Z</time>
      </trkpt>
      <trkpt lat="48.07037" lon="-3.65927">
        <ele>184.1</ele>
        <time>2022-12-08T13:29:10Z</time>
      </trkpt>
      <trkpt lat="48.0703" lon="-3.65922">
        <ele>184.2</ele>
        <time>2022-12-08T13:29:11Z</time>
      </trkpt>
      <trkpt lat="48.07026" lon="-3.65919">
        <ele>184.2</ele>
        <time>2022-12-08T13:29:13Z</time>
      </trkpt>
      <trkpt lat="48.0702" lon="-3.65916">
        <ele>184.2</ele>
        <time>2022-12-08T13:29:14Z</time>
      </trkpt>
      <trkpt lat="48.0701" lon="-3.65912">
        <ele>184.2</ele>
        <time>2022-12-08T13:29:15Z</time>
      </trkpt>
      <trkpt lat="48.07005" lon="-3.65909">
        <ele>184.2</ele>
        <time>2022-12-08T13:29:16Z</time>
      </trkpt>
      <trkpt lat="48.07" lon="-3.65907">
        <ele>184.2</ele>
        <time>2022-12-08T13:29:17Z</time>
      </trkpt>
      <trkpt lat="48.06996" lon="-3.65904">
        <ele>184.2</ele>
        <time>2022-12-08T13:29:18Z</time>
      </trkpt>
      <trkpt lat="48.06991" lon="-3.65902">
        <ele>184.2</ele>
        <time>2022-12-08T13:29:19Z</time>
      </trkpt>
      <trkpt lat="48.06986" lon="-3.65901">
        <ele>184.1</ele>
        <time>2022-12-08T13:29:20Z</time>
      </trkpt>
      <trkpt lat="48.06981" lon="-3.659">
        <ele>184.1</ele>
        <time>2022-12-08T13:29:21Z</time>
      </trkpt>
      <trkpt lat="48.06975" lon="-3.65899">
        <ele>184.1</ele>
        <time>2022-12-08T13:29:22Z</time>
      </trkpt>
      <trkpt lat="48.0697" lon="-3.65898">
        <ele>184</ele>
        <time>2022-12-08T13:29:23Z</time>
      </trkpt>
      <trkpt lat="48.06964" lon="-3.65898">
        <ele>184</ele>
        <time>2022-12-08T13:29:24Z</time>
      </trkpt>
      <trkpt lat="48.06959" lon="-3.65897">
        <ele>184</ele>
        <time>2022-12-08T13:29:25Z</time>
      </trkpt>
      <trkpt lat="48.06954" lon="-3.65896">
        <ele>184</ele>
        <time>2022-12-08T13:29:26Z</time>
      </trkpt>
      <trkpt lat="48.06948" lon="-3.65897">
        <ele>183.9</ele>
        <time>2022-12-08T13:29:27Z</time>
      </trkpt>
      <trkpt lat="48.06943" lon="-3.65896">
        <ele>183.9</ele>
        <time>2022-12-08T13:29:28Z</time>
      </trkpt>
      <trkpt lat="48.06937" lon="-3.65895">
        <ele>183.8</ele>
        <time>2022-12-08T13:29:29Z</time>
      </trkpt>
      <trkpt lat="48.06932" lon="-3.65895">
        <ele>183.8</ele>
        <time>2022-12-08T13:29:30Z</time>
      </trkpt>
      <trkpt lat="48.06927" lon="-3.65896">
        <ele>183.7</ele>
        <time>2022-12-08T13:29:31Z</time>
      </trkpt>
      <trkpt lat="48.06921" lon="-3.65896">
        <ele>183.7</ele>
        <time>2022-12-08T13:29:32Z</time>
      </trkpt>
      <trkpt lat="48.06916" lon="-3.65897">
        <ele>183.6</ele>
        <time>2022-12-08T13:29:33Z</time>
      </trkpt>
      <trkpt lat="48.06911" lon="-3.65898">
        <ele>183.5</ele>
        <time>2022-12-08T13:29:34Z</time>
      </trkpt>
      <trkpt lat="48.06905" lon="-3.65898">
        <ele>183.5</ele>
        <time>2022-12-08T13:29:35Z</time>
      </trkpt>
      <trkpt lat="48.06901" lon="-3.65898">
        <ele>183.5</ele>
        <time>2022-12-08T13:29:36Z</time>
      </trkpt>
      <trkpt lat="48.06895" lon="-3.65899">
        <ele>183.5</ele>
        <time>2022-12-08T13:29:37Z</time>
      </trkpt>
      <trkpt lat="48.06889" lon="-3.65901">
        <ele>183.4</ele>
        <time>2022-12-08T13:29:38Z</time>
      </trkpt>
      <trkpt lat="48.06884" lon="-3.65903">
        <ele>183.4</ele>
        <time>2022-12-08T13:29:39Z</time>
      </trkpt>
      <trkpt lat="48.06878" lon="-3.65904">
        <ele>183.3</ele>
        <time>2022-12-08T13:29:40Z</time>
      </trkpt>
      <trkpt lat="48.06873" lon="-3.65907">
        <ele>183.3</ele>
        <time>2022-12-08T13:29:41Z</time>
      </trkpt>
      <trkpt lat="48.06867" lon="-3.65909">
        <ele>183.2</ele>
        <time>2022-12-08T13:29:42Z</time>
      </trkpt>
      <trkpt lat="48.06862" lon="-3.65912">
        <ele>183.2</ele>
        <time>2022-12-08T13:29:43Z</time>
      </trkpt>
      <trkpt lat="48.06856" lon="-3.65914">
        <ele>183.1</ele>
        <time>2022-12-08T13:29:44Z</time>
      </trkpt>
      <trkpt lat="48.0685" lon="-3.65915">
        <ele>183.1</ele>
        <time>2022-12-08T13:29:45Z</time>
      </trkpt>
      <trkpt lat="48.06845" lon="-3.65918">
        <ele>183</ele>
        <time>2022-12-08T13:29:46Z</time>
      </trkpt>
      <trkpt lat="48.06839" lon="-3.65919">
        <ele>183</ele>
        <time>2022-12-08T13:29:47Z</time>
      </trkpt>
      <trkpt lat="48.06834" lon="-3.65921">
        <ele>183</ele>
        <time>2022-12-08T13:29:48Z</time>
      </trkpt>
      <trkpt lat="48.06829" lon="-3.65923">
        <ele>182.9</ele>
        <time>2022-12-08T13:29:49Z</time>
      </trkpt>
      <trkpt lat="48.06823" lon="-3.65924">
        <ele>182.9</ele>
        <time>2022-12-08T13:29:50Z</time>
      </trkpt>
      <trkpt lat="48.06818" lon="-3.65926">
        <ele>182.8</ele>
        <time>2022-12-08T13:29:51Z</time>
      </trkpt>
      <trkpt lat="48.06813" lon="-3.65928">
        <ele>182.8</ele>
        <time>2022-12-08T13:29:52Z</time>
      </trkpt>
      <trkpt lat="48.06808" lon="-3.6593">
        <ele>182.7</ele>
        <time>2022-12-08T13:29:53Z</time>
      </trkpt>
      <trkpt lat="48.06803" lon="-3.65932">
        <ele>182.7</ele>
        <time>2022-12-08T13:29:54Z</time>
      </trkpt>
      <trkpt lat="48.06797" lon="-3.65933">
        <ele>182.7</ele>
        <time>2022-12-08T13:29:55Z</time>
      </trkpt>
      <trkpt lat="48.06791" lon="-3.65934">
        <ele>182.6</ele>
        <time>2022-12-08T13:29:56Z</time>
      </trkpt>
      <trkpt lat="48.06785" lon="-3.65936">
        <ele>182.6</ele>
        <time>2022-12-08T13:29:57Z</time>
      </trkpt>
      <trkpt lat="48.06779" lon="-3.65938">
        <ele>182.6</ele>
        <time>2022-12-08T13:29:58Z</time>
      </trkpt>
      <trkpt lat="48.06774" lon="-3.65939">
        <ele>182.6</ele>
        <time>2022-12-08T13:29:59Z</time>
      </trkpt>
      <trkpt lat="48.06768" lon="-3.6594">
        <ele>182.6</ele>
        <time>2022-12-08T13:30:00Z</time>
      </trkpt>
      <trkpt lat="48.06763" lon="-3.65942">
        <ele>182.6</ele>
        <time>2022-12-08T13:30:01Z</time>
      </trkpt>
      <trkpt lat="48.06758" lon="-3.65944">
        <ele>182.6</ele>
        <time>2022-12-08T13:30:02Z</time>
      </trkpt>
      <trkpt lat="48.06754" lon="-3.65945">
        <ele>182.6</ele>
        <time>2022-12-08T13:30:03Z</time>
      </trkpt>
      <trkpt lat="48.06747" lon="-3.65946">
        <ele>182.6</ele>
        <time>2022-12-08T13:30:04Z</time>
      </trkpt>
      <trkpt lat="48.06744" lon="-3.65947">
        <ele>182.6</ele>
        <time>2022-12-08T13:30:05Z</time>
      </trkpt>
      <trkpt lat="48.06738" lon="-3.65948">
        <ele>182.6</ele>
        <time>2022-12-08T13:30:06Z</time>
      </trkpt>
      <trkpt lat="48.06733" lon="-3.65948">
        <ele>182.6</ele>
        <time>2022-12-08T13:30:07Z</time>
      </trkpt>
      <trkpt lat="48.06726" lon="-3.65949">
        <ele>182.6</ele>
        <time>2022-12-08T13:30:08Z</time>
      </trkpt>
      <trkpt lat="48.0672" lon="-3.65949">
        <ele>182.6</ele>
        <time>2022-12-08T13:30:09Z</time>
      </trkpt>
      <trkpt lat="48.06715" lon="-3.65949">
        <ele>182.6</ele>
        <time>2022-12-08T13:30:10Z</time>
      </trkpt>
      <trkpt lat="48.0671" lon="-3.65949">
        <ele>182.6</ele>
        <time>2022-12-08T13:30:11Z</time>
      </trkpt>
      <trkpt lat="48.06704" lon="-3.65949">
        <ele>182.5</ele>
        <time>2022-12-08T13:30:12Z</time>
      </trkpt>
      <trkpt lat="48.06699" lon="-3.6595">
        <ele>182.5</ele>
        <time>2022-12-08T13:30:13Z</time>
      </trkpt>
      <trkpt lat="48.06693" lon="-3.65949">
        <ele>182.5</ele>
        <time>2022-12-08T13:30:14Z</time>
      </trkpt>
      <trkpt lat="48.06687" lon="-3.65948">
        <ele>182.5</ele>
        <time>2022-12-08T13:30:15Z</time>
      </trkpt>
      <trkpt lat="48.06681" lon="-3.65948">
        <ele>182.5</ele>
        <time>2022-12-08T13:30:16Z</time>
      </trkpt>
      <trkpt lat="48.06675" lon="-3.65948">
        <ele>182.5</ele>
        <time>2022-12-08T13:30:17Z</time>
      </trkpt>
      <trkpt lat="48.0667" lon="-3.65948">
        <ele>182.5</ele>
        <time>2022-12-08T13:30:18Z</time>
      </trkpt>
      <trkpt lat="48.06664" lon="-3.65947">
        <ele>182.5</ele>
        <time>2022-12-08T13:30:19Z</time>
      </trkpt>
      <trkpt lat="48.06659" lon="-3.65946">
        <ele>182.5</ele>
        <time>2022-12-08T13:30:20Z</time>
      </trkpt>
      <trkpt lat="48.06653" lon="-3.65945">
        <ele>182.5</ele>
        <time>2022-12-08T13:30:21Z</time>
      </trkpt>
      <trkpt lat="48.06647" lon="-3.65943">
        <ele>182.5</ele>
        <time>2022-12-08T13:30:22Z</time>
      </trkpt>
      <trkpt lat="48.06641" lon="-3.6594">
        <ele>182.5</ele>
        <time>2022-12-08T13:30:23Z</time>
      </trkpt>
      <trkpt lat="48.06636" lon="-3.65939">
        <ele>182.4</ele>
        <time>2022-12-08T13:30:24Z</time>
      </trkpt>
      <trkpt lat="48.0663" lon="-3.65937">
        <ele>182.4</ele>
        <time>2022-12-08T13:30:25Z</time>
      </trkpt>
      <trkpt lat="48.06625" lon="-3.65935">
        <ele>182.4</ele>
        <time>2022-12-08T13:30:26Z</time>
      </trkpt>
      <trkpt lat="48.06619" lon="-3.65932">
        <ele>182.4</ele>
        <time>2022-12-08T13:30:27Z</time>
      </trkpt>
      <trkpt lat="48.06613" lon="-3.65929">
        <ele>182.3</ele>
        <time>2022-12-08T13:30:28Z</time>
      </trkpt>
      <trkpt lat="48.06607" lon="-3.65926">
        <ele>182.3</ele>
        <time>2022-12-08T13:30:29Z</time>
      </trkpt>
      <trkpt lat="48.06602" lon="-3.65923">
        <ele>182.3</ele>
        <time>2022-12-08T13:30:30Z</time>
      </trkpt>
      <trkpt lat="48.06596" lon="-3.6592">
        <ele>182.2</ele>
        <time>2022-12-08T13:30:31Z</time>
      </trkpt>
      <trkpt lat="48.06591" lon="-3.65917">
        <ele>182.2</ele>
        <time>2022-12-08T13:30:32Z</time>
      </trkpt>
      <trkpt lat="48.06585" lon="-3.65914">
        <ele>182.2</ele>
        <time>2022-12-08T13:30:33Z</time>
      </trkpt>
      <trkpt lat="48.06579" lon="-3.65912">
        <ele>182.1</ele>
        <time>2022-12-08T13:30:34Z</time>
      </trkpt>
      <trkpt lat="48.06573" lon="-3.65909">
        <ele>182.1</ele>
        <time>2022-12-08T13:30:35Z</time>
      </trkpt>
      <trkpt lat="48.06567" lon="-3.65907">
        <ele>182.1</ele>
        <time>2022-12-08T13:30:36Z</time>
      </trkpt>
      <trkpt lat="48.06561" lon="-3.65904">
        <ele>182</ele>
        <time>2022-12-08T13:30:37Z</time>
      </trkpt>
      <trkpt lat="48.06555" lon="-3.65902">
        <ele>182</ele>
        <time>2022-12-08T13:30:38Z</time>
      </trkpt>
      <trkpt lat="48.0655" lon="-3.659">
        <ele>182</ele>
        <time>2022-12-08T13:30:39Z</time>
      </trkpt>
      <trkpt lat="48.06544" lon="-3.65897">
        <ele>182</ele>
        <time>2022-12-08T13:30:40Z</time>
      </trkpt>
      <trkpt lat="48.06539" lon="-3.65894">
        <ele>182</ele>
        <time>2022-12-08T13:30:41Z</time>
      </trkpt>
      <trkpt lat="48.06533" lon="-3.65892">
        <ele>182</ele>
        <time>2022-12-08T13:30:42Z</time>
      </trkpt>
      <trkpt lat="48.06528" lon="-3.65889">
        <ele>181.9</ele>
        <time>2022-12-08T13:30:43Z</time>
      </trkpt>
      <trkpt lat="48.06522" lon="-3.65886">
        <ele>181.9</ele>
        <time>2022-12-08T13:30:44Z</time>
      </trkpt>
      <trkpt lat="48.06517" lon="-3.65883">
        <ele>181.8</ele>
        <time>2022-12-08T13:30:45Z</time>
      </trkpt>
      <trkpt lat="48.06511" lon="-3.6588">
        <ele>181.7</ele>
        <time>2022-12-08T13:30:46Z</time>
      </trkpt>
      <trkpt lat="48.06505" lon="-3.65877">
        <ele>181.6</ele>
        <time>2022-12-08T13:30:47Z</time>
      </trkpt>
      <trkpt lat="48.06499" lon="-3.65875">
        <ele>181.5</ele>
        <time>2022-12-08T13:30:48Z</time>
      </trkpt>
      <trkpt lat="48.06494" lon="-3.65872">
        <ele>181.4</ele>
        <time>2022-12-08T13:30:49Z</time>
      </trkpt>
      <trkpt lat="48.06488" lon="-3.65869">
        <ele>181.4</ele>
        <time>2022-12-08T13:30:50Z</time>
      </trkpt>
      <trkpt lat="48.06482" lon="-3.65866">
        <ele>181.3</ele>
        <time>2022-12-08T13:30:51Z</time>
      </trkpt>
      <trkpt lat="48.06476" lon="-3.65864">
        <ele>181.3</ele>
        <time>2022-12-08T13:30:52Z</time>
      </trkpt>
      <trkpt lat="48.06471" lon="-3.6586">
        <ele>181.2</ele>
        <time>2022-12-08T13:30:53Z</time>
      </trkpt>
      <trkpt lat="48.06465" lon="-3.65858">
        <ele>181.1</ele>
        <time>2022-12-08T13:30:54Z</time>
      </trkpt>
      <trkpt lat="48.06459" lon="-3.65855">
        <ele>181.1</ele>
        <time>2022-12-08T13:30:55Z</time>
      </trkpt>
      <trkpt lat="48.06453" lon="-3.65852">
        <ele>181</ele>
        <time>2022-12-08T13:30:56Z</time>
      </trkpt>
      <trkpt lat="48.06447" lon="-3.65849">
        <ele>181</ele>
        <time>2022-12-08T13:30:57Z</time>
      </trkpt>
      <trkpt lat="48.06441" lon="-3.65846">
        <ele>181</ele>
        <time>2022-12-08T13:30:58Z</time>
      </trkpt>
      <trkpt lat="48.06436" lon="-3.65844">
        <ele>180.9</ele>
        <time>2022-12-08T13:30:59Z</time>
      </trkpt>
      <trkpt lat="48.0643" lon="-3.65841">
        <ele>180.9</ele>
        <time>2022-12-08T13:31:00Z</time>
      </trkpt>
      <trkpt lat="48.06425" lon="-3.65838">
        <ele>180.9</ele>
        <time>2022-12-08T13:31:01Z</time>
      </trkpt>
      <trkpt lat="48.06419" lon="-3.65835">
        <ele>180.8</ele>
        <time>2022-12-08T13:31:02Z</time>
      </trkpt>
      <trkpt lat="48.06413" lon="-3.65832">
        <ele>180.8</ele>
        <time>2022-12-08T13:31:03Z</time>
      </trkpt>
      <trkpt lat="48.06408" lon="-3.6583">
        <ele>180.7</ele>
        <time>2022-12-08T13:31:04Z</time>
      </trkpt>
      <trkpt lat="48.06402" lon="-3.65827">
        <ele>180.7</ele>
        <time>2022-12-08T13:31:05Z</time>
      </trkpt>
      <trkpt lat="48.06396" lon="-3.65825">
        <ele>180.6</ele>
        <time>2022-12-08T13:31:06Z</time>
      </trkpt>
      <trkpt lat="48.06391" lon="-3.65822">
        <ele>180.6</ele>
        <time>2022-12-08T13:31:07Z</time>
      </trkpt>
      <trkpt lat="48.06385" lon="-3.6582">
        <ele>180.5</ele>
        <time>2022-12-08T13:31:08Z</time>
      </trkpt>
      <trkpt lat="48.06379" lon="-3.65817">
        <ele>180.5</ele>
        <time>2022-12-08T13:31:09Z</time>
      </trkpt>
      <trkpt lat="48.06373" lon="-3.65814">
        <ele>180.5</ele>
        <time>2022-12-08T13:31:10Z</time>
      </trkpt>
      <trkpt lat="48.06368" lon="-3.65811">
        <ele>180.4</ele>
        <time>2022-12-08T13:31:11Z</time>
      </trkpt>
      <trkpt lat="48.06362" lon="-3.65808">
        <ele>180.4</ele>
        <time>2022-12-08T13:31:12Z</time>
      </trkpt>
      <trkpt lat="48.06356" lon="-3.65805">
        <ele>180.4</ele>
        <time>2022-12-08T13:31:13Z</time>
      </trkpt>
      <trkpt lat="48.06352" lon="-3.658">
        <ele>180.5</ele>
        <time>2022-12-08T13:31:14Z</time>
      </trkpt>
      <trkpt lat="48.06347" lon="-3.65795">
        <ele>180.4</ele>
        <time>2022-12-08T13:31:15Z</time>
      </trkpt>
      <trkpt lat="48.06343" lon="-3.65789">
        <ele>180.4</ele>
        <time>2022-12-08T13:31:16Z</time>
      </trkpt>
      <trkpt lat="48.0634" lon="-3.65783">
        <ele>180.4</ele>
        <time>2022-12-08T13:31:17Z</time>
      </trkpt>
      <trkpt lat="48.06336" lon="-3.65777">
        <ele>180.3</ele>
        <time>2022-12-08T13:31:18Z</time>
      </trkpt>
      <trkpt lat="48.06331" lon="-3.65773">
        <ele>180.3</ele>
        <time>2022-12-08T13:31:19Z</time>
      </trkpt>
      <trkpt lat="48.06326" lon="-3.6577">
        <ele>180.2</ele>
        <time>2022-12-08T13:31:20Z</time>
      </trkpt>
      <trkpt lat="48.06321" lon="-3.65767">
        <ele>180.2</ele>
        <time>2022-12-08T13:31:21Z</time>
      </trkpt>
      <trkpt lat="48.06316" lon="-3.65764">
        <ele>180.1</ele>
        <time>2022-12-08T13:31:22Z</time>
      </trkpt>
      <trkpt lat="48.06311" lon="-3.65762">
        <ele>180.1</ele>
        <time>2022-12-08T13:31:23Z</time>
      </trkpt>
      <trkpt lat="48.06306" lon="-3.65762">
        <ele>180.1</ele>
        <time>2022-12-08T13:31:25Z</time>
      </trkpt>
      <trkpt lat="48.06305" lon="-3.65762">
        <ele>180.1</ele>
        <time>2022-12-08T13:31:26Z</time>
      </trkpt>
      <trkpt lat="48.06303" lon="-3.65758">
        <ele>179.9</ele>
        <time>2022-12-08T13:31:27Z</time>
      </trkpt>
      <trkpt lat="48.06302" lon="-3.65757">
        <ele>179.9</ele>
        <time>2022-12-08T13:31:28Z</time>
      </trkpt>
      <trkpt lat="48.06298" lon="-3.65755">
        <ele>179.7</ele>
        <time>2022-12-08T13:31:29Z</time>
      </trkpt>
      <trkpt lat="48.06297" lon="-3.65755">
        <ele>179.7</ele>
        <time>2022-12-08T13:31:30Z</time>
      </trkpt>
      <trkpt lat="48.06295" lon="-3.65754">
        <ele>179.6</ele>
        <time>2022-12-08T13:31:31Z</time>
      </trkpt>
      <trkpt lat="48.0629" lon="-3.65758">
        <ele>179.4</ele>
        <time>2022-12-08T13:31:33Z</time>
      </trkpt>
      <trkpt lat="48.06287" lon="-3.65762">
        <ele>179.2</ele>
        <time>2022-12-08T13:31:34Z</time>
      </trkpt>
      <trkpt lat="48.06283" lon="-3.65768">
        <ele>179.1</ele>
        <time>2022-12-08T13:31:36Z</time>
      </trkpt>
      <trkpt lat="48.06278" lon="-3.65769">
        <ele>179.1</ele>
        <time>2022-12-08T13:31:37Z</time>
      </trkpt>
      <trkpt lat="48.06274" lon="-3.65768">
        <ele>179.1</ele>
        <time>2022-12-08T13:31:38Z</time>
      </trkpt>
      <trkpt lat="48.0627" lon="-3.65766">
        <ele>179</ele>
        <time>2022-12-08T13:31:39Z</time>
      </trkpt>
      <trkpt lat="48.06267" lon="-3.65767">
        <ele>179</ele>
        <time>2022-12-08T13:31:40Z</time>
      </trkpt>
      <trkpt lat="48.06264" lon="-3.65766">
        <ele>178.9</ele>
        <time>2022-12-08T13:31:41Z</time>
      </trkpt>
      <trkpt lat="48.06262" lon="-3.65765">
        <ele>178.9</ele>
        <time>2022-12-08T13:31:42Z</time>
      </trkpt>
      <trkpt lat="48.06259" lon="-3.65765">
        <ele>178.9</ele>
        <time>2022-12-08T13:31:44Z</time>
      </trkpt>
      <trkpt lat="48.06256" lon="-3.65766">
        <ele>178.8</ele>
        <time>2022-12-08T13:31:45Z</time>
      </trkpt>
      <trkpt lat="48.06252" lon="-3.65765">
        <ele>178.7</ele>
        <time>2022-12-08T13:31:46Z</time>
      </trkpt>
      <trkpt lat="48.06243" lon="-3.65752">
        <ele>178.6</ele>
        <time>2022-12-08T13:31:47Z</time>
      </trkpt>
      <trkpt lat="48.06237" lon="-3.65749">
        <ele>178.5</ele>
        <time>2022-12-08T13:31:48Z</time>
      </trkpt>
      <trkpt lat="48.06232" lon="-3.65746">
        <ele>178.5</ele>
        <time>2022-12-08T13:31:49Z</time>
      </trkpt>
      <trkpt lat="48.06227" lon="-3.65743">
        <ele>178.5</ele>
        <time>2022-12-08T13:31:50Z</time>
      </trkpt>
      <trkpt lat="48.06222" lon="-3.65741">
        <ele>178.5</ele>
        <time>2022-12-08T13:31:51Z</time>
      </trkpt>
      <trkpt lat="48.06217" lon="-3.65738">
        <ele>178.5</ele>
        <time>2022-12-08T13:31:52Z</time>
      </trkpt>
      <trkpt lat="48.06211" lon="-3.65735">
        <ele>178.5</ele>
        <time>2022-12-08T13:31:53Z</time>
      </trkpt>
      <trkpt lat="48.06206" lon="-3.65732">
        <ele>178.5</ele>
        <time>2022-12-08T13:31:54Z</time>
      </trkpt>
      <trkpt lat="48.06201" lon="-3.65729">
        <ele>178.5</ele>
        <time>2022-12-08T13:31:55Z</time>
      </trkpt>
      <trkpt lat="48.06195" lon="-3.65726">
        <ele>178.4</ele>
        <time>2022-12-08T13:31:56Z</time>
      </trkpt>
      <trkpt lat="48.0619" lon="-3.65723">
        <ele>178.3</ele>
        <time>2022-12-08T13:31:57Z</time>
      </trkpt>
      <trkpt lat="48.06185" lon="-3.6572">
        <ele>178.2</ele>
        <time>2022-12-08T13:31:58Z</time>
      </trkpt>
      <trkpt lat="48.06179" lon="-3.65717">
        <ele>178.2</ele>
        <time>2022-12-08T13:31:59Z</time>
      </trkpt>
      <trkpt lat="48.06174" lon="-3.65715">
        <ele>178.1</ele>
        <time>2022-12-08T13:32:00Z</time>
      </trkpt>
      <trkpt lat="48.06168" lon="-3.65712">
        <ele>178</ele>
        <time>2022-12-08T13:32:01Z</time>
      </trkpt>
      <trkpt lat="48.06162" lon="-3.6571">
        <ele>178</ele>
        <time>2022-12-08T13:32:02Z</time>
      </trkpt>
      <trkpt lat="48.06157" lon="-3.65707">
        <ele>177.9</ele>
        <time>2022-12-08T13:32:03Z</time>
      </trkpt>
      <trkpt lat="48.06151" lon="-3.65705">
        <ele>177.8</ele>
        <time>2022-12-08T13:32:04Z</time>
      </trkpt>
      <trkpt lat="48.06145" lon="-3.65702">
        <ele>177.7</ele>
        <time>2022-12-08T13:32:05Z</time>
      </trkpt>
      <trkpt lat="48.0614" lon="-3.65699">
        <ele>177.6</ele>
        <time>2022-12-08T13:32:06Z</time>
      </trkpt>
      <trkpt lat="48.06135" lon="-3.65696">
        <ele>177.6</ele>
        <time>2022-12-08T13:32:07Z</time>
      </trkpt>
      <trkpt lat="48.06129" lon="-3.65694">
        <ele>177.5</ele>
        <time>2022-12-08T13:32:08Z</time>
      </trkpt>
      <trkpt lat="48.06123" lon="-3.65692">
        <ele>177.4</ele>
        <time>2022-12-08T13:32:09Z</time>
      </trkpt>
      <trkpt lat="48.06118" lon="-3.65689">
        <ele>177.3</ele>
        <time>2022-12-08T13:32:10Z</time>
      </trkpt>
      <trkpt lat="48.06112" lon="-3.65686">
        <ele>177.2</ele>
        <time>2022-12-08T13:32:11Z</time>
      </trkpt>
      <trkpt lat="48.06106" lon="-3.65683">
        <ele>177.1</ele>
        <time>2022-12-08T13:32:12Z</time>
      </trkpt>
      <trkpt lat="48.061" lon="-3.65681">
        <ele>177</ele>
        <time>2022-12-08T13:32:13Z</time>
      </trkpt>
      <trkpt lat="48.06095" lon="-3.65678">
        <ele>176.9</ele>
        <time>2022-12-08T13:32:14Z</time>
      </trkpt>
      <trkpt lat="48.06089" lon="-3.65675">
        <ele>176.9</ele>
        <time>2022-12-08T13:32:15Z</time>
      </trkpt>
      <trkpt lat="48.06083" lon="-3.65672">
        <ele>176.8</ele>
        <time>2022-12-08T13:32:16Z</time>
      </trkpt>
      <trkpt lat="48.06077" lon="-3.6567">
        <ele>176.7</ele>
        <time>2022-12-08T13:32:17Z</time>
      </trkpt>
      <trkpt lat="48.0607" lon="-3.65667">
        <ele>176.7</ele>
        <time>2022-12-08T13:32:18Z</time>
      </trkpt>
      <trkpt lat="48.06064" lon="-3.65665">
        <ele>176.7</ele>
        <time>2022-12-08T13:32:19Z</time>
      </trkpt>
      <trkpt lat="48.06058" lon="-3.65662">
        <ele>176.7</ele>
        <time>2022-12-08T13:32:20Z</time>
      </trkpt>
      <trkpt lat="48.06052" lon="-3.65659">
        <ele>176.8</ele>
        <time>2022-12-08T13:32:21Z</time>
      </trkpt>
      <trkpt lat="48.06046" lon="-3.65657">
        <ele>176.8</ele>
        <time>2022-12-08T13:32:22Z</time>
      </trkpt>
      <trkpt lat="48.06041" lon="-3.65655">
        <ele>176.8</ele>
        <time>2022-12-08T13:32:23Z</time>
      </trkpt>
      <trkpt lat="48.06037" lon="-3.65654">
        <ele>176.8</ele>
        <time>2022-12-08T13:32:24Z</time>
      </trkpt>
      <trkpt lat="48.06033" lon="-3.65654">
        <ele>176.8</ele>
        <time>2022-12-08T13:32:25Z</time>
      </trkpt>
      <trkpt lat="48.0603" lon="-3.6565">
        <ele>176.7</ele>
        <time>2022-12-08T13:32:26Z</time>
      </trkpt>
      <trkpt lat="48.06028" lon="-3.65648">
        <ele>176.7</ele>
        <time>2022-12-08T13:32:27Z</time>
      </trkpt>
      <trkpt lat="48.06024" lon="-3.65646">
        <ele>176.7</ele>
        <time>2022-12-08T13:32:28Z</time>
      </trkpt>
      <trkpt lat="48.0602" lon="-3.65643">
        <ele>176.6</ele>
        <time>2022-12-08T13:32:29Z</time>
      </trkpt>
      <trkpt lat="48.06016" lon="-3.65641">
        <ele>176.5</ele>
        <time>2022-12-08T13:32:30Z</time>
      </trkpt>
      <trkpt lat="48.06011" lon="-3.65638">
        <ele>176.5</ele>
        <time>2022-12-08T13:32:31Z</time>
      </trkpt>
      <trkpt lat="48.06006" lon="-3.65634">
        <ele>176.4</ele>
        <time>2022-12-08T13:32:32Z</time>
      </trkpt>
      <trkpt lat="48.06001" lon="-3.65631">
        <ele>176.3</ele>
        <time>2022-12-08T13:32:33Z</time>
      </trkpt>
      <trkpt lat="48.05998" lon="-3.65629">
        <ele>176.2</ele>
        <time>2022-12-08T13:32:34Z</time>
      </trkpt>
      <trkpt lat="48.05993" lon="-3.65627">
        <ele>176.1</ele>
        <time>2022-12-08T13:32:35Z</time>
      </trkpt>
      <trkpt lat="48.05988" lon="-3.65626">
        <ele>176</ele>
        <time>2022-12-08T13:32:36Z</time>
      </trkpt>
      <trkpt lat="48.05983" lon="-3.65624">
        <ele>175.9</ele>
        <time>2022-12-08T13:32:37Z</time>
      </trkpt>
      <trkpt lat="48.05977" lon="-3.65622">
        <ele>175.8</ele>
        <time>2022-12-08T13:32:38Z</time>
      </trkpt>
      <trkpt lat="48.05971" lon="-3.6562">
        <ele>175.7</ele>
        <time>2022-12-08T13:32:39Z</time>
      </trkpt>
      <trkpt lat="48.05966" lon="-3.65616">
        <ele>175.6</ele>
        <time>2022-12-08T13:32:40Z</time>
      </trkpt>
      <trkpt lat="48.0596" lon="-3.65612">
        <ele>175.6</ele>
        <time>2022-12-08T13:32:41Z</time>
      </trkpt>
      <trkpt lat="48.05955" lon="-3.65609">
        <ele>175.5</ele>
        <time>2022-12-08T13:32:42Z</time>
      </trkpt>
      <trkpt lat="48.0595" lon="-3.65606">
        <ele>175.4</ele>
        <time>2022-12-08T13:32:43Z</time>
      </trkpt>
      <trkpt lat="48.05944" lon="-3.65603">
        <ele>175.4</ele>
        <time>2022-12-08T13:32:44Z</time>
      </trkpt>
      <trkpt lat="48.05939" lon="-3.65599">
        <ele>175.3</ele>
        <time>2022-12-08T13:32:45Z</time>
      </trkpt>
      <trkpt lat="48.05934" lon="-3.65596">
        <ele>175.2</ele>
        <time>2022-12-08T13:32:46Z</time>
      </trkpt>
      <trkpt lat="48.05929" lon="-3.65592">
        <ele>175.1</ele>
        <time>2022-12-08T13:32:47Z</time>
      </trkpt>
      <trkpt lat="48.05923" lon="-3.65588">
        <ele>175.1</ele>
        <time>2022-12-08T13:32:48Z</time>
      </trkpt>
      <trkpt lat="48.05917" lon="-3.65584">
        <ele>175</ele>
        <time>2022-12-08T13:32:49Z</time>
      </trkpt>
      <trkpt lat="48.05912" lon="-3.65579">
        <ele>175</ele>
        <time>2022-12-08T13:32:50Z</time>
      </trkpt>
      <trkpt lat="48.05907" lon="-3.65575">
        <ele>174.9</ele>
        <time>2022-12-08T13:32:51Z</time>
      </trkpt>
      <trkpt lat="48.05902" lon="-3.6557">
        <ele>174.9</ele>
        <time>2022-12-08T13:32:52Z</time>
      </trkpt>
      <trkpt lat="48.05897" lon="-3.65565">
        <ele>174.8</ele>
        <time>2022-12-08T13:32:53Z</time>
      </trkpt>
      <trkpt lat="48.05891" lon="-3.6556">
        <ele>174.8</ele>
        <time>2022-12-08T13:32:54Z</time>
      </trkpt>
      <trkpt lat="48.05886" lon="-3.65555">
        <ele>174.7</ele>
        <time>2022-12-08T13:32:55Z</time>
      </trkpt>
      <trkpt lat="48.05881" lon="-3.65551">
        <ele>174.6</ele>
        <time>2022-12-08T13:32:56Z</time>
      </trkpt>
      <trkpt lat="48.05876" lon="-3.65547">
        <ele>174.6</ele>
        <time>2022-12-08T13:32:57Z</time>
      </trkpt>
      <trkpt lat="48.05871" lon="-3.65542">
        <ele>174.5</ele>
        <time>2022-12-08T13:32:58Z</time>
      </trkpt>
      <trkpt lat="48.05865" lon="-3.65537">
        <ele>174.5</ele>
        <time>2022-12-08T13:32:59Z</time>
      </trkpt>
      <trkpt lat="48.0586" lon="-3.65532">
        <ele>174.4</ele>
        <time>2022-12-08T13:33:00Z</time>
      </trkpt>
      <trkpt lat="48.05855" lon="-3.65528">
        <ele>174.3</ele>
        <time>2022-12-08T13:33:01Z</time>
      </trkpt>
      <trkpt lat="48.05849" lon="-3.65523">
        <ele>174.3</ele>
        <time>2022-12-08T13:33:02Z</time>
      </trkpt>
      <trkpt lat="48.05844" lon="-3.65518">
        <ele>174.3</ele>
        <time>2022-12-08T13:33:03Z</time>
      </trkpt>
      <trkpt lat="48.05838" lon="-3.65513">
        <ele>174.3</ele>
        <time>2022-12-08T13:33:04Z</time>
      </trkpt>
      <trkpt lat="48.05832" lon="-3.65508">
        <ele>174.3</ele>
        <time>2022-12-08T13:33:05Z</time>
      </trkpt>
      <trkpt lat="48.05827" lon="-3.65503">
        <ele>174.4</ele>
        <time>2022-12-08T13:33:06Z</time>
      </trkpt>
      <trkpt lat="48.05823" lon="-3.65499">
        <ele>174.4</ele>
        <time>2022-12-08T13:33:07Z</time>
      </trkpt>
      <trkpt lat="48.05818" lon="-3.65493">
        <ele>174.5</ele>
        <time>2022-12-08T13:33:08Z</time>
      </trkpt>
      <trkpt lat="48.05812" lon="-3.65489">
        <ele>174.5</ele>
        <time>2022-12-08T13:33:09Z</time>
      </trkpt>
      <trkpt lat="48.05807" lon="-3.65485">
        <ele>174.5</ele>
        <time>2022-12-08T13:33:10Z</time>
      </trkpt>
      <trkpt lat="48.05803" lon="-3.65482">
        <ele>174.5</ele>
        <time>2022-12-08T13:33:11Z</time>
      </trkpt>
      <trkpt lat="48.05799" lon="-3.65478">
        <ele>174.5</ele>
        <time>2022-12-08T13:33:12Z</time>
      </trkpt>
      <trkpt lat="48.05795" lon="-3.65473">
        <ele>174.5</ele>
        <time>2022-12-08T13:33:13Z</time>
      </trkpt>
      <trkpt lat="48.05792" lon="-3.65468">
        <ele>174.4</ele>
        <time>2022-12-08T13:33:14Z</time>
      </trkpt>
      <trkpt lat="48.05787" lon="-3.65465">
        <ele>174.4</ele>
        <time>2022-12-08T13:33:15Z</time>
      </trkpt>
      <trkpt lat="48.05782" lon="-3.65463">
        <ele>174.4</ele>
        <time>2022-12-08T13:33:16Z</time>
      </trkpt>
      <trkpt lat="48.05778" lon="-3.6546">
        <ele>174.4</ele>
        <time>2022-12-08T13:33:17Z</time>
      </trkpt>
      <trkpt lat="48.05773" lon="-3.65457">
        <ele>174.4</ele>
        <time>2022-12-08T13:33:18Z</time>
      </trkpt>
      <trkpt lat="48.05768" lon="-3.65454">
        <ele>174.4</ele>
        <time>2022-12-08T13:33:19Z</time>
      </trkpt>
      <trkpt lat="48.05763" lon="-3.65451">
        <ele>174.4</ele>
        <time>2022-12-08T13:33:20Z</time>
      </trkpt>
      <trkpt lat="48.05759" lon="-3.65448">
        <ele>174.4</ele>
        <time>2022-12-08T13:33:21Z</time>
      </trkpt>
      <trkpt lat="48.05755" lon="-3.65445">
        <ele>174.4</ele>
        <time>2022-12-08T13:33:22Z</time>
      </trkpt>
      <trkpt lat="48.0575" lon="-3.65442">
        <ele>174.4</ele>
        <time>2022-12-08T13:33:23Z</time>
      </trkpt>
      <trkpt lat="48.05745" lon="-3.6544">
        <ele>174.4</ele>
        <time>2022-12-08T13:33:24Z</time>
      </trkpt>
      <trkpt lat="48.0574" lon="-3.65438">
        <ele>174.4</ele>
        <time>2022-12-08T13:33:25Z</time>
      </trkpt>
      <trkpt lat="48.05736" lon="-3.65436">
        <ele>174.5</ele>
        <time>2022-12-08T13:33:26Z</time>
      </trkpt>
      <trkpt lat="48.05731" lon="-3.65434">
        <ele>174.5</ele>
        <time>2022-12-08T13:33:27Z</time>
      </trkpt>
      <trkpt lat="48.05726" lon="-3.65432">
        <ele>174.5</ele>
        <time>2022-12-08T13:33:28Z</time>
      </trkpt>
      <trkpt lat="48.05722" lon="-3.6543">
        <ele>174.5</ele>
        <time>2022-12-08T13:33:29Z</time>
      </trkpt>
      <trkpt lat="48.05717" lon="-3.65428">
        <ele>174.5</ele>
        <time>2022-12-08T13:33:30Z</time>
      </trkpt>
      <trkpt lat="48.05713" lon="-3.65427">
        <ele>174.5</ele>
        <time>2022-12-08T13:33:31Z</time>
      </trkpt>
      <trkpt lat="48.05709" lon="-3.65425">
        <ele>174.5</ele>
        <time>2022-12-08T13:33:32Z</time>
      </trkpt>
      <trkpt lat="48.05704" lon="-3.65424">
        <ele>174.5</ele>
        <time>2022-12-08T13:33:33Z</time>
      </trkpt>
      <trkpt lat="48.05702" lon="-3.65423">
        <ele>174.5</ele>
        <time>2022-12-08T13:33:34Z</time>
      </trkpt>
      <trkpt lat="48.05697" lon="-3.65421">
        <ele>174.5</ele>
        <time>2022-12-08T13:33:35Z</time>
      </trkpt>
      <trkpt lat="48.05692" lon="-3.65419">
        <ele>174.5</ele>
        <time>2022-12-08T13:33:36Z</time>
      </trkpt>
      <trkpt lat="48.05688" lon="-3.65418">
        <ele>174.5</ele>
        <time>2022-12-08T13:33:37Z</time>
      </trkpt>
      <trkpt lat="48.05683" lon="-3.65416">
        <ele>174.5</ele>
        <time>2022-12-08T13:33:38Z</time>
      </trkpt>
      <trkpt lat="48.05681" lon="-3.65415">
        <ele>174.5</ele>
        <time>2022-12-08T13:33:39Z</time>
      </trkpt>
      <trkpt lat="48.05678" lon="-3.65413">
        <ele>174.5</ele>
        <time>2022-12-08T13:33:40Z</time>
      </trkpt>
      <trkpt lat="48.05674" lon="-3.6541">
        <ele>174.5</ele>
        <time>2022-12-08T13:33:42Z</time>
      </trkpt>
      <trkpt lat="48.05673" lon="-3.65405">
        <ele>174.5</ele>
        <time>2022-12-08T13:33:43Z</time>
      </trkpt>
      <trkpt lat="48.05673" lon="-3.65405">
        <ele>174.5</ele>
        <time>2022-12-08T13:33:44Z</time>
      </trkpt>
      <trkpt lat="48.05673" lon="-3.65404">
        <ele>174.5</ele>
        <time>2022-12-08T13:33:46Z</time>
      </trkpt>
      <trkpt lat="48.05673" lon="-3.65404">
        <ele>174.5</ele>
        <time>2022-12-08T13:33:47Z</time>
      </trkpt>
      <trkpt lat="48.05673" lon="-3.65404">
        <ele>174.5</ele>
        <time>2022-12-08T13:33:48Z</time>
      </trkpt>
      <trkpt lat="48.05673" lon="-3.65405">
        <ele>174.5</ele>
        <time>2022-12-08T13:33:49Z</time>
      </trkpt>
      <trkpt lat="48.05673" lon="-3.65404">
        <ele>174.5</ele>
        <time>2022-12-08T13:33:50Z</time>
      </trkpt>
      <trkpt lat="48.05673" lon="-3.65403">
        <ele>174.5</ele>
        <time>2022-12-08T13:33:51Z</time>
      </trkpt>
      <trkpt lat="48.05673" lon="-3.65402">
        <ele>174.5</ele>
        <time>2022-12-08T13:33:52Z</time>
      </trkpt>
      <trkpt lat="48.05672" lon="-3.65402">
        <ele>174.5</ele>
        <time>2022-12-08T13:33:53Z</time>
      </trkpt>
      <trkpt lat="48.05672" lon="-3.65403">
        <ele>174.5</ele>
        <time>2022-12-08T13:33:54Z</time>
      </trkpt>
      <trkpt lat="48.05672" lon="-3.65403">
        <ele>174.5</ele>
        <time>2022-12-08T13:33:55Z</time>
      </trkpt>
      <trkpt lat="48.05672" lon="-3.65403">
        <ele>174.5</ele>
        <time>2022-12-08T13:33:56Z</time>
      </trkpt>
      <trkpt lat="48.05672" lon="-3.65403">
        <ele>174.5</ele>
        <time>2022-12-08T13:33:58Z</time>
      </trkpt>
      <trkpt lat="48.05672" lon="-3.65403">
        <ele>174.5</ele>
        <time>2022-12-08T13:33:59Z</time>
      </trkpt>
      <trkpt lat="48.05672" lon="-3.65403">
        <ele>174.5</ele>
        <time>2022-12-08T13:34:00Z</time>
      </trkpt>
      <trkpt lat="48.05671" lon="-3.65404">
        <ele>174.5</ele>
        <time>2022-12-08T13:34:02Z</time>
      </trkpt>
      <trkpt lat="48.05671" lon="-3.65404">
        <ele>174.5</ele>
        <time>2022-12-08T13:34:03Z</time>
      </trkpt>
      <trkpt lat="48.0567" lon="-3.65405">
        <ele>174.5</ele>
        <time>2022-12-08T13:34:04Z</time>
      </trkpt>
      <trkpt lat="48.05669" lon="-3.65405">
        <ele>174.5</ele>
        <time>2022-12-08T13:34:05Z</time>
      </trkpt>
      <trkpt lat="48.05666" lon="-3.65405">
        <ele>174.5</ele>
        <time>2022-12-08T13:34:07Z</time>
      </trkpt>
      <trkpt lat="48.05664" lon="-3.65405">
        <ele>174.5</ele>
        <time>2022-12-08T13:34:08Z</time>
      </trkpt>
      <trkpt lat="48.05663" lon="-3.65405">
        <ele>174.5</ele>
        <time>2022-12-08T13:34:09Z</time>
      </trkpt>
      <trkpt lat="48.05662" lon="-3.65406">
        <ele>174.5</ele>
        <time>2022-12-08T13:34:10Z</time>
      </trkpt>
      <trkpt lat="48.05659" lon="-3.65404">
        <ele>174.5</ele>
        <time>2022-12-08T13:34:12Z</time>
      </trkpt>
      <trkpt lat="48.05659" lon="-3.65405">
        <ele>174.5</ele>
        <time>2022-12-08T13:34:13Z</time>
      </trkpt>
      <trkpt lat="48.05659" lon="-3.65405">
        <ele>174.5</ele>
        <time>2022-12-08T13:34:14Z</time>
      </trkpt>
      <trkpt lat="48.0566" lon="-3.65405">
        <ele>174.5</ele>
        <time>2022-12-08T13:34:15Z</time>
      </trkpt>
      <trkpt lat="48.05661" lon="-3.65405">
        <ele>174.5</ele>
        <time>2022-12-08T13:34:16Z</time>
      </trkpt>
      <trkpt lat="48.05661" lon="-3.65405">
        <ele>174.5</ele>
        <time>2022-12-08T13:34:17Z</time>
      </trkpt>
      <trkpt lat="48.05661" lon="-3.65405">
        <ele>174.5</ele>
        <time>2022-12-08T13:34:18Z</time>
      </trkpt>
      <trkpt lat="48.05665" lon="-3.65406">
        <ele>174.5</ele>
        <time>2022-12-08T13:34:21Z</time>
      </trkpt>
      <trkpt lat="48.05662" lon="-3.65407">
        <ele>174.5</ele>
        <time>2022-12-08T13:34:22Z</time>
      </trkpt>
      <trkpt lat="48.05662" lon="-3.65408">
        <ele>174.5</ele>
        <time>2022-12-08T13:34:24Z</time>
      </trkpt>
      <trkpt lat="48.05663" lon="-3.6541">
        <ele>174.5</ele>
        <time>2022-12-08T13:34:25Z</time>
      </trkpt>
      <trkpt lat="48.05667" lon="-3.65411">
        <ele>174.4</ele>
        <time>2022-12-08T13:34:26Z</time>
      </trkpt>
      <trkpt lat="48.05669" lon="-3.65411">
        <ele>174.4</ele>
        <time>2022-12-08T13:34:27Z</time>
      </trkpt>
      <trkpt lat="48.05672" lon="-3.65409">
        <ele>174.4</ele>
        <time>2022-12-08T13:34:28Z</time>
      </trkpt>
      <trkpt lat="48.05673" lon="-3.65408">
        <ele>174.4</ele>
        <time>2022-12-08T13:34:29Z</time>
      </trkpt>
      <trkpt lat="48.05674" lon="-3.65406">
        <ele>174.4</ele>
        <time>2022-12-08T13:34:30Z</time>
      </trkpt>
      <trkpt lat="48.05673" lon="-3.65405">
        <ele>174.4</ele>
        <time>2022-12-08T13:34:32Z</time>
      </trkpt>
      <trkpt lat="48.05673" lon="-3.65405">
        <ele>174.4</ele>
        <time>2022-12-08T13:34:33Z</time>
      </trkpt>
      <trkpt lat="48.05673" lon="-3.65405">
        <ele>174.4</ele>
        <time>2022-12-08T13:34:34Z</time>
      </trkpt>
      <trkpt lat="48.05673" lon="-3.65405">
        <ele>174.4</ele>
        <time>2022-12-08T13:34:35Z</time>
      </trkpt>
      <trkpt lat="48.05672" lon="-3.65405">
        <ele>174.4</ele>
        <time>2022-12-08T13:34:36Z</time>
      </trkpt>
      <trkpt lat="48.05672" lon="-3.65404">
        <ele>174.4</ele>
        <time>2022-12-08T13:34:37Z</time>
      </trkpt>
      <trkpt lat="48.05672" lon="-3.65404">
        <ele>174.4</ele>
        <time>2022-12-08T13:34:38Z</time>
      </trkpt>
      <trkpt lat="48.05671" lon="-3.65404">
        <ele>174.4</ele>
        <time>2022-12-08T13:34:39Z</time>
      </trkpt>
      <trkpt lat="48.05671" lon="-3.65404">
        <ele>174.4</ele>
        <time>2022-12-08T13:34:40Z</time>
      </trkpt>
      <trkpt lat="48.05671" lon="-3.65404">
        <ele>174.4</ele>
        <time>2022-12-08T13:34:54Z</time>
      </trkpt>
      <trkpt lat="48.05671" lon="-3.65404">
        <ele>174.4</ele>
        <time>2022-12-08T13:34:55Z</time>
      </trkpt>
      <trkpt lat="48.0567" lon="-3.65403">
        <ele>174.4</ele>
        <time>2022-12-08T13:34:56Z</time>
      </trkpt>
      <trkpt lat="48.0567" lon="-3.65403">
        <ele>174.4</ele>
        <time>2022-12-08T13:34:57Z</time>
      </trkpt>
      <trkpt lat="48.0567" lon="-3.65403">
        <ele>174.4</ele>
        <time>2022-12-08T13:34:58Z</time>
      </trkpt>
      <trkpt lat="48.05669" lon="-3.65403">
        <ele>174.4</ele>
        <time>2022-12-08T13:34:59Z</time>
      </trkpt>
      <trkpt lat="48.05669" lon="-3.65403">
        <ele>174.4</ele>
        <time>2022-12-08T13:35:00Z</time>
      </trkpt>
      <trkpt lat="48.05666" lon="-3.65403">
        <ele>174.4</ele>
        <time>2022-12-08T13:35:01Z</time>
      </trkpt>
      <trkpt lat="48.05665" lon="-3.65403">
        <ele>174.4</ele>
        <time>2022-12-08T13:35:02Z</time>
      </trkpt>
      <trkpt lat="48.05662" lon="-3.65404">
        <ele>174.4</ele>
        <time>2022-12-08T13:35:03Z</time>
      </trkpt>
      <trkpt lat="48.05659" lon="-3.65404">
        <ele>174.4</ele>
        <time>2022-12-08T13:35:04Z</time>
      </trkpt>
      <trkpt lat="48.05656" lon="-3.65404">
        <ele>174.3</ele>
        <time>2022-12-08T13:35:05Z</time>
      </trkpt>
      <trkpt lat="48.05653" lon="-3.65404">
        <ele>174.3</ele>
        <time>2022-12-08T13:35:06Z</time>
      </trkpt>
      <trkpt lat="48.0565" lon="-3.65404">
        <ele>174.3</ele>
        <time>2022-12-08T13:35:07Z</time>
      </trkpt>
      <trkpt lat="48.05647" lon="-3.65401">
        <ele>174.3</ele>
        <time>2022-12-08T13:35:08Z</time>
      </trkpt>
      <trkpt lat="48.05644" lon="-3.65399">
        <ele>174.3</ele>
        <time>2022-12-08T13:35:09Z</time>
      </trkpt>
      <trkpt lat="48.0564" lon="-3.65397">
        <ele>174.3</ele>
        <time>2022-12-08T13:35:10Z</time>
      </trkpt>
      <trkpt lat="48.05636" lon="-3.65395">
        <ele>174.3</ele>
        <time>2022-12-08T13:35:11Z</time>
      </trkpt>
      <trkpt lat="48.05633" lon="-3.65393">
        <ele>174.3</ele>
        <time>2022-12-08T13:35:12Z</time>
      </trkpt>
      <trkpt lat="48.05629" lon="-3.65392">
        <ele>174.3</ele>
        <time>2022-12-08T13:35:13Z</time>
      </trkpt>
      <trkpt lat="48.05625" lon="-3.6539">
        <ele>174.3</ele>
        <time>2022-12-08T13:35:14Z</time>
      </trkpt>
      <trkpt lat="48.05619" lon="-3.65387">
        <ele>174.3</ele>
        <time>2022-12-08T13:35:16Z</time>
      </trkpt>
      <trkpt lat="48.0561" lon="-3.65384">
        <ele>174.3</ele>
        <time>2022-12-08T13:35:17Z</time>
      </trkpt>
      <trkpt lat="48.05604" lon="-3.65382">
        <ele>174.3</ele>
        <time>2022-12-08T13:35:18Z</time>
      </trkpt>
      <trkpt lat="48.05599" lon="-3.65381">
        <ele>174.3</ele>
        <time>2022-12-08T13:35:19Z</time>
      </trkpt>
      <trkpt lat="48.05594" lon="-3.6538">
        <ele>174.3</ele>
        <time>2022-12-08T13:35:20Z</time>
      </trkpt>
      <trkpt lat="48.0559" lon="-3.65379">
        <ele>174.3</ele>
        <time>2022-12-08T13:35:21Z</time>
      </trkpt>
      <trkpt lat="48.05585" lon="-3.65379">
        <ele>174.4</ele>
        <time>2022-12-08T13:35:22Z</time>
      </trkpt>
      <trkpt lat="48.0558" lon="-3.65378">
        <ele>174.4</ele>
        <time>2022-12-08T13:35:23Z</time>
      </trkpt>
      <trkpt lat="48.05571" lon="-3.65377">
        <ele>174.4</ele>
        <time>2022-12-08T13:35:25Z</time>
      </trkpt>
      <trkpt lat="48.05566" lon="-3.65376">
        <ele>174.4</ele>
        <time>2022-12-08T13:35:26Z</time>
      </trkpt>
      <trkpt lat="48.05561" lon="-3.65375">
        <ele>174.5</ele>
        <time>2022-12-08T13:35:27Z</time>
      </trkpt>
      <trkpt lat="48.05556" lon="-3.65374">
        <ele>174.4</ele>
        <time>2022-12-08T13:35:28Z</time>
      </trkpt>
      <trkpt lat="48.05551" lon="-3.65375">
        <ele>174.4</ele>
        <time>2022-12-08T13:35:29Z</time>
      </trkpt>
      <trkpt lat="48.05546" lon="-3.65377">
        <ele>174.3</ele>
        <time>2022-12-08T13:35:30Z</time>
      </trkpt>
      <trkpt lat="48.05541" lon="-3.65379">
        <ele>174.2</ele>
        <time>2022-12-08T13:35:31Z</time>
      </trkpt>
      <trkpt lat="48.05535" lon="-3.6538">
        <ele>174</ele>
        <time>2022-12-08T13:35:32Z</time>
      </trkpt>
      <trkpt lat="48.05529" lon="-3.65382">
        <ele>173.9</ele>
        <time>2022-12-08T13:35:33Z</time>
      </trkpt>
      <trkpt lat="48.05523" lon="-3.65383">
        <ele>173.8</ele>
        <time>2022-12-08T13:35:34Z</time>
      </trkpt>
      <trkpt lat="48.05517" lon="-3.65385">
        <ele>173.8</ele>
        <time>2022-12-08T13:35:35Z</time>
      </trkpt>
      <trkpt lat="48.05512" lon="-3.65386">
        <ele>173.7</ele>
        <time>2022-12-08T13:35:36Z</time>
      </trkpt>
      <trkpt lat="48.05506" lon="-3.65387">
        <ele>173.6</ele>
        <time>2022-12-08T13:35:37Z</time>
      </trkpt>
      <trkpt lat="48.055" lon="-3.65389">
        <ele>173.6</ele>
        <time>2022-12-08T13:35:38Z</time>
      </trkpt>
      <trkpt lat="48.05494" lon="-3.6539">
        <ele>173.5</ele>
        <time>2022-12-08T13:35:39Z</time>
      </trkpt>
      <trkpt lat="48.05488" lon="-3.65393">
        <ele>173.4</ele>
        <time>2022-12-08T13:35:40Z</time>
      </trkpt>
      <trkpt lat="48.05481" lon="-3.65396">
        <ele>173.4</ele>
        <time>2022-12-08T13:35:41Z</time>
      </trkpt>
      <trkpt lat="48.05475" lon="-3.654">
        <ele>173.3</ele>
        <time>2022-12-08T13:35:42Z</time>
      </trkpt>
      <trkpt lat="48.05471" lon="-3.65402">
        <ele>173.2</ele>
        <time>2022-12-08T13:35:43Z</time>
      </trkpt>
      <trkpt lat="48.05466" lon="-3.65405">
        <ele>173.2</ele>
        <time>2022-12-08T13:35:44Z</time>
      </trkpt>
      <trkpt lat="48.05461" lon="-3.65408">
        <ele>173.2</ele>
        <time>2022-12-08T13:35:45Z</time>
      </trkpt>
      <trkpt lat="48.05456" lon="-3.65411">
        <ele>173.1</ele>
        <time>2022-12-08T13:35:46Z</time>
      </trkpt>
      <trkpt lat="48.0545" lon="-3.65415">
        <ele>173.1</ele>
        <time>2022-12-08T13:35:47Z</time>
      </trkpt>
      <trkpt lat="48.05445" lon="-3.65418">
        <ele>173.1</ele>
        <time>2022-12-08T13:35:48Z</time>
      </trkpt>
      <trkpt lat="48.05441" lon="-3.65422">
        <ele>173.1</ele>
        <time>2022-12-08T13:35:49Z</time>
      </trkpt>
      <trkpt lat="48.05435" lon="-3.65426">
        <ele>173</ele>
        <time>2022-12-08T13:35:50Z</time>
      </trkpt>
      <trkpt lat="48.0543" lon="-3.65431">
        <ele>173</ele>
        <time>2022-12-08T13:35:51Z</time>
      </trkpt>
      <trkpt lat="48.05426" lon="-3.65436">
        <ele>172.9</ele>
        <time>2022-12-08T13:35:52Z</time>
      </trkpt>
      <trkpt lat="48.05421" lon="-3.65441">
        <ele>172.9</ele>
        <time>2022-12-08T13:35:53Z</time>
      </trkpt>
      <trkpt lat="48.05416" lon="-3.65446">
        <ele>172.8</ele>
        <time>2022-12-08T13:35:54Z</time>
      </trkpt>
      <trkpt lat="48.05411" lon="-3.65452">
        <ele>172.8</ele>
        <time>2022-12-08T13:35:55Z</time>
      </trkpt>
      <trkpt lat="48.05407" lon="-3.65458">
        <ele>172.7</ele>
        <time>2022-12-08T13:35:56Z</time>
      </trkpt>
      <trkpt lat="48.05404" lon="-3.65463">
        <ele>172.7</ele>
        <time>2022-12-08T13:35:57Z</time>
      </trkpt>
      <trkpt lat="48.05399" lon="-3.65468">
        <ele>172.6</ele>
        <time>2022-12-08T13:35:58Z</time>
      </trkpt>
      <trkpt lat="48.05394" lon="-3.65475">
        <ele>172.5</ele>
        <time>2022-12-08T13:35:59Z</time>
      </trkpt>
      <trkpt lat="48.0539" lon="-3.65481">
        <ele>172.5</ele>
        <time>2022-12-08T13:36:00Z</time>
      </trkpt>
      <trkpt lat="48.05385" lon="-3.65487">
        <ele>172.4</ele>
        <time>2022-12-08T13:36:01Z</time>
      </trkpt>
      <trkpt lat="48.05381" lon="-3.65493">
        <ele>172.3</ele>
        <time>2022-12-08T13:36:02Z</time>
      </trkpt>
      <trkpt lat="48.05376" lon="-3.65498">
        <ele>172.3</ele>
        <time>2022-12-08T13:36:03Z</time>
      </trkpt>
      <trkpt lat="48.05372" lon="-3.65504">
        <ele>172.2</ele>
        <time>2022-12-08T13:36:04Z</time>
      </trkpt>
      <trkpt lat="48.05367" lon="-3.65511">
        <ele>172.1</ele>
        <time>2022-12-08T13:36:05Z</time>
      </trkpt>
      <trkpt lat="48.05362" lon="-3.65517">
        <ele>172</ele>
        <time>2022-12-08T13:36:06Z</time>
      </trkpt>
      <trkpt lat="48.05358" lon="-3.65523">
        <ele>171.9</ele>
        <time>2022-12-08T13:36:07Z</time>
      </trkpt>
      <trkpt lat="48.05354" lon="-3.6553">
        <ele>171.8</ele>
        <time>2022-12-08T13:36:08Z</time>
      </trkpt>
      <trkpt lat="48.05349" lon="-3.65536">
        <ele>171.7</ele>
        <time>2022-12-08T13:36:09Z</time>
      </trkpt>
      <trkpt lat="48.05344" lon="-3.65543">
        <ele>171.6</ele>
        <time>2022-12-08T13:36:10Z</time>
      </trkpt>
      <trkpt lat="48.05339" lon="-3.65549">
        <ele>171.4</ele>
        <time>2022-12-08T13:36:11Z</time>
      </trkpt>
      <trkpt lat="48.05335" lon="-3.65555">
        <ele>171.3</ele>
        <time>2022-12-08T13:36:12Z</time>
      </trkpt>
      <trkpt lat="48.05331" lon="-3.65561">
        <ele>171.2</ele>
        <time>2022-12-08T13:36:13Z</time>
      </trkpt>
      <trkpt lat="48.05326" lon="-3.65567">
        <ele>171.2</ele>
        <time>2022-12-08T13:36:14Z</time>
      </trkpt>
      <trkpt lat="48.05322" lon="-3.65574">
        <ele>171.1</ele>
        <time>2022-12-08T13:36:15Z</time>
      </trkpt>
      <trkpt lat="48.05317" lon="-3.65581">
        <ele>171</ele>
        <time>2022-12-08T13:36:16Z</time>
      </trkpt>
      <trkpt lat="48.05312" lon="-3.65588">
        <ele>171</ele>
        <time>2022-12-08T13:36:17Z</time>
      </trkpt>
      <trkpt lat="48.05308" lon="-3.65594">
        <ele>171</ele>
        <time>2022-12-08T13:36:18Z</time>
      </trkpt>
      <trkpt lat="48.05303" lon="-3.656">
        <ele>171.1</ele>
        <time>2022-12-08T13:36:19Z</time>
      </trkpt>
      <trkpt lat="48.05299" lon="-3.65606">
        <ele>171.1</ele>
        <time>2022-12-08T13:36:20Z</time>
      </trkpt>
      <trkpt lat="48.05295" lon="-3.65613">
        <ele>171.2</ele>
        <time>2022-12-08T13:36:21Z</time>
      </trkpt>
      <trkpt lat="48.05293" lon="-3.65618">
        <ele>171.2</ele>
        <time>2022-12-08T13:36:22Z</time>
      </trkpt>
      <trkpt lat="48.05292" lon="-3.65622">
        <ele>171.2</ele>
        <time>2022-12-08T13:36:23Z</time>
      </trkpt>
      <trkpt lat="48.05288" lon="-3.65625">
        <ele>171.2</ele>
        <time>2022-12-08T13:36:24Z</time>
      </trkpt>
      <trkpt lat="48.05287" lon="-3.65627">
        <ele>171.3</ele>
        <time>2022-12-08T13:36:25Z</time>
      </trkpt>
      <trkpt lat="48.05284" lon="-3.6563">
        <ele>171.2</ele>
        <time>2022-12-08T13:36:26Z</time>
      </trkpt>
      <trkpt lat="48.05281" lon="-3.65633">
        <ele>171.2</ele>
        <time>2022-12-08T13:36:27Z</time>
      </trkpt>
      <trkpt lat="48.05276" lon="-3.65641">
        <ele>171.1</ele>
        <time>2022-12-08T13:36:29Z</time>
      </trkpt>
      <trkpt lat="48.05274" lon="-3.65644">
        <ele>171</ele>
        <time>2022-12-08T13:36:30Z</time>
      </trkpt>
      <trkpt lat="48.05275" lon="-3.65645">
        <ele>171</ele>
        <time>2022-12-08T13:36:31Z</time>
      </trkpt>
      <trkpt lat="48.0527" lon="-3.65652">
        <ele>170.7</ele>
        <time>2022-12-08T13:36:32Z</time>
      </trkpt>
      <trkpt lat="48.05264" lon="-3.65657">
        <ele>170.5</ele>
        <time>2022-12-08T13:36:33Z</time>
      </trkpt>
      <trkpt lat="48.0526" lon="-3.65667">
        <ele>170.2</ele>
        <time>2022-12-08T13:36:34Z</time>
      </trkpt>
      <trkpt lat="48.05257" lon="-3.65674">
        <ele>169.9</ele>
        <time>2022-12-08T13:36:35Z</time>
      </trkpt>
      <trkpt lat="48.05253" lon="-3.6568">
        <ele>169.6</ele>
        <time>2022-12-08T13:36:36Z</time>
      </trkpt>
      <trkpt lat="48.05248" lon="-3.65687">
        <ele>169.3</ele>
        <time>2022-12-08T13:36:37Z</time>
      </trkpt>
      <trkpt lat="48.05244" lon="-3.65694">
        <ele>169</ele>
        <time>2022-12-08T13:36:38Z</time>
      </trkpt>
      <trkpt lat="48.0524" lon="-3.65701">
        <ele>168.8</ele>
        <time>2022-12-08T13:36:39Z</time>
      </trkpt>
      <trkpt lat="48.05235" lon="-3.65708">
        <ele>168.6</ele>
        <time>2022-12-08T13:36:40Z</time>
      </trkpt>
      <trkpt lat="48.05229" lon="-3.65715">
        <ele>168.3</ele>
        <time>2022-12-08T13:36:41Z</time>
      </trkpt>
      <trkpt lat="48.05225" lon="-3.65722">
        <ele>168.1</ele>
        <time>2022-12-08T13:36:42Z</time>
      </trkpt>
      <trkpt lat="48.05218" lon="-3.6573">
        <ele>167.9</ele>
        <time>2022-12-08T13:36:43Z</time>
      </trkpt>
      <trkpt lat="48.05213" lon="-3.65737">
        <ele>167.6</ele>
        <time>2022-12-08T13:36:44Z</time>
      </trkpt>
      <trkpt lat="48.05207" lon="-3.65744">
        <ele>167.4</ele>
        <time>2022-12-08T13:36:45Z</time>
      </trkpt>
      <trkpt lat="48.05203" lon="-3.65751">
        <ele>167.2</ele>
        <time>2022-12-08T13:36:46Z</time>
      </trkpt>
      <trkpt lat="48.05197" lon="-3.65759">
        <ele>166.9</ele>
        <time>2022-12-08T13:36:47Z</time>
      </trkpt>
      <trkpt lat="48.05191" lon="-3.65767">
        <ele>166.7</ele>
        <time>2022-12-08T13:36:48Z</time>
      </trkpt>
      <trkpt lat="48.05185" lon="-3.65775">
        <ele>166.4</ele>
        <time>2022-12-08T13:36:49Z</time>
      </trkpt>
      <trkpt lat="48.0518" lon="-3.65781">
        <ele>166.3</ele>
        <time>2022-12-08T13:36:50Z</time>
      </trkpt>
      <trkpt lat="48.05175" lon="-3.65788">
        <ele>166.1</ele>
        <time>2022-12-08T13:36:51Z</time>
      </trkpt>
      <trkpt lat="48.05171" lon="-3.65796">
        <ele>165.9</ele>
        <time>2022-12-08T13:36:52Z</time>
      </trkpt>
      <trkpt lat="48.05166" lon="-3.65804">
        <ele>165.7</ele>
        <time>2022-12-08T13:36:53Z</time>
      </trkpt>
      <trkpt lat="48.0516" lon="-3.65812">
        <ele>165.6</ele>
        <time>2022-12-08T13:36:54Z</time>
      </trkpt>
      <trkpt lat="48.05155" lon="-3.65819">
        <ele>165.4</ele>
        <time>2022-12-08T13:36:55Z</time>
      </trkpt>
      <trkpt lat="48.0515" lon="-3.65826">
        <ele>165.2</ele>
        <time>2022-12-08T13:36:56Z</time>
      </trkpt>
      <trkpt lat="48.05144" lon="-3.65834">
        <ele>165</ele>
        <time>2022-12-08T13:36:57Z</time>
      </trkpt>
      <trkpt lat="48.05139" lon="-3.65841">
        <ele>164.8</ele>
        <time>2022-12-08T13:36:58Z</time>
      </trkpt>
      <trkpt lat="48.05134" lon="-3.65847">
        <ele>164.7</ele>
        <time>2022-12-08T13:36:59Z</time>
      </trkpt>
      <trkpt lat="48.0513" lon="-3.65854">
        <ele>164.5</ele>
        <time>2022-12-08T13:37:00Z</time>
      </trkpt>
      <trkpt lat="48.05124" lon="-3.65862">
        <ele>164.4</ele>
        <time>2022-12-08T13:37:01Z</time>
      </trkpt>
      <trkpt lat="48.05118" lon="-3.6587">
        <ele>164.2</ele>
        <time>2022-12-08T13:37:02Z</time>
      </trkpt>
      <trkpt lat="48.05114" lon="-3.65877">
        <ele>164.1</ele>
        <time>2022-12-08T13:37:03Z</time>
      </trkpt>
      <trkpt lat="48.05109" lon="-3.65885">
        <ele>163.9</ele>
        <time>2022-12-08T13:37:04Z</time>
      </trkpt>
      <trkpt lat="48.05104" lon="-3.65892">
        <ele>163.8</ele>
        <time>2022-12-08T13:37:05Z</time>
      </trkpt>
      <trkpt lat="48.05099" lon="-3.659">
        <ele>163.7</ele>
        <time>2022-12-08T13:37:06Z</time>
      </trkpt>
      <trkpt lat="48.05093" lon="-3.65908">
        <ele>163.6</ele>
        <time>2022-12-08T13:37:07Z</time>
      </trkpt>
      <trkpt lat="48.05088" lon="-3.65916">
        <ele>163.4</ele>
        <time>2022-12-08T13:37:08Z</time>
      </trkpt>
      <trkpt lat="48.05083" lon="-3.65925">
        <ele>163.3</ele>
        <time>2022-12-08T13:37:09Z</time>
      </trkpt>
      <trkpt lat="48.05077" lon="-3.65932">
        <ele>163.2</ele>
        <time>2022-12-08T13:37:10Z</time>
      </trkpt>
      <trkpt lat="48.05072" lon="-3.6594">
        <ele>163.1</ele>
        <time>2022-12-08T13:37:11Z</time>
      </trkpt>
      <trkpt lat="48.05066" lon="-3.65948">
        <ele>163</ele>
        <time>2022-12-08T13:37:12Z</time>
      </trkpt>
      <trkpt lat="48.05061" lon="-3.65957">
        <ele>162.9</ele>
        <time>2022-12-08T13:37:13Z</time>
      </trkpt>
      <trkpt lat="48.05055" lon="-3.65964">
        <ele>162.9</ele>
        <time>2022-12-08T13:37:14Z</time>
      </trkpt>
      <trkpt lat="48.0505" lon="-3.65972">
        <ele>162.9</ele>
        <time>2022-12-08T13:37:15Z</time>
      </trkpt>
      <trkpt lat="48.05045" lon="-3.65979">
        <ele>162.8</ele>
        <time>2022-12-08T13:37:16Z</time>
      </trkpt>
      <trkpt lat="48.05041" lon="-3.65986">
        <ele>162.8</ele>
        <time>2022-12-08T13:37:17Z</time>
      </trkpt>
      <trkpt lat="48.05035" lon="-3.65994">
        <ele>162.8</ele>
        <time>2022-12-08T13:37:18Z</time>
      </trkpt>
      <trkpt lat="48.0503" lon="-3.66001">
        <ele>162.8</ele>
        <time>2022-12-08T13:37:19Z</time>
      </trkpt>
      <trkpt lat="48.05025" lon="-3.66008">
        <ele>162.8</ele>
        <time>2022-12-08T13:37:20Z</time>
      </trkpt>
      <trkpt lat="48.05019" lon="-3.66016">
        <ele>162.8</ele>
        <time>2022-12-08T13:37:21Z</time>
      </trkpt>
      <trkpt lat="48.05014" lon="-3.66023">
        <ele>162.8</ele>
        <time>2022-12-08T13:37:22Z</time>
      </trkpt>
      <trkpt lat="48.05009" lon="-3.6603">
        <ele>162.8</ele>
        <time>2022-12-08T13:37:23Z</time>
      </trkpt>
      <trkpt lat="48.05004" lon="-3.66037">
        <ele>162.8</ele>
        <time>2022-12-08T13:37:24Z</time>
      </trkpt>
      <trkpt lat="48.04999" lon="-3.66044">
        <ele>162.8</ele>
        <time>2022-12-08T13:37:25Z</time>
      </trkpt>
      <trkpt lat="48.04994" lon="-3.66051">
        <ele>162.7</ele>
        <time>2022-12-08T13:37:26Z</time>
      </trkpt>
      <trkpt lat="48.04989" lon="-3.66059">
        <ele>162.7</ele>
        <time>2022-12-08T13:37:27Z</time>
      </trkpt>
      <trkpt lat="48.04985" lon="-3.66066">
        <ele>162.7</ele>
        <time>2022-12-08T13:37:28Z</time>
      </trkpt>
      <trkpt lat="48.0498" lon="-3.66073">
        <ele>162.7</ele>
        <time>2022-12-08T13:37:29Z</time>
      </trkpt>
      <trkpt lat="48.04975" lon="-3.66079">
        <ele>162.6</ele>
        <time>2022-12-08T13:37:30Z</time>
      </trkpt>
      <trkpt lat="48.0497" lon="-3.66087">
        <ele>162.6</ele>
        <time>2022-12-08T13:37:31Z</time>
      </trkpt>
      <trkpt lat="48.04965" lon="-3.66094">
        <ele>162.6</ele>
        <time>2022-12-08T13:37:32Z</time>
      </trkpt>
      <trkpt lat="48.0496" lon="-3.66101">
        <ele>162.6</ele>
        <time>2022-12-08T13:37:33Z</time>
      </trkpt>
      <trkpt lat="48.04955" lon="-3.66108">
        <ele>162.6</ele>
        <time>2022-12-08T13:37:34Z</time>
      </trkpt>
      <trkpt lat="48.0495" lon="-3.66116">
        <ele>162.5</ele>
        <time>2022-12-08T13:37:35Z</time>
      </trkpt>
      <trkpt lat="48.04946" lon="-3.66123">
        <ele>162.5</ele>
        <time>2022-12-08T13:37:36Z</time>
      </trkpt>
      <trkpt lat="48.0494" lon="-3.66131">
        <ele>162.5</ele>
        <time>2022-12-08T13:37:37Z</time>
      </trkpt>
      <trkpt lat="48.04935" lon="-3.66138">
        <ele>162.5</ele>
        <time>2022-12-08T13:37:38Z</time>
      </trkpt>
      <trkpt lat="48.04929" lon="-3.66146">
        <ele>162.4</ele>
        <time>2022-12-08T13:37:39Z</time>
      </trkpt>
      <trkpt lat="48.04924" lon="-3.66153">
        <ele>162.4</ele>
        <time>2022-12-08T13:37:40Z</time>
      </trkpt>
      <trkpt lat="48.04919" lon="-3.6616">
        <ele>162.4</ele>
        <time>2022-12-08T13:37:41Z</time>
      </trkpt>
      <trkpt lat="48.04913" lon="-3.66168">
        <ele>162.3</ele>
        <time>2022-12-08T13:37:42Z</time>
      </trkpt>
      <trkpt lat="48.04908" lon="-3.66176">
        <ele>162.3</ele>
        <time>2022-12-08T13:37:43Z</time>
      </trkpt>
      <trkpt lat="48.04903" lon="-3.66184">
        <ele>162.2</ele>
        <time>2022-12-08T13:37:44Z</time>
      </trkpt>
      <trkpt lat="48.04897" lon="-3.66192">
        <ele>162.2</ele>
        <time>2022-12-08T13:37:45Z</time>
      </trkpt>
      <trkpt lat="48.04892" lon="-3.662">
        <ele>162.2</ele>
        <time>2022-12-08T13:37:46Z</time>
      </trkpt>
      <trkpt lat="48.04886" lon="-3.66207">
        <ele>162.2</ele>
        <time>2022-12-08T13:37:47Z</time>
      </trkpt>
      <trkpt lat="48.04881" lon="-3.66215">
        <ele>162.1</ele>
        <time>2022-12-08T13:37:48Z</time>
      </trkpt>
      <trkpt lat="48.04876" lon="-3.66223">
        <ele>162.1</ele>
        <time>2022-12-08T13:37:49Z</time>
      </trkpt>
      <trkpt lat="48.04871" lon="-3.6623">
        <ele>162.1</ele>
        <time>2022-12-08T13:37:50Z</time>
      </trkpt>
      <trkpt lat="48.04866" lon="-3.66238">
        <ele>162.1</ele>
        <time>2022-12-08T13:37:51Z</time>
      </trkpt>
      <trkpt lat="48.04862" lon="-3.66246">
        <ele>162.1</ele>
        <time>2022-12-08T13:37:52Z</time>
      </trkpt>
      <trkpt lat="48.04857" lon="-3.66253">
        <ele>162.1</ele>
        <time>2022-12-08T13:37:53Z</time>
      </trkpt>
      <trkpt lat="48.04851" lon="-3.6626">
        <ele>162.1</ele>
        <time>2022-12-08T13:37:54Z</time>
      </trkpt>
      <trkpt lat="48.04846" lon="-3.66268">
        <ele>162.1</ele>
        <time>2022-12-08T13:37:55Z</time>
      </trkpt>
      <trkpt lat="48.04842" lon="-3.66274">
        <ele>162.1</ele>
        <time>2022-12-08T13:37:56Z</time>
      </trkpt>
      <trkpt lat="48.04837" lon="-3.66281">
        <ele>162</ele>
        <time>2022-12-08T13:37:57Z</time>
      </trkpt>
      <trkpt lat="48.04832" lon="-3.66289">
        <ele>162</ele>
        <time>2022-12-08T13:37:58Z</time>
      </trkpt>
      <trkpt lat="48.04827" lon="-3.66296">
        <ele>162</ele>
        <time>2022-12-08T13:37:59Z</time>
      </trkpt>
      <trkpt lat="48.04822" lon="-3.66304">
        <ele>162</ele>
        <time>2022-12-08T13:38:00Z</time>
      </trkpt>
      <trkpt lat="48.04817" lon="-3.66312">
        <ele>162</ele>
        <time>2022-12-08T13:38:01Z</time>
      </trkpt>
      <trkpt lat="48.04812" lon="-3.66319">
        <ele>161.9</ele>
        <time>2022-12-08T13:38:02Z</time>
      </trkpt>
      <trkpt lat="48.04807" lon="-3.66325">
        <ele>161.8</ele>
        <time>2022-12-08T13:38:03Z</time>
      </trkpt>
      <trkpt lat="48.04803" lon="-3.66332">
        <ele>161.7</ele>
        <time>2022-12-08T13:38:04Z</time>
      </trkpt>
      <trkpt lat="48.04798" lon="-3.66339">
        <ele>161.6</ele>
        <time>2022-12-08T13:38:05Z</time>
      </trkpt>
      <trkpt lat="48.04792" lon="-3.66347">
        <ele>161.5</ele>
        <time>2022-12-08T13:38:06Z</time>
      </trkpt>
      <trkpt lat="48.04788" lon="-3.66355">
        <ele>161.4</ele>
        <time>2022-12-08T13:38:07Z</time>
      </trkpt>
      <trkpt lat="48.04783" lon="-3.66362">
        <ele>161.3</ele>
        <time>2022-12-08T13:38:08Z</time>
      </trkpt>
      <trkpt lat="48.04777" lon="-3.66369">
        <ele>161.1</ele>
        <time>2022-12-08T13:38:09Z</time>
      </trkpt>
      <trkpt lat="48.04772" lon="-3.66376">
        <ele>161</ele>
        <time>2022-12-08T13:38:10Z</time>
      </trkpt>
      <trkpt lat="48.04766" lon="-3.66384">
        <ele>160.9</ele>
        <time>2022-12-08T13:38:11Z</time>
      </trkpt>
      <trkpt lat="48.04761" lon="-3.66392">
        <ele>160.7</ele>
        <time>2022-12-08T13:38:12Z</time>
      </trkpt>
      <trkpt lat="48.04755" lon="-3.66399">
        <ele>160.6</ele>
        <time>2022-12-08T13:38:13Z</time>
      </trkpt>
      <trkpt lat="48.04749" lon="-3.66407">
        <ele>160.5</ele>
        <time>2022-12-08T13:38:14Z</time>
      </trkpt>
      <trkpt lat="48.04743" lon="-3.66414">
        <ele>160.3</ele>
        <time>2022-12-08T13:38:15Z</time>
      </trkpt>
      <trkpt lat="48.04738" lon="-3.66421">
        <ele>160.2</ele>
        <time>2022-12-08T13:38:16Z</time>
      </trkpt>
      <trkpt lat="48.04732" lon="-3.66429">
        <ele>160</ele>
        <time>2022-12-08T13:38:17Z</time>
      </trkpt>
      <trkpt lat="48.04727" lon="-3.66436">
        <ele>159.9</ele>
        <time>2022-12-08T13:38:18Z</time>
      </trkpt>
      <trkpt lat="48.04722" lon="-3.66444">
        <ele>159.7</ele>
        <time>2022-12-08T13:38:19Z</time>
      </trkpt>
      <trkpt lat="48.04716" lon="-3.66451">
        <ele>159.6</ele>
        <time>2022-12-08T13:38:20Z</time>
      </trkpt>
      <trkpt lat="48.04712" lon="-3.66458">
        <ele>159.4</ele>
        <time>2022-12-08T13:38:21Z</time>
      </trkpt>
      <trkpt lat="48.04707" lon="-3.66466">
        <ele>159.3</ele>
        <time>2022-12-08T13:38:22Z</time>
      </trkpt>
      <trkpt lat="48.04701" lon="-3.66474">
        <ele>159.1</ele>
        <time>2022-12-08T13:38:23Z</time>
      </trkpt>
      <trkpt lat="48.04695" lon="-3.66481">
        <ele>159</ele>
        <time>2022-12-08T13:38:24Z</time>
      </trkpt>
      <trkpt lat="48.0469" lon="-3.6649">
        <ele>158.8</ele>
        <time>2022-12-08T13:38:25Z</time>
      </trkpt>
      <trkpt lat="48.04684" lon="-3.66498">
        <ele>158.7</ele>
        <time>2022-12-08T13:38:26Z</time>
      </trkpt>
      <trkpt lat="48.04679" lon="-3.66506">
        <ele>158.6</ele>
        <time>2022-12-08T13:38:27Z</time>
      </trkpt>
      <trkpt lat="48.04673" lon="-3.66515">
        <ele>158.4</ele>
        <time>2022-12-08T13:38:28Z</time>
      </trkpt>
      <trkpt lat="48.04667" lon="-3.66523">
        <ele>158.3</ele>
        <time>2022-12-08T13:38:29Z</time>
      </trkpt>
      <trkpt lat="48.04661" lon="-3.66531">
        <ele>158.2</ele>
        <time>2022-12-08T13:38:30Z</time>
      </trkpt>
      <trkpt lat="48.04656" lon="-3.66539">
        <ele>158.1</ele>
        <time>2022-12-08T13:38:31Z</time>
      </trkpt>
      <trkpt lat="48.04651" lon="-3.66546">
        <ele>157.9</ele>
        <time>2022-12-08T13:38:32Z</time>
      </trkpt>
      <trkpt lat="48.04646" lon="-3.66555">
        <ele>157.8</ele>
        <time>2022-12-08T13:38:33Z</time>
      </trkpt>
      <trkpt lat="48.04641" lon="-3.66563">
        <ele>157.7</ele>
        <time>2022-12-08T13:38:34Z</time>
      </trkpt>
      <trkpt lat="48.04635" lon="-3.6657">
        <ele>157.6</ele>
        <time>2022-12-08T13:38:35Z</time>
      </trkpt>
      <trkpt lat="48.0463" lon="-3.66578">
        <ele>157.5</ele>
        <time>2022-12-08T13:38:36Z</time>
      </trkpt>
      <trkpt lat="48.04624" lon="-3.66586">
        <ele>157.3</ele>
        <time>2022-12-08T13:38:37Z</time>
      </trkpt>
      <trkpt lat="48.04619" lon="-3.66593">
        <ele>157.2</ele>
        <time>2022-12-08T13:38:38Z</time>
      </trkpt>
      <trkpt lat="48.04614" lon="-3.66601">
        <ele>157.1</ele>
        <time>2022-12-08T13:38:39Z</time>
      </trkpt>
      <trkpt lat="48.04609" lon="-3.66608">
        <ele>157</ele>
        <time>2022-12-08T13:38:40Z</time>
      </trkpt>
      <trkpt lat="48.04603" lon="-3.66616">
        <ele>156.8</ele>
        <time>2022-12-08T13:38:41Z</time>
      </trkpt>
      <trkpt lat="48.04598" lon="-3.66624">
        <ele>156.7</ele>
        <time>2022-12-08T13:38:42Z</time>
      </trkpt>
      <trkpt lat="48.04592" lon="-3.66632">
        <ele>156.6</ele>
        <time>2022-12-08T13:38:43Z</time>
      </trkpt>
      <trkpt lat="48.04586" lon="-3.66641">
        <ele>156.5</ele>
        <time>2022-12-08T13:38:44Z</time>
      </trkpt>
      <trkpt lat="48.0458" lon="-3.66649">
        <ele>156.4</ele>
        <time>2022-12-08T13:38:45Z</time>
      </trkpt>
      <trkpt lat="48.04574" lon="-3.66657">
        <ele>156.3</ele>
        <time>2022-12-08T13:38:46Z</time>
      </trkpt>
      <trkpt lat="48.04569" lon="-3.66665">
        <ele>156.2</ele>
        <time>2022-12-08T13:38:47Z</time>
      </trkpt>
      <trkpt lat="48.04565" lon="-3.66672">
        <ele>156.2</ele>
        <time>2022-12-08T13:38:48Z</time>
      </trkpt>
      <trkpt lat="48.0456" lon="-3.6668">
        <ele>156.1</ele>
        <time>2022-12-08T13:38:49Z</time>
      </trkpt>
      <trkpt lat="48.04555" lon="-3.66687">
        <ele>156.1</ele>
        <time>2022-12-08T13:38:50Z</time>
      </trkpt>
      <trkpt lat="48.04551" lon="-3.66694">
        <ele>156.1</ele>
        <time>2022-12-08T13:38:51Z</time>
      </trkpt>
      <trkpt lat="48.04546" lon="-3.66701">
        <ele>156</ele>
        <time>2022-12-08T13:38:52Z</time>
      </trkpt>
      <trkpt lat="48.04541" lon="-3.66708">
        <ele>156</ele>
        <time>2022-12-08T13:38:53Z</time>
      </trkpt>
      <trkpt lat="48.04536" lon="-3.66716">
        <ele>155.9</ele>
        <time>2022-12-08T13:38:54Z</time>
      </trkpt>
      <trkpt lat="48.04532" lon="-3.66723">
        <ele>155.9</ele>
        <time>2022-12-08T13:38:55Z</time>
      </trkpt>
      <trkpt lat="48.04527" lon="-3.66729">
        <ele>155.8</ele>
        <time>2022-12-08T13:38:56Z</time>
      </trkpt>
      <trkpt lat="48.04523" lon="-3.66736">
        <ele>155.8</ele>
        <time>2022-12-08T13:38:57Z</time>
      </trkpt>
      <trkpt lat="48.04518" lon="-3.66742">
        <ele>155.7</ele>
        <time>2022-12-08T13:38:58Z</time>
      </trkpt>
      <trkpt lat="48.04514" lon="-3.66747">
        <ele>155.7</ele>
        <time>2022-12-08T13:38:59Z</time>
      </trkpt>
      <trkpt lat="48.04509" lon="-3.66754">
        <ele>155.6</ele>
        <time>2022-12-08T13:39:00Z</time>
      </trkpt>
      <trkpt lat="48.04505" lon="-3.6676">
        <ele>155.6</ele>
        <time>2022-12-08T13:39:01Z</time>
      </trkpt>
      <trkpt lat="48.045" lon="-3.66767">
        <ele>155.5</ele>
        <time>2022-12-08T13:39:02Z</time>
      </trkpt>
      <trkpt lat="48.04495" lon="-3.66774">
        <ele>155.5</ele>
        <time>2022-12-08T13:39:03Z</time>
      </trkpt>
      <trkpt lat="48.0449" lon="-3.66781">
        <ele>155.4</ele>
        <time>2022-12-08T13:39:04Z</time>
      </trkpt>
      <trkpt lat="48.04485" lon="-3.66788">
        <ele>155.4</ele>
        <time>2022-12-08T13:39:05Z</time>
      </trkpt>
      <trkpt lat="48.0448" lon="-3.66796">
        <ele>155.3</ele>
        <time>2022-12-08T13:39:06Z</time>
      </trkpt>
      <trkpt lat="48.04476" lon="-3.66803">
        <ele>155.3</ele>
        <time>2022-12-08T13:39:07Z</time>
      </trkpt>
      <trkpt lat="48.04471" lon="-3.6681">
        <ele>155.2</ele>
        <time>2022-12-08T13:39:08Z</time>
      </trkpt>
      <trkpt lat="48.04465" lon="-3.66817">
        <ele>155.2</ele>
        <time>2022-12-08T13:39:09Z</time>
      </trkpt>
      <trkpt lat="48.0446" lon="-3.66823">
        <ele>155.1</ele>
        <time>2022-12-08T13:39:10Z</time>
      </trkpt>
      <trkpt lat="48.04456" lon="-3.6683">
        <ele>155.1</ele>
        <time>2022-12-08T13:39:11Z</time>
      </trkpt>
      <trkpt lat="48.04451" lon="-3.66836">
        <ele>155</ele>
        <time>2022-12-08T13:39:12Z</time>
      </trkpt>
      <trkpt lat="48.04446" lon="-3.66842">
        <ele>155</ele>
        <time>2022-12-08T13:39:13Z</time>
      </trkpt>
      <trkpt lat="48.04441" lon="-3.66849">
        <ele>154.9</ele>
        <time>2022-12-08T13:39:14Z</time>
      </trkpt>
      <trkpt lat="48.04436" lon="-3.66856">
        <ele>154.9</ele>
        <time>2022-12-08T13:39:15Z</time>
      </trkpt>
      <trkpt lat="48.04431" lon="-3.66862">
        <ele>154.9</ele>
        <time>2022-12-08T13:39:16Z</time>
      </trkpt>
      <trkpt lat="48.04426" lon="-3.6687">
        <ele>154.8</ele>
        <time>2022-12-08T13:39:17Z</time>
      </trkpt>
      <trkpt lat="48.04422" lon="-3.66877">
        <ele>154.8</ele>
        <time>2022-12-08T13:39:18Z</time>
      </trkpt>
      <trkpt lat="48.04417" lon="-3.66885">
        <ele>154.7</ele>
        <time>2022-12-08T13:39:19Z</time>
      </trkpt>
      <trkpt lat="48.04412" lon="-3.66891">
        <ele>154.7</ele>
        <time>2022-12-08T13:39:20Z</time>
      </trkpt>
      <trkpt lat="48.04406" lon="-3.669">
        <ele>154.6</ele>
        <time>2022-12-08T13:39:21Z</time>
      </trkpt>
      <trkpt lat="48.04401" lon="-3.66907">
        <ele>154.6</ele>
        <time>2022-12-08T13:39:22Z</time>
      </trkpt>
      <trkpt lat="48.04396" lon="-3.66915">
        <ele>154.5</ele>
        <time>2022-12-08T13:39:23Z</time>
      </trkpt>
      <trkpt lat="48.04391" lon="-3.66921">
        <ele>154.5</ele>
        <time>2022-12-08T13:39:24Z</time>
      </trkpt>
      <trkpt lat="48.04386" lon="-3.66927">
        <ele>154.4</ele>
        <time>2022-12-08T13:39:25Z</time>
      </trkpt>
      <trkpt lat="48.04382" lon="-3.66934">
        <ele>154.4</ele>
        <time>2022-12-08T13:39:26Z</time>
      </trkpt>
      <trkpt lat="48.04377" lon="-3.66941">
        <ele>154.4</ele>
        <time>2022-12-08T13:39:27Z</time>
      </trkpt>
      <trkpt lat="48.04373" lon="-3.66947">
        <ele>154.4</ele>
        <time>2022-12-08T13:39:28Z</time>
      </trkpt>
      <trkpt lat="48.04369" lon="-3.66953">
        <ele>154.3</ele>
        <time>2022-12-08T13:39:29Z</time>
      </trkpt>
      <trkpt lat="48.04364" lon="-3.66962">
        <ele>154.3</ele>
        <time>2022-12-08T13:39:30Z</time>
      </trkpt>
      <trkpt lat="48.04358" lon="-3.66969">
        <ele>154.2</ele>
        <time>2022-12-08T13:39:31Z</time>
      </trkpt>
      <trkpt lat="48.04354" lon="-3.66978">
        <ele>154.2</ele>
        <time>2022-12-08T13:39:32Z</time>
      </trkpt>
      <trkpt lat="48.04349" lon="-3.66985">
        <ele>154.2</ele>
        <time>2022-12-08T13:39:33Z</time>
      </trkpt>
      <trkpt lat="48.04345" lon="-3.66992">
        <ele>154.1</ele>
        <time>2022-12-08T13:39:34Z</time>
      </trkpt>
      <trkpt lat="48.0434" lon="-3.66998">
        <ele>154.1</ele>
        <time>2022-12-08T13:39:35Z</time>
      </trkpt>
      <trkpt lat="48.04335" lon="-3.67005">
        <ele>154</ele>
        <time>2022-12-08T13:39:36Z</time>
      </trkpt>
      <trkpt lat="48.0433" lon="-3.67013">
        <ele>154</ele>
        <time>2022-12-08T13:39:37Z</time>
      </trkpt>
      <trkpt lat="48.04325" lon="-3.6702">
        <ele>154</ele>
        <time>2022-12-08T13:39:38Z</time>
      </trkpt>
      <trkpt lat="48.0432" lon="-3.67027">
        <ele>154</ele>
        <time>2022-12-08T13:39:39Z</time>
      </trkpt>
      <trkpt lat="48.04315" lon="-3.67034">
        <ele>154</ele>
        <time>2022-12-08T13:39:40Z</time>
      </trkpt>
      <trkpt lat="48.0431" lon="-3.6704">
        <ele>153.9</ele>
        <time>2022-12-08T13:39:41Z</time>
      </trkpt>
      <trkpt lat="48.04305" lon="-3.67047">
        <ele>153.9</ele>
        <time>2022-12-08T13:39:42Z</time>
      </trkpt>
      <trkpt lat="48.043" lon="-3.67054">
        <ele>153.9</ele>
        <time>2022-12-08T13:39:43Z</time>
      </trkpt>
      <trkpt lat="48.04296" lon="-3.6706">
        <ele>153.9</ele>
        <time>2022-12-08T13:39:44Z</time>
      </trkpt>
      <trkpt lat="48.04291" lon="-3.67067">
        <ele>153.8</ele>
        <time>2022-12-08T13:39:45Z</time>
      </trkpt>
      <trkpt lat="48.04287" lon="-3.67073">
        <ele>153.8</ele>
        <time>2022-12-08T13:39:46Z</time>
      </trkpt>
      <trkpt lat="48.04282" lon="-3.6708">
        <ele>153.8</ele>
        <time>2022-12-08T13:39:47Z</time>
      </trkpt>
      <trkpt lat="48.04277" lon="-3.67086">
        <ele>153.8</ele>
        <time>2022-12-08T13:39:48Z</time>
      </trkpt>
      <trkpt lat="48.04273" lon="-3.67093">
        <ele>153.8</ele>
        <time>2022-12-08T13:39:49Z</time>
      </trkpt>
      <trkpt lat="48.04269" lon="-3.67099">
        <ele>153.8</ele>
        <time>2022-12-08T13:39:50Z</time>
      </trkpt>
      <trkpt lat="48.04264" lon="-3.67105">
        <ele>153.8</ele>
        <time>2022-12-08T13:39:51Z</time>
      </trkpt>
      <trkpt lat="48.0426" lon="-3.67111">
        <ele>153.9</ele>
        <time>2022-12-08T13:39:52Z</time>
      </trkpt>
      <trkpt lat="48.04256" lon="-3.67117">
        <ele>154</ele>
        <time>2022-12-08T13:39:53Z</time>
      </trkpt>
      <trkpt lat="48.04252" lon="-3.67123">
        <ele>154.1</ele>
        <time>2022-12-08T13:39:54Z</time>
      </trkpt>
      <trkpt lat="48.04249" lon="-3.6713">
        <ele>154.2</ele>
        <time>2022-12-08T13:39:55Z</time>
      </trkpt>
      <trkpt lat="48.04244" lon="-3.67137">
        <ele>154.3</ele>
        <time>2022-12-08T13:39:56Z</time>
      </trkpt>
      <trkpt lat="48.0424" lon="-3.67143">
        <ele>154.4</ele>
        <time>2022-12-08T13:39:57Z</time>
      </trkpt>
      <trkpt lat="48.04236" lon="-3.67149">
        <ele>154.5</ele>
        <time>2022-12-08T13:39:58Z</time>
      </trkpt>
      <trkpt lat="48.04231" lon="-3.67155">
        <ele>154.6</ele>
        <time>2022-12-08T13:39:59Z</time>
      </trkpt>
      <trkpt lat="48.04227" lon="-3.67161">
        <ele>154.7</ele>
        <time>2022-12-08T13:40:00Z</time>
      </trkpt>
      <trkpt lat="48.04222" lon="-3.67167">
        <ele>154.7</ele>
        <time>2022-12-08T13:40:01Z</time>
      </trkpt>
      <trkpt lat="48.04218" lon="-3.67173">
        <ele>154.8</ele>
        <time>2022-12-08T13:40:02Z</time>
      </trkpt>
      <trkpt lat="48.04215" lon="-3.67178">
        <ele>154.9</ele>
        <time>2022-12-08T13:40:03Z</time>
      </trkpt>
      <trkpt lat="48.04211" lon="-3.67184">
        <ele>155</ele>
        <time>2022-12-08T13:40:04Z</time>
      </trkpt>
      <trkpt lat="48.04207" lon="-3.6719">
        <ele>155.1</ele>
        <time>2022-12-08T13:40:05Z</time>
      </trkpt>
      <trkpt lat="48.04203" lon="-3.67196">
        <ele>155.2</ele>
        <time>2022-12-08T13:40:06Z</time>
      </trkpt>
      <trkpt lat="48.042" lon="-3.67201">
        <ele>155.3</ele>
        <time>2022-12-08T13:40:07Z</time>
      </trkpt>
      <trkpt lat="48.04196" lon="-3.67207">
        <ele>155.4</ele>
        <time>2022-12-08T13:40:08Z</time>
      </trkpt>
      <trkpt lat="48.04192" lon="-3.67213">
        <ele>155.4</ele>
        <time>2022-12-08T13:40:09Z</time>
      </trkpt>
      <trkpt lat="48.04188" lon="-3.67218">
        <ele>155.5</ele>
        <time>2022-12-08T13:40:10Z</time>
      </trkpt>
      <trkpt lat="48.04184" lon="-3.67224">
        <ele>155.6</ele>
        <time>2022-12-08T13:40:11Z</time>
      </trkpt>
      <trkpt lat="48.0418" lon="-3.6723">
        <ele>155.6</ele>
        <time>2022-12-08T13:40:12Z</time>
      </trkpt>
      <trkpt lat="48.04176" lon="-3.67235">
        <ele>155.7</ele>
        <time>2022-12-08T13:40:13Z</time>
      </trkpt>
      <trkpt lat="48.04172" lon="-3.67241">
        <ele>155.8</ele>
        <time>2022-12-08T13:40:14Z</time>
      </trkpt>
      <trkpt lat="48.04168" lon="-3.67246">
        <ele>155.8</ele>
        <time>2022-12-08T13:40:15Z</time>
      </trkpt>
      <trkpt lat="48.04165" lon="-3.67252">
        <ele>155.9</ele>
        <time>2022-12-08T13:40:16Z</time>
      </trkpt>
      <trkpt lat="48.04162" lon="-3.67257">
        <ele>156</ele>
        <time>2022-12-08T13:40:17Z</time>
      </trkpt>
      <trkpt lat="48.04158" lon="-3.67263">
        <ele>156</ele>
        <time>2022-12-08T13:40:18Z</time>
      </trkpt>
      <trkpt lat="48.04154" lon="-3.67269">
        <ele>156.1</ele>
        <time>2022-12-08T13:40:19Z</time>
      </trkpt>
      <trkpt lat="48.0415" lon="-3.67274">
        <ele>156.2</ele>
        <time>2022-12-08T13:40:20Z</time>
      </trkpt>
      <trkpt lat="48.04146" lon="-3.6728">
        <ele>156.3</ele>
        <time>2022-12-08T13:40:21Z</time>
      </trkpt>
      <trkpt lat="48.04142" lon="-3.67286">
        <ele>156.3</ele>
        <time>2022-12-08T13:40:22Z</time>
      </trkpt>
      <trkpt lat="48.04139" lon="-3.67291">
        <ele>156.4</ele>
        <time>2022-12-08T13:40:23Z</time>
      </trkpt>
      <trkpt lat="48.04135" lon="-3.67296">
        <ele>156.5</ele>
        <time>2022-12-08T13:40:24Z</time>
      </trkpt>
      <trkpt lat="48.0413" lon="-3.67302">
        <ele>156.6</ele>
        <time>2022-12-08T13:40:25Z</time>
      </trkpt>
      <trkpt lat="48.04126" lon="-3.67307">
        <ele>156.7</ele>
        <time>2022-12-08T13:40:26Z</time>
      </trkpt>
      <trkpt lat="48.04122" lon="-3.67312">
        <ele>156.8</ele>
        <time>2022-12-08T13:40:27Z</time>
      </trkpt>
      <trkpt lat="48.04119" lon="-3.67317">
        <ele>156.8</ele>
        <time>2022-12-08T13:40:28Z</time>
      </trkpt>
      <trkpt lat="48.04115" lon="-3.67322">
        <ele>156.9</ele>
        <time>2022-12-08T13:40:29Z</time>
      </trkpt>
      <trkpt lat="48.04111" lon="-3.67328">
        <ele>157</ele>
        <time>2022-12-08T13:40:30Z</time>
      </trkpt>
      <trkpt lat="48.04107" lon="-3.67334">
        <ele>157.1</ele>
        <time>2022-12-08T13:40:31Z</time>
      </trkpt>
      <trkpt lat="48.04103" lon="-3.6734">
        <ele>157.2</ele>
        <time>2022-12-08T13:40:32Z</time>
      </trkpt>
      <trkpt lat="48.041" lon="-3.67346">
        <ele>157.2</ele>
        <time>2022-12-08T13:40:33Z</time>
      </trkpt>
      <trkpt lat="48.04096" lon="-3.67352">
        <ele>157.3</ele>
        <time>2022-12-08T13:40:34Z</time>
      </trkpt>
      <trkpt lat="48.04092" lon="-3.67356">
        <ele>157.4</ele>
        <time>2022-12-08T13:40:35Z</time>
      </trkpt>
      <trkpt lat="48.04089" lon="-3.67361">
        <ele>157.5</ele>
        <time>2022-12-08T13:40:36Z</time>
      </trkpt>
      <trkpt lat="48.04085" lon="-3.67366">
        <ele>157.6</ele>
        <time>2022-12-08T13:40:37Z</time>
      </trkpt>
      <trkpt lat="48.04081" lon="-3.67371">
        <ele>157.6</ele>
        <time>2022-12-08T13:40:38Z</time>
      </trkpt>
      <trkpt lat="48.04078" lon="-3.67377">
        <ele>157.7</ele>
        <time>2022-12-08T13:40:39Z</time>
      </trkpt>
      <trkpt lat="48.04074" lon="-3.67383">
        <ele>157.8</ele>
        <time>2022-12-08T13:40:40Z</time>
      </trkpt>
      <trkpt lat="48.04071" lon="-3.67387">
        <ele>157.8</ele>
        <time>2022-12-08T13:40:41Z</time>
      </trkpt>
      <trkpt lat="48.04068" lon="-3.67391">
        <ele>157.9</ele>
        <time>2022-12-08T13:40:42Z</time>
      </trkpt>
      <trkpt lat="48.04064" lon="-3.67398">
        <ele>157.9</ele>
        <time>2022-12-08T13:40:43Z</time>
      </trkpt>
      <trkpt lat="48.04061" lon="-3.67404">
        <ele>158</ele>
        <time>2022-12-08T13:40:44Z</time>
      </trkpt>
      <trkpt lat="48.04057" lon="-3.67408">
        <ele>158</ele>
        <time>2022-12-08T13:40:45Z</time>
      </trkpt>
      <trkpt lat="48.04053" lon="-3.67413">
        <ele>158</ele>
        <time>2022-12-08T13:40:46Z</time>
      </trkpt>
      <trkpt lat="48.0405" lon="-3.67418">
        <ele>158.1</ele>
        <time>2022-12-08T13:40:47Z</time>
      </trkpt>
      <trkpt lat="48.04047" lon="-3.67424">
        <ele>158.2</ele>
        <time>2022-12-08T13:40:48Z</time>
      </trkpt>
      <trkpt lat="48.04042" lon="-3.6743">
        <ele>158.2</ele>
        <time>2022-12-08T13:40:49Z</time>
      </trkpt>
      <trkpt lat="48.04038" lon="-3.67435">
        <ele>158.3</ele>
        <time>2022-12-08T13:40:50Z</time>
      </trkpt>
      <trkpt lat="48.04033" lon="-3.67441">
        <ele>158.4</ele>
        <time>2022-12-08T13:40:51Z</time>
      </trkpt>
      <trkpt lat="48.0403" lon="-3.67447">
        <ele>158.5</ele>
        <time>2022-12-08T13:40:52Z</time>
      </trkpt>
      <trkpt lat="48.04027" lon="-3.67452">
        <ele>158.5</ele>
        <time>2022-12-08T13:40:53Z</time>
      </trkpt>
      <trkpt lat="48.04023" lon="-3.67457">
        <ele>158.6</ele>
        <time>2022-12-08T13:40:54Z</time>
      </trkpt>
      <trkpt lat="48.0402" lon="-3.6746">
        <ele>158.6</ele>
        <time>2022-12-08T13:40:55Z</time>
      </trkpt>
      <trkpt lat="48.04016" lon="-3.67466">
        <ele>158.7</ele>
        <time>2022-12-08T13:40:56Z</time>
      </trkpt>
      <trkpt lat="48.04011" lon="-3.67473">
        <ele>158.8</ele>
        <time>2022-12-08T13:40:57Z</time>
      </trkpt>
      <trkpt lat="48.04008" lon="-3.67479">
        <ele>158.9</ele>
        <time>2022-12-08T13:40:58Z</time>
      </trkpt>
      <trkpt lat="48.04005" lon="-3.67484">
        <ele>159</ele>
        <time>2022-12-08T13:40:59Z</time>
      </trkpt>
      <trkpt lat="48.04" lon="-3.67489">
        <ele>159</ele>
        <time>2022-12-08T13:41:00Z</time>
      </trkpt>
      <trkpt lat="48.03997" lon="-3.67493">
        <ele>159.1</ele>
        <time>2022-12-08T13:41:01Z</time>
      </trkpt>
      <trkpt lat="48.03992" lon="-3.67502">
        <ele>159.2</ele>
        <time>2022-12-08T13:41:03Z</time>
      </trkpt>
      <trkpt lat="48.03988" lon="-3.67508">
        <ele>159.3</ele>
        <time>2022-12-08T13:41:04Z</time>
      </trkpt>
      <trkpt lat="48.03984" lon="-3.67511">
        <ele>159.4</ele>
        <time>2022-12-08T13:41:06Z</time>
      </trkpt>
      <trkpt lat="48.03979" lon="-3.67518">
        <ele>159.5</ele>
        <time>2022-12-08T13:41:07Z</time>
      </trkpt>
      <trkpt lat="48.03974" lon="-3.67526">
        <ele>159.6</ele>
        <time>2022-12-08T13:41:08Z</time>
      </trkpt>
      <trkpt lat="48.03971" lon="-3.67532">
        <ele>159.7</ele>
        <time>2022-12-08T13:41:09Z</time>
      </trkpt>
      <trkpt lat="48.03969" lon="-3.67538">
        <ele>159.7</ele>
        <time>2022-12-08T13:41:10Z</time>
      </trkpt>
      <trkpt lat="48.03965" lon="-3.67544">
        <ele>159.8</ele>
        <time>2022-12-08T13:41:11Z</time>
      </trkpt>
      <trkpt lat="48.03961" lon="-3.6755">
        <ele>159.8</ele>
        <time>2022-12-08T13:41:12Z</time>
      </trkpt>
      <trkpt lat="48.03957" lon="-3.67555">
        <ele>159.9</ele>
        <time>2022-12-08T13:41:13Z</time>
      </trkpt>
      <trkpt lat="48.03954" lon="-3.67559">
        <ele>159.9</ele>
        <time>2022-12-08T13:41:14Z</time>
      </trkpt>
      <trkpt lat="48.03949" lon="-3.67564">
        <ele>160</ele>
        <time>2022-12-08T13:41:15Z</time>
      </trkpt>
      <trkpt lat="48.03946" lon="-3.67569">
        <ele>160</ele>
        <time>2022-12-08T13:41:16Z</time>
      </trkpt>
      <trkpt lat="48.03942" lon="-3.67574">
        <ele>160.1</ele>
        <time>2022-12-08T13:41:17Z</time>
      </trkpt>
      <trkpt lat="48.03938" lon="-3.67579">
        <ele>160.2</ele>
        <time>2022-12-08T13:41:18Z</time>
      </trkpt>
      <trkpt lat="48.03933" lon="-3.67585">
        <ele>160.2</ele>
        <time>2022-12-08T13:41:19Z</time>
      </trkpt>
      <trkpt lat="48.0393" lon="-3.67591">
        <ele>160.3</ele>
        <time>2022-12-08T13:41:20Z</time>
      </trkpt>
      <trkpt lat="48.03926" lon="-3.67597">
        <ele>160.4</ele>
        <time>2022-12-08T13:41:21Z</time>
      </trkpt>
      <trkpt lat="48.03923" lon="-3.67603">
        <ele>160.4</ele>
        <time>2022-12-08T13:41:22Z</time>
      </trkpt>
      <trkpt lat="48.03919" lon="-3.67608">
        <ele>160.5</ele>
        <time>2022-12-08T13:41:23Z</time>
      </trkpt>
      <trkpt lat="48.03915" lon="-3.67613">
        <ele>160.5</ele>
        <time>2022-12-08T13:41:24Z</time>
      </trkpt>
      <trkpt lat="48.03911" lon="-3.67617">
        <ele>160.6</ele>
        <time>2022-12-08T13:41:25Z</time>
      </trkpt>
      <trkpt lat="48.03907" lon="-3.67622">
        <ele>160.7</ele>
        <time>2022-12-08T13:41:26Z</time>
      </trkpt>
      <trkpt lat="48.03903" lon="-3.67627">
        <ele>160.7</ele>
        <time>2022-12-08T13:41:27Z</time>
      </trkpt>
      <trkpt lat="48.03899" lon="-3.67633">
        <ele>160.8</ele>
        <time>2022-12-08T13:41:28Z</time>
      </trkpt>
      <trkpt lat="48.03896" lon="-3.67638">
        <ele>160.9</ele>
        <time>2022-12-08T13:41:29Z</time>
      </trkpt>
      <trkpt lat="48.03892" lon="-3.67644">
        <ele>161</ele>
        <time>2022-12-08T13:41:30Z</time>
      </trkpt>
      <trkpt lat="48.03889" lon="-3.67649">
        <ele>161.1</ele>
        <time>2022-12-08T13:41:31Z</time>
      </trkpt>
      <trkpt lat="48.03887" lon="-3.67652">
        <ele>161.1</ele>
        <time>2022-12-08T13:41:32Z</time>
      </trkpt>
      <trkpt lat="48.03884" lon="-3.67657">
        <ele>161.2</ele>
        <time>2022-12-08T13:41:33Z</time>
      </trkpt>
      <trkpt lat="48.0388" lon="-3.67662">
        <ele>161.3</ele>
        <time>2022-12-08T13:41:34Z</time>
      </trkpt>
      <trkpt lat="48.03877" lon="-3.67668">
        <ele>161.4</ele>
        <time>2022-12-08T13:41:35Z</time>
      </trkpt>
      <trkpt lat="48.03874" lon="-3.67673">
        <ele>161.4</ele>
        <time>2022-12-08T13:41:36Z</time>
      </trkpt>
      <trkpt lat="48.0387" lon="-3.67679">
        <ele>161.5</ele>
        <time>2022-12-08T13:41:37Z</time>
      </trkpt>
      <trkpt lat="48.03866" lon="-3.67683">
        <ele>161.6</ele>
        <time>2022-12-08T13:41:38Z</time>
      </trkpt>
      <trkpt lat="48.03864" lon="-3.67687">
        <ele>161.6</ele>
        <time>2022-12-08T13:41:39Z</time>
      </trkpt>
      <trkpt lat="48.03862" lon="-3.67689">
        <ele>161.6</ele>
        <time>2022-12-08T13:41:40Z</time>
      </trkpt>
      <trkpt lat="48.03857" lon="-3.67696">
        <ele>161.7</ele>
        <time>2022-12-08T13:41:41Z</time>
      </trkpt>
      <trkpt lat="48.03854" lon="-3.67703">
        <ele>161.8</ele>
        <time>2022-12-08T13:41:42Z</time>
      </trkpt>
      <trkpt lat="48.03851" lon="-3.67709">
        <ele>161.9</ele>
        <time>2022-12-08T13:41:44Z</time>
      </trkpt>
      <trkpt lat="48.03844" lon="-3.67719">
        <ele>162</ele>
        <time>2022-12-08T13:41:45Z</time>
      </trkpt>
      <trkpt lat="48.0384" lon="-3.67724">
        <ele>162.1</ele>
        <time>2022-12-08T13:41:46Z</time>
      </trkpt>
      <trkpt lat="48.03836" lon="-3.67728">
        <ele>162.1</ele>
        <time>2022-12-08T13:41:47Z</time>
      </trkpt>
      <trkpt lat="48.03833" lon="-3.67733">
        <ele>162.2</ele>
        <time>2022-12-08T13:41:48Z</time>
      </trkpt>
      <trkpt lat="48.03831" lon="-3.67736">
        <ele>162.2</ele>
        <time>2022-12-08T13:41:49Z</time>
      </trkpt>
      <trkpt lat="48.03826" lon="-3.67743">
        <ele>162.3</ele>
        <time>2022-12-08T13:41:50Z</time>
      </trkpt>
      <trkpt lat="48.03822" lon="-3.67748">
        <ele>162.3</ele>
        <time>2022-12-08T13:41:51Z</time>
      </trkpt>
      <trkpt lat="48.03817" lon="-3.67754">
        <ele>162.4</ele>
        <time>2022-12-08T13:41:52Z</time>
      </trkpt>
      <trkpt lat="48.03814" lon="-3.67758">
        <ele>162.5</ele>
        <time>2022-12-08T13:41:53Z</time>
      </trkpt>
      <trkpt lat="48.03809" lon="-3.67765">
        <ele>162.5</ele>
        <time>2022-12-08T13:41:54Z</time>
      </trkpt>
      <trkpt lat="48.03806" lon="-3.67771">
        <ele>162.6</ele>
        <time>2022-12-08T13:41:55Z</time>
      </trkpt>
      <trkpt lat="48.03802" lon="-3.67777">
        <ele>162.6</ele>
        <time>2022-12-08T13:41:56Z</time>
      </trkpt>
      <trkpt lat="48.03799" lon="-3.67782">
        <ele>162.7</ele>
        <time>2022-12-08T13:41:57Z</time>
      </trkpt>
      <trkpt lat="48.03795" lon="-3.67787">
        <ele>162.7</ele>
        <time>2022-12-08T13:41:58Z</time>
      </trkpt>
      <trkpt lat="48.03792" lon="-3.67792">
        <ele>162.7</ele>
        <time>2022-12-08T13:41:59Z</time>
      </trkpt>
      <trkpt lat="48.03788" lon="-3.67797">
        <ele>162.8</ele>
        <time>2022-12-08T13:42:00Z</time>
      </trkpt>
      <trkpt lat="48.03783" lon="-3.67803">
        <ele>162.8</ele>
        <time>2022-12-08T13:42:01Z</time>
      </trkpt>
      <trkpt lat="48.0378" lon="-3.67807">
        <ele>162.9</ele>
        <time>2022-12-08T13:42:02Z</time>
      </trkpt>
      <trkpt lat="48.03776" lon="-3.67813">
        <ele>162.9</ele>
        <time>2022-12-08T13:42:03Z</time>
      </trkpt>
      <trkpt lat="48.03773" lon="-3.67819">
        <ele>162.9</ele>
        <time>2022-12-08T13:42:04Z</time>
      </trkpt>
      <trkpt lat="48.03769" lon="-3.67824">
        <ele>162.9</ele>
        <time>2022-12-08T13:42:05Z</time>
      </trkpt>
      <trkpt lat="48.03765" lon="-3.6783">
        <ele>163</ele>
        <time>2022-12-08T13:42:06Z</time>
      </trkpt>
      <trkpt lat="48.03761" lon="-3.67835">
        <ele>163</ele>
        <time>2022-12-08T13:42:07Z</time>
      </trkpt>
      <trkpt lat="48.03757" lon="-3.67841">
        <ele>163</ele>
        <time>2022-12-08T13:42:08Z</time>
      </trkpt>
      <trkpt lat="48.03753" lon="-3.67847">
        <ele>163</ele>
        <time>2022-12-08T13:42:09Z</time>
      </trkpt>
      <trkpt lat="48.03749" lon="-3.67852">
        <ele>163</ele>
        <time>2022-12-08T13:42:10Z</time>
      </trkpt>
      <trkpt lat="48.03745" lon="-3.67858">
        <ele>163</ele>
        <time>2022-12-08T13:42:11Z</time>
      </trkpt>
      <trkpt lat="48.03742" lon="-3.67863">
        <ele>163</ele>
        <time>2022-12-08T13:42:12Z</time>
      </trkpt>
      <trkpt lat="48.03737" lon="-3.67868">
        <ele>163</ele>
        <time>2022-12-08T13:42:13Z</time>
      </trkpt>
      <trkpt lat="48.03734" lon="-3.67874">
        <ele>163</ele>
        <time>2022-12-08T13:42:14Z</time>
      </trkpt>
      <trkpt lat="48.03729" lon="-3.6788">
        <ele>163</ele>
        <time>2022-12-08T13:42:15Z</time>
      </trkpt>
      <trkpt lat="48.03725" lon="-3.67885">
        <ele>163</ele>
        <time>2022-12-08T13:42:16Z</time>
      </trkpt>
      <trkpt lat="48.03722" lon="-3.67892">
        <ele>163</ele>
        <time>2022-12-08T13:42:17Z</time>
      </trkpt>
      <trkpt lat="48.03719" lon="-3.67896">
        <ele>163</ele>
        <time>2022-12-08T13:42:18Z</time>
      </trkpt>
      <trkpt lat="48.03716" lon="-3.67901">
        <ele>163</ele>
        <time>2022-12-08T13:42:19Z</time>
      </trkpt>
      <trkpt lat="48.03712" lon="-3.67906">
        <ele>162.9</ele>
        <time>2022-12-08T13:42:20Z</time>
      </trkpt>
      <trkpt lat="48.03706" lon="-3.67912">
        <ele>162.9</ele>
        <time>2022-12-08T13:42:21Z</time>
      </trkpt>
      <trkpt lat="48.03701" lon="-3.67918">
        <ele>162.8</ele>
        <time>2022-12-08T13:42:22Z</time>
      </trkpt>
      <trkpt lat="48.03698" lon="-3.67925">
        <ele>162.7</ele>
        <time>2022-12-08T13:42:23Z</time>
      </trkpt>
      <trkpt lat="48.03693" lon="-3.67931">
        <ele>162.6</ele>
        <time>2022-12-08T13:42:24Z</time>
      </trkpt>
      <trkpt lat="48.03689" lon="-3.67937">
        <ele>162.5</ele>
        <time>2022-12-08T13:42:25Z</time>
      </trkpt>
      <trkpt lat="48.03684" lon="-3.67943">
        <ele>162.4</ele>
        <time>2022-12-08T13:42:26Z</time>
      </trkpt>
      <trkpt lat="48.0368" lon="-3.67949">
        <ele>162.3</ele>
        <time>2022-12-08T13:42:27Z</time>
      </trkpt>
      <trkpt lat="48.03675" lon="-3.67956">
        <ele>162.2</ele>
        <time>2022-12-08T13:42:28Z</time>
      </trkpt>
      <trkpt lat="48.03672" lon="-3.67962">
        <ele>162.1</ele>
        <time>2022-12-08T13:42:29Z</time>
      </trkpt>
      <trkpt lat="48.03668" lon="-3.67968">
        <ele>162</ele>
        <time>2022-12-08T13:42:30Z</time>
      </trkpt>
      <trkpt lat="48.03664" lon="-3.67974">
        <ele>161.9</ele>
        <time>2022-12-08T13:42:31Z</time>
      </trkpt>
      <trkpt lat="48.0366" lon="-3.6798">
        <ele>161.8</ele>
        <time>2022-12-08T13:42:32Z</time>
      </trkpt>
      <trkpt lat="48.03657" lon="-3.67985">
        <ele>161.7</ele>
        <time>2022-12-08T13:42:33Z</time>
      </trkpt>
      <trkpt lat="48.03654" lon="-3.6799">
        <ele>161.6</ele>
        <time>2022-12-08T13:42:34Z</time>
      </trkpt>
      <trkpt lat="48.03649" lon="-3.67997">
        <ele>161.5</ele>
        <time>2022-12-08T13:42:35Z</time>
      </trkpt>
      <trkpt lat="48.03645" lon="-3.68003">
        <ele>161.3</ele>
        <time>2022-12-08T13:42:36Z</time>
      </trkpt>
      <trkpt lat="48.0364" lon="-3.68009">
        <ele>161.2</ele>
        <time>2022-12-08T13:42:37Z</time>
      </trkpt>
      <trkpt lat="48.03636" lon="-3.68015">
        <ele>161.1</ele>
        <time>2022-12-08T13:42:38Z</time>
      </trkpt>
      <trkpt lat="48.03631" lon="-3.68021">
        <ele>161.1</ele>
        <time>2022-12-08T13:42:39Z</time>
      </trkpt>
      <trkpt lat="48.03627" lon="-3.68027">
        <ele>161</ele>
        <time>2022-12-08T13:42:40Z</time>
      </trkpt>
      <trkpt lat="48.03623" lon="-3.68032">
        <ele>160.9</ele>
        <time>2022-12-08T13:42:41Z</time>
      </trkpt>
      <trkpt lat="48.03619" lon="-3.68039">
        <ele>160.8</ele>
        <time>2022-12-08T13:42:42Z</time>
      </trkpt>
      <trkpt lat="48.03615" lon="-3.68044">
        <ele>160.7</ele>
        <time>2022-12-08T13:42:43Z</time>
      </trkpt>
      <trkpt lat="48.0361" lon="-3.6805">
        <ele>160.6</ele>
        <time>2022-12-08T13:42:44Z</time>
      </trkpt>
      <trkpt lat="48.03606" lon="-3.68057">
        <ele>160.5</ele>
        <time>2022-12-08T13:42:45Z</time>
      </trkpt>
      <trkpt lat="48.03602" lon="-3.68063">
        <ele>160.3</ele>
        <time>2022-12-08T13:42:46Z</time>
      </trkpt>
      <trkpt lat="48.03598" lon="-3.68069">
        <ele>160.2</ele>
        <time>2022-12-08T13:42:47Z</time>
      </trkpt>
      <trkpt lat="48.03594" lon="-3.68076">
        <ele>160.2</ele>
        <time>2022-12-08T13:42:48Z</time>
      </trkpt>
      <trkpt lat="48.03589" lon="-3.68081">
        <ele>160.1</ele>
        <time>2022-12-08T13:42:49Z</time>
      </trkpt>
      <trkpt lat="48.03584" lon="-3.68088">
        <ele>160</ele>
        <time>2022-12-08T13:42:50Z</time>
      </trkpt>
      <trkpt lat="48.03581" lon="-3.68094">
        <ele>160</ele>
        <time>2022-12-08T13:42:51Z</time>
      </trkpt>
      <trkpt lat="48.03577" lon="-3.68099">
        <ele>159.9</ele>
        <time>2022-12-08T13:42:52Z</time>
      </trkpt>
      <trkpt lat="48.03574" lon="-3.68104">
        <ele>159.9</ele>
        <time>2022-12-08T13:42:53Z</time>
      </trkpt>
      <trkpt lat="48.03571" lon="-3.68107">
        <ele>159.8</ele>
        <time>2022-12-08T13:42:54Z</time>
      </trkpt>
      <trkpt lat="48.03568" lon="-3.68109">
        <ele>159.8</ele>
        <time>2022-12-08T13:42:55Z</time>
      </trkpt>
      <trkpt lat="48.03567" lon="-3.6811">
        <ele>159.7</ele>
        <time>2022-12-08T13:42:56Z</time>
      </trkpt>
      <trkpt lat="48.03563" lon="-3.68113">
        <ele>159.6</ele>
        <time>2022-12-08T13:42:57Z</time>
      </trkpt>
      <trkpt lat="48.0356" lon="-3.68115">
        <ele>159.5</ele>
        <time>2022-12-08T13:42:58Z</time>
      </trkpt>
      <trkpt lat="48.03556" lon="-3.68117">
        <ele>159.4</ele>
        <time>2022-12-08T13:42:59Z</time>
      </trkpt>
      <trkpt lat="48.03553" lon="-3.68118">
        <ele>159.3</ele>
        <time>2022-12-08T13:43:00Z</time>
      </trkpt>
      <trkpt lat="48.03547" lon="-3.68121">
        <ele>159.1</ele>
        <time>2022-12-08T13:43:01Z</time>
      </trkpt>
      <trkpt lat="48.03546" lon="-3.68124">
        <ele>159.1</ele>
        <time>2022-12-08T13:43:02Z</time>
      </trkpt>
      <trkpt lat="48.03544" lon="-3.68135">
        <ele>158.5</ele>
        <time>2022-12-08T13:43:04Z</time>
      </trkpt>
      <trkpt lat="48.03544" lon="-3.68141">
        <ele>158.3</ele>
        <time>2022-12-08T13:43:05Z</time>
      </trkpt>
      <trkpt lat="48.03544" lon="-3.68143">
        <ele>158.3</ele>
        <time>2022-12-08T13:43:06Z</time>
      </trkpt>
      <trkpt lat="48.03541" lon="-3.6815">
        <ele>158.5</ele>
        <time>2022-12-08T13:43:08Z</time>
      </trkpt>
      <trkpt lat="48.03538" lon="-3.68152">
        <ele>158.5</ele>
        <time>2022-12-08T13:43:09Z</time>
      </trkpt>
      <trkpt lat="48.03535" lon="-3.68154">
        <ele>158.6</ele>
        <time>2022-12-08T13:43:10Z</time>
      </trkpt>
      <trkpt lat="48.03531" lon="-3.68161">
        <ele>158.7</ele>
        <time>2022-12-08T13:43:11Z</time>
      </trkpt>
      <trkpt lat="48.03528" lon="-3.68169">
        <ele>158.7</ele>
        <time>2022-12-08T13:43:13Z</time>
      </trkpt>
      <trkpt lat="48.03525" lon="-3.68174">
        <ele>158.6</ele>
        <time>2022-12-08T13:43:14Z</time>
      </trkpt>
      <trkpt lat="48.0352" lon="-3.68181">
        <ele>158.5</ele>
        <time>2022-12-08T13:43:15Z</time>
      </trkpt>
      <trkpt lat="48.03514" lon="-3.68187">
        <ele>158.4</ele>
        <time>2022-12-08T13:43:16Z</time>
      </trkpt>
      <trkpt lat="48.0351" lon="-3.68192">
        <ele>158.3</ele>
        <time>2022-12-08T13:43:17Z</time>
      </trkpt>
      <trkpt lat="48.03506" lon="-3.68198">
        <ele>158.3</ele>
        <time>2022-12-08T13:43:18Z</time>
      </trkpt>
      <trkpt lat="48.03503" lon="-3.68203">
        <ele>158.2</ele>
        <time>2022-12-08T13:43:19Z</time>
      </trkpt>
      <trkpt lat="48.03499" lon="-3.68206">
        <ele>158.2</ele>
        <time>2022-12-08T13:43:20Z</time>
      </trkpt>
      <trkpt lat="48.03497" lon="-3.68208">
        <ele>158.1</ele>
        <time>2022-12-08T13:43:21Z</time>
      </trkpt>
      <trkpt lat="48.03489" lon="-3.68219">
        <ele>158</ele>
        <time>2022-12-08T13:43:22Z</time>
      </trkpt>
      <trkpt lat="48.03485" lon="-3.68224">
        <ele>158</ele>
        <time>2022-12-08T13:43:23Z</time>
      </trkpt>
      <trkpt lat="48.03481" lon="-3.68229">
        <ele>157.9</ele>
        <time>2022-12-08T13:43:24Z</time>
      </trkpt>
      <trkpt lat="48.03477" lon="-3.68235">
        <ele>157.9</ele>
        <time>2022-12-08T13:43:25Z</time>
      </trkpt>
      <trkpt lat="48.03473" lon="-3.6824">
        <ele>157.8</ele>
        <time>2022-12-08T13:43:26Z</time>
      </trkpt>
      <trkpt lat="48.03468" lon="-3.68246">
        <ele>157.8</ele>
        <time>2022-12-08T13:43:27Z</time>
      </trkpt>
      <trkpt lat="48.03463" lon="-3.68251">
        <ele>157.8</ele>
        <time>2022-12-08T13:43:28Z</time>
      </trkpt>
      <trkpt lat="48.0346" lon="-3.68257">
        <ele>157.8</ele>
        <time>2022-12-08T13:43:29Z</time>
      </trkpt>
      <trkpt lat="48.03456" lon="-3.68262">
        <ele>157.8</ele>
        <time>2022-12-08T13:43:30Z</time>
      </trkpt>
      <trkpt lat="48.03452" lon="-3.68268">
        <ele>157.8</ele>
        <time>2022-12-08T13:43:31Z</time>
      </trkpt>
      <trkpt lat="48.03447" lon="-3.68272">
        <ele>157.8</ele>
        <time>2022-12-08T13:43:32Z</time>
      </trkpt>
      <trkpt lat="48.03444" lon="-3.68277">
        <ele>157.8</ele>
        <time>2022-12-08T13:43:33Z</time>
      </trkpt>
      <trkpt lat="48.0344" lon="-3.68283">
        <ele>157.8</ele>
        <time>2022-12-08T13:43:34Z</time>
      </trkpt>
      <trkpt lat="48.03435" lon="-3.68289">
        <ele>157.7</ele>
        <time>2022-12-08T13:43:35Z</time>
      </trkpt>
      <trkpt lat="48.0343" lon="-3.68295">
        <ele>157.7</ele>
        <time>2022-12-08T13:43:36Z</time>
      </trkpt>
      <trkpt lat="48.03427" lon="-3.683">
        <ele>157.7</ele>
        <time>2022-12-08T13:43:37Z</time>
      </trkpt>
      <trkpt lat="48.03423" lon="-3.68305">
        <ele>157.7</ele>
        <time>2022-12-08T13:43:38Z</time>
      </trkpt>
      <trkpt lat="48.03418" lon="-3.68311">
        <ele>157.7</ele>
        <time>2022-12-08T13:43:39Z</time>
      </trkpt>
      <trkpt lat="48.03413" lon="-3.68317">
        <ele>157.7</ele>
        <time>2022-12-08T13:43:40Z</time>
      </trkpt>
      <trkpt lat="48.03409" lon="-3.68323">
        <ele>157.7</ele>
        <time>2022-12-08T13:43:41Z</time>
      </trkpt>
      <trkpt lat="48.03404" lon="-3.68328">
        <ele>157.7</ele>
        <time>2022-12-08T13:43:42Z</time>
      </trkpt>
      <trkpt lat="48.034" lon="-3.68334">
        <ele>157.7</ele>
        <time>2022-12-08T13:43:43Z</time>
      </trkpt>
      <trkpt lat="48.03396" lon="-3.6834">
        <ele>157.7</ele>
        <time>2022-12-08T13:43:44Z</time>
      </trkpt>
      <trkpt lat="48.03392" lon="-3.68346">
        <ele>157.7</ele>
        <time>2022-12-08T13:43:45Z</time>
      </trkpt>
      <trkpt lat="48.03389" lon="-3.68351">
        <ele>157.7</ele>
        <time>2022-12-08T13:43:46Z</time>
      </trkpt>
      <trkpt lat="48.03386" lon="-3.68355">
        <ele>157.7</ele>
        <time>2022-12-08T13:43:47Z</time>
      </trkpt>
      <trkpt lat="48.03381" lon="-3.68362">
        <ele>157.7</ele>
        <time>2022-12-08T13:43:48Z</time>
      </trkpt>
      <trkpt lat="48.03376" lon="-3.68368">
        <ele>157.8</ele>
        <time>2022-12-08T13:43:49Z</time>
      </trkpt>
      <trkpt lat="48.03371" lon="-3.68375">
        <ele>157.8</ele>
        <time>2022-12-08T13:43:50Z</time>
      </trkpt>
      <trkpt lat="48.03366" lon="-3.68381">
        <ele>157.8</ele>
        <time>2022-12-08T13:43:51Z</time>
      </trkpt>
      <trkpt lat="48.03362" lon="-3.68386">
        <ele>157.8</ele>
        <time>2022-12-08T13:43:52Z</time>
      </trkpt>
      <trkpt lat="48.03357" lon="-3.68392">
        <ele>157.8</ele>
        <time>2022-12-08T13:43:53Z</time>
      </trkpt>
      <trkpt lat="48.03354" lon="-3.68397">
        <ele>157.8</ele>
        <time>2022-12-08T13:43:54Z</time>
      </trkpt>
      <trkpt lat="48.0335" lon="-3.68402">
        <ele>157.9</ele>
        <time>2022-12-08T13:43:55Z</time>
      </trkpt>
      <trkpt lat="48.03347" lon="-3.68406">
        <ele>157.9</ele>
        <time>2022-12-08T13:43:56Z</time>
      </trkpt>
      <trkpt lat="48.03344" lon="-3.6841">
        <ele>157.9</ele>
        <time>2022-12-08T13:43:57Z</time>
      </trkpt>
      <trkpt lat="48.0334" lon="-3.68416">
        <ele>157.9</ele>
        <time>2022-12-08T13:43:58Z</time>
      </trkpt>
      <trkpt lat="48.03335" lon="-3.68422">
        <ele>158</ele>
        <time>2022-12-08T13:43:59Z</time>
      </trkpt>
      <trkpt lat="48.0333" lon="-3.68428">
        <ele>158</ele>
        <time>2022-12-08T13:44:00Z</time>
      </trkpt>
      <trkpt lat="48.03326" lon="-3.68434">
        <ele>158</ele>
        <time>2022-12-08T13:44:01Z</time>
      </trkpt>
      <trkpt lat="48.03321" lon="-3.6844">
        <ele>158</ele>
        <time>2022-12-08T13:44:02Z</time>
      </trkpt>
      <trkpt lat="48.03317" lon="-3.68446">
        <ele>158</ele>
        <time>2022-12-08T13:44:03Z</time>
      </trkpt>
      <trkpt lat="48.03313" lon="-3.68451">
        <ele>158</ele>
        <time>2022-12-08T13:44:04Z</time>
      </trkpt>
      <trkpt lat="48.03307" lon="-3.68457">
        <ele>158</ele>
        <time>2022-12-08T13:44:05Z</time>
      </trkpt>
      <trkpt lat="48.03302" lon="-3.68462">
        <ele>158</ele>
        <time>2022-12-08T13:44:06Z</time>
      </trkpt>
      <trkpt lat="48.03296" lon="-3.68467">
        <ele>158</ele>
        <time>2022-12-08T13:44:07Z</time>
      </trkpt>
      <trkpt lat="48.03292" lon="-3.68472">
        <ele>157.9</ele>
        <time>2022-12-08T13:44:08Z</time>
      </trkpt>
      <trkpt lat="48.03287" lon="-3.68478">
        <ele>157.9</ele>
        <time>2022-12-08T13:44:09Z</time>
      </trkpt>
      <trkpt lat="48.03283" lon="-3.68484">
        <ele>157.9</ele>
        <time>2022-12-08T13:44:10Z</time>
      </trkpt>
      <trkpt lat="48.03278" lon="-3.68489">
        <ele>157.9</ele>
        <time>2022-12-08T13:44:11Z</time>
      </trkpt>
      <trkpt lat="48.03273" lon="-3.68496">
        <ele>157.9</ele>
        <time>2022-12-08T13:44:12Z</time>
      </trkpt>
      <trkpt lat="48.03269" lon="-3.68503">
        <ele>157.8</ele>
        <time>2022-12-08T13:44:13Z</time>
      </trkpt>
      <trkpt lat="48.03265" lon="-3.68509">
        <ele>157.7</ele>
        <time>2022-12-08T13:44:14Z</time>
      </trkpt>
      <trkpt lat="48.0326" lon="-3.68514">
        <ele>157.6</ele>
        <time>2022-12-08T13:44:15Z</time>
      </trkpt>
      <trkpt lat="48.03256" lon="-3.68519">
        <ele>157.5</ele>
        <time>2022-12-08T13:44:16Z</time>
      </trkpt>
      <trkpt lat="48.03252" lon="-3.68526">
        <ele>157.4</ele>
        <time>2022-12-08T13:44:17Z</time>
      </trkpt>
      <trkpt lat="48.03248" lon="-3.68533">
        <ele>157.2</ele>
        <time>2022-12-08T13:44:18Z</time>
      </trkpt>
      <trkpt lat="48.03244" lon="-3.68539">
        <ele>157.1</ele>
        <time>2022-12-08T13:44:19Z</time>
      </trkpt>
      <trkpt lat="48.03239" lon="-3.68546">
        <ele>157</ele>
        <time>2022-12-08T13:44:20Z</time>
      </trkpt>
      <trkpt lat="48.03234" lon="-3.68553">
        <ele>156.9</ele>
        <time>2022-12-08T13:44:21Z</time>
      </trkpt>
      <trkpt lat="48.03228" lon="-3.6856">
        <ele>156.8</ele>
        <time>2022-12-08T13:44:22Z</time>
      </trkpt>
      <trkpt lat="48.03222" lon="-3.68567">
        <ele>156.8</ele>
        <time>2022-12-08T13:44:23Z</time>
      </trkpt>
      <trkpt lat="48.03217" lon="-3.68573">
        <ele>156.7</ele>
        <time>2022-12-08T13:44:24Z</time>
      </trkpt>
      <trkpt lat="48.03214" lon="-3.68578">
        <ele>156.6</ele>
        <time>2022-12-08T13:44:25Z</time>
      </trkpt>
      <trkpt lat="48.0321" lon="-3.68584">
        <ele>156.5</ele>
        <time>2022-12-08T13:44:26Z</time>
      </trkpt>
      <trkpt lat="48.03205" lon="-3.68591">
        <ele>156.3</ele>
        <time>2022-12-08T13:44:27Z</time>
      </trkpt>
      <trkpt lat="48.03198" lon="-3.68598">
        <ele>156.1</ele>
        <time>2022-12-08T13:44:28Z</time>
      </trkpt>
      <trkpt lat="48.03193" lon="-3.68605">
        <ele>155.9</ele>
        <time>2022-12-08T13:44:29Z</time>
      </trkpt>
      <trkpt lat="48.03188" lon="-3.68612">
        <ele>155.8</ele>
        <time>2022-12-08T13:44:30Z</time>
      </trkpt>
      <trkpt lat="48.03184" lon="-3.68619">
        <ele>155.6</ele>
        <time>2022-12-08T13:44:31Z</time>
      </trkpt>
      <trkpt lat="48.0318" lon="-3.68625">
        <ele>155.5</ele>
        <time>2022-12-08T13:44:32Z</time>
      </trkpt>
      <trkpt lat="48.03174" lon="-3.68632">
        <ele>155.3</ele>
        <time>2022-12-08T13:44:33Z</time>
      </trkpt>
      <trkpt lat="48.03168" lon="-3.6864">
        <ele>155.1</ele>
        <time>2022-12-08T13:44:34Z</time>
      </trkpt>
      <trkpt lat="48.03162" lon="-3.68647">
        <ele>154.9</ele>
        <time>2022-12-08T13:44:35Z</time>
      </trkpt>
      <trkpt lat="48.03158" lon="-3.68652">
        <ele>154.8</ele>
        <time>2022-12-08T13:44:36Z</time>
      </trkpt>
      <trkpt lat="48.03153" lon="-3.68659">
        <ele>154.7</ele>
        <time>2022-12-08T13:44:37Z</time>
      </trkpt>
      <trkpt lat="48.03148" lon="-3.68666">
        <ele>154.5</ele>
        <time>2022-12-08T13:44:38Z</time>
      </trkpt>
      <trkpt lat="48.03143" lon="-3.68673">
        <ele>154.4</ele>
        <time>2022-12-08T13:44:39Z</time>
      </trkpt>
      <trkpt lat="48.03137" lon="-3.68681">
        <ele>154.2</ele>
        <time>2022-12-08T13:44:40Z</time>
      </trkpt>
      <trkpt lat="48.03131" lon="-3.68689">
        <ele>154</ele>
        <time>2022-12-08T13:44:41Z</time>
      </trkpt>
      <trkpt lat="48.03126" lon="-3.68696">
        <ele>153.9</ele>
        <time>2022-12-08T13:44:42Z</time>
      </trkpt>
      <trkpt lat="48.03121" lon="-3.68703">
        <ele>153.7</ele>
        <time>2022-12-08T13:44:43Z</time>
      </trkpt>
      <trkpt lat="48.03116" lon="-3.68709">
        <ele>153.6</ele>
        <time>2022-12-08T13:44:44Z</time>
      </trkpt>
      <trkpt lat="48.03111" lon="-3.68716">
        <ele>153.4</ele>
        <time>2022-12-08T13:44:45Z</time>
      </trkpt>
      <trkpt lat="48.03105" lon="-3.68723">
        <ele>153.2</ele>
        <time>2022-12-08T13:44:46Z</time>
      </trkpt>
      <trkpt lat="48.03101" lon="-3.68729">
        <ele>153.1</ele>
        <time>2022-12-08T13:44:47Z</time>
      </trkpt>
      <trkpt lat="48.03095" lon="-3.68736">
        <ele>152.9</ele>
        <time>2022-12-08T13:44:48Z</time>
      </trkpt>
      <trkpt lat="48.0309" lon="-3.68743">
        <ele>152.8</ele>
        <time>2022-12-08T13:44:49Z</time>
      </trkpt>
      <trkpt lat="48.03085" lon="-3.68748">
        <ele>152.7</ele>
        <time>2022-12-08T13:44:50Z</time>
      </trkpt>
      <trkpt lat="48.0308" lon="-3.68755">
        <ele>152.6</ele>
        <time>2022-12-08T13:44:51Z</time>
      </trkpt>
      <trkpt lat="48.03075" lon="-3.68761">
        <ele>152.5</ele>
        <time>2022-12-08T13:44:52Z</time>
      </trkpt>
      <trkpt lat="48.03069" lon="-3.68768">
        <ele>152.4</ele>
        <time>2022-12-08T13:44:53Z</time>
      </trkpt>
      <trkpt lat="48.03064" lon="-3.68774">
        <ele>152.4</ele>
        <time>2022-12-08T13:44:54Z</time>
      </trkpt>
      <trkpt lat="48.03059" lon="-3.68782">
        <ele>152.3</ele>
        <time>2022-12-08T13:44:55Z</time>
      </trkpt>
      <trkpt lat="48.03054" lon="-3.68789">
        <ele>152.2</ele>
        <time>2022-12-08T13:44:56Z</time>
      </trkpt>
      <trkpt lat="48.03048" lon="-3.68796">
        <ele>152.2</ele>
        <time>2022-12-08T13:44:57Z</time>
      </trkpt>
      <trkpt lat="48.03042" lon="-3.68802">
        <ele>152.2</ele>
        <time>2022-12-08T13:44:58Z</time>
      </trkpt>
      <trkpt lat="48.03037" lon="-3.68808">
        <ele>152.2</ele>
        <time>2022-12-08T13:44:59Z</time>
      </trkpt>
      <trkpt lat="48.03032" lon="-3.68815">
        <ele>152.2</ele>
        <time>2022-12-08T13:45:00Z</time>
      </trkpt>
      <trkpt lat="48.03028" lon="-3.68821">
        <ele>152.2</ele>
        <time>2022-12-08T13:45:01Z</time>
      </trkpt>
      <trkpt lat="48.03024" lon="-3.68827">
        <ele>152.2</ele>
        <time>2022-12-08T13:45:02Z</time>
      </trkpt>
      <trkpt lat="48.0302" lon="-3.68832">
        <ele>152.2</ele>
        <time>2022-12-08T13:45:03Z</time>
      </trkpt>
      <trkpt lat="48.03017" lon="-3.68837">
        <ele>152.3</ele>
        <time>2022-12-08T13:45:04Z</time>
      </trkpt>
      <trkpt lat="48.03012" lon="-3.68843">
        <ele>152.3</ele>
        <time>2022-12-08T13:45:05Z</time>
      </trkpt>
      <trkpt lat="48.03007" lon="-3.6885">
        <ele>152.4</ele>
        <time>2022-12-08T13:45:06Z</time>
      </trkpt>
      <trkpt lat="48.03002" lon="-3.68856">
        <ele>152.4</ele>
        <time>2022-12-08T13:45:07Z</time>
      </trkpt>
      <trkpt lat="48.02999" lon="-3.68861">
        <ele>152.4</ele>
        <time>2022-12-08T13:45:08Z</time>
      </trkpt>
      <trkpt lat="48.02994" lon="-3.68866">
        <ele>152.5</ele>
        <time>2022-12-08T13:45:09Z</time>
      </trkpt>
      <trkpt lat="48.02989" lon="-3.68873">
        <ele>152.6</ele>
        <time>2022-12-08T13:45:10Z</time>
      </trkpt>
      <trkpt lat="48.02984" lon="-3.68879">
        <ele>152.6</ele>
        <time>2022-12-08T13:45:11Z</time>
      </trkpt>
      <trkpt lat="48.0298" lon="-3.68885">
        <ele>152.7</ele>
        <time>2022-12-08T13:45:12Z</time>
      </trkpt>
      <trkpt lat="48.02975" lon="-3.68891">
        <ele>152.8</ele>
        <time>2022-12-08T13:45:13Z</time>
      </trkpt>
      <trkpt lat="48.02971" lon="-3.68897">
        <ele>152.9</ele>
        <time>2022-12-08T13:45:14Z</time>
      </trkpt>
      <trkpt lat="48.02966" lon="-3.68902">
        <ele>152.9</ele>
        <time>2022-12-08T13:45:15Z</time>
      </trkpt>
      <trkpt lat="48.02962" lon="-3.68907">
        <ele>153</ele>
        <time>2022-12-08T13:45:16Z</time>
      </trkpt>
      <trkpt lat="48.02958" lon="-3.68912">
        <ele>153.1</ele>
        <time>2022-12-08T13:45:17Z</time>
      </trkpt>
      <trkpt lat="48.02954" lon="-3.68918">
        <ele>153.1</ele>
        <time>2022-12-08T13:45:18Z</time>
      </trkpt>
      <trkpt lat="48.0295" lon="-3.68923">
        <ele>153.2</ele>
        <time>2022-12-08T13:45:19Z</time>
      </trkpt>
      <trkpt lat="48.02947" lon="-3.68927">
        <ele>153.3</ele>
        <time>2022-12-08T13:45:20Z</time>
      </trkpt>
      <trkpt lat="48.02944" lon="-3.68932">
        <ele>153.3</ele>
        <time>2022-12-08T13:45:21Z</time>
      </trkpt>
      <trkpt lat="48.02941" lon="-3.68936">
        <ele>153.4</ele>
        <time>2022-12-08T13:45:22Z</time>
      </trkpt>
      <trkpt lat="48.02936" lon="-3.68941">
        <ele>153.4</ele>
        <time>2022-12-08T13:45:23Z</time>
      </trkpt>
      <trkpt lat="48.02931" lon="-3.68947">
        <ele>153.5</ele>
        <time>2022-12-08T13:45:24Z</time>
      </trkpt>
      <trkpt lat="48.02927" lon="-3.68952">
        <ele>153.6</ele>
        <time>2022-12-08T13:45:25Z</time>
      </trkpt>
      <trkpt lat="48.02922" lon="-3.68958">
        <ele>153.7</ele>
        <time>2022-12-08T13:45:26Z</time>
      </trkpt>
      <trkpt lat="48.02918" lon="-3.68964">
        <ele>153.8</ele>
        <time>2022-12-08T13:45:27Z</time>
      </trkpt>
      <trkpt lat="48.02915" lon="-3.68969">
        <ele>153.9</ele>
        <time>2022-12-08T13:45:28Z</time>
      </trkpt>
      <trkpt lat="48.02914" lon="-3.6897">
        <ele>153.9</ele>
        <time>2022-12-08T13:45:29Z</time>
      </trkpt>
      <trkpt lat="48.02913" lon="-3.68973">
        <ele>154</ele>
        <time>2022-12-08T13:45:30Z</time>
      </trkpt>
      <trkpt lat="48.02909" lon="-3.68979">
        <ele>154.1</ele>
        <time>2022-12-08T13:45:31Z</time>
      </trkpt>
      <trkpt lat="48.02903" lon="-3.68986">
        <ele>154.3</ele>
        <time>2022-12-08T13:45:32Z</time>
      </trkpt>
      <trkpt lat="48.029" lon="-3.68991">
        <ele>154.4</ele>
        <time>2022-12-08T13:45:33Z</time>
      </trkpt>
      <trkpt lat="48.02895" lon="-3.68997">
        <ele>154.4</ele>
        <time>2022-12-08T13:45:34Z</time>
      </trkpt>
      <trkpt lat="48.02891" lon="-3.69003">
        <ele>154.6</ele>
        <time>2022-12-08T13:45:35Z</time>
      </trkpt>
      <trkpt lat="48.02887" lon="-3.69009">
        <ele>154.7</ele>
        <time>2022-12-08T13:45:36Z</time>
      </trkpt>
      <trkpt lat="48.02883" lon="-3.69014">
        <ele>154.9</ele>
        <time>2022-12-08T13:45:37Z</time>
      </trkpt>
      <trkpt lat="48.02879" lon="-3.69019">
        <ele>155</ele>
        <time>2022-12-08T13:45:38Z</time>
      </trkpt>
      <trkpt lat="48.02876" lon="-3.69022">
        <ele>155.1</ele>
        <time>2022-12-08T13:45:39Z</time>
      </trkpt>
      <trkpt lat="48.02873" lon="-3.69026">
        <ele>155.3</ele>
        <time>2022-12-08T13:45:40Z</time>
      </trkpt>
      <trkpt lat="48.02868" lon="-3.69032">
        <ele>155.4</ele>
        <time>2022-12-08T13:45:41Z</time>
      </trkpt>
      <trkpt lat="48.02864" lon="-3.69039">
        <ele>155.6</ele>
        <time>2022-12-08T13:45:42Z</time>
      </trkpt>
      <trkpt lat="48.0286" lon="-3.69044">
        <ele>155.7</ele>
        <time>2022-12-08T13:45:43Z</time>
      </trkpt>
      <trkpt lat="48.02857" lon="-3.69048">
        <ele>155.8</ele>
        <time>2022-12-08T13:45:44Z</time>
      </trkpt>
      <trkpt lat="48.02855" lon="-3.69052">
        <ele>155.9</ele>
        <time>2022-12-08T13:45:45Z</time>
      </trkpt>
      <trkpt lat="48.02854" lon="-3.69055">
        <ele>156</ele>
        <time>2022-12-08T13:45:46Z</time>
      </trkpt>
      <trkpt lat="48.02849" lon="-3.69061">
        <ele>156.2</ele>
        <time>2022-12-08T13:45:47Z</time>
      </trkpt>
      <trkpt lat="48.02844" lon="-3.69067">
        <ele>156.4</ele>
        <time>2022-12-08T13:45:49Z</time>
      </trkpt>
      <trkpt lat="48.0284" lon="-3.69073">
        <ele>156.6</ele>
        <time>2022-12-08T13:45:50Z</time>
      </trkpt>
      <trkpt lat="48.02835" lon="-3.69079">
        <ele>156.7</ele>
        <time>2022-12-08T13:45:51Z</time>
      </trkpt>
      <trkpt lat="48.02829" lon="-3.69087">
        <ele>156.9</ele>
        <time>2022-12-08T13:45:53Z</time>
      </trkpt>
      <trkpt lat="48.02823" lon="-3.69097">
        <ele>157.2</ele>
        <time>2022-12-08T13:45:54Z</time>
      </trkpt>
      <trkpt lat="48.0282" lon="-3.69102">
        <ele>157.3</ele>
        <time>2022-12-08T13:45:55Z</time>
      </trkpt>
      <trkpt lat="48.02818" lon="-3.69107">
        <ele>157.4</ele>
        <time>2022-12-08T13:45:57Z</time>
      </trkpt>
      <trkpt lat="48.02811" lon="-3.69118">
        <ele>157.6</ele>
        <time>2022-12-08T13:45:58Z</time>
      </trkpt>
      <trkpt lat="48.02807" lon="-3.69123">
        <ele>157.8</ele>
        <time>2022-12-08T13:45:59Z</time>
      </trkpt>
      <trkpt lat="48.02804" lon="-3.69129">
        <ele>157.9</ele>
        <time>2022-12-08T13:46:00Z</time>
      </trkpt>
      <trkpt lat="48.02799" lon="-3.69138">
        <ele>158.1</ele>
        <time>2022-12-08T13:46:02Z</time>
      </trkpt>
      <trkpt lat="48.02795" lon="-3.69144">
        <ele>158.3</ele>
        <time>2022-12-08T13:46:03Z</time>
      </trkpt>
      <trkpt lat="48.02792" lon="-3.69153">
        <ele>158.5</ele>
        <time>2022-12-08T13:46:04Z</time>
      </trkpt>
      <trkpt lat="48.02788" lon="-3.6916">
        <ele>158.6</ele>
        <time>2022-12-08T13:46:05Z</time>
      </trkpt>
      <trkpt lat="48.02787" lon="-3.69165">
        <ele>158.7</ele>
        <time>2022-12-08T13:46:06Z</time>
      </trkpt>
      <trkpt lat="48.02786" lon="-3.69172">
        <ele>158.8</ele>
        <time>2022-12-08T13:46:07Z</time>
      </trkpt>
      <trkpt lat="48.02784" lon="-3.69175">
        <ele>158.9</ele>
        <time>2022-12-08T13:46:08Z</time>
      </trkpt>
      <trkpt lat="48.0278" lon="-3.69184">
        <ele>159</ele>
        <time>2022-12-08T13:46:09Z</time>
      </trkpt>
      <trkpt lat="48.02777" lon="-3.6919">
        <ele>159.1</ele>
        <time>2022-12-08T13:46:10Z</time>
      </trkpt>
      <trkpt lat="48.02774" lon="-3.69196">
        <ele>159.2</ele>
        <time>2022-12-08T13:46:11Z</time>
      </trkpt>
      <trkpt lat="48.02772" lon="-3.69202">
        <ele>159.3</ele>
        <time>2022-12-08T13:46:12Z</time>
      </trkpt>
      <trkpt lat="48.02771" lon="-3.6921">
        <ele>159.4</ele>
        <time>2022-12-08T13:46:14Z</time>
      </trkpt>
      <trkpt lat="48.02769" lon="-3.69214">
        <ele>159.5</ele>
        <time>2022-12-08T13:46:15Z</time>
      </trkpt>
      <trkpt lat="48.02763" lon="-3.69224">
        <ele>159.7</ele>
        <time>2022-12-08T13:46:16Z</time>
      </trkpt>
      <trkpt lat="48.0276" lon="-3.6923">
        <ele>159.8</ele>
        <time>2022-12-08T13:46:17Z</time>
      </trkpt>
      <trkpt lat="48.02757" lon="-3.69238">
        <ele>159.9</ele>
        <time>2022-12-08T13:46:18Z</time>
      </trkpt>
      <trkpt lat="48.02754" lon="-3.69244">
        <ele>160</ele>
        <time>2022-12-08T13:46:20Z</time>
      </trkpt>
      <trkpt lat="48.02752" lon="-3.69252">
        <ele>160.1</ele>
        <time>2022-12-08T13:46:21Z</time>
      </trkpt>
      <trkpt lat="48.02749" lon="-3.69261">
        <ele>160.2</ele>
        <time>2022-12-08T13:46:22Z</time>
      </trkpt>
      <trkpt lat="48.02748" lon="-3.69269">
        <ele>160.3</ele>
        <time>2022-12-08T13:46:24Z</time>
      </trkpt>
      <trkpt lat="48.02743" lon="-3.69282">
        <ele>160.5</ele>
        <time>2022-12-08T13:46:25Z</time>
      </trkpt>
      <trkpt lat="48.0274" lon="-3.69289">
        <ele>160.6</ele>
        <time>2022-12-08T13:46:26Z</time>
      </trkpt>
      <trkpt lat="48.02738" lon="-3.69294">
        <ele>160.7</ele>
        <time>2022-12-08T13:46:27Z</time>
      </trkpt>
      <trkpt lat="48.02734" lon="-3.69302">
        <ele>160.8</ele>
        <time>2022-12-08T13:46:28Z</time>
      </trkpt>
      <trkpt lat="48.02731" lon="-3.69309">
        <ele>160.9</ele>
        <time>2022-12-08T13:46:29Z</time>
      </trkpt>
      <trkpt lat="48.02729" lon="-3.69315">
        <ele>161</ele>
        <time>2022-12-08T13:46:30Z</time>
      </trkpt>
      <trkpt lat="48.02728" lon="-3.69321">
        <ele>161.1</ele>
        <time>2022-12-08T13:46:31Z</time>
      </trkpt>
      <trkpt lat="48.02727" lon="-3.69325">
        <ele>161.2</ele>
        <time>2022-12-08T13:46:32Z</time>
      </trkpt>
      <trkpt lat="48.02726" lon="-3.69333">
        <ele>161.3</ele>
        <time>2022-12-08T13:46:33Z</time>
      </trkpt>
      <trkpt lat="48.02725" lon="-3.6934">
        <ele>161.4</ele>
        <time>2022-12-08T13:46:34Z</time>
      </trkpt>
      <trkpt lat="48.02723" lon="-3.69343">
        <ele>161.4</ele>
        <time>2022-12-08T13:46:35Z</time>
      </trkpt>
      <trkpt lat="48.02719" lon="-3.6935">
        <ele>161.6</ele>
        <time>2022-12-08T13:46:36Z</time>
      </trkpt>
      <trkpt lat="48.02717" lon="-3.69352">
        <ele>161.6</ele>
        <time>2022-12-08T13:46:37Z</time>
      </trkpt>
      <trkpt lat="48.02713" lon="-3.69363">
        <ele>161.8</ele>
        <time>2022-12-08T13:46:39Z</time>
      </trkpt>
      <trkpt lat="48.02711" lon="-3.69372">
        <ele>161.9</ele>
        <time>2022-12-08T13:46:40Z</time>
      </trkpt>
      <trkpt lat="48.0271" lon="-3.69377">
        <ele>162</ele>
        <time>2022-12-08T13:46:41Z</time>
      </trkpt>
      <trkpt lat="48.02707" lon="-3.69384">
        <ele>162.1</ele>
        <time>2022-12-08T13:46:42Z</time>
      </trkpt>
      <trkpt lat="48.02705" lon="-3.69393">
        <ele>162.2</ele>
        <time>2022-12-08T13:46:43Z</time>
      </trkpt>
      <trkpt lat="48.02703" lon="-3.694">
        <ele>162.4</ele>
        <time>2022-12-08T13:46:45Z</time>
      </trkpt>
      <trkpt lat="48.02701" lon="-3.69409">
        <ele>162.5</ele>
        <time>2022-12-08T13:46:46Z</time>
      </trkpt>
      <trkpt lat="48.02697" lon="-3.69422">
        <ele>162.7</ele>
        <time>2022-12-08T13:46:47Z</time>
      </trkpt>
      <trkpt lat="48.02695" lon="-3.69429">
        <ele>162.8</ele>
        <time>2022-12-08T13:46:48Z</time>
      </trkpt>
      <trkpt lat="48.02692" lon="-3.69435">
        <ele>163</ele>
        <time>2022-12-08T13:46:49Z</time>
      </trkpt>
      <trkpt lat="48.0269" lon="-3.69442">
        <ele>163.1</ele>
        <time>2022-12-08T13:46:50Z</time>
      </trkpt>
      <trkpt lat="48.02688" lon="-3.69448">
        <ele>163.2</ele>
        <time>2022-12-08T13:46:51Z</time>
      </trkpt>
      <trkpt lat="48.02687" lon="-3.69455">
        <ele>163.3</ele>
        <time>2022-12-08T13:46:52Z</time>
      </trkpt>
      <trkpt lat="48.02686" lon="-3.69461">
        <ele>163.4</ele>
        <time>2022-12-08T13:46:53Z</time>
      </trkpt>
      <trkpt lat="48.02685" lon="-3.69464">
        <ele>163.4</ele>
        <time>2022-12-08T13:46:54Z</time>
      </trkpt>
      <trkpt lat="48.02682" lon="-3.69474">
        <ele>163.6</ele>
        <time>2022-12-08T13:46:55Z</time>
      </trkpt>
      <trkpt lat="48.02679" lon="-3.69481">
        <ele>163.7</ele>
        <time>2022-12-08T13:46:56Z</time>
      </trkpt>
      <trkpt lat="48.02677" lon="-3.69489">
        <ele>163.8</ele>
        <time>2022-12-08T13:46:57Z</time>
      </trkpt>
      <trkpt lat="48.02677" lon="-3.69493">
        <ele>163.9</ele>
        <time>2022-12-08T13:46:58Z</time>
      </trkpt>
      <trkpt lat="48.02673" lon="-3.69501">
        <ele>164</ele>
        <time>2022-12-08T13:46:59Z</time>
      </trkpt>
      <trkpt lat="48.0267" lon="-3.69509">
        <ele>164.2</ele>
        <time>2022-12-08T13:47:00Z</time>
      </trkpt>
      <trkpt lat="48.02667" lon="-3.69515">
        <ele>164.3</ele>
        <time>2022-12-08T13:47:01Z</time>
      </trkpt>
      <trkpt lat="48.02664" lon="-3.69522">
        <ele>164.4</ele>
        <time>2022-12-08T13:47:02Z</time>
      </trkpt>
      <trkpt lat="48.02662" lon="-3.69529">
        <ele>164.6</ele>
        <time>2022-12-08T13:47:03Z</time>
      </trkpt>
      <trkpt lat="48.02659" lon="-3.69536">
        <ele>164.7</ele>
        <time>2022-12-08T13:47:04Z</time>
      </trkpt>
      <trkpt lat="48.02658" lon="-3.69542">
        <ele>164.8</ele>
        <time>2022-12-08T13:47:05Z</time>
      </trkpt>
      <trkpt lat="48.02656" lon="-3.69548">
        <ele>164.9</ele>
        <time>2022-12-08T13:47:06Z</time>
      </trkpt>
      <trkpt lat="48.02654" lon="-3.69554">
        <ele>165.1</ele>
        <time>2022-12-08T13:47:07Z</time>
      </trkpt>
      <trkpt lat="48.02652" lon="-3.6956">
        <ele>165.2</ele>
        <time>2022-12-08T13:47:08Z</time>
      </trkpt>
      <trkpt lat="48.0265" lon="-3.69566">
        <ele>165.3</ele>
        <time>2022-12-08T13:47:09Z</time>
      </trkpt>
      <trkpt lat="48.02648" lon="-3.69573">
        <ele>165.4</ele>
        <time>2022-12-08T13:47:10Z</time>
      </trkpt>
      <trkpt lat="48.02646" lon="-3.69578">
        <ele>165.5</ele>
        <time>2022-12-08T13:47:11Z</time>
      </trkpt>
      <trkpt lat="48.02644" lon="-3.69583">
        <ele>165.6</ele>
        <time>2022-12-08T13:47:12Z</time>
      </trkpt>
      <trkpt lat="48.02642" lon="-3.6959">
        <ele>165.7</ele>
        <time>2022-12-08T13:47:13Z</time>
      </trkpt>
      <trkpt lat="48.02641" lon="-3.69594">
        <ele>165.8</ele>
        <time>2022-12-08T13:47:14Z</time>
      </trkpt>
      <trkpt lat="48.0264" lon="-3.696">
        <ele>165.8</ele>
        <time>2022-12-08T13:47:15Z</time>
      </trkpt>
      <trkpt lat="48.02638" lon="-3.69608">
        <ele>165.7</ele>
        <time>2022-12-08T13:47:16Z</time>
      </trkpt>
      <trkpt lat="48.02637" lon="-3.69611">
        <ele>165.7</ele>
        <time>2022-12-08T13:47:17Z</time>
      </trkpt>
      <trkpt lat="48.02633" lon="-3.6962">
        <ele>165.6</ele>
        <time>2022-12-08T13:47:19Z</time>
      </trkpt>
      <trkpt lat="48.02631" lon="-3.69624">
        <ele>165.6</ele>
        <time>2022-12-08T13:47:20Z</time>
      </trkpt>
      <trkpt lat="48.02629" lon="-3.69629">
        <ele>165.6</ele>
        <time>2022-12-08T13:47:21Z</time>
      </trkpt>
      <trkpt lat="48.02628" lon="-3.69631">
        <ele>165.6</ele>
        <time>2022-12-08T13:47:22Z</time>
      </trkpt>
      <trkpt lat="48.02626" lon="-3.69636">
        <ele>165.7</ele>
        <time>2022-12-08T13:47:23Z</time>
      </trkpt>
      <trkpt lat="48.02625" lon="-3.69641">
        <ele>165.7</ele>
        <time>2022-12-08T13:47:24Z</time>
      </trkpt>
      <trkpt lat="48.02623" lon="-3.69647">
        <ele>165.8</ele>
        <time>2022-12-08T13:47:25Z</time>
      </trkpt>
      <trkpt lat="48.02621" lon="-3.69653">
        <ele>165.8</ele>
        <time>2022-12-08T13:47:26Z</time>
      </trkpt>
      <trkpt lat="48.02619" lon="-3.69659">
        <ele>165.9</ele>
        <time>2022-12-08T13:47:27Z</time>
      </trkpt>
      <trkpt lat="48.02618" lon="-3.69664">
        <ele>165.9</ele>
        <time>2022-12-08T13:47:28Z</time>
      </trkpt>
      <trkpt lat="48.02616" lon="-3.69673">
        <ele>166</ele>
        <time>2022-12-08T13:47:30Z</time>
      </trkpt>
      <trkpt lat="48.02613" lon="-3.69682">
        <ele>166</ele>
        <time>2022-12-08T13:47:31Z</time>
      </trkpt>
      <trkpt lat="48.02611" lon="-3.69689">
        <ele>166.1</ele>
        <time>2022-12-08T13:47:32Z</time>
      </trkpt>
      <trkpt lat="48.02608" lon="-3.69694">
        <ele>166.2</ele>
        <time>2022-12-08T13:47:33Z</time>
      </trkpt>
      <trkpt lat="48.02607" lon="-3.69698">
        <ele>166.2</ele>
        <time>2022-12-08T13:47:34Z</time>
      </trkpt>
      <trkpt lat="48.02604" lon="-3.69706">
        <ele>166.4</ele>
        <time>2022-12-08T13:47:35Z</time>
      </trkpt>
      <trkpt lat="48.02603" lon="-3.6971">
        <ele>166.4</ele>
        <time>2022-12-08T13:47:36Z</time>
      </trkpt>
      <trkpt lat="48.02601" lon="-3.69716">
        <ele>166.5</ele>
        <time>2022-12-08T13:47:37Z</time>
      </trkpt>
      <trkpt lat="48.02599" lon="-3.69721">
        <ele>166.6</ele>
        <time>2022-12-08T13:47:38Z</time>
      </trkpt>
      <trkpt lat="48.02598" lon="-3.69728">
        <ele>166.7</ele>
        <time>2022-12-08T13:47:39Z</time>
      </trkpt>
      <trkpt lat="48.02596" lon="-3.69735">
        <ele>166.8</ele>
        <time>2022-12-08T13:47:40Z</time>
      </trkpt>
      <trkpt lat="48.02594" lon="-3.69741">
        <ele>166.9</ele>
        <time>2022-12-08T13:47:41Z</time>
      </trkpt>
      <trkpt lat="48.02592" lon="-3.69748">
        <ele>167.1</ele>
        <time>2022-12-08T13:47:42Z</time>
      </trkpt>
      <trkpt lat="48.0259" lon="-3.69752">
        <ele>167.1</ele>
        <time>2022-12-08T13:47:43Z</time>
      </trkpt>
      <trkpt lat="48.02589" lon="-3.69758">
        <ele>167.2</ele>
        <time>2022-12-08T13:47:44Z</time>
      </trkpt>
      <trkpt lat="48.02587" lon="-3.69764">
        <ele>167.3</ele>
        <time>2022-12-08T13:47:45Z</time>
      </trkpt>
      <trkpt lat="48.02585" lon="-3.69769">
        <ele>167.4</ele>
        <time>2022-12-08T13:47:46Z</time>
      </trkpt>
      <trkpt lat="48.02583" lon="-3.69775">
        <ele>167.5</ele>
        <time>2022-12-08T13:47:47Z</time>
      </trkpt>
      <trkpt lat="48.0258" lon="-3.69781">
        <ele>167.6</ele>
        <time>2022-12-08T13:47:48Z</time>
      </trkpt>
      <trkpt lat="48.02579" lon="-3.69787">
        <ele>167.7</ele>
        <time>2022-12-08T13:47:49Z</time>
      </trkpt>
      <trkpt lat="48.02574" lon="-3.69799">
        <ele>168</ele>
        <time>2022-12-08T13:47:51Z</time>
      </trkpt>
      <trkpt lat="48.02573" lon="-3.69805">
        <ele>168.1</ele>
        <time>2022-12-08T13:47:52Z</time>
      </trkpt>
      <trkpt lat="48.02572" lon="-3.69811">
        <ele>168.2</ele>
        <time>2022-12-08T13:47:53Z</time>
      </trkpt>
      <trkpt lat="48.0257" lon="-3.69818">
        <ele>168.4</ele>
        <time>2022-12-08T13:47:54Z</time>
      </trkpt>
      <trkpt lat="48.02568" lon="-3.69824">
        <ele>168.5</ele>
        <time>2022-12-08T13:47:55Z</time>
      </trkpt>
      <trkpt lat="48.02566" lon="-3.6983">
        <ele>168.7</ele>
        <time>2022-12-08T13:47:56Z</time>
      </trkpt>
      <trkpt lat="48.02564" lon="-3.69836">
        <ele>168.8</ele>
        <time>2022-12-08T13:47:57Z</time>
      </trkpt>
      <trkpt lat="48.02563" lon="-3.69842">
        <ele>168.9</ele>
        <time>2022-12-08T13:47:58Z</time>
      </trkpt>
      <trkpt lat="48.02561" lon="-3.69846">
        <ele>169</ele>
        <time>2022-12-08T13:47:59Z</time>
      </trkpt>
      <trkpt lat="48.02559" lon="-3.69851">
        <ele>169.1</ele>
        <time>2022-12-08T13:48:00Z</time>
      </trkpt>
      <trkpt lat="48.02558" lon="-3.69856">
        <ele>169.2</ele>
        <time>2022-12-08T13:48:01Z</time>
      </trkpt>
      <trkpt lat="48.02556" lon="-3.69861">
        <ele>169.3</ele>
        <time>2022-12-08T13:48:02Z</time>
      </trkpt>
      <trkpt lat="48.02553" lon="-3.69865">
        <ele>169.4</ele>
        <time>2022-12-08T13:48:03Z</time>
      </trkpt>
      <trkpt lat="48.02551" lon="-3.6987">
        <ele>169.5</ele>
        <time>2022-12-08T13:48:04Z</time>
      </trkpt>
      <trkpt lat="48.0255" lon="-3.69875">
        <ele>169.6</ele>
        <time>2022-12-08T13:48:05Z</time>
      </trkpt>
      <trkpt lat="48.02548" lon="-3.69881">
        <ele>169.7</ele>
        <time>2022-12-08T13:48:06Z</time>
      </trkpt>
      <trkpt lat="48.02547" lon="-3.69887">
        <ele>169.9</ele>
        <time>2022-12-08T13:48:07Z</time>
      </trkpt>
      <trkpt lat="48.02545" lon="-3.69892">
        <ele>170</ele>
        <time>2022-12-08T13:48:08Z</time>
      </trkpt>
      <trkpt lat="48.02543" lon="-3.69899">
        <ele>170.1</ele>
        <time>2022-12-08T13:48:09Z</time>
      </trkpt>
      <trkpt lat="48.02541" lon="-3.69905">
        <ele>170.3</ele>
        <time>2022-12-08T13:48:10Z</time>
      </trkpt>
      <trkpt lat="48.02539" lon="-3.69911">
        <ele>170.4</ele>
        <time>2022-12-08T13:48:11Z</time>
      </trkpt>
      <trkpt lat="48.02537" lon="-3.69917">
        <ele>170.5</ele>
        <time>2022-12-08T13:48:12Z</time>
      </trkpt>
      <trkpt lat="48.02534" lon="-3.69923">
        <ele>170.7</ele>
        <time>2022-12-08T13:48:13Z</time>
      </trkpt>
      <trkpt lat="48.02533" lon="-3.69929">
        <ele>170.8</ele>
        <time>2022-12-08T13:48:14Z</time>
      </trkpt>
      <trkpt lat="48.02531" lon="-3.69934">
        <ele>170.9</ele>
        <time>2022-12-08T13:48:15Z</time>
      </trkpt>
      <trkpt lat="48.0253" lon="-3.69936">
        <ele>171</ele>
        <time>2022-12-08T13:48:16Z</time>
      </trkpt>
      <trkpt lat="48.02528" lon="-3.69944">
        <ele>171.1</ele>
        <time>2022-12-08T13:48:17Z</time>
      </trkpt>
      <trkpt lat="48.02524" lon="-3.69957">
        <ele>171.4</ele>
        <time>2022-12-08T13:48:19Z</time>
      </trkpt>
      <trkpt lat="48.02521" lon="-3.69965">
        <ele>171.5</ele>
        <time>2022-12-08T13:48:20Z</time>
      </trkpt>
      <trkpt lat="48.02519" lon="-3.69971">
        <ele>171.6</ele>
        <time>2022-12-08T13:48:21Z</time>
      </trkpt>
      <trkpt lat="48.02516" lon="-3.69975">
        <ele>171.7</ele>
        <time>2022-12-08T13:48:22Z</time>
      </trkpt>
      <trkpt lat="48.02515" lon="-3.69977">
        <ele>171.8</ele>
        <time>2022-12-08T13:48:23Z</time>
      </trkpt>
      <trkpt lat="48.02516" lon="-3.69984">
        <ele>171.9</ele>
        <time>2022-12-08T13:48:24Z</time>
      </trkpt>
      <trkpt lat="48.02513" lon="-3.69993">
        <ele>172</ele>
        <time>2022-12-08T13:48:25Z</time>
      </trkpt>
      <trkpt lat="48.02511" lon="-3.7">
        <ele>172.2</ele>
        <time>2022-12-08T13:48:26Z</time>
      </trkpt>
      <trkpt lat="48.02508" lon="-3.70006">
        <ele>172.3</ele>
        <time>2022-12-08T13:48:27Z</time>
      </trkpt>
      <trkpt lat="48.02506" lon="-3.70009">
        <ele>172.4</ele>
        <time>2022-12-08T13:48:28Z</time>
      </trkpt>
      <trkpt lat="48.02505" lon="-3.70016">
        <ele>172.5</ele>
        <time>2022-12-08T13:48:29Z</time>
      </trkpt>
      <trkpt lat="48.02503" lon="-3.70022">
        <ele>172.7</ele>
        <time>2022-12-08T13:48:30Z</time>
      </trkpt>
      <trkpt lat="48.025" lon="-3.70028">
        <ele>172.8</ele>
        <time>2022-12-08T13:48:31Z</time>
      </trkpt>
      <trkpt lat="48.02497" lon="-3.70034">
        <ele>172.9</ele>
        <time>2022-12-08T13:48:32Z</time>
      </trkpt>
      <trkpt lat="48.02495" lon="-3.7004">
        <ele>173.1</ele>
        <time>2022-12-08T13:48:33Z</time>
      </trkpt>
      <trkpt lat="48.02494" lon="-3.70045">
        <ele>173.2</ele>
        <time>2022-12-08T13:48:34Z</time>
      </trkpt>
      <trkpt lat="48.02492" lon="-3.70051">
        <ele>173.3</ele>
        <time>2022-12-08T13:48:35Z</time>
      </trkpt>
      <trkpt lat="48.0249" lon="-3.70058">
        <ele>173.4</ele>
        <time>2022-12-08T13:48:36Z</time>
      </trkpt>
      <trkpt lat="48.02488" lon="-3.70068">
        <ele>173.6</ele>
        <time>2022-12-08T13:48:38Z</time>
      </trkpt>
      <trkpt lat="48.02486" lon="-3.70075">
        <ele>173.7</ele>
        <time>2022-12-08T13:48:39Z</time>
      </trkpt>
      <trkpt lat="48.02484" lon="-3.70081">
        <ele>173.9</ele>
        <time>2022-12-08T13:48:40Z</time>
      </trkpt>
      <trkpt lat="48.02482" lon="-3.70087">
        <ele>174.1</ele>
        <time>2022-12-08T13:48:41Z</time>
      </trkpt>
      <trkpt lat="48.0248" lon="-3.70093">
        <ele>174.2</ele>
        <time>2022-12-08T13:48:42Z</time>
      </trkpt>
      <trkpt lat="48.02479" lon="-3.70098">
        <ele>174.4</ele>
        <time>2022-12-08T13:48:43Z</time>
      </trkpt>
      <trkpt lat="48.02476" lon="-3.70106">
        <ele>174.6</ele>
        <time>2022-12-08T13:48:44Z</time>
      </trkpt>
      <trkpt lat="48.02474" lon="-3.70112">
        <ele>174.8</ele>
        <time>2022-12-08T13:48:45Z</time>
      </trkpt>
      <trkpt lat="48.02472" lon="-3.70117">
        <ele>174.9</ele>
        <time>2022-12-08T13:48:47Z</time>
      </trkpt>
      <trkpt lat="48.02469" lon="-3.70127">
        <ele>175.1</ele>
        <time>2022-12-08T13:48:48Z</time>
      </trkpt>
      <trkpt lat="48.02468" lon="-3.70132">
        <ele>175.2</ele>
        <time>2022-12-08T13:48:49Z</time>
      </trkpt>
      <trkpt lat="48.02466" lon="-3.70136">
        <ele>175.2</ele>
        <time>2022-12-08T13:48:50Z</time>
      </trkpt>
      <trkpt lat="48.02464" lon="-3.70144">
        <ele>175.3</ele>
        <time>2022-12-08T13:48:52Z</time>
      </trkpt>
      <trkpt lat="48.02466" lon="-3.70156">
        <ele>175.5</ele>
        <time>2022-12-08T13:48:53Z</time>
      </trkpt>
      <trkpt lat="48.02466" lon="-3.70168">
        <ele>175.6</ele>
        <time>2022-12-08T13:48:54Z</time>
      </trkpt>
      <trkpt lat="48.02465" lon="-3.70177">
        <ele>175.6</ele>
        <time>2022-12-08T13:48:55Z</time>
      </trkpt>
      <trkpt lat="48.02464" lon="-3.70185">
        <ele>175.7</ele>
        <time>2022-12-08T13:48:56Z</time>
      </trkpt>
      <trkpt lat="48.02464" lon="-3.70191">
        <ele>175.7</ele>
        <time>2022-12-08T13:48:57Z</time>
      </trkpt>
      <trkpt lat="48.02464" lon="-3.70198">
        <ele>175.8</ele>
        <time>2022-12-08T13:48:58Z</time>
      </trkpt>
      <trkpt lat="48.02463" lon="-3.70205">
        <ele>175.9</ele>
        <time>2022-12-08T13:48:59Z</time>
      </trkpt>
      <trkpt lat="48.02462" lon="-3.70212">
        <ele>175.9</ele>
        <time>2022-12-08T13:49:00Z</time>
      </trkpt>
      <trkpt lat="48.02463" lon="-3.70219">
        <ele>176</ele>
        <time>2022-12-08T13:49:01Z</time>
      </trkpt>
      <trkpt lat="48.02462" lon="-3.70226">
        <ele>176.1</ele>
        <time>2022-12-08T13:49:02Z</time>
      </trkpt>
      <trkpt lat="48.02462" lon="-3.70233">
        <ele>176.1</ele>
        <time>2022-12-08T13:49:03Z</time>
      </trkpt>
      <trkpt lat="48.02463" lon="-3.7024">
        <ele>176.2</ele>
        <time>2022-12-08T13:49:04Z</time>
      </trkpt>
      <trkpt lat="48.02463" lon="-3.70248">
        <ele>176.2</ele>
        <time>2022-12-08T13:49:05Z</time>
      </trkpt>
      <trkpt lat="48.02464" lon="-3.70256">
        <ele>176.3</ele>
        <time>2022-12-08T13:49:06Z</time>
      </trkpt>
      <trkpt lat="48.02464" lon="-3.70263">
        <ele>176.3</ele>
        <time>2022-12-08T13:49:07Z</time>
      </trkpt>
      <trkpt lat="48.02465" lon="-3.7027">
        <ele>176.4</ele>
        <time>2022-12-08T13:49:08Z</time>
      </trkpt>
      <trkpt lat="48.02466" lon="-3.70278">
        <ele>176.4</ele>
        <time>2022-12-08T13:49:09Z</time>
      </trkpt>
      <trkpt lat="48.02467" lon="-3.70286">
        <ele>176.4</ele>
        <time>2022-12-08T13:49:10Z</time>
      </trkpt>
      <trkpt lat="48.02468" lon="-3.70293">
        <ele>176.5</ele>
        <time>2022-12-08T13:49:11Z</time>
      </trkpt>
      <trkpt lat="48.02468" lon="-3.70301">
        <ele>176.5</ele>
        <time>2022-12-08T13:49:12Z</time>
      </trkpt>
      <trkpt lat="48.02469" lon="-3.70309">
        <ele>176.5</ele>
        <time>2022-12-08T13:49:13Z</time>
      </trkpt>
      <trkpt lat="48.0247" lon="-3.70316">
        <ele>176.5</ele>
        <time>2022-12-08T13:49:14Z</time>
      </trkpt>
      <trkpt lat="48.02471" lon="-3.70323">
        <ele>176.5</ele>
        <time>2022-12-08T13:49:15Z</time>
      </trkpt>
      <trkpt lat="48.02471" lon="-3.7033">
        <ele>176.5</ele>
        <time>2022-12-08T13:49:16Z</time>
      </trkpt>
      <trkpt lat="48.02473" lon="-3.70337">
        <ele>176.5</ele>
        <time>2022-12-08T13:49:17Z</time>
      </trkpt>
      <trkpt lat="48.02474" lon="-3.70344">
        <ele>176.5</ele>
        <time>2022-12-08T13:49:18Z</time>
      </trkpt>
      <trkpt lat="48.02475" lon="-3.70352">
        <ele>176.4</ele>
        <time>2022-12-08T13:49:19Z</time>
      </trkpt>
      <trkpt lat="48.02476" lon="-3.70359">
        <ele>176.4</ele>
        <time>2022-12-08T13:49:20Z</time>
      </trkpt>
      <trkpt lat="48.02477" lon="-3.70367">
        <ele>176.4</ele>
        <time>2022-12-08T13:49:21Z</time>
      </trkpt>
      <trkpt lat="48.02478" lon="-3.70374">
        <ele>176.4</ele>
        <time>2022-12-08T13:49:22Z</time>
      </trkpt>
      <trkpt lat="48.02478" lon="-3.70381">
        <ele>176.4</ele>
        <time>2022-12-08T13:49:23Z</time>
      </trkpt>
      <trkpt lat="48.02479" lon="-3.70388">
        <ele>176.5</ele>
        <time>2022-12-08T13:49:24Z</time>
      </trkpt>
      <trkpt lat="48.02479" lon="-3.70395">
        <ele>176.5</ele>
        <time>2022-12-08T13:49:25Z</time>
      </trkpt>
      <trkpt lat="48.0248" lon="-3.70402">
        <ele>176.5</ele>
        <time>2022-12-08T13:49:26Z</time>
      </trkpt>
      <trkpt lat="48.0248" lon="-3.70409">
        <ele>176.6</ele>
        <time>2022-12-08T13:49:27Z</time>
      </trkpt>
      <trkpt lat="48.02481" lon="-3.70416">
        <ele>176.6</ele>
        <time>2022-12-08T13:49:28Z</time>
      </trkpt>
      <trkpt lat="48.02482" lon="-3.70422">
        <ele>176.7</ele>
        <time>2022-12-08T13:49:29Z</time>
      </trkpt>
      <trkpt lat="48.02483" lon="-3.70429">
        <ele>176.7</ele>
        <time>2022-12-08T13:49:30Z</time>
      </trkpt>
      <trkpt lat="48.02483" lon="-3.70435">
        <ele>176.8</ele>
        <time>2022-12-08T13:49:31Z</time>
      </trkpt>
      <trkpt lat="48.02484" lon="-3.70441">
        <ele>176.8</ele>
        <time>2022-12-08T13:49:32Z</time>
      </trkpt>
      <trkpt lat="48.02484" lon="-3.70446">
        <ele>176.8</ele>
        <time>2022-12-08T13:49:33Z</time>
      </trkpt>
      <trkpt lat="48.02484" lon="-3.70452">
        <ele>176.9</ele>
        <time>2022-12-08T13:49:34Z</time>
      </trkpt>
      <trkpt lat="48.02484" lon="-3.70459">
        <ele>176.9</ele>
        <time>2022-12-08T13:49:35Z</time>
      </trkpt>
      <trkpt lat="48.02485" lon="-3.70465">
        <ele>176.9</ele>
        <time>2022-12-08T13:49:36Z</time>
      </trkpt>
      <trkpt lat="48.02486" lon="-3.7047">
        <ele>176.9</ele>
        <time>2022-12-08T13:49:37Z</time>
      </trkpt>
      <trkpt lat="48.02487" lon="-3.7048">
        <ele>176.8</ele>
        <time>2022-12-08T13:49:38Z</time>
      </trkpt>
      <trkpt lat="48.02487" lon="-3.70483">
        <ele>176.8</ele>
        <time>2022-12-08T13:49:39Z</time>
      </trkpt>
      <trkpt lat="48.02487" lon="-3.70486">
        <ele>176.8</ele>
        <time>2022-12-08T13:49:40Z</time>
      </trkpt>
      <trkpt lat="48.02488" lon="-3.70495">
        <ele>176.7</ele>
        <time>2022-12-08T13:49:41Z</time>
      </trkpt>
      <trkpt lat="48.02489" lon="-3.70502">
        <ele>176.7</ele>
        <time>2022-12-08T13:49:42Z</time>
      </trkpt>
      <trkpt lat="48.0249" lon="-3.70509">
        <ele>176.6</ele>
        <time>2022-12-08T13:49:43Z</time>
      </trkpt>
      <trkpt lat="48.02492" lon="-3.70516">
        <ele>176.6</ele>
        <time>2022-12-08T13:49:44Z</time>
      </trkpt>
      <trkpt lat="48.02493" lon="-3.70523">
        <ele>176.5</ele>
        <time>2022-12-08T13:49:45Z</time>
      </trkpt>
      <trkpt lat="48.02493" lon="-3.70531">
        <ele>176.5</ele>
        <time>2022-12-08T13:49:46Z</time>
      </trkpt>
      <trkpt lat="48.02494" lon="-3.70538">
        <ele>176.5</ele>
        <time>2022-12-08T13:49:47Z</time>
      </trkpt>
      <trkpt lat="48.02494" lon="-3.70545">
        <ele>176.5</ele>
        <time>2022-12-08T13:49:48Z</time>
      </trkpt>
      <trkpt lat="48.02495" lon="-3.70552">
        <ele>176.4</ele>
        <time>2022-12-08T13:49:49Z</time>
      </trkpt>
      <trkpt lat="48.02496" lon="-3.7056">
        <ele>176.4</ele>
        <time>2022-12-08T13:49:50Z</time>
      </trkpt>
      <trkpt lat="48.02496" lon="-3.70567">
        <ele>176.4</ele>
        <time>2022-12-08T13:49:51Z</time>
      </trkpt>
      <trkpt lat="48.02497" lon="-3.70575">
        <ele>176.3</ele>
        <time>2022-12-08T13:49:52Z</time>
      </trkpt>
      <trkpt lat="48.02498" lon="-3.70582">
        <ele>176.3</ele>
        <time>2022-12-08T13:49:53Z</time>
      </trkpt>
      <trkpt lat="48.02499" lon="-3.7059">
        <ele>176.3</ele>
        <time>2022-12-08T13:49:54Z</time>
      </trkpt>
      <trkpt lat="48.025" lon="-3.70597">
        <ele>176.2</ele>
        <time>2022-12-08T13:49:55Z</time>
      </trkpt>
      <trkpt lat="48.02501" lon="-3.70604">
        <ele>176.2</ele>
        <time>2022-12-08T13:49:56Z</time>
      </trkpt>
      <trkpt lat="48.02501" lon="-3.70612">
        <ele>176.2</ele>
        <time>2022-12-08T13:49:57Z</time>
      </trkpt>
      <trkpt lat="48.02502" lon="-3.7062">
        <ele>176.2</ele>
        <time>2022-12-08T13:49:58Z</time>
      </trkpt>
      <trkpt lat="48.02503" lon="-3.70627">
        <ele>176.2</ele>
        <time>2022-12-08T13:49:59Z</time>
      </trkpt>
      <trkpt lat="48.02505" lon="-3.70635">
        <ele>176.2</ele>
        <time>2022-12-08T13:50:00Z</time>
      </trkpt>
      <trkpt lat="48.02517" lon="-3.7074">
        <ele>175.4</ele>
      </trkpt>
      <trkpt lat="48.02517" lon="-3.70778">
        <ele>175.2</ele>
      </trkpt>
      <trkpt lat="48.02513" lon="-3.70834">
        <ele>175.5</ele>
      </trkpt>
      <trkpt lat="48.02504" lon="-3.70875">
        <ele>175.1</ele>
      </trkpt>
      <trkpt lat="48.0249" lon="-3.70921">
        <ele>175.7</ele>
      </trkpt>
      <trkpt lat="48.02416" lon="-3.71097">
        <ele>176.4</ele>
        <extensions>
          <visugpx:TrkExtension xmlns:visugpx="https://www.visugpx.com/editgpx/">
            <visugpx:node>1</visugpx:node>
            </visugpx:TrkExtension>
        </extensions>
      </trkpt>
      <trkpt lat="48.02383" lon="-3.71176">
        <ele>175.8</ele>
      </trkpt>
      <trkpt lat="48.02368" lon="-3.71211">
        <ele>174.7</ele>
      </trkpt>
      <trkpt lat="48.02297" lon="-3.71385">
        <ele>174</ele>
      </trkpt>
      <trkpt lat="48.02201" lon="-3.71602">
        <ele>176.2</ele>
      </trkpt>
      <trkpt lat="48.02056" lon="-3.71957">
        <ele>180.5</ele>
      </trkpt>
      <trkpt lat="48.02045" lon="-3.71979">
        <ele>180.6</ele>
      </trkpt>
      <trkpt lat="48.02036" lon="-3.71996">
        <ele>181.1</ele>
      </trkpt>
      <trkpt lat="48.02018" lon="-3.72021">
        <ele>180.9</ele>
      </trkpt>
      <trkpt lat="48.02001" lon="-3.72043">
        <ele>181</ele>
      </trkpt>
      <trkpt lat="48.01985" lon="-3.72056">
        <ele>181</ele>
      </trkpt>
      <trkpt lat="48.01967" lon="-3.72072">
        <ele>180.9</ele>
        <extensions>
          <visugpx:TrkExtension xmlns:visugpx="https://www.visugpx.com/editgpx/">
            <visugpx:node>2</visugpx:node>
            </visugpx:TrkExtension>
        </extensions>
      </trkpt>
      <trkpt lat="48.01939" lon="-3.72088">
        <ele>181.4</ele>
        <time>2022-12-08T14:04:15Z</time>
        <extensions>
          <visugpx:TrkExtension xmlns:visugpx="https://www.visugpx.com/editgpx/">
            <visugpx:node>3</visugpx:node>
            </visugpx:TrkExtension>
        </extensions>
      </trkpt>
      <trkpt lat="48.01934" lon="-3.7209">
        <ele>181.4</ele>
        <time>2022-12-08T14:04:16Z</time>
      </trkpt>
      <trkpt lat="48.01928" lon="-3.72092">
        <ele>181.4</ele>
        <time>2022-12-08T14:04:17Z</time>
      </trkpt>
      <trkpt lat="48.01923" lon="-3.72094">
        <ele>181.5</ele>
        <time>2022-12-08T14:04:18Z</time>
      </trkpt>
      <trkpt lat="48.01918" lon="-3.72096">
        <ele>181.5</ele>
        <time>2022-12-08T14:04:19Z</time>
      </trkpt>
      <trkpt lat="48.01913" lon="-3.72098">
        <ele>181.6</ele>
        <time>2022-12-08T14:04:20Z</time>
      </trkpt>
      <trkpt lat="48.01907" lon="-3.72099">
        <ele>181.6</ele>
        <time>2022-12-08T14:04:21Z</time>
      </trkpt>
      <trkpt lat="48.01902" lon="-3.721">
        <ele>181.7</ele>
        <time>2022-12-08T14:04:22Z</time>
      </trkpt>
      <trkpt lat="48.01897" lon="-3.72102">
        <ele>181.7</ele>
        <time>2022-12-08T14:04:23Z</time>
      </trkpt>
      <trkpt lat="48.01892" lon="-3.72103">
        <ele>181.8</ele>
        <time>2022-12-08T14:04:24Z</time>
      </trkpt>
      <trkpt lat="48.01886" lon="-3.72104">
        <ele>181.9</ele>
        <time>2022-12-08T14:04:25Z</time>
      </trkpt>
      <trkpt lat="48.01881" lon="-3.72105">
        <ele>181.9</ele>
        <time>2022-12-08T14:04:26Z</time>
      </trkpt>
      <trkpt lat="48.01875" lon="-3.72106">
        <ele>182</ele>
        <time>2022-12-08T14:04:27Z</time>
      </trkpt>
      <trkpt lat="48.0187" lon="-3.72106">
        <ele>182.1</ele>
        <time>2022-12-08T14:04:28Z</time>
      </trkpt>
      <trkpt lat="48.01864" lon="-3.72107">
        <ele>182.2</ele>
        <time>2022-12-08T14:04:29Z</time>
      </trkpt>
      <trkpt lat="48.01858" lon="-3.72107">
        <ele>182.3</ele>
        <time>2022-12-08T14:04:30Z</time>
      </trkpt>
      <trkpt lat="48.01852" lon="-3.72107">
        <ele>182.4</ele>
        <time>2022-12-08T14:04:31Z</time>
      </trkpt>
      <trkpt lat="48.01847" lon="-3.72107">
        <ele>182.5</ele>
        <time>2022-12-08T14:04:32Z</time>
      </trkpt>
      <trkpt lat="48.01841" lon="-3.72106">
        <ele>182.6</ele>
        <time>2022-12-08T14:04:33Z</time>
      </trkpt>
      <trkpt lat="48.01836" lon="-3.72105">
        <ele>182.7</ele>
        <time>2022-12-08T14:04:34Z</time>
      </trkpt>
      <trkpt lat="48.01832" lon="-3.72104">
        <ele>182.8</ele>
        <time>2022-12-08T14:04:35Z</time>
      </trkpt>
      <trkpt lat="48.01829" lon="-3.72103">
        <ele>182.9</ele>
        <time>2022-12-08T14:04:36Z</time>
      </trkpt>
      <trkpt lat="48.01827" lon="-3.72103">
        <ele>182.9</ele>
        <time>2022-12-08T14:04:37Z</time>
      </trkpt>
      <trkpt lat="48.01824" lon="-3.72103">
        <ele>182.9</ele>
        <time>2022-12-08T14:04:38Z</time>
      </trkpt>
      <trkpt lat="48.0182" lon="-3.72105">
        <ele>183</ele>
        <time>2022-12-08T14:04:39Z</time>
      </trkpt>
      <trkpt lat="48.01815" lon="-3.72106">
        <ele>183.1</ele>
        <time>2022-12-08T14:04:40Z</time>
      </trkpt>
      <trkpt lat="48.01809" lon="-3.72107">
        <ele>183.2</ele>
        <time>2022-12-08T14:04:41Z</time>
      </trkpt>
      <trkpt lat="48.01804" lon="-3.72107">
        <ele>183.4</ele>
        <time>2022-12-08T14:04:42Z</time>
      </trkpt>
      <trkpt lat="48.01798" lon="-3.72107">
        <ele>183.5</ele>
        <time>2022-12-08T14:04:43Z</time>
      </trkpt>
      <trkpt lat="48.01792" lon="-3.72107">
        <ele>183.7</ele>
        <time>2022-12-08T14:04:44Z</time>
      </trkpt>
      <trkpt lat="48.01786" lon="-3.72106">
        <ele>183.8</ele>
        <time>2022-12-08T14:04:45Z</time>
      </trkpt>
      <trkpt lat="48.01781" lon="-3.72106">
        <ele>184</ele>
        <time>2022-12-08T14:04:46Z</time>
      </trkpt>
      <trkpt lat="48.01775" lon="-3.72106">
        <ele>184.1</ele>
        <time>2022-12-08T14:04:47Z</time>
      </trkpt>
      <trkpt lat="48.0177" lon="-3.72107">
        <ele>184.2</ele>
        <time>2022-12-08T14:04:48Z</time>
      </trkpt>
      <trkpt lat="48.01764" lon="-3.72107">
        <ele>184.4</ele>
        <time>2022-12-08T14:04:49Z</time>
      </trkpt>
      <trkpt lat="48.01759" lon="-3.72107">
        <ele>184.5</ele>
        <time>2022-12-08T14:04:50Z</time>
      </trkpt>
      <trkpt lat="48.01755" lon="-3.72107">
        <ele>184.6</ele>
        <time>2022-12-08T14:04:51Z</time>
      </trkpt>
      <trkpt lat="48.0175" lon="-3.72108">
        <ele>184.7</ele>
        <time>2022-12-08T14:04:52Z</time>
      </trkpt>
      <trkpt lat="48.01744" lon="-3.72108">
        <ele>184.8</ele>
        <time>2022-12-08T14:04:53Z</time>
      </trkpt>
      <trkpt lat="48.01739" lon="-3.72107">
        <ele>184.9</ele>
        <time>2022-12-08T14:04:54Z</time>
      </trkpt>
      <trkpt lat="48.01734" lon="-3.72106">
        <ele>185</ele>
        <time>2022-12-08T14:04:55Z</time>
      </trkpt>
      <trkpt lat="48.01728" lon="-3.72106">
        <ele>185.1</ele>
        <time>2022-12-08T14:04:56Z</time>
      </trkpt>
      <trkpt lat="48.01723" lon="-3.72106">
        <ele>185.3</ele>
        <time>2022-12-08T14:04:57Z</time>
      </trkpt>
      <trkpt lat="48.01718" lon="-3.72105">
        <ele>185.4</ele>
        <time>2022-12-08T14:04:58Z</time>
      </trkpt>
      <trkpt lat="48.01712" lon="-3.72106">
        <ele>185.5</ele>
        <time>2022-12-08T14:04:59Z</time>
      </trkpt>
      <trkpt lat="48.01707" lon="-3.72106">
        <ele>185.6</ele>
        <time>2022-12-08T14:05:00Z</time>
      </trkpt>
      <trkpt lat="48.01702" lon="-3.72107">
        <ele>185.7</ele>
        <time>2022-12-08T14:05:01Z</time>
      </trkpt>
      <trkpt lat="48.01697" lon="-3.72107">
        <ele>185.8</ele>
        <time>2022-12-08T14:05:02Z</time>
      </trkpt>
      <trkpt lat="48.01693" lon="-3.72108">
        <ele>185.9</ele>
        <time>2022-12-08T14:05:03Z</time>
      </trkpt>
      <trkpt lat="48.01688" lon="-3.72108">
        <ele>186</ele>
        <time>2022-12-08T14:05:04Z</time>
      </trkpt>
      <trkpt lat="48.01684" lon="-3.72108">
        <ele>186</ele>
        <time>2022-12-08T14:05:05Z</time>
      </trkpt>
      <trkpt lat="48.01678" lon="-3.72108">
        <ele>186.1</ele>
        <time>2022-12-08T14:05:06Z</time>
      </trkpt>
      <trkpt lat="48.01671" lon="-3.72109">
        <ele>186.2</ele>
        <time>2022-12-08T14:05:07Z</time>
      </trkpt>
      <trkpt lat="48.01665" lon="-3.72109">
        <ele>186.3</ele>
        <time>2022-12-08T14:05:08Z</time>
      </trkpt>
      <trkpt lat="48.0166" lon="-3.72109">
        <ele>186.4</ele>
        <time>2022-12-08T14:05:09Z</time>
      </trkpt>
      <trkpt lat="48.01655" lon="-3.72109">
        <ele>186.4</ele>
        <time>2022-12-08T14:05:10Z</time>
      </trkpt>
      <trkpt lat="48.01649" lon="-3.7211">
        <ele>186.5</ele>
        <time>2022-12-08T14:05:11Z</time>
      </trkpt>
      <trkpt lat="48.01644" lon="-3.72109">
        <ele>186.5</ele>
        <time>2022-12-08T14:05:12Z</time>
      </trkpt>
      <trkpt lat="48.01639" lon="-3.72109">
        <ele>186.5</ele>
        <time>2022-12-08T14:05:13Z</time>
      </trkpt>
      <trkpt lat="48.01633" lon="-3.72109">
        <ele>186.6</ele>
        <time>2022-12-08T14:05:14Z</time>
      </trkpt>
      <trkpt lat="48.01628" lon="-3.7211">
        <ele>186.6</ele>
        <time>2022-12-08T14:05:15Z</time>
      </trkpt>
      <trkpt lat="48.01623" lon="-3.72111">
        <ele>186.7</ele>
        <time>2022-12-08T14:05:16Z</time>
      </trkpt>
      <trkpt lat="48.01617" lon="-3.72112">
        <ele>186.7</ele>
        <time>2022-12-08T14:05:17Z</time>
      </trkpt>
      <trkpt lat="48.01612" lon="-3.72113">
        <ele>186.7</ele>
        <time>2022-12-08T14:05:18Z</time>
      </trkpt>
      <trkpt lat="48.01606" lon="-3.72114">
        <ele>186.7</ele>
        <time>2022-12-08T14:05:19Z</time>
      </trkpt>
      <trkpt lat="48.016" lon="-3.72115">
        <ele>186.7</ele>
        <time>2022-12-08T14:05:20Z</time>
      </trkpt>
      <trkpt lat="48.01595" lon="-3.72116">
        <ele>186.7</ele>
        <time>2022-12-08T14:05:21Z</time>
      </trkpt>
      <trkpt lat="48.01589" lon="-3.72116">
        <ele>186.7</ele>
        <time>2022-12-08T14:05:22Z</time>
      </trkpt>
      <trkpt lat="48.01584" lon="-3.72117">
        <ele>186.7</ele>
        <time>2022-12-08T14:05:23Z</time>
      </trkpt>
      <trkpt lat="48.01578" lon="-3.72118">
        <ele>186.6</ele>
        <time>2022-12-08T14:05:24Z</time>
      </trkpt>
      <trkpt lat="48.01573" lon="-3.7212">
        <ele>186.6</ele>
        <time>2022-12-08T14:05:25Z</time>
      </trkpt>
      <trkpt lat="48.01567" lon="-3.72121">
        <ele>186.6</ele>
        <time>2022-12-08T14:05:26Z</time>
      </trkpt>
      <trkpt lat="48.01562" lon="-3.72123">
        <ele>186.5</ele>
        <time>2022-12-08T14:05:27Z</time>
      </trkpt>
      <trkpt lat="48.01557" lon="-3.72124">
        <ele>186.5</ele>
        <time>2022-12-08T14:05:28Z</time>
      </trkpt>
      <trkpt lat="48.01551" lon="-3.72126">
        <ele>186.5</ele>
        <time>2022-12-08T14:05:29Z</time>
      </trkpt>
      <trkpt lat="48.01546" lon="-3.72128">
        <ele>186.5</ele>
        <time>2022-12-08T14:05:30Z</time>
      </trkpt>
      <trkpt lat="48.0154" lon="-3.7213">
        <ele>186.4</ele>
        <time>2022-12-08T14:05:31Z</time>
      </trkpt>
      <trkpt lat="48.01535" lon="-3.72133">
        <ele>186.4</ele>
        <time>2022-12-08T14:05:32Z</time>
      </trkpt>
      <trkpt lat="48.01531" lon="-3.72137">
        <ele>186.4</ele>
        <time>2022-12-08T14:05:33Z</time>
      </trkpt>
      <trkpt lat="48.01528" lon="-3.7214">
        <ele>186.4</ele>
        <time>2022-12-08T14:05:34Z</time>
      </trkpt>
      <trkpt lat="48.01527" lon="-3.7214">
        <ele>186.4</ele>
        <time>2022-12-08T14:05:35Z</time>
      </trkpt>
      <trkpt lat="48.01523" lon="-3.72142">
        <ele>186.4</ele>
        <time>2022-12-08T14:05:36Z</time>
      </trkpt>
      <trkpt lat="48.01519" lon="-3.72143">
        <ele>186.3</ele>
        <time>2022-12-08T14:05:37Z</time>
      </trkpt>
      <trkpt lat="48.01515" lon="-3.72145">
        <ele>186.1</ele>
        <time>2022-12-08T14:05:38Z</time>
      </trkpt>
      <trkpt lat="48.0151" lon="-3.72148">
        <ele>185.9</ele>
        <time>2022-12-08T14:05:39Z</time>
      </trkpt>
      <trkpt lat="48.01504" lon="-3.72152">
        <ele>185.6</ele>
        <time>2022-12-08T14:05:40Z</time>
      </trkpt>
      <trkpt lat="48.01499" lon="-3.72156">
        <ele>185.3</ele>
        <time>2022-12-08T14:05:41Z</time>
      </trkpt>
      <trkpt lat="48.01493" lon="-3.72161">
        <ele>185</ele>
        <time>2022-12-08T14:05:42Z</time>
      </trkpt>
      <trkpt lat="48.01487" lon="-3.72166">
        <ele>184.7</ele>
        <time>2022-12-08T14:05:43Z</time>
      </trkpt>
      <trkpt lat="48.01482" lon="-3.7217">
        <ele>184.5</ele>
        <time>2022-12-08T14:05:44Z</time>
      </trkpt>
      <trkpt lat="48.01475" lon="-3.72176">
        <ele>184.2</ele>
        <time>2022-12-08T14:05:45Z</time>
      </trkpt>
      <trkpt lat="48.0147" lon="-3.72182">
        <ele>184</ele>
        <time>2022-12-08T14:05:46Z</time>
      </trkpt>
      <trkpt lat="48.01463" lon="-3.72187">
        <ele>183.8</ele>
        <time>2022-12-08T14:05:47Z</time>
      </trkpt>
      <trkpt lat="48.01458" lon="-3.72193">
        <ele>183.7</ele>
        <time>2022-12-08T14:05:48Z</time>
      </trkpt>
      <trkpt lat="48.01452" lon="-3.72198">
        <ele>183.5</ele>
        <time>2022-12-08T14:05:49Z</time>
      </trkpt>
      <trkpt lat="48.01446" lon="-3.72204">
        <ele>183.4</ele>
        <time>2022-12-08T14:05:50Z</time>
      </trkpt>
      <trkpt lat="48.0144" lon="-3.7221">
        <ele>183.2</ele>
        <time>2022-12-08T14:05:51Z</time>
      </trkpt>
      <trkpt lat="48.01434" lon="-3.72216">
        <ele>183.1</ele>
        <time>2022-12-08T14:05:52Z</time>
      </trkpt>
      <trkpt lat="48.01428" lon="-3.72223">
        <ele>182.9</ele>
        <time>2022-12-08T14:05:53Z</time>
      </trkpt>
      <trkpt lat="48.01423" lon="-3.72229">
        <ele>182.8</ele>
        <time>2022-12-08T14:05:54Z</time>
      </trkpt>
      <trkpt lat="48.01417" lon="-3.72235">
        <ele>182.7</ele>
        <time>2022-12-08T14:05:55Z</time>
      </trkpt>
      <trkpt lat="48.01412" lon="-3.72242">
        <ele>182.6</ele>
        <time>2022-12-08T14:05:56Z</time>
      </trkpt>
      <trkpt lat="48.01407" lon="-3.72249">
        <ele>182.5</ele>
        <time>2022-12-08T14:05:57Z</time>
      </trkpt>
      <trkpt lat="48.01401" lon="-3.72256">
        <ele>182.3</ele>
        <time>2022-12-08T14:05:58Z</time>
      </trkpt>
      <trkpt lat="48.01396" lon="-3.72263">
        <ele>182.2</ele>
        <time>2022-12-08T14:05:59Z</time>
      </trkpt>
      <trkpt lat="48.01391" lon="-3.72271">
        <ele>182.1</ele>
        <time>2022-12-08T14:06:00Z</time>
      </trkpt>
      <trkpt lat="48.01386" lon="-3.72279">
        <ele>181.9</ele>
        <time>2022-12-08T14:06:01Z</time>
      </trkpt>
      <trkpt lat="48.01381" lon="-3.72288">
        <ele>181.8</ele>
        <time>2022-12-08T14:06:02Z</time>
      </trkpt>
      <trkpt lat="48.01375" lon="-3.72296">
        <ele>181.6</ele>
        <time>2022-12-08T14:06:03Z</time>
      </trkpt>
      <trkpt lat="48.01371" lon="-3.72305">
        <ele>181.4</ele>
        <time>2022-12-08T14:06:04Z</time>
      </trkpt>
      <trkpt lat="48.01366" lon="-3.72314">
        <ele>181.3</ele>
        <time>2022-12-08T14:06:05Z</time>
      </trkpt>
      <trkpt lat="48.01362" lon="-3.72323">
        <ele>181.2</ele>
        <time>2022-12-08T14:06:06Z</time>
      </trkpt>
      <trkpt lat="48.01357" lon="-3.72332">
        <ele>181</ele>
        <time>2022-12-08T14:06:07Z</time>
      </trkpt>
      <trkpt lat="48.01352" lon="-3.72341">
        <ele>180.8</ele>
        <time>2022-12-08T14:06:08Z</time>
      </trkpt>
      <trkpt lat="48.01348" lon="-3.7235">
        <ele>180.6</ele>
        <time>2022-12-08T14:06:09Z</time>
      </trkpt>
      <trkpt lat="48.01342" lon="-3.72359">
        <ele>180.4</ele>
        <time>2022-12-08T14:06:10Z</time>
      </trkpt>
      <trkpt lat="48.01337" lon="-3.72369">
        <ele>180.2</ele>
        <time>2022-12-08T14:06:11Z</time>
      </trkpt>
      <trkpt lat="48.01305" lon="-3.72433">
        <ele>178.8</ele>
        <time>2022-12-08T14:06:17Z</time>
      </trkpt>
      <trkpt lat="48.01302" lon="-3.7244">
        <ele>178.7</ele>
        <time>2022-12-08T14:06:18Z</time>
      </trkpt>
      <trkpt lat="48.01298" lon="-3.72447">
        <ele>178.6</ele>
        <time>2022-12-08T14:06:19Z</time>
      </trkpt>
      <trkpt lat="48.01292" lon="-3.72456">
        <ele>178.4</ele>
        <time>2022-12-08T14:06:20Z</time>
      </trkpt>
      <trkpt lat="48.01287" lon="-3.72465">
        <ele>178.2</ele>
        <time>2022-12-08T14:06:21Z</time>
      </trkpt>
      <trkpt lat="48.01282" lon="-3.72475">
        <ele>178</ele>
        <time>2022-12-08T14:06:22Z</time>
      </trkpt>
      <trkpt lat="48.01278" lon="-3.72484">
        <ele>177.8</ele>
        <time>2022-12-08T14:06:23Z</time>
      </trkpt>
      <trkpt lat="48.01273" lon="-3.72494">
        <ele>177.6</ele>
        <time>2022-12-08T14:06:24Z</time>
      </trkpt>
      <trkpt lat="48.01268" lon="-3.72503">
        <ele>177.5</ele>
        <time>2022-12-08T14:06:25Z</time>
      </trkpt>
      <trkpt lat="48.01263" lon="-3.72512">
        <ele>177.3</ele>
        <time>2022-12-08T14:06:26Z</time>
      </trkpt>
      <trkpt lat="48.01258" lon="-3.72522">
        <ele>177.1</ele>
        <time>2022-12-08T14:06:27Z</time>
      </trkpt>
      <trkpt lat="48.01254" lon="-3.72532">
        <ele>176.9</ele>
        <time>2022-12-08T14:06:28Z</time>
      </trkpt>
      <trkpt lat="48.01249" lon="-3.72542">
        <ele>176.6</ele>
        <time>2022-12-08T14:06:29Z</time>
      </trkpt>
      <trkpt lat="48.01244" lon="-3.72552">
        <ele>176.4</ele>
        <time>2022-12-08T14:06:30Z</time>
      </trkpt>
      <trkpt lat="48.01238" lon="-3.72562">
        <ele>176.2</ele>
        <time>2022-12-08T14:06:31Z</time>
      </trkpt>
      <trkpt lat="48.01233" lon="-3.72572">
        <ele>176</ele>
        <time>2022-12-08T14:06:32Z</time>
      </trkpt>
      <trkpt lat="48.01228" lon="-3.72582">
        <ele>175.8</ele>
        <time>2022-12-08T14:06:33Z</time>
      </trkpt>
      <trkpt lat="48.01223" lon="-3.72592">
        <ele>175.6</ele>
        <time>2022-12-08T14:06:34Z</time>
      </trkpt>
      <trkpt lat="48.01217" lon="-3.72602">
        <ele>175.4</ele>
        <time>2022-12-08T14:06:35Z</time>
      </trkpt>
      <trkpt lat="48.01211" lon="-3.72613">
        <ele>175.2</ele>
        <time>2022-12-08T14:06:36Z</time>
      </trkpt>
      <trkpt lat="48.01205" lon="-3.72623">
        <ele>175</ele>
        <time>2022-12-08T14:06:37Z</time>
      </trkpt>
      <trkpt lat="48.01199" lon="-3.72632">
        <ele>174.8</ele>
        <time>2022-12-08T14:06:38Z</time>
      </trkpt>
      <trkpt lat="48.01194" lon="-3.72642">
        <ele>174.6</ele>
        <time>2022-12-08T14:06:39Z</time>
      </trkpt>
      <trkpt lat="48.01189" lon="-3.72652">
        <ele>174.4</ele>
        <time>2022-12-08T14:06:40Z</time>
      </trkpt>
      <trkpt lat="48.01183" lon="-3.72662">
        <ele>174.2</ele>
        <time>2022-12-08T14:06:41Z</time>
      </trkpt>
      <trkpt lat="48.01179" lon="-3.72671">
        <ele>174.1</ele>
        <time>2022-12-08T14:06:42Z</time>
      </trkpt>
      <trkpt lat="48.01173" lon="-3.7268">
        <ele>173.9</ele>
        <time>2022-12-08T14:06:43Z</time>
      </trkpt>
      <trkpt lat="48.01168" lon="-3.7269">
        <ele>173.8</ele>
        <time>2022-12-08T14:06:44Z</time>
      </trkpt>
      <trkpt lat="48.01162" lon="-3.72701">
        <ele>173.6</ele>
        <time>2022-12-08T14:06:45Z</time>
      </trkpt>
      <trkpt lat="48.01157" lon="-3.7271">
        <ele>173.4</ele>
        <time>2022-12-08T14:06:46Z</time>
      </trkpt>
      <trkpt lat="48.01152" lon="-3.7272">
        <ele>173.3</ele>
        <time>2022-12-08T14:06:47Z</time>
      </trkpt>
      <trkpt lat="48.01147" lon="-3.7273">
        <ele>173.2</ele>
        <time>2022-12-08T14:06:48Z</time>
      </trkpt>
      <trkpt lat="48.01142" lon="-3.7274">
        <ele>173</ele>
        <time>2022-12-08T14:06:49Z</time>
      </trkpt>
      <trkpt lat="48.01137" lon="-3.7275">
        <ele>172.9</ele>
        <time>2022-12-08T14:06:50Z</time>
      </trkpt>
      <trkpt lat="48.01132" lon="-3.7276">
        <ele>172.7</ele>
        <time>2022-12-08T14:06:51Z</time>
      </trkpt>
      <trkpt lat="48.01128" lon="-3.7277">
        <ele>172.6</ele>
        <time>2022-12-08T14:06:52Z</time>
      </trkpt>
      <trkpt lat="48.01123" lon="-3.72779">
        <ele>172.5</ele>
        <time>2022-12-08T14:06:53Z</time>
      </trkpt>
      <trkpt lat="48.01118" lon="-3.72789">
        <ele>172.4</ele>
        <time>2022-12-08T14:06:54Z</time>
      </trkpt>
      <trkpt lat="48.01113" lon="-3.72798">
        <ele>172.2</ele>
        <time>2022-12-08T14:06:55Z</time>
      </trkpt>
      <trkpt lat="48.01109" lon="-3.72807">
        <ele>172.1</ele>
        <time>2022-12-08T14:06:56Z</time>
      </trkpt>
      <trkpt lat="48.01105" lon="-3.72818">
        <ele>171.9</ele>
        <time>2022-12-08T14:06:57Z</time>
      </trkpt>
      <trkpt lat="48.011" lon="-3.72827">
        <ele>171.7</ele>
        <time>2022-12-08T14:06:58Z</time>
      </trkpt>
      <trkpt lat="48.01096" lon="-3.72839">
        <ele>171.5</ele>
        <time>2022-12-08T14:06:59Z</time>
      </trkpt>
      <trkpt lat="48.01092" lon="-3.72851">
        <ele>171.3</ele>
        <time>2022-12-08T14:07:00Z</time>
      </trkpt>
      <trkpt lat="48.01088" lon="-3.7286">
        <ele>171.2</ele>
        <time>2022-12-08T14:07:01Z</time>
      </trkpt>
      <trkpt lat="48.01084" lon="-3.7287">
        <ele>171</ele>
        <time>2022-12-08T14:07:02Z</time>
      </trkpt>
      <trkpt lat="48.0108" lon="-3.72881">
        <ele>170.9</ele>
        <time>2022-12-08T14:07:03Z</time>
      </trkpt>
      <trkpt lat="48.01075" lon="-3.72892">
        <ele>170.7</ele>
        <time>2022-12-08T14:07:04Z</time>
      </trkpt>
      <trkpt lat="48.01071" lon="-3.72903">
        <ele>170.5</ele>
        <time>2022-12-08T14:07:05Z</time>
      </trkpt>
      <trkpt lat="48.01066" lon="-3.72913">
        <ele>170.3</ele>
        <time>2022-12-08T14:07:06Z</time>
      </trkpt>
      <trkpt lat="48.01062" lon="-3.72923">
        <ele>170.1</ele>
        <time>2022-12-08T14:07:07Z</time>
      </trkpt>
      <trkpt lat="48.01058" lon="-3.72934">
        <ele>169.9</ele>
        <time>2022-12-08T14:07:08Z</time>
      </trkpt>
      <trkpt lat="48.01054" lon="-3.72945">
        <ele>169.7</ele>
        <time>2022-12-08T14:07:09Z</time>
      </trkpt>
      <trkpt lat="48.0105" lon="-3.72956">
        <ele>169.5</ele>
        <time>2022-12-08T14:07:10Z</time>
      </trkpt>
      <trkpt lat="48.01046" lon="-3.72967">
        <ele>169.3</ele>
        <time>2022-12-08T14:07:11Z</time>
      </trkpt>
      <trkpt lat="48.01042" lon="-3.72978">
        <ele>169.2</ele>
        <time>2022-12-08T14:07:12Z</time>
      </trkpt>
      <trkpt lat="48.01039" lon="-3.72988">
        <ele>169</ele>
        <time>2022-12-08T14:07:13Z</time>
      </trkpt>
      <trkpt lat="48.01036" lon="-3.72998">
        <ele>168.8</ele>
        <time>2022-12-08T14:07:14Z</time>
      </trkpt>
      <trkpt lat="48.01032" lon="-3.73009">
        <ele>168.7</ele>
        <time>2022-12-08T14:07:15Z</time>
      </trkpt>
      <trkpt lat="48.01029" lon="-3.73019">
        <ele>168.5</ele>
        <time>2022-12-08T14:07:16Z</time>
      </trkpt>
      <trkpt lat="48.01025" lon="-3.73029">
        <ele>168.4</ele>
        <time>2022-12-08T14:07:17Z</time>
      </trkpt>
      <trkpt lat="48.01021" lon="-3.7304">
        <ele>168.2</ele>
        <time>2022-12-08T14:07:18Z</time>
      </trkpt>
      <trkpt lat="48.01017" lon="-3.7305">
        <ele>168.1</ele>
        <time>2022-12-08T14:07:19Z</time>
      </trkpt>
      <trkpt lat="48.01013" lon="-3.7306">
        <ele>167.9</ele>
        <time>2022-12-08T14:07:20Z</time>
      </trkpt>
      <trkpt lat="48.01009" lon="-3.73071">
        <ele>167.8</ele>
        <time>2022-12-08T14:07:21Z</time>
      </trkpt>
      <trkpt lat="48.01005" lon="-3.73081">
        <ele>167.6</ele>
        <time>2022-12-08T14:07:22Z</time>
      </trkpt>
      <trkpt lat="48.01002" lon="-3.73091">
        <ele>167.5</ele>
        <time>2022-12-08T14:07:23Z</time>
      </trkpt>
      <trkpt lat="48.00998" lon="-3.73101">
        <ele>167.3</ele>
        <time>2022-12-08T14:07:24Z</time>
      </trkpt>
      <trkpt lat="48.00995" lon="-3.7311">
        <ele>167.2</ele>
        <time>2022-12-08T14:07:25Z</time>
      </trkpt>
      <trkpt lat="48.00991" lon="-3.7312">
        <ele>167</ele>
        <time>2022-12-08T14:07:26Z</time>
      </trkpt>
      <trkpt lat="48.00988" lon="-3.73131">
        <ele>166.9</ele>
        <time>2022-12-08T14:07:27Z</time>
      </trkpt>
      <trkpt lat="48.00984" lon="-3.73141">
        <ele>166.7</ele>
        <time>2022-12-08T14:07:28Z</time>
      </trkpt>
      <trkpt lat="48.00981" lon="-3.73151">
        <ele>166.6</ele>
        <time>2022-12-08T14:07:29Z</time>
      </trkpt>
      <trkpt lat="48.00977" lon="-3.73162">
        <ele>166.5</ele>
        <time>2022-12-08T14:07:30Z</time>
      </trkpt>
      <trkpt lat="48.00973" lon="-3.73172">
        <ele>166.3</ele>
        <time>2022-12-08T14:07:31Z</time>
      </trkpt>
      <trkpt lat="48.00969" lon="-3.73182">
        <ele>166.2</ele>
        <time>2022-12-08T14:07:32Z</time>
      </trkpt>
      <trkpt lat="48.00966" lon="-3.73193">
        <ele>166</ele>
        <time>2022-12-08T14:07:33Z</time>
      </trkpt>
      <trkpt lat="48.00962" lon="-3.73203">
        <ele>165.8</ele>
        <time>2022-12-08T14:07:34Z</time>
      </trkpt>
      <trkpt lat="48.00959" lon="-3.73213">
        <ele>165.7</ele>
        <time>2022-12-08T14:07:35Z</time>
      </trkpt>
      <trkpt lat="48.00955" lon="-3.73223">
        <ele>165.5</ele>
        <time>2022-12-08T14:07:36Z</time>
      </trkpt>
      <trkpt lat="48.00952" lon="-3.73233">
        <ele>165.3</ele>
        <time>2022-12-08T14:07:37Z</time>
      </trkpt>
      <trkpt lat="48.00948" lon="-3.73243">
        <ele>165.2</ele>
        <time>2022-12-08T14:07:38Z</time>
      </trkpt>
      <trkpt lat="48.00945" lon="-3.73254">
        <ele>165</ele>
        <time>2022-12-08T14:07:39Z</time>
      </trkpt>
      <trkpt lat="48.00941" lon="-3.73264">
        <ele>164.8</ele>
        <time>2022-12-08T14:07:40Z</time>
      </trkpt>
      <trkpt lat="48.00937" lon="-3.73274">
        <ele>164.6</ele>
        <time>2022-12-08T14:07:41Z</time>
      </trkpt>
      <trkpt lat="48.00932" lon="-3.73284">
        <ele>164.4</ele>
        <time>2022-12-08T14:07:42Z</time>
      </trkpt>
      <trkpt lat="48.00928" lon="-3.73294">
        <ele>164.2</ele>
        <time>2022-12-08T14:07:43Z</time>
      </trkpt>
      <trkpt lat="48.00924" lon="-3.73304">
        <ele>164.1</ele>
        <time>2022-12-08T14:07:44Z</time>
      </trkpt>
      <trkpt lat="48.00919" lon="-3.73314">
        <ele>163.9</ele>
        <time>2022-12-08T14:07:45Z</time>
      </trkpt>
      <trkpt lat="48.00915" lon="-3.73323">
        <ele>163.8</ele>
        <time>2022-12-08T14:07:46Z</time>
      </trkpt>
      <trkpt lat="48.00911" lon="-3.73333">
        <ele>163.6</ele>
        <time>2022-12-08T14:07:47Z</time>
      </trkpt>
      <trkpt lat="48.00905" lon="-3.73342">
        <ele>163.4</ele>
        <time>2022-12-08T14:07:48Z</time>
      </trkpt>
      <trkpt lat="48.009" lon="-3.73351">
        <ele>163.2</ele>
        <time>2022-12-08T14:07:49Z</time>
      </trkpt>
      <trkpt lat="48.00895" lon="-3.7336">
        <ele>163.1</ele>
        <time>2022-12-08T14:07:50Z</time>
      </trkpt>
      <trkpt lat="48.00889" lon="-3.73368">
        <ele>162.9</ele>
        <time>2022-12-08T14:07:51Z</time>
      </trkpt>
      <trkpt lat="48.00884" lon="-3.73377">
        <ele>162.8</ele>
        <time>2022-12-08T14:07:52Z</time>
      </trkpt>
      <trkpt lat="48.00878" lon="-3.73385">
        <ele>162.7</ele>
        <time>2022-12-08T14:07:53Z</time>
      </trkpt>
      <trkpt lat="48.00873" lon="-3.73393">
        <ele>162.6</ele>
        <time>2022-12-08T14:07:54Z</time>
      </trkpt>
      <trkpt lat="48.00868" lon="-3.734">
        <ele>162.4</ele>
        <time>2022-12-08T14:07:55Z</time>
      </trkpt>
      <trkpt lat="48.00863" lon="-3.73408">
        <ele>162.3</ele>
        <time>2022-12-08T14:07:56Z</time>
      </trkpt>
      <trkpt lat="48.00857" lon="-3.73415">
        <ele>162.2</ele>
        <time>2022-12-08T14:07:57Z</time>
      </trkpt>
      <trkpt lat="48.00852" lon="-3.73424">
        <ele>162.1</ele>
        <time>2022-12-08T14:07:58Z</time>
      </trkpt>
      <trkpt lat="48.00847" lon="-3.73433">
        <ele>161.9</ele>
        <time>2022-12-08T14:07:59Z</time>
      </trkpt>
      <trkpt lat="48.00842" lon="-3.7344">
        <ele>161.8</ele>
        <time>2022-12-08T14:08:00Z</time>
      </trkpt>
      <trkpt lat="48.00836" lon="-3.73447">
        <ele>161.6</ele>
        <time>2022-12-08T14:08:01Z</time>
      </trkpt>
      <trkpt lat="48.00829" lon="-3.73454">
        <ele>161.4</ele>
        <time>2022-12-08T14:08:02Z</time>
      </trkpt>
      <trkpt lat="48.00823" lon="-3.7346">
        <ele>161.2</ele>
        <time>2022-12-08T14:08:03Z</time>
      </trkpt>
      <trkpt lat="48.00817" lon="-3.73468">
        <ele>161.1</ele>
        <time>2022-12-08T14:08:04Z</time>
      </trkpt>
      <trkpt lat="48.00812" lon="-3.73475">
        <ele>160.9</ele>
        <time>2022-12-08T14:08:05Z</time>
      </trkpt>
      <trkpt lat="48.00805" lon="-3.73483">
        <ele>160.7</ele>
        <time>2022-12-08T14:08:06Z</time>
      </trkpt>
      <trkpt lat="48.00799" lon="-3.7349">
        <ele>160.5</ele>
        <time>2022-12-08T14:08:07Z</time>
      </trkpt>
      <trkpt lat="48.00793" lon="-3.73498">
        <ele>160.3</ele>
        <time>2022-12-08T14:08:08Z</time>
      </trkpt>
      <trkpt lat="48.00787" lon="-3.73505">
        <ele>160.1</ele>
        <time>2022-12-08T14:08:09Z</time>
      </trkpt>
      <trkpt lat="48.00781" lon="-3.73512">
        <ele>159.9</ele>
        <time>2022-12-08T14:08:10Z</time>
      </trkpt>
      <trkpt lat="48.00775" lon="-3.73519">
        <ele>159.7</ele>
        <time>2022-12-08T14:08:11Z</time>
      </trkpt>
      <trkpt lat="48.00768" lon="-3.73526">
        <ele>159.6</ele>
        <time>2022-12-08T14:08:12Z</time>
      </trkpt>
      <trkpt lat="48.00763" lon="-3.73534">
        <ele>159.4</ele>
        <time>2022-12-08T14:08:13Z</time>
      </trkpt>
      <trkpt lat="48.00757" lon="-3.73541">
        <ele>159.3</ele>
        <time>2022-12-08T14:08:14Z</time>
      </trkpt>
      <trkpt lat="48.00752" lon="-3.73548">
        <ele>159.1</ele>
        <time>2022-12-08T14:08:15Z</time>
      </trkpt>
      <trkpt lat="48.00746" lon="-3.73556">
        <ele>158.9</ele>
        <time>2022-12-08T14:08:16Z</time>
      </trkpt>
      <trkpt lat="48.0074" lon="-3.73563">
        <ele>158.8</ele>
        <time>2022-12-08T14:08:17Z</time>
      </trkpt>
      <trkpt lat="48.00734" lon="-3.73571">
        <ele>158.6</ele>
        <time>2022-12-08T14:08:18Z</time>
      </trkpt>
      <trkpt lat="48.00727" lon="-3.73579">
        <ele>158.4</ele>
        <time>2022-12-08T14:08:19Z</time>
      </trkpt>
      <trkpt lat="48.00722" lon="-3.73586">
        <ele>158.2</ele>
        <time>2022-12-08T14:08:20Z</time>
      </trkpt>
      <trkpt lat="48.00716" lon="-3.73594">
        <ele>158</ele>
        <time>2022-12-08T14:08:21Z</time>
      </trkpt>
      <trkpt lat="48.0071" lon="-3.73603">
        <ele>157.8</ele>
        <time>2022-12-08T14:08:22Z</time>
      </trkpt>
      <trkpt lat="48.00704" lon="-3.73612">
        <ele>157.6</ele>
        <time>2022-12-08T14:08:23Z</time>
      </trkpt>
      <trkpt lat="48.00699" lon="-3.73621">
        <ele>157.4</ele>
        <time>2022-12-08T14:08:24Z</time>
      </trkpt>
      <trkpt lat="48.00694" lon="-3.7363">
        <ele>157.3</ele>
        <time>2022-12-08T14:08:25Z</time>
      </trkpt>
      <trkpt lat="48.0069" lon="-3.73639">
        <ele>157.1</ele>
        <time>2022-12-08T14:08:26Z</time>
      </trkpt>
      <trkpt lat="48.00685" lon="-3.73648">
        <ele>156.9</ele>
        <time>2022-12-08T14:08:27Z</time>
      </trkpt>
      <trkpt lat="48.00681" lon="-3.73657">
        <ele>156.7</ele>
        <time>2022-12-08T14:08:28Z</time>
      </trkpt>
      <trkpt lat="48.00677" lon="-3.73668">
        <ele>156.5</ele>
        <time>2022-12-08T14:08:29Z</time>
      </trkpt>
      <trkpt lat="48.00673" lon="-3.73678">
        <ele>156.3</ele>
        <time>2022-12-08T14:08:30Z</time>
      </trkpt>
      <trkpt lat="48.00669" lon="-3.73688">
        <ele>156.1</ele>
        <time>2022-12-08T14:08:31Z</time>
      </trkpt>
      <trkpt lat="48.00665" lon="-3.73698">
        <ele>155.9</ele>
        <time>2022-12-08T14:08:32Z</time>
      </trkpt>
      <trkpt lat="48.00662" lon="-3.73709">
        <ele>155.8</ele>
        <time>2022-12-08T14:08:33Z</time>
      </trkpt>
      <trkpt lat="48.00659" lon="-3.7372">
        <ele>155.7</ele>
        <time>2022-12-08T14:08:34Z</time>
      </trkpt>
      <trkpt lat="48.00657" lon="-3.73731">
        <ele>155.5</ele>
        <time>2022-12-08T14:08:35Z</time>
      </trkpt>
      <trkpt lat="48.00654" lon="-3.73742">
        <ele>155.4</ele>
        <time>2022-12-08T14:08:36Z</time>
      </trkpt>
      <trkpt lat="48.00652" lon="-3.73752">
        <ele>155.3</ele>
        <time>2022-12-08T14:08:37Z</time>
      </trkpt>
      <trkpt lat="48.00651" lon="-3.73764">
        <ele>155.1</ele>
        <time>2022-12-08T14:08:38Z</time>
      </trkpt>
      <trkpt lat="48.0065" lon="-3.73775">
        <ele>155</ele>
        <time>2022-12-08T14:08:39Z</time>
      </trkpt>
      <trkpt lat="48.00649" lon="-3.73785">
        <ele>154.9</ele>
        <time>2022-12-08T14:08:40Z</time>
      </trkpt>
      <trkpt lat="48.00648" lon="-3.73795">
        <ele>154.7</ele>
        <time>2022-12-08T14:08:41Z</time>
      </trkpt>
      <trkpt lat="48.00647" lon="-3.73804">
        <ele>154.6</ele>
        <time>2022-12-08T14:08:42Z</time>
      </trkpt>
      <trkpt lat="48.00647" lon="-3.73812">
        <ele>154.5</ele>
        <time>2022-12-08T14:08:43Z</time>
      </trkpt>
      <trkpt lat="48.00646" lon="-3.73821">
        <ele>154.3</ele>
        <time>2022-12-08T14:08:44Z</time>
      </trkpt>
      <trkpt lat="48.00646" lon="-3.73828">
        <ele>154.2</ele>
        <time>2022-12-08T14:08:45Z</time>
      </trkpt>
      <trkpt lat="48.00646" lon="-3.73836">
        <ele>154.1</ele>
        <time>2022-12-08T14:08:46Z</time>
      </trkpt>
      <trkpt lat="48.00646" lon="-3.73845">
        <ele>154</ele>
        <time>2022-12-08T14:08:47Z</time>
      </trkpt>
      <trkpt lat="48.00647" lon="-3.73855">
        <ele>153.8</ele>
        <time>2022-12-08T14:08:48Z</time>
      </trkpt>
      <trkpt lat="48.00648" lon="-3.73864">
        <ele>153.6</ele>
        <time>2022-12-08T14:08:49Z</time>
      </trkpt>
      <trkpt lat="48.00647" lon="-3.73873">
        <ele>153.4</ele>
        <time>2022-12-08T14:08:50Z</time>
      </trkpt>
      <trkpt lat="48.00649" lon="-3.73882">
        <ele>153.3</ele>
        <time>2022-12-08T14:08:51Z</time>
      </trkpt>
      <trkpt lat="48.00649" lon="-3.73892">
        <ele>153.1</ele>
        <time>2022-12-08T14:08:52Z</time>
      </trkpt>
      <trkpt lat="48.0065" lon="-3.73903">
        <ele>152.9</ele>
        <time>2022-12-08T14:08:53Z</time>
      </trkpt>
      <trkpt lat="48.00651" lon="-3.73913">
        <ele>152.8</ele>
        <time>2022-12-08T14:08:54Z</time>
      </trkpt>
      <trkpt lat="48.00653" lon="-3.73923">
        <ele>152.6</ele>
        <time>2022-12-08T14:08:55Z</time>
      </trkpt>
      <trkpt lat="48.00655" lon="-3.73934">
        <ele>152.4</ele>
        <time>2022-12-08T14:08:56Z</time>
      </trkpt>
      <trkpt lat="48.00657" lon="-3.73945">
        <ele>152.2</ele>
        <time>2022-12-08T14:08:57Z</time>
      </trkpt>
      <trkpt lat="48.00659" lon="-3.73957">
        <ele>152</ele>
        <time>2022-12-08T14:08:58Z</time>
      </trkpt>
      <trkpt lat="48.00661" lon="-3.73967">
        <ele>151.8</ele>
        <time>2022-12-08T14:08:59Z</time>
      </trkpt>
      <trkpt lat="48.00663" lon="-3.73978">
        <ele>151.7</ele>
        <time>2022-12-08T14:09:00Z</time>
      </trkpt>
      <trkpt lat="48.00665" lon="-3.73988">
        <ele>151.5</ele>
        <time>2022-12-08T14:09:01Z</time>
      </trkpt>
      <trkpt lat="48.00667" lon="-3.73999">
        <ele>151.4</ele>
        <time>2022-12-08T14:09:02Z</time>
      </trkpt>
      <trkpt lat="48.00669" lon="-3.7401">
        <ele>151.3</ele>
        <time>2022-12-08T14:09:03Z</time>
      </trkpt>
      <trkpt lat="48.00671" lon="-3.74021">
        <ele>151.2</ele>
        <time>2022-12-08T14:09:04Z</time>
      </trkpt>
      <trkpt lat="48.00673" lon="-3.74032">
        <ele>151.1</ele>
        <time>2022-12-08T14:09:05Z</time>
      </trkpt>
      <trkpt lat="48.00675" lon="-3.74042">
        <ele>151</ele>
        <time>2022-12-08T14:09:06Z</time>
      </trkpt>
      <trkpt lat="48.00677" lon="-3.74052">
        <ele>150.8</ele>
        <time>2022-12-08T14:09:07Z</time>
      </trkpt>
      <trkpt lat="48.00679" lon="-3.74062">
        <ele>150.7</ele>
        <time>2022-12-08T14:09:08Z</time>
      </trkpt>
      <trkpt lat="48.0068" lon="-3.74073">
        <ele>150.5</ele>
        <time>2022-12-08T14:09:09Z</time>
      </trkpt>
      <trkpt lat="48.00682" lon="-3.74085">
        <ele>150.4</ele>
        <time>2022-12-08T14:09:10Z</time>
      </trkpt>
      <trkpt lat="48.00683" lon="-3.74096">
        <ele>150.3</ele>
        <time>2022-12-08T14:09:11Z</time>
      </trkpt>
      <trkpt lat="48.00683" lon="-3.74107">
        <ele>150.2</ele>
        <time>2022-12-08T14:09:12Z</time>
      </trkpt>
      <trkpt lat="48.00684" lon="-3.74118">
        <ele>150</ele>
        <time>2022-12-08T14:09:13Z</time>
      </trkpt>
      <trkpt lat="48.00683" lon="-3.7413">
        <ele>149.9</ele>
        <time>2022-12-08T14:09:14Z</time>
      </trkpt>
      <trkpt lat="48.00683" lon="-3.7414">
        <ele>149.7</ele>
        <time>2022-12-08T14:09:15Z</time>
      </trkpt>
      <trkpt lat="48.00683" lon="-3.74151">
        <ele>149.5</ele>
        <time>2022-12-08T14:09:16Z</time>
      </trkpt>
      <trkpt lat="48.00683" lon="-3.74164">
        <ele>149.3</ele>
        <time>2022-12-08T14:09:17Z</time>
      </trkpt>
      <trkpt lat="48.00682" lon="-3.74173">
        <ele>149.1</ele>
        <time>2022-12-08T14:09:18Z</time>
      </trkpt>
      <trkpt lat="48.0068" lon="-3.74185">
        <ele>148.9</ele>
        <time>2022-12-08T14:09:19Z</time>
      </trkpt>
      <trkpt lat="48.00679" lon="-3.74197">
        <ele>148.8</ele>
        <time>2022-12-08T14:09:20Z</time>
      </trkpt>
      <trkpt lat="48.00677" lon="-3.74208">
        <ele>148.6</ele>
        <time>2022-12-08T14:09:21Z</time>
      </trkpt>
      <trkpt lat="48.00675" lon="-3.74219">
        <ele>148.4</ele>
        <time>2022-12-08T14:09:22Z</time>
      </trkpt>
      <trkpt lat="48.00673" lon="-3.74229">
        <ele>148.3</ele>
        <time>2022-12-08T14:09:23Z</time>
      </trkpt>
      <trkpt lat="48.0067" lon="-3.7424">
        <ele>148.1</ele>
        <time>2022-12-08T14:09:24Z</time>
      </trkpt>
      <trkpt lat="48.00666" lon="-3.74251">
        <ele>147.9</ele>
        <time>2022-12-08T14:09:25Z</time>
      </trkpt>
      <trkpt lat="48.00663" lon="-3.74261">
        <ele>147.7</ele>
        <time>2022-12-08T14:09:26Z</time>
      </trkpt>
      <trkpt lat="48.00661" lon="-3.74271">
        <ele>147.6</ele>
        <time>2022-12-08T14:09:27Z</time>
      </trkpt>
      <trkpt lat="48.00659" lon="-3.74282">
        <ele>147.4</ele>
        <time>2022-12-08T14:09:28Z</time>
      </trkpt>
      <trkpt lat="48.00656" lon="-3.74294">
        <ele>147.2</ele>
        <time>2022-12-08T14:09:29Z</time>
      </trkpt>
      <trkpt lat="48.00653" lon="-3.74305">
        <ele>147</ele>
        <time>2022-12-08T14:09:30Z</time>
      </trkpt>
      <trkpt lat="48.00651" lon="-3.74315">
        <ele>146.9</ele>
        <time>2022-12-08T14:09:31Z</time>
      </trkpt>
      <trkpt lat="48.00649" lon="-3.74326">
        <ele>146.8</ele>
        <time>2022-12-08T14:09:32Z</time>
      </trkpt>
      <trkpt lat="48.00646" lon="-3.74337">
        <ele>146.6</ele>
        <time>2022-12-08T14:09:33Z</time>
      </trkpt>
      <trkpt lat="48.00644" lon="-3.74346">
        <ele>146.5</ele>
        <time>2022-12-08T14:09:34Z</time>
      </trkpt>
      <trkpt lat="48.00641" lon="-3.74357">
        <ele>146.3</ele>
        <time>2022-12-08T14:09:35Z</time>
      </trkpt>
      <trkpt lat="48.00637" lon="-3.74368">
        <ele>146.1</ele>
        <time>2022-12-08T14:09:36Z</time>
      </trkpt>
      <trkpt lat="48.00634" lon="-3.74379">
        <ele>145.9</ele>
        <time>2022-12-08T14:09:37Z</time>
      </trkpt>
      <trkpt lat="48.00631" lon="-3.7439">
        <ele>145.8</ele>
        <time>2022-12-08T14:09:38Z</time>
      </trkpt>
      <trkpt lat="48.00628" lon="-3.744">
        <ele>145.6</ele>
        <time>2022-12-08T14:09:39Z</time>
      </trkpt>
      <trkpt lat="48.00625" lon="-3.7441">
        <ele>145.5</ele>
        <time>2022-12-08T14:09:40Z</time>
      </trkpt>
      <trkpt lat="48.00623" lon="-3.7442">
        <ele>145.3</ele>
        <time>2022-12-08T14:09:41Z</time>
      </trkpt>
      <trkpt lat="48.0062" lon="-3.74431">
        <ele>145.1</ele>
        <time>2022-12-08T14:09:42Z</time>
      </trkpt>
      <trkpt lat="48.00616" lon="-3.74442">
        <ele>145</ele>
        <time>2022-12-08T14:09:43Z</time>
      </trkpt>
      <trkpt lat="48.00614" lon="-3.74452">
        <ele>144.8</ele>
        <time>2022-12-08T14:09:44Z</time>
      </trkpt>
      <trkpt lat="48.00611" lon="-3.74463">
        <ele>144.7</ele>
        <time>2022-12-08T14:09:45Z</time>
      </trkpt>
      <trkpt lat="48.00608" lon="-3.74474">
        <ele>144.5</ele>
        <time>2022-12-08T14:09:46Z</time>
      </trkpt>
      <trkpt lat="48.00603" lon="-3.74484">
        <ele>144.4</ele>
        <time>2022-12-08T14:09:47Z</time>
      </trkpt>
      <trkpt lat="48.00602" lon="-3.74495">
        <ele>144.3</ele>
        <time>2022-12-08T14:09:48Z</time>
      </trkpt>
      <trkpt lat="48.006" lon="-3.74506">
        <ele>144.1</ele>
        <time>2022-12-08T14:09:49Z</time>
      </trkpt>
      <trkpt lat="48.00596" lon="-3.74518">
        <ele>144</ele>
        <time>2022-12-08T14:09:50Z</time>
      </trkpt>
      <trkpt lat="48.00593" lon="-3.74528">
        <ele>143.9</ele>
        <time>2022-12-08T14:09:51Z</time>
      </trkpt>
      <trkpt lat="48.0059" lon="-3.7454">
        <ele>143.7</ele>
        <time>2022-12-08T14:09:52Z</time>
      </trkpt>
      <trkpt lat="48.00587" lon="-3.74551">
        <ele>143.6</ele>
        <time>2022-12-08T14:09:53Z</time>
      </trkpt>
      <trkpt lat="48.00584" lon="-3.74562">
        <ele>143.4</ele>
        <time>2022-12-08T14:09:54Z</time>
      </trkpt>
      <trkpt lat="48.00581" lon="-3.74573">
        <ele>143.3</ele>
        <time>2022-12-08T14:09:55Z</time>
      </trkpt>
      <trkpt lat="48.00578" lon="-3.74584">
        <ele>143.1</ele>
        <time>2022-12-08T14:09:56Z</time>
      </trkpt>
      <trkpt lat="48.00576" lon="-3.74594">
        <ele>143</ele>
        <time>2022-12-08T14:09:57Z</time>
      </trkpt>
      <trkpt lat="48.00572" lon="-3.74605">
        <ele>142.8</ele>
        <time>2022-12-08T14:09:58Z</time>
      </trkpt>
      <trkpt lat="48.00568" lon="-3.74617">
        <ele>142.6</ele>
        <time>2022-12-08T14:09:59Z</time>
      </trkpt>
      <trkpt lat="48.00565" lon="-3.74627">
        <ele>142.5</ele>
        <time>2022-12-08T14:10:00Z</time>
      </trkpt>
      <trkpt lat="48.00561" lon="-3.74638">
        <ele>142.4</ele>
        <time>2022-12-08T14:10:01Z</time>
      </trkpt>
      <trkpt lat="48.00557" lon="-3.74648">
        <ele>142.2</ele>
        <time>2022-12-08T14:10:02Z</time>
      </trkpt>
      <trkpt lat="48.00553" lon="-3.74658">
        <ele>142.1</ele>
        <time>2022-12-08T14:10:03Z</time>
      </trkpt>
      <trkpt lat="48.0055" lon="-3.74669">
        <ele>141.9</ele>
        <time>2022-12-08T14:10:04Z</time>
      </trkpt>
      <trkpt lat="48.00546" lon="-3.74679">
        <ele>141.8</ele>
        <time>2022-12-08T14:10:05Z</time>
      </trkpt>
      <trkpt lat="48.00541" lon="-3.74688">
        <ele>141.7</ele>
        <time>2022-12-08T14:10:06Z</time>
      </trkpt>
      <trkpt lat="48.00537" lon="-3.74698">
        <ele>141.5</ele>
        <time>2022-12-08T14:10:07Z</time>
      </trkpt>
      <trkpt lat="48.00531" lon="-3.74708">
        <ele>141.3</ele>
        <time>2022-12-08T14:10:08Z</time>
      </trkpt>
      <trkpt lat="48.00528" lon="-3.74717">
        <ele>141.2</ele>
        <time>2022-12-08T14:10:09Z</time>
      </trkpt>
      <trkpt lat="48.00524" lon="-3.74726">
        <ele>141</ele>
        <time>2022-12-08T14:10:10Z</time>
      </trkpt>
      <trkpt lat="48.00518" lon="-3.74735">
        <ele>140.8</ele>
        <time>2022-12-08T14:10:11Z</time>
      </trkpt>
      <trkpt lat="48.00512" lon="-3.74744">
        <ele>140.6</ele>
        <time>2022-12-08T14:10:12Z</time>
      </trkpt>
      <trkpt lat="48.00507" lon="-3.74753">
        <ele>140.5</ele>
        <time>2022-12-08T14:10:13Z</time>
      </trkpt>
      <trkpt lat="48.00501" lon="-3.74761">
        <ele>140.3</ele>
        <time>2022-12-08T14:10:14Z</time>
      </trkpt>
      <trkpt lat="48.00496" lon="-3.74771">
        <ele>140.2</ele>
        <time>2022-12-08T14:10:15Z</time>
      </trkpt>
      <trkpt lat="48.00491" lon="-3.74779">
        <ele>140</ele>
        <time>2022-12-08T14:10:16Z</time>
      </trkpt>
      <trkpt lat="48.00487" lon="-3.74786">
        <ele>139.9</ele>
        <time>2022-12-08T14:10:17Z</time>
      </trkpt>
      <trkpt lat="48.00482" lon="-3.74793">
        <ele>139.8</ele>
        <time>2022-12-08T14:10:18Z</time>
      </trkpt>
      <trkpt lat="48.00477" lon="-3.748">
        <ele>139.7</ele>
        <time>2022-12-08T14:10:19Z</time>
      </trkpt>
      <trkpt lat="48.0047" lon="-3.74806">
        <ele>139.5</ele>
        <time>2022-12-08T14:10:20Z</time>
      </trkpt>
      <trkpt lat="48.00464" lon="-3.74812">
        <ele>139.4</ele>
        <time>2022-12-08T14:10:21Z</time>
      </trkpt>
      <trkpt lat="48.00459" lon="-3.7482">
        <ele>139.2</ele>
        <time>2022-12-08T14:10:22Z</time>
      </trkpt>
      <trkpt lat="48.00453" lon="-3.74826">
        <ele>139.1</ele>
        <time>2022-12-08T14:10:23Z</time>
      </trkpt>
      <trkpt lat="48.00447" lon="-3.74833">
        <ele>138.9</ele>
        <time>2022-12-08T14:10:24Z</time>
      </trkpt>
      <trkpt lat="48.00441" lon="-3.74839">
        <ele>138.8</ele>
        <time>2022-12-08T14:10:25Z</time>
      </trkpt>
      <trkpt lat="48.00435" lon="-3.74846">
        <ele>138.6</ele>
        <time>2022-12-08T14:10:26Z</time>
      </trkpt>
      <trkpt lat="48.00428" lon="-3.74852">
        <ele>138.5</ele>
        <time>2022-12-08T14:10:27Z</time>
      </trkpt>
      <trkpt lat="48.00421" lon="-3.74857">
        <ele>138.4</ele>
        <time>2022-12-08T14:10:28Z</time>
      </trkpt>
      <trkpt lat="48.00415" lon="-3.74863">
        <ele>138.2</ele>
        <time>2022-12-08T14:10:29Z</time>
      </trkpt>
      <trkpt lat="48.00408" lon="-3.74868">
        <ele>138.1</ele>
        <time>2022-12-08T14:10:30Z</time>
      </trkpt>
      <trkpt lat="48.00402" lon="-3.74872">
        <ele>138</ele>
        <time>2022-12-08T14:10:31Z</time>
      </trkpt>
      <trkpt lat="48.00395" lon="-3.74877">
        <ele>137.8</ele>
        <time>2022-12-08T14:10:32Z</time>
      </trkpt>
      <trkpt lat="48.00389" lon="-3.74881">
        <ele>137.7</ele>
        <time>2022-12-08T14:10:33Z</time>
      </trkpt>
      <trkpt lat="48.00382" lon="-3.74885">
        <ele>137.6</ele>
        <time>2022-12-08T14:10:34Z</time>
      </trkpt>
      <trkpt lat="48.00374" lon="-3.7489">
        <ele>137.4</ele>
        <time>2022-12-08T14:10:35Z</time>
      </trkpt>
      <trkpt lat="48.00368" lon="-3.74895">
        <ele>137.3</ele>
        <time>2022-12-08T14:10:36Z</time>
      </trkpt>
      <trkpt lat="48.00361" lon="-3.749">
        <ele>137.1</ele>
        <time>2022-12-08T14:10:37Z</time>
      </trkpt>
      <trkpt lat="48.00355" lon="-3.74905">
        <ele>137</ele>
        <time>2022-12-08T14:10:38Z</time>
      </trkpt>
      <trkpt lat="48.00347" lon="-3.7491">
        <ele>136.9</ele>
        <time>2022-12-08T14:10:39Z</time>
      </trkpt>
      <trkpt lat="48.0034" lon="-3.74915">
        <ele>136.8</ele>
        <time>2022-12-08T14:10:40Z</time>
      </trkpt>
      <trkpt lat="48.00334" lon="-3.74921">
        <ele>136.7</ele>
        <time>2022-12-08T14:10:41Z</time>
      </trkpt>
      <trkpt lat="48.00327" lon="-3.74926">
        <ele>136.5</ele>
        <time>2022-12-08T14:10:42Z</time>
      </trkpt>
      <trkpt lat="48.00321" lon="-3.74931">
        <ele>136.4</ele>
        <time>2022-12-08T14:10:43Z</time>
      </trkpt>
      <trkpt lat="48.00315" lon="-3.74937">
        <ele>136.2</ele>
        <time>2022-12-08T14:10:44Z</time>
      </trkpt>
      <trkpt lat="48.00309" lon="-3.74942">
        <ele>136.1</ele>
        <time>2022-12-08T14:10:45Z</time>
      </trkpt>
      <trkpt lat="48.00303" lon="-3.74947">
        <ele>136</ele>
        <time>2022-12-08T14:10:46Z</time>
      </trkpt>
      <trkpt lat="48.00297" lon="-3.74952">
        <ele>135.8</ele>
        <time>2022-12-08T14:10:47Z</time>
      </trkpt>
      <trkpt lat="48.0029" lon="-3.74957">
        <ele>135.6</ele>
        <time>2022-12-08T14:10:48Z</time>
      </trkpt>
      <trkpt lat="48.00282" lon="-3.74962">
        <ele>135.4</ele>
        <time>2022-12-08T14:10:49Z</time>
      </trkpt>
      <trkpt lat="48.00276" lon="-3.74967">
        <ele>135.2</ele>
        <time>2022-12-08T14:10:50Z</time>
      </trkpt>
      <trkpt lat="48.0027" lon="-3.74972">
        <ele>135.1</ele>
        <time>2022-12-08T14:10:51Z</time>
      </trkpt>
      <trkpt lat="48.00262" lon="-3.74978">
        <ele>134.9</ele>
        <time>2022-12-08T14:10:52Z</time>
      </trkpt>
      <trkpt lat="48.00256" lon="-3.74983">
        <ele>134.7</ele>
        <time>2022-12-08T14:10:53Z</time>
      </trkpt>
      <trkpt lat="48.00249" lon="-3.74988">
        <ele>134.6</ele>
        <time>2022-12-08T14:10:54Z</time>
      </trkpt>
      <trkpt lat="48.00243" lon="-3.74994">
        <ele>134.4</ele>
        <time>2022-12-08T14:10:55Z</time>
      </trkpt>
      <trkpt lat="48.00236" lon="-3.74998">
        <ele>134.3</ele>
        <time>2022-12-08T14:10:56Z</time>
      </trkpt>
      <trkpt lat="48.00229" lon="-3.75003">
        <ele>134.2</ele>
        <time>2022-12-08T14:10:57Z</time>
      </trkpt>
      <trkpt lat="48.00223" lon="-3.75009">
        <ele>134.1</ele>
        <time>2022-12-08T14:10:58Z</time>
      </trkpt>
      <trkpt lat="48.00216" lon="-3.75015">
        <ele>134.1</ele>
        <time>2022-12-08T14:10:59Z</time>
      </trkpt>
      <trkpt lat="48.0021" lon="-3.75021">
        <ele>134</ele>
        <time>2022-12-08T14:11:00Z</time>
      </trkpt>
      <trkpt lat="48.00204" lon="-3.75029">
        <ele>134</ele>
        <time>2022-12-08T14:11:01Z</time>
      </trkpt>
      <trkpt lat="48.00199" lon="-3.75036">
        <ele>134</ele>
        <time>2022-12-08T14:11:02Z</time>
      </trkpt>
      <trkpt lat="48.00194" lon="-3.75041">
        <ele>134.1</ele>
        <time>2022-12-08T14:11:03Z</time>
      </trkpt>
      <trkpt lat="48.00191" lon="-3.75045">
        <ele>134.1</ele>
        <time>2022-12-08T14:11:04Z</time>
      </trkpt>
      <trkpt lat="48.00187" lon="-3.75049">
        <ele>134.1</ele>
        <time>2022-12-08T14:11:05Z</time>
      </trkpt>
      <trkpt lat="48.00184" lon="-3.7505">
        <ele>134.1</ele>
        <time>2022-12-08T14:11:06Z</time>
      </trkpt>
      <trkpt lat="48.00182" lon="-3.75053">
        <ele>134.1</ele>
        <time>2022-12-08T14:11:07Z</time>
      </trkpt>
      <trkpt lat="48.00179" lon="-3.75058">
        <ele>134.1</ele>
        <time>2022-12-08T14:11:08Z</time>
      </trkpt>
      <trkpt lat="48.00177" lon="-3.75062">
        <ele>134.1</ele>
        <time>2022-12-08T14:11:09Z</time>
      </trkpt>
      <trkpt lat="48.00175" lon="-3.75066">
        <ele>134.1</ele>
        <time>2022-12-08T14:11:10Z</time>
      </trkpt>
      <trkpt lat="48.00171" lon="-3.75069">
        <ele>134.1</ele>
        <time>2022-12-08T14:11:11Z</time>
      </trkpt>
      <trkpt lat="48.0017" lon="-3.7507">
        <ele>134</ele>
        <time>2022-12-08T14:11:12Z</time>
      </trkpt>
      <trkpt lat="48.00165" lon="-3.75073">
        <ele>134</ele>
        <time>2022-12-08T14:11:13Z</time>
      </trkpt>
      <trkpt lat="48.00163" lon="-3.75075">
        <ele>133.9</ele>
        <time>2022-12-08T14:11:14Z</time>
      </trkpt>
      <trkpt lat="48.00158" lon="-3.75082">
        <ele>133.8</ele>
        <time>2022-12-08T14:11:15Z</time>
      </trkpt>
      <trkpt lat="48.00153" lon="-3.7509">
        <ele>133.6</ele>
        <time>2022-12-08T14:11:16Z</time>
      </trkpt>
      <trkpt lat="48.00149" lon="-3.75096">
        <ele>133.5</ele>
        <time>2022-12-08T14:11:17Z</time>
      </trkpt>
      <trkpt lat="48.00146" lon="-3.75103">
        <ele>133.4</ele>
        <time>2022-12-08T14:11:18Z</time>
      </trkpt>
      <trkpt lat="48.00143" lon="-3.7511">
        <ele>133.3</ele>
        <time>2022-12-08T14:11:19Z</time>
      </trkpt>
      <trkpt lat="48.00139" lon="-3.75117">
        <ele>133.2</ele>
        <time>2022-12-08T14:11:20Z</time>
      </trkpt>
      <trkpt lat="48.00134" lon="-3.75123">
        <ele>133.1</ele>
        <time>2022-12-08T14:11:21Z</time>
      </trkpt>
      <trkpt lat="48.00129" lon="-3.7513">
        <ele>133</ele>
        <time>2022-12-08T14:11:22Z</time>
      </trkpt>
      <trkpt lat="48.00125" lon="-3.75138">
        <ele>132.9</ele>
        <time>2022-12-08T14:11:23Z</time>
      </trkpt>
      <trkpt lat="48.00121" lon="-3.75145">
        <ele>132.9</ele>
        <time>2022-12-08T14:11:24Z</time>
      </trkpt>
      <trkpt lat="48.00117" lon="-3.75152">
        <ele>132.8</ele>
        <time>2022-12-08T14:11:25Z</time>
      </trkpt>
      <trkpt lat="48.00114" lon="-3.7516">
        <ele>132.8</ele>
        <time>2022-12-08T14:11:26Z</time>
      </trkpt>
      <trkpt lat="48.0011" lon="-3.75168">
        <ele>132.8</ele>
        <time>2022-12-08T14:11:27Z</time>
      </trkpt>
      <trkpt lat="48.00107" lon="-3.75174">
        <ele>132.7</ele>
        <time>2022-12-08T14:11:28Z</time>
      </trkpt>
      <trkpt lat="48.00104" lon="-3.75182">
        <ele>132.7</ele>
        <time>2022-12-08T14:11:29Z</time>
      </trkpt>
      <trkpt lat="48.001" lon="-3.7519">
        <ele>132.6</ele>
        <time>2022-12-08T14:11:30Z</time>
      </trkpt>
      <trkpt lat="48.00096" lon="-3.75197">
        <ele>132.6</ele>
        <time>2022-12-08T14:11:31Z</time>
      </trkpt>
      <trkpt lat="48.00092" lon="-3.75204">
        <ele>132.5</ele>
        <time>2022-12-08T14:11:32Z</time>
      </trkpt>
      <trkpt lat="48.00088" lon="-3.75211">
        <ele>132.5</ele>
        <time>2022-12-08T14:11:33Z</time>
      </trkpt>
      <trkpt lat="48.00085" lon="-3.75219">
        <ele>132.5</ele>
        <time>2022-12-08T14:11:34Z</time>
      </trkpt>
      <trkpt lat="48.00081" lon="-3.75226">
        <ele>132.5</ele>
        <time>2022-12-08T14:11:35Z</time>
      </trkpt>
      <trkpt lat="48.00077" lon="-3.75233">
        <ele>132.5</ele>
        <time>2022-12-08T14:11:36Z</time>
      </trkpt>
      <trkpt lat="48.00074" lon="-3.75241">
        <ele>132.5</ele>
        <time>2022-12-08T14:11:37Z</time>
      </trkpt>
      <trkpt lat="48.00071" lon="-3.75248">
        <ele>132.4</ele>
        <time>2022-12-08T14:11:38Z</time>
      </trkpt>
      <trkpt lat="48.00068" lon="-3.75255">
        <ele>132.4</ele>
        <time>2022-12-08T14:11:39Z</time>
      </trkpt>
      <trkpt lat="48.00063" lon="-3.75263">
        <ele>132.4</ele>
        <time>2022-12-08T14:11:40Z</time>
      </trkpt>
      <trkpt lat="48.0006" lon="-3.75271">
        <ele>132.4</ele>
        <time>2022-12-08T14:11:41Z</time>
      </trkpt>
      <trkpt lat="48.00056" lon="-3.75279">
        <ele>132.4</ele>
        <time>2022-12-08T14:11:42Z</time>
      </trkpt>
      <trkpt lat="48.00052" lon="-3.75286">
        <ele>132.3</ele>
        <time>2022-12-08T14:11:43Z</time>
      </trkpt>
      <trkpt lat="48.00049" lon="-3.75293">
        <ele>132.3</ele>
        <time>2022-12-08T14:11:44Z</time>
      </trkpt>
      <trkpt lat="48.00045" lon="-3.753">
        <ele>132.3</ele>
        <time>2022-12-08T14:11:45Z</time>
      </trkpt>
      <trkpt lat="48.00042" lon="-3.75305">
        <ele>132.3</ele>
        <time>2022-12-08T14:11:46Z</time>
      </trkpt>
      <trkpt lat="48.00039" lon="-3.75312">
        <ele>132.3</ele>
        <time>2022-12-08T14:11:47Z</time>
      </trkpt>
      <trkpt lat="48.00036" lon="-3.75321">
        <ele>132.2</ele>
        <time>2022-12-08T14:11:48Z</time>
      </trkpt>
      <trkpt lat="48.00032" lon="-3.7533">
        <ele>132.2</ele>
        <time>2022-12-08T14:11:49Z</time>
      </trkpt>
      <trkpt lat="48.00029" lon="-3.75338">
        <ele>132.2</ele>
        <time>2022-12-08T14:11:50Z</time>
      </trkpt>
      <trkpt lat="48.00026" lon="-3.75346">
        <ele>132.2</ele>
        <time>2022-12-08T14:11:51Z</time>
      </trkpt>
      <trkpt lat="48.00023" lon="-3.75354">
        <ele>132.1</ele>
        <time>2022-12-08T14:11:52Z</time>
      </trkpt>
      <trkpt lat="48.0002" lon="-3.75362">
        <ele>132.1</ele>
        <time>2022-12-08T14:11:53Z</time>
      </trkpt>
      <trkpt lat="48.00016" lon="-3.7537">
        <ele>132.1</ele>
        <time>2022-12-08T14:11:54Z</time>
      </trkpt>
      <trkpt lat="48.00013" lon="-3.75379">
        <ele>132.1</ele>
        <time>2022-12-08T14:11:55Z</time>
      </trkpt>
      <trkpt lat="48.00009" lon="-3.75387">
        <ele>132.1</ele>
        <time>2022-12-08T14:11:56Z</time>
      </trkpt>
      <trkpt lat="48.00005" lon="-3.75395">
        <ele>132.1</ele>
        <time>2022-12-08T14:11:57Z</time>
      </trkpt>
      <trkpt lat="48.00002" lon="-3.75403">
        <ele>132.1</ele>
        <time>2022-12-08T14:11:58Z</time>
      </trkpt>
      <trkpt lat="47.99999" lon="-3.75412">
        <ele>132.2</ele>
        <time>2022-12-08T14:11:59Z</time>
      </trkpt>
      <trkpt lat="47.99996" lon="-3.75421">
        <ele>132.2</ele>
        <time>2022-12-08T14:12:00Z</time>
      </trkpt>
      <trkpt lat="47.99992" lon="-3.75428">
        <ele>132.1</ele>
        <time>2022-12-08T14:12:01Z</time>
      </trkpt>
      <trkpt lat="47.99989" lon="-3.75436">
        <ele>132.1</ele>
        <time>2022-12-08T14:12:02Z</time>
      </trkpt>
      <trkpt lat="47.99986" lon="-3.75444">
        <ele>132.1</ele>
        <time>2022-12-08T14:12:03Z</time>
      </trkpt>
      <trkpt lat="47.99983" lon="-3.75453">
        <ele>132.1</ele>
        <time>2022-12-08T14:12:04Z</time>
      </trkpt>
      <trkpt lat="47.9998" lon="-3.75461">
        <ele>132.1</ele>
        <time>2022-12-08T14:12:05Z</time>
      </trkpt>
      <trkpt lat="47.99977" lon="-3.7547">
        <ele>132.1</ele>
        <time>2022-12-08T14:12:06Z</time>
      </trkpt>
      <trkpt lat="47.99975" lon="-3.75478">
        <ele>132.1</ele>
        <time>2022-12-08T14:12:07Z</time>
      </trkpt>
      <trkpt lat="47.99972" lon="-3.75487">
        <ele>132.1</ele>
        <time>2022-12-08T14:12:08Z</time>
      </trkpt>
      <trkpt lat="47.9997" lon="-3.75495">
        <ele>132.2</ele>
        <time>2022-12-08T14:12:09Z</time>
      </trkpt>
      <trkpt lat="47.99968" lon="-3.75504">
        <ele>132.2</ele>
        <time>2022-12-08T14:12:10Z</time>
      </trkpt>
      <trkpt lat="47.99966" lon="-3.75513">
        <ele>132.2</ele>
        <time>2022-12-08T14:12:11Z</time>
      </trkpt>
      <trkpt lat="47.99964" lon="-3.75522">
        <ele>132.2</ele>
        <time>2022-12-08T14:12:12Z</time>
      </trkpt>
      <trkpt lat="47.99963" lon="-3.75531">
        <ele>132.2</ele>
        <time>2022-12-08T14:12:13Z</time>
      </trkpt>
      <trkpt lat="47.99961" lon="-3.7554">
        <ele>132.3</ele>
        <time>2022-12-08T14:12:14Z</time>
      </trkpt>
      <trkpt lat="47.99959" lon="-3.75548">
        <ele>132.3</ele>
        <time>2022-12-08T14:12:15Z</time>
      </trkpt>
      <trkpt lat="47.99957" lon="-3.75556">
        <ele>132.3</ele>
        <time>2022-12-08T14:12:16Z</time>
      </trkpt>
      <trkpt lat="47.99955" lon="-3.75565">
        <ele>132.3</ele>
        <time>2022-12-08T14:12:17Z</time>
      </trkpt>
      <trkpt lat="47.99953" lon="-3.75573">
        <ele>132.3</ele>
        <time>2022-12-08T14:12:18Z</time>
      </trkpt>
      <trkpt lat="47.99952" lon="-3.75581">
        <ele>132.3</ele>
        <time>2022-12-08T14:12:19Z</time>
      </trkpt>
      <trkpt lat="47.99951" lon="-3.75591">
        <ele>132.3</ele>
        <time>2022-12-08T14:12:20Z</time>
      </trkpt>
      <trkpt lat="47.9995" lon="-3.75601">
        <ele>132.3</ele>
        <time>2022-12-08T14:12:21Z</time>
      </trkpt>
      <trkpt lat="47.99949" lon="-3.7561">
        <ele>132.3</ele>
        <time>2022-12-08T14:12:22Z</time>
      </trkpt>
      <trkpt lat="47.99948" lon="-3.7562">
        <ele>132.3</ele>
        <time>2022-12-08T14:12:23Z</time>
      </trkpt>
      <trkpt lat="47.99947" lon="-3.75628">
        <ele>132.4</ele>
        <time>2022-12-08T14:12:24Z</time>
      </trkpt>
      <trkpt lat="47.99945" lon="-3.75637">
        <ele>132.4</ele>
        <time>2022-12-08T14:12:25Z</time>
      </trkpt>
      <trkpt lat="47.99943" lon="-3.75646">
        <ele>132.4</ele>
        <time>2022-12-08T14:12:26Z</time>
      </trkpt>
      <trkpt lat="47.99941" lon="-3.75655">
        <ele>132.5</ele>
        <time>2022-12-08T14:12:27Z</time>
      </trkpt>
      <trkpt lat="47.9994" lon="-3.75664">
        <ele>132.5</ele>
        <time>2022-12-08T14:12:28Z</time>
      </trkpt>
      <trkpt lat="47.99938" lon="-3.75672">
        <ele>132.6</ele>
        <time>2022-12-08T14:12:29Z</time>
      </trkpt>
      <trkpt lat="47.99937" lon="-3.7568">
        <ele>132.6</ele>
        <time>2022-12-08T14:12:30Z</time>
      </trkpt>
      <trkpt lat="47.99936" lon="-3.75688">
        <ele>132.7</ele>
        <time>2022-12-08T14:12:31Z</time>
      </trkpt>
      <trkpt lat="47.99935" lon="-3.75697">
        <ele>132.8</ele>
        <time>2022-12-08T14:12:32Z</time>
      </trkpt>
      <trkpt lat="47.99933" lon="-3.75705">
        <ele>132.8</ele>
        <time>2022-12-08T14:12:33Z</time>
      </trkpt>
      <trkpt lat="47.99932" lon="-3.75713">
        <ele>132.9</ele>
        <time>2022-12-08T14:12:34Z</time>
      </trkpt>
      <trkpt lat="47.99931" lon="-3.75721">
        <ele>133</ele>
        <time>2022-12-08T14:12:35Z</time>
      </trkpt>
      <trkpt lat="47.9993" lon="-3.75729">
        <ele>133.1</ele>
        <time>2022-12-08T14:12:36Z</time>
      </trkpt>
      <trkpt lat="47.99928" lon="-3.75736">
        <ele>133.1</ele>
        <time>2022-12-08T14:12:37Z</time>
      </trkpt>
      <trkpt lat="47.99927" lon="-3.75744">
        <ele>133.2</ele>
        <time>2022-12-08T14:12:38Z</time>
      </trkpt>
      <trkpt lat="47.99925" lon="-3.75759">
        <ele>133.3</ele>
        <time>2022-12-08T14:12:40Z</time>
      </trkpt>
      <trkpt lat="47.99924" lon="-3.75767">
        <ele>133.4</ele>
        <time>2022-12-08T14:12:41Z</time>
      </trkpt>
      <trkpt lat="47.99923" lon="-3.75774">
        <ele>133.4</ele>
        <time>2022-12-08T14:12:42Z</time>
      </trkpt>
      <trkpt lat="47.99921" lon="-3.75782">
        <ele>133.5</ele>
        <time>2022-12-08T14:12:43Z</time>
      </trkpt>
      <trkpt lat="47.99919" lon="-3.75789">
        <ele>133.5</ele>
        <time>2022-12-08T14:12:44Z</time>
      </trkpt>
      <trkpt lat="47.99919" lon="-3.75797">
        <ele>133.6</ele>
        <time>2022-12-08T14:12:45Z</time>
      </trkpt>
      <trkpt lat="47.99917" lon="-3.75804">
        <ele>133.6</ele>
        <time>2022-12-08T14:12:46Z</time>
      </trkpt>
      <trkpt lat="47.99916" lon="-3.75812">
        <ele>133.7</ele>
        <time>2022-12-08T14:12:47Z</time>
      </trkpt>
      <trkpt lat="47.99916" lon="-3.75819">
        <ele>133.8</ele>
        <time>2022-12-08T14:12:48Z</time>
      </trkpt>
      <trkpt lat="47.99915" lon="-3.75826">
        <ele>133.8</ele>
        <time>2022-12-08T14:12:49Z</time>
      </trkpt>
      <trkpt lat="47.99913" lon="-3.75833">
        <ele>133.9</ele>
        <time>2022-12-08T14:12:50Z</time>
      </trkpt>
      <trkpt lat="47.99911" lon="-3.75841">
        <ele>134</ele>
        <time>2022-12-08T14:12:51Z</time>
      </trkpt>
      <trkpt lat="47.99908" lon="-3.75848">
        <ele>134</ele>
        <time>2022-12-08T14:12:52Z</time>
      </trkpt>
      <trkpt lat="47.99905" lon="-3.75854">
        <ele>134.1</ele>
        <time>2022-12-08T14:12:53Z</time>
      </trkpt>
      <trkpt lat="47.99903" lon="-3.75862">
        <ele>134.2</ele>
        <time>2022-12-08T14:12:54Z</time>
      </trkpt>
      <trkpt lat="47.99901" lon="-3.75869">
        <ele>134.3</ele>
        <time>2022-12-08T14:12:55Z</time>
      </trkpt>
      <trkpt lat="47.99899" lon="-3.75875">
        <ele>134.4</ele>
        <time>2022-12-08T14:12:56Z</time>
      </trkpt>
      <trkpt lat="47.99897" lon="-3.75882">
        <ele>134.5</ele>
        <time>2022-12-08T14:12:57Z</time>
      </trkpt>
      <trkpt lat="47.99895" lon="-3.75889">
        <ele>134.7</ele>
        <time>2022-12-08T14:12:58Z</time>
      </trkpt>
      <trkpt lat="47.99893" lon="-3.75895">
        <ele>134.8</ele>
        <time>2022-12-08T14:12:59Z</time>
      </trkpt>
      <trkpt lat="47.99891" lon="-3.759">
        <ele>134.9</ele>
        <time>2022-12-08T14:13:00Z</time>
      </trkpt>
      <trkpt lat="47.99888" lon="-3.75907">
        <ele>135.1</ele>
        <time>2022-12-08T14:13:01Z</time>
      </trkpt>
      <trkpt lat="47.99885" lon="-3.75912">
        <ele>135.2</ele>
        <time>2022-12-08T14:13:02Z</time>
      </trkpt>
      <trkpt lat="47.99883" lon="-3.75918">
        <ele>135.4</ele>
        <time>2022-12-08T14:13:03Z</time>
      </trkpt>
      <trkpt lat="47.99882" lon="-3.75922">
        <ele>135.5</ele>
        <time>2022-12-08T14:13:04Z</time>
      </trkpt>
      <trkpt lat="47.99879" lon="-3.75927">
        <ele>135.7</ele>
        <time>2022-12-08T14:13:05Z</time>
      </trkpt>
      <trkpt lat="47.99876" lon="-3.75933">
        <ele>135.8</ele>
        <time>2022-12-08T14:13:06Z</time>
      </trkpt>
      <trkpt lat="47.99873" lon="-3.7594">
        <ele>136</ele>
        <time>2022-12-08T14:13:07Z</time>
      </trkpt>
      <trkpt lat="47.99871" lon="-3.75945">
        <ele>136.1</ele>
        <time>2022-12-08T14:13:08Z</time>
      </trkpt>
      <trkpt lat="47.99871" lon="-3.75946">
        <ele>136.1</ele>
        <time>2022-12-08T14:13:09Z</time>
      </trkpt>
      <trkpt lat="47.9987" lon="-3.7595">
        <ele>136.2</ele>
        <time>2022-12-08T14:13:10Z</time>
      </trkpt>
      <trkpt lat="47.99865" lon="-3.75958">
        <ele>136.3</ele>
        <time>2022-12-08T14:13:12Z</time>
      </trkpt>
      <trkpt lat="47.99862" lon="-3.75961">
        <ele>136.4</ele>
        <time>2022-12-08T14:13:13Z</time>
      </trkpt>
      <trkpt lat="47.99859" lon="-3.75967">
        <ele>136.5</ele>
        <time>2022-12-08T14:13:14Z</time>
      </trkpt>
      <trkpt lat="47.99857" lon="-3.75972">
        <ele>136.6</ele>
        <time>2022-12-08T14:13:15Z</time>
      </trkpt>
      <trkpt lat="47.99855" lon="-3.75978">
        <ele>136.7</ele>
        <time>2022-12-08T14:13:16Z</time>
      </trkpt>
      <trkpt lat="47.99852" lon="-3.75986">
        <ele>136.7</ele>
        <time>2022-12-08T14:13:18Z</time>
      </trkpt>
      <trkpt lat="47.9985" lon="-3.75991">
        <ele>136.8</ele>
        <time>2022-12-08T14:13:19Z</time>
      </trkpt>
      <trkpt lat="47.99847" lon="-3.75996">
        <ele>136.8</ele>
        <time>2022-12-08T14:13:20Z</time>
      </trkpt>
      <trkpt lat="47.99843" lon="-3.76003">
        <ele>136.9</ele>
        <time>2022-12-08T14:13:21Z</time>
      </trkpt>
      <trkpt lat="47.9984" lon="-3.76009">
        <ele>137</ele>
        <time>2022-12-08T14:13:23Z</time>
      </trkpt>
      <trkpt lat="47.99834" lon="-3.76017">
        <ele>137</ele>
        <time>2022-12-08T14:13:24Z</time>
      </trkpt>
      <trkpt lat="47.99829" lon="-3.76025">
        <ele>137.1</ele>
        <time>2022-12-08T14:13:25Z</time>
      </trkpt>
      <trkpt lat="47.99825" lon="-3.7603">
        <ele>137.2</ele>
        <time>2022-12-08T14:13:26Z</time>
      </trkpt>
      <trkpt lat="47.99823" lon="-3.76035">
        <ele>137.3</ele>
        <time>2022-12-08T14:13:27Z</time>
      </trkpt>
      <trkpt lat="47.99819" lon="-3.7604">
        <ele>137.4</ele>
        <time>2022-12-08T14:13:28Z</time>
      </trkpt>
      <trkpt lat="47.99815" lon="-3.76044">
        <ele>137.5</ele>
        <time>2022-12-08T14:13:29Z</time>
      </trkpt>
      <trkpt lat="47.99812" lon="-3.7605">
        <ele>137.6</ele>
        <time>2022-12-08T14:13:30Z</time>
      </trkpt>
      <trkpt lat="47.9981" lon="-3.76052">
        <ele>137.6</ele>
        <time>2022-12-08T14:13:31Z</time>
      </trkpt>
      <trkpt lat="47.99807" lon="-3.76056">
        <ele>137.7</ele>
        <time>2022-12-08T14:13:32Z</time>
      </trkpt>
      <trkpt lat="47.99802" lon="-3.76064">
        <ele>137.9</ele>
        <time>2022-12-08T14:13:34Z</time>
      </trkpt>
      <trkpt lat="47.99797" lon="-3.76071">
        <ele>138.1</ele>
        <time>2022-12-08T14:13:35Z</time>
      </trkpt>
      <trkpt lat="47.99793" lon="-3.76076">
        <ele>138.2</ele>
        <time>2022-12-08T14:13:36Z</time>
      </trkpt>
      <trkpt lat="47.99791" lon="-3.76081">
        <ele>138.3</ele>
        <time>2022-12-08T14:13:37Z</time>
      </trkpt>
      <trkpt lat="47.99788" lon="-3.76086">
        <ele>138.4</ele>
        <time>2022-12-08T14:13:38Z</time>
      </trkpt>
      <trkpt lat="47.99785" lon="-3.7609">
        <ele>138.6</ele>
        <time>2022-12-08T14:13:39Z</time>
      </trkpt>
      <trkpt lat="47.9978" lon="-3.76095">
        <ele>138.7</ele>
        <time>2022-12-08T14:13:40Z</time>
      </trkpt>
      <trkpt lat="47.99777" lon="-3.76099">
        <ele>138.8</ele>
        <time>2022-12-08T14:13:41Z</time>
      </trkpt>
      <trkpt lat="47.99772" lon="-3.76104">
        <ele>138.9</ele>
        <time>2022-12-08T14:13:42Z</time>
      </trkpt>
      <trkpt lat="47.99767" lon="-3.7611">
        <ele>139</ele>
        <time>2022-12-08T14:13:44Z</time>
      </trkpt>
      <trkpt lat="47.99765" lon="-3.76114">
        <ele>139.1</ele>
        <time>2022-12-08T14:13:45Z</time>
      </trkpt>
      <trkpt lat="47.99761" lon="-3.76121">
        <ele>139.2</ele>
        <time>2022-12-08T14:13:46Z</time>
      </trkpt>
      <trkpt lat="47.99759" lon="-3.76124">
        <ele>139.3</ele>
        <time>2022-12-08T14:13:47Z</time>
      </trkpt>
      <trkpt lat="47.99755" lon="-3.76129">
        <ele>139.4</ele>
        <time>2022-12-08T14:13:48Z</time>
      </trkpt>
      <trkpt lat="47.99752" lon="-3.76135">
        <ele>139.5</ele>
        <time>2022-12-08T14:13:49Z</time>
      </trkpt>
      <trkpt lat="47.99749" lon="-3.76139">
        <ele>139.6</ele>
        <time>2022-12-08T14:13:50Z</time>
      </trkpt>
      <trkpt lat="47.99746" lon="-3.76142">
        <ele>139.7</ele>
        <time>2022-12-08T14:13:51Z</time>
      </trkpt>
      <trkpt lat="47.99742" lon="-3.76147">
        <ele>139.8</ele>
        <time>2022-12-08T14:13:52Z</time>
      </trkpt>
      <trkpt lat="47.99739" lon="-3.76151">
        <ele>139.9</ele>
        <time>2022-12-08T14:13:53Z</time>
      </trkpt>
      <trkpt lat="47.99735" lon="-3.76156">
        <ele>140</ele>
        <time>2022-12-08T14:13:54Z</time>
      </trkpt>
      <trkpt lat="47.99732" lon="-3.7616">
        <ele>140.1</ele>
        <time>2022-12-08T14:13:55Z</time>
      </trkpt>
      <trkpt lat="47.99729" lon="-3.76165">
        <ele>140.2</ele>
        <time>2022-12-08T14:13:56Z</time>
      </trkpt>
      <trkpt lat="47.99726" lon="-3.76171">
        <ele>140.3</ele>
        <time>2022-12-08T14:13:57Z</time>
      </trkpt>
      <trkpt lat="47.99722" lon="-3.76175">
        <ele>140.4</ele>
        <time>2022-12-08T14:13:58Z</time>
      </trkpt>
      <trkpt lat="47.9972" lon="-3.76178">
        <ele>140.5</ele>
        <time>2022-12-08T14:13:59Z</time>
      </trkpt>
      <trkpt lat="47.99717" lon="-3.76185">
        <ele>140.6</ele>
        <time>2022-12-08T14:14:01Z</time>
      </trkpt>
      <trkpt lat="47.99714" lon="-3.76189">
        <ele>140.7</ele>
        <time>2022-12-08T14:14:02Z</time>
      </trkpt>
      <trkpt lat="47.99709" lon="-3.76196">
        <ele>140.8</ele>
        <time>2022-12-08T14:14:03Z</time>
      </trkpt>
      <trkpt lat="47.99706" lon="-3.762">
        <ele>140.9</ele>
        <time>2022-12-08T14:14:04Z</time>
      </trkpt>
      <trkpt lat="47.99704" lon="-3.76204">
        <ele>141</ele>
        <time>2022-12-08T14:14:05Z</time>
      </trkpt>
      <trkpt lat="47.99699" lon="-3.7621">
        <ele>141.1</ele>
        <time>2022-12-08T14:14:06Z</time>
      </trkpt>
      <trkpt lat="47.99696" lon="-3.76215">
        <ele>141.2</ele>
        <time>2022-12-08T14:14:07Z</time>
      </trkpt>
      <trkpt lat="47.99692" lon="-3.76219">
        <ele>141.3</ele>
        <time>2022-12-08T14:14:08Z</time>
      </trkpt>
      <trkpt lat="47.99689" lon="-3.76223">
        <ele>141.3</ele>
        <time>2022-12-08T14:14:09Z</time>
      </trkpt>
      <trkpt lat="47.99685" lon="-3.76229">
        <ele>141.5</ele>
        <time>2022-12-08T14:14:10Z</time>
      </trkpt>
      <trkpt lat="47.99682" lon="-3.76233">
        <ele>141.6</ele>
        <time>2022-12-08T14:14:11Z</time>
      </trkpt>
      <trkpt lat="47.99679" lon="-3.76237">
        <ele>141.7</ele>
        <time>2022-12-08T14:14:13Z</time>
      </trkpt>
      <trkpt lat="47.99675" lon="-3.7624">
        <ele>141.8</ele>
        <time>2022-12-08T14:14:14Z</time>
      </trkpt>
      <trkpt lat="47.99672" lon="-3.76245">
        <ele>141.9</ele>
        <time>2022-12-08T14:14:15Z</time>
      </trkpt>
      <trkpt lat="47.99669" lon="-3.7625">
        <ele>142</ele>
        <time>2022-12-08T14:14:16Z</time>
      </trkpt>
      <trkpt lat="47.99666" lon="-3.76255">
        <ele>142.1</ele>
        <time>2022-12-08T14:14:17Z</time>
      </trkpt>
      <trkpt lat="47.99662" lon="-3.7626">
        <ele>142.2</ele>
        <time>2022-12-08T14:14:18Z</time>
      </trkpt>
      <trkpt lat="47.99658" lon="-3.76264">
        <ele>142.3</ele>
        <time>2022-12-08T14:14:19Z</time>
      </trkpt>
      <trkpt lat="47.99654" lon="-3.76269">
        <ele>142.4</ele>
        <time>2022-12-08T14:14:20Z</time>
      </trkpt>
      <trkpt lat="47.99651" lon="-3.76275">
        <ele>142.5</ele>
        <time>2022-12-08T14:14:21Z</time>
      </trkpt>
      <trkpt lat="47.99646" lon="-3.76281">
        <ele>142.7</ele>
        <time>2022-12-08T14:14:23Z</time>
      </trkpt>
      <trkpt lat="47.99641" lon="-3.7629">
        <ele>142.8</ele>
        <time>2022-12-08T14:14:24Z</time>
      </trkpt>
      <trkpt lat="47.99634" lon="-3.76298">
        <ele>142.9</ele>
        <time>2022-12-08T14:14:26Z</time>
      </trkpt>
      <trkpt lat="47.99631" lon="-3.76303">
        <ele>143</ele>
        <time>2022-12-08T14:14:27Z</time>
      </trkpt>
      <trkpt lat="47.99628" lon="-3.7631">
        <ele>143.1</ele>
        <time>2022-12-08T14:14:28Z</time>
      </trkpt>
      <trkpt lat="47.99624" lon="-3.76316">
        <ele>143.2</ele>
        <time>2022-12-08T14:14:29Z</time>
      </trkpt>
      <trkpt lat="47.99621" lon="-3.7632">
        <ele>143.3</ele>
        <time>2022-12-08T14:14:30Z</time>
      </trkpt>
      <trkpt lat="47.99618" lon="-3.76324">
        <ele>143.3</ele>
        <time>2022-12-08T14:14:31Z</time>
      </trkpt>
      <trkpt lat="47.99611" lon="-3.76332">
        <ele>143.5</ele>
        <time>2022-12-08T14:14:33Z</time>
      </trkpt>
      <trkpt lat="47.99606" lon="-3.7634">
        <ele>143.6</ele>
        <time>2022-12-08T14:14:34Z</time>
      </trkpt>
      <trkpt lat="47.99602" lon="-3.76346">
        <ele>143.8</ele>
        <time>2022-12-08T14:14:35Z</time>
      </trkpt>
      <trkpt lat="47.99598" lon="-3.76351">
        <ele>143.9</ele>
        <time>2022-12-08T14:14:36Z</time>
      </trkpt>
      <trkpt lat="47.99595" lon="-3.76356">
        <ele>144</ele>
        <time>2022-12-08T14:14:37Z</time>
      </trkpt>
      <trkpt lat="47.9959" lon="-3.76357">
        <ele>144.1</ele>
        <time>2022-12-08T14:14:39Z</time>
      </trkpt>
      <trkpt lat="47.99585" lon="-3.76365">
        <ele>144.3</ele>
        <time>2022-12-08T14:14:40Z</time>
      </trkpt>
      <trkpt lat="47.99582" lon="-3.7637">
        <ele>144.3</ele>
        <time>2022-12-08T14:14:41Z</time>
      </trkpt>
      <trkpt lat="47.99577" lon="-3.76377">
        <ele>144.5</ele>
        <time>2022-12-08T14:14:42Z</time>
      </trkpt>
      <trkpt lat="47.99573" lon="-3.76381">
        <ele>144.6</ele>
        <time>2022-12-08T14:14:43Z</time>
      </trkpt>
      <trkpt lat="47.9957" lon="-3.76382">
        <ele>144.6</ele>
        <time>2022-12-08T14:14:44Z</time>
      </trkpt>
      <trkpt lat="47.99564" lon="-3.76389">
        <ele>144.8</ele>
        <time>2022-12-08T14:14:46Z</time>
      </trkpt>
      <trkpt lat="47.99559" lon="-3.76393">
        <ele>144.9</ele>
        <time>2022-12-08T14:14:47Z</time>
      </trkpt>
      <trkpt lat="47.99555" lon="-3.76396">
        <ele>145</ele>
        <time>2022-12-08T14:14:48Z</time>
      </trkpt>
      <trkpt lat="47.99551" lon="-3.764">
        <ele>145.1</ele>
        <time>2022-12-08T14:14:49Z</time>
      </trkpt>
      <trkpt lat="47.99547" lon="-3.76404">
        <ele>145.1</ele>
        <time>2022-12-08T14:14:50Z</time>
      </trkpt>
      <trkpt lat="47.99543" lon="-3.76409">
        <ele>145.2</ele>
        <time>2022-12-08T14:14:51Z</time>
      </trkpt>
      <trkpt lat="47.99539" lon="-3.76412">
        <ele>145.3</ele>
        <time>2022-12-08T14:14:52Z</time>
      </trkpt>
      <trkpt lat="47.99534" lon="-3.76415">
        <ele>145.4</ele>
        <time>2022-12-08T14:14:53Z</time>
      </trkpt>
      <trkpt lat="47.9953" lon="-3.76418">
        <ele>145.5</ele>
        <time>2022-12-08T14:14:54Z</time>
      </trkpt>
      <trkpt lat="47.99527" lon="-3.76422">
        <ele>145.6</ele>
        <time>2022-12-08T14:14:55Z</time>
      </trkpt>
      <trkpt lat="47.99523" lon="-3.76426">
        <ele>145.8</ele>
        <time>2022-12-08T14:14:56Z</time>
      </trkpt>
      <trkpt lat="47.99519" lon="-3.7643">
        <ele>145.9</ele>
        <time>2022-12-08T14:14:58Z</time>
      </trkpt>
      <trkpt lat="47.99515" lon="-3.76433">
        <ele>146</ele>
        <time>2022-12-08T14:14:59Z</time>
      </trkpt>
      <trkpt lat="47.9951" lon="-3.76438">
        <ele>146.2</ele>
        <time>2022-12-08T14:15:00Z</time>
      </trkpt>
      <trkpt lat="47.99504" lon="-3.76443">
        <ele>146.3</ele>
        <time>2022-12-08T14:15:01Z</time>
      </trkpt>
      <trkpt lat="47.995" lon="-3.76446">
        <ele>146.4</ele>
        <time>2022-12-08T14:15:02Z</time>
      </trkpt>
      <trkpt lat="47.99496" lon="-3.76449">
        <ele>146.5</ele>
        <time>2022-12-08T14:15:03Z</time>
      </trkpt>
      <trkpt lat="47.99493" lon="-3.76451">
        <ele>146.6</ele>
        <time>2022-12-08T14:15:04Z</time>
      </trkpt>
      <trkpt lat="47.99489" lon="-3.76455">
        <ele>146.7</ele>
        <time>2022-12-08T14:15:05Z</time>
      </trkpt>
      <trkpt lat="47.99486" lon="-3.76456">
        <ele>146.8</ele>
        <time>2022-12-08T14:15:06Z</time>
      </trkpt>
      <trkpt lat="47.99482" lon="-3.7646">
        <ele>146.9</ele>
        <time>2022-12-08T14:15:07Z</time>
      </trkpt>
      <trkpt lat="47.99479" lon="-3.76462">
        <ele>147</ele>
        <time>2022-12-08T14:15:08Z</time>
      </trkpt>
      <trkpt lat="47.99477" lon="-3.76465">
        <ele>147.1</ele>
        <time>2022-12-08T14:15:09Z</time>
      </trkpt>
      <trkpt lat="47.99472" lon="-3.76469">
        <ele>147.2</ele>
        <time>2022-12-08T14:15:10Z</time>
      </trkpt>
      <trkpt lat="47.99468" lon="-3.76472">
        <ele>147.3</ele>
        <time>2022-12-08T14:15:11Z</time>
      </trkpt>
      <trkpt lat="47.99465" lon="-3.76475">
        <ele>147.3</ele>
        <time>2022-12-08T14:15:12Z</time>
      </trkpt>
      <trkpt lat="47.99463" lon="-3.76478">
        <ele>147.4</ele>
        <time>2022-12-08T14:15:13Z</time>
      </trkpt>
      <trkpt lat="47.99459" lon="-3.76483">
        <ele>147.5</ele>
        <time>2022-12-08T14:15:14Z</time>
      </trkpt>
      <trkpt lat="47.99454" lon="-3.76489">
        <ele>147.6</ele>
        <time>2022-12-08T14:15:16Z</time>
      </trkpt>
      <trkpt lat="47.99451" lon="-3.76493">
        <ele>147.7</ele>
        <time>2022-12-08T14:15:17Z</time>
      </trkpt>
      <trkpt lat="47.99447" lon="-3.76498">
        <ele>147.8</ele>
        <time>2022-12-08T14:15:18Z</time>
      </trkpt>
      <trkpt lat="47.99443" lon="-3.76503">
        <ele>147.9</ele>
        <time>2022-12-08T14:15:19Z</time>
      </trkpt>
      <trkpt lat="47.9944" lon="-3.76507">
        <ele>148</ele>
        <time>2022-12-08T14:15:20Z</time>
      </trkpt>
      <trkpt lat="47.99438" lon="-3.76511">
        <ele>148.1</ele>
        <time>2022-12-08T14:15:21Z</time>
      </trkpt>
      <trkpt lat="47.99435" lon="-3.76518">
        <ele>148.2</ele>
        <time>2022-12-08T14:15:23Z</time>
      </trkpt>
      <trkpt lat="47.99431" lon="-3.76524">
        <ele>148.4</ele>
        <time>2022-12-08T14:15:24Z</time>
      </trkpt>
      <trkpt lat="47.99428" lon="-3.76532">
        <ele>148.5</ele>
        <time>2022-12-08T14:15:25Z</time>
      </trkpt>
      <trkpt lat="47.99424" lon="-3.76537">
        <ele>148.6</ele>
        <time>2022-12-08T14:15:26Z</time>
      </trkpt>
      <trkpt lat="47.99422" lon="-3.76542">
        <ele>148.7</ele>
        <time>2022-12-08T14:15:27Z</time>
      </trkpt>
      <trkpt lat="47.99419" lon="-3.76549">
        <ele>148.8</ele>
        <time>2022-12-08T14:15:28Z</time>
      </trkpt>
      <trkpt lat="47.99417" lon="-3.76556">
        <ele>148.9</ele>
        <time>2022-12-08T14:15:29Z</time>
      </trkpt>
      <trkpt lat="47.99414" lon="-3.76565">
        <ele>149</ele>
        <time>2022-12-08T14:15:31Z</time>
      </trkpt>
      <trkpt lat="47.99411" lon="-3.76572">
        <ele>149.1</ele>
        <time>2022-12-08T14:15:32Z</time>
      </trkpt>
      <trkpt lat="47.99407" lon="-3.76582">
        <ele>149.2</ele>
        <time>2022-12-08T14:15:33Z</time>
      </trkpt>
      <trkpt lat="47.99405" lon="-3.76589">
        <ele>149.3</ele>
        <time>2022-12-08T14:15:34Z</time>
      </trkpt>
      <trkpt lat="47.99403" lon="-3.76595">
        <ele>149.3</ele>
        <time>2022-12-08T14:15:35Z</time>
      </trkpt>
      <trkpt lat="47.99402" lon="-3.76603">
        <ele>149.4</ele>
        <time>2022-12-08T14:15:36Z</time>
      </trkpt>
      <trkpt lat="47.994" lon="-3.76611">
        <ele>149.4</ele>
        <time>2022-12-08T14:15:37Z</time>
      </trkpt>
      <trkpt lat="47.99398" lon="-3.76618">
        <ele>149.5</ele>
        <time>2022-12-08T14:15:38Z</time>
      </trkpt>
      <trkpt lat="47.99397" lon="-3.76625">
        <ele>149.5</ele>
        <time>2022-12-08T14:15:39Z</time>
      </trkpt>
      <trkpt lat="47.99395" lon="-3.76632">
        <ele>149.5</ele>
        <time>2022-12-08T14:15:40Z</time>
      </trkpt>
      <trkpt lat="47.99395" lon="-3.76641">
        <ele>149.6</ele>
        <time>2022-12-08T14:15:41Z</time>
      </trkpt>
      <trkpt lat="47.99394" lon="-3.76649">
        <ele>149.6</ele>
        <time>2022-12-08T14:15:42Z</time>
      </trkpt>
      <trkpt lat="47.99392" lon="-3.76657">
        <ele>149.6</ele>
        <time>2022-12-08T14:15:43Z</time>
      </trkpt>
      <trkpt lat="47.99391" lon="-3.76663">
        <ele>149.7</ele>
        <time>2022-12-08T14:15:44Z</time>
      </trkpt>
      <trkpt lat="47.9939" lon="-3.76671">
        <ele>149.7</ele>
        <time>2022-12-08T14:15:45Z</time>
      </trkpt>
      <trkpt lat="47.99389" lon="-3.76679">
        <ele>149.7</ele>
        <time>2022-12-08T14:15:46Z</time>
      </trkpt>
      <trkpt lat="47.99388" lon="-3.76687">
        <ele>149.6</ele>
        <time>2022-12-08T14:15:47Z</time>
      </trkpt>
      <trkpt lat="47.99387" lon="-3.76694">
        <ele>149.6</ele>
        <time>2022-12-08T14:15:48Z</time>
      </trkpt>
      <trkpt lat="47.99386" lon="-3.76701">
        <ele>149.6</ele>
        <time>2022-12-08T14:15:49Z</time>
      </trkpt>
      <trkpt lat="47.99385" lon="-3.76709">
        <ele>149.5</ele>
        <time>2022-12-08T14:15:50Z</time>
      </trkpt>
      <trkpt lat="47.99384" lon="-3.76717">
        <ele>149.4</ele>
        <time>2022-12-08T14:15:51Z</time>
      </trkpt>
      <trkpt lat="47.99383" lon="-3.76725">
        <ele>149.4</ele>
        <time>2022-12-08T14:15:52Z</time>
      </trkpt>
      <trkpt lat="47.99382" lon="-3.76733">
        <ele>149.3</ele>
        <time>2022-12-08T14:15:53Z</time>
      </trkpt>
      <trkpt lat="47.99381" lon="-3.76741">
        <ele>149.2</ele>
        <time>2022-12-08T14:15:54Z</time>
      </trkpt>
      <trkpt lat="47.99379" lon="-3.76749">
        <ele>149</ele>
        <time>2022-12-08T14:15:55Z</time>
      </trkpt>
      <trkpt lat="47.99378" lon="-3.76757">
        <ele>148.9</ele>
        <time>2022-12-08T14:15:56Z</time>
      </trkpt>
      <trkpt lat="47.99376" lon="-3.76765">
        <ele>148.8</ele>
        <time>2022-12-08T14:15:57Z</time>
      </trkpt>
      <trkpt lat="47.99373" lon="-3.76774">
        <ele>148.6</ele>
        <time>2022-12-08T14:15:58Z</time>
      </trkpt>
      <trkpt lat="47.99371" lon="-3.76782">
        <ele>148.5</ele>
        <time>2022-12-08T14:15:59Z</time>
      </trkpt>
      <trkpt lat="47.99369" lon="-3.7679">
        <ele>148.4</ele>
        <time>2022-12-08T14:16:00Z</time>
      </trkpt>
      <trkpt lat="47.99365" lon="-3.76798">
        <ele>148.3</ele>
        <time>2022-12-08T14:16:01Z</time>
      </trkpt>
      <trkpt lat="47.99362" lon="-3.76805">
        <ele>148.2</ele>
        <time>2022-12-08T14:16:02Z</time>
      </trkpt>
      <trkpt lat="47.99359" lon="-3.76812">
        <ele>148.1</ele>
        <time>2022-12-08T14:16:03Z</time>
      </trkpt>
      <trkpt lat="47.99356" lon="-3.7682">
        <ele>148</ele>
        <time>2022-12-08T14:16:04Z</time>
      </trkpt>
      <trkpt lat="47.99353" lon="-3.76828">
        <ele>147.9</ele>
        <time>2022-12-08T14:16:05Z</time>
      </trkpt>
      <trkpt lat="47.9935" lon="-3.76834">
        <ele>147.9</ele>
        <time>2022-12-08T14:16:06Z</time>
      </trkpt>
      <trkpt lat="47.99346" lon="-3.76839">
        <ele>147.8</ele>
        <time>2022-12-08T14:16:07Z</time>
      </trkpt>
      <trkpt lat="47.99342" lon="-3.76845">
        <ele>147.7</ele>
        <time>2022-12-08T14:16:08Z</time>
      </trkpt>
      <trkpt lat="47.99339" lon="-3.76852">
        <ele>147.6</ele>
        <time>2022-12-08T14:16:09Z</time>
      </trkpt>
      <trkpt lat="47.99336" lon="-3.76859">
        <ele>147.6</ele>
        <time>2022-12-08T14:16:10Z</time>
      </trkpt>
      <trkpt lat="47.99331" lon="-3.76866">
        <ele>147.5</ele>
        <time>2022-12-08T14:16:11Z</time>
      </trkpt>
      <trkpt lat="47.99325" lon="-3.76873">
        <ele>147.4</ele>
        <time>2022-12-08T14:16:12Z</time>
      </trkpt>
      <trkpt lat="47.9932" lon="-3.7688">
        <ele>147.4</ele>
        <time>2022-12-08T14:16:13Z</time>
      </trkpt>
      <trkpt lat="47.99315" lon="-3.76886">
        <ele>147.3</ele>
        <time>2022-12-08T14:16:14Z</time>
      </trkpt>
      <trkpt lat="47.99312" lon="-3.76892">
        <ele>147.3</ele>
        <time>2022-12-08T14:16:15Z</time>
      </trkpt>
      <trkpt lat="47.99308" lon="-3.76896">
        <ele>147.3</ele>
        <time>2022-12-08T14:16:16Z</time>
      </trkpt>
      <trkpt lat="47.99303" lon="-3.76901">
        <ele>147.2</ele>
        <time>2022-12-08T14:16:17Z</time>
      </trkpt>
      <trkpt lat="47.99298" lon="-3.76907">
        <ele>147.2</ele>
        <time>2022-12-08T14:16:18Z</time>
      </trkpt>
      <trkpt lat="47.99292" lon="-3.76911">
        <ele>147.2</ele>
        <time>2022-12-08T14:16:19Z</time>
      </trkpt>
      <trkpt lat="47.99287" lon="-3.76916">
        <ele>147.2</ele>
        <time>2022-12-08T14:16:20Z</time>
      </trkpt>
      <trkpt lat="47.99282" lon="-3.76921">
        <ele>147.2</ele>
        <time>2022-12-08T14:16:21Z</time>
      </trkpt>
      <trkpt lat="47.99276" lon="-3.76926">
        <ele>147.2</ele>
        <time>2022-12-08T14:16:22Z</time>
      </trkpt>
      <trkpt lat="47.99271" lon="-3.7693">
        <ele>147.3</ele>
        <time>2022-12-08T14:16:23Z</time>
      </trkpt>
      <trkpt lat="47.99266" lon="-3.76934">
        <ele>147.3</ele>
        <time>2022-12-08T14:16:24Z</time>
      </trkpt>
      <trkpt lat="47.99261" lon="-3.76937">
        <ele>147.3</ele>
        <time>2022-12-08T14:16:25Z</time>
      </trkpt>
      <trkpt lat="47.99256" lon="-3.7694">
        <ele>147.4</ele>
        <time>2022-12-08T14:16:26Z</time>
      </trkpt>
      <trkpt lat="47.99251" lon="-3.76944">
        <ele>147.4</ele>
        <time>2022-12-08T14:16:27Z</time>
      </trkpt>
      <trkpt lat="47.99245" lon="-3.76948">
        <ele>147.4</ele>
        <time>2022-12-08T14:16:28Z</time>
      </trkpt>
      <trkpt lat="47.9924" lon="-3.76952">
        <ele>147.5</ele>
        <time>2022-12-08T14:16:29Z</time>
      </trkpt>
      <trkpt lat="47.99235" lon="-3.76956">
        <ele>147.5</ele>
        <time>2022-12-08T14:16:30Z</time>
      </trkpt>
      <trkpt lat="47.9923" lon="-3.76959">
        <ele>147.6</ele>
        <time>2022-12-08T14:16:31Z</time>
      </trkpt>
      <trkpt lat="47.99225" lon="-3.76963">
        <ele>147.7</ele>
        <time>2022-12-08T14:16:32Z</time>
      </trkpt>
      <trkpt lat="47.9922" lon="-3.76967">
        <ele>147.8</ele>
        <time>2022-12-08T14:16:33Z</time>
      </trkpt>
      <trkpt lat="47.99215" lon="-3.76971">
        <ele>147.9</ele>
        <time>2022-12-08T14:16:34Z</time>
      </trkpt>
      <trkpt lat="47.9921" lon="-3.76974">
        <ele>148</ele>
        <time>2022-12-08T14:16:35Z</time>
      </trkpt>
      <trkpt lat="47.99205" lon="-3.76978">
        <ele>148.1</ele>
        <time>2022-12-08T14:16:36Z</time>
      </trkpt>
      <trkpt lat="47.99201" lon="-3.76982">
        <ele>148.2</ele>
        <time>2022-12-08T14:16:37Z</time>
      </trkpt>
      <trkpt lat="47.99196" lon="-3.76986">
        <ele>148.3</ele>
        <time>2022-12-08T14:16:38Z</time>
      </trkpt>
      <trkpt lat="47.99192" lon="-3.7699">
        <ele>148.4</ele>
        <time>2022-12-08T14:16:39Z</time>
      </trkpt>
      <trkpt lat="47.99188" lon="-3.76994">
        <ele>148.5</ele>
        <time>2022-12-08T14:16:40Z</time>
      </trkpt>
      <trkpt lat="47.99184" lon="-3.76999">
        <ele>148.6</ele>
        <time>2022-12-08T14:16:41Z</time>
      </trkpt>
      <trkpt lat="47.99181" lon="-3.77003">
        <ele>148.8</ele>
        <time>2022-12-08T14:16:42Z</time>
      </trkpt>
      <trkpt lat="47.99179" lon="-3.77006">
        <ele>148.8</ele>
        <time>2022-12-08T14:16:43Z</time>
      </trkpt>
      <trkpt lat="47.99175" lon="-3.77013">
        <ele>149</ele>
        <time>2022-12-08T14:16:44Z</time>
      </trkpt>
      <trkpt lat="47.99171" lon="-3.77019">
        <ele>149.1</ele>
        <time>2022-12-08T14:16:45Z</time>
      </trkpt>
      <trkpt lat="47.99167" lon="-3.77024">
        <ele>149.2</ele>
        <time>2022-12-08T14:16:46Z</time>
      </trkpt>
      <trkpt lat="47.99163" lon="-3.7703">
        <ele>149.3</ele>
        <time>2022-12-08T14:16:47Z</time>
      </trkpt>
      <trkpt lat="47.9916" lon="-3.77035">
        <ele>149.4</ele>
        <time>2022-12-08T14:16:48Z</time>
      </trkpt>
      <trkpt lat="47.99156" lon="-3.77041">
        <ele>149.5</ele>
        <time>2022-12-08T14:16:49Z</time>
      </trkpt>
      <trkpt lat="47.99154" lon="-3.77048">
        <ele>149.6</ele>
        <time>2022-12-08T14:16:50Z</time>
      </trkpt>
      <trkpt lat="47.99151" lon="-3.77056">
        <ele>149.7</ele>
        <time>2022-12-08T14:16:51Z</time>
      </trkpt>
      <trkpt lat="47.99148" lon="-3.77061">
        <ele>149.7</ele>
        <time>2022-12-08T14:16:52Z</time>
      </trkpt>
      <trkpt lat="47.99146" lon="-3.77067">
        <ele>149.8</ele>
        <time>2022-12-08T14:16:53Z</time>
      </trkpt>
      <trkpt lat="47.99144" lon="-3.77074">
        <ele>149.8</ele>
        <time>2022-12-08T14:16:54Z</time>
      </trkpt>
      <trkpt lat="47.99142" lon="-3.77081">
        <ele>149.9</ele>
        <time>2022-12-08T14:16:55Z</time>
      </trkpt>
      <trkpt lat="47.99139" lon="-3.77087">
        <ele>150</ele>
        <time>2022-12-08T14:16:56Z</time>
      </trkpt>
      <trkpt lat="47.99137" lon="-3.77093">
        <ele>150</ele>
        <time>2022-12-08T14:16:57Z</time>
      </trkpt>
      <trkpt lat="47.99135" lon="-3.771">
        <ele>150.1</ele>
        <time>2022-12-08T14:16:58Z</time>
      </trkpt>
      <trkpt lat="47.99132" lon="-3.77106">
        <ele>150.1</ele>
        <time>2022-12-08T14:16:59Z</time>
      </trkpt>
      <trkpt lat="47.99131" lon="-3.77111">
        <ele>150.1</ele>
        <time>2022-12-08T14:17:00Z</time>
      </trkpt>
      <trkpt lat="47.99129" lon="-3.77121">
        <ele>150.1</ele>
        <time>2022-12-08T14:17:01Z</time>
      </trkpt>
      <trkpt lat="47.99127" lon="-3.77129">
        <ele>150.1</ele>
        <time>2022-12-08T14:17:02Z</time>
      </trkpt>
      <trkpt lat="47.99125" lon="-3.77137">
        <ele>150.1</ele>
        <time>2022-12-08T14:17:03Z</time>
      </trkpt>
      <trkpt lat="47.99124" lon="-3.77144">
        <ele>150.1</ele>
        <time>2022-12-08T14:17:04Z</time>
      </trkpt>
      <trkpt lat="47.99122" lon="-3.77152">
        <ele>150.1</ele>
        <time>2022-12-08T14:17:05Z</time>
      </trkpt>
      <trkpt lat="47.99121" lon="-3.77161">
        <ele>150.1</ele>
        <time>2022-12-08T14:17:06Z</time>
      </trkpt>
      <trkpt lat="47.9912" lon="-3.77169">
        <ele>150.1</ele>
        <time>2022-12-08T14:17:07Z</time>
      </trkpt>
      <trkpt lat="47.99119" lon="-3.77177">
        <ele>150</ele>
        <time>2022-12-08T14:17:08Z</time>
      </trkpt>
      <trkpt lat="47.99119" lon="-3.77186">
        <ele>150</ele>
        <time>2022-12-08T14:17:09Z</time>
      </trkpt>
      <trkpt lat="47.99118" lon="-3.77195">
        <ele>150</ele>
        <time>2022-12-08T14:17:10Z</time>
      </trkpt>
      <trkpt lat="47.99117" lon="-3.77203">
        <ele>150</ele>
        <time>2022-12-08T14:17:11Z</time>
      </trkpt>
      <trkpt lat="47.99116" lon="-3.77211">
        <ele>150</ele>
        <time>2022-12-08T14:17:12Z</time>
      </trkpt>
      <trkpt lat="47.99115" lon="-3.7722">
        <ele>149.9</ele>
        <time>2022-12-08T14:17:13Z</time>
      </trkpt>
      <trkpt lat="47.99116" lon="-3.77228">
        <ele>149.9</ele>
        <time>2022-12-08T14:17:14Z</time>
      </trkpt>
      <trkpt lat="47.99117" lon="-3.77237">
        <ele>149.9</ele>
        <time>2022-12-08T14:17:15Z</time>
      </trkpt>
      <trkpt lat="47.99116" lon="-3.77245">
        <ele>149.9</ele>
        <time>2022-12-08T14:17:16Z</time>
      </trkpt>
      <trkpt lat="47.99116" lon="-3.77254">
        <ele>149.8</ele>
        <time>2022-12-08T14:17:17Z</time>
      </trkpt>
      <trkpt lat="47.99117" lon="-3.77262">
        <ele>149.8</ele>
        <time>2022-12-08T14:17:18Z</time>
      </trkpt>
      <trkpt lat="47.99118" lon="-3.7727">
        <ele>149.8</ele>
        <time>2022-12-08T14:17:19Z</time>
      </trkpt>
      <trkpt lat="47.99118" lon="-3.77278">
        <ele>149.8</ele>
        <time>2022-12-08T14:17:20Z</time>
      </trkpt>
      <trkpt lat="47.99119" lon="-3.77287">
        <ele>149.7</ele>
        <time>2022-12-08T14:17:21Z</time>
      </trkpt>
      <trkpt lat="47.99119" lon="-3.77295">
        <ele>149.7</ele>
        <time>2022-12-08T14:17:22Z</time>
      </trkpt>
      <trkpt lat="47.99119" lon="-3.77304">
        <ele>149.7</ele>
        <time>2022-12-08T14:17:23Z</time>
      </trkpt>
      <trkpt lat="47.99119" lon="-3.77313">
        <ele>149.7</ele>
        <time>2022-12-08T14:17:24Z</time>
      </trkpt>
      <trkpt lat="47.99119" lon="-3.77322">
        <ele>149.6</ele>
        <time>2022-12-08T14:17:25Z</time>
      </trkpt>
      <trkpt lat="47.99119" lon="-3.77331">
        <ele>149.6</ele>
        <time>2022-12-08T14:17:26Z</time>
      </trkpt>
      <trkpt lat="47.99119" lon="-3.7734">
        <ele>149.6</ele>
        <time>2022-12-08T14:17:27Z</time>
      </trkpt>
      <trkpt lat="47.99119" lon="-3.77349">
        <ele>149.6</ele>
        <time>2022-12-08T14:17:28Z</time>
      </trkpt>
      <trkpt lat="47.99119" lon="-3.77358">
        <ele>149.6</ele>
        <time>2022-12-08T14:17:29Z</time>
      </trkpt>
      <trkpt lat="47.99119" lon="-3.77367">
        <ele>149.5</ele>
        <time>2022-12-08T14:17:30Z</time>
      </trkpt>
      <trkpt lat="47.9912" lon="-3.77377">
        <ele>149.5</ele>
        <time>2022-12-08T14:17:31Z</time>
      </trkpt>
      <trkpt lat="47.9912" lon="-3.77386">
        <ele>149.5</ele>
        <time>2022-12-08T14:17:32Z</time>
      </trkpt>
      <trkpt lat="47.9912" lon="-3.77395">
        <ele>149.4</ele>
        <time>2022-12-08T14:17:33Z</time>
      </trkpt>
      <trkpt lat="47.9912" lon="-3.77404">
        <ele>149.4</ele>
        <time>2022-12-08T14:17:34Z</time>
      </trkpt>
      <trkpt lat="47.9912" lon="-3.77414">
        <ele>149.4</ele>
        <time>2022-12-08T14:17:35Z</time>
      </trkpt>
      <trkpt lat="47.99121" lon="-3.77423">
        <ele>149.4</ele>
        <time>2022-12-08T14:17:36Z</time>
      </trkpt>
      <trkpt lat="47.99121" lon="-3.77433">
        <ele>149.4</ele>
        <time>2022-12-08T14:17:37Z</time>
      </trkpt>
      <trkpt lat="47.99122" lon="-3.77442">
        <ele>149.3</ele>
        <time>2022-12-08T14:17:38Z</time>
      </trkpt>
      <trkpt lat="47.99122" lon="-3.77452">
        <ele>149.3</ele>
        <time>2022-12-08T14:17:39Z</time>
      </trkpt>
      <trkpt lat="47.99122" lon="-3.77461">
        <ele>149.3</ele>
        <time>2022-12-08T14:17:40Z</time>
      </trkpt>
      <trkpt lat="47.99122" lon="-3.7747">
        <ele>149.2</ele>
        <time>2022-12-08T14:17:41Z</time>
      </trkpt>
      <trkpt lat="47.99122" lon="-3.7748">
        <ele>149.2</ele>
        <time>2022-12-08T14:17:42Z</time>
      </trkpt>
      <trkpt lat="47.99122" lon="-3.77489">
        <ele>149.2</ele>
        <time>2022-12-08T14:17:43Z</time>
      </trkpt>
      <trkpt lat="47.99122" lon="-3.77499">
        <ele>149.1</ele>
        <time>2022-12-08T14:17:44Z</time>
      </trkpt>
      <trkpt lat="47.99122" lon="-3.77508">
        <ele>149.1</ele>
        <time>2022-12-08T14:17:45Z</time>
      </trkpt>
      <trkpt lat="47.99122" lon="-3.77516">
        <ele>149.1</ele>
        <time>2022-12-08T14:17:46Z</time>
      </trkpt>
      <trkpt lat="47.99121" lon="-3.77525">
        <ele>149.1</ele>
        <time>2022-12-08T14:17:47Z</time>
      </trkpt>
      <trkpt lat="47.99119" lon="-3.77535">
        <ele>149</ele>
        <time>2022-12-08T14:17:48Z</time>
      </trkpt>
      <trkpt lat="47.99118" lon="-3.77545">
        <ele>149</ele>
        <time>2022-12-08T14:17:49Z</time>
      </trkpt>
      <trkpt lat="47.99116" lon="-3.77554">
        <ele>149</ele>
        <time>2022-12-08T14:17:50Z</time>
      </trkpt>
      <trkpt lat="47.99115" lon="-3.77562">
        <ele>149</ele>
        <time>2022-12-08T14:17:51Z</time>
      </trkpt>
      <trkpt lat="47.99112" lon="-3.77571">
        <ele>149</ele>
        <time>2022-12-08T14:17:52Z</time>
      </trkpt>
      <trkpt lat="47.9911" lon="-3.7758">
        <ele>149</ele>
        <time>2022-12-08T14:17:53Z</time>
      </trkpt>
      <trkpt lat="47.99108" lon="-3.77589">
        <ele>149</ele>
        <time>2022-12-08T14:17:54Z</time>
      </trkpt>
      <trkpt lat="47.99106" lon="-3.77597">
        <ele>149</ele>
        <time>2022-12-08T14:17:55Z</time>
      </trkpt>
      <trkpt lat="47.99105" lon="-3.77605">
        <ele>149</ele>
        <time>2022-12-08T14:17:56Z</time>
      </trkpt>
      <trkpt lat="47.99102" lon="-3.77612">
        <ele>149</ele>
        <time>2022-12-08T14:17:57Z</time>
      </trkpt>
      <trkpt lat="47.99101" lon="-3.77619">
        <ele>149</ele>
        <time>2022-12-08T14:17:58Z</time>
      </trkpt>
      <trkpt lat="47.99098" lon="-3.77626">
        <ele>148.9</ele>
        <time>2022-12-08T14:17:59Z</time>
      </trkpt>
      <trkpt lat="47.99097" lon="-3.77634">
        <ele>148.9</ele>
        <time>2022-12-08T14:18:00Z</time>
      </trkpt>
      <trkpt lat="47.99095" lon="-3.77642">
        <ele>148.9</ele>
        <time>2022-12-08T14:18:01Z</time>
      </trkpt>
      <trkpt lat="47.99092" lon="-3.7765">
        <ele>148.9</ele>
        <time>2022-12-08T14:18:02Z</time>
      </trkpt>
      <trkpt lat="47.99089" lon="-3.77658">
        <ele>148.8</ele>
        <time>2022-12-08T14:18:03Z</time>
      </trkpt>
      <trkpt lat="47.99085" lon="-3.77668">
        <ele>148.8</ele>
        <time>2022-12-08T14:18:04Z</time>
      </trkpt>
      <trkpt lat="47.99083" lon="-3.77675">
        <ele>148.8</ele>
        <time>2022-12-08T14:18:05Z</time>
      </trkpt>
      <trkpt lat="47.9908" lon="-3.77682">
        <ele>148.8</ele>
        <time>2022-12-08T14:18:06Z</time>
      </trkpt>
      <trkpt lat="47.99077" lon="-3.77689">
        <ele>148.8</ele>
        <time>2022-12-08T14:18:07Z</time>
      </trkpt>
      <trkpt lat="47.99074" lon="-3.77696">
        <ele>148.8</ele>
        <time>2022-12-08T14:18:08Z</time>
      </trkpt>
      <trkpt lat="47.99071" lon="-3.77704">
        <ele>148.7</ele>
        <time>2022-12-08T14:18:09Z</time>
      </trkpt>
      <trkpt lat="47.99068" lon="-3.77713">
        <ele>148.7</ele>
        <time>2022-12-08T14:18:10Z</time>
      </trkpt>
      <trkpt lat="47.99065" lon="-3.77721">
        <ele>148.7</ele>
        <time>2022-12-08T14:18:11Z</time>
      </trkpt>
      <trkpt lat="47.99063" lon="-3.77729">
        <ele>148.6</ele>
        <time>2022-12-08T14:18:12Z</time>
      </trkpt>
      <trkpt lat="47.99059" lon="-3.77737">
        <ele>148.6</ele>
        <time>2022-12-08T14:18:13Z</time>
      </trkpt>
      <trkpt lat="47.99056" lon="-3.77745">
        <ele>148.5</ele>
        <time>2022-12-08T14:18:14Z</time>
      </trkpt>
      <trkpt lat="47.99052" lon="-3.7775">
        <ele>148.5</ele>
        <time>2022-12-08T14:18:15Z</time>
      </trkpt>
      <trkpt lat="47.99049" lon="-3.77757">
        <ele>148.4</ele>
        <time>2022-12-08T14:18:16Z</time>
      </trkpt>
      <trkpt lat="47.99047" lon="-3.77766">
        <ele>148.4</ele>
        <time>2022-12-08T14:18:17Z</time>
      </trkpt>
      <trkpt lat="47.99044" lon="-3.77773">
        <ele>148.4</ele>
        <time>2022-12-08T14:18:18Z</time>
      </trkpt>
      <trkpt lat="47.99042" lon="-3.77781">
        <ele>148.3</ele>
        <time>2022-12-08T14:18:19Z</time>
      </trkpt>
      <trkpt lat="47.99039" lon="-3.77788">
        <ele>148.3</ele>
        <time>2022-12-08T14:18:20Z</time>
      </trkpt>
      <trkpt lat="47.99037" lon="-3.77793">
        <ele>148.3</ele>
        <time>2022-12-08T14:18:21Z</time>
      </trkpt>
      <trkpt lat="47.99035" lon="-3.77799">
        <ele>148.3</ele>
        <time>2022-12-08T14:18:22Z</time>
      </trkpt>
      <trkpt lat="47.99031" lon="-3.77808">
        <ele>148.3</ele>
        <time>2022-12-08T14:18:23Z</time>
      </trkpt>
      <trkpt lat="47.99027" lon="-3.77817">
        <ele>148.2</ele>
        <time>2022-12-08T14:18:24Z</time>
      </trkpt>
      <trkpt lat="47.99023" lon="-3.77824">
        <ele>148.2</ele>
        <time>2022-12-08T14:18:25Z</time>
      </trkpt>
      <trkpt lat="47.9902" lon="-3.77832">
        <ele>148.2</ele>
        <time>2022-12-08T14:18:26Z</time>
      </trkpt>
      <trkpt lat="47.99017" lon="-3.77838">
        <ele>148.2</ele>
        <time>2022-12-08T14:18:27Z</time>
      </trkpt>
      <trkpt lat="47.99014" lon="-3.77844">
        <ele>148.2</ele>
        <time>2022-12-08T14:18:28Z</time>
      </trkpt>
      <trkpt lat="47.9901" lon="-3.77853">
        <ele>148.2</ele>
        <time>2022-12-08T14:18:29Z</time>
      </trkpt>
      <trkpt lat="47.99006" lon="-3.77863">
        <ele>148.2</ele>
        <time>2022-12-08T14:18:30Z</time>
      </trkpt>
      <trkpt lat="47.99003" lon="-3.77871">
        <ele>148.1</ele>
        <time>2022-12-08T14:18:31Z</time>
      </trkpt>
      <trkpt lat="47.98999" lon="-3.77879">
        <ele>148.1</ele>
        <time>2022-12-08T14:18:32Z</time>
      </trkpt>
      <trkpt lat="47.98996" lon="-3.77888">
        <ele>148.1</ele>
        <time>2022-12-08T14:18:33Z</time>
      </trkpt>
      <trkpt lat="47.98993" lon="-3.77896">
        <ele>148</ele>
        <time>2022-12-08T14:18:34Z</time>
      </trkpt>
      <trkpt lat="47.9899" lon="-3.77904">
        <ele>148</ele>
        <time>2022-12-08T14:18:35Z</time>
      </trkpt>
      <trkpt lat="47.98988" lon="-3.77911">
        <ele>148</ele>
        <time>2022-12-08T14:18:36Z</time>
      </trkpt>
      <trkpt lat="47.98985" lon="-3.77918">
        <ele>147.9</ele>
        <time>2022-12-08T14:18:37Z</time>
      </trkpt>
      <trkpt lat="47.98983" lon="-3.77926">
        <ele>147.8</ele>
        <time>2022-12-08T14:18:38Z</time>
      </trkpt>
      <trkpt lat="47.9898" lon="-3.77935">
        <ele>147.7</ele>
        <time>2022-12-08T14:18:39Z</time>
      </trkpt>
      <trkpt lat="47.98978" lon="-3.77944">
        <ele>147.6</ele>
        <time>2022-12-08T14:18:40Z</time>
      </trkpt>
      <trkpt lat="47.98977" lon="-3.77952">
        <ele>147.5</ele>
        <time>2022-12-08T14:18:41Z</time>
      </trkpt>
      <trkpt lat="47.98976" lon="-3.7796">
        <ele>147.4</ele>
        <time>2022-12-08T14:18:42Z</time>
      </trkpt>
      <trkpt lat="47.98974" lon="-3.77968">
        <ele>147.2</ele>
        <time>2022-12-08T14:18:43Z</time>
      </trkpt>
      <trkpt lat="47.98972" lon="-3.77978">
        <ele>147.1</ele>
        <time>2022-12-08T14:18:44Z</time>
      </trkpt>
      <trkpt lat="47.98969" lon="-3.77987">
        <ele>146.9</ele>
        <time>2022-12-08T14:18:45Z</time>
      </trkpt>
      <trkpt lat="47.98967" lon="-3.77998">
        <ele>146.8</ele>
        <time>2022-12-08T14:18:46Z</time>
      </trkpt>
      <trkpt lat="47.98965" lon="-3.78008">
        <ele>146.6</ele>
        <time>2022-12-08T14:18:47Z</time>
      </trkpt>
      <trkpt lat="47.98964" lon="-3.78019">
        <ele>146.4</ele>
        <time>2022-12-08T14:18:48Z</time>
      </trkpt>
      <trkpt lat="47.98963" lon="-3.78029">
        <ele>146.3</ele>
        <time>2022-12-08T14:18:49Z</time>
      </trkpt>
      <trkpt lat="47.98962" lon="-3.78039">
        <ele>146.2</ele>
        <time>2022-12-08T14:18:50Z</time>
      </trkpt>
      <trkpt lat="47.98961" lon="-3.78049">
        <ele>146</ele>
        <time>2022-12-08T14:18:51Z</time>
      </trkpt>
      <trkpt lat="47.9896" lon="-3.78059">
        <ele>145.9</ele>
        <time>2022-12-08T14:18:52Z</time>
      </trkpt>
      <trkpt lat="47.98959" lon="-3.78069">
        <ele>145.7</ele>
        <time>2022-12-08T14:18:53Z</time>
      </trkpt>
      <trkpt lat="47.98958" lon="-3.78078">
        <ele>145.5</ele>
        <time>2022-12-08T14:18:54Z</time>
      </trkpt>
      <trkpt lat="47.98957" lon="-3.78089">
        <ele>145.3</ele>
        <time>2022-12-08T14:18:55Z</time>
      </trkpt>
      <trkpt lat="47.98956" lon="-3.78099">
        <ele>145.2</ele>
        <time>2022-12-08T14:18:56Z</time>
      </trkpt>
      <trkpt lat="47.98955" lon="-3.7811">
        <ele>145</ele>
        <time>2022-12-08T14:18:57Z</time>
      </trkpt>
      <trkpt lat="47.98954" lon="-3.7812">
        <ele>144.8</ele>
        <time>2022-12-08T14:18:58Z</time>
      </trkpt>
      <trkpt lat="47.98953" lon="-3.78131">
        <ele>144.7</ele>
        <time>2022-12-08T14:18:59Z</time>
      </trkpt>
      <trkpt lat="47.98953" lon="-3.78141">
        <ele>144.5</ele>
        <time>2022-12-08T14:19:00Z</time>
      </trkpt>
      <trkpt lat="47.98952" lon="-3.78151">
        <ele>144.4</ele>
        <time>2022-12-08T14:19:01Z</time>
      </trkpt>
      <trkpt lat="47.98951" lon="-3.78162">
        <ele>144.2</ele>
        <time>2022-12-08T14:19:02Z</time>
      </trkpt>
      <trkpt lat="47.9895" lon="-3.78173">
        <ele>144.1</ele>
        <time>2022-12-08T14:19:03Z</time>
      </trkpt>
      <trkpt lat="47.9895" lon="-3.78184">
        <ele>143.9</ele>
        <time>2022-12-08T14:19:04Z</time>
      </trkpt>
      <trkpt lat="47.98949" lon="-3.78195">
        <ele>143.7</ele>
        <time>2022-12-08T14:19:05Z</time>
      </trkpt>
      <trkpt lat="47.98947" lon="-3.78206">
        <ele>143.5</ele>
        <time>2022-12-08T14:19:06Z</time>
      </trkpt>
      <trkpt lat="47.98946" lon="-3.78217">
        <ele>143.4</ele>
        <time>2022-12-08T14:19:07Z</time>
      </trkpt>
      <trkpt lat="47.98945" lon="-3.78228">
        <ele>143.2</ele>
        <time>2022-12-08T14:19:08Z</time>
      </trkpt>
      <trkpt lat="47.98943" lon="-3.7824">
        <ele>143</ele>
        <time>2022-12-08T14:19:09Z</time>
      </trkpt>
      <trkpt lat="47.98942" lon="-3.78251">
        <ele>142.9</ele>
        <time>2022-12-08T14:19:10Z</time>
      </trkpt>
      <trkpt lat="47.98941" lon="-3.78261">
        <ele>142.7</ele>
        <time>2022-12-08T14:19:11Z</time>
      </trkpt>
      <trkpt lat="47.9894" lon="-3.78271">
        <ele>142.6</ele>
        <time>2022-12-08T14:19:12Z</time>
      </trkpt>
      <trkpt lat="47.98939" lon="-3.78281">
        <ele>142.5</ele>
        <time>2022-12-08T14:19:13Z</time>
      </trkpt>
      <trkpt lat="47.98937" lon="-3.78291">
        <ele>142.4</ele>
        <time>2022-12-08T14:19:14Z</time>
      </trkpt>
      <trkpt lat="47.98936" lon="-3.78302">
        <ele>142.3</ele>
        <time>2022-12-08T14:19:15Z</time>
      </trkpt>
      <trkpt lat="47.98934" lon="-3.78313">
        <ele>142.2</ele>
        <time>2022-12-08T14:19:16Z</time>
      </trkpt>
      <trkpt lat="47.98934" lon="-3.78324">
        <ele>142.1</ele>
        <time>2022-12-08T14:19:17Z</time>
      </trkpt>
      <trkpt lat="47.98933" lon="-3.78334">
        <ele>142.1</ele>
        <time>2022-12-08T14:19:18Z</time>
      </trkpt>
      <trkpt lat="47.98933" lon="-3.78344">
        <ele>142</ele>
        <time>2022-12-08T14:19:19Z</time>
      </trkpt>
      <trkpt lat="47.98933" lon="-3.78354">
        <ele>142</ele>
        <time>2022-12-08T14:19:20Z</time>
      </trkpt>
      <trkpt lat="47.98932" lon="-3.78364">
        <ele>142</ele>
        <time>2022-12-08T14:19:21Z</time>
      </trkpt>
      <trkpt lat="47.98931" lon="-3.78373">
        <ele>142</ele>
        <time>2022-12-08T14:19:22Z</time>
      </trkpt>
      <trkpt lat="47.9893" lon="-3.78383">
        <ele>142</ele>
        <time>2022-12-08T14:19:23Z</time>
      </trkpt>
      <trkpt lat="47.98929" lon="-3.78392">
        <ele>142</ele>
        <time>2022-12-08T14:19:24Z</time>
      </trkpt>
      <trkpt lat="47.98929" lon="-3.78401">
        <ele>142</ele>
        <time>2022-12-08T14:19:25Z</time>
      </trkpt>
      <trkpt lat="47.98928" lon="-3.78411">
        <ele>142</ele>
        <time>2022-12-08T14:19:26Z</time>
      </trkpt>
      <trkpt lat="47.98928" lon="-3.78419">
        <ele>141.9</ele>
        <time>2022-12-08T14:19:27Z</time>
      </trkpt>
      <trkpt lat="47.98927" lon="-3.78427">
        <ele>141.8</ele>
        <time>2022-12-08T14:19:28Z</time>
      </trkpt>
      <trkpt lat="47.98927" lon="-3.78436">
        <ele>141.7</ele>
        <time>2022-12-08T14:19:29Z</time>
      </trkpt>
      <trkpt lat="47.98926" lon="-3.78445">
        <ele>141.5</ele>
        <time>2022-12-08T14:19:30Z</time>
      </trkpt>
      <trkpt lat="47.98924" lon="-3.78454">
        <ele>141.3</ele>
        <time>2022-12-08T14:19:31Z</time>
      </trkpt>
      <trkpt lat="47.98923" lon="-3.78462">
        <ele>141.1</ele>
        <time>2022-12-08T14:19:32Z</time>
      </trkpt>
      <trkpt lat="47.98923" lon="-3.78472">
        <ele>141</ele>
        <time>2022-12-08T14:19:33Z</time>
      </trkpt>
      <trkpt lat="47.98922" lon="-3.78481">
        <ele>140.9</ele>
        <time>2022-12-08T14:19:34Z</time>
      </trkpt>
      <trkpt lat="47.98921" lon="-3.78489">
        <ele>140.9</ele>
        <time>2022-12-08T14:19:35Z</time>
      </trkpt>
      <trkpt lat="47.9892" lon="-3.78498">
        <ele>140.9</ele>
        <time>2022-12-08T14:19:36Z</time>
      </trkpt>
      <trkpt lat="47.98918" lon="-3.78506">
        <ele>141</ele>
        <time>2022-12-08T14:19:37Z</time>
      </trkpt>
      <trkpt lat="47.98916" lon="-3.78513">
        <ele>141</ele>
        <time>2022-12-08T14:19:38Z</time>
      </trkpt>
      <trkpt lat="47.98915" lon="-3.7852">
        <ele>141.3</ele>
        <time>2022-12-08T14:19:39Z</time>
      </trkpt>
      <trkpt lat="47.98914" lon="-3.78527">
        <ele>141.5</ele>
        <time>2022-12-08T14:19:40Z</time>
      </trkpt>
      <trkpt lat="47.98913" lon="-3.78531">
        <ele>141.7</ele>
        <time>2022-12-08T14:19:41Z</time>
      </trkpt>
      <trkpt lat="47.98913" lon="-3.78538">
        <ele>141.9</ele>
        <time>2022-12-08T14:19:42Z</time>
      </trkpt>
      <trkpt lat="47.98913" lon="-3.78543">
        <ele>142.1</ele>
        <time>2022-12-08T14:19:43Z</time>
      </trkpt>
      <trkpt lat="47.98913" lon="-3.7855">
        <ele>142.4</ele>
        <time>2022-12-08T14:19:44Z</time>
      </trkpt>
      <trkpt lat="47.98912" lon="-3.78557">
        <ele>142.6</ele>
        <time>2022-12-08T14:19:45Z</time>
      </trkpt>
      <trkpt lat="47.98912" lon="-3.78562">
        <ele>142.8</ele>
        <time>2022-12-08T14:19:46Z</time>
      </trkpt>
      <trkpt lat="47.98912" lon="-3.78569">
        <ele>143</ele>
        <time>2022-12-08T14:19:47Z</time>
      </trkpt>
      <trkpt lat="47.98912" lon="-3.78577">
        <ele>143.2</ele>
        <time>2022-12-08T14:19:48Z</time>
      </trkpt>
      <trkpt lat="47.98912" lon="-3.78581">
        <ele>143.3</ele>
        <time>2022-12-08T14:19:49Z</time>
      </trkpt>
      <trkpt lat="47.98911" lon="-3.78588">
        <ele>143.5</ele>
        <time>2022-12-08T14:19:50Z</time>
      </trkpt>
      <trkpt lat="47.98912" lon="-3.78596">
        <ele>143.7</ele>
        <time>2022-12-08T14:19:51Z</time>
      </trkpt>
      <trkpt lat="47.98911" lon="-3.78603">
        <ele>143.8</ele>
        <time>2022-12-08T14:19:52Z</time>
      </trkpt>
      <trkpt lat="47.9891" lon="-3.7861">
        <ele>143.9</ele>
        <time>2022-12-08T14:19:53Z</time>
      </trkpt>
      <trkpt lat="47.9891" lon="-3.78618">
        <ele>144</ele>
        <time>2022-12-08T14:19:54Z</time>
      </trkpt>
      <trkpt lat="47.98909" lon="-3.78624">
        <ele>144</ele>
        <time>2022-12-08T14:19:55Z</time>
      </trkpt>
      <trkpt lat="47.9891" lon="-3.78631">
        <ele>144.1</ele>
        <time>2022-12-08T14:19:57Z</time>
      </trkpt>
      <trkpt lat="47.98908" lon="-3.78644">
        <ele>144.2</ele>
        <time>2022-12-08T14:19:58Z</time>
      </trkpt>
      <trkpt lat="47.98907" lon="-3.78652">
        <ele>144.2</ele>
        <time>2022-12-08T14:19:59Z</time>
      </trkpt>
      <trkpt lat="47.98906" lon="-3.78659">
        <ele>144.2</ele>
        <time>2022-12-08T14:20:00Z</time>
      </trkpt>
      <trkpt lat="47.98906" lon="-3.78667">
        <ele>144.3</ele>
        <time>2022-12-08T14:20:01Z</time>
      </trkpt>
      <trkpt lat="47.98905" lon="-3.78674">
        <ele>144.2</ele>
        <time>2022-12-08T14:20:02Z</time>
      </trkpt>
      <trkpt lat="47.98904" lon="-3.78681">
        <ele>144.2</ele>
        <time>2022-12-08T14:20:03Z</time>
      </trkpt>
      <trkpt lat="47.98904" lon="-3.78689">
        <ele>144.2</ele>
        <time>2022-12-08T14:20:04Z</time>
      </trkpt>
      <trkpt lat="47.98903" lon="-3.78697">
        <ele>144.1</ele>
        <time>2022-12-08T14:20:05Z</time>
      </trkpt>
      <trkpt lat="47.98902" lon="-3.78705">
        <ele>144.1</ele>
        <time>2022-12-08T14:20:06Z</time>
      </trkpt>
      <trkpt lat="47.98902" lon="-3.78712">
        <ele>144</ele>
        <time>2022-12-08T14:20:07Z</time>
      </trkpt>
      <trkpt lat="47.98901" lon="-3.78721">
        <ele>143.9</ele>
        <time>2022-12-08T14:20:08Z</time>
      </trkpt>
      <trkpt lat="47.989" lon="-3.78729">
        <ele>143.8</ele>
        <time>2022-12-08T14:20:09Z</time>
      </trkpt>
      <trkpt lat="47.989" lon="-3.78738">
        <ele>143.7</ele>
        <time>2022-12-08T14:20:10Z</time>
      </trkpt>
      <trkpt lat="47.98898" lon="-3.78747">
        <ele>143.6</ele>
        <time>2022-12-08T14:20:11Z</time>
      </trkpt>
      <trkpt lat="47.98898" lon="-3.78756">
        <ele>143.5</ele>
        <time>2022-12-08T14:20:12Z</time>
      </trkpt>
      <trkpt lat="47.98897" lon="-3.78765">
        <ele>143.4</ele>
        <time>2022-12-08T14:20:13Z</time>
      </trkpt>
      <trkpt lat="47.98896" lon="-3.78774">
        <ele>143.2</ele>
        <time>2022-12-08T14:20:14Z</time>
      </trkpt>
      <trkpt lat="47.98896" lon="-3.78783">
        <ele>143.1</ele>
        <time>2022-12-08T14:20:15Z</time>
      </trkpt>
      <trkpt lat="47.98895" lon="-3.78792">
        <ele>142.9</ele>
        <time>2022-12-08T14:20:16Z</time>
      </trkpt>
      <trkpt lat="47.98894" lon="-3.78801">
        <ele>142.7</ele>
        <time>2022-12-08T14:20:17Z</time>
      </trkpt>
      <trkpt lat="47.98894" lon="-3.7881">
        <ele>142.6</ele>
        <time>2022-12-08T14:20:18Z</time>
      </trkpt>
      <trkpt lat="47.98893" lon="-3.78819">
        <ele>142.4</ele>
        <time>2022-12-08T14:20:19Z</time>
      </trkpt>
      <trkpt lat="47.98892" lon="-3.78828">
        <ele>142.3</ele>
        <time>2022-12-08T14:20:20Z</time>
      </trkpt>
      <trkpt lat="47.98891" lon="-3.78837">
        <ele>142.1</ele>
        <time>2022-12-08T14:20:21Z</time>
      </trkpt>
      <trkpt lat="47.98891" lon="-3.78846">
        <ele>142</ele>
        <time>2022-12-08T14:20:22Z</time>
      </trkpt>
      <trkpt lat="47.9889" lon="-3.78855">
        <ele>141.9</ele>
        <time>2022-12-08T14:20:23Z</time>
      </trkpt>
      <trkpt lat="47.98889" lon="-3.78864">
        <ele>141.8</ele>
        <time>2022-12-08T14:20:24Z</time>
      </trkpt>
      <trkpt lat="47.98889" lon="-3.78872">
        <ele>141.6</ele>
        <time>2022-12-08T14:20:25Z</time>
      </trkpt>
      <trkpt lat="47.98888" lon="-3.78881">
        <ele>141.5</ele>
        <time>2022-12-08T14:20:26Z</time>
      </trkpt>
      <trkpt lat="47.98887" lon="-3.7889">
        <ele>141.4</ele>
        <time>2022-12-08T14:20:27Z</time>
      </trkpt>
      <trkpt lat="47.98887" lon="-3.78899">
        <ele>141.3</ele>
        <time>2022-12-08T14:20:28Z</time>
      </trkpt>
      <trkpt lat="47.98885" lon="-3.78908">
        <ele>141.2</ele>
        <time>2022-12-08T14:20:29Z</time>
      </trkpt>
      <trkpt lat="47.98884" lon="-3.78917">
        <ele>141.1</ele>
        <time>2022-12-08T14:20:30Z</time>
      </trkpt>
      <trkpt lat="47.98884" lon="-3.78927">
        <ele>140.9</ele>
        <time>2022-12-08T14:20:31Z</time>
      </trkpt>
      <trkpt lat="47.98882" lon="-3.78935">
        <ele>140.8</ele>
        <time>2022-12-08T14:20:32Z</time>
      </trkpt>
      <trkpt lat="47.98881" lon="-3.78944">
        <ele>140.7</ele>
        <time>2022-12-08T14:20:33Z</time>
      </trkpt>
      <trkpt lat="47.98879" lon="-3.78954">
        <ele>140.6</ele>
        <time>2022-12-08T14:20:34Z</time>
      </trkpt>
      <trkpt lat="47.98877" lon="-3.78963">
        <ele>140.5</ele>
        <time>2022-12-08T14:20:35Z</time>
      </trkpt>
      <trkpt lat="47.98876" lon="-3.78972">
        <ele>140.3</ele>
        <time>2022-12-08T14:20:36Z</time>
      </trkpt>
      <trkpt lat="47.98874" lon="-3.7898">
        <ele>140.2</ele>
        <time>2022-12-08T14:20:37Z</time>
      </trkpt>
      <trkpt lat="47.98869" lon="-3.78989">
        <ele>140</ele>
        <time>2022-12-08T14:20:38Z</time>
      </trkpt>
      <trkpt lat="47.98866" lon="-3.78998">
        <ele>139.9</ele>
        <time>2022-12-08T14:20:39Z</time>
      </trkpt>
      <trkpt lat="47.98864" lon="-3.79006">
        <ele>139.7</ele>
        <time>2022-12-08T14:20:40Z</time>
      </trkpt>
      <trkpt lat="47.98862" lon="-3.79013">
        <ele>139.6</ele>
        <time>2022-12-08T14:20:41Z</time>
      </trkpt>
      <trkpt lat="47.98859" lon="-3.79021">
        <ele>139.5</ele>
        <time>2022-12-08T14:20:42Z</time>
      </trkpt>
      <trkpt lat="47.98855" lon="-3.7903">
        <ele>139.3</ele>
        <time>2022-12-08T14:20:43Z</time>
      </trkpt>
      <trkpt lat="47.98851" lon="-3.7904">
        <ele>139.1</ele>
        <time>2022-12-08T14:20:44Z</time>
      </trkpt>
      <trkpt lat="47.98847" lon="-3.79049">
        <ele>139</ele>
        <time>2022-12-08T14:20:45Z</time>
      </trkpt>
      <trkpt lat="47.98844" lon="-3.79058">
        <ele>138.8</ele>
        <time>2022-12-08T14:20:46Z</time>
      </trkpt>
      <trkpt lat="47.98841" lon="-3.79066">
        <ele>138.6</ele>
        <time>2022-12-08T14:20:47Z</time>
      </trkpt>
      <trkpt lat="47.98837" lon="-3.79075">
        <ele>138.4</ele>
        <time>2022-12-08T14:20:48Z</time>
      </trkpt>
      <trkpt lat="47.98832" lon="-3.79084">
        <ele>138.2</ele>
        <time>2022-12-08T14:20:49Z</time>
      </trkpt>
      <trkpt lat="47.98828" lon="-3.79094">
        <ele>138</ele>
        <time>2022-12-08T14:20:50Z</time>
      </trkpt>
      <trkpt lat="47.98823" lon="-3.79103">
        <ele>137.8</ele>
        <time>2022-12-08T14:20:51Z</time>
      </trkpt>
      <trkpt lat="47.98819" lon="-3.79111">
        <ele>137.7</ele>
        <time>2022-12-08T14:20:52Z</time>
      </trkpt>
      <trkpt lat="47.98816" lon="-3.7912">
        <ele>137.5</ele>
        <time>2022-12-08T14:20:53Z</time>
      </trkpt>
      <trkpt lat="47.98812" lon="-3.79129">
        <ele>137.4</ele>
        <time>2022-12-08T14:20:54Z</time>
      </trkpt>
      <trkpt lat="47.9881" lon="-3.79137">
        <ele>137.2</ele>
        <time>2022-12-08T14:20:55Z</time>
      </trkpt>
      <trkpt lat="47.98806" lon="-3.79144">
        <ele>137.1</ele>
        <time>2022-12-08T14:20:56Z</time>
      </trkpt>
      <trkpt lat="47.98803" lon="-3.79152">
        <ele>137</ele>
        <time>2022-12-08T14:20:57Z</time>
      </trkpt>
      <trkpt lat="47.988" lon="-3.7916">
        <ele>136.9</ele>
        <time>2022-12-08T14:20:58Z</time>
      </trkpt>
      <trkpt lat="47.98797" lon="-3.79167">
        <ele>136.8</ele>
        <time>2022-12-08T14:20:59Z</time>
      </trkpt>
      <trkpt lat="47.98794" lon="-3.79174">
        <ele>136.7</ele>
        <time>2022-12-08T14:21:00Z</time>
      </trkpt>
      <trkpt lat="47.98791" lon="-3.79181">
        <ele>136.6</ele>
        <time>2022-12-08T14:21:01Z</time>
      </trkpt>
      <trkpt lat="47.98789" lon="-3.79188">
        <ele>136.6</ele>
        <time>2022-12-08T14:21:02Z</time>
      </trkpt>
      <trkpt lat="47.98787" lon="-3.79195">
        <ele>136.5</ele>
        <time>2022-12-08T14:21:03Z</time>
      </trkpt>
      <trkpt lat="47.98785" lon="-3.79202">
        <ele>136.4</ele>
        <time>2022-12-08T14:21:04Z</time>
      </trkpt>
      <trkpt lat="47.98782" lon="-3.79208">
        <ele>136.4</ele>
        <time>2022-12-08T14:21:05Z</time>
      </trkpt>
      <trkpt lat="47.98781" lon="-3.79213">
        <ele>136.4</ele>
        <time>2022-12-08T14:21:06Z</time>
      </trkpt>
      <trkpt lat="47.98778" lon="-3.79222">
        <ele>136.3</ele>
        <time>2022-12-08T14:21:07Z</time>
      </trkpt>
      <trkpt lat="47.98775" lon="-3.79231">
        <ele>136.3</ele>
        <time>2022-12-08T14:21:08Z</time>
      </trkpt>
      <trkpt lat="47.98772" lon="-3.79239">
        <ele>136.2</ele>
        <time>2022-12-08T14:21:09Z</time>
      </trkpt>
      <trkpt lat="47.98768" lon="-3.79247">
        <ele>136.1</ele>
        <time>2022-12-08T14:21:10Z</time>
      </trkpt>
      <trkpt lat="47.98765" lon="-3.79256">
        <ele>136</ele>
        <time>2022-12-08T14:21:11Z</time>
      </trkpt>
      <trkpt lat="47.98762" lon="-3.79264">
        <ele>136</ele>
        <time>2022-12-08T14:21:12Z</time>
      </trkpt>
      <trkpt lat="47.98759" lon="-3.79272">
        <ele>135.9</ele>
        <time>2022-12-08T14:21:13Z</time>
      </trkpt>
      <trkpt lat="47.98755" lon="-3.79281">
        <ele>135.9</ele>
        <time>2022-12-08T14:21:14Z</time>
      </trkpt>
      <trkpt lat="47.98752" lon="-3.7929">
        <ele>135.8</ele>
        <time>2022-12-08T14:21:15Z</time>
      </trkpt>
      <trkpt lat="47.98748" lon="-3.79298">
        <ele>135.8</ele>
        <time>2022-12-08T14:21:16Z</time>
      </trkpt>
      <trkpt lat="47.98745" lon="-3.79306">
        <ele>135.7</ele>
        <time>2022-12-08T14:21:17Z</time>
      </trkpt>
      <trkpt lat="47.98741" lon="-3.79314">
        <ele>135.7</ele>
        <time>2022-12-08T14:21:18Z</time>
      </trkpt>
      <trkpt lat="47.98737" lon="-3.79323">
        <ele>135.6</ele>
        <time>2022-12-08T14:21:19Z</time>
      </trkpt>
      <trkpt lat="47.98733" lon="-3.79332">
        <ele>135.6</ele>
        <time>2022-12-08T14:21:20Z</time>
      </trkpt>
      <trkpt lat="47.98729" lon="-3.7934">
        <ele>135.5</ele>
        <time>2022-12-08T14:21:21Z</time>
      </trkpt>
      <trkpt lat="47.98725" lon="-3.79348">
        <ele>135.5</ele>
        <time>2022-12-08T14:21:22Z</time>
      </trkpt>
      <trkpt lat="47.98721" lon="-3.79356">
        <ele>135.4</ele>
        <time>2022-12-08T14:21:23Z</time>
      </trkpt>
      <trkpt lat="47.98719" lon="-3.79364">
        <ele>135.4</ele>
        <time>2022-12-08T14:21:24Z</time>
      </trkpt>
      <trkpt lat="47.98716" lon="-3.79371">
        <ele>135.4</ele>
        <time>2022-12-08T14:21:25Z</time>
      </trkpt>
      <trkpt lat="47.98713" lon="-3.79379">
        <ele>135.4</ele>
        <time>2022-12-08T14:21:26Z</time>
      </trkpt>
      <trkpt lat="47.9871" lon="-3.79388">
        <ele>135.3</ele>
        <time>2022-12-08T14:21:27Z</time>
      </trkpt>
      <trkpt lat="47.98707" lon="-3.79396">
        <ele>135.3</ele>
        <time>2022-12-08T14:21:28Z</time>
      </trkpt>
      <trkpt lat="47.98704" lon="-3.79404">
        <ele>135.3</ele>
        <time>2022-12-08T14:21:29Z</time>
      </trkpt>
      <trkpt lat="47.98701" lon="-3.79412">
        <ele>135.2</ele>
        <time>2022-12-08T14:21:30Z</time>
      </trkpt>
      <trkpt lat="47.98698" lon="-3.79419">
        <ele>135.2</ele>
        <time>2022-12-08T14:21:31Z</time>
      </trkpt>
      <trkpt lat="47.98695" lon="-3.79426">
        <ele>135.2</ele>
        <time>2022-12-08T14:21:32Z</time>
      </trkpt>
      <trkpt lat="47.98692" lon="-3.79434">
        <ele>135.1</ele>
        <time>2022-12-08T14:21:33Z</time>
      </trkpt>
      <trkpt lat="47.98688" lon="-3.79442">
        <ele>135</ele>
        <time>2022-12-08T14:21:34Z</time>
      </trkpt>
      <trkpt lat="47.98685" lon="-3.79449">
        <ele>135</ele>
        <time>2022-12-08T14:21:35Z</time>
      </trkpt>
      <trkpt lat="47.98681" lon="-3.79457">
        <ele>134.9</ele>
        <time>2022-12-08T14:21:36Z</time>
      </trkpt>
      <trkpt lat="47.98677" lon="-3.79463">
        <ele>134.8</ele>
        <time>2022-12-08T14:21:37Z</time>
      </trkpt>
      <trkpt lat="47.98672" lon="-3.7947">
        <ele>134.7</ele>
        <time>2022-12-08T14:21:38Z</time>
      </trkpt>
      <trkpt lat="47.98667" lon="-3.79478">
        <ele>134.6</ele>
        <time>2022-12-08T14:21:39Z</time>
      </trkpt>
      <trkpt lat="47.98663" lon="-3.79486">
        <ele>134.6</ele>
        <time>2022-12-08T14:21:40Z</time>
      </trkpt>
      <trkpt lat="47.98657" lon="-3.79493">
        <ele>134.5</ele>
        <time>2022-12-08T14:21:41Z</time>
      </trkpt>
      <trkpt lat="47.98652" lon="-3.795">
        <ele>134.5</ele>
        <time>2022-12-08T14:21:42Z</time>
      </trkpt>
      <trkpt lat="47.98647" lon="-3.79506">
        <ele>134.4</ele>
        <time>2022-12-08T14:21:43Z</time>
      </trkpt>
      <trkpt lat="47.98641" lon="-3.79511">
        <ele>134.4</ele>
        <time>2022-12-08T14:21:44Z</time>
      </trkpt>
      <trkpt lat="47.98635" lon="-3.79517">
        <ele>134.4</ele>
        <time>2022-12-08T14:21:45Z</time>
      </trkpt>
      <trkpt lat="47.9863" lon="-3.79522">
        <ele>134.4</ele>
        <time>2022-12-08T14:21:46Z</time>
      </trkpt>
      <trkpt lat="47.98624" lon="-3.79527">
        <ele>134.3</ele>
        <time>2022-12-08T14:21:47Z</time>
      </trkpt>
      <trkpt lat="47.98619" lon="-3.79533">
        <ele>134.3</ele>
        <time>2022-12-08T14:21:48Z</time>
      </trkpt>
      <trkpt lat="47.98612" lon="-3.79538">
        <ele>134.3</ele>
        <time>2022-12-08T14:21:49Z</time>
      </trkpt>
      <trkpt lat="47.98607" lon="-3.79542">
        <ele>134.3</ele>
        <time>2022-12-08T14:21:50Z</time>
      </trkpt>
      <trkpt lat="47.98602" lon="-3.79545">
        <ele>134.2</ele>
        <time>2022-12-08T14:21:51Z</time>
      </trkpt>
      <trkpt lat="47.98597" lon="-3.79548">
        <ele>134.2</ele>
        <time>2022-12-08T14:21:52Z</time>
      </trkpt>
      <trkpt lat="47.98592" lon="-3.79553">
        <ele>134.2</ele>
        <time>2022-12-08T14:21:53Z</time>
      </trkpt>
      <trkpt lat="47.98587" lon="-3.79558">
        <ele>134.1</ele>
        <time>2022-12-08T14:21:54Z</time>
      </trkpt>
      <trkpt lat="47.98582" lon="-3.79562">
        <ele>134.1</ele>
        <time>2022-12-08T14:21:55Z</time>
      </trkpt>
      <trkpt lat="47.98575" lon="-3.79565">
        <ele>134.1</ele>
        <time>2022-12-08T14:21:56Z</time>
      </trkpt>
      <trkpt lat="47.9857" lon="-3.79568">
        <ele>134</ele>
        <time>2022-12-08T14:21:57Z</time>
      </trkpt>
      <trkpt lat="47.98565" lon="-3.7957">
        <ele>134</ele>
        <time>2022-12-08T14:21:58Z</time>
      </trkpt>
      <trkpt lat="47.98559" lon="-3.79572">
        <ele>133.9</ele>
        <time>2022-12-08T14:21:59Z</time>
      </trkpt>
      <trkpt lat="47.98553" lon="-3.79573">
        <ele>133.9</ele>
        <time>2022-12-08T14:22:00Z</time>
      </trkpt>
      <trkpt lat="47.98548" lon="-3.79575">
        <ele>133.8</ele>
        <time>2022-12-08T14:22:01Z</time>
      </trkpt>
      <trkpt lat="47.98541" lon="-3.79577">
        <ele>133.7</ele>
        <time>2022-12-08T14:22:02Z</time>
      </trkpt>
      <trkpt lat="47.98535" lon="-3.79578">
        <ele>133.6</ele>
        <time>2022-12-08T14:22:03Z</time>
      </trkpt>
      <trkpt lat="47.98526" lon="-3.79581">
        <ele>133.5</ele>
        <time>2022-12-08T14:22:04Z</time>
      </trkpt>
      <trkpt lat="47.98518" lon="-3.79583">
        <ele>133.4</ele>
        <time>2022-12-08T14:22:05Z</time>
      </trkpt>
      <trkpt lat="47.98511" lon="-3.79586">
        <ele>133.3</ele>
        <time>2022-12-08T14:22:06Z</time>
      </trkpt>
      <trkpt lat="47.98505" lon="-3.79589">
        <ele>133.2</ele>
        <time>2022-12-08T14:22:07Z</time>
      </trkpt>
      <trkpt lat="47.98498" lon="-3.7959">
        <ele>133.1</ele>
        <time>2022-12-08T14:22:08Z</time>
      </trkpt>
      <trkpt lat="47.98493" lon="-3.79592">
        <ele>133.1</ele>
        <time>2022-12-08T14:22:09Z</time>
      </trkpt>
      <trkpt lat="47.98488" lon="-3.79594">
        <ele>133</ele>
        <time>2022-12-08T14:22:10Z</time>
      </trkpt>
      <trkpt lat="47.98482" lon="-3.79595">
        <ele>133</ele>
        <time>2022-12-08T14:22:11Z</time>
      </trkpt>
      <trkpt lat="47.98475" lon="-3.79597">
        <ele>132.9</ele>
        <time>2022-12-08T14:22:12Z</time>
      </trkpt>
      <trkpt lat="47.98469" lon="-3.79598">
        <ele>132.9</ele>
        <time>2022-12-08T14:22:13Z</time>
      </trkpt>
      <trkpt lat="47.98463" lon="-3.79601">
        <ele>132.8</ele>
        <time>2022-12-08T14:22:14Z</time>
      </trkpt>
      <trkpt lat="47.98457" lon="-3.79602">
        <ele>132.8</ele>
        <time>2022-12-08T14:22:15Z</time>
      </trkpt>
      <trkpt lat="47.98452" lon="-3.79604">
        <ele>132.7</ele>
        <time>2022-12-08T14:22:16Z</time>
      </trkpt>
      <trkpt lat="47.98445" lon="-3.79605">
        <ele>132.7</ele>
        <time>2022-12-08T14:22:17Z</time>
      </trkpt>
      <trkpt lat="47.9844" lon="-3.79606">
        <ele>132.6</ele>
        <time>2022-12-08T14:22:18Z</time>
      </trkpt>
      <trkpt lat="47.98434" lon="-3.79608">
        <ele>132.6</ele>
        <time>2022-12-08T14:22:19Z</time>
      </trkpt>
      <trkpt lat="47.98427" lon="-3.7961">
        <ele>132.5</ele>
        <time>2022-12-08T14:22:20Z</time>
      </trkpt>
      <trkpt lat="47.98422" lon="-3.79612">
        <ele>132.4</ele>
        <time>2022-12-08T14:22:21Z</time>
      </trkpt>
      <trkpt lat="47.98416" lon="-3.79614">
        <ele>132.4</ele>
        <time>2022-12-08T14:22:22Z</time>
      </trkpt>
      <trkpt lat="47.9841" lon="-3.79616">
        <ele>132.3</ele>
        <time>2022-12-08T14:22:23Z</time>
      </trkpt>
      <trkpt lat="47.98404" lon="-3.79618">
        <ele>132.3</ele>
        <time>2022-12-08T14:22:24Z</time>
      </trkpt>
      <trkpt lat="47.98399" lon="-3.79621">
        <ele>132.2</ele>
        <time>2022-12-08T14:22:25Z</time>
      </trkpt>
      <trkpt lat="47.98393" lon="-3.79623">
        <ele>132.2</ele>
        <time>2022-12-08T14:22:26Z</time>
      </trkpt>
      <trkpt lat="47.98388" lon="-3.79624">
        <ele>132.2</ele>
        <time>2022-12-08T14:22:27Z</time>
      </trkpt>
      <trkpt lat="47.98382" lon="-3.79626">
        <ele>132.1</ele>
        <time>2022-12-08T14:22:28Z</time>
      </trkpt>
      <trkpt lat="47.98377" lon="-3.79628">
        <ele>132.1</ele>
        <time>2022-12-08T14:22:29Z</time>
      </trkpt>
      <trkpt lat="47.98371" lon="-3.79631">
        <ele>132.1</ele>
        <time>2022-12-08T14:22:30Z</time>
      </trkpt>
      <trkpt lat="47.98366" lon="-3.79634">
        <ele>132</ele>
        <time>2022-12-08T14:22:31Z</time>
      </trkpt>
      <trkpt lat="47.98361" lon="-3.79638">
        <ele>132</ele>
        <time>2022-12-08T14:22:32Z</time>
      </trkpt>
      <trkpt lat="47.98354" lon="-3.79642">
        <ele>131.9</ele>
        <time>2022-12-08T14:22:33Z</time>
      </trkpt>
      <trkpt lat="47.98348" lon="-3.79646">
        <ele>131.8</ele>
        <time>2022-12-08T14:22:34Z</time>
      </trkpt>
      <trkpt lat="47.98342" lon="-3.7965">
        <ele>131.8</ele>
        <time>2022-12-08T14:22:35Z</time>
      </trkpt>
      <trkpt lat="47.98335" lon="-3.79654">
        <ele>131.7</ele>
        <time>2022-12-08T14:22:36Z</time>
      </trkpt>
      <trkpt lat="47.98329" lon="-3.7966">
        <ele>131.7</ele>
        <time>2022-12-08T14:22:37Z</time>
      </trkpt>
      <trkpt lat="47.98325" lon="-3.79666">
        <ele>131.7</ele>
        <time>2022-12-08T14:22:38Z</time>
      </trkpt>
      <trkpt lat="47.9832" lon="-3.79672">
        <ele>131.6</ele>
        <time>2022-12-08T14:22:39Z</time>
      </trkpt>
      <trkpt lat="47.98314" lon="-3.79677">
        <ele>131.6</ele>
        <time>2022-12-08T14:22:40Z</time>
      </trkpt>
      <trkpt lat="47.98309" lon="-3.79682">
        <ele>131.6</ele>
        <time>2022-12-08T14:22:41Z</time>
      </trkpt>
      <trkpt lat="47.98305" lon="-3.79687">
        <ele>131.5</ele>
        <time>2022-12-08T14:22:42Z</time>
      </trkpt>
      <trkpt lat="47.98301" lon="-3.79691">
        <ele>131.5</ele>
        <time>2022-12-08T14:22:43Z</time>
      </trkpt>
      <trkpt lat="47.98295" lon="-3.79696">
        <ele>131.5</ele>
        <time>2022-12-08T14:22:44Z</time>
      </trkpt>
      <trkpt lat="47.98289" lon="-3.797">
        <ele>131.4</ele>
        <time>2022-12-08T14:22:45Z</time>
      </trkpt>
      <trkpt lat="47.98284" lon="-3.79705">
        <ele>131.4</ele>
        <time>2022-12-08T14:22:46Z</time>
      </trkpt>
      <trkpt lat="47.98278" lon="-3.79709">
        <ele>131.3</ele>
        <time>2022-12-08T14:22:47Z</time>
      </trkpt>
      <trkpt lat="47.98273" lon="-3.79713">
        <ele>131.2</ele>
        <time>2022-12-08T14:22:48Z</time>
      </trkpt>
      <trkpt lat="47.98268" lon="-3.79718">
        <ele>131.2</ele>
        <time>2022-12-08T14:22:49Z</time>
      </trkpt>
      <trkpt lat="47.98262" lon="-3.79722">
        <ele>131.1</ele>
        <time>2022-12-08T14:22:50Z</time>
      </trkpt>
      <trkpt lat="47.98257" lon="-3.79726">
        <ele>131.1</ele>
        <time>2022-12-08T14:22:51Z</time>
      </trkpt>
      <trkpt lat="47.98251" lon="-3.79731">
        <ele>131</ele>
        <time>2022-12-08T14:22:52Z</time>
      </trkpt>
      <trkpt lat="47.98247" lon="-3.79736">
        <ele>131</ele>
        <time>2022-12-08T14:22:53Z</time>
      </trkpt>
      <trkpt lat="47.98242" lon="-3.79741">
        <ele>130.9</ele>
        <time>2022-12-08T14:22:54Z</time>
      </trkpt>
      <trkpt lat="47.98237" lon="-3.79745">
        <ele>130.9</ele>
        <time>2022-12-08T14:22:55Z</time>
      </trkpt>
      <trkpt lat="47.98232" lon="-3.7975">
        <ele>130.8</ele>
        <time>2022-12-08T14:22:56Z</time>
      </trkpt>
      <trkpt lat="47.98226" lon="-3.79756">
        <ele>130.8</ele>
        <time>2022-12-08T14:22:57Z</time>
      </trkpt>
      <trkpt lat="47.98221" lon="-3.79761">
        <ele>130.7</ele>
        <time>2022-12-08T14:22:58Z</time>
      </trkpt>
      <trkpt lat="47.98215" lon="-3.79766">
        <ele>130.7</ele>
        <time>2022-12-08T14:22:59Z</time>
      </trkpt>
      <trkpt lat="47.98209" lon="-3.79771">
        <ele>130.6</ele>
        <time>2022-12-08T14:23:00Z</time>
      </trkpt>
      <trkpt lat="47.98204" lon="-3.79776">
        <ele>130.6</ele>
        <time>2022-12-08T14:23:01Z</time>
      </trkpt>
      <trkpt lat="47.98199" lon="-3.79781">
        <ele>130.5</ele>
        <time>2022-12-08T14:23:02Z</time>
      </trkpt>
      <trkpt lat="47.98194" lon="-3.79784">
        <ele>130.5</ele>
        <time>2022-12-08T14:23:03Z</time>
      </trkpt>
      <trkpt lat="47.98189" lon="-3.7979">
        <ele>130.4</ele>
        <time>2022-12-08T14:23:04Z</time>
      </trkpt>
      <trkpt lat="47.98184" lon="-3.79798">
        <ele>130.3</ele>
        <time>2022-12-08T14:23:05Z</time>
      </trkpt>
      <trkpt lat="47.9818" lon="-3.79804">
        <ele>130.3</ele>
        <time>2022-12-08T14:23:06Z</time>
      </trkpt>
      <trkpt lat="47.98176" lon="-3.7981">
        <ele>130.3</ele>
        <time>2022-12-08T14:23:07Z</time>
      </trkpt>
      <trkpt lat="47.98172" lon="-3.79816">
        <ele>130.3</ele>
        <time>2022-12-08T14:23:08Z</time>
      </trkpt>
      <trkpt lat="47.98167" lon="-3.79821">
        <ele>130.3</ele>
        <time>2022-12-08T14:23:09Z</time>
      </trkpt>
      <trkpt lat="47.98162" lon="-3.79825">
        <ele>130.3</ele>
        <time>2022-12-08T14:23:10Z</time>
      </trkpt>
      <trkpt lat="47.98158" lon="-3.7983">
        <ele>130.3</ele>
        <time>2022-12-08T14:23:11Z</time>
      </trkpt>
      <trkpt lat="47.98153" lon="-3.79834">
        <ele>130.3</ele>
        <time>2022-12-08T14:23:12Z</time>
      </trkpt>
      <trkpt lat="47.98148" lon="-3.79839">
        <ele>130.3</ele>
        <time>2022-12-08T14:23:13Z</time>
      </trkpt>
      <trkpt lat="47.98144" lon="-3.79843">
        <ele>130.3</ele>
        <time>2022-12-08T14:23:14Z</time>
      </trkpt>
      <trkpt lat="47.98139" lon="-3.79846">
        <ele>130.3</ele>
        <time>2022-12-08T14:23:15Z</time>
      </trkpt>
      <trkpt lat="47.98135" lon="-3.79849">
        <ele>130.3</ele>
        <time>2022-12-08T14:23:16Z</time>
      </trkpt>
      <trkpt lat="47.98132" lon="-3.79852">
        <ele>130.3</ele>
        <time>2022-12-08T14:23:17Z</time>
      </trkpt>
      <trkpt lat="47.98127" lon="-3.79856">
        <ele>130.3</ele>
        <time>2022-12-08T14:23:18Z</time>
      </trkpt>
      <trkpt lat="47.98125" lon="-3.79859">
        <ele>130.2</ele>
        <time>2022-12-08T14:23:19Z</time>
      </trkpt>
      <trkpt lat="47.98122" lon="-3.79866">
        <ele>130.2</ele>
        <time>2022-12-08T14:23:20Z</time>
      </trkpt>
      <trkpt lat="47.9812" lon="-3.7987">
        <ele>130.1</ele>
        <time>2022-12-08T14:23:21Z</time>
      </trkpt>
      <trkpt lat="47.98115" lon="-3.79875">
        <ele>129.9</ele>
        <time>2022-12-08T14:23:22Z</time>
      </trkpt>
      <trkpt lat="47.98111" lon="-3.7988">
        <ele>129.8</ele>
        <time>2022-12-08T14:23:23Z</time>
      </trkpt>
      <trkpt lat="47.98108" lon="-3.79887">
        <ele>129.6</ele>
        <time>2022-12-08T14:23:24Z</time>
      </trkpt>
      <trkpt lat="47.98103" lon="-3.79893">
        <ele>129.4</ele>
        <time>2022-12-08T14:23:25Z</time>
      </trkpt>
      <trkpt lat="47.98099" lon="-3.79898">
        <ele>129.3</ele>
        <time>2022-12-08T14:23:26Z</time>
      </trkpt>
      <trkpt lat="47.98095" lon="-3.79904">
        <ele>129.1</ele>
        <time>2022-12-08T14:23:27Z</time>
      </trkpt>
      <trkpt lat="47.9809" lon="-3.79911">
        <ele>129</ele>
        <time>2022-12-08T14:23:28Z</time>
      </trkpt>
      <trkpt lat="47.98087" lon="-3.79918">
        <ele>128.8</ele>
        <time>2022-12-08T14:23:29Z</time>
      </trkpt>
      <trkpt lat="47.98083" lon="-3.79925">
        <ele>128.7</ele>
        <time>2022-12-08T14:23:30Z</time>
      </trkpt>
      <trkpt lat="47.98079" lon="-3.79931">
        <ele>128.6</ele>
        <time>2022-12-08T14:23:31Z</time>
      </trkpt>
      <trkpt lat="47.98075" lon="-3.79939">
        <ele>128.4</ele>
        <time>2022-12-08T14:23:32Z</time>
      </trkpt>
      <trkpt lat="47.98072" lon="-3.79947">
        <ele>128.3</ele>
        <time>2022-12-08T14:23:33Z</time>
      </trkpt>
      <trkpt lat="47.98068" lon="-3.79954">
        <ele>128.1</ele>
        <time>2022-12-08T14:23:34Z</time>
      </trkpt>
      <trkpt lat="47.98065" lon="-3.79961">
        <ele>128</ele>
        <time>2022-12-08T14:23:35Z</time>
      </trkpt>
      <trkpt lat="47.98061" lon="-3.79969">
        <ele>127.8</ele>
        <time>2022-12-08T14:23:36Z</time>
      </trkpt>
      <trkpt lat="47.98058" lon="-3.79975">
        <ele>127.7</ele>
        <time>2022-12-08T14:23:37Z</time>
      </trkpt>
      <trkpt lat="47.98054" lon="-3.79983">
        <ele>127.6</ele>
        <time>2022-12-08T14:23:38Z</time>
      </trkpt>
      <trkpt lat="47.9805" lon="-3.7999">
        <ele>127.4</ele>
        <time>2022-12-08T14:23:39Z</time>
      </trkpt>
      <trkpt lat="47.98046" lon="-3.79999">
        <ele>127.3</ele>
        <time>2022-12-08T14:23:40Z</time>
      </trkpt>
      <trkpt lat="47.98042" lon="-3.80007">
        <ele>127.1</ele>
        <time>2022-12-08T14:23:41Z</time>
      </trkpt>
      <trkpt lat="47.98038" lon="-3.80014">
        <ele>127</ele>
        <time>2022-12-08T14:23:42Z</time>
      </trkpt>
      <trkpt lat="47.98034" lon="-3.80021">
        <ele>126.9</ele>
        <time>2022-12-08T14:23:43Z</time>
      </trkpt>
      <trkpt lat="47.9803" lon="-3.80028">
        <ele>126.7</ele>
        <time>2022-12-08T14:23:44Z</time>
      </trkpt>
      <trkpt lat="47.98026" lon="-3.80035">
        <ele>126.6</ele>
        <time>2022-12-08T14:23:45Z</time>
      </trkpt>
      <trkpt lat="47.98022" lon="-3.80043">
        <ele>126.5</ele>
        <time>2022-12-08T14:23:46Z</time>
      </trkpt>
      <trkpt lat="47.98018" lon="-3.80049">
        <ele>126.4</ele>
        <time>2022-12-08T14:23:47Z</time>
      </trkpt>
      <trkpt lat="47.98014" lon="-3.80057">
        <ele>126.3</ele>
        <time>2022-12-08T14:23:48Z</time>
      </trkpt>
      <trkpt lat="47.98009" lon="-3.80065">
        <ele>126.2</ele>
        <time>2022-12-08T14:23:49Z</time>
      </trkpt>
      <trkpt lat="47.98005" lon="-3.80073">
        <ele>126.1</ele>
        <time>2022-12-08T14:23:50Z</time>
      </trkpt>
      <trkpt lat="47.98" lon="-3.80081">
        <ele>126</ele>
        <time>2022-12-08T14:23:51Z</time>
      </trkpt>
      <trkpt lat="47.97996" lon="-3.80089">
        <ele>126</ele>
        <time>2022-12-08T14:23:52Z</time>
      </trkpt>
      <trkpt lat="47.97992" lon="-3.80096">
        <ele>126</ele>
        <time>2022-12-08T14:23:53Z</time>
      </trkpt>
      <trkpt lat="47.97988" lon="-3.80104">
        <ele>126</ele>
        <time>2022-12-08T14:23:54Z</time>
      </trkpt>
      <trkpt lat="47.97984" lon="-3.80111">
        <ele>126</ele>
        <time>2022-12-08T14:23:55Z</time>
      </trkpt>
      <trkpt lat="47.9798" lon="-3.80118">
        <ele>126.1</ele>
        <time>2022-12-08T14:23:56Z</time>
      </trkpt>
      <trkpt lat="47.97977" lon="-3.80126">
        <ele>126.1</ele>
        <time>2022-12-08T14:23:57Z</time>
      </trkpt>
      <trkpt lat="47.97974" lon="-3.80133">
        <ele>126.2</ele>
        <time>2022-12-08T14:23:58Z</time>
      </trkpt>
      <trkpt lat="47.9797" lon="-3.80138">
        <ele>126.3</ele>
        <time>2022-12-08T14:23:59Z</time>
      </trkpt>
      <trkpt lat="47.97967" lon="-3.80144">
        <ele>126.3</ele>
        <time>2022-12-08T14:24:00Z</time>
      </trkpt>
      <trkpt lat="47.97965" lon="-3.8015">
        <ele>126.4</ele>
        <time>2022-12-08T14:24:01Z</time>
      </trkpt>
      <trkpt lat="47.97961" lon="-3.80155">
        <ele>126.5</ele>
        <time>2022-12-08T14:24:02Z</time>
      </trkpt>
      <trkpt lat="47.97958" lon="-3.8016">
        <ele>126.5</ele>
        <time>2022-12-08T14:24:03Z</time>
      </trkpt>
      <trkpt lat="47.97954" lon="-3.80166">
        <ele>126.5</ele>
        <time>2022-12-08T14:24:04Z</time>
      </trkpt>
      <trkpt lat="47.97951" lon="-3.80173">
        <ele>126.5</ele>
        <time>2022-12-08T14:24:05Z</time>
      </trkpt>
      <trkpt lat="47.97947" lon="-3.80179">
        <ele>126.5</ele>
        <time>2022-12-08T14:24:06Z</time>
      </trkpt>
      <trkpt lat="47.97944" lon="-3.80184">
        <ele>126.5</ele>
        <time>2022-12-08T14:24:07Z</time>
      </trkpt>
      <trkpt lat="47.97941" lon="-3.80189">
        <ele>126.5</ele>
        <time>2022-12-08T14:24:08Z</time>
      </trkpt>
      <trkpt lat="47.97938" lon="-3.80195">
        <ele>126.5</ele>
        <time>2022-12-08T14:24:09Z</time>
      </trkpt>
      <trkpt lat="47.97934" lon="-3.80202">
        <ele>126.5</ele>
        <time>2022-12-08T14:24:10Z</time>
      </trkpt>
      <trkpt lat="47.97931" lon="-3.80208">
        <ele>126.5</ele>
        <time>2022-12-08T14:24:11Z</time>
      </trkpt>
      <trkpt lat="47.97928" lon="-3.80215">
        <ele>126.5</ele>
        <time>2022-12-08T14:24:12Z</time>
      </trkpt>
      <trkpt lat="47.97925" lon="-3.80221">
        <ele>126.5</ele>
        <time>2022-12-08T14:24:13Z</time>
      </trkpt>
      <trkpt lat="47.97921" lon="-3.80228">
        <ele>126.6</ele>
        <time>2022-12-08T14:24:14Z</time>
      </trkpt>
      <trkpt lat="47.97917" lon="-3.80235">
        <ele>126.6</ele>
        <time>2022-12-08T14:24:15Z</time>
      </trkpt>
      <trkpt lat="47.97913" lon="-3.80241">
        <ele>126.6</ele>
        <time>2022-12-08T14:24:16Z</time>
      </trkpt>
      <trkpt lat="47.97909" lon="-3.80248">
        <ele>126.7</ele>
        <time>2022-12-08T14:24:17Z</time>
      </trkpt>
      <trkpt lat="47.97905" lon="-3.80255">
        <ele>126.8</ele>
        <time>2022-12-08T14:24:18Z</time>
      </trkpt>
      <trkpt lat="47.97902" lon="-3.80261">
        <ele>126.9</ele>
        <time>2022-12-08T14:24:19Z</time>
      </trkpt>
      <trkpt lat="47.97899" lon="-3.80268">
        <ele>126.9</ele>
        <time>2022-12-08T14:24:20Z</time>
      </trkpt>
      <trkpt lat="47.97895" lon="-3.80275">
        <ele>127</ele>
        <time>2022-12-08T14:24:21Z</time>
      </trkpt>
      <trkpt lat="47.97891" lon="-3.80282">
        <ele>127.1</ele>
        <time>2022-12-08T14:24:22Z</time>
      </trkpt>
      <trkpt lat="47.97889" lon="-3.80288">
        <ele>127.2</ele>
        <time>2022-12-08T14:24:23Z</time>
      </trkpt>
      <trkpt lat="47.97885" lon="-3.80295">
        <ele>127.2</ele>
        <time>2022-12-08T14:24:24Z</time>
      </trkpt>
      <trkpt lat="47.97882" lon="-3.80301">
        <ele>127.3</ele>
        <time>2022-12-08T14:24:25Z</time>
      </trkpt>
      <trkpt lat="47.97879" lon="-3.80307">
        <ele>127.3</ele>
        <time>2022-12-08T14:24:26Z</time>
      </trkpt>
      <trkpt lat="47.97876" lon="-3.80313">
        <ele>127.4</ele>
        <time>2022-12-08T14:24:27Z</time>
      </trkpt>
      <trkpt lat="47.97872" lon="-3.8032">
        <ele>127.5</ele>
        <time>2022-12-08T14:24:28Z</time>
      </trkpt>
      <trkpt lat="47.97869" lon="-3.80327">
        <ele>127.5</ele>
        <time>2022-12-08T14:24:29Z</time>
      </trkpt>
      <trkpt lat="47.97866" lon="-3.80334">
        <ele>127.6</ele>
        <time>2022-12-08T14:24:30Z</time>
      </trkpt>
      <trkpt lat="47.97863" lon="-3.8034">
        <ele>127.6</ele>
        <time>2022-12-08T14:24:31Z</time>
      </trkpt>
      <trkpt lat="47.97859" lon="-3.80346">
        <ele>127.7</ele>
        <time>2022-12-08T14:24:32Z</time>
      </trkpt>
      <trkpt lat="47.97856" lon="-3.80352">
        <ele>127.7</ele>
        <time>2022-12-08T14:24:33Z</time>
      </trkpt>
      <trkpt lat="47.97853" lon="-3.80359">
        <ele>127.8</ele>
        <time>2022-12-08T14:24:34Z</time>
      </trkpt>
      <trkpt lat="47.97849" lon="-3.80366">
        <ele>127.9</ele>
        <time>2022-12-08T14:24:35Z</time>
      </trkpt>
      <trkpt lat="47.97845" lon="-3.80372">
        <ele>127.9</ele>
        <time>2022-12-08T14:24:36Z</time>
      </trkpt>
      <trkpt lat="47.97842" lon="-3.80378">
        <ele>128</ele>
        <time>2022-12-08T14:24:37Z</time>
      </trkpt>
      <trkpt lat="47.97838" lon="-3.80384">
        <ele>128.1</ele>
        <time>2022-12-08T14:24:38Z</time>
      </trkpt>
      <trkpt lat="47.97835" lon="-3.8039">
        <ele>128.1</ele>
        <time>2022-12-08T14:24:39Z</time>
      </trkpt>
      <trkpt lat="47.97831" lon="-3.80397">
        <ele>128.2</ele>
        <time>2022-12-08T14:24:40Z</time>
      </trkpt>
      <trkpt lat="47.97828" lon="-3.80403">
        <ele>128.3</ele>
        <time>2022-12-08T14:24:41Z</time>
      </trkpt>
      <trkpt lat="47.97824" lon="-3.80409">
        <ele>128.3</ele>
        <time>2022-12-08T14:24:42Z</time>
      </trkpt>
      <trkpt lat="47.9782" lon="-3.80415">
        <ele>128.4</ele>
        <time>2022-12-08T14:24:43Z</time>
      </trkpt>
      <trkpt lat="47.97817" lon="-3.80422">
        <ele>128.4</ele>
        <time>2022-12-08T14:24:44Z</time>
      </trkpt>
      <trkpt lat="47.97813" lon="-3.80428">
        <ele>128.5</ele>
        <time>2022-12-08T14:24:45Z</time>
      </trkpt>
      <trkpt lat="47.9781" lon="-3.80434">
        <ele>128.5</ele>
        <time>2022-12-08T14:24:46Z</time>
      </trkpt>
      <trkpt lat="47.97807" lon="-3.80441">
        <ele>128.5</ele>
        <time>2022-12-08T14:24:47Z</time>
      </trkpt>
      <trkpt lat="47.97803" lon="-3.80447">
        <ele>128.6</ele>
        <time>2022-12-08T14:24:48Z</time>
      </trkpt>
      <trkpt lat="47.97799" lon="-3.80454">
        <ele>128.7</ele>
        <time>2022-12-08T14:24:49Z</time>
      </trkpt>
      <trkpt lat="47.97795" lon="-3.8046">
        <ele>128.8</ele>
        <time>2022-12-08T14:24:50Z</time>
      </trkpt>
      <trkpt lat="47.97792" lon="-3.80466">
        <ele>128.8</ele>
        <time>2022-12-08T14:24:51Z</time>
      </trkpt>
      <trkpt lat="47.97789" lon="-3.80473">
        <ele>128.9</ele>
        <time>2022-12-08T14:24:52Z</time>
      </trkpt>
      <trkpt lat="47.97785" lon="-3.80479">
        <ele>129</ele>
        <time>2022-12-08T14:24:53Z</time>
      </trkpt>
      <trkpt lat="47.97782" lon="-3.80485">
        <ele>129.1</ele>
        <time>2022-12-08T14:24:54Z</time>
      </trkpt>
      <trkpt lat="47.97778" lon="-3.80491">
        <ele>129.1</ele>
        <time>2022-12-08T14:24:55Z</time>
      </trkpt>
      <trkpt lat="47.97775" lon="-3.80497">
        <ele>129.2</ele>
        <time>2022-12-08T14:24:56Z</time>
      </trkpt>
      <trkpt lat="47.97772" lon="-3.80504">
        <ele>129.3</ele>
        <time>2022-12-08T14:24:57Z</time>
      </trkpt>
      <trkpt lat="47.97769" lon="-3.8051">
        <ele>129.3</ele>
        <time>2022-12-08T14:24:58Z</time>
      </trkpt>
      <trkpt lat="47.97765" lon="-3.80517">
        <ele>129.4</ele>
        <time>2022-12-08T14:24:59Z</time>
      </trkpt>
      <trkpt lat="47.97762" lon="-3.80523">
        <ele>129.4</ele>
        <time>2022-12-08T14:25:00Z</time>
      </trkpt>
      <trkpt lat="47.97758" lon="-3.80529">
        <ele>129.5</ele>
        <time>2022-12-08T14:25:01Z</time>
      </trkpt>
      <trkpt lat="47.97754" lon="-3.80536">
        <ele>129.5</ele>
        <time>2022-12-08T14:25:02Z</time>
      </trkpt>
      <trkpt lat="47.97751" lon="-3.80542">
        <ele>129.6</ele>
        <time>2022-12-08T14:25:03Z</time>
      </trkpt>
      <trkpt lat="47.97747" lon="-3.80549">
        <ele>129.7</ele>
        <time>2022-12-08T14:25:04Z</time>
      </trkpt>
      <trkpt lat="47.97743" lon="-3.80556">
        <ele>129.8</ele>
        <time>2022-12-08T14:25:05Z</time>
      </trkpt>
      <trkpt lat="47.9774" lon="-3.80563">
        <ele>129.8</ele>
        <time>2022-12-08T14:25:06Z</time>
      </trkpt>
      <trkpt lat="47.97736" lon="-3.80569">
        <ele>129.9</ele>
        <time>2022-12-08T14:25:07Z</time>
      </trkpt>
      <trkpt lat="47.97733" lon="-3.80575">
        <ele>130</ele>
        <time>2022-12-08T14:25:08Z</time>
      </trkpt>
      <trkpt lat="47.97729" lon="-3.80583">
        <ele>130.1</ele>
        <time>2022-12-08T14:25:09Z</time>
      </trkpt>
      <trkpt lat="47.97726" lon="-3.80589">
        <ele>130.2</ele>
        <time>2022-12-08T14:25:10Z</time>
      </trkpt>
      <trkpt lat="47.97722" lon="-3.80596">
        <ele>130.3</ele>
        <time>2022-12-08T14:25:11Z</time>
      </trkpt>
      <trkpt lat="47.97719" lon="-3.80603">
        <ele>130.3</ele>
        <time>2022-12-08T14:25:12Z</time>
      </trkpt>
      <trkpt lat="47.97715" lon="-3.80609">
        <ele>130.4</ele>
        <time>2022-12-08T14:25:13Z</time>
      </trkpt>
      <trkpt lat="47.97712" lon="-3.80616">
        <ele>130.5</ele>
        <time>2022-12-08T14:25:14Z</time>
      </trkpt>
      <trkpt lat="47.97708" lon="-3.80623">
        <ele>130.6</ele>
        <time>2022-12-08T14:25:15Z</time>
      </trkpt>
      <trkpt lat="47.97704" lon="-3.80629">
        <ele>130.6</ele>
        <time>2022-12-08T14:25:16Z</time>
      </trkpt>
      <trkpt lat="47.97701" lon="-3.80636">
        <ele>130.7</ele>
        <time>2022-12-08T14:25:17Z</time>
      </trkpt>
      <trkpt lat="47.97698" lon="-3.80643">
        <ele>130.8</ele>
        <time>2022-12-08T14:25:18Z</time>
      </trkpt>
      <trkpt lat="47.97694" lon="-3.8065">
        <ele>130.9</ele>
        <time>2022-12-08T14:25:19Z</time>
      </trkpt>
      <trkpt lat="47.97691" lon="-3.80657">
        <ele>130.9</ele>
        <time>2022-12-08T14:25:20Z</time>
      </trkpt>
      <trkpt lat="47.97687" lon="-3.80663">
        <ele>131</ele>
        <time>2022-12-08T14:25:21Z</time>
      </trkpt>
      <trkpt lat="47.97683" lon="-3.8067">
        <ele>131.1</ele>
        <time>2022-12-08T14:25:22Z</time>
      </trkpt>
      <trkpt lat="47.9768" lon="-3.80677">
        <ele>131.2</ele>
        <time>2022-12-08T14:25:23Z</time>
      </trkpt>
      <trkpt lat="47.97676" lon="-3.80683">
        <ele>131.3</ele>
        <time>2022-12-08T14:25:24Z</time>
      </trkpt>
      <trkpt lat="47.97673" lon="-3.80689">
        <ele>131.3</ele>
        <time>2022-12-08T14:25:25Z</time>
      </trkpt>
      <trkpt lat="47.97669" lon="-3.80694">
        <ele>131.4</ele>
        <time>2022-12-08T14:25:26Z</time>
      </trkpt>
      <trkpt lat="47.97666" lon="-3.80701">
        <ele>131.4</ele>
        <time>2022-12-08T14:25:27Z</time>
      </trkpt>
      <trkpt lat="47.97662" lon="-3.80708">
        <ele>131.5</ele>
        <time>2022-12-08T14:25:28Z</time>
      </trkpt>
      <trkpt lat="47.97659" lon="-3.80714">
        <ele>131.5</ele>
        <time>2022-12-08T14:25:29Z</time>
      </trkpt>
      <trkpt lat="47.97655" lon="-3.80721">
        <ele>131.5</ele>
        <time>2022-12-08T14:25:30Z</time>
      </trkpt>
      <trkpt lat="47.97651" lon="-3.80727">
        <ele>131.6</ele>
        <time>2022-12-08T14:25:31Z</time>
      </trkpt>
      <trkpt lat="47.97648" lon="-3.80734">
        <ele>131.6</ele>
        <time>2022-12-08T14:25:32Z</time>
      </trkpt>
      <trkpt lat="47.97645" lon="-3.80742">
        <ele>131.6</ele>
        <time>2022-12-08T14:25:33Z</time>
      </trkpt>
      <trkpt lat="47.97641" lon="-3.80747">
        <ele>131.6</ele>
        <time>2022-12-08T14:25:34Z</time>
      </trkpt>
      <trkpt lat="47.97638" lon="-3.80753">
        <ele>131.5</ele>
        <time>2022-12-08T14:25:35Z</time>
      </trkpt>
      <trkpt lat="47.97633" lon="-3.80759">
        <ele>131.5</ele>
        <time>2022-12-08T14:25:36Z</time>
      </trkpt>
      <trkpt lat="47.9763" lon="-3.80767">
        <ele>131.5</ele>
        <time>2022-12-08T14:25:37Z</time>
      </trkpt>
      <trkpt lat="47.97626" lon="-3.80774">
        <ele>131.5</ele>
        <time>2022-12-08T14:25:38Z</time>
      </trkpt>
      <trkpt lat="47.97623" lon="-3.80781">
        <ele>131.5</ele>
        <time>2022-12-08T14:25:39Z</time>
      </trkpt>
      <trkpt lat="47.97619" lon="-3.80789">
        <ele>131.4</ele>
        <time>2022-12-08T14:25:40Z</time>
      </trkpt>
      <trkpt lat="47.97616" lon="-3.80795">
        <ele>131.4</ele>
        <time>2022-12-08T14:25:41Z</time>
      </trkpt>
      <trkpt lat="47.97612" lon="-3.80802">
        <ele>131.4</ele>
        <time>2022-12-08T14:25:42Z</time>
      </trkpt>
      <trkpt lat="47.97608" lon="-3.80809">
        <ele>131.4</ele>
        <time>2022-12-08T14:25:43Z</time>
      </trkpt>
      <trkpt lat="47.97605" lon="-3.80816">
        <ele>131.4</ele>
        <time>2022-12-08T14:25:44Z</time>
      </trkpt>
      <trkpt lat="47.97601" lon="-3.80823">
        <ele>131.4</ele>
        <time>2022-12-08T14:25:45Z</time>
      </trkpt>
      <trkpt lat="47.97597" lon="-3.8083">
        <ele>131.4</ele>
        <time>2022-12-08T14:25:46Z</time>
      </trkpt>
      <trkpt lat="47.97593" lon="-3.80836">
        <ele>131.3</ele>
        <time>2022-12-08T14:25:47Z</time>
      </trkpt>
      <trkpt lat="47.97589" lon="-3.80843">
        <ele>131.3</ele>
        <time>2022-12-08T14:25:48Z</time>
      </trkpt>
      <trkpt lat="47.97585" lon="-3.8085">
        <ele>131.3</ele>
        <time>2022-12-08T14:25:49Z</time>
      </trkpt>
      <trkpt lat="47.97581" lon="-3.80857">
        <ele>131.2</ele>
        <time>2022-12-08T14:25:50Z</time>
      </trkpt>
      <trkpt lat="47.97577" lon="-3.80865">
        <ele>131.2</ele>
        <time>2022-12-08T14:25:51Z</time>
      </trkpt>
      <trkpt lat="47.97573" lon="-3.80872">
        <ele>131.2</ele>
        <time>2022-12-08T14:25:52Z</time>
      </trkpt>
      <trkpt lat="47.97569" lon="-3.8088">
        <ele>131.2</ele>
        <time>2022-12-08T14:25:53Z</time>
      </trkpt>
      <trkpt lat="47.97565" lon="-3.80887">
        <ele>131.2</ele>
        <time>2022-12-08T14:25:54Z</time>
      </trkpt>
      <trkpt lat="47.97561" lon="-3.80894">
        <ele>131.2</ele>
        <time>2022-12-08T14:25:55Z</time>
      </trkpt>
      <trkpt lat="47.97557" lon="-3.80902">
        <ele>131.2</ele>
        <time>2022-12-08T14:25:56Z</time>
      </trkpt>
      <trkpt lat="47.97553" lon="-3.80909">
        <ele>131.2</ele>
        <time>2022-12-08T14:25:57Z</time>
      </trkpt>
      <trkpt lat="47.97549" lon="-3.80915">
        <ele>131.2</ele>
        <time>2022-12-08T14:25:58Z</time>
      </trkpt>
      <trkpt lat="47.97545" lon="-3.80923">
        <ele>131.2</ele>
        <time>2022-12-08T14:25:59Z</time>
      </trkpt>
      <trkpt lat="47.97541" lon="-3.80931">
        <ele>131.2</ele>
        <time>2022-12-08T14:26:00Z</time>
      </trkpt>
      <trkpt lat="47.97537" lon="-3.80938">
        <ele>131.2</ele>
        <time>2022-12-08T14:26:01Z</time>
      </trkpt>
      <trkpt lat="47.97533" lon="-3.80945">
        <ele>131.1</ele>
        <time>2022-12-08T14:26:02Z</time>
      </trkpt>
      <trkpt lat="47.97529" lon="-3.80952">
        <ele>131.1</ele>
        <time>2022-12-08T14:26:03Z</time>
      </trkpt>
      <trkpt lat="47.97525" lon="-3.8096">
        <ele>131.1</ele>
        <time>2022-12-08T14:26:04Z</time>
      </trkpt>
      <trkpt lat="47.97521" lon="-3.80967">
        <ele>131.1</ele>
        <time>2022-12-08T14:26:05Z</time>
      </trkpt>
      <trkpt lat="47.97517" lon="-3.80975">
        <ele>131.1</ele>
        <time>2022-12-08T14:26:06Z</time>
      </trkpt>
      <trkpt lat="47.97513" lon="-3.80982">
        <ele>131.1</ele>
        <time>2022-12-08T14:26:07Z</time>
      </trkpt>
      <trkpt lat="47.97508" lon="-3.8099">
        <ele>131.1</ele>
        <time>2022-12-08T14:26:08Z</time>
      </trkpt>
      <trkpt lat="47.97504" lon="-3.80997">
        <ele>131.1</ele>
        <time>2022-12-08T14:26:09Z</time>
      </trkpt>
      <trkpt lat="47.975" lon="-3.81004">
        <ele>131.1</ele>
        <time>2022-12-08T14:26:10Z</time>
      </trkpt>
      <trkpt lat="47.97496" lon="-3.81012">
        <ele>131.1</ele>
        <time>2022-12-08T14:26:11Z</time>
      </trkpt>
      <trkpt lat="47.97492" lon="-3.8102">
        <ele>131.1</ele>
        <time>2022-12-08T14:26:12Z</time>
      </trkpt>
      <trkpt lat="47.97489" lon="-3.81027">
        <ele>131.1</ele>
        <time>2022-12-08T14:26:13Z</time>
      </trkpt>
      <trkpt lat="47.97485" lon="-3.81035">
        <ele>131.1</ele>
        <time>2022-12-08T14:26:14Z</time>
      </trkpt>
      <trkpt lat="47.97482" lon="-3.81044">
        <ele>131.1</ele>
        <time>2022-12-08T14:26:15Z</time>
      </trkpt>
      <trkpt lat="47.97478" lon="-3.81052">
        <ele>131.1</ele>
        <time>2022-12-08T14:26:16Z</time>
      </trkpt>
      <trkpt lat="47.97473" lon="-3.81059">
        <ele>131.1</ele>
        <time>2022-12-08T14:26:17Z</time>
      </trkpt>
      <trkpt lat="47.97469" lon="-3.81067">
        <ele>131.1</ele>
        <time>2022-12-08T14:26:18Z</time>
      </trkpt>
      <trkpt lat="47.97464" lon="-3.81075">
        <ele>131.1</ele>
        <time>2022-12-08T14:26:19Z</time>
      </trkpt>
      <trkpt lat="47.97461" lon="-3.81082">
        <ele>131.1</ele>
        <time>2022-12-08T14:26:20Z</time>
      </trkpt>
      <trkpt lat="47.97456" lon="-3.8109">
        <ele>131</ele>
        <time>2022-12-08T14:26:21Z</time>
      </trkpt>
      <trkpt lat="47.97452" lon="-3.81098">
        <ele>131</ele>
        <time>2022-12-08T14:26:22Z</time>
      </trkpt>
      <trkpt lat="47.97448" lon="-3.81106">
        <ele>131</ele>
        <time>2022-12-08T14:26:23Z</time>
      </trkpt>
      <trkpt lat="47.97444" lon="-3.81113">
        <ele>131</ele>
        <time>2022-12-08T14:26:24Z</time>
      </trkpt>
      <trkpt lat="47.9744" lon="-3.81121">
        <ele>130.9</ele>
        <time>2022-12-08T14:26:25Z</time>
      </trkpt>
      <trkpt lat="47.97436" lon="-3.81129">
        <ele>130.9</ele>
        <time>2022-12-08T14:26:26Z</time>
      </trkpt>
      <trkpt lat="47.97432" lon="-3.81137">
        <ele>130.9</ele>
        <time>2022-12-08T14:26:27Z</time>
      </trkpt>
      <trkpt lat="47.97428" lon="-3.81144">
        <ele>130.9</ele>
        <time>2022-12-08T14:26:28Z</time>
      </trkpt>
      <trkpt lat="47.97424" lon="-3.81152">
        <ele>130.9</ele>
        <time>2022-12-08T14:26:29Z</time>
      </trkpt>
      <trkpt lat="47.9742" lon="-3.81159">
        <ele>130.9</ele>
        <time>2022-12-08T14:26:30Z</time>
      </trkpt>
      <trkpt lat="47.97416" lon="-3.81165">
        <ele>130.9</ele>
        <time>2022-12-08T14:26:31Z</time>
      </trkpt>
      <trkpt lat="47.97412" lon="-3.81172">
        <ele>131</ele>
        <time>2022-12-08T14:26:32Z</time>
      </trkpt>
      <trkpt lat="47.97407" lon="-3.81179">
        <ele>131</ele>
        <time>2022-12-08T14:26:33Z</time>
      </trkpt>
      <trkpt lat="47.97403" lon="-3.81186">
        <ele>131</ele>
        <time>2022-12-08T14:26:34Z</time>
      </trkpt>
      <trkpt lat="47.97399" lon="-3.81193">
        <ele>131</ele>
        <time>2022-12-08T14:26:35Z</time>
      </trkpt>
      <trkpt lat="47.97396" lon="-3.81201">
        <ele>131</ele>
        <time>2022-12-08T14:26:36Z</time>
      </trkpt>
      <trkpt lat="47.97392" lon="-3.81208">
        <ele>131</ele>
        <time>2022-12-08T14:26:37Z</time>
      </trkpt>
      <trkpt lat="47.97388" lon="-3.81215">
        <ele>131</ele>
        <time>2022-12-08T14:26:38Z</time>
      </trkpt>
      <trkpt lat="47.97385" lon="-3.81222">
        <ele>131.1</ele>
        <time>2022-12-08T14:26:39Z</time>
      </trkpt>
      <trkpt lat="47.97381" lon="-3.81229">
        <ele>131.1</ele>
        <time>2022-12-08T14:26:40Z</time>
      </trkpt>
      <trkpt lat="47.97377" lon="-3.81236">
        <ele>131.1</ele>
        <time>2022-12-08T14:26:41Z</time>
      </trkpt>
      <trkpt lat="47.97374" lon="-3.81242">
        <ele>131.1</ele>
        <time>2022-12-08T14:26:42Z</time>
      </trkpt>
      <trkpt lat="47.9737" lon="-3.81249">
        <ele>131.2</ele>
        <time>2022-12-08T14:26:43Z</time>
      </trkpt>
      <trkpt lat="47.97366" lon="-3.81256">
        <ele>131.2</ele>
        <time>2022-12-08T14:26:44Z</time>
      </trkpt>
      <trkpt lat="47.97362" lon="-3.81263">
        <ele>131.2</ele>
        <time>2022-12-08T14:26:45Z</time>
      </trkpt>
      <trkpt lat="47.97359" lon="-3.8127">
        <ele>131.3</ele>
        <time>2022-12-08T14:26:46Z</time>
      </trkpt>
      <trkpt lat="47.97356" lon="-3.81278">
        <ele>131.3</ele>
        <time>2022-12-08T14:26:47Z</time>
      </trkpt>
      <trkpt lat="47.97353" lon="-3.81285">
        <ele>131.4</ele>
        <time>2022-12-08T14:26:48Z</time>
      </trkpt>
      <trkpt lat="47.97349" lon="-3.81292">
        <ele>131.4</ele>
        <time>2022-12-08T14:26:49Z</time>
      </trkpt>
      <trkpt lat="47.97345" lon="-3.81299">
        <ele>131.4</ele>
        <time>2022-12-08T14:26:50Z</time>
      </trkpt>
      <trkpt lat="47.97341" lon="-3.81305">
        <ele>131.4</ele>
        <time>2022-12-08T14:26:51Z</time>
      </trkpt>
      <trkpt lat="47.97337" lon="-3.81312">
        <ele>131.4</ele>
        <time>2022-12-08T14:26:52Z</time>
      </trkpt>
      <trkpt lat="47.97333" lon="-3.81319">
        <ele>131.5</ele>
        <time>2022-12-08T14:26:53Z</time>
      </trkpt>
      <trkpt lat="47.97329" lon="-3.81326">
        <ele>131.5</ele>
        <time>2022-12-08T14:26:54Z</time>
      </trkpt>
      <trkpt lat="47.97326" lon="-3.81333">
        <ele>131.5</ele>
        <time>2022-12-08T14:26:55Z</time>
      </trkpt>
      <trkpt lat="47.97322" lon="-3.8134">
        <ele>131.5</ele>
        <time>2022-12-08T14:26:56Z</time>
      </trkpt>
      <trkpt lat="47.97319" lon="-3.81346">
        <ele>131.6</ele>
        <time>2022-12-08T14:26:57Z</time>
      </trkpt>
      <trkpt lat="47.97316" lon="-3.81353">
        <ele>131.6</ele>
        <time>2022-12-08T14:26:58Z</time>
      </trkpt>
      <trkpt lat="47.97312" lon="-3.81359">
        <ele>131.6</ele>
        <time>2022-12-08T14:26:59Z</time>
      </trkpt>
      <trkpt lat="47.97308" lon="-3.81365">
        <ele>131.6</ele>
        <time>2022-12-08T14:27:00Z</time>
      </trkpt>
      <trkpt lat="47.97305" lon="-3.81372">
        <ele>131.7</ele>
        <time>2022-12-08T14:27:01Z</time>
      </trkpt>
      <trkpt lat="47.97301" lon="-3.8138">
        <ele>131.7</ele>
        <time>2022-12-08T14:27:02Z</time>
      </trkpt>
      <trkpt lat="47.97298" lon="-3.81388">
        <ele>131.7</ele>
        <time>2022-12-08T14:27:03Z</time>
      </trkpt>
      <trkpt lat="47.97294" lon="-3.81396">
        <ele>131.7</ele>
        <time>2022-12-08T14:27:04Z</time>
      </trkpt>
      <trkpt lat="47.97291" lon="-3.81403">
        <ele>131.7</ele>
        <time>2022-12-08T14:27:05Z</time>
      </trkpt>
      <trkpt lat="47.97287" lon="-3.8141">
        <ele>131.8</ele>
        <time>2022-12-08T14:27:06Z</time>
      </trkpt>
      <trkpt lat="47.97283" lon="-3.81416">
        <ele>131.8</ele>
        <time>2022-12-08T14:27:07Z</time>
      </trkpt>
      <trkpt lat="47.97279" lon="-3.81423">
        <ele>131.9</ele>
        <time>2022-12-08T14:27:08Z</time>
      </trkpt>
      <trkpt lat="47.97275" lon="-3.81429">
        <ele>131.9</ele>
        <time>2022-12-08T14:27:09Z</time>
      </trkpt>
      <trkpt lat="47.97271" lon="-3.81435">
        <ele>131.9</ele>
        <time>2022-12-08T14:27:10Z</time>
      </trkpt>
      <trkpt lat="47.97268" lon="-3.81441">
        <ele>132</ele>
        <time>2022-12-08T14:27:11Z</time>
      </trkpt>
      <trkpt lat="47.97265" lon="-3.81446">
        <ele>132</ele>
        <time>2022-12-08T14:27:12Z</time>
      </trkpt>
      <trkpt lat="47.97262" lon="-3.81453">
        <ele>132</ele>
        <time>2022-12-08T14:27:13Z</time>
      </trkpt>
      <trkpt lat="47.97257" lon="-3.8146">
        <ele>132</ele>
        <time>2022-12-08T14:27:14Z</time>
      </trkpt>
      <trkpt lat="47.97253" lon="-3.81466">
        <ele>132</ele>
        <time>2022-12-08T14:27:15Z</time>
      </trkpt>
      <trkpt lat="47.97249" lon="-3.81473">
        <ele>131.9</ele>
        <time>2022-12-08T14:27:16Z</time>
      </trkpt>
      <trkpt lat="47.97245" lon="-3.81479">
        <ele>131.9</ele>
        <time>2022-12-08T14:27:17Z</time>
      </trkpt>
      <trkpt lat="47.97242" lon="-3.81486">
        <ele>131.9</ele>
        <time>2022-12-08T14:27:18Z</time>
      </trkpt>
      <trkpt lat="47.97239" lon="-3.81492">
        <ele>131.8</ele>
        <time>2022-12-08T14:27:19Z</time>
      </trkpt>
      <trkpt lat="47.97235" lon="-3.815">
        <ele>131.8</ele>
        <time>2022-12-08T14:27:20Z</time>
      </trkpt>
      <trkpt lat="47.97231" lon="-3.81507">
        <ele>131.7</ele>
        <time>2022-12-08T14:27:21Z</time>
      </trkpt>
      <trkpt lat="47.97227" lon="-3.81513">
        <ele>131.7</ele>
        <time>2022-12-08T14:27:22Z</time>
      </trkpt>
      <trkpt lat="47.97223" lon="-3.8152">
        <ele>131.7</ele>
        <time>2022-12-08T14:27:23Z</time>
      </trkpt>
      <trkpt lat="47.9722" lon="-3.81527">
        <ele>131.6</ele>
        <time>2022-12-08T14:27:24Z</time>
      </trkpt>
      <trkpt lat="47.97216" lon="-3.81534">
        <ele>131.6</ele>
        <time>2022-12-08T14:27:25Z</time>
      </trkpt>
      <trkpt lat="47.97213" lon="-3.81541">
        <ele>131.5</ele>
        <time>2022-12-08T14:27:26Z</time>
      </trkpt>
      <trkpt lat="47.97209" lon="-3.81548">
        <ele>131.5</ele>
        <time>2022-12-08T14:27:27Z</time>
      </trkpt>
      <trkpt lat="47.97205" lon="-3.81554">
        <ele>131.4</ele>
        <time>2022-12-08T14:27:28Z</time>
      </trkpt>
      <trkpt lat="47.97202" lon="-3.81559">
        <ele>131.4</ele>
        <time>2022-12-08T14:27:29Z</time>
      </trkpt>
      <trkpt lat="47.97199" lon="-3.81565">
        <ele>131.4</ele>
        <time>2022-12-08T14:27:30Z</time>
      </trkpt>
      <trkpt lat="47.97196" lon="-3.81572">
        <ele>131.3</ele>
        <time>2022-12-08T14:27:31Z</time>
      </trkpt>
      <trkpt lat="47.97192" lon="-3.81578">
        <ele>131.3</ele>
        <time>2022-12-08T14:27:32Z</time>
      </trkpt>
      <trkpt lat="47.97189" lon="-3.81585">
        <ele>131.3</ele>
        <time>2022-12-08T14:27:33Z</time>
      </trkpt>
      <trkpt lat="47.97186" lon="-3.81593">
        <ele>131.2</ele>
        <time>2022-12-08T14:27:34Z</time>
      </trkpt>
      <trkpt lat="47.97182" lon="-3.81601">
        <ele>131.2</ele>
        <time>2022-12-08T14:27:35Z</time>
      </trkpt>
      <trkpt lat="47.97178" lon="-3.81608">
        <ele>131.1</ele>
        <time>2022-12-08T14:27:36Z</time>
      </trkpt>
      <trkpt lat="47.97174" lon="-3.81615">
        <ele>131.1</ele>
        <time>2022-12-08T14:27:37Z</time>
      </trkpt>
      <trkpt lat="47.97171" lon="-3.81622">
        <ele>131</ele>
        <time>2022-12-08T14:27:38Z</time>
      </trkpt>
      <trkpt lat="47.97167" lon="-3.81629">
        <ele>131</ele>
        <time>2022-12-08T14:27:39Z</time>
      </trkpt>
      <trkpt lat="47.97164" lon="-3.81636">
        <ele>130.9</ele>
        <time>2022-12-08T14:27:40Z</time>
      </trkpt>
      <trkpt lat="47.9716" lon="-3.81644">
        <ele>130.8</ele>
        <time>2022-12-08T14:27:41Z</time>
      </trkpt>
      <trkpt lat="47.97156" lon="-3.81652">
        <ele>130.7</ele>
        <time>2022-12-08T14:27:42Z</time>
      </trkpt>
      <trkpt lat="47.97152" lon="-3.81659">
        <ele>130.6</ele>
        <time>2022-12-08T14:27:43Z</time>
      </trkpt>
      <trkpt lat="47.97148" lon="-3.81667">
        <ele>130.6</ele>
        <time>2022-12-08T14:27:44Z</time>
      </trkpt>
      <trkpt lat="47.97144" lon="-3.81674">
        <ele>130.5</ele>
        <time>2022-12-08T14:27:45Z</time>
      </trkpt>
      <trkpt lat="47.9714" lon="-3.8168">
        <ele>130.5</ele>
        <time>2022-12-08T14:27:46Z</time>
      </trkpt>
      <trkpt lat="47.97135" lon="-3.81687">
        <ele>130.4</ele>
        <time>2022-12-08T14:27:47Z</time>
      </trkpt>
      <trkpt lat="47.97132" lon="-3.81695">
        <ele>130.4</ele>
        <time>2022-12-08T14:27:48Z</time>
      </trkpt>
      <trkpt lat="47.97128" lon="-3.81703">
        <ele>130.4</ele>
        <time>2022-12-08T14:27:49Z</time>
      </trkpt>
      <trkpt lat="47.97125" lon="-3.8171">
        <ele>130.4</ele>
        <time>2022-12-08T14:27:50Z</time>
      </trkpt>
      <trkpt lat="47.97121" lon="-3.81718">
        <ele>130.4</ele>
        <time>2022-12-08T14:27:51Z</time>
      </trkpt>
      <trkpt lat="47.97117" lon="-3.81725">
        <ele>130.4</ele>
        <time>2022-12-08T14:27:52Z</time>
      </trkpt>
      <trkpt lat="47.97113" lon="-3.81731">
        <ele>130.3</ele>
        <time>2022-12-08T14:27:53Z</time>
      </trkpt>
      <trkpt lat="47.97109" lon="-3.81738">
        <ele>130.3</ele>
        <time>2022-12-08T14:27:54Z</time>
      </trkpt>
      <trkpt lat="47.97105" lon="-3.81745">
        <ele>130.3</ele>
        <time>2022-12-08T14:27:55Z</time>
      </trkpt>
      <trkpt lat="47.97101" lon="-3.81752">
        <ele>130.2</ele>
        <time>2022-12-08T14:27:56Z</time>
      </trkpt>
      <trkpt lat="47.97097" lon="-3.81758">
        <ele>130.2</ele>
        <time>2022-12-08T14:27:57Z</time>
      </trkpt>
      <trkpt lat="47.97094" lon="-3.81765">
        <ele>130.1</ele>
        <time>2022-12-08T14:27:58Z</time>
      </trkpt>
      <trkpt lat="47.97089" lon="-3.81772">
        <ele>130.1</ele>
        <time>2022-12-08T14:27:59Z</time>
      </trkpt>
      <trkpt lat="47.97085" lon="-3.81778">
        <ele>130</ele>
        <time>2022-12-08T14:28:00Z</time>
      </trkpt>
      <trkpt lat="47.97082" lon="-3.81782">
        <ele>130</ele>
        <time>2022-12-08T14:28:01Z</time>
      </trkpt>
      <trkpt lat="47.97078" lon="-3.81787">
        <ele>129.9</ele>
        <time>2022-12-08T14:28:02Z</time>
      </trkpt>
      <trkpt lat="47.97073" lon="-3.81793">
        <ele>129.8</ele>
        <time>2022-12-08T14:28:03Z</time>
      </trkpt>
      <trkpt lat="47.97068" lon="-3.81799">
        <ele>129.8</ele>
        <time>2022-12-08T14:28:04Z</time>
      </trkpt>
      <trkpt lat="47.97063" lon="-3.81805">
        <ele>129.7</ele>
        <time>2022-12-08T14:28:05Z</time>
      </trkpt>
      <trkpt lat="47.97059" lon="-3.81811">
        <ele>129.7</ele>
        <time>2022-12-08T14:28:06Z</time>
      </trkpt>
      <trkpt lat="47.97054" lon="-3.81816">
        <ele>129.7</ele>
        <time>2022-12-08T14:28:07Z</time>
      </trkpt>
      <trkpt lat="47.97049" lon="-3.81821">
        <ele>129.6</ele>
        <time>2022-12-08T14:28:08Z</time>
      </trkpt>
      <trkpt lat="47.97044" lon="-3.81825">
        <ele>129.6</ele>
        <time>2022-12-08T14:28:09Z</time>
      </trkpt>
      <trkpt lat="47.97039" lon="-3.8183">
        <ele>129.5</ele>
        <time>2022-12-08T14:28:10Z</time>
      </trkpt>
      <trkpt lat="47.97034" lon="-3.81835">
        <ele>129.5</ele>
        <time>2022-12-08T14:28:11Z</time>
      </trkpt>
      <trkpt lat="47.9703" lon="-3.81841">
        <ele>129.5</ele>
        <time>2022-12-08T14:28:12Z</time>
      </trkpt>
      <trkpt lat="47.97024" lon="-3.81847">
        <ele>129.4</ele>
        <time>2022-12-08T14:28:13Z</time>
      </trkpt>
      <trkpt lat="47.9702" lon="-3.81851">
        <ele>129.3</ele>
        <time>2022-12-08T14:28:14Z</time>
      </trkpt>
      <trkpt lat="47.97015" lon="-3.81856">
        <ele>129.3</ele>
        <time>2022-12-08T14:28:15Z</time>
      </trkpt>
      <trkpt lat="47.97009" lon="-3.81862">
        <ele>129.3</ele>
        <time>2022-12-08T14:28:16Z</time>
      </trkpt>
      <trkpt lat="47.97004" lon="-3.81867">
        <ele>129.2</ele>
        <time>2022-12-08T14:28:17Z</time>
      </trkpt>
      <trkpt lat="47.96998" lon="-3.81871">
        <ele>129.2</ele>
        <time>2022-12-08T14:28:18Z</time>
      </trkpt>
      <trkpt lat="47.96992" lon="-3.81876">
        <ele>129.2</ele>
        <time>2022-12-08T14:28:19Z</time>
      </trkpt>
      <trkpt lat="47.96987" lon="-3.81882">
        <ele>129.1</ele>
        <time>2022-12-08T14:28:20Z</time>
      </trkpt>
      <trkpt lat="47.96982" lon="-3.81887">
        <ele>129.1</ele>
        <time>2022-12-08T14:28:21Z</time>
      </trkpt>
      <trkpt lat="47.96977" lon="-3.81892">
        <ele>129</ele>
        <time>2022-12-08T14:28:22Z</time>
      </trkpt>
      <trkpt lat="47.96972" lon="-3.81897">
        <ele>129</ele>
        <time>2022-12-08T14:28:23Z</time>
      </trkpt>
      <trkpt lat="47.96966" lon="-3.81902">
        <ele>129</ele>
        <time>2022-12-08T14:28:24Z</time>
      </trkpt>
      <trkpt lat="47.96961" lon="-3.81908">
        <ele>128.9</ele>
        <time>2022-12-08T14:28:25Z</time>
      </trkpt>
      <trkpt lat="47.96956" lon="-3.81913">
        <ele>128.9</ele>
        <time>2022-12-08T14:28:26Z</time>
      </trkpt>
      <trkpt lat="47.9695" lon="-3.81917">
        <ele>128.9</ele>
        <time>2022-12-08T14:28:27Z</time>
      </trkpt>
      <trkpt lat="47.96945" lon="-3.81921">
        <ele>128.9</ele>
        <time>2022-12-08T14:28:28Z</time>
      </trkpt>
      <trkpt lat="47.9694" lon="-3.81926">
        <ele>128.9</ele>
        <time>2022-12-08T14:28:29Z</time>
      </trkpt>
      <trkpt lat="47.96936" lon="-3.81931">
        <ele>128.9</ele>
        <time>2022-12-08T14:28:30Z</time>
      </trkpt>
      <trkpt lat="47.96933" lon="-3.81934">
        <ele>128.9</ele>
        <time>2022-12-08T14:28:31Z</time>
      </trkpt>
      <trkpt lat="47.9693" lon="-3.81937">
        <ele>128.9</ele>
        <time>2022-12-08T14:28:32Z</time>
      </trkpt>
      <trkpt lat="47.96929" lon="-3.81937">
        <ele>128.9</ele>
        <time>2022-12-08T14:28:33Z</time>
      </trkpt>
      <trkpt lat="47.96926" lon="-3.81939">
        <ele>129</ele>
        <time>2022-12-08T14:28:34Z</time>
      </trkpt>
      <trkpt lat="47.96923" lon="-3.81942">
        <ele>129</ele>
        <time>2022-12-08T14:28:35Z</time>
      </trkpt>
      <trkpt lat="47.96921" lon="-3.81945">
        <ele>129</ele>
        <time>2022-12-08T14:28:36Z</time>
      </trkpt>
      <trkpt lat="47.96918" lon="-3.81948">
        <ele>128.9</ele>
        <time>2022-12-08T14:28:37Z</time>
      </trkpt>
      <trkpt lat="47.96916" lon="-3.8195">
        <ele>128.9</ele>
        <time>2022-12-08T14:28:38Z</time>
      </trkpt>
      <trkpt lat="47.96915" lon="-3.81949">
        <ele>128.9</ele>
        <time>2022-12-08T14:28:39Z</time>
      </trkpt>
      <trkpt lat="47.96909" lon="-3.81954">
        <ele>128.8</ele>
        <time>2022-12-08T14:28:40Z</time>
      </trkpt>
      <trkpt lat="47.96905" lon="-3.8196">
        <ele>128.7</ele>
        <time>2022-12-08T14:28:41Z</time>
      </trkpt>
      <trkpt lat="47.96902" lon="-3.81964">
        <ele>128.6</ele>
        <time>2022-12-08T14:28:42Z</time>
      </trkpt>
      <trkpt lat="47.96896" lon="-3.81971">
        <ele>128.4</ele>
        <time>2022-12-08T14:28:43Z</time>
      </trkpt>
      <trkpt lat="47.9689" lon="-3.81976">
        <ele>128.2</ele>
        <time>2022-12-08T14:28:44Z</time>
      </trkpt>
      <trkpt lat="47.96885" lon="-3.81981">
        <ele>128.1</ele>
        <time>2022-12-08T14:28:45Z</time>
      </trkpt>
      <trkpt lat="47.9688" lon="-3.81985">
        <ele>127.9</ele>
        <time>2022-12-08T14:28:46Z</time>
      </trkpt>
      <trkpt lat="47.96874" lon="-3.81991">
        <ele>127.8</ele>
        <time>2022-12-08T14:28:47Z</time>
      </trkpt>
      <trkpt lat="47.96868" lon="-3.81996">
        <ele>127.6</ele>
        <time>2022-12-08T14:28:48Z</time>
      </trkpt>
      <trkpt lat="47.96862" lon="-3.82">
        <ele>127.5</ele>
        <time>2022-12-08T14:28:49Z</time>
      </trkpt>
      <trkpt lat="47.96858" lon="-3.82005">
        <ele>127.4</ele>
        <time>2022-12-08T14:28:50Z</time>
      </trkpt>
      <trkpt lat="47.96852" lon="-3.8201">
        <ele>127.2</ele>
        <time>2022-12-08T14:28:51Z</time>
      </trkpt>
      <trkpt lat="47.96846" lon="-3.82015">
        <ele>127.1</ele>
        <time>2022-12-08T14:28:52Z</time>
      </trkpt>
      <trkpt lat="47.96834" lon="-3.82027">
        <ele>126.8</ele>
        <time>2022-12-08T14:28:54Z</time>
      </trkpt>
      <trkpt lat="47.96829" lon="-3.82032">
        <ele>126.7</ele>
        <time>2022-12-08T14:28:55Z</time>
      </trkpt>
      <trkpt lat="47.96823" lon="-3.82037">
        <ele>126.6</ele>
        <time>2022-12-08T14:28:56Z</time>
      </trkpt>
      <trkpt lat="47.96818" lon="-3.82044">
        <ele>126.4</ele>
        <time>2022-12-08T14:28:57Z</time>
      </trkpt>
      <trkpt lat="47.96813" lon="-3.82049">
        <ele>126.3</ele>
        <time>2022-12-08T14:28:58Z</time>
      </trkpt>
      <trkpt lat="47.96801" lon="-3.82061">
        <ele>126</ele>
        <time>2022-12-08T14:29:00Z</time>
      </trkpt>
      <trkpt lat="47.96795" lon="-3.82067">
        <ele>125.9</ele>
        <time>2022-12-08T14:29:01Z</time>
      </trkpt>
      <trkpt lat="47.9679" lon="-3.82072">
        <ele>125.7</ele>
        <time>2022-12-08T14:29:02Z</time>
      </trkpt>
      <trkpt lat="47.96784" lon="-3.82079">
        <ele>125.6</ele>
        <time>2022-12-08T14:29:03Z</time>
      </trkpt>
      <trkpt lat="47.96779" lon="-3.82084">
        <ele>125.4</ele>
        <time>2022-12-08T14:29:04Z</time>
      </trkpt>
      <trkpt lat="47.96766" lon="-3.82096">
        <ele>125.2</ele>
        <time>2022-12-08T14:29:06Z</time>
      </trkpt>
      <trkpt lat="47.9676" lon="-3.82101">
        <ele>125</ele>
        <time>2022-12-08T14:29:07Z</time>
      </trkpt>
      <trkpt lat="47.96755" lon="-3.82107">
        <ele>124.9</ele>
        <time>2022-12-08T14:29:08Z</time>
      </trkpt>
      <trkpt lat="47.9675" lon="-3.82113">
        <ele>124.8</ele>
        <time>2022-12-08T14:29:09Z</time>
      </trkpt>
      <trkpt lat="47.96743" lon="-3.82118">
        <ele>124.6</ele>
        <time>2022-12-08T14:29:10Z</time>
      </trkpt>
      <trkpt lat="47.96738" lon="-3.82123">
        <ele>124.5</ele>
        <time>2022-12-08T14:29:11Z</time>
      </trkpt>
      <trkpt lat="47.96733" lon="-3.82129">
        <ele>124.4</ele>
        <time>2022-12-08T14:29:12Z</time>
      </trkpt>
      <trkpt lat="47.96727" lon="-3.82134">
        <ele>124.3</ele>
        <time>2022-12-08T14:29:13Z</time>
      </trkpt>
      <trkpt lat="47.96722" lon="-3.82139">
        <ele>124.2</ele>
        <time>2022-12-08T14:29:14Z</time>
      </trkpt>
      <trkpt lat="47.96716" lon="-3.82146">
        <ele>124</ele>
        <time>2022-12-08T14:29:15Z</time>
      </trkpt>
      <trkpt lat="47.96709" lon="-3.82152">
        <ele>123.9</ele>
        <time>2022-12-08T14:29:16Z</time>
      </trkpt>
      <trkpt lat="47.96703" lon="-3.82157">
        <ele>123.7</ele>
        <time>2022-12-08T14:29:17Z</time>
      </trkpt>
      <trkpt lat="47.96697" lon="-3.82165">
        <ele>123.6</ele>
        <time>2022-12-08T14:29:18Z</time>
      </trkpt>
      <trkpt lat="47.96692" lon="-3.82172">
        <ele>123.4</ele>
        <time>2022-12-08T14:29:19Z</time>
      </trkpt>
      <trkpt lat="47.96686" lon="-3.82178">
        <ele>123.3</ele>
        <time>2022-12-08T14:29:20Z</time>
      </trkpt>
      <trkpt lat="47.9668" lon="-3.82185">
        <ele>123.1</ele>
        <time>2022-12-08T14:29:21Z</time>
      </trkpt>
      <trkpt lat="47.96674" lon="-3.82191">
        <ele>122.9</ele>
        <time>2022-12-08T14:29:22Z</time>
      </trkpt>
      <trkpt lat="47.96668" lon="-3.82197">
        <ele>122.8</ele>
        <time>2022-12-08T14:29:23Z</time>
      </trkpt>
      <trkpt lat="47.96661" lon="-3.82204">
        <ele>122.6</ele>
        <time>2022-12-08T14:29:24Z</time>
      </trkpt>
      <trkpt lat="47.96654" lon="-3.82208">
        <ele>122.4</ele>
        <time>2022-12-08T14:29:25Z</time>
      </trkpt>
      <trkpt lat="47.96647" lon="-3.82214">
        <ele>122.2</ele>
        <time>2022-12-08T14:29:26Z</time>
      </trkpt>
      <trkpt lat="47.96641" lon="-3.82219">
        <ele>122.1</ele>
        <time>2022-12-08T14:29:27Z</time>
      </trkpt>
      <trkpt lat="47.96629" lon="-3.8223">
        <ele>121.8</ele>
        <time>2022-12-08T14:29:29Z</time>
      </trkpt>
      <trkpt lat="47.96623" lon="-3.82237">
        <ele>121.6</ele>
        <time>2022-12-08T14:29:30Z</time>
      </trkpt>
      <trkpt lat="47.96618" lon="-3.82242">
        <ele>121.5</ele>
        <time>2022-12-08T14:29:31Z</time>
      </trkpt>
      <trkpt lat="47.96612" lon="-3.82248">
        <ele>121.3</ele>
        <time>2022-12-08T14:29:32Z</time>
      </trkpt>
      <trkpt lat="47.96606" lon="-3.82253">
        <ele>121.2</ele>
        <time>2022-12-08T14:29:33Z</time>
      </trkpt>
      <trkpt lat="47.966" lon="-3.82257">
        <ele>121</ele>
        <time>2022-12-08T14:29:34Z</time>
      </trkpt>
      <trkpt lat="47.96594" lon="-3.82262">
        <ele>120.9</ele>
        <time>2022-12-08T14:29:35Z</time>
      </trkpt>
      <trkpt lat="47.96588" lon="-3.82268">
        <ele>120.8</ele>
        <time>2022-12-08T14:29:36Z</time>
      </trkpt>
      <trkpt lat="47.96582" lon="-3.82274">
        <ele>120.6</ele>
        <time>2022-12-08T14:29:37Z</time>
      </trkpt>
      <trkpt lat="47.96577" lon="-3.82279">
        <ele>120.5</ele>
        <time>2022-12-08T14:29:38Z</time>
      </trkpt>
      <trkpt lat="47.96571" lon="-3.82285">
        <ele>120.3</ele>
        <time>2022-12-08T14:29:39Z</time>
      </trkpt>
      <trkpt lat="47.96564" lon="-3.82291">
        <ele>120.2</ele>
        <time>2022-12-08T14:29:40Z</time>
      </trkpt>
      <trkpt lat="47.96558" lon="-3.82296">
        <ele>120</ele>
        <time>2022-12-08T14:29:41Z</time>
      </trkpt>
      <trkpt lat="47.96553" lon="-3.82302">
        <ele>119.9</ele>
        <time>2022-12-08T14:29:42Z</time>
      </trkpt>
      <trkpt lat="47.96547" lon="-3.82309">
        <ele>119.7</ele>
        <time>2022-12-08T14:29:43Z</time>
      </trkpt>
      <trkpt lat="47.96541" lon="-3.82316">
        <ele>119.6</ele>
        <time>2022-12-08T14:29:44Z</time>
      </trkpt>
      <trkpt lat="47.96536" lon="-3.82322">
        <ele>119.4</ele>
        <time>2022-12-08T14:29:45Z</time>
      </trkpt>
      <trkpt lat="47.9653" lon="-3.82329">
        <ele>119.3</ele>
        <time>2022-12-08T14:29:46Z</time>
      </trkpt>
      <trkpt lat="47.96524" lon="-3.82336">
        <ele>119.1</ele>
        <time>2022-12-08T14:29:47Z</time>
      </trkpt>
      <trkpt lat="47.96519" lon="-3.82343">
        <ele>119</ele>
        <time>2022-12-08T14:29:48Z</time>
      </trkpt>
      <trkpt lat="47.96514" lon="-3.8235">
        <ele>118.8</ele>
        <time>2022-12-08T14:29:49Z</time>
      </trkpt>
      <trkpt lat="47.96508" lon="-3.82358">
        <ele>118.6</ele>
        <time>2022-12-08T14:29:50Z</time>
      </trkpt>
      <trkpt lat="47.96503" lon="-3.82366">
        <ele>118.5</ele>
        <time>2022-12-08T14:29:51Z</time>
      </trkpt>
      <trkpt lat="47.96494" lon="-3.82381">
        <ele>118.2</ele>
        <time>2022-12-08T14:29:53Z</time>
      </trkpt>
      <trkpt lat="47.96489" lon="-3.82389">
        <ele>118</ele>
        <time>2022-12-08T14:29:54Z</time>
      </trkpt>
      <trkpt lat="47.96484" lon="-3.82397">
        <ele>117.9</ele>
        <time>2022-12-08T14:29:55Z</time>
      </trkpt>
      <trkpt lat="47.9648" lon="-3.82404">
        <ele>117.8</ele>
        <time>2022-12-08T14:29:56Z</time>
      </trkpt>
      <trkpt lat="47.96475" lon="-3.82412">
        <ele>117.6</ele>
        <time>2022-12-08T14:29:57Z</time>
      </trkpt>
      <trkpt lat="47.9647" lon="-3.8242">
        <ele>117.5</ele>
        <time>2022-12-08T14:29:58Z</time>
      </trkpt>
      <trkpt lat="47.96466" lon="-3.82427">
        <ele>117.4</ele>
        <time>2022-12-08T14:29:59Z</time>
      </trkpt>
      <trkpt lat="47.96461" lon="-3.82434">
        <ele>117.3</ele>
        <time>2022-12-08T14:30:00Z</time>
      </trkpt>
      <trkpt lat="47.96457" lon="-3.82442">
        <ele>117.2</ele>
        <time>2022-12-08T14:30:01Z</time>
      </trkpt>
      <trkpt lat="47.96453" lon="-3.8245">
        <ele>117.1</ele>
        <time>2022-12-08T14:30:02Z</time>
      </trkpt>
      <trkpt lat="47.96448" lon="-3.82457">
        <ele>117.1</ele>
        <time>2022-12-08T14:30:03Z</time>
      </trkpt>
      <trkpt lat="47.96443" lon="-3.82464">
        <ele>117.1</ele>
        <time>2022-12-08T14:30:04Z</time>
      </trkpt>
      <trkpt lat="47.9644" lon="-3.82469">
        <ele>117</ele>
        <time>2022-12-08T14:30:05Z</time>
      </trkpt>
      <trkpt lat="47.96437" lon="-3.82473">
        <ele>117</ele>
        <time>2022-12-08T14:30:06Z</time>
      </trkpt>
      <trkpt lat="47.96433" lon="-3.82474">
        <ele>116.9</ele>
        <time>2022-12-08T14:30:07Z</time>
      </trkpt>
      <trkpt lat="47.96427" lon="-3.82473">
        <ele>116.7</ele>
        <time>2022-12-08T14:30:08Z</time>
      </trkpt>
      <trkpt lat="47.96421" lon="-3.82473">
        <ele>116.6</ele>
        <time>2022-12-08T14:30:09Z</time>
      </trkpt>
      <trkpt lat="47.96416" lon="-3.82471">
        <ele>116.4</ele>
        <time>2022-12-08T14:30:10Z</time>
      </trkpt>
      <trkpt lat="47.96409" lon="-3.82471">
        <ele>116.3</ele>
        <time>2022-12-08T14:30:11Z</time>
      </trkpt>
      <trkpt lat="47.96405" lon="-3.82472">
        <ele>116.3</ele>
        <time>2022-12-08T14:30:12Z</time>
      </trkpt>
      <trkpt lat="47.96399" lon="-3.82474">
        <ele>116.2</ele>
        <time>2022-12-08T14:30:13Z</time>
      </trkpt>
      <trkpt lat="47.96394" lon="-3.82476">
        <ele>116.1</ele>
        <time>2022-12-08T14:30:14Z</time>
      </trkpt>
      <trkpt lat="47.96389" lon="-3.82477">
        <ele>116.1</ele>
        <time>2022-12-08T14:30:15Z</time>
      </trkpt>
      <trkpt lat="47.96385" lon="-3.82478">
        <ele>116.1</ele>
        <time>2022-12-08T14:30:16Z</time>
      </trkpt>
      <trkpt lat="47.96381" lon="-3.82478">
        <ele>116</ele>
        <time>2022-12-08T14:30:17Z</time>
      </trkpt>
      <trkpt lat="47.96375" lon="-3.82479">
        <ele>116</ele>
        <time>2022-12-08T14:30:18Z</time>
      </trkpt>
      <trkpt lat="47.96371" lon="-3.82479">
        <ele>116</ele>
        <time>2022-12-08T14:30:19Z</time>
      </trkpt>
      <trkpt lat="47.96366" lon="-3.82479">
        <ele>115.9</ele>
        <time>2022-12-08T14:30:20Z</time>
      </trkpt>
      <trkpt lat="47.96363" lon="-3.82479">
        <ele>115.9</ele>
        <time>2022-12-08T14:30:21Z</time>
      </trkpt>
      <trkpt lat="47.9636" lon="-3.82479">
        <ele>115.9</ele>
        <time>2022-12-08T14:30:22Z</time>
      </trkpt>
      <trkpt lat="47.96355" lon="-3.82479">
        <ele>115.8</ele>
        <time>2022-12-08T14:30:23Z</time>
      </trkpt>
      <trkpt lat="47.96354" lon="-3.82479">
        <ele>115.8</ele>
        <time>2022-12-08T14:30:24Z</time>
      </trkpt>
      <trkpt lat="47.96354" lon="-3.82479">
        <ele>115.8</ele>
        <time>2022-12-08T14:30:25Z</time>
      </trkpt>
      <trkpt lat="47.96353" lon="-3.82479">
        <ele>115.8</ele>
        <time>2022-12-08T14:30:26Z</time>
      </trkpt>
      <trkpt lat="47.96353" lon="-3.82479">
        <ele>115.8</ele>
        <time>2022-12-08T14:30:27Z</time>
      </trkpt>
      <trkpt lat="47.96353" lon="-3.82479">
        <ele>115.8</ele>
        <time>2022-12-08T14:30:29Z</time>
      </trkpt>
      <trkpt lat="47.96352" lon="-3.82479">
        <ele>115.8</ele>
        <time>2022-12-08T14:30:30Z</time>
      </trkpt>
      <trkpt lat="47.96352" lon="-3.82479">
        <ele>115.8</ele>
        <time>2022-12-08T14:30:31Z</time>
      </trkpt>
      <trkpt lat="47.96352" lon="-3.82479">
        <ele>115.8</ele>
        <time>2022-12-08T14:30:33Z</time>
      </trkpt>
      <trkpt lat="47.96352" lon="-3.82479">
        <ele>115.8</ele>
        <time>2022-12-08T14:30:34Z</time>
      </trkpt>
      <trkpt lat="47.96352" lon="-3.82479">
        <ele>115.8</ele>
        <time>2022-12-08T14:30:35Z</time>
      </trkpt>
      <trkpt lat="47.96352" lon="-3.82479">
        <ele>115.8</ele>
        <time>2022-12-08T14:30:36Z</time>
      </trkpt>
      <trkpt lat="47.96352" lon="-3.82479">
        <ele>115.8</ele>
        <time>2022-12-08T14:30:38Z</time>
      </trkpt>
      <trkpt lat="47.96352" lon="-3.82479">
        <ele>115.8</ele>
        <time>2022-12-08T14:30:39Z</time>
      </trkpt>
      <trkpt lat="47.96355" lon="-3.82477">
        <ele>115.8</ele>
        <time>2022-12-08T14:31:14Z</time>
      </trkpt>
      <trkpt lat="47.96356" lon="-3.82477">
        <ele>115.8</ele>
        <time>2022-12-08T14:31:15Z</time>
      </trkpt>
      <trkpt lat="47.96358" lon="-3.82478">
        <ele>115.8</ele>
        <time>2022-12-08T14:31:16Z</time>
      </trkpt>
      <trkpt lat="47.96363" lon="-3.8248">
        <ele>115.8</ele>
        <time>2022-12-08T14:31:18Z</time>
      </trkpt>
      <trkpt lat="47.96365" lon="-3.82481">
        <ele>115.8</ele>
        <time>2022-12-08T14:31:19Z</time>
      </trkpt>
      <trkpt lat="47.96367" lon="-3.82481">
        <ele>115.9</ele>
        <time>2022-12-08T14:31:20Z</time>
      </trkpt>
      <trkpt lat="47.96371" lon="-3.82481">
        <ele>115.9</ele>
        <time>2022-12-08T14:31:21Z</time>
      </trkpt>
      <trkpt lat="47.96375" lon="-3.8248">
        <ele>115.9</ele>
        <time>2022-12-08T14:31:22Z</time>
      </trkpt>
      <trkpt lat="47.96378" lon="-3.82479">
        <ele>116</ele>
        <time>2022-12-08T14:31:23Z</time>
      </trkpt>
      <trkpt lat="47.96382" lon="-3.82479">
        <ele>116</ele>
        <time>2022-12-08T14:31:24Z</time>
      </trkpt>
      <trkpt lat="47.96387" lon="-3.82478">
        <ele>116</ele>
        <time>2022-12-08T14:31:25Z</time>
      </trkpt>
      <trkpt lat="47.96392" lon="-3.82477">
        <ele>116.1</ele>
        <time>2022-12-08T14:31:26Z</time>
      </trkpt>
      <trkpt lat="47.96398" lon="-3.82476">
        <ele>116.1</ele>
        <time>2022-12-08T14:31:27Z</time>
      </trkpt>
      <trkpt lat="47.96403" lon="-3.82476">
        <ele>116.2</ele>
        <time>2022-12-08T14:31:28Z</time>
      </trkpt>
      <trkpt lat="47.96409" lon="-3.82475">
        <ele>116.3</ele>
        <time>2022-12-08T14:31:29Z</time>
      </trkpt>
      <trkpt lat="47.96414" lon="-3.82474">
        <ele>116.4</ele>
        <time>2022-12-08T14:31:30Z</time>
      </trkpt>
      <trkpt lat="47.96419" lon="-3.82474">
        <ele>116.4</ele>
        <time>2022-12-08T14:31:31Z</time>
      </trkpt>
      <trkpt lat="47.96424" lon="-3.82476">
        <ele>116.6</ele>
        <time>2022-12-08T14:31:32Z</time>
      </trkpt>
      <trkpt lat="47.96428" lon="-3.8248">
        <ele>117</ele>
        <time>2022-12-08T14:31:33Z</time>
      </trkpt>
      <trkpt lat="47.96429" lon="-3.82485">
        <ele>117</ele>
        <time>2022-12-08T14:31:34Z</time>
      </trkpt>
      <trkpt lat="47.96428" lon="-3.82487">
        <ele>117</ele>
        <time>2022-12-08T14:31:35Z</time>
      </trkpt>
      <trkpt lat="47.96424" lon="-3.82495">
        <ele>117</ele>
        <time>2022-12-08T14:31:37Z</time>
      </trkpt>
      <trkpt lat="47.96422" lon="-3.825">
        <ele>117</ele>
        <time>2022-12-08T14:31:38Z</time>
      </trkpt>
      <trkpt lat="47.96419" lon="-3.82506">
        <ele>117</ele>
        <time>2022-12-08T14:31:39Z</time>
      </trkpt>
      <trkpt lat="47.96416" lon="-3.82512">
        <ele>117</ele>
        <time>2022-12-08T14:31:40Z</time>
      </trkpt>
      <trkpt lat="47.96413" lon="-3.82517">
        <ele>117</ele>
        <time>2022-12-08T14:31:41Z</time>
      </trkpt>
      <trkpt lat="47.9641" lon="-3.82523">
        <ele>117</ele>
        <time>2022-12-08T14:31:42Z</time>
      </trkpt>
      <trkpt lat="47.96407" lon="-3.82528">
        <ele>117</ele>
        <time>2022-12-08T14:31:43Z</time>
      </trkpt>
      <trkpt lat="47.96404" lon="-3.82534">
        <ele>117</ele>
        <time>2022-12-08T14:31:44Z</time>
      </trkpt>
      <trkpt lat="47.964" lon="-3.82539">
        <ele>117</ele>
        <time>2022-12-08T14:31:45Z</time>
      </trkpt>
      <trkpt lat="47.96394" lon="-3.8255">
        <ele>117</ele>
        <time>2022-12-08T14:31:47Z</time>
      </trkpt>
      <trkpt lat="47.96391" lon="-3.82556">
        <ele>117.1</ele>
        <time>2022-12-08T14:31:48Z</time>
      </trkpt>
      <trkpt lat="47.96388" lon="-3.82562">
        <ele>117.1</ele>
        <time>2022-12-08T14:31:49Z</time>
      </trkpt>
      <trkpt lat="47.96384" lon="-3.82567">
        <ele>117.1</ele>
        <time>2022-12-08T14:31:50Z</time>
      </trkpt>
      <trkpt lat="47.96381" lon="-3.82571">
        <ele>117.1</ele>
        <time>2022-12-08T14:31:51Z</time>
      </trkpt>
      <trkpt lat="47.96379" lon="-3.82575">
        <ele>117.1</ele>
        <time>2022-12-08T14:31:52Z</time>
      </trkpt>
      <trkpt lat="47.96375" lon="-3.82584">
        <ele>117.1</ele>
        <time>2022-12-08T14:31:53Z</time>
      </trkpt>
      <trkpt lat="47.96371" lon="-3.8259">
        <ele>117.1</ele>
        <time>2022-12-08T14:31:54Z</time>
      </trkpt>
      <trkpt lat="47.96367" lon="-3.82597">
        <ele>117.1</ele>
        <time>2022-12-08T14:31:55Z</time>
      </trkpt>
      <trkpt lat="47.96363" lon="-3.82602">
        <ele>117.1</ele>
        <time>2022-12-08T14:31:56Z</time>
      </trkpt>
      <trkpt lat="47.9636" lon="-3.82607">
        <ele>117.2</ele>
        <time>2022-12-08T14:31:57Z</time>
      </trkpt>
      <trkpt lat="47.96356" lon="-3.82614">
        <ele>117.2</ele>
        <time>2022-12-08T14:31:58Z</time>
      </trkpt>
      <trkpt lat="47.96353" lon="-3.8262">
        <ele>117.2</ele>
        <time>2022-12-08T14:31:59Z</time>
      </trkpt>
      <trkpt lat="47.96349" lon="-3.82627">
        <ele>117.2</ele>
        <time>2022-12-08T14:32:00Z</time>
      </trkpt>
      <trkpt lat="47.96345" lon="-3.82633">
        <ele>117.2</ele>
        <time>2022-12-08T14:32:01Z</time>
      </trkpt>
      <trkpt lat="47.96342" lon="-3.8264">
        <ele>117.2</ele>
        <time>2022-12-08T14:32:02Z</time>
      </trkpt>
      <trkpt lat="47.96339" lon="-3.82647">
        <ele>117.2</ele>
        <time>2022-12-08T14:32:03Z</time>
      </trkpt>
      <trkpt lat="47.96336" lon="-3.82652">
        <ele>117.2</ele>
        <time>2022-12-08T14:32:04Z</time>
      </trkpt>
      <trkpt lat="47.96332" lon="-3.82658">
        <ele>117.2</ele>
        <time>2022-12-08T14:32:05Z</time>
      </trkpt>
      <trkpt lat="47.96329" lon="-3.82665">
        <ele>117.2</ele>
        <time>2022-12-08T14:32:06Z</time>
      </trkpt>
      <trkpt lat="47.96325" lon="-3.82671">
        <ele>117.2</ele>
        <time>2022-12-08T14:32:07Z</time>
      </trkpt>
      <trkpt lat="47.96322" lon="-3.82676">
        <ele>117.2</ele>
        <time>2022-12-08T14:32:08Z</time>
      </trkpt>
      <trkpt lat="47.96318" lon="-3.82683">
        <ele>117.3</ele>
        <time>2022-12-08T14:32:09Z</time>
      </trkpt>
      <trkpt lat="47.96315" lon="-3.82689">
        <ele>117.3</ele>
        <time>2022-12-08T14:32:10Z</time>
      </trkpt>
      <trkpt lat="47.96311" lon="-3.82694">
        <ele>117.3</ele>
        <time>2022-12-08T14:32:11Z</time>
      </trkpt>
      <trkpt lat="47.96308" lon="-3.82699">
        <ele>117.2</ele>
        <time>2022-12-08T14:32:12Z</time>
      </trkpt>
      <trkpt lat="47.96304" lon="-3.82704">
        <ele>117.2</ele>
        <time>2022-12-08T14:32:13Z</time>
      </trkpt>
      <trkpt lat="47.96301" lon="-3.8271">
        <ele>117.2</ele>
        <time>2022-12-08T14:32:14Z</time>
      </trkpt>
      <trkpt lat="47.96298" lon="-3.82715">
        <ele>117.2</ele>
        <time>2022-12-08T14:32:15Z</time>
      </trkpt>
      <trkpt lat="47.96296" lon="-3.82717">
        <ele>117.2</ele>
        <time>2022-12-08T14:32:16Z</time>
      </trkpt>
      <trkpt lat="47.96293" lon="-3.82721">
        <ele>117.2</ele>
        <time>2022-12-08T14:32:17Z</time>
      </trkpt>
      <trkpt lat="47.9629" lon="-3.82728">
        <ele>117.2</ele>
        <time>2022-12-08T14:32:18Z</time>
      </trkpt>
      <trkpt lat="47.96286" lon="-3.82736">
        <ele>117.2</ele>
        <time>2022-12-08T14:32:19Z</time>
      </trkpt>
      <trkpt lat="47.96283" lon="-3.82741">
        <ele>117.2</ele>
        <time>2022-12-08T14:32:20Z</time>
      </trkpt>
      <trkpt lat="47.9628" lon="-3.82747">
        <ele>117.2</ele>
        <time>2022-12-08T14:32:21Z</time>
      </trkpt>
      <trkpt lat="47.96276" lon="-3.82754">
        <ele>117.2</ele>
        <time>2022-12-08T14:32:22Z</time>
      </trkpt>
      <trkpt lat="47.96272" lon="-3.82761">
        <ele>117.2</ele>
        <time>2022-12-08T14:32:23Z</time>
      </trkpt>
      <trkpt lat="47.96268" lon="-3.82766">
        <ele>117.2</ele>
        <time>2022-12-08T14:32:24Z</time>
      </trkpt>
      <trkpt lat="47.96264" lon="-3.82772">
        <ele>117.2</ele>
        <time>2022-12-08T14:32:25Z</time>
      </trkpt>
      <trkpt lat="47.96261" lon="-3.82778">
        <ele>117.2</ele>
        <time>2022-12-08T14:32:26Z</time>
      </trkpt>
      <trkpt lat="47.96257" lon="-3.82784">
        <ele>117.2</ele>
        <time>2022-12-08T14:32:27Z</time>
      </trkpt>
      <trkpt lat="47.96254" lon="-3.8279">
        <ele>117.2</ele>
        <time>2022-12-08T14:32:28Z</time>
      </trkpt>
      <trkpt lat="47.9625" lon="-3.82796">
        <ele>117.2</ele>
        <time>2022-12-08T14:32:29Z</time>
      </trkpt>
      <trkpt lat="47.96246" lon="-3.82802">
        <ele>117.2</ele>
        <time>2022-12-08T14:32:30Z</time>
      </trkpt>
      <trkpt lat="47.96243" lon="-3.82809">
        <ele>117.2</ele>
        <time>2022-12-08T14:32:31Z</time>
      </trkpt>
      <trkpt lat="47.9624" lon="-3.82815">
        <ele>117.2</ele>
        <time>2022-12-08T14:32:32Z</time>
      </trkpt>
      <trkpt lat="47.96236" lon="-3.82822">
        <ele>117.2</ele>
        <time>2022-12-08T14:32:33Z</time>
      </trkpt>
      <trkpt lat="47.96232" lon="-3.82828">
        <ele>117.2</ele>
        <time>2022-12-08T14:32:34Z</time>
      </trkpt>
      <trkpt lat="47.96229" lon="-3.82834">
        <ele>117.2</ele>
        <time>2022-12-08T14:32:35Z</time>
      </trkpt>
      <trkpt lat="47.96225" lon="-3.8284">
        <ele>117.2</ele>
        <time>2022-12-08T14:32:36Z</time>
      </trkpt>
      <trkpt lat="47.96221" lon="-3.82846">
        <ele>117.2</ele>
        <time>2022-12-08T14:32:37Z</time>
      </trkpt>
      <trkpt lat="47.96217" lon="-3.82852">
        <ele>117.3</ele>
        <time>2022-12-08T14:32:38Z</time>
      </trkpt>
      <trkpt lat="47.96214" lon="-3.82858">
        <ele>117.3</ele>
        <time>2022-12-08T14:32:39Z</time>
      </trkpt>
      <trkpt lat="47.96211" lon="-3.82863">
        <ele>117.2</ele>
        <time>2022-12-08T14:32:40Z</time>
      </trkpt>
      <trkpt lat="47.96209" lon="-3.82866">
        <ele>117.2</ele>
        <time>2022-12-08T14:32:41Z</time>
      </trkpt>
      <trkpt lat="47.96205" lon="-3.82866">
        <ele>117.2</ele>
        <time>2022-12-08T14:32:42Z</time>
      </trkpt>
      <trkpt lat="47.962" lon="-3.82863">
        <ele>117.1</ele>
        <time>2022-12-08T14:32:43Z</time>
      </trkpt>
      <trkpt lat="47.96195" lon="-3.82858">
        <ele>116.9</ele>
        <time>2022-12-08T14:32:44Z</time>
      </trkpt>
      <trkpt lat="47.96191" lon="-3.82854">
        <ele>116.9</ele>
        <time>2022-12-08T14:32:45Z</time>
      </trkpt>
      <trkpt lat="47.96189" lon="-3.82851">
        <ele>116.8</ele>
        <time>2022-12-08T14:32:46Z</time>
      </trkpt>
      <trkpt lat="47.96184" lon="-3.82846">
        <ele>116.7</ele>
        <time>2022-12-08T14:32:47Z</time>
      </trkpt>
      <trkpt lat="47.9618" lon="-3.82842">
        <ele>116.7</ele>
        <time>2022-12-08T14:32:48Z</time>
      </trkpt>
      <trkpt lat="47.96175" lon="-3.82837">
        <ele>116.6</ele>
        <time>2022-12-08T14:32:49Z</time>
      </trkpt>
      <trkpt lat="47.96171" lon="-3.82833">
        <ele>116.5</ele>
        <time>2022-12-08T14:32:50Z</time>
      </trkpt>
      <trkpt lat="47.96167" lon="-3.82829">
        <ele>116.5</ele>
        <time>2022-12-08T14:32:51Z</time>
      </trkpt>
      <trkpt lat="47.96162" lon="-3.82825">
        <ele>116.4</ele>
        <time>2022-12-08T14:32:52Z</time>
      </trkpt>
      <trkpt lat="47.96157" lon="-3.8282">
        <ele>116.4</ele>
        <time>2022-12-08T14:32:53Z</time>
      </trkpt>
      <trkpt lat="47.96153" lon="-3.82816">
        <ele>116.4</ele>
        <time>2022-12-08T14:32:54Z</time>
      </trkpt>
      <trkpt lat="47.96148" lon="-3.82811">
        <ele>116.4</ele>
        <time>2022-12-08T14:32:55Z</time>
      </trkpt>
      <trkpt lat="47.96144" lon="-3.82806">
        <ele>116.3</ele>
        <time>2022-12-08T14:32:56Z</time>
      </trkpt>
      <trkpt lat="47.96139" lon="-3.82801">
        <ele>116.3</ele>
        <time>2022-12-08T14:32:57Z</time>
      </trkpt>
      <trkpt lat="47.96134" lon="-3.82797">
        <ele>116.3</ele>
        <time>2022-12-08T14:32:58Z</time>
      </trkpt>
      <trkpt lat="47.96129" lon="-3.82792">
        <ele>116.3</ele>
        <time>2022-12-08T14:32:59Z</time>
      </trkpt>
      <trkpt lat="47.96124" lon="-3.82788">
        <ele>116.2</ele>
        <time>2022-12-08T14:33:00Z</time>
      </trkpt>
      <trkpt lat="47.96119" lon="-3.82783">
        <ele>116.1</ele>
        <time>2022-12-08T14:33:01Z</time>
      </trkpt>
      <trkpt lat="47.96114" lon="-3.82779">
        <ele>116</ele>
        <time>2022-12-08T14:33:02Z</time>
      </trkpt>
      <trkpt lat="47.96109" lon="-3.82776">
        <ele>115.9</ele>
        <time>2022-12-08T14:33:03Z</time>
      </trkpt>
      <trkpt lat="47.96103" lon="-3.82774">
        <ele>115.9</ele>
        <time>2022-12-08T14:33:04Z</time>
      </trkpt>
      <trkpt lat="47.96098" lon="-3.82772">
        <ele>115.8</ele>
        <time>2022-12-08T14:33:05Z</time>
      </trkpt>
      <trkpt lat="47.96092" lon="-3.82769">
        <ele>115.8</ele>
        <time>2022-12-08T14:33:06Z</time>
      </trkpt>
      <trkpt lat="47.96087" lon="-3.82766">
        <ele>115.8</ele>
        <time>2022-12-08T14:33:07Z</time>
      </trkpt>
      <trkpt lat="47.96082" lon="-3.82762">
        <ele>115.8</ele>
        <time>2022-12-08T14:33:08Z</time>
      </trkpt>
      <trkpt lat="47.96077" lon="-3.82758">
        <ele>115.7</ele>
        <time>2022-12-08T14:33:09Z</time>
      </trkpt>
      <trkpt lat="47.96073" lon="-3.82755">
        <ele>115.7</ele>
        <time>2022-12-08T14:33:10Z</time>
      </trkpt>
      <trkpt lat="47.96068" lon="-3.8275">
        <ele>115.7</ele>
        <time>2022-12-08T14:33:11Z</time>
      </trkpt>
      <trkpt lat="47.96064" lon="-3.82745">
        <ele>115.7</ele>
        <time>2022-12-08T14:33:12Z</time>
      </trkpt>
      <trkpt lat="47.9606" lon="-3.82739">
        <ele>115.7</ele>
        <time>2022-12-08T14:33:13Z</time>
      </trkpt>
      <trkpt lat="47.96055" lon="-3.82735">
        <ele>115.7</ele>
        <time>2022-12-08T14:33:14Z</time>
      </trkpt>
      <trkpt lat="47.9605" lon="-3.82732">
        <ele>115.7</ele>
        <time>2022-12-08T14:33:15Z</time>
      </trkpt>
      <trkpt lat="47.96046" lon="-3.82729">
        <ele>115.7</ele>
        <time>2022-12-08T14:33:16Z</time>
      </trkpt>
      <trkpt lat="47.96041" lon="-3.82726">
        <ele>115.7</ele>
        <time>2022-12-08T14:33:17Z</time>
      </trkpt>
      <trkpt lat="47.96037" lon="-3.82727">
        <ele>115.8</ele>
        <time>2022-12-08T14:33:18Z</time>
      </trkpt>
      <trkpt lat="47.96033" lon="-3.8273">
        <ele>115.8</ele>
        <time>2022-12-08T14:33:19Z</time>
      </trkpt>
      <trkpt lat="47.96032" lon="-3.82735">
        <ele>115.9</ele>
        <time>2022-12-08T14:33:20Z</time>
      </trkpt>
      <trkpt lat="47.96031" lon="-3.82737">
        <ele>116</ele>
        <time>2022-12-08T14:33:21Z</time>
      </trkpt>
      <trkpt lat="47.96032" lon="-3.82741">
        <ele>116.1</ele>
        <time>2022-12-08T14:33:22Z</time>
      </trkpt>
      <trkpt lat="47.96033" lon="-3.82747">
        <ele>116.2</ele>
        <time>2022-12-08T14:33:23Z</time>
      </trkpt>
      <trkpt lat="47.96033" lon="-3.82749">
        <ele>116.3</ele>
        <time>2022-12-08T14:33:24Z</time>
      </trkpt>
      <trkpt lat="47.96033" lon="-3.82754">
        <ele>116.4</ele>
        <time>2022-12-08T14:33:25Z</time>
      </trkpt>
      <trkpt lat="47.96027" lon="-3.82757">
        <ele>116.6</ele>
        <time>2022-12-08T14:33:27Z</time>
      </trkpt>
      <trkpt lat="47.96024" lon="-3.82758">
        <ele>116.7</ele>
        <time>2022-12-08T14:33:28Z</time>
      </trkpt>
      <trkpt lat="47.9602" lon="-3.82762">
        <ele>116.8</ele>
        <time>2022-12-08T14:33:29Z</time>
      </trkpt>
      <trkpt lat="47.96016" lon="-3.82762">
        <ele>116.9</ele>
        <time>2022-12-08T14:33:31Z</time>
      </trkpt>
      <trkpt lat="47.9601" lon="-3.82759">
        <ele>117.2</ele>
        <time>2022-12-08T14:33:32Z</time>
      </trkpt>
      <trkpt lat="47.96004" lon="-3.82758">
        <ele>117.6</ele>
        <time>2022-12-08T14:33:33Z</time>
      </trkpt>
      <trkpt lat="47.96" lon="-3.8276">
        <ele>117.9</ele>
        <time>2022-12-08T14:33:34Z</time>
      </trkpt>
      <trkpt lat="47.95998" lon="-3.82762">
        <ele>118</ele>
        <time>2022-12-08T14:33:35Z</time>
      </trkpt>
      <trkpt lat="47.95994" lon="-3.82764">
        <ele>118.3</ele>
        <time>2022-12-08T14:33:36Z</time>
      </trkpt>
      <trkpt lat="47.9599" lon="-3.82766">
        <ele>118.6</ele>
        <time>2022-12-08T14:33:37Z</time>
      </trkpt>
      <trkpt lat="47.95984" lon="-3.82771">
        <ele>119.2</ele>
        <time>2022-12-08T14:33:39Z</time>
      </trkpt>
      <trkpt lat="47.95981" lon="-3.82774">
        <ele>119.5</ele>
        <time>2022-12-08T14:33:40Z</time>
      </trkpt>
      <trkpt lat="47.95978" lon="-3.82775">
        <ele>119.7</ele>
        <time>2022-12-08T14:33:41Z</time>
      </trkpt>
      <trkpt lat="47.95975" lon="-3.82778">
        <ele>120</ele>
        <time>2022-12-08T14:33:42Z</time>
      </trkpt>
      <trkpt lat="47.95974" lon="-3.82784">
        <ele>120.2</ele>
        <time>2022-12-08T14:33:43Z</time>
      </trkpt>
      <trkpt lat="47.95973" lon="-3.8279">
        <ele>120.4</ele>
        <time>2022-12-08T14:33:44Z</time>
      </trkpt>
      <trkpt lat="47.95972" lon="-3.82795">
        <ele>120.6</ele>
        <time>2022-12-08T14:33:45Z</time>
      </trkpt>
      <trkpt lat="47.95971" lon="-3.82801">
        <ele>120.8</ele>
        <time>2022-12-08T14:33:46Z</time>
      </trkpt>
      <trkpt lat="47.95971" lon="-3.82808">
        <ele>121</ele>
        <time>2022-12-08T14:33:47Z</time>
      </trkpt>
      <trkpt lat="47.95971" lon="-3.82814">
        <ele>121.1</ele>
        <time>2022-12-08T14:33:48Z</time>
      </trkpt>
      <trkpt lat="47.9597" lon="-3.82821">
        <ele>121.3</ele>
        <time>2022-12-08T14:33:49Z</time>
      </trkpt>
      <trkpt lat="47.95969" lon="-3.82827">
        <ele>121.5</ele>
        <time>2022-12-08T14:33:50Z</time>
      </trkpt>
      <trkpt lat="47.9597" lon="-3.82832">
        <ele>121.7</ele>
        <time>2022-12-08T14:33:51Z</time>
      </trkpt>
      <trkpt lat="47.95979" lon="-3.82836">
        <ele>121.8</ele>
        <time>2022-12-08T14:33:53Z</time>
      </trkpt>
      <trkpt lat="47.95984" lon="-3.82838">
        <ele>121.8</ele>
        <time>2022-12-08T14:33:54Z</time>
      </trkpt>
      <trkpt lat="47.95988" lon="-3.82841">
        <ele>121.8</ele>
        <time>2022-12-08T14:33:55Z</time>
      </trkpt>
      <trkpt lat="47.95992" lon="-3.82843">
        <ele>121.8</ele>
        <time>2022-12-08T14:33:56Z</time>
      </trkpt>
      <trkpt lat="47.95996" lon="-3.82846">
        <ele>121.8</ele>
        <time>2022-12-08T14:33:57Z</time>
      </trkpt>
      <trkpt lat="47.96" lon="-3.82848">
        <ele>121.8</ele>
        <time>2022-12-08T14:33:58Z</time>
      </trkpt>
      <trkpt lat="47.96003" lon="-3.82852">
        <ele>121.7</ele>
        <time>2022-12-08T14:33:59Z</time>
      </trkpt>
      <trkpt lat="47.96005" lon="-3.82857">
        <ele>121.7</ele>
        <time>2022-12-08T14:34:00Z</time>
      </trkpt>
      <trkpt lat="47.96006" lon="-3.82863">
        <ele>121.5</ele>
        <time>2022-12-08T14:34:01Z</time>
      </trkpt>
      <trkpt lat="47.96007" lon="-3.82869">
        <ele>121.4</ele>
        <time>2022-12-08T14:34:02Z</time>
      </trkpt>
      <trkpt lat="47.96007" lon="-3.82876">
        <ele>121.2</ele>
        <time>2022-12-08T14:34:03Z</time>
      </trkpt>
      <trkpt lat="47.96008" lon="-3.82883">
        <ele>120.9</ele>
        <time>2022-12-08T14:34:04Z</time>
      </trkpt>
      <trkpt lat="47.96008" lon="-3.82891">
        <ele>120.7</ele>
        <time>2022-12-08T14:34:05Z</time>
      </trkpt>
      <trkpt lat="47.96008" lon="-3.82899">
        <ele>120.4</ele>
        <time>2022-12-08T14:34:06Z</time>
      </trkpt>
      <trkpt lat="47.96008" lon="-3.82906">
        <ele>120.2</ele>
        <time>2022-12-08T14:34:07Z</time>
      </trkpt>
      <trkpt lat="47.96008" lon="-3.82913">
        <ele>120</ele>
        <time>2022-12-08T14:34:08Z</time>
      </trkpt>
      <trkpt lat="47.96008" lon="-3.82918">
        <ele>119.8</ele>
        <time>2022-12-08T14:34:09Z</time>
      </trkpt>
      <trkpt lat="47.96008" lon="-3.82924">
        <ele>119.6</ele>
        <time>2022-12-08T14:34:10Z</time>
      </trkpt>
      <trkpt lat="47.96009" lon="-3.82925">
        <ele>119.6</ele>
        <time>2022-12-08T14:34:11Z</time>
      </trkpt>
      <trkpt lat="47.96011" lon="-3.82928">
        <ele>119.5</ele>
        <time>2022-12-08T14:34:12Z</time>
      </trkpt>
      <trkpt lat="47.96012" lon="-3.8293">
        <ele>119.3</ele>
        <time>2022-12-08T14:34:13Z</time>
      </trkpt>
      <trkpt lat="47.96014" lon="-3.82934">
        <ele>119.2</ele>
        <time>2022-12-08T14:34:14Z</time>
      </trkpt>
      <trkpt lat="47.96016" lon="-3.82939">
        <ele>119.1</ele>
        <time>2022-12-08T14:34:15Z</time>
      </trkpt>
      <trkpt lat="47.96018" lon="-3.82944">
        <ele>119</ele>
        <time>2022-12-08T14:34:16Z</time>
      </trkpt>
      <trkpt lat="47.96019" lon="-3.8295">
        <ele>118.8</ele>
        <time>2022-12-08T14:34:17Z</time>
      </trkpt>
      <trkpt lat="47.96021" lon="-3.82958">
        <ele>118.7</ele>
        <time>2022-12-08T14:34:18Z</time>
      </trkpt>
      <trkpt lat="47.96022" lon="-3.82966">
        <ele>118.5</ele>
        <time>2022-12-08T14:34:19Z</time>
      </trkpt>
      <trkpt lat="47.96022" lon="-3.82974">
        <ele>118.4</ele>
        <time>2022-12-08T14:34:20Z</time>
      </trkpt>
      <trkpt lat="47.96022" lon="-3.82982">
        <ele>118.3</ele>
        <time>2022-12-08T14:34:21Z</time>
      </trkpt>
      <trkpt lat="47.96023" lon="-3.8299">
        <ele>118.2</ele>
        <time>2022-12-08T14:34:22Z</time>
      </trkpt>
      <trkpt lat="47.96023" lon="-3.82999">
        <ele>118.2</ele>
        <time>2022-12-08T14:34:23Z</time>
      </trkpt>
      <trkpt lat="47.96023" lon="-3.83007">
        <ele>118.1</ele>
        <time>2022-12-08T14:34:24Z</time>
      </trkpt>
      <trkpt lat="47.96024" lon="-3.83016">
        <ele>118.1</ele>
        <time>2022-12-08T14:34:25Z</time>
      </trkpt>
      <trkpt lat="47.96024" lon="-3.83024">
        <ele>118</ele>
        <time>2022-12-08T14:34:26Z</time>
      </trkpt>
      <trkpt lat="47.96024" lon="-3.83033">
        <ele>117.9</ele>
        <time>2022-12-08T14:34:27Z</time>
      </trkpt>
      <trkpt lat="47.96025" lon="-3.83041">
        <ele>117.9</ele>
        <time>2022-12-08T14:34:28Z</time>
      </trkpt>
      <trkpt lat="47.96025" lon="-3.8305">
        <ele>117.9</ele>
        <time>2022-12-08T14:34:29Z</time>
      </trkpt>
      <trkpt lat="47.96026" lon="-3.8306">
        <ele>117.9</ele>
        <time>2022-12-08T14:34:30Z</time>
      </trkpt>
      <trkpt lat="47.96026" lon="-3.83069">
        <ele>118</ele>
        <time>2022-12-08T14:34:31Z</time>
      </trkpt>
      <trkpt lat="47.96026" lon="-3.83078">
        <ele>118</ele>
        <time>2022-12-08T14:34:32Z</time>
      </trkpt>
      <trkpt lat="47.96026" lon="-3.83087">
        <ele>118.1</ele>
        <time>2022-12-08T14:34:33Z</time>
      </trkpt>
      <trkpt lat="47.96027" lon="-3.83096">
        <ele>118.2</ele>
        <time>2022-12-08T14:34:34Z</time>
      </trkpt>
      <trkpt lat="47.96027" lon="-3.83105">
        <ele>118.3</ele>
        <time>2022-12-08T14:34:35Z</time>
      </trkpt>
      <trkpt lat="47.96028" lon="-3.83113">
        <ele>118.4</ele>
        <time>2022-12-08T14:34:36Z</time>
      </trkpt>
      <trkpt lat="47.96028" lon="-3.83122">
        <ele>118.5</ele>
        <time>2022-12-08T14:34:37Z</time>
      </trkpt>
      <trkpt lat="47.96029" lon="-3.83131">
        <ele>118.6</ele>
        <time>2022-12-08T14:34:38Z</time>
      </trkpt>
      <trkpt lat="47.96029" lon="-3.83139">
        <ele>118.7</ele>
        <time>2022-12-08T14:34:39Z</time>
      </trkpt>
      <trkpt lat="47.96029" lon="-3.83147">
        <ele>118.8</ele>
        <time>2022-12-08T14:34:40Z</time>
      </trkpt>
      <trkpt lat="47.96031" lon="-3.83156">
        <ele>118.8</ele>
        <time>2022-12-08T14:34:41Z</time>
      </trkpt>
      <trkpt lat="47.96032" lon="-3.83164">
        <ele>118.8</ele>
        <time>2022-12-08T14:34:42Z</time>
      </trkpt>
      <trkpt lat="47.96032" lon="-3.83172">
        <ele>118.8</ele>
        <time>2022-12-08T14:34:43Z</time>
      </trkpt>
      <trkpt lat="47.96033" lon="-3.83181">
        <ele>118.8</ele>
        <time>2022-12-08T14:34:44Z</time>
      </trkpt>
      <trkpt lat="47.96033" lon="-3.83189">
        <ele>118.9</ele>
        <time>2022-12-08T14:34:45Z</time>
      </trkpt>
      <trkpt lat="47.96034" lon="-3.83198">
        <ele>118.9</ele>
        <time>2022-12-08T14:34:46Z</time>
      </trkpt>
      <trkpt lat="47.96034" lon="-3.83206">
        <ele>118.9</ele>
        <time>2022-12-08T14:34:47Z</time>
      </trkpt>
      <trkpt lat="47.96034" lon="-3.83214">
        <ele>118.9</ele>
        <time>2022-12-08T14:34:48Z</time>
      </trkpt>
      <trkpt lat="47.96033" lon="-3.83222">
        <ele>119</ele>
        <time>2022-12-08T14:34:49Z</time>
      </trkpt>
      <trkpt lat="47.9603" lon="-3.8323">
        <ele>119</ele>
        <time>2022-12-08T14:34:50Z</time>
      </trkpt>
      <trkpt lat="47.96026" lon="-3.83236">
        <ele>119.1</ele>
        <time>2022-12-08T14:34:51Z</time>
      </trkpt>
      <trkpt lat="47.96022" lon="-3.83242">
        <ele>119.1</ele>
        <time>2022-12-08T14:34:52Z</time>
      </trkpt>
      <trkpt lat="47.96019" lon="-3.83249">
        <ele>119.1</ele>
        <time>2022-12-08T14:34:53Z</time>
      </trkpt>
      <trkpt lat="47.96015" lon="-3.83255">
        <ele>119.2</ele>
        <time>2022-12-08T14:34:54Z</time>
      </trkpt>
      <trkpt lat="47.96011" lon="-3.83262">
        <ele>119.2</ele>
        <time>2022-12-08T14:34:55Z</time>
      </trkpt>
      <trkpt lat="47.96007" lon="-3.83268">
        <ele>119.2</ele>
        <time>2022-12-08T14:34:56Z</time>
      </trkpt>
      <trkpt lat="47.96003" lon="-3.83274">
        <ele>119.2</ele>
        <time>2022-12-08T14:34:57Z</time>
      </trkpt>
      <trkpt lat="47.95997" lon="-3.83278">
        <ele>119.4</ele>
        <time>2022-12-08T14:34:58Z</time>
      </trkpt>
      <trkpt lat="47.95992" lon="-3.83279">
        <ele>119.4</ele>
        <time>2022-12-08T14:34:59Z</time>
      </trkpt>
      <trkpt lat="47.95986" lon="-3.8328">
        <ele>119.5</ele>
        <time>2022-12-08T14:35:00Z</time>
      </trkpt>
      <trkpt lat="47.95981" lon="-3.8328">
        <ele>119.6</ele>
        <time>2022-12-08T14:35:01Z</time>
      </trkpt>
      <trkpt lat="47.95976" lon="-3.8328">
        <ele>119.7</ele>
        <time>2022-12-08T14:35:02Z</time>
      </trkpt>
      <trkpt lat="47.95971" lon="-3.8328">
        <ele>119.8</ele>
        <time>2022-12-08T14:35:03Z</time>
      </trkpt>
      <trkpt lat="47.95967" lon="-3.83281">
        <ele>119.8</ele>
        <time>2022-12-08T14:35:04Z</time>
      </trkpt>
      <trkpt lat="47.95963" lon="-3.83282">
        <ele>119.9</ele>
        <time>2022-12-08T14:35:05Z</time>
      </trkpt>
      <trkpt lat="47.95959" lon="-3.83284">
        <ele>120</ele>
        <time>2022-12-08T14:35:06Z</time>
      </trkpt>
      <trkpt lat="47.95957" lon="-3.83288">
        <ele>120.2</ele>
        <time>2022-12-08T14:35:07Z</time>
      </trkpt>
      <trkpt lat="47.95955" lon="-3.83293">
        <ele>120.2</ele>
        <time>2022-12-08T14:35:08Z</time>
      </trkpt>
      <trkpt lat="47.95955" lon="-3.833">
        <ele>120.3</ele>
        <time>2022-12-08T14:35:09Z</time>
      </trkpt>
      <trkpt lat="47.95956" lon="-3.83306">
        <ele>120.3</ele>
        <time>2022-12-08T14:35:10Z</time>
      </trkpt>
      <trkpt lat="47.95957" lon="-3.83311">
        <ele>120.3</ele>
        <time>2022-12-08T14:35:11Z</time>
      </trkpt>
      <trkpt lat="47.9596" lon="-3.8332">
        <ele>120.4</ele>
        <time>2022-12-08T14:35:12Z</time>
      </trkpt>
      <trkpt lat="47.95961" lon="-3.83326">
        <ele>120.4</ele>
        <time>2022-12-08T14:35:13Z</time>
      </trkpt>
      <trkpt lat="47.95962" lon="-3.83333">
        <ele>120.5</ele>
        <time>2022-12-08T14:35:14Z</time>
      </trkpt>
      <trkpt lat="47.95963" lon="-3.83341">
        <ele>120.5</ele>
        <time>2022-12-08T14:35:15Z</time>
      </trkpt>
      <trkpt lat="47.95964" lon="-3.83348">
        <ele>120.6</ele>
        <time>2022-12-08T14:35:16Z</time>
      </trkpt>
      <trkpt lat="47.95965" lon="-3.83356">
        <ele>120.7</ele>
        <time>2022-12-08T14:35:17Z</time>
      </trkpt>
      <trkpt lat="47.95965" lon="-3.83363">
        <ele>120.8</ele>
        <time>2022-12-08T14:35:18Z</time>
      </trkpt>
      <trkpt lat="47.95966" lon="-3.83371">
        <ele>120.9</ele>
        <time>2022-12-08T14:35:19Z</time>
      </trkpt>
      <trkpt lat="47.95967" lon="-3.83378">
        <ele>121</ele>
        <time>2022-12-08T14:35:20Z</time>
      </trkpt>
      <trkpt lat="47.95968" lon="-3.83386">
        <ele>121.1</ele>
        <time>2022-12-08T14:35:21Z</time>
      </trkpt>
      <trkpt lat="47.95969" lon="-3.83393">
        <ele>121.2</ele>
        <time>2022-12-08T14:35:22Z</time>
      </trkpt>
      <trkpt lat="47.95969" lon="-3.834">
        <ele>121.3</ele>
        <time>2022-12-08T14:35:23Z</time>
      </trkpt>
      <trkpt lat="47.95971" lon="-3.83407">
        <ele>121.4</ele>
        <time>2022-12-08T14:35:24Z</time>
      </trkpt>
      <trkpt lat="47.95972" lon="-3.83414">
        <ele>121.5</ele>
        <time>2022-12-08T14:35:25Z</time>
      </trkpt>
      <trkpt lat="47.95972" lon="-3.83421">
        <ele>121.6</ele>
        <time>2022-12-08T14:35:26Z</time>
      </trkpt>
      <trkpt lat="47.95973" lon="-3.83428">
        <ele>121.7</ele>
        <time>2022-12-08T14:35:27Z</time>
      </trkpt>
      <trkpt lat="47.95974" lon="-3.83435">
        <ele>121.8</ele>
        <time>2022-12-08T14:35:28Z</time>
      </trkpt>
      <trkpt lat="47.95975" lon="-3.83442">
        <ele>121.9</ele>
        <time>2022-12-08T14:35:29Z</time>
      </trkpt>
      <trkpt lat="47.95976" lon="-3.83449">
        <ele>122</ele>
        <time>2022-12-08T14:35:30Z</time>
      </trkpt>
      <trkpt lat="47.95977" lon="-3.83456">
        <ele>122.1</ele>
        <time>2022-12-08T14:35:31Z</time>
      </trkpt>
      <trkpt lat="47.95979" lon="-3.83471">
        <ele>122.3</ele>
        <time>2022-12-08T14:35:33Z</time>
      </trkpt>
      <trkpt lat="47.95981" lon="-3.83478">
        <ele>122.4</ele>
        <time>2022-12-08T14:35:34Z</time>
      </trkpt>
      <trkpt lat="47.95983" lon="-3.83485">
        <ele>122.5</ele>
        <time>2022-12-08T14:35:35Z</time>
      </trkpt>
      <trkpt lat="47.95984" lon="-3.83493">
        <ele>122.6</ele>
        <time>2022-12-08T14:35:36Z</time>
      </trkpt>
      <trkpt lat="47.95985" lon="-3.835">
        <ele>122.6</ele>
        <time>2022-12-08T14:35:37Z</time>
      </trkpt>
      <trkpt lat="47.95985" lon="-3.83507">
        <ele>122.7</ele>
        <time>2022-12-08T14:35:38Z</time>
      </trkpt>
      <trkpt lat="47.95986" lon="-3.83514">
        <ele>122.8</ele>
        <time>2022-12-08T14:35:39Z</time>
      </trkpt>
      <trkpt lat="47.95987" lon="-3.83521">
        <ele>122.8</ele>
        <time>2022-12-08T14:35:40Z</time>
      </trkpt>
      <trkpt lat="47.95987" lon="-3.83528">
        <ele>122.9</ele>
        <time>2022-12-08T14:35:41Z</time>
      </trkpt>
      <trkpt lat="47.95984" lon="-3.83534">
        <ele>123.5</ele>
        <time>2022-12-08T14:35:42Z</time>
      </trkpt>
      <trkpt lat="47.95979" lon="-3.83536">
        <ele>124</ele>
        <time>2022-12-08T14:35:43Z</time>
      </trkpt>
      <trkpt lat="47.95976" lon="-3.83537">
        <ele>124.4</ele>
        <time>2022-12-08T14:35:44Z</time>
      </trkpt>
      <trkpt lat="47.95972" lon="-3.83536">
        <ele>124.8</ele>
        <time>2022-12-08T14:35:45Z</time>
      </trkpt>
      <trkpt lat="47.95969" lon="-3.83537">
        <ele>125.2</ele>
        <time>2022-12-08T14:35:46Z</time>
      </trkpt>
      <trkpt lat="47.95967" lon="-3.83537">
        <ele>125.3</ele>
        <time>2022-12-08T14:35:47Z</time>
      </trkpt>
      <trkpt lat="47.95965" lon="-3.83538">
        <ele>125.6</ele>
        <time>2022-12-08T14:35:48Z</time>
      </trkpt>
      <trkpt lat="47.95961" lon="-3.8354">
        <ele>126</ele>
        <time>2022-12-08T14:35:49Z</time>
      </trkpt>
      <trkpt lat="47.9596" lon="-3.8354">
        <ele>126.2</ele>
        <time>2022-12-08T14:35:50Z</time>
      </trkpt>
      <trkpt lat="47.95957" lon="-3.83541">
        <ele>126.5</ele>
        <time>2022-12-08T14:35:51Z</time>
      </trkpt>
      <trkpt lat="47.95954" lon="-3.83542">
        <ele>126.8</ele>
        <time>2022-12-08T14:35:52Z</time>
      </trkpt>
      <trkpt lat="47.95953" lon="-3.83542">
        <ele>126.9</ele>
        <time>2022-12-08T14:35:53Z</time>
      </trkpt>
      <trkpt lat="47.95949" lon="-3.83543">
        <ele>127.3</ele>
        <time>2022-12-08T14:35:54Z</time>
      </trkpt>
      <trkpt lat="47.95948" lon="-3.83543">
        <ele>127.4</ele>
        <time>2022-12-08T14:35:55Z</time>
      </trkpt>
      <trkpt lat="47.95944" lon="-3.83543">
        <ele>127.9</ele>
        <time>2022-12-08T14:35:56Z</time>
      </trkpt>
      <trkpt lat="47.95943" lon="-3.83544">
        <ele>128</ele>
        <time>2022-12-08T14:35:57Z</time>
      </trkpt>
      <trkpt lat="47.9594" lon="-3.83544">
        <ele>128.4</ele>
        <time>2022-12-08T14:35:58Z</time>
      </trkpt>
      <trkpt lat="47.95938" lon="-3.83543">
        <ele>128.6</ele>
        <time>2022-12-08T14:35:59Z</time>
      </trkpt>
      <trkpt lat="47.95934" lon="-3.83543">
        <ele>129.1</ele>
        <time>2022-12-08T14:36:01Z</time>
      </trkpt>
      <trkpt lat="47.95931" lon="-3.83545">
        <ele>129.6</ele>
        <time>2022-12-08T14:36:02Z</time>
      </trkpt>
      <trkpt lat="47.9593" lon="-3.83545">
        <ele>129.7</ele>
        <time>2022-12-08T14:36:03Z</time>
      </trkpt>
      <trkpt lat="47.95926" lon="-3.83545">
        <ele>130.3</ele>
        <time>2022-12-08T14:36:04Z</time>
      </trkpt>
      <trkpt lat="47.95925" lon="-3.83545">
        <ele>130.4</ele>
        <time>2022-12-08T14:36:05Z</time>
      </trkpt>
      <trkpt lat="47.95921" lon="-3.83545">
        <ele>130.9</ele>
        <time>2022-12-08T14:36:06Z</time>
      </trkpt>
      <trkpt lat="47.9592" lon="-3.83546">
        <ele>131.1</ele>
        <time>2022-12-08T14:36:07Z</time>
      </trkpt>
      <trkpt lat="47.95917" lon="-3.83547">
        <ele>131.6</ele>
        <time>2022-12-08T14:36:08Z</time>
      </trkpt>
      <trkpt lat="47.95916" lon="-3.83547">
        <ele>131.8</ele>
        <time>2022-12-08T14:36:09Z</time>
      </trkpt>
      <trkpt lat="47.95913" lon="-3.83547">
        <ele>132.2</ele>
        <time>2022-12-08T14:36:10Z</time>
      </trkpt>
      <trkpt lat="47.95912" lon="-3.83548">
        <ele>132.3</ele>
        <time>2022-12-08T14:36:11Z</time>
      </trkpt>
      <trkpt lat="47.95909" lon="-3.83548">
        <ele>132.7</ele>
        <time>2022-12-08T14:36:13Z</time>
      </trkpt>
      <trkpt lat="47.95906" lon="-3.8355">
        <ele>133.2</ele>
        <time>2022-12-08T14:36:14Z</time>
      </trkpt>
      <trkpt lat="47.95903" lon="-3.83551">
        <ele>133.6</ele>
        <time>2022-12-08T14:36:16Z</time>
      </trkpt>
      <trkpt lat="47.959" lon="-3.83555">
        <ele>134.7</ele>
        <time>2022-12-08T14:36:17Z</time>
      </trkpt>
      <trkpt lat="47.95899" lon="-3.83559">
        <ele>134.8</ele>
        <time>2022-12-08T14:36:18Z</time>
      </trkpt>
      <trkpt lat="47.95898" lon="-3.83561">
        <ele>134.8</ele>
        <time>2022-12-08T14:36:19Z</time>
      </trkpt>
      <trkpt lat="47.95899" lon="-3.83566">
        <ele>134.9</ele>
        <time>2022-12-08T14:36:20Z</time>
      </trkpt>
      <trkpt lat="47.95898" lon="-3.83572">
        <ele>135</ele>
        <time>2022-12-08T14:36:21Z</time>
      </trkpt>
      <trkpt lat="47.95898" lon="-3.83574">
        <ele>135</ele>
        <time>2022-12-08T14:36:22Z</time>
      </trkpt>
      <trkpt lat="47.95897" lon="-3.83579">
        <ele>135.1</ele>
        <time>2022-12-08T14:36:23Z</time>
      </trkpt>
      <trkpt lat="47.95897" lon="-3.83584">
        <ele>135.2</ele>
        <time>2022-12-08T14:36:24Z</time>
      </trkpt>
      <trkpt lat="47.95897" lon="-3.83589">
        <ele>135.3</ele>
        <time>2022-12-08T14:36:25Z</time>
      </trkpt>
      <trkpt lat="47.95897" lon="-3.83591">
        <ele>135.3</ele>
        <time>2022-12-08T14:36:26Z</time>
      </trkpt>
      <trkpt lat="47.95897" lon="-3.83596">
        <ele>135.4</ele>
        <time>2022-12-08T14:36:27Z</time>
      </trkpt>
      <trkpt lat="47.95897" lon="-3.83601">
        <ele>135.5</ele>
        <time>2022-12-08T14:36:28Z</time>
      </trkpt>
      <trkpt lat="47.95897" lon="-3.83606">
        <ele>135.6</ele>
        <time>2022-12-08T14:36:29Z</time>
      </trkpt>
      <trkpt lat="47.95897" lon="-3.83612">
        <ele>135.6</ele>
        <time>2022-12-08T14:36:30Z</time>
      </trkpt>
      <trkpt lat="47.95897" lon="-3.83618">
        <ele>135.7</ele>
        <time>2022-12-08T14:36:31Z</time>
      </trkpt>
      <trkpt lat="47.95897" lon="-3.83623">
        <ele>135.8</ele>
        <time>2022-12-08T14:36:32Z</time>
      </trkpt>
      <trkpt lat="47.95897" lon="-3.83629">
        <ele>135.9</ele>
        <time>2022-12-08T14:36:33Z</time>
      </trkpt>
      <trkpt lat="47.95897" lon="-3.83635">
        <ele>136</ele>
        <time>2022-12-08T14:36:34Z</time>
      </trkpt>
      <trkpt lat="47.95897" lon="-3.8364">
        <ele>136</ele>
        <time>2022-12-08T14:36:35Z</time>
      </trkpt>
      <trkpt lat="47.95898" lon="-3.83646">
        <ele>136.1</ele>
        <time>2022-12-08T14:36:36Z</time>
      </trkpt>
      <trkpt lat="47.95898" lon="-3.83652">
        <ele>136.1</ele>
        <time>2022-12-08T14:36:37Z</time>
      </trkpt>
      <trkpt lat="47.95898" lon="-3.83659">
        <ele>136.2</ele>
        <time>2022-12-08T14:36:38Z</time>
      </trkpt>
      <trkpt lat="47.959" lon="-3.83671">
        <ele>136.2</ele>
        <time>2022-12-08T14:36:40Z</time>
      </trkpt>
      <trkpt lat="47.95901" lon="-3.83677">
        <ele>136.3</ele>
        <time>2022-12-08T14:36:41Z</time>
      </trkpt>
      <trkpt lat="47.95902" lon="-3.83683">
        <ele>136.3</ele>
        <time>2022-12-08T14:36:42Z</time>
      </trkpt>
      <trkpt lat="47.95904" lon="-3.83689">
        <ele>136.4</ele>
        <time>2022-12-08T14:36:43Z</time>
      </trkpt>
      <trkpt lat="47.95905" lon="-3.83696">
        <ele>136.4</ele>
        <time>2022-12-08T14:36:44Z</time>
      </trkpt>
      <trkpt lat="47.95907" lon="-3.83702">
        <ele>136.5</ele>
        <time>2022-12-08T14:36:45Z</time>
      </trkpt>
      <trkpt lat="47.95908" lon="-3.83708">
        <ele>136.6</ele>
        <time>2022-12-08T14:36:46Z</time>
      </trkpt>
      <trkpt lat="47.9591" lon="-3.83714">
        <ele>136.7</ele>
        <time>2022-12-08T14:36:47Z</time>
      </trkpt>
      <trkpt lat="47.95911" lon="-3.83721">
        <ele>136.8</ele>
        <time>2022-12-08T14:36:48Z</time>
      </trkpt>
      <trkpt lat="47.95912" lon="-3.83727">
        <ele>136.8</ele>
        <time>2022-12-08T14:36:49Z</time>
      </trkpt>
      <trkpt lat="47.95913" lon="-3.83733">
        <ele>136.9</ele>
        <time>2022-12-08T14:36:50Z</time>
      </trkpt>
      <trkpt lat="47.95914" lon="-3.83739">
        <ele>137</ele>
        <time>2022-12-08T14:36:51Z</time>
      </trkpt>
      <trkpt lat="47.95915" lon="-3.83745">
        <ele>137.1</ele>
        <time>2022-12-08T14:36:52Z</time>
      </trkpt>
      <trkpt lat="47.95916" lon="-3.83751">
        <ele>137.1</ele>
        <time>2022-12-08T14:36:53Z</time>
      </trkpt>
      <trkpt lat="47.95917" lon="-3.83757">
        <ele>137.3</ele>
        <time>2022-12-08T14:36:54Z</time>
      </trkpt>
      <trkpt lat="47.95918" lon="-3.83763">
        <ele>137.4</ele>
        <time>2022-12-08T14:36:55Z</time>
      </trkpt>
      <trkpt lat="47.95919" lon="-3.83769">
        <ele>137.5</ele>
        <time>2022-12-08T14:36:56Z</time>
      </trkpt>
      <trkpt lat="47.9592" lon="-3.83775">
        <ele>137.7</ele>
        <time>2022-12-08T14:36:57Z</time>
      </trkpt>
      <trkpt lat="47.95921" lon="-3.83781">
        <ele>137.8</ele>
        <time>2022-12-08T14:36:58Z</time>
      </trkpt>
      <trkpt lat="47.95922" lon="-3.83787">
        <ele>138</ele>
        <time>2022-12-08T14:36:59Z</time>
      </trkpt>
      <trkpt lat="47.95922" lon="-3.83794">
        <ele>138.2</ele>
        <time>2022-12-08T14:37:00Z</time>
      </trkpt>
      <trkpt lat="47.95923" lon="-3.83797">
        <ele>138.3</ele>
        <time>2022-12-08T14:37:01Z</time>
      </trkpt>
      <trkpt lat="47.95923" lon="-3.83804">
        <ele>138.5</ele>
        <time>2022-12-08T14:37:02Z</time>
      </trkpt>
      <trkpt lat="47.95924" lon="-3.8381">
        <ele>138.7</ele>
        <time>2022-12-08T14:37:03Z</time>
      </trkpt>
      <trkpt lat="47.95924" lon="-3.83816">
        <ele>138.8</ele>
        <time>2022-12-08T14:37:04Z</time>
      </trkpt>
      <trkpt lat="47.95924" lon="-3.83822">
        <ele>139</ele>
        <time>2022-12-08T14:37:05Z</time>
      </trkpt>
      <trkpt lat="47.95925" lon="-3.83828">
        <ele>139.2</ele>
        <time>2022-12-08T14:37:06Z</time>
      </trkpt>
      <trkpt lat="47.95925" lon="-3.83834">
        <ele>139.4</ele>
        <time>2022-12-08T14:37:07Z</time>
      </trkpt>
      <trkpt lat="47.95925" lon="-3.8384">
        <ele>139.5</ele>
        <time>2022-12-08T14:37:08Z</time>
      </trkpt>
      <trkpt lat="47.95925" lon="-3.83846">
        <ele>139.7</ele>
        <time>2022-12-08T14:37:09Z</time>
      </trkpt>
      <trkpt lat="47.95925" lon="-3.83852">
        <ele>139.9</ele>
        <time>2022-12-08T14:37:10Z</time>
      </trkpt>
      <trkpt lat="47.95924" lon="-3.83858">
        <ele>140</ele>
        <time>2022-12-08T14:37:11Z</time>
      </trkpt>
      <trkpt lat="47.95923" lon="-3.83864">
        <ele>140.2</ele>
        <time>2022-12-08T14:37:12Z</time>
      </trkpt>
      <trkpt lat="47.95923" lon="-3.8387">
        <ele>140.4</ele>
        <time>2022-12-08T14:37:13Z</time>
      </trkpt>
      <trkpt lat="47.95922" lon="-3.83877">
        <ele>140.6</ele>
        <time>2022-12-08T14:37:14Z</time>
      </trkpt>
      <trkpt lat="47.95922" lon="-3.83883">
        <ele>140.7</ele>
        <time>2022-12-08T14:37:15Z</time>
      </trkpt>
      <trkpt lat="47.95923" lon="-3.83889">
        <ele>140.9</ele>
        <time>2022-12-08T14:37:16Z</time>
      </trkpt>
      <trkpt lat="47.95922" lon="-3.83895">
        <ele>141.1</ele>
        <time>2022-12-08T14:37:17Z</time>
      </trkpt>
      <trkpt lat="47.95921" lon="-3.83902">
        <ele>141.3</ele>
        <time>2022-12-08T14:37:18Z</time>
      </trkpt>
      <trkpt lat="47.95921" lon="-3.83908">
        <ele>141.4</ele>
        <time>2022-12-08T14:37:19Z</time>
      </trkpt>
      <trkpt lat="47.9592" lon="-3.83913">
        <ele>141.6</ele>
        <time>2022-12-08T14:37:20Z</time>
      </trkpt>
      <trkpt lat="47.9592" lon="-3.83919">
        <ele>141.8</ele>
        <time>2022-12-08T14:37:21Z</time>
      </trkpt>
      <trkpt lat="47.95919" lon="-3.83925">
        <ele>141.9</ele>
        <time>2022-12-08T14:37:22Z</time>
      </trkpt>
      <trkpt lat="47.95918" lon="-3.8393">
        <ele>142.1</ele>
        <time>2022-12-08T14:37:23Z</time>
      </trkpt>
      <trkpt lat="47.95918" lon="-3.83934">
        <ele>142.2</ele>
        <time>2022-12-08T14:37:24Z</time>
      </trkpt>
      <trkpt lat="47.95918" lon="-3.8394">
        <ele>142.4</ele>
        <time>2022-12-08T14:37:25Z</time>
      </trkpt>
      <trkpt lat="47.95917" lon="-3.83946">
        <ele>142.6</ele>
        <time>2022-12-08T14:37:26Z</time>
      </trkpt>
      <trkpt lat="47.95917" lon="-3.83952">
        <ele>142.7</ele>
        <time>2022-12-08T14:37:27Z</time>
      </trkpt>
      <trkpt lat="47.95916" lon="-3.83957">
        <ele>142.9</ele>
        <time>2022-12-08T14:37:28Z</time>
      </trkpt>
      <trkpt lat="47.95916" lon="-3.83962">
        <ele>143</ele>
        <time>2022-12-08T14:37:29Z</time>
      </trkpt>
      <trkpt lat="47.95915" lon="-3.83968">
        <ele>143.2</ele>
        <time>2022-12-08T14:37:30Z</time>
      </trkpt>
      <trkpt lat="47.95915" lon="-3.83973">
        <ele>143.3</ele>
        <time>2022-12-08T14:37:31Z</time>
      </trkpt>
      <trkpt lat="47.95914" lon="-3.83978">
        <ele>143.4</ele>
        <time>2022-12-08T14:37:32Z</time>
      </trkpt>
      <trkpt lat="47.95914" lon="-3.83988">
        <ele>143.5</ele>
        <time>2022-12-08T14:37:34Z</time>
      </trkpt>
      <trkpt lat="47.95913" lon="-3.83994">
        <ele>143.6</ele>
        <time>2022-12-08T14:37:35Z</time>
      </trkpt>
      <trkpt lat="47.95913" lon="-3.84001">
        <ele>143.7</ele>
        <time>2022-12-08T14:37:36Z</time>
      </trkpt>
      <trkpt lat="47.95912" lon="-3.84007">
        <ele>143.7</ele>
        <time>2022-12-08T14:37:37Z</time>
      </trkpt>
      <trkpt lat="47.95912" lon="-3.84013">
        <ele>143.7</ele>
        <time>2022-12-08T14:37:38Z</time>
      </trkpt>
      <trkpt lat="47.95911" lon="-3.84019">
        <ele>143.7</ele>
        <time>2022-12-08T14:37:39Z</time>
      </trkpt>
      <trkpt lat="47.9591" lon="-3.84026">
        <ele>143.8</ele>
        <time>2022-12-08T14:37:40Z</time>
      </trkpt>
      <trkpt lat="47.9591" lon="-3.84032">
        <ele>143.8</ele>
        <time>2022-12-08T14:37:41Z</time>
      </trkpt>
      <trkpt lat="47.9591" lon="-3.84037">
        <ele>143.7</ele>
        <time>2022-12-08T14:37:42Z</time>
      </trkpt>
      <trkpt lat="47.9591" lon="-3.84044">
        <ele>143.7</ele>
        <time>2022-12-08T14:37:43Z</time>
      </trkpt>
      <trkpt lat="47.9591" lon="-3.84051">
        <ele>143.6</ele>
        <time>2022-12-08T14:37:44Z</time>
      </trkpt>
      <trkpt lat="47.95905" lon="-3.84061">
        <ele>143.7</ele>
        <time>2022-12-08T14:37:46Z</time>
      </trkpt>
      <trkpt lat="47.95902" lon="-3.84063">
        <ele>143.8</ele>
        <time>2022-12-08T14:37:47Z</time>
      </trkpt>
      <trkpt lat="47.95894" lon="-3.84068">
        <ele>144.1</ele>
        <time>2022-12-08T14:37:49Z</time>
      </trkpt>
      <trkpt lat="47.95887" lon="-3.84074">
        <ele>144.3</ele>
        <time>2022-12-08T14:37:51Z</time>
      </trkpt>
      <trkpt lat="47.95883" lon="-3.84077">
        <ele>144.4</ele>
        <time>2022-12-08T14:37:52Z</time>
      </trkpt>
      <trkpt lat="47.95879" lon="-3.84081">
        <ele>144.5</ele>
        <time>2022-12-08T14:37:53Z</time>
      </trkpt>
      <trkpt lat="47.95875" lon="-3.84085">
        <ele>144.7</ele>
        <time>2022-12-08T14:37:54Z</time>
      </trkpt>
      <trkpt lat="47.9587" lon="-3.84088">
        <ele>144.7</ele>
        <time>2022-12-08T14:37:55Z</time>
      </trkpt>
      <trkpt lat="47.95866" lon="-3.84091">
        <ele>144.8</ele>
        <time>2022-12-08T14:37:56Z</time>
      </trkpt>
      <trkpt lat="47.95862" lon="-3.84095">
        <ele>144.8</ele>
        <time>2022-12-08T14:37:57Z</time>
      </trkpt>
      <trkpt lat="47.95858" lon="-3.84098">
        <ele>144.8</ele>
        <time>2022-12-08T14:37:58Z</time>
      </trkpt>
      <trkpt lat="47.95855" lon="-3.84102">
        <ele>144.9</ele>
        <time>2022-12-08T14:37:59Z</time>
      </trkpt>
      <trkpt lat="47.95851" lon="-3.84107">
        <ele>144.9</ele>
        <time>2022-12-08T14:38:00Z</time>
      </trkpt>
      <trkpt lat="47.95847" lon="-3.84111">
        <ele>144.9</ele>
        <time>2022-12-08T14:38:01Z</time>
      </trkpt>
      <trkpt lat="47.95843" lon="-3.84116">
        <ele>144.9</ele>
        <time>2022-12-08T14:38:02Z</time>
      </trkpt>
      <trkpt lat="47.95839" lon="-3.84121">
        <ele>144.9</ele>
        <time>2022-12-08T14:38:03Z</time>
      </trkpt>
      <trkpt lat="47.95836" lon="-3.84128">
        <ele>144.9</ele>
        <time>2022-12-08T14:38:04Z</time>
      </trkpt>
      <trkpt lat="47.95832" lon="-3.84134">
        <ele>144.9</ele>
        <time>2022-12-08T14:38:05Z</time>
      </trkpt>
      <trkpt lat="47.95829" lon="-3.84141">
        <ele>144.8</ele>
        <time>2022-12-08T14:38:06Z</time>
      </trkpt>
      <trkpt lat="47.95826" lon="-3.84148">
        <ele>144.8</ele>
        <time>2022-12-08T14:38:07Z</time>
      </trkpt>
      <trkpt lat="47.95823" lon="-3.84156">
        <ele>144.8</ele>
        <time>2022-12-08T14:38:08Z</time>
      </trkpt>
      <trkpt lat="47.95821" lon="-3.84163">
        <ele>144.8</ele>
        <time>2022-12-08T14:38:09Z</time>
      </trkpt>
      <trkpt lat="47.95819" lon="-3.84171">
        <ele>144.8</ele>
        <time>2022-12-08T14:38:10Z</time>
      </trkpt>
      <trkpt lat="47.95817" lon="-3.8418">
        <ele>144.8</ele>
        <time>2022-12-08T14:38:11Z</time>
      </trkpt>
      <trkpt lat="47.95816" lon="-3.84189">
        <ele>144.7</ele>
        <time>2022-12-08T14:38:12Z</time>
      </trkpt>
      <trkpt lat="47.95815" lon="-3.84197">
        <ele>144.7</ele>
        <time>2022-12-08T14:38:13Z</time>
      </trkpt>
      <trkpt lat="47.95815" lon="-3.84207">
        <ele>144.7</ele>
        <time>2022-12-08T14:38:14Z</time>
      </trkpt>
      <trkpt lat="47.95815" lon="-3.84216">
        <ele>144.7</ele>
        <time>2022-12-08T14:38:15Z</time>
      </trkpt>
      <trkpt lat="47.95815" lon="-3.84224">
        <ele>144.7</ele>
        <time>2022-12-08T14:38:16Z</time>
      </trkpt>
      <trkpt lat="47.95815" lon="-3.84233">
        <ele>144.6</ele>
        <time>2022-12-08T14:38:17Z</time>
      </trkpt>
      <trkpt lat="47.95816" lon="-3.8425">
        <ele>144.6</ele>
        <time>2022-12-08T14:38:19Z</time>
      </trkpt>
      <trkpt lat="47.95816" lon="-3.84259">
        <ele>144.6</ele>
        <time>2022-12-08T14:38:20Z</time>
      </trkpt>
      <trkpt lat="47.95816" lon="-3.84267">
        <ele>144.6</ele>
        <time>2022-12-08T14:38:21Z</time>
      </trkpt>
      <trkpt lat="47.95816" lon="-3.84275">
        <ele>144.6</ele>
        <time>2022-12-08T14:38:22Z</time>
      </trkpt>
      <trkpt lat="47.95817" lon="-3.84282">
        <ele>144.6</ele>
        <time>2022-12-08T14:38:23Z</time>
      </trkpt>
      <trkpt lat="47.95818" lon="-3.8429">
        <ele>144.6</ele>
        <time>2022-12-08T14:38:24Z</time>
      </trkpt>
      <trkpt lat="47.95818" lon="-3.84297">
        <ele>144.5</ele>
        <time>2022-12-08T14:38:25Z</time>
      </trkpt>
      <trkpt lat="47.95819" lon="-3.84304">
        <ele>144.5</ele>
        <time>2022-12-08T14:38:26Z</time>
      </trkpt>
      <trkpt lat="47.95819" lon="-3.84311">
        <ele>144.5</ele>
        <time>2022-12-08T14:38:27Z</time>
      </trkpt>
      <trkpt lat="47.9582" lon="-3.84318">
        <ele>144.5</ele>
        <time>2022-12-08T14:38:28Z</time>
      </trkpt>
      <trkpt lat="47.9582" lon="-3.84325">
        <ele>144.5</ele>
        <time>2022-12-08T14:38:29Z</time>
      </trkpt>
      <trkpt lat="47.9582" lon="-3.84332">
        <ele>144.5</ele>
        <time>2022-12-08T14:38:30Z</time>
      </trkpt>
      <trkpt lat="47.9582" lon="-3.84339">
        <ele>144.4</ele>
        <time>2022-12-08T14:38:31Z</time>
      </trkpt>
      <trkpt lat="47.9582" lon="-3.84347">
        <ele>144.4</ele>
        <time>2022-12-08T14:38:32Z</time>
      </trkpt>
      <trkpt lat="47.95821" lon="-3.84355">
        <ele>144.4</ele>
        <time>2022-12-08T14:38:33Z</time>
      </trkpt>
      <trkpt lat="47.95821" lon="-3.84363">
        <ele>144.4</ele>
        <time>2022-12-08T14:38:34Z</time>
      </trkpt>
      <trkpt lat="47.95821" lon="-3.84371">
        <ele>144.4</ele>
        <time>2022-12-08T14:38:35Z</time>
      </trkpt>
      <trkpt lat="47.95822" lon="-3.84379">
        <ele>144.4</ele>
        <time>2022-12-08T14:38:36Z</time>
      </trkpt>
      <trkpt lat="47.95822" lon="-3.84388">
        <ele>144.4</ele>
        <time>2022-12-08T14:38:37Z</time>
      </trkpt>
      <trkpt lat="47.95822" lon="-3.84396">
        <ele>144.4</ele>
        <time>2022-12-08T14:38:38Z</time>
      </trkpt>
      <trkpt lat="47.95823" lon="-3.84404">
        <ele>144.5</ele>
        <time>2022-12-08T14:38:39Z</time>
      </trkpt>
      <trkpt lat="47.95822" lon="-3.84412">
        <ele>144.5</ele>
        <time>2022-12-08T14:38:40Z</time>
      </trkpt>
      <trkpt lat="47.95823" lon="-3.84429">
        <ele>144.5</ele>
        <time>2022-12-08T14:38:42Z</time>
      </trkpt>
      <trkpt lat="47.95823" lon="-3.84438">
        <ele>144.5</ele>
        <time>2022-12-08T14:38:43Z</time>
      </trkpt>
      <trkpt lat="47.95823" lon="-3.84446">
        <ele>144.6</ele>
        <time>2022-12-08T14:38:44Z</time>
      </trkpt>
      <trkpt lat="47.95824" lon="-3.84455">
        <ele>144.6</ele>
        <time>2022-12-08T14:38:45Z</time>
      </trkpt>
      <trkpt lat="47.95824" lon="-3.84463">
        <ele>144.6</ele>
        <time>2022-12-08T14:38:46Z</time>
      </trkpt>
      <trkpt lat="47.95825" lon="-3.8448">
        <ele>144.6</ele>
        <time>2022-12-08T14:38:48Z</time>
      </trkpt>
      <trkpt lat="47.95825" lon="-3.84489">
        <ele>144.6</ele>
        <time>2022-12-08T14:38:49Z</time>
      </trkpt>
      <trkpt lat="47.95825" lon="-3.84497">
        <ele>144.6</ele>
        <time>2022-12-08T14:38:50Z</time>
      </trkpt>
      <trkpt lat="47.95825" lon="-3.84506">
        <ele>144.6</ele>
        <time>2022-12-08T14:38:51Z</time>
      </trkpt>
      <trkpt lat="47.95825" lon="-3.84514">
        <ele>144.6</ele>
        <time>2022-12-08T14:38:52Z</time>
      </trkpt>
      <trkpt lat="47.95825" lon="-3.84522">
        <ele>144.6</ele>
        <time>2022-12-08T14:38:53Z</time>
      </trkpt>
      <trkpt lat="47.95825" lon="-3.8453">
        <ele>144.6</ele>
        <time>2022-12-08T14:38:54Z</time>
      </trkpt>
      <trkpt lat="47.95825" lon="-3.84537">
        <ele>144.7</ele>
        <time>2022-12-08T14:38:55Z</time>
      </trkpt>
      <trkpt lat="47.95824" lon="-3.84543">
        <ele>144.7</ele>
        <time>2022-12-08T14:38:56Z</time>
      </trkpt>
      <trkpt lat="47.95824" lon="-3.84549">
        <ele>144.7</ele>
        <time>2022-12-08T14:38:57Z</time>
      </trkpt>
      <trkpt lat="47.95821" lon="-3.84553">
        <ele>144.5</ele>
        <time>2022-12-08T14:38:58Z</time>
      </trkpt>
      <trkpt lat="47.95816" lon="-3.84555">
        <ele>144.3</ele>
        <time>2022-12-08T14:38:59Z</time>
      </trkpt>
      <trkpt lat="47.95812" lon="-3.84553">
        <ele>144.2</ele>
        <time>2022-12-08T14:39:00Z</time>
      </trkpt>
      <trkpt lat="47.95806" lon="-3.8455">
        <ele>144</ele>
        <time>2022-12-08T14:39:01Z</time>
      </trkpt>
      <trkpt lat="47.958" lon="-3.84547">
        <ele>143.8</ele>
        <time>2022-12-08T14:39:02Z</time>
      </trkpt>
      <trkpt lat="47.95795" lon="-3.84543">
        <ele>143.6</ele>
        <time>2022-12-08T14:39:03Z</time>
      </trkpt>
      <trkpt lat="47.95789" lon="-3.84539">
        <ele>143.5</ele>
        <time>2022-12-08T14:39:04Z</time>
      </trkpt>
      <trkpt lat="47.95783" lon="-3.84538">
        <ele>143.4</ele>
        <time>2022-12-08T14:39:05Z</time>
      </trkpt>
      <trkpt lat="47.95777" lon="-3.84542">
        <ele>143.3</ele>
        <time>2022-12-08T14:39:06Z</time>
      </trkpt>
      <trkpt lat="47.95772" lon="-3.84549">
        <ele>143.3</ele>
        <time>2022-12-08T14:39:07Z</time>
      </trkpt>
      <trkpt lat="47.95768" lon="-3.84556">
        <ele>143.3</ele>
        <time>2022-12-08T14:39:08Z</time>
      </trkpt>
      <trkpt lat="47.95765" lon="-3.84563">
        <ele>143.2</ele>
        <time>2022-12-08T14:39:09Z</time>
      </trkpt>
      <trkpt lat="47.95763" lon="-3.84571">
        <ele>143.1</ele>
        <time>2022-12-08T14:39:10Z</time>
      </trkpt>
      <trkpt lat="47.95761" lon="-3.84579">
        <ele>143</ele>
        <time>2022-12-08T14:39:11Z</time>
      </trkpt>
      <trkpt lat="47.95759" lon="-3.84587">
        <ele>142.9</ele>
        <time>2022-12-08T14:39:12Z</time>
      </trkpt>
      <trkpt lat="47.95756" lon="-3.84596">
        <ele>142.8</ele>
        <time>2022-12-08T14:39:13Z</time>
      </trkpt>
      <trkpt lat="47.95754" lon="-3.84605">
        <ele>142.6</ele>
        <time>2022-12-08T14:39:14Z</time>
      </trkpt>
      <trkpt lat="47.95752" lon="-3.84615">
        <ele>142.5</ele>
        <time>2022-12-08T14:39:15Z</time>
      </trkpt>
      <trkpt lat="47.9575" lon="-3.84624">
        <ele>142.3</ele>
        <time>2022-12-08T14:39:16Z</time>
      </trkpt>
      <trkpt lat="47.95747" lon="-3.84634">
        <ele>142.1</ele>
        <time>2022-12-08T14:39:17Z</time>
      </trkpt>
      <trkpt lat="47.95745" lon="-3.84644">
        <ele>141.9</ele>
        <time>2022-12-08T14:39:18Z</time>
      </trkpt>
      <trkpt lat="47.95743" lon="-3.84654">
        <ele>141.7</ele>
        <time>2022-12-08T14:39:19Z</time>
      </trkpt>
      <trkpt lat="47.9574" lon="-3.84664">
        <ele>141.6</ele>
        <time>2022-12-08T14:39:20Z</time>
      </trkpt>
      <trkpt lat="47.95738" lon="-3.84674">
        <ele>141.4</ele>
        <time>2022-12-08T14:39:21Z</time>
      </trkpt>
      <trkpt lat="47.95735" lon="-3.84684">
        <ele>141.3</ele>
        <time>2022-12-08T14:39:22Z</time>
      </trkpt>
      <trkpt lat="47.95731" lon="-3.84694">
        <ele>141.1</ele>
        <time>2022-12-08T14:39:23Z</time>
      </trkpt>
      <trkpt lat="47.95726" lon="-3.84702">
        <ele>140.9</ele>
        <time>2022-12-08T14:39:24Z</time>
      </trkpt>
      <trkpt lat="47.9572" lon="-3.8471">
        <ele>140.8</ele>
        <time>2022-12-08T14:39:25Z</time>
      </trkpt>
      <trkpt lat="47.95714" lon="-3.84717">
        <ele>140.7</ele>
        <time>2022-12-08T14:39:26Z</time>
      </trkpt>
      <trkpt lat="47.95709" lon="-3.84725">
        <ele>140.5</ele>
        <time>2022-12-08T14:39:27Z</time>
      </trkpt>
      <trkpt lat="47.95703" lon="-3.84732">
        <ele>140.4</ele>
        <time>2022-12-08T14:39:28Z</time>
      </trkpt>
      <trkpt lat="47.95697" lon="-3.84738">
        <ele>140.4</ele>
        <time>2022-12-08T14:39:29Z</time>
      </trkpt>
      <trkpt lat="47.95691" lon="-3.84745">
        <ele>140.3</ele>
        <time>2022-12-08T14:39:30Z</time>
      </trkpt>
      <trkpt lat="47.95685" lon="-3.84752">
        <ele>140.2</ele>
        <time>2022-12-08T14:39:31Z</time>
      </trkpt>
      <trkpt lat="47.95679" lon="-3.84759">
        <ele>140.1</ele>
        <time>2022-12-08T14:39:32Z</time>
      </trkpt>
      <trkpt lat="47.95673" lon="-3.84765">
        <ele>140.1</ele>
        <time>2022-12-08T14:39:33Z</time>
      </trkpt>
      <trkpt lat="47.95668" lon="-3.84772">
        <ele>140</ele>
        <time>2022-12-08T14:39:34Z</time>
      </trkpt>
      <trkpt lat="47.95662" lon="-3.84779">
        <ele>139.9</ele>
        <time>2022-12-08T14:39:35Z</time>
      </trkpt>
      <trkpt lat="47.95656" lon="-3.84786">
        <ele>139.9</ele>
        <time>2022-12-08T14:39:36Z</time>
      </trkpt>
      <trkpt lat="47.95651" lon="-3.84794">
        <ele>139.8</ele>
        <time>2022-12-08T14:39:37Z</time>
      </trkpt>
      <trkpt lat="47.95646" lon="-3.84802">
        <ele>139.8</ele>
        <time>2022-12-08T14:39:38Z</time>
      </trkpt>
      <trkpt lat="47.95642" lon="-3.84811">
        <ele>139.7</ele>
        <time>2022-12-08T14:39:39Z</time>
      </trkpt>
      <trkpt lat="47.95637" lon="-3.84819">
        <ele>139.7</ele>
        <time>2022-12-08T14:39:40Z</time>
      </trkpt>
      <trkpt lat="47.95633" lon="-3.84828">
        <ele>139.6</ele>
        <time>2022-12-08T14:39:41Z</time>
      </trkpt>
      <trkpt lat="47.95629" lon="-3.84836">
        <ele>139.6</ele>
        <time>2022-12-08T14:39:42Z</time>
      </trkpt>
      <trkpt lat="47.95624" lon="-3.84844">
        <ele>139.5</ele>
        <time>2022-12-08T14:39:43Z</time>
      </trkpt>
      <trkpt lat="47.95619" lon="-3.84852">
        <ele>139.5</ele>
        <time>2022-12-08T14:39:44Z</time>
      </trkpt>
      <trkpt lat="47.95615" lon="-3.8486">
        <ele>139.5</ele>
        <time>2022-12-08T14:39:45Z</time>
      </trkpt>
      <trkpt lat="47.9561" lon="-3.84868">
        <ele>139.4</ele>
        <time>2022-12-08T14:39:46Z</time>
      </trkpt>
      <trkpt lat="47.95605" lon="-3.84875">
        <ele>139.4</ele>
        <time>2022-12-08T14:39:47Z</time>
      </trkpt>
      <trkpt lat="47.956" lon="-3.84883">
        <ele>139.4</ele>
        <time>2022-12-08T14:39:48Z</time>
      </trkpt>
      <trkpt lat="47.95596" lon="-3.8489">
        <ele>139.4</ele>
        <time>2022-12-08T14:39:49Z</time>
      </trkpt>
      <trkpt lat="47.95591" lon="-3.84898">
        <ele>139.3</ele>
        <time>2022-12-08T14:39:50Z</time>
      </trkpt>
      <trkpt lat="47.95588" lon="-3.84906">
        <ele>139.2</ele>
        <time>2022-12-08T14:39:51Z</time>
      </trkpt>
      <trkpt lat="47.95584" lon="-3.84915">
        <ele>139.2</ele>
        <time>2022-12-08T14:39:52Z</time>
      </trkpt>
      <trkpt lat="47.9558" lon="-3.84923">
        <ele>139.1</ele>
        <time>2022-12-08T14:39:53Z</time>
      </trkpt>
      <trkpt lat="47.95577" lon="-3.84932">
        <ele>139</ele>
        <time>2022-12-08T14:39:54Z</time>
      </trkpt>
      <trkpt lat="47.95574" lon="-3.84941">
        <ele>138.9</ele>
        <time>2022-12-08T14:39:55Z</time>
      </trkpt>
      <trkpt lat="47.9557" lon="-3.8495">
        <ele>138.8</ele>
        <time>2022-12-08T14:39:56Z</time>
      </trkpt>
      <trkpt lat="47.95567" lon="-3.8496">
        <ele>138.7</ele>
        <time>2022-12-08T14:39:57Z</time>
      </trkpt>
      <trkpt lat="47.95565" lon="-3.84969">
        <ele>138.7</ele>
        <time>2022-12-08T14:39:58Z</time>
      </trkpt>
      <trkpt lat="47.95563" lon="-3.84979">
        <ele>138.6</ele>
        <time>2022-12-08T14:39:59Z</time>
      </trkpt>
      <trkpt lat="47.95561" lon="-3.84989">
        <ele>138.5</ele>
        <time>2022-12-08T14:40:00Z</time>
      </trkpt>
      <trkpt lat="47.95559" lon="-3.84999">
        <ele>138.4</ele>
        <time>2022-12-08T14:40:01Z</time>
      </trkpt>
      <trkpt lat="47.95559" lon="-3.8501">
        <ele>138.4</ele>
        <time>2022-12-08T14:40:02Z</time>
      </trkpt>
      <trkpt lat="47.95558" lon="-3.8502">
        <ele>138.4</ele>
        <time>2022-12-08T14:40:03Z</time>
      </trkpt>
      <trkpt lat="47.95557" lon="-3.8503">
        <ele>138.4</ele>
        <time>2022-12-08T14:40:04Z</time>
      </trkpt>
      <trkpt lat="47.95556" lon="-3.8504">
        <ele>138.4</ele>
        <time>2022-12-08T14:40:05Z</time>
      </trkpt>
      <trkpt lat="47.95555" lon="-3.8505">
        <ele>138.3</ele>
        <time>2022-12-08T14:40:06Z</time>
      </trkpt>
      <trkpt lat="47.95554" lon="-3.8506">
        <ele>138.3</ele>
        <time>2022-12-08T14:40:07Z</time>
      </trkpt>
      <trkpt lat="47.95553" lon="-3.85069">
        <ele>138.3</ele>
        <time>2022-12-08T14:40:08Z</time>
      </trkpt>
      <trkpt lat="47.95551" lon="-3.85079">
        <ele>138.3</ele>
        <time>2022-12-08T14:40:09Z</time>
      </trkpt>
      <trkpt lat="47.9555" lon="-3.85089">
        <ele>138.4</ele>
        <time>2022-12-08T14:40:10Z</time>
      </trkpt>
      <trkpt lat="47.95548" lon="-3.851">
        <ele>138.4</ele>
        <time>2022-12-08T14:40:11Z</time>
      </trkpt>
      <trkpt lat="47.95546" lon="-3.85109">
        <ele>138.4</ele>
        <time>2022-12-08T14:40:12Z</time>
      </trkpt>
      <trkpt lat="47.95544" lon="-3.85119">
        <ele>138.5</ele>
        <time>2022-12-08T14:40:13Z</time>
      </trkpt>
      <trkpt lat="47.95541" lon="-3.85128">
        <ele>138.6</ele>
        <time>2022-12-08T14:40:14Z</time>
      </trkpt>
      <trkpt lat="47.95539" lon="-3.85138">
        <ele>138.6</ele>
        <time>2022-12-08T14:40:15Z</time>
      </trkpt>
      <trkpt lat="47.95536" lon="-3.85147">
        <ele>138.7</ele>
        <time>2022-12-08T14:40:16Z</time>
      </trkpt>
      <trkpt lat="47.9553" lon="-3.85165">
        <ele>138.9</ele>
        <time>2022-12-08T14:40:18Z</time>
      </trkpt>
      <trkpt lat="47.95527" lon="-3.85175">
        <ele>139</ele>
        <time>2022-12-08T14:40:19Z</time>
      </trkpt>
      <trkpt lat="47.95524" lon="-3.85184">
        <ele>139</ele>
        <time>2022-12-08T14:40:20Z</time>
      </trkpt>
      <trkpt lat="47.95522" lon="-3.85194">
        <ele>139.1</ele>
        <time>2022-12-08T14:40:21Z</time>
      </trkpt>
      <trkpt lat="47.95519" lon="-3.85203">
        <ele>139.2</ele>
        <time>2022-12-08T14:40:22Z</time>
      </trkpt>
      <trkpt lat="47.95517" lon="-3.85213">
        <ele>139.4</ele>
        <time>2022-12-08T14:40:23Z</time>
      </trkpt>
      <trkpt lat="47.95514" lon="-3.85223">
        <ele>139.5</ele>
        <time>2022-12-08T14:40:24Z</time>
      </trkpt>
      <trkpt lat="47.95512" lon="-3.85232">
        <ele>139.6</ele>
        <time>2022-12-08T14:40:25Z</time>
      </trkpt>
      <trkpt lat="47.95509" lon="-3.85242">
        <ele>139.7</ele>
        <time>2022-12-08T14:40:26Z</time>
      </trkpt>
      <trkpt lat="47.95507" lon="-3.85251">
        <ele>139.8</ele>
        <time>2022-12-08T14:40:27Z</time>
      </trkpt>
      <trkpt lat="47.95504" lon="-3.8526">
        <ele>139.9</ele>
        <time>2022-12-08T14:40:28Z</time>
      </trkpt>
      <trkpt lat="47.95501" lon="-3.85269">
        <ele>140</ele>
        <time>2022-12-08T14:40:29Z</time>
      </trkpt>
      <trkpt lat="47.95498" lon="-3.85278">
        <ele>140.1</ele>
        <time>2022-12-08T14:40:30Z</time>
      </trkpt>
      <trkpt lat="47.95495" lon="-3.85286">
        <ele>140.2</ele>
        <time>2022-12-08T14:40:31Z</time>
      </trkpt>
      <trkpt lat="47.95492" lon="-3.85294">
        <ele>140.3</ele>
        <time>2022-12-08T14:40:32Z</time>
      </trkpt>
      <trkpt lat="47.95488" lon="-3.85302">
        <ele>140.3</ele>
        <time>2022-12-08T14:40:33Z</time>
      </trkpt>
      <trkpt lat="47.95485" lon="-3.85309">
        <ele>140.3</ele>
        <time>2022-12-08T14:40:34Z</time>
      </trkpt>
      <trkpt lat="47.95481" lon="-3.85317">
        <ele>140.3</ele>
        <time>2022-12-08T14:40:35Z</time>
      </trkpt>
      <trkpt lat="47.95477" lon="-3.85324">
        <ele>140.2</ele>
        <time>2022-12-08T14:40:36Z</time>
      </trkpt>
      <trkpt lat="47.95473" lon="-3.85332">
        <ele>140.2</ele>
        <time>2022-12-08T14:40:37Z</time>
      </trkpt>
      <trkpt lat="47.95469" lon="-3.8534">
        <ele>140.2</ele>
        <time>2022-12-08T14:40:38Z</time>
      </trkpt>
      <trkpt lat="47.95466" lon="-3.85348">
        <ele>140.2</ele>
        <time>2022-12-08T14:40:39Z</time>
      </trkpt>
      <trkpt lat="47.95463" lon="-3.85357">
        <ele>140.1</ele>
        <time>2022-12-08T14:40:40Z</time>
      </trkpt>
      <trkpt lat="47.95458" lon="-3.85375">
        <ele>140.2</ele>
        <time>2022-12-08T14:40:42Z</time>
      </trkpt>
      <trkpt lat="47.95456" lon="-3.85383">
        <ele>140.3</ele>
        <time>2022-12-08T14:40:43Z</time>
      </trkpt>
      <trkpt lat="47.95454" lon="-3.85392">
        <ele>140.3</ele>
        <time>2022-12-08T14:40:44Z</time>
      </trkpt>
      <trkpt lat="47.95453" lon="-3.85401">
        <ele>140.3</ele>
        <time>2022-12-08T14:40:45Z</time>
      </trkpt>
      <trkpt lat="47.95451" lon="-3.85409">
        <ele>140.3</ele>
        <time>2022-12-08T14:40:46Z</time>
      </trkpt>
      <trkpt lat="47.95449" lon="-3.85418">
        <ele>140.3</ele>
        <time>2022-12-08T14:40:47Z</time>
      </trkpt>
      <trkpt lat="47.95447" lon="-3.85426">
        <ele>140.3</ele>
        <time>2022-12-08T14:40:48Z</time>
      </trkpt>
      <trkpt lat="47.95445" lon="-3.85435">
        <ele>140.3</ele>
        <time>2022-12-08T14:40:49Z</time>
      </trkpt>
      <trkpt lat="47.95443" lon="-3.85444">
        <ele>140.3</ele>
        <time>2022-12-08T14:40:50Z</time>
      </trkpt>
      <trkpt lat="47.95442" lon="-3.85453">
        <ele>140.3</ele>
        <time>2022-12-08T14:40:51Z</time>
      </trkpt>
      <trkpt lat="47.9544" lon="-3.85461">
        <ele>140.3</ele>
        <time>2022-12-08T14:40:52Z</time>
      </trkpt>
      <trkpt lat="47.95438" lon="-3.8547">
        <ele>140.3</ele>
        <time>2022-12-08T14:40:53Z</time>
      </trkpt>
      <trkpt lat="47.95436" lon="-3.85478">
        <ele>140.3</ele>
        <time>2022-12-08T14:40:54Z</time>
      </trkpt>
      <trkpt lat="47.95433" lon="-3.85487">
        <ele>140.3</ele>
        <time>2022-12-08T14:40:55Z</time>
      </trkpt>
      <trkpt lat="47.95431" lon="-3.85495">
        <ele>140.3</ele>
        <time>2022-12-08T14:40:56Z</time>
      </trkpt>
      <trkpt lat="47.95429" lon="-3.85503">
        <ele>140.3</ele>
        <time>2022-12-08T14:40:57Z</time>
      </trkpt>
      <trkpt lat="47.95426" lon="-3.85511">
        <ele>140.3</ele>
        <time>2022-12-08T14:40:58Z</time>
      </trkpt>
      <trkpt lat="47.95424" lon="-3.8552">
        <ele>140.3</ele>
        <time>2022-12-08T14:40:59Z</time>
      </trkpt>
      <trkpt lat="47.95422" lon="-3.85528">
        <ele>140.3</ele>
        <time>2022-12-08T14:41:00Z</time>
      </trkpt>
      <trkpt lat="47.9542" lon="-3.85536">
        <ele>140.3</ele>
        <time>2022-12-08T14:41:01Z</time>
      </trkpt>
      <trkpt lat="47.95417" lon="-3.85545">
        <ele>140.3</ele>
        <time>2022-12-08T14:41:02Z</time>
      </trkpt>
      <trkpt lat="47.95415" lon="-3.85553">
        <ele>140.3</ele>
        <time>2022-12-08T14:41:03Z</time>
      </trkpt>
      <trkpt lat="47.95413" lon="-3.85562">
        <ele>140.3</ele>
        <time>2022-12-08T14:41:04Z</time>
      </trkpt>
      <trkpt lat="47.95411" lon="-3.8557">
        <ele>140.3</ele>
        <time>2022-12-08T14:41:05Z</time>
      </trkpt>
      <trkpt lat="47.9541" lon="-3.85579">
        <ele>140.3</ele>
        <time>2022-12-08T14:41:06Z</time>
      </trkpt>
      <trkpt lat="47.95408" lon="-3.85587">
        <ele>140.3</ele>
        <time>2022-12-08T14:41:07Z</time>
      </trkpt>
      <trkpt lat="47.95406" lon="-3.85596">
        <ele>140.3</ele>
        <time>2022-12-08T14:41:08Z</time>
      </trkpt>
      <trkpt lat="47.95405" lon="-3.85605">
        <ele>140.3</ele>
        <time>2022-12-08T14:41:09Z</time>
      </trkpt>
      <trkpt lat="47.95404" lon="-3.85613">
        <ele>140.4</ele>
        <time>2022-12-08T14:41:10Z</time>
      </trkpt>
      <trkpt lat="47.95402" lon="-3.85622">
        <ele>140.4</ele>
        <time>2022-12-08T14:41:11Z</time>
      </trkpt>
      <trkpt lat="47.954" lon="-3.8563">
        <ele>140.5</ele>
        <time>2022-12-08T14:41:12Z</time>
      </trkpt>
      <trkpt lat="47.95399" lon="-3.85637">
        <ele>140.5</ele>
        <time>2022-12-08T14:41:13Z</time>
      </trkpt>
      <trkpt lat="47.95397" lon="-3.85645">
        <ele>140.6</ele>
        <time>2022-12-08T14:41:14Z</time>
      </trkpt>
      <trkpt lat="47.95395" lon="-3.85653">
        <ele>140.6</ele>
        <time>2022-12-08T14:41:15Z</time>
      </trkpt>
      <trkpt lat="47.95393" lon="-3.8566">
        <ele>140.7</ele>
        <time>2022-12-08T14:41:16Z</time>
      </trkpt>
      <trkpt lat="47.9539" lon="-3.85676">
        <ele>140.8</ele>
        <time>2022-12-08T14:41:18Z</time>
      </trkpt>
      <trkpt lat="47.95389" lon="-3.85684">
        <ele>140.9</ele>
        <time>2022-12-08T14:41:19Z</time>
      </trkpt>
      <trkpt lat="47.95387" lon="-3.85692">
        <ele>141</ele>
        <time>2022-12-08T14:41:20Z</time>
      </trkpt>
      <trkpt lat="47.95385" lon="-3.85699">
        <ele>141</ele>
        <time>2022-12-08T14:41:21Z</time>
      </trkpt>
      <trkpt lat="47.95384" lon="-3.85707">
        <ele>141.1</ele>
        <time>2022-12-08T14:41:22Z</time>
      </trkpt>
      <trkpt lat="47.95383" lon="-3.85716">
        <ele>141.2</ele>
        <time>2022-12-08T14:41:23Z</time>
      </trkpt>
      <trkpt lat="47.95381" lon="-3.85724">
        <ele>141.2</ele>
        <time>2022-12-08T14:41:24Z</time>
      </trkpt>
      <trkpt lat="47.9538" lon="-3.85732">
        <ele>141.3</ele>
        <time>2022-12-08T14:41:25Z</time>
      </trkpt>
      <trkpt lat="47.95379" lon="-3.8574">
        <ele>141.4</ele>
        <time>2022-12-08T14:41:26Z</time>
      </trkpt>
      <trkpt lat="47.95377" lon="-3.85748">
        <ele>141.5</ele>
        <time>2022-12-08T14:41:27Z</time>
      </trkpt>
      <trkpt lat="47.95376" lon="-3.85756">
        <ele>141.6</ele>
        <time>2022-12-08T14:41:28Z</time>
      </trkpt>
      <trkpt lat="47.95374" lon="-3.85764">
        <ele>141.7</ele>
        <time>2022-12-08T14:41:29Z</time>
      </trkpt>
      <trkpt lat="47.95372" lon="-3.85771">
        <ele>141.8</ele>
        <time>2022-12-08T14:41:30Z</time>
      </trkpt>
      <trkpt lat="47.95371" lon="-3.85778">
        <ele>141.9</ele>
        <time>2022-12-08T14:41:31Z</time>
      </trkpt>
      <trkpt lat="47.9537" lon="-3.85786">
        <ele>142.1</ele>
        <time>2022-12-08T14:41:32Z</time>
      </trkpt>
      <trkpt lat="47.95369" lon="-3.85793">
        <ele>142.2</ele>
        <time>2022-12-08T14:41:33Z</time>
      </trkpt>
      <trkpt lat="47.95367" lon="-3.858">
        <ele>142.3</ele>
        <time>2022-12-08T14:41:34Z</time>
      </trkpt>
      <trkpt lat="47.95366" lon="-3.85808">
        <ele>142.4</ele>
        <time>2022-12-08T14:41:35Z</time>
      </trkpt>
      <trkpt lat="47.95364" lon="-3.85814">
        <ele>142.5</ele>
        <time>2022-12-08T14:41:36Z</time>
      </trkpt>
      <trkpt lat="47.95363" lon="-3.85821">
        <ele>142.6</ele>
        <time>2022-12-08T14:41:37Z</time>
      </trkpt>
      <trkpt lat="47.95362" lon="-3.85824">
        <ele>142.6</ele>
        <time>2022-12-08T14:41:38Z</time>
      </trkpt>
      <trkpt lat="47.95361" lon="-3.85833">
        <ele>142.8</ele>
        <time>2022-12-08T14:41:39Z</time>
      </trkpt>
      <trkpt lat="47.95359" lon="-3.85841">
        <ele>143</ele>
        <time>2022-12-08T14:41:40Z</time>
      </trkpt>
      <trkpt lat="47.95358" lon="-3.85848">
        <ele>143.1</ele>
        <time>2022-12-08T14:41:41Z</time>
      </trkpt>
      <trkpt lat="47.95356" lon="-3.85856">
        <ele>143.2</ele>
        <time>2022-12-08T14:41:42Z</time>
      </trkpt>
      <trkpt lat="47.95353" lon="-3.85863">
        <ele>143.4</ele>
        <time>2022-12-08T14:41:43Z</time>
      </trkpt>
      <trkpt lat="47.95352" lon="-3.85871">
        <ele>143.5</ele>
        <time>2022-12-08T14:41:44Z</time>
      </trkpt>
      <trkpt lat="47.95351" lon="-3.85878">
        <ele>143.7</ele>
        <time>2022-12-08T14:41:45Z</time>
      </trkpt>
      <trkpt lat="47.95349" lon="-3.8589">
        <ele>143.9</ele>
        <time>2022-12-08T14:41:47Z</time>
      </trkpt>
      <trkpt lat="47.95347" lon="-3.85898">
        <ele>144.1</ele>
        <time>2022-12-08T14:41:48Z</time>
      </trkpt>
      <trkpt lat="47.95347" lon="-3.85905">
        <ele>144.3</ele>
        <time>2022-12-08T14:41:49Z</time>
      </trkpt>
      <trkpt lat="47.95346" lon="-3.85912">
        <ele>144.5</ele>
        <time>2022-12-08T14:41:50Z</time>
      </trkpt>
      <trkpt lat="47.95345" lon="-3.85919">
        <ele>144.7</ele>
        <time>2022-12-08T14:41:51Z</time>
      </trkpt>
      <trkpt lat="47.95344" lon="-3.85926">
        <ele>144.9</ele>
        <time>2022-12-08T14:41:52Z</time>
      </trkpt>
      <trkpt lat="47.95342" lon="-3.85933">
        <ele>145.1</ele>
        <time>2022-12-08T14:41:53Z</time>
      </trkpt>
      <trkpt lat="47.95341" lon="-3.8594">
        <ele>145.3</ele>
        <time>2022-12-08T14:41:54Z</time>
      </trkpt>
      <trkpt lat="47.9534" lon="-3.85947">
        <ele>145.5</ele>
        <time>2022-12-08T14:41:55Z</time>
      </trkpt>
      <trkpt lat="47.9534" lon="-3.85953">
        <ele>145.8</ele>
        <time>2022-12-08T14:41:56Z</time>
      </trkpt>
      <trkpt lat="47.9534" lon="-3.85954">
        <ele>145.8</ele>
        <time>2022-12-08T14:41:57Z</time>
      </trkpt>
      <trkpt lat="47.9534" lon="-3.85957">
        <ele>145.9</ele>
        <time>2022-12-08T14:41:58Z</time>
      </trkpt>
      <trkpt lat="47.95338" lon="-3.85973">
        <ele>146.4</ele>
        <time>2022-12-08T14:42:00Z</time>
      </trkpt>
      <trkpt lat="47.95337" lon="-3.85984">
        <ele>146.8</ele>
        <time>2022-12-08T14:42:01Z</time>
      </trkpt>
      <trkpt lat="47.95337" lon="-3.85992">
        <ele>147.1</ele>
        <time>2022-12-08T14:42:02Z</time>
      </trkpt>
      <trkpt lat="47.95336" lon="-3.86">
        <ele>147.3</ele>
        <time>2022-12-08T14:42:03Z</time>
      </trkpt>
      <trkpt lat="47.95336" lon="-3.86007">
        <ele>147.4</ele>
        <time>2022-12-08T14:42:04Z</time>
      </trkpt>
      <trkpt lat="47.95336" lon="-3.86015">
        <ele>147.7</ele>
        <time>2022-12-08T14:42:05Z</time>
      </trkpt>
      <trkpt lat="47.95336" lon="-3.86022">
        <ele>147.8</ele>
        <time>2022-12-08T14:42:06Z</time>
      </trkpt>
      <trkpt lat="47.95335" lon="-3.86029">
        <ele>148</ele>
        <time>2022-12-08T14:42:07Z</time>
      </trkpt>
      <trkpt lat="47.95334" lon="-3.86036">
        <ele>148.2</ele>
        <time>2022-12-08T14:42:08Z</time>
      </trkpt>
      <trkpt lat="47.95334" lon="-3.86043">
        <ele>148.4</ele>
        <time>2022-12-08T14:42:09Z</time>
      </trkpt>
      <trkpt lat="47.95334" lon="-3.86048">
        <ele>148.5</ele>
        <time>2022-12-08T14:42:10Z</time>
      </trkpt>
      <trkpt lat="47.95333" lon="-3.86056">
        <ele>148.7</ele>
        <time>2022-12-08T14:42:12Z</time>
      </trkpt>
      <trkpt lat="47.95332" lon="-3.86063">
        <ele>148.8</ele>
        <time>2022-12-08T14:42:13Z</time>
      </trkpt>
      <trkpt lat="47.95332" lon="-3.86072">
        <ele>148.9</ele>
        <time>2022-12-08T14:42:14Z</time>
      </trkpt>
      <trkpt lat="47.95331" lon="-3.8608">
        <ele>149</ele>
        <time>2022-12-08T14:42:15Z</time>
      </trkpt>
      <trkpt lat="47.95331" lon="-3.86087">
        <ele>149.1</ele>
        <time>2022-12-08T14:42:16Z</time>
      </trkpt>
      <trkpt lat="47.95331" lon="-3.86094">
        <ele>149.2</ele>
        <time>2022-12-08T14:42:17Z</time>
      </trkpt>
      <trkpt lat="47.9533" lon="-3.86102">
        <ele>149.3</ele>
        <time>2022-12-08T14:42:18Z</time>
      </trkpt>
      <trkpt lat="47.95329" lon="-3.86109">
        <ele>149.4</ele>
        <time>2022-12-08T14:42:19Z</time>
      </trkpt>
      <trkpt lat="47.95328" lon="-3.86116">
        <ele>149.5</ele>
        <time>2022-12-08T14:42:20Z</time>
      </trkpt>
      <trkpt lat="47.95327" lon="-3.86123">
        <ele>149.6</ele>
        <time>2022-12-08T14:42:21Z</time>
      </trkpt>
      <trkpt lat="47.95326" lon="-3.8613">
        <ele>149.6</ele>
        <time>2022-12-08T14:42:22Z</time>
      </trkpt>
      <trkpt lat="47.95324" lon="-3.86137">
        <ele>149.7</ele>
        <time>2022-12-08T14:42:23Z</time>
      </trkpt>
      <trkpt lat="47.95323" lon="-3.86144">
        <ele>149.8</ele>
        <time>2022-12-08T14:42:24Z</time>
      </trkpt>
      <trkpt lat="47.95321" lon="-3.8615">
        <ele>149.8</ele>
        <time>2022-12-08T14:42:25Z</time>
      </trkpt>
      <trkpt lat="47.9532" lon="-3.86156">
        <ele>149.9</ele>
        <time>2022-12-08T14:42:26Z</time>
      </trkpt>
      <trkpt lat="47.95319" lon="-3.86163">
        <ele>150</ele>
        <time>2022-12-08T14:42:27Z</time>
      </trkpt>
      <trkpt lat="47.95317" lon="-3.8617">
        <ele>150</ele>
        <time>2022-12-08T14:42:28Z</time>
      </trkpt>
      <trkpt lat="47.95317" lon="-3.86177">
        <ele>150.1</ele>
        <time>2022-12-08T14:42:29Z</time>
      </trkpt>
      <trkpt lat="47.95316" lon="-3.86185">
        <ele>150.2</ele>
        <time>2022-12-08T14:42:30Z</time>
      </trkpt>
      <trkpt lat="47.95315" lon="-3.86192">
        <ele>150.2</ele>
        <time>2022-12-08T14:42:31Z</time>
      </trkpt>
      <trkpt lat="47.95314" lon="-3.86199">
        <ele>150.3</ele>
        <time>2022-12-08T14:42:32Z</time>
      </trkpt>
      <trkpt lat="47.95313" lon="-3.86206">
        <ele>150.3</ele>
        <time>2022-12-08T14:42:33Z</time>
      </trkpt>
      <trkpt lat="47.95312" lon="-3.86213">
        <ele>150.4</ele>
        <time>2022-12-08T14:42:34Z</time>
      </trkpt>
      <trkpt lat="47.9531" lon="-3.86221">
        <ele>150.4</ele>
        <time>2022-12-08T14:42:35Z</time>
      </trkpt>
      <trkpt lat="47.95309" lon="-3.86228">
        <ele>150.5</ele>
        <time>2022-12-08T14:42:36Z</time>
      </trkpt>
      <trkpt lat="47.95307" lon="-3.86236">
        <ele>150.5</ele>
        <time>2022-12-08T14:42:37Z</time>
      </trkpt>
      <trkpt lat="47.95306" lon="-3.86243">
        <ele>150.6</ele>
        <time>2022-12-08T14:42:38Z</time>
      </trkpt>
      <trkpt lat="47.95305" lon="-3.8625">
        <ele>150.7</ele>
        <time>2022-12-08T14:42:39Z</time>
      </trkpt>
      <trkpt lat="47.95303" lon="-3.86257">
        <ele>150.7</ele>
        <time>2022-12-08T14:42:40Z</time>
      </trkpt>
      <trkpt lat="47.95302" lon="-3.86264">
        <ele>150.8</ele>
        <time>2022-12-08T14:42:41Z</time>
      </trkpt>
      <trkpt lat="47.95301" lon="-3.86271">
        <ele>150.9</ele>
        <time>2022-12-08T14:42:42Z</time>
      </trkpt>
      <trkpt lat="47.953" lon="-3.86278">
        <ele>151</ele>
        <time>2022-12-08T14:42:43Z</time>
      </trkpt>
      <trkpt lat="47.953" lon="-3.86286">
        <ele>151.1</ele>
        <time>2022-12-08T14:42:44Z</time>
      </trkpt>
      <trkpt lat="47.95299" lon="-3.86293">
        <ele>151.1</ele>
        <time>2022-12-08T14:42:45Z</time>
      </trkpt>
      <trkpt lat="47.95298" lon="-3.863">
        <ele>151.2</ele>
        <time>2022-12-08T14:42:46Z</time>
      </trkpt>
      <trkpt lat="47.95297" lon="-3.86307">
        <ele>151.2</ele>
        <time>2022-12-08T14:42:47Z</time>
      </trkpt>
      <trkpt lat="47.95296" lon="-3.86314">
        <ele>151.3</ele>
        <time>2022-12-08T14:42:48Z</time>
      </trkpt>
      <trkpt lat="47.95295" lon="-3.86321">
        <ele>151.3</ele>
        <time>2022-12-08T14:42:49Z</time>
      </trkpt>
      <trkpt lat="47.95293" lon="-3.86328">
        <ele>151.4</ele>
        <time>2022-12-08T14:42:50Z</time>
      </trkpt>
      <trkpt lat="47.95293" lon="-3.86335">
        <ele>151.4</ele>
        <time>2022-12-08T14:42:51Z</time>
      </trkpt>
      <trkpt lat="47.95292" lon="-3.86342">
        <ele>151.5</ele>
        <time>2022-12-08T14:42:52Z</time>
      </trkpt>
      <trkpt lat="47.95292" lon="-3.86349">
        <ele>151.5</ele>
        <time>2022-12-08T14:42:53Z</time>
      </trkpt>
      <trkpt lat="47.95291" lon="-3.86357">
        <ele>151.5</ele>
        <time>2022-12-08T14:42:54Z</time>
      </trkpt>
      <trkpt lat="47.9529" lon="-3.86364">
        <ele>151.6</ele>
        <time>2022-12-08T14:42:55Z</time>
      </trkpt>
      <trkpt lat="47.9529" lon="-3.86372">
        <ele>151.6</ele>
        <time>2022-12-08T14:42:56Z</time>
      </trkpt>
      <trkpt lat="47.95289" lon="-3.86379">
        <ele>151.6</ele>
        <time>2022-12-08T14:42:57Z</time>
      </trkpt>
      <trkpt lat="47.95288" lon="-3.86386">
        <ele>151.6</ele>
        <time>2022-12-08T14:42:58Z</time>
      </trkpt>
      <trkpt lat="47.95287" lon="-3.86393">
        <ele>151.6</ele>
        <time>2022-12-08T14:42:59Z</time>
      </trkpt>
      <trkpt lat="47.95286" lon="-3.86401">
        <ele>151.6</ele>
        <time>2022-12-08T14:43:00Z</time>
      </trkpt>
      <trkpt lat="47.95285" lon="-3.86408">
        <ele>151.6</ele>
        <time>2022-12-08T14:43:01Z</time>
      </trkpt>
      <trkpt lat="47.95285" lon="-3.86415">
        <ele>151.6</ele>
        <time>2022-12-08T14:43:02Z</time>
      </trkpt>
      <trkpt lat="47.95284" lon="-3.86422">
        <ele>151.6</ele>
        <time>2022-12-08T14:43:03Z</time>
      </trkpt>
      <trkpt lat="47.95283" lon="-3.8643">
        <ele>151.6</ele>
        <time>2022-12-08T14:43:04Z</time>
      </trkpt>
      <trkpt lat="47.95283" lon="-3.86437">
        <ele>151.6</ele>
        <time>2022-12-08T14:43:05Z</time>
      </trkpt>
      <trkpt lat="47.95283" lon="-3.86444">
        <ele>151.6</ele>
        <time>2022-12-08T14:43:06Z</time>
      </trkpt>
      <trkpt lat="47.95282" lon="-3.86451">
        <ele>151.6</ele>
        <time>2022-12-08T14:43:07Z</time>
      </trkpt>
      <trkpt lat="47.95282" lon="-3.86458">
        <ele>151.6</ele>
        <time>2022-12-08T14:43:08Z</time>
      </trkpt>
      <trkpt lat="47.95281" lon="-3.86466">
        <ele>151.7</ele>
        <time>2022-12-08T14:43:09Z</time>
      </trkpt>
      <trkpt lat="47.95281" lon="-3.86473">
        <ele>151.7</ele>
        <time>2022-12-08T14:43:10Z</time>
      </trkpt>
      <trkpt lat="47.9528" lon="-3.8648">
        <ele>151.7</ele>
        <time>2022-12-08T14:43:11Z</time>
      </trkpt>
      <trkpt lat="47.95279" lon="-3.86488">
        <ele>151.7</ele>
        <time>2022-12-08T14:43:12Z</time>
      </trkpt>
      <trkpt lat="47.95278" lon="-3.86495">
        <ele>151.8</ele>
        <time>2022-12-08T14:43:13Z</time>
      </trkpt>
      <trkpt lat="47.95278" lon="-3.86503">
        <ele>151.8</ele>
        <time>2022-12-08T14:43:14Z</time>
      </trkpt>
      <trkpt lat="47.95277" lon="-3.8651">
        <ele>151.9</ele>
        <time>2022-12-08T14:43:15Z</time>
      </trkpt>
      <trkpt lat="47.95276" lon="-3.86516">
        <ele>151.9</ele>
        <time>2022-12-08T14:43:16Z</time>
      </trkpt>
      <trkpt lat="47.95276" lon="-3.86523">
        <ele>152</ele>
        <time>2022-12-08T14:43:17Z</time>
      </trkpt>
      <trkpt lat="47.95276" lon="-3.86528">
        <ele>152</ele>
        <time>2022-12-08T14:43:18Z</time>
      </trkpt>
      <trkpt lat="47.95276" lon="-3.86535">
        <ele>152.1</ele>
        <time>2022-12-08T14:43:19Z</time>
      </trkpt>
      <trkpt lat="47.95276" lon="-3.8654">
        <ele>152.1</ele>
        <time>2022-12-08T14:43:20Z</time>
      </trkpt>
      <trkpt lat="47.95276" lon="-3.86546">
        <ele>152.2</ele>
        <time>2022-12-08T14:43:21Z</time>
      </trkpt>
      <trkpt lat="47.95275" lon="-3.86551">
        <ele>152.2</ele>
        <time>2022-12-08T14:43:22Z</time>
      </trkpt>
      <trkpt lat="47.95275" lon="-3.86558">
        <ele>152.1</ele>
        <time>2022-12-08T14:43:23Z</time>
      </trkpt>
      <trkpt lat="47.95275" lon="-3.86562">
        <ele>152.1</ele>
        <time>2022-12-08T14:43:24Z</time>
      </trkpt>
      <trkpt lat="47.95275" lon="-3.86571">
        <ele>152.1</ele>
        <time>2022-12-08T14:43:25Z</time>
      </trkpt>
      <trkpt lat="47.95274" lon="-3.86578">
        <ele>152.1</ele>
        <time>2022-12-08T14:43:26Z</time>
      </trkpt>
      <trkpt lat="47.95273" lon="-3.86585">
        <ele>152.1</ele>
        <time>2022-12-08T14:43:27Z</time>
      </trkpt>
      <trkpt lat="47.95273" lon="-3.86592">
        <ele>152.1</ele>
        <time>2022-12-08T14:43:28Z</time>
      </trkpt>
      <trkpt lat="47.95272" lon="-3.86599">
        <ele>152.1</ele>
        <time>2022-12-08T14:43:29Z</time>
      </trkpt>
      <trkpt lat="47.95271" lon="-3.86607">
        <ele>152.2</ele>
        <time>2022-12-08T14:43:30Z</time>
      </trkpt>
      <trkpt lat="47.9527" lon="-3.86615">
        <ele>152.2</ele>
        <time>2022-12-08T14:43:31Z</time>
      </trkpt>
      <trkpt lat="47.95269" lon="-3.86622">
        <ele>152.3</ele>
        <time>2022-12-08T14:43:32Z</time>
      </trkpt>
      <trkpt lat="47.95268" lon="-3.86629">
        <ele>152.3</ele>
        <time>2022-12-08T14:43:33Z</time>
      </trkpt>
      <trkpt lat="47.95268" lon="-3.86637">
        <ele>152.4</ele>
        <time>2022-12-08T14:43:34Z</time>
      </trkpt>
      <trkpt lat="47.95268" lon="-3.86645">
        <ele>152.5</ele>
        <time>2022-12-08T14:43:35Z</time>
      </trkpt>
      <trkpt lat="47.95267" lon="-3.86653">
        <ele>152.6</ele>
        <time>2022-12-08T14:43:36Z</time>
      </trkpt>
      <trkpt lat="47.95267" lon="-3.8666">
        <ele>152.7</ele>
        <time>2022-12-08T14:43:37Z</time>
      </trkpt>
      <trkpt lat="47.95266" lon="-3.86667">
        <ele>152.7</ele>
        <time>2022-12-08T14:43:38Z</time>
      </trkpt>
      <trkpt lat="47.95265" lon="-3.86673">
        <ele>152.9</ele>
        <time>2022-12-08T14:43:39Z</time>
      </trkpt>
      <trkpt lat="47.95265" lon="-3.86681">
        <ele>153</ele>
        <time>2022-12-08T14:43:40Z</time>
      </trkpt>
      <trkpt lat="47.95265" lon="-3.86687">
        <ele>153.1</ele>
        <time>2022-12-08T14:43:41Z</time>
      </trkpt>
      <trkpt lat="47.95264" lon="-3.86695">
        <ele>153.2</ele>
        <time>2022-12-08T14:43:42Z</time>
      </trkpt>
      <trkpt lat="47.95264" lon="-3.86702">
        <ele>153.3</ele>
        <time>2022-12-08T14:43:43Z</time>
      </trkpt>
      <trkpt lat="47.95263" lon="-3.8671">
        <ele>153.4</ele>
        <time>2022-12-08T14:43:44Z</time>
      </trkpt>
      <trkpt lat="47.95262" lon="-3.86718">
        <ele>153.4</ele>
        <time>2022-12-08T14:43:45Z</time>
      </trkpt>
      <trkpt lat="47.95262" lon="-3.86725">
        <ele>153.5</ele>
        <time>2022-12-08T14:43:46Z</time>
      </trkpt>
      <trkpt lat="47.95261" lon="-3.86733">
        <ele>153.6</ele>
        <time>2022-12-08T14:43:47Z</time>
      </trkpt>
      <trkpt lat="47.95261" lon="-3.86741">
        <ele>153.7</ele>
        <time>2022-12-08T14:43:48Z</time>
      </trkpt>
      <trkpt lat="47.9526" lon="-3.86749">
        <ele>153.8</ele>
        <time>2022-12-08T14:43:49Z</time>
      </trkpt>
      <trkpt lat="47.95259" lon="-3.86756">
        <ele>153.9</ele>
        <time>2022-12-08T14:43:50Z</time>
      </trkpt>
      <trkpt lat="47.95258" lon="-3.86764">
        <ele>154.1</ele>
        <time>2022-12-08T14:43:51Z</time>
      </trkpt>
      <trkpt lat="47.95257" lon="-3.86771">
        <ele>154.2</ele>
        <time>2022-12-08T14:43:52Z</time>
      </trkpt>
      <trkpt lat="47.95256" lon="-3.86779">
        <ele>154.4</ele>
        <time>2022-12-08T14:43:53Z</time>
      </trkpt>
      <trkpt lat="47.95255" lon="-3.86787">
        <ele>154.5</ele>
        <time>2022-12-08T14:43:54Z</time>
      </trkpt>
      <trkpt lat="47.95254" lon="-3.86794">
        <ele>154.7</ele>
        <time>2022-12-08T14:43:55Z</time>
      </trkpt>
      <trkpt lat="47.95253" lon="-3.86802">
        <ele>154.8</ele>
        <time>2022-12-08T14:43:56Z</time>
      </trkpt>
      <trkpt lat="47.95252" lon="-3.86808">
        <ele>155</ele>
        <time>2022-12-08T14:43:57Z</time>
      </trkpt>
      <trkpt lat="47.95251" lon="-3.86815">
        <ele>155.1</ele>
        <time>2022-12-08T14:43:58Z</time>
      </trkpt>
      <trkpt lat="47.95249" lon="-3.86822">
        <ele>155.3</ele>
        <time>2022-12-08T14:43:59Z</time>
      </trkpt>
      <trkpt lat="47.95247" lon="-3.86829">
        <ele>155.4</ele>
        <time>2022-12-08T14:44:00Z</time>
      </trkpt>
      <trkpt lat="47.95246" lon="-3.86835">
        <ele>155.6</ele>
        <time>2022-12-08T14:44:01Z</time>
      </trkpt>
      <trkpt lat="47.95244" lon="-3.86842">
        <ele>155.8</ele>
        <time>2022-12-08T14:44:02Z</time>
      </trkpt>
      <trkpt lat="47.95243" lon="-3.86847">
        <ele>155.9</ele>
        <time>2022-12-08T14:44:03Z</time>
      </trkpt>
      <trkpt lat="47.95242" lon="-3.86853">
        <ele>156.1</ele>
        <time>2022-12-08T14:44:04Z</time>
      </trkpt>
      <trkpt lat="47.9524" lon="-3.86859">
        <ele>156.3</ele>
        <time>2022-12-08T14:44:05Z</time>
      </trkpt>
      <trkpt lat="47.95238" lon="-3.86865">
        <ele>156.4</ele>
        <time>2022-12-08T14:44:06Z</time>
      </trkpt>
      <trkpt lat="47.95237" lon="-3.86871">
        <ele>156.6</ele>
        <time>2022-12-08T14:44:07Z</time>
      </trkpt>
      <trkpt lat="47.95235" lon="-3.86877">
        <ele>156.8</ele>
        <time>2022-12-08T14:44:08Z</time>
      </trkpt>
      <trkpt lat="47.95234" lon="-3.86884">
        <ele>157</ele>
        <time>2022-12-08T14:44:09Z</time>
      </trkpt>
      <trkpt lat="47.95232" lon="-3.8689">
        <ele>157.2</ele>
        <time>2022-12-08T14:44:10Z</time>
      </trkpt>
      <trkpt lat="47.95231" lon="-3.86896">
        <ele>157.4</ele>
        <time>2022-12-08T14:44:11Z</time>
      </trkpt>
      <trkpt lat="47.95229" lon="-3.86902">
        <ele>157.6</ele>
        <time>2022-12-08T14:44:12Z</time>
      </trkpt>
      <trkpt lat="47.95227" lon="-3.86908">
        <ele>157.8</ele>
        <time>2022-12-08T14:44:13Z</time>
      </trkpt>
      <trkpt lat="47.95226" lon="-3.86914">
        <ele>157.9</ele>
        <time>2022-12-08T14:44:14Z</time>
      </trkpt>
      <trkpt lat="47.95225" lon="-3.86921">
        <ele>158.1</ele>
        <time>2022-12-08T14:44:15Z</time>
      </trkpt>
      <trkpt lat="47.95224" lon="-3.86928">
        <ele>158.3</ele>
        <time>2022-12-08T14:44:16Z</time>
      </trkpt>
      <trkpt lat="47.95222" lon="-3.86934">
        <ele>158.4</ele>
        <time>2022-12-08T14:44:17Z</time>
      </trkpt>
      <trkpt lat="47.9522" lon="-3.86941">
        <ele>158.5</ele>
        <time>2022-12-08T14:44:18Z</time>
      </trkpt>
      <trkpt lat="47.95218" lon="-3.86948">
        <ele>158.6</ele>
        <time>2022-12-08T14:44:19Z</time>
      </trkpt>
      <trkpt lat="47.95216" lon="-3.86955">
        <ele>158.7</ele>
        <time>2022-12-08T14:44:20Z</time>
      </trkpt>
      <trkpt lat="47.95214" lon="-3.86961">
        <ele>158.8</ele>
        <time>2022-12-08T14:44:21Z</time>
      </trkpt>
      <trkpt lat="47.95211" lon="-3.86967">
        <ele>158.8</ele>
        <time>2022-12-08T14:44:22Z</time>
      </trkpt>
      <trkpt lat="47.95208" lon="-3.86974">
        <ele>158.8</ele>
        <time>2022-12-08T14:44:23Z</time>
      </trkpt>
      <trkpt lat="47.95206" lon="-3.86981">
        <ele>158.9</ele>
        <time>2022-12-08T14:44:24Z</time>
      </trkpt>
      <trkpt lat="47.95203" lon="-3.86987">
        <ele>158.9</ele>
        <time>2022-12-08T14:44:25Z</time>
      </trkpt>
      <trkpt lat="47.952" lon="-3.86993">
        <ele>158.9</ele>
        <time>2022-12-08T14:44:26Z</time>
      </trkpt>
      <trkpt lat="47.95198" lon="-3.87">
        <ele>158.9</ele>
        <time>2022-12-08T14:44:27Z</time>
      </trkpt>
      <trkpt lat="47.95195" lon="-3.87006">
        <ele>158.8</ele>
        <time>2022-12-08T14:44:28Z</time>
      </trkpt>
      <trkpt lat="47.95192" lon="-3.87013">
        <ele>158.8</ele>
        <time>2022-12-08T14:44:29Z</time>
      </trkpt>
      <trkpt lat="47.95189" lon="-3.87019">
        <ele>158.8</ele>
        <time>2022-12-08T14:44:30Z</time>
      </trkpt>
      <trkpt lat="47.95186" lon="-3.87026">
        <ele>158.7</ele>
        <time>2022-12-08T14:44:31Z</time>
      </trkpt>
      <trkpt lat="47.95183" lon="-3.87032">
        <ele>158.7</ele>
        <time>2022-12-08T14:44:32Z</time>
      </trkpt>
      <trkpt lat="47.9518" lon="-3.87039">
        <ele>158.6</ele>
        <time>2022-12-08T14:44:33Z</time>
      </trkpt>
      <trkpt lat="47.95177" lon="-3.87045">
        <ele>158.6</ele>
        <time>2022-12-08T14:44:34Z</time>
      </trkpt>
      <trkpt lat="47.95173" lon="-3.87051">
        <ele>158.5</ele>
        <time>2022-12-08T14:44:35Z</time>
      </trkpt>
      <trkpt lat="47.9517" lon="-3.87058">
        <ele>158.4</ele>
        <time>2022-12-08T14:44:36Z</time>
      </trkpt>
      <trkpt lat="47.95166" lon="-3.87065">
        <ele>158.3</ele>
        <time>2022-12-08T14:44:37Z</time>
      </trkpt>
      <trkpt lat="47.95163" lon="-3.87073">
        <ele>158.1</ele>
        <time>2022-12-08T14:44:38Z</time>
      </trkpt>
      <trkpt lat="47.95159" lon="-3.87081">
        <ele>158</ele>
        <time>2022-12-08T14:44:39Z</time>
      </trkpt>
      <trkpt lat="47.95155" lon="-3.87089">
        <ele>157.9</ele>
        <time>2022-12-08T14:44:40Z</time>
      </trkpt>
      <trkpt lat="47.95152" lon="-3.87098">
        <ele>157.8</ele>
        <time>2022-12-08T14:44:41Z</time>
      </trkpt>
      <trkpt lat="47.95149" lon="-3.87107">
        <ele>157.7</ele>
        <time>2022-12-08T14:44:42Z</time>
      </trkpt>
      <trkpt lat="47.95146" lon="-3.87116">
        <ele>157.6</ele>
        <time>2022-12-08T14:44:43Z</time>
      </trkpt>
      <trkpt lat="47.95143" lon="-3.87125">
        <ele>157.5</ele>
        <time>2022-12-08T14:44:44Z</time>
      </trkpt>
      <trkpt lat="47.95141" lon="-3.87135">
        <ele>157.4</ele>
        <time>2022-12-08T14:44:45Z</time>
      </trkpt>
      <trkpt lat="47.9514" lon="-3.87145">
        <ele>157.3</ele>
        <time>2022-12-08T14:44:46Z</time>
      </trkpt>
      <trkpt lat="47.95138" lon="-3.87155">
        <ele>157.2</ele>
        <time>2022-12-08T14:44:47Z</time>
      </trkpt>
      <trkpt lat="47.95136" lon="-3.87165">
        <ele>157</ele>
        <time>2022-12-08T14:44:48Z</time>
      </trkpt>
      <trkpt lat="47.95135" lon="-3.87175">
        <ele>156.9</ele>
        <time>2022-12-08T14:44:49Z</time>
      </trkpt>
      <trkpt lat="47.95134" lon="-3.87184">
        <ele>156.7</ele>
        <time>2022-12-08T14:44:50Z</time>
      </trkpt>
      <trkpt lat="47.95133" lon="-3.87194">
        <ele>156.5</ele>
        <time>2022-12-08T14:44:51Z</time>
      </trkpt>
      <trkpt lat="47.95132" lon="-3.87205">
        <ele>156.3</ele>
        <time>2022-12-08T14:44:52Z</time>
      </trkpt>
      <trkpt lat="47.95131" lon="-3.87216">
        <ele>156</ele>
        <time>2022-12-08T14:44:53Z</time>
      </trkpt>
      <trkpt lat="47.9513" lon="-3.87227">
        <ele>155.8</ele>
        <time>2022-12-08T14:44:54Z</time>
      </trkpt>
      <trkpt lat="47.95129" lon="-3.87238">
        <ele>155.5</ele>
        <time>2022-12-08T14:44:55Z</time>
      </trkpt>
      <trkpt lat="47.95129" lon="-3.87249">
        <ele>155.3</ele>
        <time>2022-12-08T14:44:56Z</time>
      </trkpt>
      <trkpt lat="47.95128" lon="-3.87261">
        <ele>155</ele>
        <time>2022-12-08T14:44:57Z</time>
      </trkpt>
      <trkpt lat="47.95128" lon="-3.87273">
        <ele>154.7</ele>
        <time>2022-12-08T14:44:58Z</time>
      </trkpt>
      <trkpt lat="47.95127" lon="-3.87285">
        <ele>154.4</ele>
        <time>2022-12-08T14:44:59Z</time>
      </trkpt>
      <trkpt lat="47.95126" lon="-3.87297">
        <ele>154.1</ele>
        <time>2022-12-08T14:45:00Z</time>
      </trkpt>
      <trkpt lat="47.95125" lon="-3.87309">
        <ele>153.8</ele>
        <time>2022-12-08T14:45:01Z</time>
      </trkpt>
      <trkpt lat="47.95123" lon="-3.87321">
        <ele>153.4</ele>
        <time>2022-12-08T14:45:02Z</time>
      </trkpt>
      <trkpt lat="47.95121" lon="-3.87333">
        <ele>153</ele>
        <time>2022-12-08T14:45:03Z</time>
      </trkpt>
      <trkpt lat="47.95118" lon="-3.87345">
        <ele>152.5</ele>
        <time>2022-12-08T14:45:04Z</time>
      </trkpt>
      <trkpt lat="47.95114" lon="-3.87357">
        <ele>152</ele>
        <time>2022-12-08T14:45:05Z</time>
      </trkpt>
      <trkpt lat="47.95111" lon="-3.8737">
        <ele>151.4</ele>
        <time>2022-12-08T14:45:06Z</time>
      </trkpt>
      <trkpt lat="47.95106" lon="-3.87382">
        <ele>150.9</ele>
        <time>2022-12-08T14:45:07Z</time>
      </trkpt>
      <trkpt lat="47.95102" lon="-3.87395">
        <ele>150.3</ele>
        <time>2022-12-08T14:45:08Z</time>
      </trkpt>
      <trkpt lat="47.95097" lon="-3.87407">
        <ele>149.8</ele>
        <time>2022-12-08T14:45:09Z</time>
      </trkpt>
      <trkpt lat="47.95092" lon="-3.87419">
        <ele>149.4</ele>
        <time>2022-12-08T14:45:10Z</time>
      </trkpt>
      <trkpt lat="47.95087" lon="-3.87429">
        <ele>149</ele>
        <time>2022-12-08T14:45:11Z</time>
      </trkpt>
      <trkpt lat="47.95084" lon="-3.8744">
        <ele>148.8</ele>
        <time>2022-12-08T14:45:12Z</time>
      </trkpt>
      <trkpt lat="47.95081" lon="-3.87463">
        <ele>148.4</ele>
        <time>2022-12-08T14:45:14Z</time>
      </trkpt>
      <trkpt lat="47.95082" lon="-3.87475">
        <ele>148.2</ele>
        <time>2022-12-08T14:45:15Z</time>
      </trkpt>
      <trkpt lat="47.95082" lon="-3.87485">
        <ele>148</ele>
        <time>2022-12-08T14:45:16Z</time>
      </trkpt>
      <trkpt lat="47.95082" lon="-3.87492">
        <ele>148</ele>
        <time>2022-12-08T14:45:17Z</time>
      </trkpt>
      <trkpt lat="47.95081" lon="-3.87498">
        <ele>147.9</ele>
        <time>2022-12-08T14:45:18Z</time>
      </trkpt>
      <trkpt lat="47.95078" lon="-3.875">
        <ele>147.7</ele>
        <time>2022-12-08T14:45:19Z</time>
      </trkpt>
      <trkpt lat="47.95075" lon="-3.87502">
        <ele>147.5</ele>
        <time>2022-12-08T14:45:20Z</time>
      </trkpt>
      <trkpt lat="47.9507" lon="-3.87505">
        <ele>147.2</ele>
        <time>2022-12-08T14:45:21Z</time>
      </trkpt>
      <trkpt lat="47.95064" lon="-3.87505">
        <ele>146.8</ele>
        <time>2022-12-08T14:45:22Z</time>
      </trkpt>
      <trkpt lat="47.95059" lon="-3.875">
        <ele>146.5</ele>
        <time>2022-12-08T14:45:23Z</time>
      </trkpt>
      <trkpt lat="47.95054" lon="-3.87496">
        <ele>146.1</ele>
        <time>2022-12-08T14:45:24Z</time>
      </trkpt>
      <trkpt lat="47.95049" lon="-3.87494">
        <ele>145.7</ele>
        <time>2022-12-08T14:45:25Z</time>
      </trkpt>
      <trkpt lat="47.95043" lon="-3.87492">
        <ele>145.3</ele>
        <time>2022-12-08T14:45:26Z</time>
      </trkpt>
      <trkpt lat="47.95038" lon="-3.87493">
        <ele>144.9</ele>
        <time>2022-12-08T14:45:27Z</time>
      </trkpt>
      <trkpt lat="47.95033" lon="-3.87498">
        <ele>144.5</ele>
        <time>2022-12-08T14:45:28Z</time>
      </trkpt>
      <trkpt lat="47.95029" lon="-3.87504">
        <ele>144.2</ele>
        <time>2022-12-08T14:45:29Z</time>
      </trkpt>
      <trkpt lat="47.95025" lon="-3.8751">
        <ele>143.8</ele>
        <time>2022-12-08T14:45:30Z</time>
      </trkpt>
      <trkpt lat="47.95021" lon="-3.87516">
        <ele>143.5</ele>
        <time>2022-12-08T14:45:31Z</time>
      </trkpt>
      <trkpt lat="47.95017" lon="-3.87522">
        <ele>143.3</ele>
        <time>2022-12-08T14:45:32Z</time>
      </trkpt>
      <trkpt lat="47.95013" lon="-3.87528">
        <ele>143.1</ele>
        <time>2022-12-08T14:45:33Z</time>
      </trkpt>
      <trkpt lat="47.95009" lon="-3.87533">
        <ele>143</ele>
        <time>2022-12-08T14:45:34Z</time>
      </trkpt>
      <trkpt lat="47.95004" lon="-3.8754">
        <ele>142.9</ele>
        <time>2022-12-08T14:45:35Z</time>
      </trkpt>
      <trkpt lat="47.95" lon="-3.87548">
        <ele>142.8</ele>
        <time>2022-12-08T14:45:36Z</time>
      </trkpt>
      <trkpt lat="47.94996" lon="-3.87555">
        <ele>142.7</ele>
        <time>2022-12-08T14:45:37Z</time>
      </trkpt>
      <trkpt lat="47.94993" lon="-3.87563">
        <ele>142.6</ele>
        <time>2022-12-08T14:45:38Z</time>
      </trkpt>
      <trkpt lat="47.94989" lon="-3.87571">
        <ele>142.4</ele>
        <time>2022-12-08T14:45:39Z</time>
      </trkpt>
      <trkpt lat="47.94986" lon="-3.8758">
        <ele>142.3</ele>
        <time>2022-12-08T14:45:40Z</time>
      </trkpt>
      <trkpt lat="47.94982" lon="-3.87588">
        <ele>142.3</ele>
        <time>2022-12-08T14:45:41Z</time>
      </trkpt>
      <trkpt lat="47.94978" lon="-3.87595">
        <ele>142.2</ele>
        <time>2022-12-08T14:45:42Z</time>
      </trkpt>
      <trkpt lat="47.94974" lon="-3.87601">
        <ele>142.1</ele>
        <time>2022-12-08T14:45:43Z</time>
      </trkpt>
      <trkpt lat="47.9497" lon="-3.87606">
        <ele>142</ele>
        <time>2022-12-08T14:45:44Z</time>
      </trkpt>
      <trkpt lat="47.94966" lon="-3.87613">
        <ele>141.9</ele>
        <time>2022-12-08T14:45:45Z</time>
      </trkpt>
      <trkpt lat="47.94962" lon="-3.8762">
        <ele>141.8</ele>
        <time>2022-12-08T14:45:46Z</time>
      </trkpt>
      <trkpt lat="47.94958" lon="-3.87626">
        <ele>141.7</ele>
        <time>2022-12-08T14:45:47Z</time>
      </trkpt>
      <trkpt lat="47.94954" lon="-3.87631">
        <ele>141.6</ele>
        <time>2022-12-08T14:45:48Z</time>
      </trkpt>
      <trkpt lat="47.94949" lon="-3.87638">
        <ele>141.5</ele>
        <time>2022-12-08T14:45:49Z</time>
      </trkpt>
      <trkpt lat="47.94945" lon="-3.87645">
        <ele>141.3</ele>
        <time>2022-12-08T14:45:50Z</time>
      </trkpt>
      <trkpt lat="47.9494" lon="-3.87654">
        <ele>141.1</ele>
        <time>2022-12-08T14:45:51Z</time>
      </trkpt>
      <trkpt lat="47.94936" lon="-3.8766">
        <ele>140.9</ele>
        <time>2022-12-08T14:45:52Z</time>
      </trkpt>
      <trkpt lat="47.94932" lon="-3.87666">
        <ele>140.7</ele>
        <time>2022-12-08T14:45:53Z</time>
      </trkpt>
      <trkpt lat="47.94928" lon="-3.87673">
        <ele>140.6</ele>
        <time>2022-12-08T14:45:54Z</time>
      </trkpt>
      <trkpt lat="47.94924" lon="-3.87681">
        <ele>140.4</ele>
        <time>2022-12-08T14:45:55Z</time>
      </trkpt>
      <trkpt lat="47.9492" lon="-3.87687">
        <ele>140.2</ele>
        <time>2022-12-08T14:45:56Z</time>
      </trkpt>
      <trkpt lat="47.94915" lon="-3.87693">
        <ele>140</ele>
        <time>2022-12-08T14:45:57Z</time>
      </trkpt>
      <trkpt lat="47.9491" lon="-3.877">
        <ele>139.7</ele>
        <time>2022-12-08T14:45:58Z</time>
      </trkpt>
      <trkpt lat="47.94906" lon="-3.87707">
        <ele>139.3</ele>
        <time>2022-12-08T14:45:59Z</time>
      </trkpt>
      <trkpt lat="47.94901" lon="-3.87714">
        <ele>139</ele>
        <time>2022-12-08T14:46:00Z</time>
      </trkpt>
      <trkpt lat="47.94896" lon="-3.87721">
        <ele>138.6</ele>
        <time>2022-12-08T14:46:01Z</time>
      </trkpt>
      <trkpt lat="47.94893" lon="-3.87728">
        <ele>138.3</ele>
        <time>2022-12-08T14:46:02Z</time>
      </trkpt>
      <trkpt lat="47.94889" lon="-3.87737">
        <ele>137.9</ele>
        <time>2022-12-08T14:46:03Z</time>
      </trkpt>
      <trkpt lat="47.94884" lon="-3.87746">
        <ele>137.5</ele>
        <time>2022-12-08T14:46:04Z</time>
      </trkpt>
      <trkpt lat="47.94879" lon="-3.87754">
        <ele>137.1</ele>
        <time>2022-12-08T14:46:05Z</time>
      </trkpt>
      <trkpt lat="47.94874" lon="-3.87763">
        <ele>136.8</ele>
        <time>2022-12-08T14:46:06Z</time>
      </trkpt>
      <trkpt lat="47.94869" lon="-3.87772">
        <ele>136.6</ele>
        <time>2022-12-08T14:46:07Z</time>
      </trkpt>
      <trkpt lat="47.94865" lon="-3.87781">
        <ele>136.4</ele>
        <time>2022-12-08T14:46:08Z</time>
      </trkpt>
      <trkpt lat="47.94861" lon="-3.87789">
        <ele>136.2</ele>
        <time>2022-12-08T14:46:09Z</time>
      </trkpt>
      <trkpt lat="47.94857" lon="-3.87797">
        <ele>136</ele>
        <time>2022-12-08T14:46:10Z</time>
      </trkpt>
      <trkpt lat="47.94853" lon="-3.87805">
        <ele>135.9</ele>
        <time>2022-12-08T14:46:11Z</time>
      </trkpt>
      <trkpt lat="47.9485" lon="-3.87812">
        <ele>135.8</ele>
        <time>2022-12-08T14:46:12Z</time>
      </trkpt>
      <trkpt lat="47.94846" lon="-3.87819">
        <ele>135.7</ele>
        <time>2022-12-08T14:46:13Z</time>
      </trkpt>
      <trkpt lat="47.94842" lon="-3.87827">
        <ele>135.6</ele>
        <time>2022-12-08T14:46:14Z</time>
      </trkpt>
      <trkpt lat="47.94838" lon="-3.87835">
        <ele>135.6</ele>
        <time>2022-12-08T14:46:15Z</time>
      </trkpt>
      <trkpt lat="47.94834" lon="-3.87842">
        <ele>135.5</ele>
        <time>2022-12-08T14:46:16Z</time>
      </trkpt>
      <trkpt lat="47.9483" lon="-3.87848">
        <ele>135.5</ele>
        <time>2022-12-08T14:46:17Z</time>
      </trkpt>
      <trkpt lat="47.94826" lon="-3.87855">
        <ele>135.5</ele>
        <time>2022-12-08T14:46:18Z</time>
      </trkpt>
      <trkpt lat="47.94822" lon="-3.87862">
        <ele>135.5</ele>
        <time>2022-12-08T14:46:19Z</time>
      </trkpt>
      <trkpt lat="47.94818" lon="-3.87869">
        <ele>135.5</ele>
        <time>2022-12-08T14:46:20Z</time>
      </trkpt>
      <trkpt lat="47.94815" lon="-3.87876">
        <ele>135.6</ele>
        <time>2022-12-08T14:46:21Z</time>
      </trkpt>
      <trkpt lat="47.94813" lon="-3.87883">
        <ele>135.6</ele>
        <time>2022-12-08T14:46:22Z</time>
      </trkpt>
      <trkpt lat="47.94812" lon="-3.87892">
        <ele>135.7</ele>
        <time>2022-12-08T14:46:23Z</time>
      </trkpt>
      <trkpt lat="47.9481" lon="-3.87899">
        <ele>135.8</ele>
        <time>2022-12-08T14:46:24Z</time>
      </trkpt>
      <trkpt lat="47.94809" lon="-3.87906">
        <ele>135.9</ele>
        <time>2022-12-08T14:46:25Z</time>
      </trkpt>
      <trkpt lat="47.94808" lon="-3.87914">
        <ele>136</ele>
        <time>2022-12-08T14:46:26Z</time>
      </trkpt>
      <trkpt lat="47.94808" lon="-3.87921">
        <ele>136</ele>
        <time>2022-12-08T14:46:27Z</time>
      </trkpt>
      <trkpt lat="47.94807" lon="-3.87929">
        <ele>136.1</ele>
        <time>2022-12-08T14:46:28Z</time>
      </trkpt>
      <trkpt lat="47.94806" lon="-3.87937">
        <ele>136.1</ele>
        <time>2022-12-08T14:46:29Z</time>
      </trkpt>
      <trkpt lat="47.94805" lon="-3.87944">
        <ele>136.2</ele>
        <time>2022-12-08T14:46:30Z</time>
      </trkpt>
      <trkpt lat="47.94805" lon="-3.87952">
        <ele>136.2</ele>
        <time>2022-12-08T14:46:31Z</time>
      </trkpt>
      <trkpt lat="47.94805" lon="-3.8796">
        <ele>136.2</ele>
        <time>2022-12-08T14:46:32Z</time>
      </trkpt>
      <trkpt lat="47.94804" lon="-3.87968">
        <ele>136.2</ele>
        <time>2022-12-08T14:46:33Z</time>
      </trkpt>
      <trkpt lat="47.94803" lon="-3.87975">
        <ele>136.2</ele>
        <time>2022-12-08T14:46:34Z</time>
      </trkpt>
      <trkpt lat="47.94802" lon="-3.87983">
        <ele>136.2</ele>
        <time>2022-12-08T14:46:35Z</time>
      </trkpt>
      <trkpt lat="47.948" lon="-3.87991">
        <ele>136.2</ele>
        <time>2022-12-08T14:46:36Z</time>
      </trkpt>
      <trkpt lat="47.94798" lon="-3.87998">
        <ele>136.2</ele>
        <time>2022-12-08T14:46:37Z</time>
      </trkpt>
      <trkpt lat="47.94796" lon="-3.88006">
        <ele>136.1</ele>
        <time>2022-12-08T14:46:38Z</time>
      </trkpt>
      <trkpt lat="47.94794" lon="-3.88013">
        <ele>136.1</ele>
        <time>2022-12-08T14:46:39Z</time>
      </trkpt>
      <trkpt lat="47.94792" lon="-3.8802">
        <ele>136.1</ele>
        <time>2022-12-08T14:46:40Z</time>
      </trkpt>
      <trkpt lat="47.9479" lon="-3.88026">
        <ele>136</ele>
        <time>2022-12-08T14:46:41Z</time>
      </trkpt>
      <trkpt lat="47.94787" lon="-3.88033">
        <ele>136</ele>
        <time>2022-12-08T14:46:42Z</time>
      </trkpt>
      <trkpt lat="47.94785" lon="-3.88041">
        <ele>135.9</ele>
        <time>2022-12-08T14:46:43Z</time>
      </trkpt>
      <trkpt lat="47.94782" lon="-3.88049">
        <ele>135.8</ele>
        <time>2022-12-08T14:46:44Z</time>
      </trkpt>
      <trkpt lat="47.9478" lon="-3.88056">
        <ele>135.7</ele>
        <time>2022-12-08T14:46:45Z</time>
      </trkpt>
      <trkpt lat="47.94777" lon="-3.88065">
        <ele>135.7</ele>
        <time>2022-12-08T14:46:46Z</time>
      </trkpt>
      <trkpt lat="47.94775" lon="-3.88074">
        <ele>135.6</ele>
        <time>2022-12-08T14:46:47Z</time>
      </trkpt>
      <trkpt lat="47.94773" lon="-3.88082">
        <ele>135.5</ele>
        <time>2022-12-08T14:46:48Z</time>
      </trkpt>
      <trkpt lat="47.94772" lon="-3.88091">
        <ele>135.4</ele>
        <time>2022-12-08T14:46:49Z</time>
      </trkpt>
      <trkpt lat="47.94771" lon="-3.881">
        <ele>135.3</ele>
        <time>2022-12-08T14:46:50Z</time>
      </trkpt>
      <trkpt lat="47.94769" lon="-3.88109">
        <ele>135.3</ele>
        <time>2022-12-08T14:46:51Z</time>
      </trkpt>
      <trkpt lat="47.94768" lon="-3.88119">
        <ele>135.2</ele>
        <time>2022-12-08T14:46:52Z</time>
      </trkpt>
      <trkpt lat="47.94766" lon="-3.88128">
        <ele>135.1</ele>
        <time>2022-12-08T14:46:53Z</time>
      </trkpt>
      <trkpt lat="47.94766" lon="-3.88138">
        <ele>135.1</ele>
        <time>2022-12-08T14:46:54Z</time>
      </trkpt>
      <trkpt lat="47.94765" lon="-3.88147">
        <ele>135</ele>
        <time>2022-12-08T14:46:55Z</time>
      </trkpt>
      <trkpt lat="47.94764" lon="-3.88156">
        <ele>135</ele>
        <time>2022-12-08T14:46:56Z</time>
      </trkpt>
      <trkpt lat="47.94764" lon="-3.88166">
        <ele>134.9</ele>
        <time>2022-12-08T14:46:57Z</time>
      </trkpt>
      <trkpt lat="47.94763" lon="-3.88174">
        <ele>134.9</ele>
        <time>2022-12-08T14:46:58Z</time>
      </trkpt>
      <trkpt lat="47.94763" lon="-3.88183">
        <ele>134.9</ele>
        <time>2022-12-08T14:46:59Z</time>
      </trkpt>
      <trkpt lat="47.94762" lon="-3.88191">
        <ele>134.8</ele>
        <time>2022-12-08T14:47:00Z</time>
      </trkpt>
      <trkpt lat="47.9476" lon="-3.882">
        <ele>134.8</ele>
        <time>2022-12-08T14:47:01Z</time>
      </trkpt>
      <trkpt lat="47.94759" lon="-3.88208">
        <ele>134.8</ele>
        <time>2022-12-08T14:47:02Z</time>
      </trkpt>
      <trkpt lat="47.94757" lon="-3.88216">
        <ele>134.8</ele>
        <time>2022-12-08T14:47:03Z</time>
      </trkpt>
      <trkpt lat="47.94755" lon="-3.88224">
        <ele>134.7</ele>
        <time>2022-12-08T14:47:04Z</time>
      </trkpt>
      <trkpt lat="47.94753" lon="-3.88233">
        <ele>134.7</ele>
        <time>2022-12-08T14:47:05Z</time>
      </trkpt>
      <trkpt lat="47.94752" lon="-3.88242">
        <ele>134.6</ele>
        <time>2022-12-08T14:47:06Z</time>
      </trkpt>
      <trkpt lat="47.9475" lon="-3.88251">
        <ele>134.5</ele>
        <time>2022-12-08T14:47:07Z</time>
      </trkpt>
      <trkpt lat="47.94749" lon="-3.88259">
        <ele>134.4</ele>
        <time>2022-12-08T14:47:08Z</time>
      </trkpt>
      <trkpt lat="47.94747" lon="-3.88268">
        <ele>134.3</ele>
        <time>2022-12-08T14:47:09Z</time>
      </trkpt>
      <trkpt lat="47.94746" lon="-3.88277">
        <ele>134.2</ele>
        <time>2022-12-08T14:47:10Z</time>
      </trkpt>
      <trkpt lat="47.94745" lon="-3.88286">
        <ele>134.1</ele>
        <time>2022-12-08T14:47:11Z</time>
      </trkpt>
      <trkpt lat="47.94743" lon="-3.88293">
        <ele>134.1</ele>
        <time>2022-12-08T14:47:12Z</time>
      </trkpt>
      <trkpt lat="47.94741" lon="-3.88301">
        <ele>134</ele>
        <time>2022-12-08T14:47:13Z</time>
      </trkpt>
      <trkpt lat="47.94738" lon="-3.8831">
        <ele>133.8</ele>
        <time>2022-12-08T14:47:14Z</time>
      </trkpt>
      <trkpt lat="47.94734" lon="-3.88318">
        <ele>133.7</ele>
        <time>2022-12-08T14:47:15Z</time>
      </trkpt>
      <trkpt lat="47.9473" lon="-3.88326">
        <ele>133.5</ele>
        <time>2022-12-08T14:47:16Z</time>
      </trkpt>
      <trkpt lat="47.94726" lon="-3.88334">
        <ele>133.3</ele>
        <time>2022-12-08T14:47:17Z</time>
      </trkpt>
      <trkpt lat="47.94723" lon="-3.88343">
        <ele>133.1</ele>
        <time>2022-12-08T14:47:18Z</time>
      </trkpt>
      <trkpt lat="47.94719" lon="-3.88352">
        <ele>132.8</ele>
        <time>2022-12-08T14:47:19Z</time>
      </trkpt>
      <trkpt lat="47.94716" lon="-3.88361">
        <ele>132.6</ele>
        <time>2022-12-08T14:47:20Z</time>
      </trkpt>
      <trkpt lat="47.94712" lon="-3.8837">
        <ele>132.3</ele>
        <time>2022-12-08T14:47:21Z</time>
      </trkpt>
      <trkpt lat="47.94708" lon="-3.88379">
        <ele>132.1</ele>
        <time>2022-12-08T14:47:22Z</time>
      </trkpt>
      <trkpt lat="47.94704" lon="-3.88389">
        <ele>131.8</ele>
        <time>2022-12-08T14:47:23Z</time>
      </trkpt>
      <trkpt lat="47.947" lon="-3.88398">
        <ele>131.5</ele>
        <time>2022-12-08T14:47:24Z</time>
      </trkpt>
      <trkpt lat="47.94697" lon="-3.88408">
        <ele>131.1</ele>
        <time>2022-12-08T14:47:25Z</time>
      </trkpt>
      <trkpt lat="47.94693" lon="-3.88418">
        <ele>130.7</ele>
        <time>2022-12-08T14:47:26Z</time>
      </trkpt>
      <trkpt lat="47.94689" lon="-3.88429">
        <ele>130.3</ele>
        <time>2022-12-08T14:47:27Z</time>
      </trkpt>
      <trkpt lat="47.94685" lon="-3.8844">
        <ele>129.9</ele>
        <time>2022-12-08T14:47:28Z</time>
      </trkpt>
      <trkpt lat="47.9468" lon="-3.8845">
        <ele>129.5</ele>
        <time>2022-12-08T14:47:29Z</time>
      </trkpt>
      <trkpt lat="47.9467" lon="-3.88471">
        <ele>128.8</ele>
        <time>2022-12-08T14:47:31Z</time>
      </trkpt>
      <trkpt lat="47.94665" lon="-3.88481">
        <ele>128.5</ele>
        <time>2022-12-08T14:47:32Z</time>
      </trkpt>
      <trkpt lat="47.9466" lon="-3.8849">
        <ele>128.1</ele>
        <time>2022-12-08T14:47:33Z</time>
      </trkpt>
      <trkpt lat="47.94654" lon="-3.88501">
        <ele>127.8</ele>
        <time>2022-12-08T14:47:34Z</time>
      </trkpt>
      <trkpt lat="47.94649" lon="-3.8851">
        <ele>127.4</ele>
        <time>2022-12-08T14:47:35Z</time>
      </trkpt>
      <trkpt lat="47.94643" lon="-3.8852">
        <ele>127.1</ele>
        <time>2022-12-08T14:47:36Z</time>
      </trkpt>
      <trkpt lat="47.94637" lon="-3.88529">
        <ele>126.8</ele>
        <time>2022-12-08T14:47:37Z</time>
      </trkpt>
      <trkpt lat="47.94632" lon="-3.88539">
        <ele>126.6</ele>
        <time>2022-12-08T14:47:38Z</time>
      </trkpt>
      <trkpt lat="47.94626" lon="-3.88548">
        <ele>126.4</ele>
        <time>2022-12-08T14:47:39Z</time>
      </trkpt>
      <trkpt lat="47.9462" lon="-3.88555">
        <ele>126.3</ele>
        <time>2022-12-08T14:47:40Z</time>
      </trkpt>
      <trkpt lat="47.94615" lon="-3.88563">
        <ele>126.2</ele>
        <time>2022-12-08T14:47:41Z</time>
      </trkpt>
      <trkpt lat="47.94609" lon="-3.88569">
        <ele>126</ele>
        <time>2022-12-08T14:47:42Z</time>
      </trkpt>
      <trkpt lat="47.94603" lon="-3.88575">
        <ele>125.9</ele>
        <time>2022-12-08T14:47:43Z</time>
      </trkpt>
      <trkpt lat="47.94596" lon="-3.88582">
        <ele>125.8</ele>
        <time>2022-12-08T14:47:44Z</time>
      </trkpt>
      <trkpt lat="47.9459" lon="-3.88588">
        <ele>125.6</ele>
        <time>2022-12-08T14:47:45Z</time>
      </trkpt>
      <trkpt lat="47.94583" lon="-3.88594">
        <ele>125.4</ele>
        <time>2022-12-08T14:47:46Z</time>
      </trkpt>
      <trkpt lat="47.94577" lon="-3.88601">
        <ele>125.3</ele>
        <time>2022-12-08T14:47:47Z</time>
      </trkpt>
      <trkpt lat="47.9457" lon="-3.88607">
        <ele>125.1</ele>
        <time>2022-12-08T14:47:48Z</time>
      </trkpt>
      <trkpt lat="47.94564" lon="-3.88613">
        <ele>125</ele>
        <time>2022-12-08T14:47:49Z</time>
      </trkpt>
      <trkpt lat="47.94558" lon="-3.8862">
        <ele>124.9</ele>
        <time>2022-12-08T14:47:50Z</time>
      </trkpt>
      <trkpt lat="47.94552" lon="-3.88627">
        <ele>124.7</ele>
        <time>2022-12-08T14:47:51Z</time>
      </trkpt>
      <trkpt lat="47.94546" lon="-3.88633">
        <ele>124.6</ele>
        <time>2022-12-08T14:47:52Z</time>
      </trkpt>
      <trkpt lat="47.94539" lon="-3.88639">
        <ele>124.4</ele>
        <time>2022-12-08T14:47:53Z</time>
      </trkpt>
      <trkpt lat="47.94533" lon="-3.88645">
        <ele>124.2</ele>
        <time>2022-12-08T14:47:54Z</time>
      </trkpt>
      <trkpt lat="47.94527" lon="-3.88652">
        <ele>123.9</ele>
        <time>2022-12-08T14:47:55Z</time>
      </trkpt>
      <trkpt lat="47.94521" lon="-3.88658">
        <ele>123.6</ele>
        <time>2022-12-08T14:47:56Z</time>
      </trkpt>
      <trkpt lat="47.94514" lon="-3.88665">
        <ele>123.3</ele>
        <time>2022-12-08T14:47:57Z</time>
      </trkpt>
      <trkpt lat="47.94507" lon="-3.88672">
        <ele>123</ele>
        <time>2022-12-08T14:47:58Z</time>
      </trkpt>
      <trkpt lat="47.94501" lon="-3.8868">
        <ele>122.7</ele>
        <time>2022-12-08T14:47:59Z</time>
      </trkpt>
      <trkpt lat="47.94496" lon="-3.88689">
        <ele>122.4</ele>
        <time>2022-12-08T14:48:00Z</time>
      </trkpt>
      <trkpt lat="47.94491" lon="-3.88698">
        <ele>122.1</ele>
        <time>2022-12-08T14:48:01Z</time>
      </trkpt>
      <trkpt lat="47.94486" lon="-3.88708">
        <ele>121.7</ele>
        <time>2022-12-08T14:48:02Z</time>
      </trkpt>
      <trkpt lat="47.94481" lon="-3.88718">
        <ele>121.4</ele>
        <time>2022-12-08T14:48:03Z</time>
      </trkpt>
      <trkpt lat="47.94476" lon="-3.88728">
        <ele>121</ele>
        <time>2022-12-08T14:48:04Z</time>
      </trkpt>
      <trkpt lat="47.94471" lon="-3.88738">
        <ele>120.7</ele>
        <time>2022-12-08T14:48:05Z</time>
      </trkpt>
      <trkpt lat="47.94465" lon="-3.88749">
        <ele>120.3</ele>
        <time>2022-12-08T14:48:06Z</time>
      </trkpt>
      <trkpt lat="47.9446" lon="-3.8876">
        <ele>119.8</ele>
        <time>2022-12-08T14:48:07Z</time>
      </trkpt>
      <trkpt lat="47.94455" lon="-3.88771">
        <ele>119.4</ele>
        <time>2022-12-08T14:48:08Z</time>
      </trkpt>
      <trkpt lat="47.94449" lon="-3.88782">
        <ele>118.8</ele>
        <time>2022-12-08T14:48:09Z</time>
      </trkpt>
      <trkpt lat="47.94443" lon="-3.88793">
        <ele>118.3</ele>
        <time>2022-12-08T14:48:10Z</time>
      </trkpt>
      <trkpt lat="47.94438" lon="-3.88804">
        <ele>117.8</ele>
        <time>2022-12-08T14:48:11Z</time>
      </trkpt>
      <trkpt lat="47.94432" lon="-3.88816">
        <ele>117.2</ele>
        <time>2022-12-08T14:48:12Z</time>
      </trkpt>
      <trkpt lat="47.94426" lon="-3.88827">
        <ele>116.6</ele>
        <time>2022-12-08T14:48:13Z</time>
      </trkpt>
      <trkpt lat="47.9442" lon="-3.88839">
        <ele>116</ele>
        <time>2022-12-08T14:48:14Z</time>
      </trkpt>
      <trkpt lat="47.94414" lon="-3.88851">
        <ele>115.5</ele>
        <time>2022-12-08T14:48:15Z</time>
      </trkpt>
      <trkpt lat="47.94409" lon="-3.88863">
        <ele>114.9</ele>
        <time>2022-12-08T14:48:16Z</time>
      </trkpt>
      <trkpt lat="47.94403" lon="-3.88876">
        <ele>114.4</ele>
        <time>2022-12-08T14:48:17Z</time>
      </trkpt>
      <trkpt lat="47.94398" lon="-3.88889">
        <ele>113.9</ele>
        <time>2022-12-08T14:48:18Z</time>
      </trkpt>
      <trkpt lat="47.94393" lon="-3.88902">
        <ele>113.3</ele>
        <time>2022-12-08T14:48:19Z</time>
      </trkpt>
      <trkpt lat="47.94389" lon="-3.88915">
        <ele>112.7</ele>
        <time>2022-12-08T14:48:20Z</time>
      </trkpt>
      <trkpt lat="47.94385" lon="-3.88928">
        <ele>112.1</ele>
        <time>2022-12-08T14:48:21Z</time>
      </trkpt>
      <trkpt lat="47.9438" lon="-3.88941">
        <ele>111.5</ele>
        <time>2022-12-08T14:48:22Z</time>
      </trkpt>
      <trkpt lat="47.94375" lon="-3.88954">
        <ele>110.8</ele>
        <time>2022-12-08T14:48:23Z</time>
      </trkpt>
      <trkpt lat="47.94363" lon="-3.88978">
        <ele>109.5</ele>
        <time>2022-12-08T14:48:25Z</time>
      </trkpt>
      <trkpt lat="47.94357" lon="-3.8899">
        <ele>108.9</ele>
        <time>2022-12-08T14:48:26Z</time>
      </trkpt>
      <trkpt lat="47.94351" lon="-3.89003">
        <ele>108.2</ele>
        <time>2022-12-08T14:48:27Z</time>
      </trkpt>
      <trkpt lat="47.94344" lon="-3.89015">
        <ele>107.5</ele>
        <time>2022-12-08T14:48:28Z</time>
      </trkpt>
      <trkpt lat="47.94337" lon="-3.89027">
        <ele>106.9</ele>
        <time>2022-12-08T14:48:29Z</time>
      </trkpt>
      <trkpt lat="47.9433" lon="-3.89039">
        <ele>106.2</ele>
        <time>2022-12-08T14:48:30Z</time>
      </trkpt>
      <trkpt lat="47.94322" lon="-3.89051">
        <ele>105.5</ele>
        <time>2022-12-08T14:48:31Z</time>
      </trkpt>
      <trkpt lat="47.94314" lon="-3.89063">
        <ele>104.8</ele>
        <time>2022-12-08T14:48:32Z</time>
      </trkpt>
      <trkpt lat="47.94307" lon="-3.89076">
        <ele>104.1</ele>
        <time>2022-12-08T14:48:33Z</time>
      </trkpt>
      <trkpt lat="47.943" lon="-3.89089">
        <ele>103.4</ele>
        <time>2022-12-08T14:48:34Z</time>
      </trkpt>
      <trkpt lat="47.94294" lon="-3.89103">
        <ele>102.7</ele>
        <time>2022-12-08T14:48:35Z</time>
      </trkpt>
      <trkpt lat="47.9429" lon="-3.89116">
        <ele>102.2</ele>
        <time>2022-12-08T14:48:36Z</time>
      </trkpt>
      <trkpt lat="47.94288" lon="-3.89129">
        <ele>101.6</ele>
        <time>2022-12-08T14:48:37Z</time>
      </trkpt>
      <trkpt lat="47.94286" lon="-3.89143">
        <ele>101.2</ele>
        <time>2022-12-08T14:48:38Z</time>
      </trkpt>
      <trkpt lat="47.94285" lon="-3.89157">
        <ele>100.7</ele>
        <time>2022-12-08T14:48:39Z</time>
      </trkpt>
      <trkpt lat="47.94285" lon="-3.89171">
        <ele>100.1</ele>
        <time>2022-12-08T14:48:40Z</time>
      </trkpt>
      <trkpt lat="47.94283" lon="-3.89186">
        <ele>99.5</ele>
        <time>2022-12-08T14:48:41Z</time>
      </trkpt>
      <trkpt lat="47.94282" lon="-3.89201">
        <ele>98.9</ele>
        <time>2022-12-08T14:48:42Z</time>
      </trkpt>
      <trkpt lat="47.94283" lon="-3.89216">
        <ele>98.5</ele>
        <time>2022-12-08T14:48:43Z</time>
      </trkpt>
      <trkpt lat="47.94283" lon="-3.89231">
        <ele>98.1</ele>
        <time>2022-12-08T14:48:44Z</time>
      </trkpt>
      <trkpt lat="47.94281" lon="-3.89245">
        <ele>97.6</ele>
        <time>2022-12-08T14:48:45Z</time>
      </trkpt>
      <trkpt lat="47.94278" lon="-3.8926">
        <ele>97.1</ele>
        <time>2022-12-08T14:48:46Z</time>
      </trkpt>
      <trkpt lat="47.94275" lon="-3.89273">
        <ele>96.4</ele>
        <time>2022-12-08T14:48:47Z</time>
      </trkpt>
      <trkpt lat="47.94272" lon="-3.89282">
        <ele>95.9</ele>
        <time>2022-12-08T14:48:48Z</time>
      </trkpt>
      <trkpt lat="47.94267" lon="-3.89289">
        <ele>95.4</ele>
        <time>2022-12-08T14:48:49Z</time>
      </trkpt>
      <trkpt lat="47.94261" lon="-3.89294">
        <ele>95</ele>
        <time>2022-12-08T14:48:50Z</time>
      </trkpt>
      <trkpt lat="47.94256" lon="-3.89296">
        <ele>94.8</ele>
        <time>2022-12-08T14:48:51Z</time>
      </trkpt>
      <trkpt lat="47.94251" lon="-3.89296">
        <ele>94.6</ele>
        <time>2022-12-08T14:48:52Z</time>
      </trkpt>
      <trkpt lat="47.94245" lon="-3.89295">
        <ele>94.5</ele>
        <time>2022-12-08T14:48:53Z</time>
      </trkpt>
      <trkpt lat="47.9424" lon="-3.89295">
        <ele>94.5</ele>
        <time>2022-12-08T14:48:54Z</time>
      </trkpt>
      <trkpt lat="47.94236" lon="-3.89296">
        <ele>94.5</ele>
        <time>2022-12-08T14:48:55Z</time>
      </trkpt>
      <trkpt lat="47.94231" lon="-3.89297">
        <ele>94.6</ele>
        <time>2022-12-08T14:48:56Z</time>
      </trkpt>
      <trkpt lat="47.94226" lon="-3.89297">
        <ele>94.7</ele>
        <time>2022-12-08T14:48:57Z</time>
      </trkpt>
      <trkpt lat="47.94221" lon="-3.89298">
        <ele>94.8</ele>
        <time>2022-12-08T14:48:58Z</time>
      </trkpt>
      <trkpt lat="47.94216" lon="-3.893">
        <ele>94.9</ele>
        <time>2022-12-08T14:48:59Z</time>
      </trkpt>
      <trkpt lat="47.94212" lon="-3.893">
        <ele>95.1</ele>
        <time>2022-12-08T14:49:00Z</time>
      </trkpt>
      <trkpt lat="47.94206" lon="-3.89301">
        <ele>95.3</ele>
        <time>2022-12-08T14:49:01Z</time>
      </trkpt>
      <trkpt lat="47.94201" lon="-3.89301">
        <ele>95.4</ele>
        <time>2022-12-08T14:49:02Z</time>
      </trkpt>
      <trkpt lat="47.94197" lon="-3.89302">
        <ele>95.6</ele>
        <time>2022-12-08T14:49:03Z</time>
      </trkpt>
      <trkpt lat="47.94192" lon="-3.89302">
        <ele>95.8</ele>
        <time>2022-12-08T14:49:04Z</time>
      </trkpt>
      <trkpt lat="47.94187" lon="-3.89302">
        <ele>96.1</ele>
        <time>2022-12-08T14:49:05Z</time>
      </trkpt>
      <trkpt lat="47.94183" lon="-3.89302">
        <ele>96.3</ele>
        <time>2022-12-08T14:49:06Z</time>
      </trkpt>
      <trkpt lat="47.94178" lon="-3.89303">
        <ele>96.5</ele>
        <time>2022-12-08T14:49:07Z</time>
      </trkpt>
      <trkpt lat="47.94172" lon="-3.89303">
        <ele>96.6</ele>
        <time>2022-12-08T14:49:08Z</time>
      </trkpt>
      <trkpt lat="47.94166" lon="-3.89303">
        <ele>96.8</ele>
        <time>2022-12-08T14:49:09Z</time>
      </trkpt>
      <trkpt lat="47.94162" lon="-3.89304">
        <ele>96.9</ele>
        <time>2022-12-08T14:49:10Z</time>
      </trkpt>
      <trkpt lat="47.94158" lon="-3.89304">
        <ele>97</ele>
        <time>2022-12-08T14:49:11Z</time>
      </trkpt>
      <trkpt lat="47.94154" lon="-3.89304">
        <ele>97</ele>
        <time>2022-12-08T14:49:12Z</time>
      </trkpt>
      <trkpt lat="47.94149" lon="-3.89305">
        <ele>97.1</ele>
        <time>2022-12-08T14:49:13Z</time>
      </trkpt>
      <trkpt lat="47.94144" lon="-3.89306">
        <ele>97.2</ele>
        <time>2022-12-08T14:49:14Z</time>
      </trkpt>
      <trkpt lat="47.94139" lon="-3.89307">
        <ele>97.3</ele>
        <time>2022-12-08T14:49:15Z</time>
      </trkpt>
      <trkpt lat="47.94134" lon="-3.89308">
        <ele>97.5</ele>
        <time>2022-12-08T14:49:16Z</time>
      </trkpt>
      <trkpt lat="47.94129" lon="-3.89309">
        <ele>97.6</ele>
        <time>2022-12-08T14:49:17Z</time>
      </trkpt>
      <trkpt lat="47.94125" lon="-3.89309">
        <ele>97.7</ele>
        <time>2022-12-08T14:49:18Z</time>
      </trkpt>
      <trkpt lat="47.9412" lon="-3.8931">
        <ele>97.8</ele>
        <time>2022-12-08T14:49:19Z</time>
      </trkpt>
      <trkpt lat="47.94116" lon="-3.89311">
        <ele>97.9</ele>
        <time>2022-12-08T14:49:20Z</time>
      </trkpt>
      <trkpt lat="47.94114" lon="-3.89312">
        <ele>97.9</ele>
        <time>2022-12-08T14:49:21Z</time>
      </trkpt>
      <trkpt lat="47.94105" lon="-3.89318">
        <ele>97.9</ele>
        <time>2022-12-08T14:49:23Z</time>
      </trkpt>
      <trkpt lat="47.94101" lon="-3.89322">
        <ele>97.9</ele>
        <time>2022-12-08T14:49:24Z</time>
      </trkpt>
      <trkpt lat="47.94099" lon="-3.89326">
        <ele>97.7</ele>
        <time>2022-12-08T14:49:25Z</time>
      </trkpt>
      <trkpt lat="47.94095" lon="-3.89333">
        <ele>97.4</ele>
        <time>2022-12-08T14:49:26Z</time>
      </trkpt>
      <trkpt lat="47.9409" lon="-3.89344">
        <ele>96.8</ele>
        <time>2022-12-08T14:49:27Z</time>
      </trkpt>
      <trkpt lat="47.94085" lon="-3.89353">
        <ele>96.2</ele>
        <time>2022-12-08T14:49:29Z</time>
      </trkpt>
      <trkpt lat="47.94081" lon="-3.89358">
        <ele>95.8</ele>
        <time>2022-12-08T14:49:30Z</time>
      </trkpt>
      <trkpt lat="47.94078" lon="-3.89364">
        <ele>95.4</ele>
        <time>2022-12-08T14:49:31Z</time>
      </trkpt>
      <trkpt lat="47.94076" lon="-3.89371">
        <ele>95.1</ele>
        <time>2022-12-08T14:49:32Z</time>
      </trkpt>
      <trkpt lat="47.94075" lon="-3.89378">
        <ele>94.5</ele>
        <time>2022-12-08T14:49:33Z</time>
      </trkpt>
      <trkpt lat="47.94077" lon="-3.89386">
        <ele>94.2</ele>
        <time>2022-12-08T14:49:34Z</time>
      </trkpt>
      <trkpt lat="47.94078" lon="-3.89395">
        <ele>93.8</ele>
        <time>2022-12-08T14:49:35Z</time>
      </trkpt>
      <trkpt lat="47.9408" lon="-3.89404">
        <ele>93.5</ele>
        <time>2022-12-08T14:49:36Z</time>
      </trkpt>
      <trkpt lat="47.94082" lon="-3.89413">
        <ele>93.1</ele>
        <time>2022-12-08T14:49:37Z</time>
      </trkpt>
      <trkpt lat="47.94084" lon="-3.89423">
        <ele>92.7</ele>
        <time>2022-12-08T14:49:38Z</time>
      </trkpt>
      <trkpt lat="47.94086" lon="-3.89433">
        <ele>92.3</ele>
        <time>2022-12-08T14:49:39Z</time>
      </trkpt>
      <trkpt lat="47.94087" lon="-3.89444">
        <ele>91.9</ele>
        <time>2022-12-08T14:49:40Z</time>
      </trkpt>
      <trkpt lat="47.94085" lon="-3.89454">
        <ele>91.6</ele>
        <time>2022-12-08T14:49:41Z</time>
      </trkpt>
      <trkpt lat="47.9408" lon="-3.89461">
        <ele>91.8</ele>
        <time>2022-12-08T14:49:42Z</time>
      </trkpt>
      <trkpt lat="47.94076" lon="-3.89466">
        <ele>91.9</ele>
        <time>2022-12-08T14:49:43Z</time>
      </trkpt>
      <trkpt lat="47.94073" lon="-3.89471">
        <ele>91.9</ele>
        <time>2022-12-08T14:49:44Z</time>
      </trkpt>
      <trkpt lat="47.94072" lon="-3.89475">
        <ele>92</ele>
        <time>2022-12-08T14:49:45Z</time>
      </trkpt>
      <trkpt lat="47.94069" lon="-3.8948">
        <ele>92</ele>
        <time>2022-12-08T14:49:46Z</time>
      </trkpt>
      <trkpt lat="47.94066" lon="-3.89488">
        <ele>92</ele>
        <time>2022-12-08T14:49:47Z</time>
      </trkpt>
      <trkpt lat="47.94063" lon="-3.89494">
        <ele>92</ele>
        <time>2022-12-08T14:49:48Z</time>
      </trkpt>
      <trkpt lat="47.94061" lon="-3.895">
        <ele>92.1</ele>
        <time>2022-12-08T14:49:49Z</time>
      </trkpt>
      <trkpt lat="47.94059" lon="-3.89504">
        <ele>92.1</ele>
        <time>2022-12-08T14:49:50Z</time>
      </trkpt>
      <trkpt lat="47.94055" lon="-3.89509">
        <ele>92.1</ele>
        <time>2022-12-08T14:49:52Z</time>
      </trkpt>
      <trkpt lat="47.94052" lon="-3.89514">
        <ele>92.1</ele>
        <time>2022-12-08T14:49:53Z</time>
      </trkpt>
      <trkpt lat="47.9405" lon="-3.8952">
        <ele>92.1</ele>
        <time>2022-12-08T14:49:54Z</time>
      </trkpt>
      <trkpt lat="47.94048" lon="-3.89532">
        <ele>92</ele>
        <time>2022-12-08T14:49:55Z</time>
      </trkpt>
      <trkpt lat="47.94047" lon="-3.89539">
        <ele>92</ele>
        <time>2022-12-08T14:49:56Z</time>
      </trkpt>
      <trkpt lat="47.94044" lon="-3.89546">
        <ele>91.9</ele>
        <time>2022-12-08T14:49:57Z</time>
      </trkpt>
      <trkpt lat="47.94041" lon="-3.89553">
        <ele>91.7</ele>
        <time>2022-12-08T14:49:58Z</time>
      </trkpt>
      <trkpt lat="47.94039" lon="-3.89561">
        <ele>91.5</ele>
        <time>2022-12-08T14:49:59Z</time>
      </trkpt>
      <trkpt lat="47.94035" lon="-3.89567">
        <ele>91.2</ele>
        <time>2022-12-08T14:50:00Z</time>
      </trkpt>
      <trkpt lat="47.9403" lon="-3.89572">
        <ele>90.8</ele>
        <time>2022-12-08T14:50:01Z</time>
      </trkpt>
      <trkpt lat="47.94024" lon="-3.89577">
        <ele>90.3</ele>
        <time>2022-12-08T14:50:02Z</time>
      </trkpt>
      <trkpt lat="47.94018" lon="-3.89582">
        <ele>89.7</ele>
        <time>2022-12-08T14:50:03Z</time>
      </trkpt>
      <trkpt lat="47.94013" lon="-3.89583">
        <ele>89.2</ele>
        <time>2022-12-08T14:50:04Z</time>
      </trkpt>
      <trkpt lat="47.94006" lon="-3.89582">
        <ele>88.5</ele>
        <time>2022-12-08T14:50:05Z</time>
      </trkpt>
      <trkpt lat="47.93997" lon="-3.89581">
        <ele>87.6</ele>
        <time>2022-12-08T14:50:06Z</time>
      </trkpt>
      <trkpt lat="47.93989" lon="-3.8958">
        <ele>86.8</ele>
        <time>2022-12-08T14:50:07Z</time>
      </trkpt>
      <trkpt lat="47.9398" lon="-3.89577">
        <ele>86</ele>
        <time>2022-12-08T14:50:08Z</time>
      </trkpt>
      <trkpt lat="47.93971" lon="-3.89573">
        <ele>85.1</ele>
        <time>2022-12-08T14:50:09Z</time>
      </trkpt>
      <trkpt lat="47.93962" lon="-3.8957">
        <ele>84.4</ele>
        <time>2022-12-08T14:50:10Z</time>
      </trkpt>
      <trkpt lat="47.93953" lon="-3.89565">
        <ele>83.7</ele>
        <time>2022-12-08T14:50:11Z</time>
      </trkpt>
      <trkpt lat="47.93943" lon="-3.89562">
        <ele>83.1</ele>
        <time>2022-12-08T14:50:12Z</time>
      </trkpt>
      <trkpt lat="47.93933" lon="-3.89559">
        <ele>82.6</ele>
        <time>2022-12-08T14:50:13Z</time>
      </trkpt>
      <trkpt lat="47.93924" lon="-3.89558">
        <ele>82.2</ele>
        <time>2022-12-08T14:50:14Z</time>
      </trkpt>
      <trkpt lat="47.93914" lon="-3.89557">
        <ele>81.9</ele>
        <time>2022-12-08T14:50:15Z</time>
      </trkpt>
      <trkpt lat="47.93905" lon="-3.89558">
        <ele>81.7</ele>
        <time>2022-12-08T14:50:16Z</time>
      </trkpt>
      <trkpt lat="47.93896" lon="-3.89561">
        <ele>81.4</ele>
        <time>2022-12-08T14:50:17Z</time>
      </trkpt>
      <trkpt lat="47.93888" lon="-3.89565">
        <ele>81.3</ele>
        <time>2022-12-08T14:50:18Z</time>
      </trkpt>
      <trkpt lat="47.9388" lon="-3.89572">
        <ele>81.1</ele>
        <time>2022-12-08T14:50:19Z</time>
      </trkpt>
      <trkpt lat="47.93873" lon="-3.89578">
        <ele>81</ele>
        <time>2022-12-08T14:50:20Z</time>
      </trkpt>
      <trkpt lat="47.93866" lon="-3.89585">
        <ele>81</ele>
        <time>2022-12-08T14:50:21Z</time>
      </trkpt>
      <trkpt lat="47.9386" lon="-3.89591">
        <ele>81</ele>
        <time>2022-12-08T14:50:22Z</time>
      </trkpt>
      <trkpt lat="47.93853" lon="-3.89598">
        <ele>81.1</ele>
        <time>2022-12-08T14:50:23Z</time>
      </trkpt>
      <trkpt lat="47.93846" lon="-3.89603">
        <ele>81.2</ele>
        <time>2022-12-08T14:50:24Z</time>
      </trkpt>
      <trkpt lat="47.93839" lon="-3.89606">
        <ele>81.3</ele>
        <time>2022-12-08T14:50:25Z</time>
      </trkpt>
      <trkpt lat="47.93832" lon="-3.89606">
        <ele>81.4</ele>
        <time>2022-12-08T14:50:26Z</time>
      </trkpt>
      <trkpt lat="47.93826" lon="-3.89603">
        <ele>81.5</ele>
        <time>2022-12-08T14:50:27Z</time>
      </trkpt>
      <trkpt lat="47.9382" lon="-3.89601">
        <ele>81.6</ele>
        <time>2022-12-08T14:50:28Z</time>
      </trkpt>
      <trkpt lat="47.93815" lon="-3.896">
        <ele>81.7</ele>
        <time>2022-12-08T14:50:29Z</time>
      </trkpt>
      <trkpt lat="47.93808" lon="-3.89597">
        <ele>81.9</ele>
        <time>2022-12-08T14:50:30Z</time>
      </trkpt>
      <trkpt lat="47.93803" lon="-3.89596">
        <ele>82</ele>
        <time>2022-12-08T14:50:31Z</time>
      </trkpt>
      <trkpt lat="47.93798" lon="-3.89594">
        <ele>82.2</ele>
        <time>2022-12-08T14:50:32Z</time>
      </trkpt>
      <trkpt lat="47.93792" lon="-3.89591">
        <ele>82.3</ele>
        <time>2022-12-08T14:50:33Z</time>
      </trkpt>
      <trkpt lat="47.93786" lon="-3.89589">
        <ele>82.5</ele>
        <time>2022-12-08T14:50:34Z</time>
      </trkpt>
      <trkpt lat="47.9378" lon="-3.89588">
        <ele>82.7</ele>
        <time>2022-12-08T14:50:35Z</time>
      </trkpt>
      <trkpt lat="47.93775" lon="-3.89588">
        <ele>82.8</ele>
        <time>2022-12-08T14:50:36Z</time>
      </trkpt>
      <trkpt lat="47.9377" lon="-3.89588">
        <ele>82.9</ele>
        <time>2022-12-08T14:50:37Z</time>
      </trkpt>
      <trkpt lat="47.93759" lon="-3.89588">
        <ele>83.1</ele>
        <time>2022-12-08T14:50:39Z</time>
      </trkpt>
      <trkpt lat="47.93754" lon="-3.89588">
        <ele>83.2</ele>
        <time>2022-12-08T14:50:40Z</time>
      </trkpt>
      <trkpt lat="47.93748" lon="-3.89588">
        <ele>83.4</ele>
        <time>2022-12-08T14:50:41Z</time>
      </trkpt>
      <trkpt lat="47.93742" lon="-3.89588">
        <ele>83.5</ele>
        <time>2022-12-08T14:50:42Z</time>
      </trkpt>
      <trkpt lat="47.93737" lon="-3.89589">
        <ele>83.6</ele>
        <time>2022-12-08T14:50:43Z</time>
      </trkpt>
      <trkpt lat="47.93731" lon="-3.8959">
        <ele>83.7</ele>
        <time>2022-12-08T14:50:44Z</time>
      </trkpt>
      <trkpt lat="47.93726" lon="-3.89591">
        <ele>83.8</ele>
        <time>2022-12-08T14:50:45Z</time>
      </trkpt>
      <trkpt lat="47.93721" lon="-3.89592">
        <ele>84</ele>
        <time>2022-12-08T14:50:46Z</time>
      </trkpt>
      <trkpt lat="47.93716" lon="-3.89593">
        <ele>84.1</ele>
        <time>2022-12-08T14:50:47Z</time>
      </trkpt>
      <trkpt lat="47.93711" lon="-3.89595">
        <ele>84.3</ele>
        <time>2022-12-08T14:50:48Z</time>
      </trkpt>
      <trkpt lat="47.93706" lon="-3.89597">
        <ele>84.5</ele>
        <time>2022-12-08T14:50:49Z</time>
      </trkpt>
      <trkpt lat="47.93697" lon="-3.89602">
        <ele>84.9</ele>
        <time>2022-12-08T14:50:51Z</time>
      </trkpt>
      <trkpt lat="47.93692" lon="-3.89604">
        <ele>85.1</ele>
        <time>2022-12-08T14:50:52Z</time>
      </trkpt>
      <trkpt lat="47.93687" lon="-3.89606">
        <ele>85.3</ele>
        <time>2022-12-08T14:50:53Z</time>
      </trkpt>
      <trkpt lat="47.93682" lon="-3.89607">
        <ele>85.6</ele>
        <time>2022-12-08T14:50:54Z</time>
      </trkpt>
      <trkpt lat="47.93678" lon="-3.89609">
        <ele>85.9</ele>
        <time>2022-12-08T14:50:55Z</time>
      </trkpt>
      <trkpt lat="47.93669" lon="-3.89613">
        <ele>86.5</ele>
        <time>2022-12-08T14:50:57Z</time>
      </trkpt>
      <trkpt lat="47.93665" lon="-3.89615">
        <ele>86.8</ele>
        <time>2022-12-08T14:50:58Z</time>
      </trkpt>
      <trkpt lat="47.93661" lon="-3.89616">
        <ele>87.1</ele>
        <time>2022-12-08T14:50:59Z</time>
      </trkpt>
      <trkpt lat="47.93657" lon="-3.89616">
        <ele>87.5</ele>
        <time>2022-12-08T14:51:00Z</time>
      </trkpt>
      <trkpt lat="47.93655" lon="-3.89616">
        <ele>87.6</ele>
        <time>2022-12-08T14:51:01Z</time>
      </trkpt>
      <trkpt lat="47.9365" lon="-3.89618">
        <ele>88.1</ele>
        <time>2022-12-08T14:51:02Z</time>
      </trkpt>
      <trkpt lat="47.93647" lon="-3.89619">
        <ele>88.4</ele>
        <time>2022-12-08T14:51:03Z</time>
      </trkpt>
      <trkpt lat="47.93645" lon="-3.8962">
        <ele>88.6</ele>
        <time>2022-12-08T14:51:04Z</time>
      </trkpt>
      <trkpt lat="47.93641" lon="-3.8962">
        <ele>89</ele>
        <time>2022-12-08T14:51:06Z</time>
      </trkpt>
      <trkpt lat="47.93635" lon="-3.8962">
        <ele>89.6</ele>
        <time>2022-12-08T14:51:07Z</time>
      </trkpt>
      <trkpt lat="47.93631" lon="-3.89621">
        <ele>90.1</ele>
        <time>2022-12-08T14:51:08Z</time>
      </trkpt>
      <trkpt lat="47.93627" lon="-3.89621">
        <ele>90.4</ele>
        <time>2022-12-08T14:51:09Z</time>
      </trkpt>
      <trkpt lat="47.93624" lon="-3.89621">
        <ele>90.8</ele>
        <time>2022-12-08T14:51:10Z</time>
      </trkpt>
      <trkpt lat="47.93623" lon="-3.89622">
        <ele>90.9</ele>
        <time>2022-12-08T14:51:11Z</time>
      </trkpt>
      <trkpt lat="47.93619" lon="-3.89621">
        <ele>91.3</ele>
        <time>2022-12-08T14:51:12Z</time>
      </trkpt>
      <trkpt lat="47.93615" lon="-3.8962">
        <ele>91.7</ele>
        <time>2022-12-08T14:51:14Z</time>
      </trkpt>
      <trkpt lat="47.93611" lon="-3.89619">
        <ele>92.2</ele>
        <time>2022-12-08T14:51:15Z</time>
      </trkpt>
      <trkpt lat="47.93608" lon="-3.8962">
        <ele>92.5</ele>
        <time>2022-12-08T14:51:16Z</time>
      </trkpt>
      <trkpt lat="47.93604" lon="-3.8962">
        <ele>92.9</ele>
        <time>2022-12-08T14:51:17Z</time>
      </trkpt>
      <trkpt lat="47.93602" lon="-3.89619">
        <ele>93.2</ele>
        <time>2022-12-08T14:51:18Z</time>
      </trkpt>
      <trkpt lat="47.93599" lon="-3.89618">
        <ele>93.5</ele>
        <time>2022-12-08T14:51:19Z</time>
      </trkpt>
      <trkpt lat="47.93595" lon="-3.89616">
        <ele>93.9</ele>
        <time>2022-12-08T14:51:20Z</time>
      </trkpt>
      <trkpt lat="47.93591" lon="-3.89613">
        <ele>94.2</ele>
        <time>2022-12-08T14:51:21Z</time>
      </trkpt>
      <trkpt lat="47.93588" lon="-3.89611">
        <ele>94.6</ele>
        <time>2022-12-08T14:51:22Z</time>
      </trkpt>
      <trkpt lat="47.93584" lon="-3.89609">
        <ele>95</ele>
        <time>2022-12-08T14:51:23Z</time>
      </trkpt>
      <trkpt lat="47.93583" lon="-3.89608">
        <ele>95.1</ele>
        <time>2022-12-08T14:51:24Z</time>
      </trkpt>
      <trkpt lat="47.9358" lon="-3.89605">
        <ele>95.4</ele>
        <time>2022-12-08T14:51:25Z</time>
      </trkpt>
      <trkpt lat="47.93579" lon="-3.89604">
        <ele>95.5</ele>
        <time>2022-12-08T14:51:26Z</time>
      </trkpt>
      <trkpt lat="47.93577" lon="-3.89602">
        <ele>95.8</ele>
        <time>2022-12-08T14:51:27Z</time>
      </trkpt>
      <trkpt lat="47.93576" lon="-3.89601">
        <ele>95.9</ele>
        <time>2022-12-08T14:51:28Z</time>
      </trkpt>
      <trkpt lat="47.93573" lon="-3.896">
        <ele>96.1</ele>
        <time>2022-12-08T14:51:29Z</time>
      </trkpt>
      <trkpt lat="47.93569" lon="-3.89598">
        <ele>96.5</ele>
        <time>2022-12-08T14:51:30Z</time>
      </trkpt>
      <trkpt lat="47.93568" lon="-3.89597">
        <ele>96.6</ele>
        <time>2022-12-08T14:51:31Z</time>
      </trkpt>
      <trkpt lat="47.93566" lon="-3.89596">
        <ele>96.8</ele>
        <time>2022-12-08T14:51:32Z</time>
      </trkpt>
      <trkpt lat="47.93563" lon="-3.89593">
        <ele>97.1</ele>
        <time>2022-12-08T14:51:34Z</time>
      </trkpt>
      <trkpt lat="47.9356" lon="-3.8959">
        <ele>97.3</ele>
        <time>2022-12-08T14:51:35Z</time>
      </trkpt>
      <trkpt lat="47.93555" lon="-3.89587">
        <ele>97.7</ele>
        <time>2022-12-08T14:51:36Z</time>
      </trkpt>
      <trkpt lat="47.93551" lon="-3.89583">
        <ele>97.9</ele>
        <time>2022-12-08T14:51:37Z</time>
      </trkpt>
      <trkpt lat="47.93548" lon="-3.89579">
        <ele>98.2</ele>
        <time>2022-12-08T14:51:38Z</time>
      </trkpt>
      <trkpt lat="47.93545" lon="-3.89576">
        <ele>98.5</ele>
        <time>2022-12-08T14:51:39Z</time>
      </trkpt>
      <trkpt lat="47.93542" lon="-3.89573">
        <ele>98.7</ele>
        <time>2022-12-08T14:51:40Z</time>
      </trkpt>
      <trkpt lat="47.93539" lon="-3.89569">
        <ele>98.9</ele>
        <time>2022-12-08T14:51:41Z</time>
      </trkpt>
      <trkpt lat="47.93536" lon="-3.89567">
        <ele>99.2</ele>
        <time>2022-12-08T14:51:42Z</time>
      </trkpt>
      <trkpt lat="47.93533" lon="-3.89565">
        <ele>99.4</ele>
        <time>2022-12-08T14:51:44Z</time>
      </trkpt>
      <trkpt lat="47.93531" lon="-3.89563">
        <ele>99.5</ele>
        <time>2022-12-08T14:51:45Z</time>
      </trkpt>
      <trkpt lat="47.93526" lon="-3.89559">
        <ele>99.8</ele>
        <time>2022-12-08T14:51:46Z</time>
      </trkpt>
      <trkpt lat="47.93523" lon="-3.89556">
        <ele>100</ele>
        <time>2022-12-08T14:51:47Z</time>
      </trkpt>
      <trkpt lat="47.9352" lon="-3.89553">
        <ele>100.2</ele>
        <time>2022-12-08T14:51:48Z</time>
      </trkpt>
      <trkpt lat="47.93518" lon="-3.8955">
        <ele>100.4</ele>
        <time>2022-12-08T14:51:49Z</time>
      </trkpt>
      <trkpt lat="47.93515" lon="-3.89547">
        <ele>100.5</ele>
        <time>2022-12-08T14:51:50Z</time>
      </trkpt>
      <trkpt lat="47.93512" lon="-3.89544">
        <ele>100.7</ele>
        <time>2022-12-08T14:51:51Z</time>
      </trkpt>
      <trkpt lat="47.93511" lon="-3.89543">
        <ele>100.7</ele>
        <time>2022-12-08T14:51:52Z</time>
      </trkpt>
      <trkpt lat="47.93508" lon="-3.89541">
        <ele>100.9</ele>
        <time>2022-12-08T14:51:53Z</time>
      </trkpt>
      <trkpt lat="47.93506" lon="-3.89538">
        <ele>101</ele>
        <time>2022-12-08T14:51:54Z</time>
      </trkpt>
      <trkpt lat="47.93506" lon="-3.89537">
        <ele>101</ele>
        <time>2022-12-08T14:51:55Z</time>
      </trkpt>
      <trkpt lat="47.93504" lon="-3.89536">
        <ele>101.1</ele>
        <time>2022-12-08T14:51:56Z</time>
      </trkpt>
      <trkpt lat="47.93502" lon="-3.89536">
        <ele>101.1</ele>
        <time>2022-12-08T14:51:57Z</time>
      </trkpt>
      <trkpt lat="47.93497" lon="-3.89535">
        <ele>101.3</ele>
        <time>2022-12-08T14:51:58Z</time>
      </trkpt>
      <trkpt lat="47.93495" lon="-3.89534">
        <ele>101.3</ele>
        <time>2022-12-08T14:51:59Z</time>
      </trkpt>
      <trkpt lat="47.93489" lon="-3.89532">
        <ele>101.4</ele>
        <time>2022-12-08T14:52:01Z</time>
      </trkpt>
      <trkpt lat="47.93484" lon="-3.89531">
        <ele>101.5</ele>
        <time>2022-12-08T14:52:02Z</time>
      </trkpt>
      <trkpt lat="47.93474" lon="-3.89528">
        <ele>101.4</ele>
        <time>2022-12-08T14:52:03Z</time>
      </trkpt>
      <trkpt lat="47.93467" lon="-3.89527">
        <ele>101.4</ele>
        <time>2022-12-08T14:52:04Z</time>
      </trkpt>
      <trkpt lat="47.93459" lon="-3.89527">
        <ele>101.2</ele>
        <time>2022-12-08T14:52:05Z</time>
      </trkpt>
      <trkpt lat="47.93454" lon="-3.89527">
        <ele>101.1</ele>
        <time>2022-12-08T14:52:06Z</time>
      </trkpt>
      <trkpt lat="47.93448" lon="-3.89528">
        <ele>101</ele>
        <time>2022-12-08T14:52:07Z</time>
      </trkpt>
      <trkpt lat="47.93443" lon="-3.89529">
        <ele>100.9</ele>
        <time>2022-12-08T14:52:08Z</time>
      </trkpt>
      <trkpt lat="47.93437" lon="-3.89531">
        <ele>100.7</ele>
        <time>2022-12-08T14:52:09Z</time>
      </trkpt>
      <trkpt lat="47.93431" lon="-3.89532">
        <ele>100.5</ele>
        <time>2022-12-08T14:52:10Z</time>
      </trkpt>
      <trkpt lat="47.93425" lon="-3.89534">
        <ele>100.4</ele>
        <time>2022-12-08T14:52:11Z</time>
      </trkpt>
      <trkpt lat="47.93419" lon="-3.89537">
        <ele>100.2</ele>
        <time>2022-12-08T14:52:12Z</time>
      </trkpt>
      <trkpt lat="47.93413" lon="-3.89541">
        <ele>100</ele>
        <time>2022-12-08T14:52:13Z</time>
      </trkpt>
      <trkpt lat="47.93407" lon="-3.89545">
        <ele>99.9</ele>
        <time>2022-12-08T14:52:14Z</time>
      </trkpt>
      <trkpt lat="47.93401" lon="-3.89548">
        <ele>99.7</ele>
        <time>2022-12-08T14:52:15Z</time>
      </trkpt>
      <trkpt lat="47.93395" lon="-3.89553">
        <ele>99.6</ele>
        <time>2022-12-08T14:52:16Z</time>
      </trkpt>
      <trkpt lat="47.93389" lon="-3.89557">
        <ele>99.6</ele>
        <time>2022-12-08T14:52:17Z</time>
      </trkpt>
      <trkpt lat="47.93383" lon="-3.89561">
        <ele>99.5</ele>
        <time>2022-12-08T14:52:18Z</time>
      </trkpt>
      <trkpt lat="47.93378" lon="-3.89565">
        <ele>99.5</ele>
        <time>2022-12-08T14:52:19Z</time>
      </trkpt>
      <trkpt lat="47.93372" lon="-3.89569">
        <ele>99.5</ele>
        <time>2022-12-08T14:52:20Z</time>
      </trkpt>
      <trkpt lat="47.93367" lon="-3.89574">
        <ele>99.5</ele>
        <time>2022-12-08T14:52:21Z</time>
      </trkpt>
      <trkpt lat="47.93361" lon="-3.89578">
        <ele>99.5</ele>
        <time>2022-12-08T14:52:22Z</time>
      </trkpt>
      <trkpt lat="47.93356" lon="-3.89581">
        <ele>99.6</ele>
        <time>2022-12-08T14:52:23Z</time>
      </trkpt>
      <trkpt lat="47.9335" lon="-3.89584">
        <ele>99.7</ele>
        <time>2022-12-08T14:52:24Z</time>
      </trkpt>
      <trkpt lat="47.93344" lon="-3.89587">
        <ele>99.7</ele>
        <time>2022-12-08T14:52:25Z</time>
      </trkpt>
      <trkpt lat="47.93339" lon="-3.89589">
        <ele>99.9</ele>
        <time>2022-12-08T14:52:26Z</time>
      </trkpt>
      <trkpt lat="47.93333" lon="-3.8959">
        <ele>100</ele>
        <time>2022-12-08T14:52:27Z</time>
      </trkpt>
      <trkpt lat="47.93327" lon="-3.89592">
        <ele>100.2</ele>
        <time>2022-12-08T14:52:28Z</time>
      </trkpt>
      <trkpt lat="47.93322" lon="-3.89593">
        <ele>100.3</ele>
        <time>2022-12-08T14:52:29Z</time>
      </trkpt>
      <trkpt lat="47.93317" lon="-3.89595">
        <ele>100.4</ele>
        <time>2022-12-08T14:52:30Z</time>
      </trkpt>
      <trkpt lat="47.93312" lon="-3.89596">
        <ele>100.6</ele>
        <time>2022-12-08T14:52:31Z</time>
      </trkpt>
      <trkpt lat="47.93307" lon="-3.89597">
        <ele>100.7</ele>
        <time>2022-12-08T14:52:32Z</time>
      </trkpt>
      <trkpt lat="47.93302" lon="-3.89597">
        <ele>100.9</ele>
        <time>2022-12-08T14:52:33Z</time>
      </trkpt>
      <trkpt lat="47.93297" lon="-3.89598">
        <ele>101</ele>
        <time>2022-12-08T14:52:34Z</time>
      </trkpt>
      <trkpt lat="47.93292" lon="-3.89598">
        <ele>101.1</ele>
        <time>2022-12-08T14:52:35Z</time>
      </trkpt>
      <trkpt lat="47.93287" lon="-3.89598">
        <ele>101.3</ele>
        <time>2022-12-08T14:52:36Z</time>
      </trkpt>
      <trkpt lat="47.93282" lon="-3.89598">
        <ele>101.4</ele>
        <time>2022-12-08T14:52:37Z</time>
      </trkpt>
      <trkpt lat="47.93277" lon="-3.89598">
        <ele>101.5</ele>
        <time>2022-12-08T14:52:38Z</time>
      </trkpt>
      <trkpt lat="47.93272" lon="-3.89597">
        <ele>101.5</ele>
        <time>2022-12-08T14:52:39Z</time>
      </trkpt>
      <trkpt lat="47.93269" lon="-3.89597">
        <ele>101.6</ele>
        <time>2022-12-08T14:52:40Z</time>
      </trkpt>
      <trkpt lat="47.93264" lon="-3.89597">
        <ele>101.6</ele>
        <time>2022-12-08T14:52:41Z</time>
      </trkpt>
      <trkpt lat="47.93261" lon="-3.89596">
        <ele>101.6</ele>
        <time>2022-12-08T14:52:42Z</time>
      </trkpt>
      <trkpt lat="47.93255" lon="-3.89595">
        <ele>101.6</ele>
        <time>2022-12-08T14:52:43Z</time>
      </trkpt>
      <trkpt lat="47.9325" lon="-3.89594">
        <ele>101.5</ele>
        <time>2022-12-08T14:52:44Z</time>
      </trkpt>
      <trkpt lat="47.93244" lon="-3.89593">
        <ele>101.5</ele>
        <time>2022-12-08T14:52:45Z</time>
      </trkpt>
      <trkpt lat="47.93239" lon="-3.89591">
        <ele>101.4</ele>
        <time>2022-12-08T14:52:46Z</time>
      </trkpt>
      <trkpt lat="47.93234" lon="-3.8959">
        <ele>101.3</ele>
        <time>2022-12-08T14:52:47Z</time>
      </trkpt>
      <trkpt lat="47.93228" lon="-3.89588">
        <ele>101.2</ele>
        <time>2022-12-08T14:52:48Z</time>
      </trkpt>
      <trkpt lat="47.93223" lon="-3.89586">
        <ele>101.2</ele>
        <time>2022-12-08T14:52:49Z</time>
      </trkpt>
      <trkpt lat="47.93218" lon="-3.89584">
        <ele>101.1</ele>
        <time>2022-12-08T14:52:50Z</time>
      </trkpt>
      <trkpt lat="47.93212" lon="-3.89582">
        <ele>101</ele>
        <time>2022-12-08T14:52:51Z</time>
      </trkpt>
      <trkpt lat="47.93206" lon="-3.8958">
        <ele>100.9</ele>
        <time>2022-12-08T14:52:52Z</time>
      </trkpt>
      <trkpt lat="47.93201" lon="-3.89577">
        <ele>100.8</ele>
        <time>2022-12-08T14:52:53Z</time>
      </trkpt>
      <trkpt lat="47.93196" lon="-3.89575">
        <ele>100.7</ele>
        <time>2022-12-08T14:52:54Z</time>
      </trkpt>
      <trkpt lat="47.93191" lon="-3.89571">
        <ele>100.6</ele>
        <time>2022-12-08T14:52:55Z</time>
      </trkpt>
      <trkpt lat="47.93185" lon="-3.89568">
        <ele>100.4</ele>
        <time>2022-12-08T14:52:56Z</time>
      </trkpt>
      <trkpt lat="47.93178" lon="-3.89565">
        <ele>100.2</ele>
        <time>2022-12-08T14:52:57Z</time>
      </trkpt>
      <trkpt lat="47.93172" lon="-3.89562">
        <ele>100.1</ele>
        <time>2022-12-08T14:52:58Z</time>
      </trkpt>
      <trkpt lat="47.93166" lon="-3.89558">
        <ele>99.9</ele>
        <time>2022-12-08T14:52:59Z</time>
      </trkpt>
      <trkpt lat="47.9316" lon="-3.89555">
        <ele>99.7</ele>
        <time>2022-12-08T14:53:00Z</time>
      </trkpt>
      <trkpt lat="47.93154" lon="-3.89552">
        <ele>99.5</ele>
        <time>2022-12-08T14:53:01Z</time>
      </trkpt>
      <trkpt lat="47.93148" lon="-3.89549">
        <ele>99.3</ele>
        <time>2022-12-08T14:53:02Z</time>
      </trkpt>
      <trkpt lat="47.93141" lon="-3.89546">
        <ele>99.1</ele>
        <time>2022-12-08T14:53:03Z</time>
      </trkpt>
      <trkpt lat="47.93133" lon="-3.89544">
        <ele>98.8</ele>
        <time>2022-12-08T14:53:04Z</time>
      </trkpt>
      <trkpt lat="47.93125" lon="-3.89543">
        <ele>98.5</ele>
        <time>2022-12-08T14:53:05Z</time>
      </trkpt>
      <trkpt lat="47.93118" lon="-3.89544">
        <ele>98.3</ele>
        <time>2022-12-08T14:53:06Z</time>
      </trkpt>
      <trkpt lat="47.93111" lon="-3.89549">
        <ele>98.1</ele>
        <time>2022-12-08T14:53:07Z</time>
      </trkpt>
      <trkpt lat="47.93105" lon="-3.89554">
        <ele>97.9</ele>
        <time>2022-12-08T14:53:08Z</time>
      </trkpt>
      <trkpt lat="47.93099" lon="-3.8956">
        <ele>97.6</ele>
        <time>2022-12-08T14:53:09Z</time>
      </trkpt>
      <trkpt lat="47.93093" lon="-3.89565">
        <ele>97.4</ele>
        <time>2022-12-08T14:53:10Z</time>
      </trkpt>
      <trkpt lat="47.93086" lon="-3.89571">
        <ele>97.1</ele>
        <time>2022-12-08T14:53:11Z</time>
      </trkpt>
      <trkpt lat="47.9308" lon="-3.89577">
        <ele>96.8</ele>
        <time>2022-12-08T14:53:12Z</time>
      </trkpt>
      <trkpt lat="47.93074" lon="-3.89583">
        <ele>96.6</ele>
        <time>2022-12-08T14:53:13Z</time>
      </trkpt>
      <trkpt lat="47.93067" lon="-3.89588">
        <ele>96.3</ele>
        <time>2022-12-08T14:53:14Z</time>
      </trkpt>
      <trkpt lat="47.93062" lon="-3.89592">
        <ele>96.1</ele>
        <time>2022-12-08T14:53:15Z</time>
      </trkpt>
      <trkpt lat="47.93056" lon="-3.89598">
        <ele>95.9</ele>
        <time>2022-12-08T14:53:16Z</time>
      </trkpt>
      <trkpt lat="47.9305" lon="-3.89603">
        <ele>95.6</ele>
        <time>2022-12-08T14:53:17Z</time>
      </trkpt>
      <trkpt lat="47.93043" lon="-3.89609">
        <ele>95.4</ele>
        <time>2022-12-08T14:53:18Z</time>
      </trkpt>
      <trkpt lat="47.93037" lon="-3.89614">
        <ele>95.1</ele>
        <time>2022-12-08T14:53:19Z</time>
      </trkpt>
      <trkpt lat="47.9303" lon="-3.89621">
        <ele>94.8</ele>
        <time>2022-12-08T14:53:20Z</time>
      </trkpt>
      <trkpt lat="47.93023" lon="-3.89627">
        <ele>94.6</ele>
        <time>2022-12-08T14:53:21Z</time>
      </trkpt>
      <trkpt lat="47.93017" lon="-3.89633">
        <ele>94.3</ele>
        <time>2022-12-08T14:53:22Z</time>
      </trkpt>
      <trkpt lat="47.9301" lon="-3.89638">
        <ele>94.1</ele>
        <time>2022-12-08T14:53:23Z</time>
      </trkpt>
      <trkpt lat="47.93003" lon="-3.89643">
        <ele>93.8</ele>
        <time>2022-12-08T14:53:24Z</time>
      </trkpt>
      <trkpt lat="47.92997" lon="-3.89648">
        <ele>93.6</ele>
        <time>2022-12-08T14:53:25Z</time>
      </trkpt>
      <trkpt lat="47.92991" lon="-3.89652">
        <ele>93.4</ele>
        <time>2022-12-08T14:53:26Z</time>
      </trkpt>
      <trkpt lat="47.92985" lon="-3.89654">
        <ele>93.2</ele>
        <time>2022-12-08T14:53:27Z</time>
      </trkpt>
      <trkpt lat="47.92979" lon="-3.89656">
        <ele>93</ele>
        <time>2022-12-08T14:53:28Z</time>
      </trkpt>
      <trkpt lat="47.92972" lon="-3.89657">
        <ele>92.8</ele>
        <time>2022-12-08T14:53:29Z</time>
      </trkpt>
      <trkpt lat="47.92967" lon="-3.8966">
        <ele>92.8</ele>
        <time>2022-12-08T14:53:30Z</time>
      </trkpt>
      <trkpt lat="47.92962" lon="-3.89663">
        <ele>92.7</ele>
        <time>2022-12-08T14:53:31Z</time>
      </trkpt>
      <trkpt lat="47.92957" lon="-3.89668">
        <ele>92.6</ele>
        <time>2022-12-08T14:53:32Z</time>
      </trkpt>
      <trkpt lat="47.92951" lon="-3.89673">
        <ele>92.4</ele>
        <time>2022-12-08T14:53:33Z</time>
      </trkpt>
      <trkpt lat="47.92946" lon="-3.89678">
        <ele>92.2</ele>
        <time>2022-12-08T14:53:34Z</time>
      </trkpt>
      <trkpt lat="47.9294" lon="-3.89683">
        <ele>92</ele>
        <time>2022-12-08T14:53:35Z</time>
      </trkpt>
      <trkpt lat="47.92934" lon="-3.89688">
        <ele>91.8</ele>
        <time>2022-12-08T14:53:36Z</time>
      </trkpt>
      <trkpt lat="47.92929" lon="-3.89693">
        <ele>91.7</ele>
        <time>2022-12-08T14:53:37Z</time>
      </trkpt>
      <trkpt lat="47.92923" lon="-3.89699">
        <ele>91.5</ele>
        <time>2022-12-08T14:53:38Z</time>
      </trkpt>
      <trkpt lat="47.92916" lon="-3.89704">
        <ele>91.3</ele>
        <time>2022-12-08T14:53:39Z</time>
      </trkpt>
      <trkpt lat="47.9291" lon="-3.89709">
        <ele>91.1</ele>
        <time>2022-12-08T14:53:40Z</time>
      </trkpt>
      <trkpt lat="47.92904" lon="-3.89715">
        <ele>91</ele>
        <time>2022-12-08T14:53:41Z</time>
      </trkpt>
      <trkpt lat="47.92898" lon="-3.89721">
        <ele>90.8</ele>
        <time>2022-12-08T14:53:42Z</time>
      </trkpt>
      <trkpt lat="47.92892" lon="-3.89727">
        <ele>90.6</ele>
        <time>2022-12-08T14:53:43Z</time>
      </trkpt>
      <trkpt lat="47.92886" lon="-3.89733">
        <ele>90.4</ele>
        <time>2022-12-08T14:53:44Z</time>
      </trkpt>
      <trkpt lat="47.9288" lon="-3.89739">
        <ele>90.3</ele>
        <time>2022-12-08T14:53:45Z</time>
      </trkpt>
      <trkpt lat="47.92873" lon="-3.89744">
        <ele>90.1</ele>
        <time>2022-12-08T14:53:46Z</time>
      </trkpt>
      <trkpt lat="47.92866" lon="-3.89749">
        <ele>90</ele>
        <time>2022-12-08T14:53:47Z</time>
      </trkpt>
      <trkpt lat="47.9286" lon="-3.89755">
        <ele>89.8</ele>
        <time>2022-12-08T14:53:48Z</time>
      </trkpt>
      <trkpt lat="47.92854" lon="-3.89761">
        <ele>89.7</ele>
        <time>2022-12-08T14:53:49Z</time>
      </trkpt>
      <trkpt lat="47.92848" lon="-3.89767">
        <ele>89.6</ele>
        <time>2022-12-08T14:53:50Z</time>
      </trkpt>
      <trkpt lat="47.92842" lon="-3.89773">
        <ele>89.4</ele>
        <time>2022-12-08T14:53:51Z</time>
      </trkpt>
      <trkpt lat="47.92835" lon="-3.89779">
        <ele>89.3</ele>
        <time>2022-12-08T14:53:52Z</time>
      </trkpt>
      <trkpt lat="47.92829" lon="-3.89784">
        <ele>89.1</ele>
        <time>2022-12-08T14:53:53Z</time>
      </trkpt>
      <trkpt lat="47.92822" lon="-3.8979">
        <ele>88.9</ele>
        <time>2022-12-08T14:53:54Z</time>
      </trkpt>
      <trkpt lat="47.92815" lon="-3.89796">
        <ele>88.8</ele>
        <time>2022-12-08T14:53:55Z</time>
      </trkpt>
      <trkpt lat="47.92808" lon="-3.89801">
        <ele>88.6</ele>
        <time>2022-12-08T14:53:56Z</time>
      </trkpt>
      <trkpt lat="47.92802" lon="-3.89808">
        <ele>88.4</ele>
        <time>2022-12-08T14:53:57Z</time>
      </trkpt>
      <trkpt lat="47.92795" lon="-3.89813">
        <ele>88.2</ele>
        <time>2022-12-08T14:53:58Z</time>
      </trkpt>
      <trkpt lat="47.92788" lon="-3.89819">
        <ele>88.1</ele>
        <time>2022-12-08T14:53:59Z</time>
      </trkpt>
      <trkpt lat="47.92781" lon="-3.89824">
        <ele>87.9</ele>
        <time>2022-12-08T14:54:00Z</time>
      </trkpt>
      <trkpt lat="47.92775" lon="-3.8983">
        <ele>87.7</ele>
        <time>2022-12-08T14:54:01Z</time>
      </trkpt>
      <trkpt lat="47.92768" lon="-3.89835">
        <ele>87.5</ele>
        <time>2022-12-08T14:54:02Z</time>
      </trkpt>
      <trkpt lat="47.9276" lon="-3.89839">
        <ele>87.4</ele>
        <time>2022-12-08T14:54:03Z</time>
      </trkpt>
      <trkpt lat="47.92752" lon="-3.89844">
        <ele>87.2</ele>
        <time>2022-12-08T14:54:04Z</time>
      </trkpt>
      <trkpt lat="47.92746" lon="-3.8985">
        <ele>87</ele>
        <time>2022-12-08T14:54:05Z</time>
      </trkpt>
      <trkpt lat="47.92739" lon="-3.89856">
        <ele>86.8</ele>
        <time>2022-12-08T14:54:06Z</time>
      </trkpt>
      <trkpt lat="47.92733" lon="-3.89862">
        <ele>86.6</ele>
        <time>2022-12-08T14:54:07Z</time>
      </trkpt>
      <trkpt lat="47.92727" lon="-3.89868">
        <ele>86.6</ele>
        <time>2022-12-08T14:54:08Z</time>
      </trkpt>
      <trkpt lat="47.9272" lon="-3.89874">
        <ele>86.5</ele>
        <time>2022-12-08T14:54:09Z</time>
      </trkpt>
      <trkpt lat="47.92713" lon="-3.89879">
        <ele>86.5</ele>
        <time>2022-12-08T14:54:10Z</time>
      </trkpt>
      <trkpt lat="47.92706" lon="-3.89886">
        <ele>86.3</ele>
        <time>2022-12-08T14:54:11Z</time>
      </trkpt>
      <trkpt lat="47.92699" lon="-3.89892">
        <ele>86.2</ele>
        <time>2022-12-08T14:54:12Z</time>
      </trkpt>
      <trkpt lat="47.92692" lon="-3.89897">
        <ele>86</ele>
        <time>2022-12-08T14:54:13Z</time>
      </trkpt>
      <trkpt lat="47.92685" lon="-3.89903">
        <ele>85.8</ele>
        <time>2022-12-08T14:54:14Z</time>
      </trkpt>
      <trkpt lat="47.92678" lon="-3.89909">
        <ele>85.6</ele>
        <time>2022-12-08T14:54:15Z</time>
      </trkpt>
      <trkpt lat="47.92671" lon="-3.89914">
        <ele>85.4</ele>
        <time>2022-12-08T14:54:16Z</time>
      </trkpt>
      <trkpt lat="47.92664" lon="-3.89919">
        <ele>85.2</ele>
        <time>2022-12-08T14:54:17Z</time>
      </trkpt>
      <trkpt lat="47.92657" lon="-3.89924">
        <ele>85</ele>
        <time>2022-12-08T14:54:18Z</time>
      </trkpt>
      <trkpt lat="47.92651" lon="-3.8993">
        <ele>84.8</ele>
        <time>2022-12-08T14:54:19Z</time>
      </trkpt>
      <trkpt lat="47.92643" lon="-3.89935">
        <ele>84.6</ele>
        <time>2022-12-08T14:54:20Z</time>
      </trkpt>
      <trkpt lat="47.92636" lon="-3.89939">
        <ele>84.4</ele>
        <time>2022-12-08T14:54:21Z</time>
      </trkpt>
      <trkpt lat="47.92629" lon="-3.89944">
        <ele>84.2</ele>
        <time>2022-12-08T14:54:22Z</time>
      </trkpt>
      <trkpt lat="47.92621" lon="-3.89949">
        <ele>83.9</ele>
        <time>2022-12-08T14:54:23Z</time>
      </trkpt>
      <trkpt lat="47.92614" lon="-3.89954">
        <ele>83.7</ele>
        <time>2022-12-08T14:54:24Z</time>
      </trkpt>
      <trkpt lat="47.92607" lon="-3.89958">
        <ele>83.5</ele>
        <time>2022-12-08T14:54:25Z</time>
      </trkpt>
      <trkpt lat="47.92599" lon="-3.89963">
        <ele>83.4</ele>
        <time>2022-12-08T14:54:26Z</time>
      </trkpt>
      <trkpt lat="47.92592" lon="-3.89968">
        <ele>83.2</ele>
        <time>2022-12-08T14:54:27Z</time>
      </trkpt>
      <trkpt lat="47.92585" lon="-3.89973">
        <ele>83</ele>
        <time>2022-12-08T14:54:28Z</time>
      </trkpt>
      <trkpt lat="47.92578" lon="-3.89978">
        <ele>82.9</ele>
        <time>2022-12-08T14:54:29Z</time>
      </trkpt>
      <trkpt lat="47.92571" lon="-3.89983">
        <ele>82.7</ele>
        <time>2022-12-08T14:54:30Z</time>
      </trkpt>
      <trkpt lat="47.92563" lon="-3.89988">
        <ele>82.5</ele>
        <time>2022-12-08T14:54:31Z</time>
      </trkpt>
      <trkpt lat="47.92556" lon="-3.89992">
        <ele>82.3</ele>
        <time>2022-12-08T14:54:32Z</time>
      </trkpt>
      <trkpt lat="47.92548" lon="-3.89997">
        <ele>82.1</ele>
        <time>2022-12-08T14:54:33Z</time>
      </trkpt>
      <trkpt lat="47.92541" lon="-3.90002">
        <ele>81.9</ele>
        <time>2022-12-08T14:54:34Z</time>
      </trkpt>
      <trkpt lat="47.92533" lon="-3.90007">
        <ele>81.7</ele>
        <time>2022-12-08T14:54:35Z</time>
      </trkpt>
      <trkpt lat="47.92526" lon="-3.90012">
        <ele>81.5</ele>
        <time>2022-12-08T14:54:36Z</time>
      </trkpt>
      <trkpt lat="47.92518" lon="-3.90016">
        <ele>81.4</ele>
        <time>2022-12-08T14:54:37Z</time>
      </trkpt>
      <trkpt lat="47.92504" lon="-3.90025">
        <ele>81.1</ele>
        <time>2022-12-08T14:54:39Z</time>
      </trkpt>
      <trkpt lat="47.92496" lon="-3.90029">
        <ele>80.9</ele>
        <time>2022-12-08T14:54:40Z</time>
      </trkpt>
      <trkpt lat="47.92488" lon="-3.90034">
        <ele>80.7</ele>
        <time>2022-12-08T14:54:41Z</time>
      </trkpt>
      <trkpt lat="47.92481" lon="-3.90039">
        <ele>80.5</ele>
        <time>2022-12-08T14:54:42Z</time>
      </trkpt>
      <trkpt lat="47.92474" lon="-3.90045">
        <ele>80.3</ele>
        <time>2022-12-08T14:54:43Z</time>
      </trkpt>
      <trkpt lat="47.92466" lon="-3.9005">
        <ele>80.1</ele>
        <time>2022-12-08T14:54:44Z</time>
      </trkpt>
      <trkpt lat="47.92459" lon="-3.90055">
        <ele>79.9</ele>
        <time>2022-12-08T14:54:45Z</time>
      </trkpt>
      <trkpt lat="47.92452" lon="-3.9006">
        <ele>79.7</ele>
        <time>2022-12-08T14:54:46Z</time>
      </trkpt>
      <trkpt lat="47.92444" lon="-3.90064">
        <ele>79.6</ele>
        <time>2022-12-08T14:54:47Z</time>
      </trkpt>
      <trkpt lat="47.92437" lon="-3.90069">
        <ele>79.4</ele>
        <time>2022-12-08T14:54:48Z</time>
      </trkpt>
      <trkpt lat="47.9243" lon="-3.90074">
        <ele>79.2</ele>
        <time>2022-12-08T14:54:49Z</time>
      </trkpt>
      <trkpt lat="47.92422" lon="-3.90079">
        <ele>79.1</ele>
        <time>2022-12-08T14:54:50Z</time>
      </trkpt>
      <trkpt lat="47.92414" lon="-3.90084">
        <ele>78.9</ele>
        <time>2022-12-08T14:54:51Z</time>
      </trkpt>
      <trkpt lat="47.92407" lon="-3.90088">
        <ele>78.8</ele>
        <time>2022-12-08T14:54:52Z</time>
      </trkpt>
      <trkpt lat="47.92399" lon="-3.90093">
        <ele>78.7</ele>
        <time>2022-12-08T14:54:53Z</time>
      </trkpt>
      <trkpt lat="47.92392" lon="-3.90099">
        <ele>78.5</ele>
        <time>2022-12-08T14:54:54Z</time>
      </trkpt>
      <trkpt lat="47.92385" lon="-3.90103">
        <ele>78.4</ele>
        <time>2022-12-08T14:54:55Z</time>
      </trkpt>
      <trkpt lat="47.92378" lon="-3.90108">
        <ele>78.3</ele>
        <time>2022-12-08T14:54:56Z</time>
      </trkpt>
      <trkpt lat="47.92371" lon="-3.90113">
        <ele>78.3</ele>
        <time>2022-12-08T14:54:57Z</time>
      </trkpt>
      <trkpt lat="47.92364" lon="-3.90118">
        <ele>78.2</ele>
        <time>2022-12-08T14:54:58Z</time>
      </trkpt>
      <trkpt lat="47.92356" lon="-3.90123">
        <ele>78.1</ele>
        <time>2022-12-08T14:54:59Z</time>
      </trkpt>
      <trkpt lat="47.92349" lon="-3.90127">
        <ele>78.1</ele>
        <time>2022-12-08T14:55:00Z</time>
      </trkpt>
      <trkpt lat="47.92342" lon="-3.90132">
        <ele>78</ele>
        <time>2022-12-08T14:55:01Z</time>
      </trkpt>
      <trkpt lat="47.92335" lon="-3.90136">
        <ele>78</ele>
        <time>2022-12-08T14:55:02Z</time>
      </trkpt>
      <trkpt lat="47.92329" lon="-3.9014">
        <ele>78.1</ele>
        <time>2022-12-08T14:55:03Z</time>
      </trkpt>
      <trkpt lat="47.92322" lon="-3.90144">
        <ele>78.1</ele>
        <time>2022-12-08T14:55:04Z</time>
      </trkpt>
      <trkpt lat="47.92315" lon="-3.90149">
        <ele>78.1</ele>
        <time>2022-12-08T14:55:05Z</time>
      </trkpt>
      <trkpt lat="47.92309" lon="-3.90154">
        <ele>78.1</ele>
        <time>2022-12-08T14:55:06Z</time>
      </trkpt>
      <trkpt lat="47.92302" lon="-3.90159">
        <ele>78.2</ele>
        <time>2022-12-08T14:55:07Z</time>
      </trkpt>
      <trkpt lat="47.92296" lon="-3.90164">
        <ele>78.2</ele>
        <time>2022-12-08T14:55:08Z</time>
      </trkpt>
      <trkpt lat="47.9229" lon="-3.90168">
        <ele>78.3</ele>
        <time>2022-12-08T14:55:09Z</time>
      </trkpt>
      <trkpt lat="47.92284" lon="-3.90172">
        <ele>78.4</ele>
        <time>2022-12-08T14:55:10Z</time>
      </trkpt>
      <trkpt lat="47.92277" lon="-3.90176">
        <ele>78.5</ele>
        <time>2022-12-08T14:55:11Z</time>
      </trkpt>
      <trkpt lat="47.92271" lon="-3.9018">
        <ele>78.6</ele>
        <time>2022-12-08T14:55:12Z</time>
      </trkpt>
      <trkpt lat="47.92265" lon="-3.90184">
        <ele>78.7</ele>
        <time>2022-12-08T14:55:13Z</time>
      </trkpt>
      <trkpt lat="47.92259" lon="-3.90188">
        <ele>78.8</ele>
        <time>2022-12-08T14:55:14Z</time>
      </trkpt>
      <trkpt lat="47.92253" lon="-3.90192">
        <ele>78.9</ele>
        <time>2022-12-08T14:55:15Z</time>
      </trkpt>
      <trkpt lat="47.92247" lon="-3.90196">
        <ele>79</ele>
        <time>2022-12-08T14:55:16Z</time>
      </trkpt>
      <trkpt lat="47.92241" lon="-3.902">
        <ele>79.2</ele>
        <time>2022-12-08T14:55:17Z</time>
      </trkpt>
      <trkpt lat="47.92236" lon="-3.90204">
        <ele>79.3</ele>
        <time>2022-12-08T14:55:18Z</time>
      </trkpt>
      <trkpt lat="47.9223" lon="-3.90208">
        <ele>79.4</ele>
        <time>2022-12-08T14:55:19Z</time>
      </trkpt>
      <trkpt lat="47.92224" lon="-3.90212">
        <ele>79.5</ele>
        <time>2022-12-08T14:55:20Z</time>
      </trkpt>
      <trkpt lat="47.92219" lon="-3.90216">
        <ele>79.6</ele>
        <time>2022-12-08T14:55:21Z</time>
      </trkpt>
      <trkpt lat="47.92213" lon="-3.90219">
        <ele>79.7</ele>
        <time>2022-12-08T14:55:22Z</time>
      </trkpt>
      <trkpt lat="47.92207" lon="-3.90223">
        <ele>79.8</ele>
        <time>2022-12-08T14:55:23Z</time>
      </trkpt>
      <trkpt lat="47.92202" lon="-3.90226">
        <ele>79.9</ele>
        <time>2022-12-08T14:55:24Z</time>
      </trkpt>
      <trkpt lat="47.92197" lon="-3.9023">
        <ele>80</ele>
        <time>2022-12-08T14:55:25Z</time>
      </trkpt>
      <trkpt lat="47.92191" lon="-3.90234">
        <ele>80.1</ele>
        <time>2022-12-08T14:55:26Z</time>
      </trkpt>
      <trkpt lat="47.92186" lon="-3.90238">
        <ele>80.2</ele>
        <time>2022-12-08T14:55:27Z</time>
      </trkpt>
      <trkpt lat="47.9218" lon="-3.90241">
        <ele>80.3</ele>
        <time>2022-12-08T14:55:28Z</time>
      </trkpt>
      <trkpt lat="47.92175" lon="-3.90244">
        <ele>80.4</ele>
        <time>2022-12-08T14:55:29Z</time>
      </trkpt>
      <trkpt lat="47.9217" lon="-3.90248">
        <ele>80.5</ele>
        <time>2022-12-08T14:55:30Z</time>
      </trkpt>
      <trkpt lat="47.92164" lon="-3.90251">
        <ele>80.6</ele>
        <time>2022-12-08T14:55:31Z</time>
      </trkpt>
      <trkpt lat="47.92159" lon="-3.90255">
        <ele>80.7</ele>
        <time>2022-12-08T14:55:32Z</time>
      </trkpt>
      <trkpt lat="47.92154" lon="-3.90258">
        <ele>80.9</ele>
        <time>2022-12-08T14:55:33Z</time>
      </trkpt>
      <trkpt lat="47.92149" lon="-3.90261">
        <ele>81</ele>
        <time>2022-12-08T14:55:34Z</time>
      </trkpt>
      <trkpt lat="47.92145" lon="-3.90265">
        <ele>81.2</ele>
        <time>2022-12-08T14:55:35Z</time>
      </trkpt>
      <trkpt lat="47.92141" lon="-3.90269">
        <ele>81.3</ele>
        <time>2022-12-08T14:55:36Z</time>
      </trkpt>
      <trkpt lat="47.92137" lon="-3.90272">
        <ele>81.5</ele>
        <time>2022-12-08T14:55:37Z</time>
      </trkpt>
      <trkpt lat="47.92133" lon="-3.90274">
        <ele>81.6</ele>
        <time>2022-12-08T14:55:38Z</time>
      </trkpt>
      <trkpt lat="47.92129" lon="-3.90274">
        <ele>81.7</ele>
        <time>2022-12-08T14:55:39Z</time>
      </trkpt>
      <trkpt lat="47.92127" lon="-3.90274">
        <ele>81.8</ele>
        <time>2022-12-08T14:55:40Z</time>
      </trkpt>
      <trkpt lat="47.92125" lon="-3.90275">
        <ele>81.9</ele>
        <time>2022-12-08T14:55:41Z</time>
      </trkpt>
      <trkpt lat="47.92124" lon="-3.90276">
        <ele>81.9</ele>
        <time>2022-12-08T14:55:42Z</time>
      </trkpt>
      <trkpt lat="47.9212" lon="-3.90279">
        <ele>82</ele>
        <time>2022-12-08T14:55:43Z</time>
      </trkpt>
      <trkpt lat="47.92118" lon="-3.9028">
        <ele>82</ele>
        <time>2022-12-08T14:55:44Z</time>
      </trkpt>
      <trkpt lat="47.92114" lon="-3.90284">
        <ele>82</ele>
        <time>2022-12-08T14:55:45Z</time>
      </trkpt>
      <trkpt lat="47.92112" lon="-3.90286">
        <ele>82</ele>
        <time>2022-12-08T14:55:46Z</time>
      </trkpt>
      <trkpt lat="47.92106" lon="-3.90288">
        <ele>82</ele>
        <time>2022-12-08T14:55:47Z</time>
      </trkpt>
      <trkpt lat="47.92101" lon="-3.90291">
        <ele>82.1</ele>
        <time>2022-12-08T14:55:48Z</time>
      </trkpt>
      <trkpt lat="47.92096" lon="-3.90295">
        <ele>82.1</ele>
        <time>2022-12-08T14:55:49Z</time>
      </trkpt>
      <trkpt lat="47.92091" lon="-3.90298">
        <ele>82.1</ele>
        <time>2022-12-08T14:55:50Z</time>
      </trkpt>
      <trkpt lat="47.92086" lon="-3.90301">
        <ele>82.2</ele>
        <time>2022-12-08T14:55:51Z</time>
      </trkpt>
      <trkpt lat="47.92082" lon="-3.90304">
        <ele>82.2</ele>
        <time>2022-12-08T14:55:52Z</time>
      </trkpt>
      <trkpt lat="47.92077" lon="-3.90307">
        <ele>82.3</ele>
        <time>2022-12-08T14:55:53Z</time>
      </trkpt>
      <trkpt lat="47.92072" lon="-3.90309">
        <ele>82.4</ele>
        <time>2022-12-08T14:55:54Z</time>
      </trkpt>
      <trkpt lat="47.92068" lon="-3.90311">
        <ele>82.4</ele>
        <time>2022-12-08T14:55:55Z</time>
      </trkpt>
      <trkpt lat="47.92063" lon="-3.90313">
        <ele>82.5</ele>
        <time>2022-12-08T14:55:56Z</time>
      </trkpt>
      <trkpt lat="47.92059" lon="-3.90315">
        <ele>82.5</ele>
        <time>2022-12-08T14:55:57Z</time>
      </trkpt>
      <trkpt lat="47.92054" lon="-3.90318">
        <ele>82.6</ele>
        <time>2022-12-08T14:55:58Z</time>
      </trkpt>
      <trkpt lat="47.92049" lon="-3.9032">
        <ele>82.6</ele>
        <time>2022-12-08T14:55:59Z</time>
      </trkpt>
      <trkpt lat="47.92044" lon="-3.90323">
        <ele>82.7</ele>
        <time>2022-12-08T14:56:00Z</time>
      </trkpt>
      <trkpt lat="47.92039" lon="-3.90325">
        <ele>82.7</ele>
        <time>2022-12-08T14:56:01Z</time>
      </trkpt>
      <trkpt lat="47.92034" lon="-3.90328">
        <ele>82.7</ele>
        <time>2022-12-08T14:56:02Z</time>
      </trkpt>
      <trkpt lat="47.92029" lon="-3.9033">
        <ele>82.8</ele>
        <time>2022-12-08T14:56:03Z</time>
      </trkpt>
      <trkpt lat="47.92024" lon="-3.90333">
        <ele>82.8</ele>
        <time>2022-12-08T14:56:04Z</time>
      </trkpt>
      <trkpt lat="47.92018" lon="-3.90336">
        <ele>82.8</ele>
        <time>2022-12-08T14:56:05Z</time>
      </trkpt>
      <trkpt lat="47.92013" lon="-3.90339">
        <ele>82.8</ele>
        <time>2022-12-08T14:56:06Z</time>
      </trkpt>
      <trkpt lat="47.92007" lon="-3.90341">
        <ele>82.8</ele>
        <time>2022-12-08T14:56:07Z</time>
      </trkpt>
      <trkpt lat="47.92002" lon="-3.90344">
        <ele>82.8</ele>
        <time>2022-12-08T14:56:08Z</time>
      </trkpt>
      <trkpt lat="47.91996" lon="-3.90347">
        <ele>82.9</ele>
        <time>2022-12-08T14:56:09Z</time>
      </trkpt>
      <trkpt lat="47.91991" lon="-3.90349">
        <ele>82.9</ele>
        <time>2022-12-08T14:56:10Z</time>
      </trkpt>
      <trkpt lat="47.91986" lon="-3.90352">
        <ele>82.9</ele>
        <time>2022-12-08T14:56:11Z</time>
      </trkpt>
      <trkpt lat="47.91981" lon="-3.90354">
        <ele>82.9</ele>
        <time>2022-12-08T14:56:12Z</time>
      </trkpt>
      <trkpt lat="47.91976" lon="-3.90357">
        <ele>82.9</ele>
        <time>2022-12-08T14:56:13Z</time>
      </trkpt>
      <trkpt lat="47.9197" lon="-3.9036">
        <ele>82.9</ele>
        <time>2022-12-08T14:56:14Z</time>
      </trkpt>
      <trkpt lat="47.91965" lon="-3.90362">
        <ele>82.9</ele>
        <time>2022-12-08T14:56:15Z</time>
      </trkpt>
      <trkpt lat="47.91954" lon="-3.90368">
        <ele>82.9</ele>
        <time>2022-12-08T14:56:17Z</time>
      </trkpt>
      <trkpt lat="47.91949" lon="-3.90371">
        <ele>82.9</ele>
        <time>2022-12-08T14:56:18Z</time>
      </trkpt>
      <trkpt lat="47.91943" lon="-3.90374">
        <ele>82.9</ele>
        <time>2022-12-08T14:56:19Z</time>
      </trkpt>
      <trkpt lat="47.91938" lon="-3.90376">
        <ele>82.9</ele>
        <time>2022-12-08T14:56:20Z</time>
      </trkpt>
      <trkpt lat="47.91932" lon="-3.90379">
        <ele>82.9</ele>
        <time>2022-12-08T14:56:21Z</time>
      </trkpt>
      <trkpt lat="47.91927" lon="-3.90381">
        <ele>82.9</ele>
        <time>2022-12-08T14:56:22Z</time>
      </trkpt>
      <trkpt lat="47.91921" lon="-3.90384">
        <ele>82.9</ele>
        <time>2022-12-08T14:56:23Z</time>
      </trkpt>
      <trkpt lat="47.91916" lon="-3.90387">
        <ele>82.9</ele>
        <time>2022-12-08T14:56:24Z</time>
      </trkpt>
      <trkpt lat="47.9191" lon="-3.9039">
        <ele>82.9</ele>
        <time>2022-12-08T14:56:25Z</time>
      </trkpt>
      <trkpt lat="47.91904" lon="-3.90393">
        <ele>82.9</ele>
        <time>2022-12-08T14:56:26Z</time>
      </trkpt>
      <trkpt lat="47.91899" lon="-3.90395">
        <ele>83</ele>
        <time>2022-12-08T14:56:27Z</time>
      </trkpt>
      <trkpt lat="47.91893" lon="-3.90398">
        <ele>83</ele>
        <time>2022-12-08T14:56:28Z</time>
      </trkpt>
      <trkpt lat="47.91888" lon="-3.90401">
        <ele>83</ele>
        <time>2022-12-08T14:56:29Z</time>
      </trkpt>
      <trkpt lat="47.91882" lon="-3.90404">
        <ele>83</ele>
        <time>2022-12-08T14:56:30Z</time>
      </trkpt>
      <trkpt lat="47.91877" lon="-3.90407">
        <ele>83</ele>
        <time>2022-12-08T14:56:31Z</time>
      </trkpt>
      <trkpt lat="47.91871" lon="-3.9041">
        <ele>83</ele>
        <time>2022-12-08T14:56:32Z</time>
      </trkpt>
      <trkpt lat="47.91866" lon="-3.90413">
        <ele>83</ele>
        <time>2022-12-08T14:56:33Z</time>
      </trkpt>
      <trkpt lat="47.91855" lon="-3.90419">
        <ele>83.1</ele>
        <time>2022-12-08T14:56:35Z</time>
      </trkpt>
      <trkpt lat="47.9185" lon="-3.90421">
        <ele>83.1</ele>
        <time>2022-12-08T14:56:36Z</time>
      </trkpt>
      <trkpt lat="47.91845" lon="-3.90424">
        <ele>83.1</ele>
        <time>2022-12-08T14:56:37Z</time>
      </trkpt>
      <trkpt lat="47.9184" lon="-3.90428">
        <ele>83.1</ele>
        <time>2022-12-08T14:56:38Z</time>
      </trkpt>
      <trkpt lat="47.91835" lon="-3.90431">
        <ele>83.1</ele>
        <time>2022-12-08T14:56:39Z</time>
      </trkpt>
      <trkpt lat="47.91829" lon="-3.90433">
        <ele>83.1</ele>
        <time>2022-12-08T14:56:40Z</time>
      </trkpt>
      <trkpt lat="47.91823" lon="-3.90435">
        <ele>83.1</ele>
        <time>2022-12-08T14:56:41Z</time>
      </trkpt>
      <trkpt lat="47.91817" lon="-3.90437">
        <ele>83.1</ele>
        <time>2022-12-08T14:56:42Z</time>
      </trkpt>
      <trkpt lat="47.91811" lon="-3.9044">
        <ele>83.1</ele>
        <time>2022-12-08T14:56:43Z</time>
      </trkpt>
      <trkpt lat="47.91806" lon="-3.90444">
        <ele>83.1</ele>
        <time>2022-12-08T14:56:44Z</time>
      </trkpt>
      <trkpt lat="47.918" lon="-3.90447">
        <ele>83</ele>
        <time>2022-12-08T14:56:45Z</time>
      </trkpt>
      <trkpt lat="47.91794" lon="-3.90449">
        <ele>83</ele>
        <time>2022-12-08T14:56:46Z</time>
      </trkpt>
      <trkpt lat="47.91788" lon="-3.90452">
        <ele>83</ele>
        <time>2022-12-08T14:56:47Z</time>
      </trkpt>
      <trkpt lat="47.91782" lon="-3.90455">
        <ele>83</ele>
        <time>2022-12-08T14:56:48Z</time>
      </trkpt>
      <trkpt lat="47.91776" lon="-3.90458">
        <ele>83</ele>
        <time>2022-12-08T14:56:49Z</time>
      </trkpt>
      <trkpt lat="47.9177" lon="-3.90462">
        <ele>83</ele>
        <time>2022-12-08T14:56:50Z</time>
      </trkpt>
      <trkpt lat="47.91764" lon="-3.90466">
        <ele>83</ele>
        <time>2022-12-08T14:56:51Z</time>
      </trkpt>
      <trkpt lat="47.91759" lon="-3.90469">
        <ele>83</ele>
        <time>2022-12-08T14:56:52Z</time>
      </trkpt>
      <trkpt lat="47.91753" lon="-3.90473">
        <ele>83</ele>
        <time>2022-12-08T14:56:53Z</time>
      </trkpt>
      <trkpt lat="47.91747" lon="-3.90476">
        <ele>83</ele>
        <time>2022-12-08T14:56:54Z</time>
      </trkpt>
      <trkpt lat="47.91741" lon="-3.9048">
        <ele>83.1</ele>
        <time>2022-12-08T14:56:55Z</time>
      </trkpt>
      <trkpt lat="47.91735" lon="-3.90483">
        <ele>83.1</ele>
        <time>2022-12-08T14:56:56Z</time>
      </trkpt>
      <trkpt lat="47.91728" lon="-3.90486">
        <ele>83.1</ele>
        <time>2022-12-08T14:56:57Z</time>
      </trkpt>
      <trkpt lat="47.91722" lon="-3.90489">
        <ele>83.1</ele>
        <time>2022-12-08T14:56:58Z</time>
      </trkpt>
      <trkpt lat="47.91716" lon="-3.90491">
        <ele>83.1</ele>
        <time>2022-12-08T14:56:59Z</time>
      </trkpt>
      <trkpt lat="47.9171" lon="-3.90493">
        <ele>83.1</ele>
        <time>2022-12-08T14:57:00Z</time>
      </trkpt>
      <trkpt lat="47.91704" lon="-3.90496">
        <ele>83.1</ele>
        <time>2022-12-08T14:57:01Z</time>
      </trkpt>
      <trkpt lat="47.91698" lon="-3.90498">
        <ele>83.2</ele>
        <time>2022-12-08T14:57:02Z</time>
      </trkpt>
      <trkpt lat="47.91692" lon="-3.90501">
        <ele>83.2</ele>
        <time>2022-12-08T14:57:03Z</time>
      </trkpt>
      <trkpt lat="47.91687" lon="-3.90503">
        <ele>83.2</ele>
        <time>2022-12-08T14:57:04Z</time>
      </trkpt>
      <trkpt lat="47.91681" lon="-3.90506">
        <ele>83.2</ele>
        <time>2022-12-08T14:57:05Z</time>
      </trkpt>
      <trkpt lat="47.91674" lon="-3.90507">
        <ele>83.2</ele>
        <time>2022-12-08T14:57:06Z</time>
      </trkpt>
      <trkpt lat="47.91668" lon="-3.90509">
        <ele>83.2</ele>
        <time>2022-12-08T14:57:07Z</time>
      </trkpt>
      <trkpt lat="47.91662" lon="-3.90511">
        <ele>83.2</ele>
        <time>2022-12-08T14:57:08Z</time>
      </trkpt>
      <trkpt lat="47.91656" lon="-3.90512">
        <ele>83.2</ele>
        <time>2022-12-08T14:57:09Z</time>
      </trkpt>
      <trkpt lat="47.9165" lon="-3.90513">
        <ele>83.2</ele>
        <time>2022-12-08T14:57:10Z</time>
      </trkpt>
      <trkpt lat="47.91643" lon="-3.90514">
        <ele>83.2</ele>
        <time>2022-12-08T14:57:11Z</time>
      </trkpt>
      <trkpt lat="47.91637" lon="-3.90515">
        <ele>83.1</ele>
        <time>2022-12-08T14:57:12Z</time>
      </trkpt>
      <trkpt lat="47.91631" lon="-3.90518">
        <ele>83.1</ele>
        <time>2022-12-08T14:57:13Z</time>
      </trkpt>
      <trkpt lat="47.91625" lon="-3.9052">
        <ele>83.1</ele>
        <time>2022-12-08T14:57:14Z</time>
      </trkpt>
      <trkpt lat="47.91618" lon="-3.90521">
        <ele>83.1</ele>
        <time>2022-12-08T14:57:15Z</time>
      </trkpt>
      <trkpt lat="47.91612" lon="-3.90522">
        <ele>83</ele>
        <time>2022-12-08T14:57:16Z</time>
      </trkpt>
      <trkpt lat="47.91606" lon="-3.90523">
        <ele>83</ele>
        <time>2022-12-08T14:57:17Z</time>
      </trkpt>
      <trkpt lat="47.91599" lon="-3.90525">
        <ele>82.9</ele>
        <time>2022-12-08T14:57:18Z</time>
      </trkpt>
      <trkpt lat="47.91592" lon="-3.90525">
        <ele>82.9</ele>
        <time>2022-12-08T14:57:19Z</time>
      </trkpt>
      <trkpt lat="47.91586" lon="-3.90525">
        <ele>82.9</ele>
        <time>2022-12-08T14:57:20Z</time>
      </trkpt>
      <trkpt lat="47.9158" lon="-3.90526">
        <ele>82.9</ele>
        <time>2022-12-08T14:57:21Z</time>
      </trkpt>
      <trkpt lat="47.91573" lon="-3.90527">
        <ele>82.9</ele>
        <time>2022-12-08T14:57:22Z</time>
      </trkpt>
      <trkpt lat="47.91567" lon="-3.90528">
        <ele>82.9</ele>
        <time>2022-12-08T14:57:23Z</time>
      </trkpt>
      <trkpt lat="47.91561" lon="-3.90529">
        <ele>83</ele>
        <time>2022-12-08T14:57:24Z</time>
      </trkpt>
      <trkpt lat="47.91554" lon="-3.9053">
        <ele>83</ele>
        <time>2022-12-08T14:57:25Z</time>
      </trkpt>
      <trkpt lat="47.91548" lon="-3.90531">
        <ele>83</ele>
        <time>2022-12-08T14:57:26Z</time>
      </trkpt>
      <trkpt lat="47.91541" lon="-3.90532">
        <ele>83.1</ele>
        <time>2022-12-08T14:57:27Z</time>
      </trkpt>
      <trkpt lat="47.91535" lon="-3.90533">
        <ele>83.1</ele>
        <time>2022-12-08T14:57:28Z</time>
      </trkpt>
      <trkpt lat="47.91529" lon="-3.90534">
        <ele>83.2</ele>
        <time>2022-12-08T14:57:29Z</time>
      </trkpt>
      <trkpt lat="47.91523" lon="-3.90536">
        <ele>83.3</ele>
        <time>2022-12-08T14:57:30Z</time>
      </trkpt>
      <trkpt lat="47.91517" lon="-3.90537">
        <ele>83.4</ele>
        <time>2022-12-08T14:57:31Z</time>
      </trkpt>
      <trkpt lat="47.91511" lon="-3.90537">
        <ele>83.5</ele>
        <time>2022-12-08T14:57:32Z</time>
      </trkpt>
      <trkpt lat="47.91505" lon="-3.90538">
        <ele>83.6</ele>
        <time>2022-12-08T14:57:33Z</time>
      </trkpt>
      <trkpt lat="47.91499" lon="-3.90539">
        <ele>83.6</ele>
        <time>2022-12-08T14:57:34Z</time>
      </trkpt>
      <trkpt lat="47.91494" lon="-3.90538">
        <ele>83.7</ele>
        <time>2022-12-08T14:57:35Z</time>
      </trkpt>
      <trkpt lat="47.91488" lon="-3.90539">
        <ele>83.8</ele>
        <time>2022-12-08T14:57:36Z</time>
      </trkpt>
      <trkpt lat="47.91482" lon="-3.9054">
        <ele>83.9</ele>
        <time>2022-12-08T14:57:37Z</time>
      </trkpt>
      <trkpt lat="47.91476" lon="-3.90541">
        <ele>83.9</ele>
        <time>2022-12-08T14:57:38Z</time>
      </trkpt>
      <trkpt lat="47.9147" lon="-3.90542">
        <ele>84</ele>
        <time>2022-12-08T14:57:39Z</time>
      </trkpt>
      <trkpt lat="47.91464" lon="-3.90543">
        <ele>84.1</ele>
        <time>2022-12-08T14:57:40Z</time>
      </trkpt>
      <trkpt lat="47.91458" lon="-3.90544">
        <ele>84.2</ele>
        <time>2022-12-08T14:57:41Z</time>
      </trkpt>
      <trkpt lat="47.91453" lon="-3.90545">
        <ele>84.3</ele>
        <time>2022-12-08T14:57:42Z</time>
      </trkpt>
      <trkpt lat="47.91447" lon="-3.90546">
        <ele>84.4</ele>
        <time>2022-12-08T14:57:43Z</time>
      </trkpt>
      <trkpt lat="47.91442" lon="-3.90547">
        <ele>84.5</ele>
        <time>2022-12-08T14:57:44Z</time>
      </trkpt>
      <trkpt lat="47.91436" lon="-3.90547">
        <ele>84.6</ele>
        <time>2022-12-08T14:57:45Z</time>
      </trkpt>
      <trkpt lat="47.9143" lon="-3.90548">
        <ele>84.7</ele>
        <time>2022-12-08T14:57:46Z</time>
      </trkpt>
      <trkpt lat="47.91425" lon="-3.90548">
        <ele>84.8</ele>
        <time>2022-12-08T14:57:47Z</time>
      </trkpt>
      <trkpt lat="47.91419" lon="-3.90548">
        <ele>84.9</ele>
        <time>2022-12-08T14:57:48Z</time>
      </trkpt>
      <trkpt lat="47.91413" lon="-3.90548">
        <ele>85</ele>
        <time>2022-12-08T14:57:49Z</time>
      </trkpt>
      <trkpt lat="47.91407" lon="-3.90549">
        <ele>85.1</ele>
        <time>2022-12-08T14:57:50Z</time>
      </trkpt>
      <trkpt lat="47.91401" lon="-3.9055">
        <ele>85.2</ele>
        <time>2022-12-08T14:57:51Z</time>
      </trkpt>
      <trkpt lat="47.91395" lon="-3.90551">
        <ele>85.2</ele>
        <time>2022-12-08T14:57:52Z</time>
      </trkpt>
      <trkpt lat="47.91389" lon="-3.90551">
        <ele>85.3</ele>
        <time>2022-12-08T14:57:53Z</time>
      </trkpt>
      <trkpt lat="47.91384" lon="-3.90552">
        <ele>85.4</ele>
        <time>2022-12-08T14:57:54Z</time>
      </trkpt>
      <trkpt lat="47.91378" lon="-3.90553">
        <ele>85.5</ele>
        <time>2022-12-08T14:57:55Z</time>
      </trkpt>
      <trkpt lat="47.91372" lon="-3.90554">
        <ele>85.5</ele>
        <time>2022-12-08T14:57:56Z</time>
      </trkpt>
      <trkpt lat="47.91367" lon="-3.90555">
        <ele>85.6</ele>
        <time>2022-12-08T14:57:57Z</time>
      </trkpt>
      <trkpt lat="47.91361" lon="-3.90555">
        <ele>85.7</ele>
        <time>2022-12-08T14:57:58Z</time>
      </trkpt>
      <trkpt lat="47.91355" lon="-3.90556">
        <ele>85.8</ele>
        <time>2022-12-08T14:57:59Z</time>
      </trkpt>
      <trkpt lat="47.9135" lon="-3.90556">
        <ele>85.8</ele>
        <time>2022-12-08T14:58:00Z</time>
      </trkpt>
      <trkpt lat="47.91344" lon="-3.90557">
        <ele>85.9</ele>
        <time>2022-12-08T14:58:01Z</time>
      </trkpt>
      <trkpt lat="47.91339" lon="-3.90558">
        <ele>86</ele>
        <time>2022-12-08T14:58:02Z</time>
      </trkpt>
      <trkpt lat="47.91333" lon="-3.90559">
        <ele>86.1</ele>
        <time>2022-12-08T14:58:03Z</time>
      </trkpt>
      <trkpt lat="47.91327" lon="-3.90559">
        <ele>86.1</ele>
        <time>2022-12-08T14:58:04Z</time>
      </trkpt>
      <trkpt lat="47.91322" lon="-3.9056">
        <ele>86.2</ele>
        <time>2022-12-08T14:58:05Z</time>
      </trkpt>
      <trkpt lat="47.91316" lon="-3.90562">
        <ele>86.2</ele>
        <time>2022-12-08T14:58:06Z</time>
      </trkpt>
      <trkpt lat="47.91311" lon="-3.90563">
        <ele>86.3</ele>
        <time>2022-12-08T14:58:07Z</time>
      </trkpt>
      <trkpt lat="47.91305" lon="-3.90564">
        <ele>86.4</ele>
        <time>2022-12-08T14:58:08Z</time>
      </trkpt>
      <trkpt lat="47.91299" lon="-3.90565">
        <ele>86.4</ele>
        <time>2022-12-08T14:58:09Z</time>
      </trkpt>
      <trkpt lat="47.91294" lon="-3.90566">
        <ele>86.4</ele>
        <time>2022-12-08T14:58:10Z</time>
      </trkpt>
      <trkpt lat="47.91288" lon="-3.90567">
        <ele>86.4</ele>
        <time>2022-12-08T14:58:11Z</time>
      </trkpt>
      <trkpt lat="47.91282" lon="-3.90568">
        <ele>86.4</ele>
        <time>2022-12-08T14:58:12Z</time>
      </trkpt>
      <trkpt lat="47.91276" lon="-3.9057">
        <ele>86.4</ele>
        <time>2022-12-08T14:58:13Z</time>
      </trkpt>
      <trkpt lat="47.91271" lon="-3.90571">
        <ele>86.4</ele>
        <time>2022-12-08T14:58:14Z</time>
      </trkpt>
      <trkpt lat="47.91265" lon="-3.90573">
        <ele>86.4</ele>
        <time>2022-12-08T14:58:15Z</time>
      </trkpt>
      <trkpt lat="47.9126" lon="-3.90575">
        <ele>86.4</ele>
        <time>2022-12-08T14:58:16Z</time>
      </trkpt>
      <trkpt lat="47.91254" lon="-3.90577">
        <ele>86.4</ele>
        <time>2022-12-08T14:58:17Z</time>
      </trkpt>
      <trkpt lat="47.91248" lon="-3.90579">
        <ele>86.4</ele>
        <time>2022-12-08T14:58:18Z</time>
      </trkpt>
      <trkpt lat="47.91242" lon="-3.90582">
        <ele>86.4</ele>
        <time>2022-12-08T14:58:19Z</time>
      </trkpt>
      <trkpt lat="47.91237" lon="-3.90584">
        <ele>86.4</ele>
        <time>2022-12-08T14:58:20Z</time>
      </trkpt>
      <trkpt lat="47.91231" lon="-3.90586">
        <ele>86.3</ele>
        <time>2022-12-08T14:58:21Z</time>
      </trkpt>
      <trkpt lat="47.91225" lon="-3.90588">
        <ele>86.3</ele>
        <time>2022-12-08T14:58:22Z</time>
      </trkpt>
      <trkpt lat="47.91219" lon="-3.9059">
        <ele>86.3</ele>
        <time>2022-12-08T14:58:23Z</time>
      </trkpt>
      <trkpt lat="47.91213" lon="-3.90592">
        <ele>86.3</ele>
        <time>2022-12-08T14:58:24Z</time>
      </trkpt>
      <trkpt lat="47.91207" lon="-3.90595">
        <ele>86.3</ele>
        <time>2022-12-08T14:58:25Z</time>
      </trkpt>
      <trkpt lat="47.91201" lon="-3.90598">
        <ele>86.3</ele>
        <time>2022-12-08T14:58:26Z</time>
      </trkpt>
      <trkpt lat="47.91196" lon="-3.90601">
        <ele>86.3</ele>
        <time>2022-12-08T14:58:27Z</time>
      </trkpt>
      <trkpt lat="47.9119" lon="-3.90604">
        <ele>86.4</ele>
        <time>2022-12-08T14:58:28Z</time>
      </trkpt>
      <trkpt lat="47.91184" lon="-3.90607">
        <ele>86.4</ele>
        <time>2022-12-08T14:58:29Z</time>
      </trkpt>
      <trkpt lat="47.91178" lon="-3.9061">
        <ele>86.4</ele>
        <time>2022-12-08T14:58:30Z</time>
      </trkpt>
      <trkpt lat="47.91172" lon="-3.90613">
        <ele>86.4</ele>
        <time>2022-12-08T14:58:31Z</time>
      </trkpt>
      <trkpt lat="47.91166" lon="-3.90617">
        <ele>86.5</ele>
        <time>2022-12-08T14:58:32Z</time>
      </trkpt>
      <trkpt lat="47.91161" lon="-3.9062">
        <ele>86.5</ele>
        <time>2022-12-08T14:58:33Z</time>
      </trkpt>
      <trkpt lat="47.91155" lon="-3.90624">
        <ele>86.5</ele>
        <time>2022-12-08T14:58:34Z</time>
      </trkpt>
      <trkpt lat="47.9115" lon="-3.90628">
        <ele>86.5</ele>
        <time>2022-12-08T14:58:35Z</time>
      </trkpt>
      <trkpt lat="47.91144" lon="-3.90632">
        <ele>86.5</ele>
        <time>2022-12-08T14:58:36Z</time>
      </trkpt>
      <trkpt lat="47.91139" lon="-3.90635">
        <ele>86.4</ele>
        <time>2022-12-08T14:58:37Z</time>
      </trkpt>
      <trkpt lat="47.91133" lon="-3.9064">
        <ele>86.4</ele>
        <time>2022-12-08T14:58:38Z</time>
      </trkpt>
      <trkpt lat="47.91127" lon="-3.90645">
        <ele>86.3</ele>
        <time>2022-12-08T14:58:39Z</time>
      </trkpt>
      <trkpt lat="47.91122" lon="-3.90649">
        <ele>86.2</ele>
        <time>2022-12-08T14:58:40Z</time>
      </trkpt>
      <trkpt lat="47.91116" lon="-3.90655">
        <ele>86.1</ele>
        <time>2022-12-08T14:58:41Z</time>
      </trkpt>
      <trkpt lat="47.91111" lon="-3.90661">
        <ele>86</ele>
        <time>2022-12-08T14:58:42Z</time>
      </trkpt>
      <trkpt lat="47.91105" lon="-3.90665">
        <ele>85.8</ele>
        <time>2022-12-08T14:58:43Z</time>
      </trkpt>
      <trkpt lat="47.91099" lon="-3.90669">
        <ele>85.7</ele>
        <time>2022-12-08T14:58:44Z</time>
      </trkpt>
      <trkpt lat="47.91093" lon="-3.90675">
        <ele>85.5</ele>
        <time>2022-12-08T14:58:45Z</time>
      </trkpt>
      <trkpt lat="47.91087" lon="-3.90681">
        <ele>85.4</ele>
        <time>2022-12-08T14:58:46Z</time>
      </trkpt>
      <trkpt lat="47.91082" lon="-3.90686">
        <ele>85.2</ele>
        <time>2022-12-08T14:58:47Z</time>
      </trkpt>
      <trkpt lat="47.91075" lon="-3.90691">
        <ele>85.1</ele>
        <time>2022-12-08T14:58:48Z</time>
      </trkpt>
      <trkpt lat="47.9107" lon="-3.90696">
        <ele>85</ele>
        <time>2022-12-08T14:58:49Z</time>
      </trkpt>
      <trkpt lat="47.91064" lon="-3.90701">
        <ele>84.9</ele>
        <time>2022-12-08T14:58:50Z</time>
      </trkpt>
      <trkpt lat="47.91058" lon="-3.90707">
        <ele>84.8</ele>
        <time>2022-12-08T14:58:51Z</time>
      </trkpt>
      <trkpt lat="47.91052" lon="-3.90713">
        <ele>84.7</ele>
        <time>2022-12-08T14:58:52Z</time>
      </trkpt>
      <trkpt lat="47.91046" lon="-3.90718">
        <ele>84.7</ele>
        <time>2022-12-08T14:58:53Z</time>
      </trkpt>
      <trkpt lat="47.9104" lon="-3.90724">
        <ele>84.6</ele>
        <time>2022-12-08T14:58:54Z</time>
      </trkpt>
      <trkpt lat="47.91034" lon="-3.90728">
        <ele>84.6</ele>
        <time>2022-12-08T14:58:55Z</time>
      </trkpt>
      <trkpt lat="47.91028" lon="-3.90733">
        <ele>84.5</ele>
        <time>2022-12-08T14:58:56Z</time>
      </trkpt>
      <trkpt lat="47.91023" lon="-3.90738">
        <ele>84.4</ele>
        <time>2022-12-08T14:58:57Z</time>
      </trkpt>
      <trkpt lat="47.91017" lon="-3.90742">
        <ele>84.3</ele>
        <time>2022-12-08T14:58:58Z</time>
      </trkpt>
      <trkpt lat="47.91012" lon="-3.90746">
        <ele>84.3</ele>
        <time>2022-12-08T14:58:59Z</time>
      </trkpt>
      <trkpt lat="47.91006" lon="-3.90751">
        <ele>84.2</ele>
        <time>2022-12-08T14:59:00Z</time>
      </trkpt>
      <trkpt lat="47.91002" lon="-3.90755">
        <ele>84.1</ele>
        <time>2022-12-08T14:59:01Z</time>
      </trkpt>
      <trkpt lat="47.90997" lon="-3.90761">
        <ele>84.1</ele>
        <time>2022-12-08T14:59:02Z</time>
      </trkpt>
      <trkpt lat="47.90992" lon="-3.90766">
        <ele>84</ele>
        <time>2022-12-08T14:59:03Z</time>
      </trkpt>
      <trkpt lat="47.90986" lon="-3.90771">
        <ele>83.9</ele>
        <time>2022-12-08T14:59:04Z</time>
      </trkpt>
      <trkpt lat="47.90981" lon="-3.90776">
        <ele>83.9</ele>
        <time>2022-12-08T14:59:05Z</time>
      </trkpt>
      <trkpt lat="47.90977" lon="-3.9078">
        <ele>83.8</ele>
        <time>2022-12-08T14:59:06Z</time>
      </trkpt>
      <trkpt lat="47.90973" lon="-3.90782">
        <ele>83.8</ele>
        <time>2022-12-08T14:59:07Z</time>
      </trkpt>
      <trkpt lat="47.90968" lon="-3.90784">
        <ele>83.7</ele>
        <time>2022-12-08T14:59:08Z</time>
      </trkpt>
      <trkpt lat="47.90963" lon="-3.90786">
        <ele>83.7</ele>
        <time>2022-12-08T14:59:09Z</time>
      </trkpt>
      <trkpt lat="47.90958" lon="-3.90787">
        <ele>83.6</ele>
        <time>2022-12-08T14:59:10Z</time>
      </trkpt>
      <trkpt lat="47.90952" lon="-3.90788">
        <ele>83.6</ele>
        <time>2022-12-08T14:59:11Z</time>
      </trkpt>
      <trkpt lat="47.90947" lon="-3.9079">
        <ele>83.5</ele>
        <time>2022-12-08T14:59:12Z</time>
      </trkpt>
      <trkpt lat="47.90942" lon="-3.90792">
        <ele>83.3</ele>
        <time>2022-12-08T14:59:13Z</time>
      </trkpt>
      <trkpt lat="47.90937" lon="-3.90793">
        <ele>83.2</ele>
        <time>2022-12-08T14:59:14Z</time>
      </trkpt>
      <trkpt lat="47.90931" lon="-3.90793">
        <ele>83</ele>
        <time>2022-12-08T14:59:15Z</time>
      </trkpt>
      <trkpt lat="47.90924" lon="-3.90791">
        <ele>82.9</ele>
        <time>2022-12-08T14:59:16Z</time>
      </trkpt>
      <trkpt lat="47.90918" lon="-3.9079">
        <ele>82.8</ele>
        <time>2022-12-08T14:59:17Z</time>
      </trkpt>
      <trkpt lat="47.90911" lon="-3.90788">
        <ele>82.6</ele>
        <time>2022-12-08T14:59:18Z</time>
      </trkpt>
      <trkpt lat="47.90904" lon="-3.90788">
        <ele>82.6</ele>
        <time>2022-12-08T14:59:19Z</time>
      </trkpt>
      <trkpt lat="47.90898" lon="-3.90787">
        <ele>82.5</ele>
        <time>2022-12-08T14:59:20Z</time>
      </trkpt>
      <trkpt lat="47.90891" lon="-3.90785">
        <ele>82.4</ele>
        <time>2022-12-08T14:59:21Z</time>
      </trkpt>
      <trkpt lat="47.90884" lon="-3.90784">
        <ele>82.3</ele>
        <time>2022-12-08T14:59:22Z</time>
      </trkpt>
      <trkpt lat="47.90878" lon="-3.90782">
        <ele>82.3</ele>
        <time>2022-12-08T14:59:23Z</time>
      </trkpt>
      <trkpt lat="47.90871" lon="-3.9078">
        <ele>82.2</ele>
        <time>2022-12-08T14:59:24Z</time>
      </trkpt>
      <trkpt lat="47.90865" lon="-3.90779">
        <ele>82.1</ele>
        <time>2022-12-08T14:59:25Z</time>
      </trkpt>
      <trkpt lat="47.90858" lon="-3.90777">
        <ele>82</ele>
        <time>2022-12-08T14:59:26Z</time>
      </trkpt>
      <trkpt lat="47.90851" lon="-3.90775">
        <ele>81.9</ele>
        <time>2022-12-08T14:59:27Z</time>
      </trkpt>
      <trkpt lat="47.90845" lon="-3.90773">
        <ele>81.9</ele>
        <time>2022-12-08T14:59:28Z</time>
      </trkpt>
      <trkpt lat="47.90838" lon="-3.90772">
        <ele>81.8</ele>
        <time>2022-12-08T14:59:29Z</time>
      </trkpt>
      <trkpt lat="47.90832" lon="-3.90769">
        <ele>81.7</ele>
        <time>2022-12-08T14:59:30Z</time>
      </trkpt>
      <trkpt lat="47.90825" lon="-3.90766">
        <ele>81.7</ele>
        <time>2022-12-08T14:59:31Z</time>
      </trkpt>
      <trkpt lat="47.90819" lon="-3.90765">
        <ele>81.6</ele>
        <time>2022-12-08T14:59:32Z</time>
      </trkpt>
      <trkpt lat="47.90812" lon="-3.90766">
        <ele>81.6</ele>
        <time>2022-12-08T14:59:33Z</time>
      </trkpt>
      <trkpt lat="47.90805" lon="-3.90768">
        <ele>81.5</ele>
        <time>2022-12-08T14:59:34Z</time>
      </trkpt>
      <trkpt lat="47.90798" lon="-3.90769">
        <ele>81.4</ele>
        <time>2022-12-08T14:59:35Z</time>
      </trkpt>
      <trkpt lat="47.90791" lon="-3.90773">
        <ele>81.3</ele>
        <time>2022-12-08T14:59:36Z</time>
      </trkpt>
      <trkpt lat="47.90785" lon="-3.90778">
        <ele>81.2</ele>
        <time>2022-12-08T14:59:37Z</time>
      </trkpt>
      <trkpt lat="47.90779" lon="-3.90783">
        <ele>81.1</ele>
        <time>2022-12-08T14:59:38Z</time>
      </trkpt>
      <trkpt lat="47.90772" lon="-3.90787">
        <ele>81.1</ele>
        <time>2022-12-08T14:59:39Z</time>
      </trkpt>
      <trkpt lat="47.90765" lon="-3.90791">
        <ele>81</ele>
        <time>2022-12-08T14:59:40Z</time>
      </trkpt>
      <trkpt lat="47.90758" lon="-3.90795">
        <ele>81</ele>
        <time>2022-12-08T14:59:41Z</time>
      </trkpt>
      <trkpt lat="47.90751" lon="-3.90798">
        <ele>80.9</ele>
        <time>2022-12-08T14:59:42Z</time>
      </trkpt>
      <trkpt lat="47.90744" lon="-3.908">
        <ele>80.8</ele>
        <time>2022-12-08T14:59:43Z</time>
      </trkpt>
      <trkpt lat="47.90736" lon="-3.90804">
        <ele>80.7</ele>
        <time>2022-12-08T14:59:44Z</time>
      </trkpt>
      <trkpt lat="47.90729" lon="-3.90807">
        <ele>80.7</ele>
        <time>2022-12-08T14:59:45Z</time>
      </trkpt>
      <trkpt lat="47.90722" lon="-3.9081">
        <ele>80.6</ele>
        <time>2022-12-08T14:59:46Z</time>
      </trkpt>
      <trkpt lat="47.90715" lon="-3.90814">
        <ele>80.5</ele>
        <time>2022-12-08T14:59:47Z</time>
      </trkpt>
      <trkpt lat="47.90708" lon="-3.90817">
        <ele>80.4</ele>
        <time>2022-12-08T14:59:48Z</time>
      </trkpt>
      <trkpt lat="47.90701" lon="-3.90821">
        <ele>80.4</ele>
        <time>2022-12-08T14:59:49Z</time>
      </trkpt>
      <trkpt lat="47.90694" lon="-3.90824">
        <ele>80.3</ele>
        <time>2022-12-08T14:59:50Z</time>
      </trkpt>
      <trkpt lat="47.90687" lon="-3.90829">
        <ele>80.2</ele>
        <time>2022-12-08T14:59:51Z</time>
      </trkpt>
      <trkpt lat="47.9068" lon="-3.90833">
        <ele>80.2</ele>
        <time>2022-12-08T14:59:52Z</time>
      </trkpt>
      <trkpt lat="47.90673" lon="-3.90837">
        <ele>80.1</ele>
        <time>2022-12-08T14:59:53Z</time>
      </trkpt>
      <trkpt lat="47.90666" lon="-3.90842">
        <ele>80.1</ele>
        <time>2022-12-08T14:59:54Z</time>
      </trkpt>
      <trkpt lat="47.90658" lon="-3.90847">
        <ele>80</ele>
        <time>2022-12-08T14:59:55Z</time>
      </trkpt>
      <trkpt lat="47.90651" lon="-3.90852">
        <ele>79.9</ele>
        <time>2022-12-08T14:59:56Z</time>
      </trkpt>
      <trkpt lat="47.90644" lon="-3.90857">
        <ele>79.8</ele>
        <time>2022-12-08T14:59:57Z</time>
      </trkpt>
      <trkpt lat="47.90637" lon="-3.90862">
        <ele>79.7</ele>
        <time>2022-12-08T14:59:58Z</time>
      </trkpt>
      <trkpt lat="47.9063" lon="-3.90867">
        <ele>79.6</ele>
        <time>2022-12-08T14:59:59Z</time>
      </trkpt>
      <trkpt lat="47.90623" lon="-3.90872">
        <ele>79.5</ele>
        <time>2022-12-08T15:00:00Z</time>
      </trkpt>
      <trkpt lat="47.90615" lon="-3.90878">
        <ele>79.4</ele>
        <time>2022-12-08T15:00:01Z</time>
      </trkpt>
      <trkpt lat="47.90608" lon="-3.90883">
        <ele>79.3</ele>
        <time>2022-12-08T15:00:02Z</time>
      </trkpt>
      <trkpt lat="47.90601" lon="-3.90889">
        <ele>79.1</ele>
        <time>2022-12-08T15:00:03Z</time>
      </trkpt>
      <trkpt lat="47.90594" lon="-3.90895">
        <ele>79.1</ele>
        <time>2022-12-08T15:00:04Z</time>
      </trkpt>
      <trkpt lat="47.90587" lon="-3.909">
        <ele>79</ele>
        <time>2022-12-08T15:00:05Z</time>
      </trkpt>
      <trkpt lat="47.90581" lon="-3.90905">
        <ele>78.9</ele>
        <time>2022-12-08T15:00:06Z</time>
      </trkpt>
      <trkpt lat="47.90574" lon="-3.90911">
        <ele>78.8</ele>
        <time>2022-12-08T15:00:07Z</time>
      </trkpt>
      <trkpt lat="47.90567" lon="-3.90916">
        <ele>78.7</ele>
        <time>2022-12-08T15:00:08Z</time>
      </trkpt>
      <trkpt lat="47.9056" lon="-3.90922">
        <ele>78.6</ele>
        <time>2022-12-08T15:00:09Z</time>
      </trkpt>
      <trkpt lat="47.90553" lon="-3.90928">
        <ele>78.5</ele>
        <time>2022-12-08T15:00:10Z</time>
      </trkpt>
      <trkpt lat="47.90546" lon="-3.90933">
        <ele>78.4</ele>
        <time>2022-12-08T15:00:11Z</time>
      </trkpt>
      <trkpt lat="47.90539" lon="-3.90939">
        <ele>78.3</ele>
        <time>2022-12-08T15:00:12Z</time>
      </trkpt>
      <trkpt lat="47.90532" lon="-3.90945">
        <ele>78.2</ele>
        <time>2022-12-08T15:00:13Z</time>
      </trkpt>
      <trkpt lat="47.90524" lon="-3.90951">
        <ele>78.1</ele>
        <time>2022-12-08T15:00:14Z</time>
      </trkpt>
      <trkpt lat="47.90516" lon="-3.90956">
        <ele>78</ele>
        <time>2022-12-08T15:00:15Z</time>
      </trkpt>
      <trkpt lat="47.90509" lon="-3.90962">
        <ele>78</ele>
        <time>2022-12-08T15:00:16Z</time>
      </trkpt>
      <trkpt lat="47.90502" lon="-3.90968">
        <ele>77.9</ele>
        <time>2022-12-08T15:00:17Z</time>
      </trkpt>
      <trkpt lat="47.90495" lon="-3.90973">
        <ele>77.8</ele>
        <time>2022-12-08T15:00:18Z</time>
      </trkpt>
      <trkpt lat="47.90488" lon="-3.90979">
        <ele>77.7</ele>
        <time>2022-12-08T15:00:19Z</time>
      </trkpt>
      <trkpt lat="47.9048" lon="-3.90985">
        <ele>77.6</ele>
        <time>2022-12-08T15:00:20Z</time>
      </trkpt>
      <trkpt lat="47.90473" lon="-3.9099">
        <ele>77.5</ele>
        <time>2022-12-08T15:00:21Z</time>
      </trkpt>
      <trkpt lat="47.90465" lon="-3.90996">
        <ele>77.4</ele>
        <time>2022-12-08T15:00:22Z</time>
      </trkpt>
      <trkpt lat="47.90458" lon="-3.91002">
        <ele>77.3</ele>
        <time>2022-12-08T15:00:23Z</time>
      </trkpt>
      <trkpt lat="47.90451" lon="-3.91008">
        <ele>77.2</ele>
        <time>2022-12-08T15:00:24Z</time>
      </trkpt>
      <trkpt lat="47.90444" lon="-3.91014">
        <ele>77.1</ele>
        <time>2022-12-08T15:00:25Z</time>
      </trkpt>
      <trkpt lat="47.90436" lon="-3.9102">
        <ele>77</ele>
        <time>2022-12-08T15:00:26Z</time>
      </trkpt>
      <trkpt lat="47.90429" lon="-3.91026">
        <ele>76.9</ele>
        <time>2022-12-08T15:00:27Z</time>
      </trkpt>
      <trkpt lat="47.90421" lon="-3.91031">
        <ele>76.8</ele>
        <time>2022-12-08T15:00:28Z</time>
      </trkpt>
      <trkpt lat="47.90414" lon="-3.91038">
        <ele>76.7</ele>
        <time>2022-12-08T15:00:29Z</time>
      </trkpt>
      <trkpt lat="47.90407" lon="-3.91044">
        <ele>76.6</ele>
        <time>2022-12-08T15:00:30Z</time>
      </trkpt>
      <trkpt lat="47.904" lon="-3.9105">
        <ele>76.5</ele>
        <time>2022-12-08T15:00:31Z</time>
      </trkpt>
      <trkpt lat="47.90392" lon="-3.91057">
        <ele>76.4</ele>
        <time>2022-12-08T15:00:32Z</time>
      </trkpt>
      <trkpt lat="47.90385" lon="-3.91063">
        <ele>76.3</ele>
        <time>2022-12-08T15:00:33Z</time>
      </trkpt>
      <trkpt lat="47.90377" lon="-3.91069">
        <ele>76.1</ele>
        <time>2022-12-08T15:00:34Z</time>
      </trkpt>
      <trkpt lat="47.90369" lon="-3.91074">
        <ele>76</ele>
        <time>2022-12-08T15:00:35Z</time>
      </trkpt>
      <trkpt lat="47.90361" lon="-3.91078">
        <ele>75.8</ele>
        <time>2022-12-08T15:00:36Z</time>
      </trkpt>
      <trkpt lat="47.90352" lon="-3.91082">
        <ele>75.7</ele>
        <time>2022-12-08T15:00:37Z</time>
      </trkpt>
      <trkpt lat="47.90343" lon="-3.91084">
        <ele>75.6</ele>
        <time>2022-12-08T15:00:38Z</time>
      </trkpt>
      <trkpt lat="47.90334" lon="-3.91085">
        <ele>75.6</ele>
        <time>2022-12-08T15:00:39Z</time>
      </trkpt>
      <trkpt lat="47.90325" lon="-3.91087">
        <ele>75.6</ele>
        <time>2022-12-08T15:00:40Z</time>
      </trkpt>
      <trkpt lat="47.90317" lon="-3.91088">
        <ele>75.6</ele>
        <time>2022-12-08T15:00:41Z</time>
      </trkpt>
      <trkpt lat="47.90308" lon="-3.91089">
        <ele>75.6</ele>
        <time>2022-12-08T15:00:42Z</time>
      </trkpt>
      <trkpt lat="47.903" lon="-3.9109">
        <ele>75.6</ele>
        <time>2022-12-08T15:00:43Z</time>
      </trkpt>
      <trkpt lat="47.90291" lon="-3.9109">
        <ele>75.7</ele>
        <time>2022-12-08T15:00:44Z</time>
      </trkpt>
      <trkpt lat="47.90283" lon="-3.91091">
        <ele>75.7</ele>
        <time>2022-12-08T15:00:45Z</time>
      </trkpt>
      <trkpt lat="47.90275" lon="-3.91092">
        <ele>75.7</ele>
        <time>2022-12-08T15:00:46Z</time>
      </trkpt>
      <trkpt lat="47.90267" lon="-3.91092">
        <ele>75.7</ele>
        <time>2022-12-08T15:00:47Z</time>
      </trkpt>
      <trkpt lat="47.90259" lon="-3.91093">
        <ele>75.8</ele>
        <time>2022-12-08T15:00:48Z</time>
      </trkpt>
      <trkpt lat="47.90251" lon="-3.91096">
        <ele>75.8</ele>
        <time>2022-12-08T15:00:49Z</time>
      </trkpt>
      <trkpt lat="47.90244" lon="-3.91098">
        <ele>75.9</ele>
        <time>2022-12-08T15:00:50Z</time>
      </trkpt>
      <trkpt lat="47.90236" lon="-3.91099">
        <ele>75.9</ele>
        <time>2022-12-08T15:00:51Z</time>
      </trkpt>
      <trkpt lat="47.90229" lon="-3.911">
        <ele>76</ele>
        <time>2022-12-08T15:00:52Z</time>
      </trkpt>
      <trkpt lat="47.90221" lon="-3.91101">
        <ele>76</ele>
        <time>2022-12-08T15:00:53Z</time>
      </trkpt>
      <trkpt lat="47.90214" lon="-3.91102">
        <ele>76.1</ele>
        <time>2022-12-08T15:00:54Z</time>
      </trkpt>
      <trkpt lat="47.90207" lon="-3.91104">
        <ele>76.2</ele>
        <time>2022-12-08T15:00:55Z</time>
      </trkpt>
      <trkpt lat="47.90199" lon="-3.91105">
        <ele>76.2</ele>
        <time>2022-12-08T15:00:56Z</time>
      </trkpt>
      <trkpt lat="47.90192" lon="-3.91106">
        <ele>76.3</ele>
        <time>2022-12-08T15:00:57Z</time>
      </trkpt>
      <trkpt lat="47.90185" lon="-3.91107">
        <ele>76.4</ele>
        <time>2022-12-08T15:00:58Z</time>
      </trkpt>
      <trkpt lat="47.90178" lon="-3.91108">
        <ele>76.4</ele>
        <time>2022-12-08T15:00:59Z</time>
      </trkpt>
      <trkpt lat="47.90171" lon="-3.91109">
        <ele>76.5</ele>
        <time>2022-12-08T15:01:00Z</time>
      </trkpt>
      <trkpt lat="47.90157" lon="-3.91109">
        <ele>76.6</ele>
        <time>2022-12-08T15:01:02Z</time>
      </trkpt>
      <trkpt lat="47.90151" lon="-3.91106">
        <ele>76.6</ele>
        <time>2022-12-08T15:01:03Z</time>
      </trkpt>
      <trkpt lat="47.90145" lon="-3.91104">
        <ele>76.7</ele>
        <time>2022-12-08T15:01:04Z</time>
      </trkpt>
      <trkpt lat="47.90139" lon="-3.91103">
        <ele>76.7</ele>
        <time>2022-12-08T15:01:05Z</time>
      </trkpt>
      <trkpt lat="47.90132" lon="-3.91104">
        <ele>76.7</ele>
        <time>2022-12-08T15:01:06Z</time>
      </trkpt>
      <trkpt lat="47.90126" lon="-3.91106">
        <ele>76.7</ele>
        <time>2022-12-08T15:01:07Z</time>
      </trkpt>
      <trkpt lat="47.90119" lon="-3.91108">
        <ele>76.7</ele>
        <time>2022-12-08T15:01:08Z</time>
      </trkpt>
      <trkpt lat="47.90112" lon="-3.9111">
        <ele>76.7</ele>
        <time>2022-12-08T15:01:09Z</time>
      </trkpt>
      <trkpt lat="47.90106" lon="-3.91113">
        <ele>76.7</ele>
        <time>2022-12-08T15:01:10Z</time>
      </trkpt>
      <trkpt lat="47.90099" lon="-3.91115">
        <ele>76.7</ele>
        <time>2022-12-08T15:01:11Z</time>
      </trkpt>
      <trkpt lat="47.90093" lon="-3.91118">
        <ele>76.7</ele>
        <time>2022-12-08T15:01:12Z</time>
      </trkpt>
      <trkpt lat="47.90087" lon="-3.9112">
        <ele>76.7</ele>
        <time>2022-12-08T15:01:13Z</time>
      </trkpt>
      <trkpt lat="47.90081" lon="-3.91121">
        <ele>76.8</ele>
        <time>2022-12-08T15:01:14Z</time>
      </trkpt>
      <trkpt lat="47.90075" lon="-3.91121">
        <ele>76.8</ele>
        <time>2022-12-08T15:01:15Z</time>
      </trkpt>
      <trkpt lat="47.9007" lon="-3.91118">
        <ele>76.8</ele>
        <time>2022-12-08T15:01:16Z</time>
      </trkpt>
      <trkpt lat="47.90067" lon="-3.91113">
        <ele>76.8</ele>
        <time>2022-12-08T15:01:17Z</time>
      </trkpt>
      <trkpt lat="47.90065" lon="-3.91107">
        <ele>76.8</ele>
        <time>2022-12-08T15:01:18Z</time>
      </trkpt>
      <trkpt lat="47.90064" lon="-3.91101">
        <ele>76.8</ele>
        <time>2022-12-08T15:01:19Z</time>
      </trkpt>
      <trkpt lat="47.90064" lon="-3.91099">
        <ele>76.8</ele>
        <time>2022-12-08T15:01:20Z</time>
      </trkpt>
      <trkpt lat="47.90063" lon="-3.91097">
        <ele>76.8</ele>
        <time>2022-12-08T15:01:21Z</time>
      </trkpt>
      <trkpt lat="47.90062" lon="-3.91095">
        <ele>76.8</ele>
        <time>2022-12-08T15:01:22Z</time>
      </trkpt>
      <trkpt lat="47.90062" lon="-3.91094">
        <ele>76.8</ele>
        <time>2022-12-08T15:01:23Z</time>
      </trkpt>
      <trkpt lat="47.90059" lon="-3.91091">
        <ele>76.7</ele>
        <time>2022-12-08T15:01:24Z</time>
      </trkpt>
      <trkpt lat="47.90059" lon="-3.9109">
        <ele>76.6</ele>
        <time>2022-12-08T15:01:25Z</time>
      </trkpt>
      <trkpt lat="47.90058" lon="-3.9109">
        <ele>76.6</ele>
        <time>2022-12-08T15:01:26Z</time>
      </trkpt>
      <trkpt lat="47.90056" lon="-3.91088">
        <ele>76.5</ele>
        <time>2022-12-08T15:01:27Z</time>
      </trkpt>
      <trkpt lat="47.90055" lon="-3.91084">
        <ele>76.5</ele>
        <time>2022-12-08T15:01:28Z</time>
      </trkpt>
      <trkpt lat="47.90056" lon="-3.91079">
        <ele>76.5</ele>
        <time>2022-12-08T15:01:29Z</time>
      </trkpt>
      <trkpt lat="47.90061" lon="-3.91074">
        <ele>76.5</ele>
        <time>2022-12-08T15:01:30Z</time>
      </trkpt>
      <trkpt lat="47.90066" lon="-3.91069">
        <ele>76.6</ele>
        <time>2022-12-08T15:01:31Z</time>
      </trkpt>
      <trkpt lat="47.9007" lon="-3.91063">
        <ele>76.6</ele>
        <time>2022-12-08T15:01:32Z</time>
      </trkpt>
      <trkpt lat="47.90074" lon="-3.91057">
        <ele>76.6</ele>
        <time>2022-12-08T15:01:33Z</time>
      </trkpt>
      <trkpt lat="47.90079" lon="-3.9105">
        <ele>76.7</ele>
        <time>2022-12-08T15:01:34Z</time>
      </trkpt>
      <trkpt lat="47.90084" lon="-3.91042">
        <ele>76.7</ele>
        <time>2022-12-08T15:01:35Z</time>
      </trkpt>
      <trkpt lat="47.90087" lon="-3.91034">
        <ele>76.7</ele>
        <time>2022-12-08T15:01:36Z</time>
      </trkpt>
      <trkpt lat="47.90091" lon="-3.91026">
        <ele>76.8</ele>
        <time>2022-12-08T15:01:37Z</time>
      </trkpt>
      <trkpt lat="47.90094" lon="-3.91018">
        <ele>76.8</ele>
        <time>2022-12-08T15:01:38Z</time>
      </trkpt>
      <trkpt lat="47.90096" lon="-3.91009">
        <ele>76.8</ele>
        <time>2022-12-08T15:01:39Z</time>
      </trkpt>
      <trkpt lat="47.90098" lon="-3.91001">
        <ele>76.8</ele>
        <time>2022-12-08T15:01:40Z</time>
      </trkpt>
      <trkpt lat="47.90101" lon="-3.90992">
        <ele>76.8</ele>
        <time>2022-12-08T15:01:41Z</time>
      </trkpt>
      <trkpt lat="47.90103" lon="-3.90983">
        <ele>76.9</ele>
        <time>2022-12-08T15:01:42Z</time>
      </trkpt>
      <trkpt lat="47.90105" lon="-3.90974">
        <ele>76.9</ele>
        <time>2022-12-08T15:01:43Z</time>
      </trkpt>
      <trkpt lat="47.90107" lon="-3.90965">
        <ele>76.9</ele>
        <time>2022-12-08T15:01:44Z</time>
      </trkpt>
      <trkpt lat="47.90109" lon="-3.90956">
        <ele>76.9</ele>
        <time>2022-12-08T15:01:45Z</time>
      </trkpt>
      <trkpt lat="47.90111" lon="-3.90947">
        <ele>76.9</ele>
        <time>2022-12-08T15:01:46Z</time>
      </trkpt>
      <trkpt lat="47.90113" lon="-3.90939">
        <ele>76.9</ele>
        <time>2022-12-08T15:01:47Z</time>
      </trkpt>
      <trkpt lat="47.90115" lon="-3.90931">
        <ele>77</ele>
        <time>2022-12-08T15:01:48Z</time>
      </trkpt>
      <trkpt lat="47.90116" lon="-3.90922">
        <ele>77</ele>
        <time>2022-12-08T15:01:49Z</time>
      </trkpt>
      <trkpt lat="47.90117" lon="-3.90913">
        <ele>77</ele>
        <time>2022-12-08T15:01:50Z</time>
      </trkpt>
      <trkpt lat="47.90119" lon="-3.90905">
        <ele>77.1</ele>
        <time>2022-12-08T15:01:51Z</time>
      </trkpt>
      <trkpt lat="47.90119" lon="-3.90896">
        <ele>77.1</ele>
        <time>2022-12-08T15:01:52Z</time>
      </trkpt>
      <trkpt lat="47.90118" lon="-3.90887">
        <ele>77.1</ele>
        <time>2022-12-08T15:01:53Z</time>
      </trkpt>
      <trkpt lat="47.90111" lon="-3.90871">
        <ele>77.1</ele>
        <time>2022-12-08T15:01:55Z</time>
      </trkpt>
      <trkpt lat="47.90106" lon="-3.90866">
        <ele>77.1</ele>
        <time>2022-12-08T15:01:56Z</time>
      </trkpt>
      <trkpt lat="47.90099" lon="-3.90862">
        <ele>77.1</ele>
        <time>2022-12-08T15:01:57Z</time>
      </trkpt>
      <trkpt lat="47.90092" lon="-3.90862">
        <ele>77.1</ele>
        <time>2022-12-08T15:01:58Z</time>
      </trkpt>
      <trkpt lat="47.90085" lon="-3.90864">
        <ele>77</ele>
        <time>2022-12-08T15:01:59Z</time>
      </trkpt>
      <trkpt lat="47.90078" lon="-3.90867">
        <ele>77</ele>
        <time>2022-12-08T15:02:00Z</time>
      </trkpt>
      <trkpt lat="47.90073" lon="-3.90872">
        <ele>77</ele>
        <time>2022-12-08T15:02:01Z</time>
      </trkpt>
      <trkpt lat="47.90067" lon="-3.90877">
        <ele>77</ele>
        <time>2022-12-08T15:02:02Z</time>
      </trkpt>
      <trkpt lat="47.90061" lon="-3.90882">
        <ele>77</ele>
        <time>2022-12-08T15:02:03Z</time>
      </trkpt>
      <trkpt lat="47.90056" lon="-3.90887">
        <ele>77</ele>
        <time>2022-12-08T15:02:04Z</time>
      </trkpt>
      <trkpt lat="47.9005" lon="-3.90892">
        <ele>77</ele>
        <time>2022-12-08T15:02:05Z</time>
      </trkpt>
      <trkpt lat="47.90044" lon="-3.90896">
        <ele>77</ele>
        <time>2022-12-08T15:02:06Z</time>
      </trkpt>
      <trkpt lat="47.90038" lon="-3.90901">
        <ele>76.9</ele>
        <time>2022-12-08T15:02:07Z</time>
      </trkpt>
      <trkpt lat="47.90032" lon="-3.90905">
        <ele>76.9</ele>
        <time>2022-12-08T15:02:08Z</time>
      </trkpt>
      <trkpt lat="47.90026" lon="-3.90908">
        <ele>76.9</ele>
        <time>2022-12-08T15:02:09Z</time>
      </trkpt>
      <trkpt lat="47.9002" lon="-3.90911">
        <ele>76.9</ele>
        <time>2022-12-08T15:02:10Z</time>
      </trkpt>
      <trkpt lat="47.90013" lon="-3.90914">
        <ele>76.9</ele>
        <time>2022-12-08T15:02:11Z</time>
      </trkpt>
      <trkpt lat="47.90006" lon="-3.90916">
        <ele>76.9</ele>
        <time>2022-12-08T15:02:12Z</time>
      </trkpt>
      <trkpt lat="47.9" lon="-3.90919">
        <ele>76.9</ele>
        <time>2022-12-08T15:02:13Z</time>
      </trkpt>
      <trkpt lat="47.89993" lon="-3.90921">
        <ele>76.9</ele>
        <time>2022-12-08T15:02:14Z</time>
      </trkpt>
      <trkpt lat="47.89987" lon="-3.90925">
        <ele>76.9</ele>
        <time>2022-12-08T15:02:15Z</time>
      </trkpt>
      <trkpt lat="47.89981" lon="-3.90927">
        <ele>76.9</ele>
        <time>2022-12-08T15:02:16Z</time>
      </trkpt>
      <trkpt lat="47.89974" lon="-3.90928">
        <ele>76.9</ele>
        <time>2022-12-08T15:02:17Z</time>
      </trkpt>
      <trkpt lat="47.89968" lon="-3.90927">
        <ele>76.9</ele>
        <time>2022-12-08T15:02:18Z</time>
      </trkpt>
      <trkpt lat="47.89962" lon="-3.90925">
        <ele>76.9</ele>
        <time>2022-12-08T15:02:19Z</time>
      </trkpt>
      <trkpt lat="47.89957" lon="-3.90919">
        <ele>76.8</ele>
        <time>2022-12-08T15:02:20Z</time>
      </trkpt>
      <trkpt lat="47.89955" lon="-3.9091">
        <ele>76.7</ele>
        <time>2022-12-08T15:02:21Z</time>
      </trkpt>
      <trkpt lat="47.89955" lon="-3.90901">
        <ele>76.5</ele>
        <time>2022-12-08T15:02:22Z</time>
      </trkpt>
      <trkpt lat="47.89956" lon="-3.90891">
        <ele>76.3</ele>
        <time>2022-12-08T15:02:23Z</time>
      </trkpt>
      <trkpt lat="47.89956" lon="-3.90882">
        <ele>76.2</ele>
        <time>2022-12-08T15:02:24Z</time>
      </trkpt>
      <trkpt lat="47.89957" lon="-3.90873">
        <ele>76</ele>
        <time>2022-12-08T15:02:25Z</time>
      </trkpt>
      <trkpt lat="47.89958" lon="-3.90864">
        <ele>75.9</ele>
        <time>2022-12-08T15:02:26Z</time>
      </trkpt>
      <trkpt lat="47.89959" lon="-3.90854">
        <ele>75.8</ele>
        <time>2022-12-08T15:02:27Z</time>
      </trkpt>
      <trkpt lat="47.89959" lon="-3.90845">
        <ele>75.6</ele>
        <time>2022-12-08T15:02:28Z</time>
      </trkpt>
      <trkpt lat="47.8996" lon="-3.90835">
        <ele>75.5</ele>
        <time>2022-12-08T15:02:29Z</time>
      </trkpt>
      <trkpt lat="47.8996" lon="-3.90825">
        <ele>75.4</ele>
        <time>2022-12-08T15:02:30Z</time>
      </trkpt>
      <trkpt lat="47.89961" lon="-3.90814">
        <ele>75.3</ele>
        <time>2022-12-08T15:02:31Z</time>
      </trkpt>
      <trkpt lat="47.89962" lon="-3.90804">
        <ele>75.3</ele>
        <time>2022-12-08T15:02:32Z</time>
      </trkpt>
      <trkpt lat="47.89962" lon="-3.90794">
        <ele>75.2</ele>
        <time>2022-12-08T15:02:33Z</time>
      </trkpt>
      <trkpt lat="47.89963" lon="-3.90785">
        <ele>75.1</ele>
        <time>2022-12-08T15:02:34Z</time>
      </trkpt>
      <trkpt lat="47.89964" lon="-3.90776">
        <ele>75</ele>
        <time>2022-12-08T15:02:35Z</time>
      </trkpt>
      <trkpt lat="47.89966" lon="-3.90767">
        <ele>74.9</ele>
        <time>2022-12-08T15:02:36Z</time>
      </trkpt>
      <trkpt lat="47.89968" lon="-3.90757">
        <ele>74.8</ele>
        <time>2022-12-08T15:02:37Z</time>
      </trkpt>
      <trkpt lat="47.89969" lon="-3.90747">
        <ele>74.6</ele>
        <time>2022-12-08T15:02:38Z</time>
      </trkpt>
      <trkpt lat="47.89971" lon="-3.90737">
        <ele>74.4</ele>
        <time>2022-12-08T15:02:39Z</time>
      </trkpt>
      <trkpt lat="47.89972" lon="-3.90727">
        <ele>74.2</ele>
        <time>2022-12-08T15:02:40Z</time>
      </trkpt>
      <trkpt lat="47.89974" lon="-3.90717">
        <ele>74.1</ele>
        <time>2022-12-08T15:02:41Z</time>
      </trkpt>
      <trkpt lat="47.89975" lon="-3.90707">
        <ele>73.9</ele>
        <time>2022-12-08T15:02:42Z</time>
      </trkpt>
      <trkpt lat="47.89976" lon="-3.90696">
        <ele>73.7</ele>
        <time>2022-12-08T15:02:43Z</time>
      </trkpt>
      <trkpt lat="47.89977" lon="-3.90686">
        <ele>73.6</ele>
        <time>2022-12-08T15:02:44Z</time>
      </trkpt>
      <trkpt lat="47.89978" lon="-3.90676">
        <ele>73.4</ele>
        <time>2022-12-08T15:02:45Z</time>
      </trkpt>
      <trkpt lat="47.89979" lon="-3.90665">
        <ele>73.2</ele>
        <time>2022-12-08T15:02:46Z</time>
      </trkpt>
      <trkpt lat="47.8998" lon="-3.90653">
        <ele>73</ele>
        <time>2022-12-08T15:02:47Z</time>
      </trkpt>
      <trkpt lat="47.89981" lon="-3.90642">
        <ele>72.7</ele>
        <time>2022-12-08T15:02:48Z</time>
      </trkpt>
      <trkpt lat="47.89982" lon="-3.90631">
        <ele>72.5</ele>
        <time>2022-12-08T15:02:49Z</time>
      </trkpt>
      <trkpt lat="47.89983" lon="-3.90619">
        <ele>72.2</ele>
        <time>2022-12-08T15:02:50Z</time>
      </trkpt>
      <trkpt lat="47.89984" lon="-3.90608">
        <ele>72</ele>
        <time>2022-12-08T15:02:51Z</time>
      </trkpt>
      <trkpt lat="47.89986" lon="-3.90597">
        <ele>71.8</ele>
        <time>2022-12-08T15:02:52Z</time>
      </trkpt>
      <trkpt lat="47.89987" lon="-3.90585">
        <ele>71.6</ele>
        <time>2022-12-08T15:02:53Z</time>
      </trkpt>
      <trkpt lat="47.8999" lon="-3.90563">
        <ele>71.4</ele>
        <time>2022-12-08T15:02:55Z</time>
      </trkpt>
      <trkpt lat="47.89992" lon="-3.90552">
        <ele>71.3</ele>
        <time>2022-12-08T15:02:56Z</time>
      </trkpt>
      <trkpt lat="47.89993" lon="-3.90541">
        <ele>71.2</ele>
        <time>2022-12-08T15:02:57Z</time>
      </trkpt>
      <trkpt lat="47.89995" lon="-3.9053">
        <ele>71.2</ele>
        <time>2022-12-08T15:02:58Z</time>
      </trkpt>
      <trkpt lat="47.89996" lon="-3.90519">
        <ele>71.1</ele>
        <time>2022-12-08T15:02:59Z</time>
      </trkpt>
      <trkpt lat="47.89996" lon="-3.90509">
        <ele>71</ele>
        <time>2022-12-08T15:03:00Z</time>
      </trkpt>
      <trkpt lat="47.89997" lon="-3.90498">
        <ele>70.9</ele>
        <time>2022-12-08T15:03:01Z</time>
      </trkpt>
      <trkpt lat="47.89998" lon="-3.90488">
        <ele>70.8</ele>
        <time>2022-12-08T15:03:02Z</time>
      </trkpt>
      <trkpt lat="47.89998" lon="-3.90477">
        <ele>70.7</ele>
        <time>2022-12-08T15:03:03Z</time>
      </trkpt>
      <trkpt lat="47.89998" lon="-3.90467">
        <ele>70.7</ele>
        <time>2022-12-08T15:03:04Z</time>
      </trkpt>
      <trkpt lat="47.89998" lon="-3.90456">
        <ele>70.6</ele>
        <time>2022-12-08T15:03:05Z</time>
      </trkpt>
      <trkpt lat="47.89998" lon="-3.90446">
        <ele>70.5</ele>
        <time>2022-12-08T15:03:06Z</time>
      </trkpt>
      <trkpt lat="47.89998" lon="-3.90436">
        <ele>70.4</ele>
        <time>2022-12-08T15:03:07Z</time>
      </trkpt>
      <trkpt lat="47.89997" lon="-3.90426">
        <ele>70.3</ele>
        <time>2022-12-08T15:03:08Z</time>
      </trkpt>
      <trkpt lat="47.89997" lon="-3.90416">
        <ele>70.2</ele>
        <time>2022-12-08T15:03:09Z</time>
      </trkpt>
      <trkpt lat="47.89997" lon="-3.90406">
        <ele>70.1</ele>
        <time>2022-12-08T15:03:10Z</time>
      </trkpt>
      <trkpt lat="47.89997" lon="-3.90395">
        <ele>70.1</ele>
        <time>2022-12-08T15:03:11Z</time>
      </trkpt>
      <trkpt lat="47.89995" lon="-3.90376">
        <ele>69.9</ele>
        <time>2022-12-08T15:03:13Z</time>
      </trkpt>
      <trkpt lat="47.89995" lon="-3.90367">
        <ele>69.8</ele>
        <time>2022-12-08T15:03:14Z</time>
      </trkpt>
      <trkpt lat="47.89993" lon="-3.90357">
        <ele>69.7</ele>
        <time>2022-12-08T15:03:15Z</time>
      </trkpt>
      <trkpt lat="47.89991" lon="-3.90348">
        <ele>69.5</ele>
        <time>2022-12-08T15:03:16Z</time>
      </trkpt>
      <trkpt lat="47.89989" lon="-3.90338">
        <ele>69.3</ele>
        <time>2022-12-08T15:03:17Z</time>
      </trkpt>
      <trkpt lat="47.89984" lon="-3.90318">
        <ele>68.7</ele>
        <time>2022-12-08T15:03:19Z</time>
      </trkpt>
      <trkpt lat="47.89982" lon="-3.90307">
        <ele>68.4</ele>
        <time>2022-12-08T15:03:20Z</time>
      </trkpt>
      <trkpt lat="47.89979" lon="-3.90297">
        <ele>68.1</ele>
        <time>2022-12-08T15:03:21Z</time>
      </trkpt>
      <trkpt lat="47.89977" lon="-3.90287">
        <ele>67.8</ele>
        <time>2022-12-08T15:03:22Z</time>
      </trkpt>
      <trkpt lat="47.89974" lon="-3.90276">
        <ele>67.6</ele>
        <time>2022-12-08T15:03:23Z</time>
      </trkpt>
      <trkpt lat="47.89969" lon="-3.90254">
        <ele>67.4</ele>
        <time>2022-12-08T15:03:25Z</time>
      </trkpt>
      <trkpt lat="47.89966" lon="-3.90242">
        <ele>67.4</ele>
        <time>2022-12-08T15:03:26Z</time>
      </trkpt>
      <trkpt lat="47.89964" lon="-3.90231">
        <ele>67.4</ele>
        <time>2022-12-08T15:03:27Z</time>
      </trkpt>
      <trkpt lat="47.89962" lon="-3.9022">
        <ele>67.4</ele>
        <time>2022-12-08T15:03:28Z</time>
      </trkpt>
      <trkpt lat="47.89961" lon="-3.90208">
        <ele>67.4</ele>
        <time>2022-12-08T15:03:29Z</time>
      </trkpt>
      <trkpt lat="47.89961" lon="-3.90197">
        <ele>67.4</ele>
        <time>2022-12-08T15:03:30Z</time>
      </trkpt>
      <trkpt lat="47.89961" lon="-3.90187">
        <ele>67.5</ele>
        <time>2022-12-08T15:03:31Z</time>
      </trkpt>
      <trkpt lat="47.89961" lon="-3.90177">
        <ele>67.5</ele>
        <time>2022-12-08T15:03:32Z</time>
      </trkpt>
      <trkpt lat="47.8996" lon="-3.90167">
        <ele>67.6</ele>
        <time>2022-12-08T15:03:33Z</time>
      </trkpt>
      <trkpt lat="47.8996" lon="-3.90157">
        <ele>67.7</ele>
        <time>2022-12-08T15:03:34Z</time>
      </trkpt>
      <trkpt lat="47.89961" lon="-3.90148">
        <ele>68</ele>
        <time>2022-12-08T15:03:35Z</time>
      </trkpt>
      <trkpt lat="47.89961" lon="-3.9014">
        <ele>68.3</ele>
        <time>2022-12-08T15:03:36Z</time>
      </trkpt>
      <trkpt lat="47.89962" lon="-3.90132">
        <ele>68.7</ele>
        <time>2022-12-08T15:03:37Z</time>
      </trkpt>
      <trkpt lat="47.89962" lon="-3.90124">
        <ele>69.1</ele>
        <time>2022-12-08T15:03:38Z</time>
      </trkpt>
      <trkpt lat="47.89961" lon="-3.90116">
        <ele>69.5</ele>
        <time>2022-12-08T15:03:39Z</time>
      </trkpt>
      <trkpt lat="47.89961" lon="-3.90109">
        <ele>70</ele>
        <time>2022-12-08T15:03:40Z</time>
      </trkpt>
      <trkpt lat="47.89961" lon="-3.90101">
        <ele>70.4</ele>
        <time>2022-12-08T15:03:41Z</time>
      </trkpt>
      <trkpt lat="47.89961" lon="-3.90094">
        <ele>70.8</ele>
        <time>2022-12-08T15:03:42Z</time>
      </trkpt>
      <trkpt lat="47.89961" lon="-3.90087">
        <ele>71.1</ele>
        <time>2022-12-08T15:03:43Z</time>
      </trkpt>
      <trkpt lat="47.8996" lon="-3.9008">
        <ele>71.5</ele>
        <time>2022-12-08T15:03:44Z</time>
      </trkpt>
      <trkpt lat="47.8996" lon="-3.90072">
        <ele>71.9</ele>
        <time>2022-12-08T15:03:45Z</time>
      </trkpt>
      <trkpt lat="47.89959" lon="-3.90065">
        <ele>72.3</ele>
        <time>2022-12-08T15:03:46Z</time>
      </trkpt>
      <trkpt lat="47.89958" lon="-3.90057">
        <ele>72.6</ele>
        <time>2022-12-08T15:03:47Z</time>
      </trkpt>
      <trkpt lat="47.89956" lon="-3.9005">
        <ele>72.9</ele>
        <time>2022-12-08T15:03:48Z</time>
      </trkpt>
      <trkpt lat="47.89955" lon="-3.90043">
        <ele>73.2</ele>
        <time>2022-12-08T15:03:49Z</time>
      </trkpt>
      <trkpt lat="47.89954" lon="-3.90035">
        <ele>73.5</ele>
        <time>2022-12-08T15:03:50Z</time>
      </trkpt>
      <trkpt lat="47.89952" lon="-3.90028">
        <ele>73.7</ele>
        <time>2022-12-08T15:03:51Z</time>
      </trkpt>
      <trkpt lat="47.8995" lon="-3.9002">
        <ele>73.9</ele>
        <time>2022-12-08T15:03:52Z</time>
      </trkpt>
      <trkpt lat="47.89947" lon="-3.90006">
        <ele>74.3</ele>
        <time>2022-12-08T15:03:54Z</time>
      </trkpt>
      <trkpt lat="47.89945" lon="-3.89999">
        <ele>74.6</ele>
        <time>2022-12-08T15:03:55Z</time>
      </trkpt>
      <trkpt lat="47.89943" lon="-3.89992">
        <ele>74.8</ele>
        <time>2022-12-08T15:03:56Z</time>
      </trkpt>
      <trkpt lat="47.89941" lon="-3.89985">
        <ele>75</ele>
        <time>2022-12-08T15:03:57Z</time>
      </trkpt>
      <trkpt lat="47.8994" lon="-3.89979">
        <ele>75.2</ele>
        <time>2022-12-08T15:03:58Z</time>
      </trkpt>
      <trkpt lat="47.89938" lon="-3.89973">
        <ele>75.4</ele>
        <time>2022-12-08T15:03:59Z</time>
      </trkpt>
      <trkpt lat="47.89936" lon="-3.89966">
        <ele>75.5</ele>
        <time>2022-12-08T15:04:00Z</time>
      </trkpt>
      <trkpt lat="47.89935" lon="-3.89961">
        <ele>75.7</ele>
        <time>2022-12-08T15:04:01Z</time>
      </trkpt>
      <trkpt lat="47.89934" lon="-3.89957">
        <ele>75.8</ele>
        <time>2022-12-08T15:04:02Z</time>
      </trkpt>
      <trkpt lat="47.89932" lon="-3.89949">
        <ele>75.9</ele>
        <time>2022-12-08T15:04:03Z</time>
      </trkpt>
      <trkpt lat="47.8993" lon="-3.89942">
        <ele>75.9</ele>
        <time>2022-12-08T15:04:04Z</time>
      </trkpt>
      <trkpt lat="47.89928" lon="-3.89935">
        <ele>76</ele>
        <time>2022-12-08T15:04:05Z</time>
      </trkpt>
      <trkpt lat="47.89926" lon="-3.89928">
        <ele>76</ele>
        <time>2022-12-08T15:04:06Z</time>
      </trkpt>
      <trkpt lat="47.89924" lon="-3.89922">
        <ele>76</ele>
        <time>2022-12-08T15:04:07Z</time>
      </trkpt>
      <trkpt lat="47.89922" lon="-3.89915">
        <ele>76</ele>
        <time>2022-12-08T15:04:08Z</time>
      </trkpt>
      <trkpt lat="47.8992" lon="-3.89907">
        <ele>76</ele>
        <time>2022-12-08T15:04:09Z</time>
      </trkpt>
      <trkpt lat="47.89918" lon="-3.899">
        <ele>76</ele>
        <time>2022-12-08T15:04:10Z</time>
      </trkpt>
      <trkpt lat="47.89916" lon="-3.89892">
        <ele>75.9</ele>
        <time>2022-12-08T15:04:11Z</time>
      </trkpt>
      <trkpt lat="47.89914" lon="-3.89885">
        <ele>75.9</ele>
        <time>2022-12-08T15:04:12Z</time>
      </trkpt>
      <trkpt lat="47.89913" lon="-3.89877">
        <ele>75.8</ele>
        <time>2022-12-08T15:04:13Z</time>
      </trkpt>
      <trkpt lat="47.89912" lon="-3.89869">
        <ele>75.7</ele>
        <time>2022-12-08T15:04:14Z</time>
      </trkpt>
      <trkpt lat="47.89909" lon="-3.89853">
        <ele>75.5</ele>
        <time>2022-12-08T15:04:16Z</time>
      </trkpt>
      <trkpt lat="47.89907" lon="-3.89845">
        <ele>75.4</ele>
        <time>2022-12-08T15:04:17Z</time>
      </trkpt>
      <trkpt lat="47.89905" lon="-3.89837">
        <ele>75.3</ele>
        <time>2022-12-08T15:04:18Z</time>
      </trkpt>
      <trkpt lat="47.89904" lon="-3.89829">
        <ele>75.2</ele>
        <time>2022-12-08T15:04:19Z</time>
      </trkpt>
      <trkpt lat="47.89902" lon="-3.89821">
        <ele>75</ele>
        <time>2022-12-08T15:04:20Z</time>
      </trkpt>
      <trkpt lat="47.89901" lon="-3.89813">
        <ele>74.9</ele>
        <time>2022-12-08T15:04:21Z</time>
      </trkpt>
      <trkpt lat="47.89899" lon="-3.89805">
        <ele>74.8</ele>
        <time>2022-12-08T15:04:22Z</time>
      </trkpt>
      <trkpt lat="47.89898" lon="-3.89797">
        <ele>74.6</ele>
        <time>2022-12-08T15:04:23Z</time>
      </trkpt>
      <trkpt lat="47.89896" lon="-3.89788">
        <ele>74.4</ele>
        <time>2022-12-08T15:04:24Z</time>
      </trkpt>
      <trkpt lat="47.89894" lon="-3.8978">
        <ele>74.2</ele>
        <time>2022-12-08T15:04:25Z</time>
      </trkpt>
      <trkpt lat="47.89892" lon="-3.89771">
        <ele>74.1</ele>
        <time>2022-12-08T15:04:26Z</time>
      </trkpt>
      <trkpt lat="47.89891" lon="-3.89762">
        <ele>73.8</ele>
        <time>2022-12-08T15:04:27Z</time>
      </trkpt>
      <trkpt lat="47.89889" lon="-3.89753">
        <ele>73.6</ele>
        <time>2022-12-08T15:04:28Z</time>
      </trkpt>
      <trkpt lat="47.89888" lon="-3.89744">
        <ele>73.5</ele>
        <time>2022-12-08T15:04:29Z</time>
      </trkpt>
      <trkpt lat="47.89886" lon="-3.89736">
        <ele>73.3</ele>
        <time>2022-12-08T15:04:30Z</time>
      </trkpt>
      <trkpt lat="47.89885" lon="-3.89726">
        <ele>73</ele>
        <time>2022-12-08T15:04:31Z</time>
      </trkpt>
      <trkpt lat="47.89883" lon="-3.89716">
        <ele>72.8</ele>
        <time>2022-12-08T15:04:32Z</time>
      </trkpt>
      <trkpt lat="47.89882" lon="-3.89707">
        <ele>72.6</ele>
        <time>2022-12-08T15:04:33Z</time>
      </trkpt>
      <trkpt lat="47.8988" lon="-3.89697">
        <ele>72.3</ele>
        <time>2022-12-08T15:04:34Z</time>
      </trkpt>
      <trkpt lat="47.89879" lon="-3.89687">
        <ele>72.1</ele>
        <time>2022-12-08T15:04:35Z</time>
      </trkpt>
      <trkpt lat="47.89879" lon="-3.89677">
        <ele>71.9</ele>
        <time>2022-12-08T15:04:36Z</time>
      </trkpt>
      <trkpt lat="47.89878" lon="-3.89667">
        <ele>71.6</ele>
        <time>2022-12-08T15:04:37Z</time>
      </trkpt>
      <trkpt lat="47.89877" lon="-3.89657">
        <ele>71.5</ele>
        <time>2022-12-08T15:04:38Z</time>
      </trkpt>
      <trkpt lat="47.89876" lon="-3.89648">
        <ele>71.3</ele>
        <time>2022-12-08T15:04:39Z</time>
      </trkpt>
      <trkpt lat="47.89875" lon="-3.89637">
        <ele>71.2</ele>
        <time>2022-12-08T15:04:40Z</time>
      </trkpt>
      <trkpt lat="47.89874" lon="-3.89628">
        <ele>71.2</ele>
        <time>2022-12-08T15:04:41Z</time>
      </trkpt>
      <trkpt lat="47.89874" lon="-3.89619">
        <ele>71.2</ele>
        <time>2022-12-08T15:04:42Z</time>
      </trkpt>
      <trkpt lat="47.89873" lon="-3.8961">
        <ele>71.2</ele>
        <time>2022-12-08T15:04:43Z</time>
      </trkpt>
      <trkpt lat="47.89872" lon="-3.89601">
        <ele>71.3</ele>
        <time>2022-12-08T15:04:44Z</time>
      </trkpt>
      <trkpt lat="47.89872" lon="-3.89592">
        <ele>71.4</ele>
        <time>2022-12-08T15:04:45Z</time>
      </trkpt>
      <trkpt lat="47.89871" lon="-3.89583">
        <ele>71.5</ele>
        <time>2022-12-08T15:04:46Z</time>
      </trkpt>
      <trkpt lat="47.89871" lon="-3.89574">
        <ele>71.6</ele>
        <time>2022-12-08T15:04:47Z</time>
      </trkpt>
      <trkpt lat="47.89871" lon="-3.89566">
        <ele>71.8</ele>
        <time>2022-12-08T15:04:48Z</time>
      </trkpt>
      <trkpt lat="47.89871" lon="-3.89559">
        <ele>71.9</ele>
        <time>2022-12-08T15:04:49Z</time>
      </trkpt>
      <trkpt lat="47.89871" lon="-3.89543">
        <ele>72.3</ele>
        <time>2022-12-08T15:04:51Z</time>
      </trkpt>
      <trkpt lat="47.89871" lon="-3.89535">
        <ele>72.5</ele>
        <time>2022-12-08T15:04:52Z</time>
      </trkpt>
      <trkpt lat="47.89871" lon="-3.89526">
        <ele>72.7</ele>
        <time>2022-12-08T15:04:53Z</time>
      </trkpt>
      <trkpt lat="47.8987" lon="-3.89517">
        <ele>72.9</ele>
        <time>2022-12-08T15:04:54Z</time>
      </trkpt>
      <trkpt lat="47.8987" lon="-3.89509">
        <ele>73.1</ele>
        <time>2022-12-08T15:04:55Z</time>
      </trkpt>
      <trkpt lat="47.8987" lon="-3.89501">
        <ele>73.3</ele>
        <time>2022-12-08T15:04:56Z</time>
      </trkpt>
      <trkpt lat="47.89869" lon="-3.89492">
        <ele>73.5</ele>
        <time>2022-12-08T15:04:57Z</time>
      </trkpt>
      <trkpt lat="47.89869" lon="-3.89484">
        <ele>73.7</ele>
        <time>2022-12-08T15:04:58Z</time>
      </trkpt>
      <trkpt lat="47.89868" lon="-3.89475">
        <ele>73.9</ele>
        <time>2022-12-08T15:04:59Z</time>
      </trkpt>
      <trkpt lat="47.89867" lon="-3.89467">
        <ele>74.1</ele>
        <time>2022-12-08T15:05:00Z</time>
      </trkpt>
      <trkpt lat="47.89866" lon="-3.89459">
        <ele>74.3</ele>
        <time>2022-12-08T15:05:01Z</time>
      </trkpt>
      <trkpt lat="47.89865" lon="-3.8945">
        <ele>74.4</ele>
        <time>2022-12-08T15:05:02Z</time>
      </trkpt>
      <trkpt lat="47.89864" lon="-3.89442">
        <ele>74.6</ele>
        <time>2022-12-08T15:05:03Z</time>
      </trkpt>
      <trkpt lat="47.89862" lon="-3.89434">
        <ele>74.7</ele>
        <time>2022-12-08T15:05:04Z</time>
      </trkpt>
      <trkpt lat="47.89861" lon="-3.89426">
        <ele>74.8</ele>
        <time>2022-12-08T15:05:05Z</time>
      </trkpt>
      <trkpt lat="47.89859" lon="-3.89419">
        <ele>74.8</ele>
        <time>2022-12-08T15:05:06Z</time>
      </trkpt>
      <trkpt lat="47.89857" lon="-3.89412">
        <ele>74.9</ele>
        <time>2022-12-08T15:05:07Z</time>
      </trkpt>
      <trkpt lat="47.89854" lon="-3.89405">
        <ele>75</ele>
        <time>2022-12-08T15:05:08Z</time>
      </trkpt>
      <trkpt lat="47.8985" lon="-3.89398">
        <ele>75</ele>
        <time>2022-12-08T15:05:09Z</time>
      </trkpt>
      <trkpt lat="47.89846" lon="-3.89391">
        <ele>75.1</ele>
        <time>2022-12-08T15:05:10Z</time>
      </trkpt>
      <trkpt lat="47.89842" lon="-3.89385">
        <ele>75.1</ele>
        <time>2022-12-08T15:05:11Z</time>
      </trkpt>
      <trkpt lat="47.89838" lon="-3.89381">
        <ele>75.2</ele>
        <time>2022-12-08T15:05:12Z</time>
      </trkpt>
      <trkpt lat="47.89834" lon="-3.89376">
        <ele>75.2</ele>
        <time>2022-12-08T15:05:13Z</time>
      </trkpt>
      <trkpt lat="47.89829" lon="-3.89371">
        <ele>75.3</ele>
        <time>2022-12-08T15:05:14Z</time>
      </trkpt>
      <trkpt lat="47.89824" lon="-3.89366">
        <ele>75.4</ele>
        <time>2022-12-08T15:05:15Z</time>
      </trkpt>
      <trkpt lat="47.89819" lon="-3.89362">
        <ele>75.5</ele>
        <time>2022-12-08T15:05:16Z</time>
      </trkpt>
      <trkpt lat="47.89814" lon="-3.89358">
        <ele>75.6</ele>
        <time>2022-12-08T15:05:17Z</time>
      </trkpt>
      <trkpt lat="47.89809" lon="-3.89356">
        <ele>75.6</ele>
        <time>2022-12-08T15:05:18Z</time>
      </trkpt>
      <trkpt lat="47.89804" lon="-3.89353">
        <ele>75.7</ele>
        <time>2022-12-08T15:05:19Z</time>
      </trkpt>
      <trkpt lat="47.89799" lon="-3.8935">
        <ele>75.8</ele>
        <time>2022-12-08T15:05:20Z</time>
      </trkpt>
      <trkpt lat="47.89794" lon="-3.89346">
        <ele>75.8</ele>
        <time>2022-12-08T15:05:21Z</time>
      </trkpt>
      <trkpt lat="47.89789" lon="-3.89343">
        <ele>75.8</ele>
        <time>2022-12-08T15:05:22Z</time>
      </trkpt>
      <trkpt lat="47.89784" lon="-3.89339">
        <ele>75.8</ele>
        <time>2022-12-08T15:05:23Z</time>
      </trkpt>
      <trkpt lat="47.89779" lon="-3.89336">
        <ele>75.8</ele>
        <time>2022-12-08T15:05:24Z</time>
      </trkpt>
      <trkpt lat="47.89774" lon="-3.89332">
        <ele>75.8</ele>
        <time>2022-12-08T15:05:25Z</time>
      </trkpt>
      <trkpt lat="47.89768" lon="-3.89328">
        <ele>75.8</ele>
        <time>2022-12-08T15:05:26Z</time>
      </trkpt>
      <trkpt lat="47.89763" lon="-3.89324">
        <ele>75.8</ele>
        <time>2022-12-08T15:05:27Z</time>
      </trkpt>
      <trkpt lat="47.89758" lon="-3.8932">
        <ele>75.8</ele>
        <time>2022-12-08T15:05:28Z</time>
      </trkpt>
      <trkpt lat="47.89752" lon="-3.89315">
        <ele>75.8</ele>
        <time>2022-12-08T15:05:29Z</time>
      </trkpt>
      <trkpt lat="47.89747" lon="-3.89311">
        <ele>75.8</ele>
        <time>2022-12-08T15:05:30Z</time>
      </trkpt>
      <trkpt lat="47.89742" lon="-3.89306">
        <ele>75.8</ele>
        <time>2022-12-08T15:05:31Z</time>
      </trkpt>
      <trkpt lat="47.89736" lon="-3.89302">
        <ele>75.8</ele>
        <time>2022-12-08T15:05:32Z</time>
      </trkpt>
      <trkpt lat="47.89731" lon="-3.89298">
        <ele>75.8</ele>
        <time>2022-12-08T15:05:33Z</time>
      </trkpt>
      <trkpt lat="47.89725" lon="-3.89293">
        <ele>75.8</ele>
        <time>2022-12-08T15:05:34Z</time>
      </trkpt>
      <trkpt lat="47.89719" lon="-3.89288">
        <ele>75.8</ele>
        <time>2022-12-08T15:05:35Z</time>
      </trkpt>
      <trkpt lat="47.89714" lon="-3.89283">
        <ele>75.8</ele>
        <time>2022-12-08T15:05:36Z</time>
      </trkpt>
      <trkpt lat="47.89708" lon="-3.89279">
        <ele>75.8</ele>
        <time>2022-12-08T15:05:37Z</time>
      </trkpt>
      <trkpt lat="47.89702" lon="-3.89274">
        <ele>75.8</ele>
        <time>2022-12-08T15:05:38Z</time>
      </trkpt>
      <trkpt lat="47.89697" lon="-3.89269">
        <ele>75.8</ele>
        <time>2022-12-08T15:05:39Z</time>
      </trkpt>
      <trkpt lat="47.89691" lon="-3.89265">
        <ele>75.9</ele>
        <time>2022-12-08T15:05:40Z</time>
      </trkpt>
      <trkpt lat="47.89686" lon="-3.8926">
        <ele>75.9</ele>
        <time>2022-12-08T15:05:41Z</time>
      </trkpt>
      <trkpt lat="47.89681" lon="-3.89256">
        <ele>75.9</ele>
        <time>2022-12-08T15:05:42Z</time>
      </trkpt>
      <trkpt lat="47.89675" lon="-3.89252">
        <ele>76</ele>
        <time>2022-12-08T15:05:43Z</time>
      </trkpt>
      <trkpt lat="47.8967" lon="-3.89247">
        <ele>76</ele>
        <time>2022-12-08T15:05:44Z</time>
      </trkpt>
      <trkpt lat="47.89664" lon="-3.89243">
        <ele>76.1</ele>
        <time>2022-12-08T15:05:45Z</time>
      </trkpt>
      <trkpt lat="47.89659" lon="-3.89238">
        <ele>76.1</ele>
        <time>2022-12-08T15:05:46Z</time>
      </trkpt>
      <trkpt lat="47.89653" lon="-3.89234">
        <ele>76.2</ele>
        <time>2022-12-08T15:05:47Z</time>
      </trkpt>
      <trkpt lat="47.89648" lon="-3.8923">
        <ele>76.3</ele>
        <time>2022-12-08T15:05:48Z</time>
      </trkpt>
      <trkpt lat="47.89642" lon="-3.89226">
        <ele>76.3</ele>
        <time>2022-12-08T15:05:49Z</time>
      </trkpt>
      <trkpt lat="47.89637" lon="-3.89221">
        <ele>76.3</ele>
        <time>2022-12-08T15:05:50Z</time>
      </trkpt>
      <trkpt lat="47.89631" lon="-3.89217">
        <ele>76.4</ele>
        <time>2022-12-08T15:05:51Z</time>
      </trkpt>
      <trkpt lat="47.89626" lon="-3.89213">
        <ele>76.5</ele>
        <time>2022-12-08T15:05:52Z</time>
      </trkpt>
      <trkpt lat="47.89621" lon="-3.89208">
        <ele>76.6</ele>
        <time>2022-12-08T15:05:53Z</time>
      </trkpt>
      <trkpt lat="47.89617" lon="-3.89204">
        <ele>76.6</ele>
        <time>2022-12-08T15:05:54Z</time>
      </trkpt>
      <trkpt lat="47.89612" lon="-3.892">
        <ele>76.7</ele>
        <time>2022-12-08T15:05:55Z</time>
      </trkpt>
      <trkpt lat="47.89608" lon="-3.89195">
        <ele>76.8</ele>
        <time>2022-12-08T15:05:56Z</time>
      </trkpt>
      <trkpt lat="47.89603" lon="-3.8919">
        <ele>76.8</ele>
        <time>2022-12-08T15:05:57Z</time>
      </trkpt>
      <trkpt lat="47.89598" lon="-3.89185">
        <ele>76.9</ele>
        <time>2022-12-08T15:05:58Z</time>
      </trkpt>
      <trkpt lat="47.89593" lon="-3.89179">
        <ele>76.9</ele>
        <time>2022-12-08T15:05:59Z</time>
      </trkpt>
      <trkpt lat="47.89588" lon="-3.89174">
        <ele>76.9</ele>
        <time>2022-12-08T15:06:00Z</time>
      </trkpt>
      <trkpt lat="47.89583" lon="-3.89169">
        <ele>76.9</ele>
        <time>2022-12-08T15:06:01Z</time>
      </trkpt>
      <trkpt lat="47.89578" lon="-3.89165">
        <ele>76.9</ele>
        <time>2022-12-08T15:06:02Z</time>
      </trkpt>
      <trkpt lat="47.89574" lon="-3.8916">
        <ele>76.9</ele>
        <time>2022-12-08T15:06:03Z</time>
      </trkpt>
      <trkpt lat="47.89569" lon="-3.89156">
        <ele>76.9</ele>
        <time>2022-12-08T15:06:04Z</time>
      </trkpt>
      <trkpt lat="47.89565" lon="-3.89151">
        <ele>77</ele>
        <time>2022-12-08T15:06:05Z</time>
      </trkpt>
      <trkpt lat="47.8956" lon="-3.89147">
        <ele>77</ele>
        <time>2022-12-08T15:06:06Z</time>
      </trkpt>
      <trkpt lat="47.89555" lon="-3.89143">
        <ele>77</ele>
        <time>2022-12-08T15:06:07Z</time>
      </trkpt>
      <trkpt lat="47.89551" lon="-3.89138">
        <ele>77</ele>
        <time>2022-12-08T15:06:08Z</time>
      </trkpt>
      <trkpt lat="47.89546" lon="-3.89133">
        <ele>77.1</ele>
        <time>2022-12-08T15:06:09Z</time>
      </trkpt>
      <trkpt lat="47.89542" lon="-3.89127">
        <ele>77.1</ele>
        <time>2022-12-08T15:06:10Z</time>
      </trkpt>
      <trkpt lat="47.89538" lon="-3.89123">
        <ele>77.1</ele>
        <time>2022-12-08T15:06:11Z</time>
      </trkpt>
      <trkpt lat="47.89512" lon="-3.89085">
        <ele>77.1</ele>
        <time>2022-12-08T15:06:17Z</time>
      </trkpt>
      <trkpt lat="47.8951" lon="-3.89081">
        <ele>77.1</ele>
        <time>2022-12-08T15:06:18Z</time>
      </trkpt>
      <trkpt lat="47.89507" lon="-3.89075">
        <ele>77</ele>
        <time>2022-12-08T15:06:19Z</time>
      </trkpt>
      <trkpt lat="47.89503" lon="-3.89068">
        <ele>77</ele>
        <time>2022-12-08T15:06:20Z</time>
      </trkpt>
      <trkpt lat="47.89499" lon="-3.89062">
        <ele>76.9</ele>
        <time>2022-12-08T15:06:21Z</time>
      </trkpt>
      <trkpt lat="47.89495" lon="-3.89055">
        <ele>76.9</ele>
        <time>2022-12-08T15:06:22Z</time>
      </trkpt>
      <trkpt lat="47.89491" lon="-3.89049">
        <ele>76.9</ele>
        <time>2022-12-08T15:06:23Z</time>
      </trkpt>
      <trkpt lat="47.89487" lon="-3.89042">
        <ele>76.8</ele>
        <time>2022-12-08T15:06:24Z</time>
      </trkpt>
      <trkpt lat="47.89482" lon="-3.89036">
        <ele>76.8</ele>
        <time>2022-12-08T15:06:25Z</time>
      </trkpt>
      <trkpt lat="47.89477" lon="-3.8903">
        <ele>76.7</ele>
        <time>2022-12-08T15:06:26Z</time>
      </trkpt>
      <trkpt lat="47.89472" lon="-3.89025">
        <ele>76.7</ele>
        <time>2022-12-08T15:06:27Z</time>
      </trkpt>
      <trkpt lat="47.89468" lon="-3.89021">
        <ele>76.7</ele>
        <time>2022-12-08T15:06:28Z</time>
      </trkpt>
      <trkpt lat="47.89463" lon="-3.89016">
        <ele>76.7</ele>
        <time>2022-12-08T15:06:29Z</time>
      </trkpt>
      <trkpt lat="47.89458" lon="-3.89012">
        <ele>76.7</ele>
        <time>2022-12-08T15:06:30Z</time>
      </trkpt>
      <trkpt lat="47.89453" lon="-3.89008">
        <ele>76.7</ele>
        <time>2022-12-08T15:06:31Z</time>
      </trkpt>
      <trkpt lat="47.89448" lon="-3.89004">
        <ele>76.7</ele>
        <time>2022-12-08T15:06:32Z</time>
      </trkpt>
      <trkpt lat="47.89444" lon="-3.89001">
        <ele>76.7</ele>
        <time>2022-12-08T15:06:33Z</time>
      </trkpt>
      <trkpt lat="47.89442" lon="-3.88999">
        <ele>76.7</ele>
        <time>2022-12-08T15:06:34Z</time>
      </trkpt>
      <trkpt lat="47.89442" lon="-3.88998">
        <ele>76.7</ele>
        <time>2022-12-08T15:06:35Z</time>
      </trkpt>
      <trkpt lat="47.89439" lon="-3.88995">
        <ele>76.7</ele>
        <time>2022-12-08T15:06:36Z</time>
      </trkpt>
      <trkpt lat="47.89438" lon="-3.88993">
        <ele>76.6</ele>
        <time>2022-12-08T15:06:37Z</time>
      </trkpt>
      <trkpt lat="47.89435" lon="-3.8899">
        <ele>76.6</ele>
        <time>2022-12-08T15:06:38Z</time>
      </trkpt>
      <trkpt lat="47.89432" lon="-3.88986">
        <ele>76.5</ele>
        <time>2022-12-08T15:06:39Z</time>
      </trkpt>
      <trkpt lat="47.8943" lon="-3.88984">
        <ele>76.4</ele>
        <time>2022-12-08T15:06:40Z</time>
      </trkpt>
      <trkpt lat="47.89425" lon="-3.88981">
        <ele>76.3</ele>
        <time>2022-12-08T15:06:41Z</time>
      </trkpt>
      <trkpt lat="47.8942" lon="-3.88976">
        <ele>76.2</ele>
        <time>2022-12-08T15:06:42Z</time>
      </trkpt>
      <trkpt lat="47.89415" lon="-3.88972">
        <ele>76.1</ele>
        <time>2022-12-08T15:06:43Z</time>
      </trkpt>
      <trkpt lat="47.89411" lon="-3.88967">
        <ele>76</ele>
        <time>2022-12-08T15:06:44Z</time>
      </trkpt>
      <trkpt lat="47.89407" lon="-3.88961">
        <ele>75.9</ele>
        <time>2022-12-08T15:06:45Z</time>
      </trkpt>
      <trkpt lat="47.89402" lon="-3.88956">
        <ele>75.8</ele>
        <time>2022-12-08T15:06:46Z</time>
      </trkpt>
      <trkpt lat="47.89397" lon="-3.88952">
        <ele>75.7</ele>
        <time>2022-12-08T15:06:47Z</time>
      </trkpt>
      <trkpt lat="47.89393" lon="-3.88947">
        <ele>75.6</ele>
        <time>2022-12-08T15:06:48Z</time>
      </trkpt>
      <trkpt lat="47.89388" lon="-3.88942">
        <ele>75.5</ele>
        <time>2022-12-08T15:06:49Z</time>
      </trkpt>
      <trkpt lat="47.8938" lon="-3.88933">
        <ele>75.5</ele>
        <time>2022-12-08T15:06:51Z</time>
      </trkpt>
      <trkpt lat="47.89375" lon="-3.88928">
        <ele>75.5</ele>
        <time>2022-12-08T15:06:52Z</time>
      </trkpt>
      <trkpt lat="47.8937" lon="-3.88923">
        <ele>75.5</ele>
        <time>2022-12-08T15:06:53Z</time>
      </trkpt>
      <trkpt lat="47.89365" lon="-3.88918">
        <ele>75.5</ele>
        <time>2022-12-08T15:06:54Z</time>
      </trkpt>
      <trkpt lat="47.89361" lon="-3.88913">
        <ele>75.5</ele>
        <time>2022-12-08T15:06:55Z</time>
      </trkpt>
      <trkpt lat="47.89356" lon="-3.88909">
        <ele>75.5</ele>
        <time>2022-12-08T15:06:56Z</time>
      </trkpt>
      <trkpt lat="47.89351" lon="-3.88904">
        <ele>75.5</ele>
        <time>2022-12-08T15:06:57Z</time>
      </trkpt>
      <trkpt lat="47.89347" lon="-3.88899">
        <ele>75.5</ele>
        <time>2022-12-08T15:06:58Z</time>
      </trkpt>
      <trkpt lat="47.89342" lon="-3.88895">
        <ele>75.5</ele>
        <time>2022-12-08T15:06:59Z</time>
      </trkpt>
      <trkpt lat="47.89337" lon="-3.8889">
        <ele>75.5</ele>
        <time>2022-12-08T15:07:00Z</time>
      </trkpt>
      <trkpt lat="47.89332" lon="-3.88885">
        <ele>75.6</ele>
        <time>2022-12-08T15:07:01Z</time>
      </trkpt>
      <trkpt lat="47.89328" lon="-3.8888">
        <ele>75.6</ele>
        <time>2022-12-08T15:07:02Z</time>
      </trkpt>
      <trkpt lat="47.89323" lon="-3.88875">
        <ele>75.6</ele>
        <time>2022-12-08T15:07:03Z</time>
      </trkpt>
      <trkpt lat="47.89319" lon="-3.8887">
        <ele>75.6</ele>
        <time>2022-12-08T15:07:04Z</time>
      </trkpt>
      <trkpt lat="47.89314" lon="-3.88865">
        <ele>75.6</ele>
        <time>2022-12-08T15:07:05Z</time>
      </trkpt>
      <trkpt lat="47.89309" lon="-3.88861">
        <ele>75.6</ele>
        <time>2022-12-08T15:07:06Z</time>
      </trkpt>
      <trkpt lat="47.89304" lon="-3.88857">
        <ele>75.6</ele>
        <time>2022-12-08T15:07:07Z</time>
      </trkpt>
      <trkpt lat="47.89299" lon="-3.88853">
        <ele>75.5</ele>
        <time>2022-12-08T15:07:08Z</time>
      </trkpt>
      <trkpt lat="47.89294" lon="-3.8885">
        <ele>75.4</ele>
        <time>2022-12-08T15:07:09Z</time>
      </trkpt>
      <trkpt lat="47.89288" lon="-3.88845">
        <ele>75.4</ele>
        <time>2022-12-08T15:07:10Z</time>
      </trkpt>
      <trkpt lat="47.89283" lon="-3.88841">
        <ele>75.3</ele>
        <time>2022-12-08T15:07:11Z</time>
      </trkpt>
      <trkpt lat="47.89278" lon="-3.88837">
        <ele>75.3</ele>
        <time>2022-12-08T15:07:12Z</time>
      </trkpt>
      <trkpt lat="47.89272" lon="-3.88832">
        <ele>75.2</ele>
        <time>2022-12-08T15:07:13Z</time>
      </trkpt>
      <trkpt lat="47.89267" lon="-3.88826">
        <ele>75.1</ele>
        <time>2022-12-08T15:07:14Z</time>
      </trkpt>
      <trkpt lat="47.89263" lon="-3.8882">
        <ele>75</ele>
        <time>2022-12-08T15:07:15Z</time>
      </trkpt>
      <trkpt lat="47.89258" lon="-3.88813">
        <ele>74.9</ele>
        <time>2022-12-08T15:07:16Z</time>
      </trkpt>
      <trkpt lat="47.89254" lon="-3.88806">
        <ele>74.8</ele>
        <time>2022-12-08T15:07:17Z</time>
      </trkpt>
      <trkpt lat="47.8925" lon="-3.888">
        <ele>74.7</ele>
        <time>2022-12-08T15:07:18Z</time>
      </trkpt>
      <trkpt lat="47.89246" lon="-3.88795">
        <ele>74.6</ele>
        <time>2022-12-08T15:07:19Z</time>
      </trkpt>
      <trkpt lat="47.89242" lon="-3.88788">
        <ele>74.5</ele>
        <time>2022-12-08T15:07:20Z</time>
      </trkpt>
      <trkpt lat="47.89238" lon="-3.88781">
        <ele>74.4</ele>
        <time>2022-12-08T15:07:21Z</time>
      </trkpt>
      <trkpt lat="47.89234" lon="-3.88773">
        <ele>74.2</ele>
        <time>2022-12-08T15:07:22Z</time>
      </trkpt>
      <trkpt lat="47.8923" lon="-3.88765">
        <ele>74</ele>
        <time>2022-12-08T15:07:23Z</time>
      </trkpt>
      <trkpt lat="47.89225" lon="-3.88758">
        <ele>73.8</ele>
        <time>2022-12-08T15:07:24Z</time>
      </trkpt>
      <trkpt lat="47.89221" lon="-3.8875">
        <ele>73.6</ele>
        <time>2022-12-08T15:07:25Z</time>
      </trkpt>
      <trkpt lat="47.89216" lon="-3.88743">
        <ele>73.5</ele>
        <time>2022-12-08T15:07:26Z</time>
      </trkpt>
      <trkpt lat="47.8921" lon="-3.88735">
        <ele>73.3</ele>
        <time>2022-12-08T15:07:27Z</time>
      </trkpt>
      <trkpt lat="47.89205" lon="-3.88728">
        <ele>73.1</ele>
        <time>2022-12-08T15:07:28Z</time>
      </trkpt>
      <trkpt lat="47.892" lon="-3.88722">
        <ele>73</ele>
        <time>2022-12-08T15:07:29Z</time>
      </trkpt>
      <trkpt lat="47.89194" lon="-3.88715">
        <ele>72.8</ele>
        <time>2022-12-08T15:07:30Z</time>
      </trkpt>
      <trkpt lat="47.8919" lon="-3.88708">
        <ele>72.7</ele>
        <time>2022-12-08T15:07:31Z</time>
      </trkpt>
      <trkpt lat="47.89185" lon="-3.88701">
        <ele>72.6</ele>
        <time>2022-12-08T15:07:32Z</time>
      </trkpt>
      <trkpt lat="47.89181" lon="-3.88694">
        <ele>72.4</ele>
        <time>2022-12-08T15:07:33Z</time>
      </trkpt>
      <trkpt lat="47.89177" lon="-3.88687">
        <ele>72.3</ele>
        <time>2022-12-08T15:07:34Z</time>
      </trkpt>
      <trkpt lat="47.89173" lon="-3.88679">
        <ele>72.2</ele>
        <time>2022-12-08T15:07:35Z</time>
      </trkpt>
      <trkpt lat="47.89169" lon="-3.88672">
        <ele>72.1</ele>
        <time>2022-12-08T15:07:36Z</time>
      </trkpt>
      <trkpt lat="47.89165" lon="-3.88665">
        <ele>71.9</ele>
        <time>2022-12-08T15:07:37Z</time>
      </trkpt>
      <trkpt lat="47.89161" lon="-3.88657">
        <ele>71.7</ele>
        <time>2022-12-08T15:07:38Z</time>
      </trkpt>
      <trkpt lat="47.89157" lon="-3.88648">
        <ele>71.6</ele>
        <time>2022-12-08T15:07:39Z</time>
      </trkpt>
      <trkpt lat="47.89152" lon="-3.8864">
        <ele>71.4</ele>
        <time>2022-12-08T15:07:40Z</time>
      </trkpt>
      <trkpt lat="47.89147" lon="-3.88632">
        <ele>71.2</ele>
        <time>2022-12-08T15:07:41Z</time>
      </trkpt>
      <trkpt lat="47.89143" lon="-3.88623">
        <ele>71</ele>
        <time>2022-12-08T15:07:42Z</time>
      </trkpt>
      <trkpt lat="47.89138" lon="-3.88614">
        <ele>70.8</ele>
        <time>2022-12-08T15:07:43Z</time>
      </trkpt>
      <trkpt lat="47.89133" lon="-3.88606">
        <ele>70.6</ele>
        <time>2022-12-08T15:07:44Z</time>
      </trkpt>
      <trkpt lat="47.89129" lon="-3.88598">
        <ele>70.5</ele>
        <time>2022-12-08T15:07:45Z</time>
      </trkpt>
      <trkpt lat="47.89124" lon="-3.8859">
        <ele>70.3</ele>
        <time>2022-12-08T15:07:46Z</time>
      </trkpt>
      <trkpt lat="47.8912" lon="-3.88582">
        <ele>70.2</ele>
        <time>2022-12-08T15:07:47Z</time>
      </trkpt>
      <trkpt lat="47.89116" lon="-3.88574">
        <ele>70.2</ele>
        <time>2022-12-08T15:07:48Z</time>
      </trkpt>
      <trkpt lat="47.89112" lon="-3.88565">
        <ele>70.2</ele>
        <time>2022-12-08T15:07:49Z</time>
      </trkpt>
      <trkpt lat="47.89107" lon="-3.88557">
        <ele>70.2</ele>
        <time>2022-12-08T15:07:50Z</time>
      </trkpt>
      <trkpt lat="47.89103" lon="-3.88549">
        <ele>70.1</ele>
        <time>2022-12-08T15:07:51Z</time>
      </trkpt>
      <trkpt lat="47.89098" lon="-3.88541">
        <ele>70</ele>
        <time>2022-12-08T15:07:52Z</time>
      </trkpt>
      <trkpt lat="47.89094" lon="-3.88533">
        <ele>70</ele>
        <time>2022-12-08T15:07:53Z</time>
      </trkpt>
      <trkpt lat="47.89089" lon="-3.88525">
        <ele>70</ele>
        <time>2022-12-08T15:07:54Z</time>
      </trkpt>
      <trkpt lat="47.89085" lon="-3.88517">
        <ele>70</ele>
        <time>2022-12-08T15:07:55Z</time>
      </trkpt>
      <trkpt lat="47.89081" lon="-3.88509">
        <ele>70</ele>
        <time>2022-12-08T15:07:56Z</time>
      </trkpt>
      <trkpt lat="47.89076" lon="-3.88502">
        <ele>69.9</ele>
        <time>2022-12-08T15:07:57Z</time>
      </trkpt>
      <trkpt lat="47.89071" lon="-3.88496">
        <ele>69.8</ele>
        <time>2022-12-08T15:07:58Z</time>
      </trkpt>
      <trkpt lat="47.89066" lon="-3.8849">
        <ele>69.8</ele>
        <time>2022-12-08T15:07:59Z</time>
      </trkpt>
      <trkpt lat="47.8906" lon="-3.88485">
        <ele>69.7</ele>
        <time>2022-12-08T15:08:00Z</time>
      </trkpt>
      <trkpt lat="47.89054" lon="-3.8848">
        <ele>69.6</ele>
        <time>2022-12-08T15:08:01Z</time>
      </trkpt>
      <trkpt lat="47.89049" lon="-3.88476">
        <ele>69.6</ele>
        <time>2022-12-08T15:08:02Z</time>
      </trkpt>
      <trkpt lat="47.89043" lon="-3.88471">
        <ele>69.5</ele>
        <time>2022-12-08T15:08:03Z</time>
      </trkpt>
      <trkpt lat="47.89037" lon="-3.88466">
        <ele>69.5</ele>
        <time>2022-12-08T15:08:04Z</time>
      </trkpt>
      <trkpt lat="47.89032" lon="-3.8846">
        <ele>69.4</ele>
        <time>2022-12-08T15:08:05Z</time>
      </trkpt>
      <trkpt lat="47.89029" lon="-3.88452">
        <ele>69.4</ele>
        <time>2022-12-08T15:08:06Z</time>
      </trkpt>
      <trkpt lat="47.89029" lon="-3.88442">
        <ele>69.5</ele>
        <time>2022-12-08T15:08:07Z</time>
      </trkpt>
      <trkpt lat="47.89031" lon="-3.88433">
        <ele>69.5</ele>
        <time>2022-12-08T15:08:08Z</time>
      </trkpt>
      <trkpt lat="47.89034" lon="-3.88425">
        <ele>69.6</ele>
        <time>2022-12-08T15:08:09Z</time>
      </trkpt>
      <trkpt lat="47.89037" lon="-3.88418">
        <ele>69.8</ele>
        <time>2022-12-08T15:08:10Z</time>
      </trkpt>
      <trkpt lat="47.8904" lon="-3.88411">
        <ele>69.9</ele>
        <time>2022-12-08T15:08:11Z</time>
      </trkpt>
      <trkpt lat="47.89042" lon="-3.88404">
        <ele>70.1</ele>
        <time>2022-12-08T15:08:12Z</time>
      </trkpt>
      <trkpt lat="47.89045" lon="-3.88396">
        <ele>70.4</ele>
        <time>2022-12-08T15:08:13Z</time>
      </trkpt>
      <trkpt lat="47.89048" lon="-3.88389">
        <ele>70.7</ele>
        <time>2022-12-08T15:08:14Z</time>
      </trkpt>
      <trkpt lat="47.8905" lon="-3.88383">
        <ele>71</ele>
        <time>2022-12-08T15:08:15Z</time>
      </trkpt>
      <trkpt lat="47.89053" lon="-3.88376">
        <ele>71.3</ele>
        <time>2022-12-08T15:08:16Z</time>
      </trkpt>
      <trkpt lat="47.89056" lon="-3.88369">
        <ele>71.7</ele>
        <time>2022-12-08T15:08:17Z</time>
      </trkpt>
      <trkpt lat="47.89059" lon="-3.88362">
        <ele>72</ele>
        <time>2022-12-08T15:08:18Z</time>
      </trkpt>
      <trkpt lat="47.89061" lon="-3.88355">
        <ele>72.3</ele>
        <time>2022-12-08T15:08:19Z</time>
      </trkpt>
      <trkpt lat="47.89064" lon="-3.88349">
        <ele>72.6</ele>
        <time>2022-12-08T15:08:20Z</time>
      </trkpt>
      <trkpt lat="47.89067" lon="-3.88343">
        <ele>72.8</ele>
        <time>2022-12-08T15:08:21Z</time>
      </trkpt>
      <trkpt lat="47.89071" lon="-3.88337">
        <ele>73.1</ele>
        <time>2022-12-08T15:08:22Z</time>
      </trkpt>
      <trkpt lat="47.89073" lon="-3.88332">
        <ele>73.3</ele>
        <time>2022-12-08T15:08:23Z</time>
      </trkpt>
      <trkpt lat="47.89076" lon="-3.88325">
        <ele>73.5</ele>
        <time>2022-12-08T15:08:24Z</time>
      </trkpt>
      <trkpt lat="47.89078" lon="-3.88318">
        <ele>73.7</ele>
        <time>2022-12-08T15:08:25Z</time>
      </trkpt>
      <trkpt lat="47.8908" lon="-3.88311">
        <ele>73.9</ele>
        <time>2022-12-08T15:08:26Z</time>
      </trkpt>
      <trkpt lat="47.89081" lon="-3.88303">
        <ele>74.1</ele>
        <time>2022-12-08T15:08:27Z</time>
      </trkpt>
      <trkpt lat="47.89083" lon="-3.88295">
        <ele>74.3</ele>
        <time>2022-12-08T15:08:28Z</time>
      </trkpt>
      <trkpt lat="47.89085" lon="-3.88288">
        <ele>74.5</ele>
        <time>2022-12-08T15:08:29Z</time>
      </trkpt>
      <trkpt lat="47.89086" lon="-3.88281">
        <ele>74.6</ele>
        <time>2022-12-08T15:08:30Z</time>
      </trkpt>
      <trkpt lat="47.89087" lon="-3.88274">
        <ele>74.7</ele>
        <time>2022-12-08T15:08:31Z</time>
      </trkpt>
      <trkpt lat="47.89089" lon="-3.88268">
        <ele>74.8</ele>
        <time>2022-12-08T15:08:32Z</time>
      </trkpt>
      <trkpt lat="47.8909" lon="-3.88262">
        <ele>74.8</ele>
        <time>2022-12-08T15:08:33Z</time>
      </trkpt>
      <trkpt lat="47.89092" lon="-3.88255">
        <ele>74.9</ele>
        <time>2022-12-08T15:08:34Z</time>
      </trkpt>
      <trkpt lat="47.89093" lon="-3.88249">
        <ele>74.9</ele>
        <time>2022-12-08T15:08:35Z</time>
      </trkpt>
      <trkpt lat="47.89094" lon="-3.88245">
        <ele>74.9</ele>
        <time>2022-12-08T15:08:36Z</time>
      </trkpt>
      <trkpt lat="47.89095" lon="-3.88237">
        <ele>75</ele>
        <time>2022-12-08T15:08:37Z</time>
      </trkpt>
      <trkpt lat="47.89096" lon="-3.88233">
        <ele>75</ele>
        <time>2022-12-08T15:08:38Z</time>
      </trkpt>
      <trkpt lat="47.89097" lon="-3.88226">
        <ele>75.1</ele>
        <time>2022-12-08T15:08:39Z</time>
      </trkpt>
      <trkpt lat="47.89098" lon="-3.8822">
        <ele>75.1</ele>
        <time>2022-12-08T15:08:40Z</time>
      </trkpt>
      <trkpt lat="47.89099" lon="-3.88213">
        <ele>75.1</ele>
        <time>2022-12-08T15:08:41Z</time>
      </trkpt>
      <trkpt lat="47.89101" lon="-3.88208">
        <ele>75.2</ele>
        <time>2022-12-08T15:08:42Z</time>
      </trkpt>
      <trkpt lat="47.89102" lon="-3.88207">
        <ele>75.2</ele>
        <time>2022-12-08T15:08:43Z</time>
      </trkpt>
      <trkpt lat="47.89104" lon="-3.88204">
        <ele>75.2</ele>
        <time>2022-12-08T15:08:44Z</time>
      </trkpt>
      <trkpt lat="47.89104" lon="-3.88203">
        <ele>75.2</ele>
        <time>2022-12-08T15:08:45Z</time>
      </trkpt>
      <trkpt lat="47.89104" lon="-3.88202">
        <ele>75.2</ele>
        <time>2022-12-08T15:08:46Z</time>
      </trkpt>
      <trkpt lat="47.89104" lon="-3.88201">
        <ele>75.2</ele>
        <time>2022-12-08T15:08:48Z</time>
      </trkpt>
      <trkpt lat="47.89104" lon="-3.882">
        <ele>75.2</ele>
        <time>2022-12-08T15:08:49Z</time>
      </trkpt>
      <trkpt lat="47.89104" lon="-3.88199">
        <ele>75.2</ele>
        <time>2022-12-08T15:08:50Z</time>
      </trkpt>
      <trkpt lat="47.89104" lon="-3.88199">
        <ele>75.2</ele>
        <time>2022-12-08T15:08:51Z</time>
      </trkpt>
      <trkpt lat="47.89104" lon="-3.88199">
        <ele>75.2</ele>
        <time>2022-12-08T15:08:53Z</time>
      </trkpt>
      <trkpt lat="47.89104" lon="-3.88198">
        <ele>75.2</ele>
        <time>2022-12-08T15:08:54Z</time>
        <extensions>
          <visugpx:TrkExtension xmlns:visugpx="https://www.visugpx.com/editgpx/">
            <visugpx:node>5</visugpx:node>
            </visugpx:TrkExtension>
        </extensions>
      </trkpt>
    </trkseg>
  </trk>
</gpx>